<?xml version="1.0" encoding="UTF-8"?>
<gpx xmlns="http://www.topografix.com/GPX/1/1" version="1.1" creator="Nokia Sports Tracker" xmlns:xsi="http://www.w3.org/2001/XMLSchema-instance" xsi:schemaLocation="http://www.topografix.com/GPX/1/1 http://www.topografix.com/GPX/1/1/gpx.xsd">
<metadata>
<name>11.09.2010 14:12</name>
<desc>Motor on Neue Route</desc>
<author><name>Alexander</name></author>
<time>2010-09-11T14:12:37.23</time>
</metadata>
<trk>
<name>11.09.2010 14:12</name>
<trkseg>
<trkpt lat="50.078317" lon="9.248250">
<ele>112.0</ele>
<speed>0.0</speed>
<course>290.8</course>
<desc>Speed 0.0 km/h Distance 0.00 km</desc>
<time>2010-09-11T14:13:00.94</time>
<name>1</name>
</trkpt>
<trkpt lat="50.078515" lon="9.247435">
<ele>183.5</ele>
<speed>2.0</speed>
<course>302.2</course>
<desc>Speed 2.0 km/h Distance 0.06 km</desc>
<time>2010-09-11T14:13:06.45</time>
<name>2</name>
</trkpt>
<trkpt lat="50.078592" lon="9.247245">
<ele>203.0</ele>
<speed>1.5</speed>
<course>282.2</course>
<desc>Speed 1.5 km/h Distance 0.08 km</desc>
<time>2010-09-11T14:13:09.47</time>
<name>3</name>
</trkpt>
<trkpt lat="50.078608" lon="9.247125">
<ele>216.0</ele>
<speed>4.8</speed>
<course>276.5</course>
<desc>Speed 4.8 km/h Distance 0.09 km</desc>
<time>2010-09-11T14:13:11.48</time>
<name>4</name>
</trkpt>
<trkpt lat="50.078617" lon="9.247012">
<ele>227.5</ele>
<speed>4.0</speed>
<course>79.0</course>
<desc>Speed 4.0 km/h Distance 0.10 km</desc>
<time>2010-09-11T14:13:13.45</time>
<name>5</name>
</trkpt>
<trkpt lat="50.078618" lon="9.247025">
<ele>229.5</ele>
<speed>2.9</speed>
<course>125.3</course>
<desc>Speed 2.9 km/h Distance 0.10 km</desc>
<time>2010-09-11T14:13:14.46</time>
<name>6</name>
</trkpt>
<trkpt lat="50.078610" lon="9.247043">
<ele>230.0</ele>
<speed>3.1</speed>
<course>58.1</course>
<desc>Speed 3.1 km/h Distance 0.10 km</desc>
<time>2010-09-11T14:13:15.46</time>
<name>7</name>
</trkpt>
<trkpt lat="50.078617" lon="9.247060">
<ele>233.0</ele>
<speed>3.6</speed>
<course>167.4</course>
<desc>Speed 3.6 km/h Distance 0.10 km</desc>
<time>2010-09-11T14:13:16.46</time>
<name>8</name>
</trkpt>
<trkpt lat="50.078613" lon="9.247062">
<ele>234.5</ele>
<speed>2.1</speed>
<course>142.8</course>
<desc>Speed 2.1 km/h Distance 0.10 km</desc>
<time>2010-09-11T14:13:17.46</time>
<name>9</name>
</trkpt>
<trkpt lat="50.078612" lon="9.247063">
<ele>235.0</ele>
<speed>2.1</speed>
<course>39.7</course>
<desc>Speed 2.1 km/h Distance 0.10 km</desc>
<time>2010-09-11T14:13:18.47</time>
<name>10</name>
</trkpt>
<trkpt lat="50.078617" lon="9.247070">
<ele>236.5</ele>
<speed>0.7</speed>
<course>330.8</course>
<desc>Speed 0.7 km/h Distance 0.10 km</desc>
<time>2010-09-11T14:13:19.46</time>
<name>11</name>
</trkpt>
<trkpt lat="50.078620" lon="9.247067">
<ele>238.0</ele>
<speed>2.7</speed>
<course>24.8</course>
<desc>Speed 2.7 km/h Distance 0.10 km</desc>
<time>2010-09-11T14:13:20.46</time>
<name>12</name>
</trkpt>
<trkpt lat="50.078627" lon="9.247072">
<ele>239.0</ele>
<speed>2.7</speed>
<course>301.9</course>
<desc>Speed 2.7 km/h Distance 0.10 km</desc>
<time>2010-09-11T14:13:21.46</time>
<name>13</name>
</trkpt>
<trkpt lat="50.078633" lon="9.247055">
<ele>242.5</ele>
<speed>2.7</speed>
<course>9.8</course>
<desc>Speed 2.7 km/h Distance 0.10 km</desc>
<time>2010-09-11T14:13:22.46</time>
<name>14</name>
</trkpt>
<trkpt lat="50.078652" lon="9.247060">
<ele>243.0</ele>
<speed>6.6</speed>
<course>357.5</course>
<desc>Speed 6.6 km/h Distance 0.11 km</desc>
<time>2010-09-11T14:13:23.46</time>
<name>15</name>
</trkpt>
<trkpt lat="50.078670" lon="9.247058">
<ele>244.0</ele>
<speed>6.6</speed>
<course>14.3</course>
<desc>Speed 6.6 km/h Distance 0.11 km</desc>
<time>2010-09-11T14:13:24.45</time>
<name>16</name>
</trkpt>
<trkpt lat="50.078703" lon="9.247072">
<ele>245.5</ele>
<speed>0.9</speed>
<course>0.0</course>
<desc>Speed 0.9 km/h Distance 0.11 km</desc>
<time>2010-09-11T14:13:26.45</time>
<name>17</name>
</trkpt>
<trkpt lat="50.078708" lon="9.247072">
<ele>246.0</ele>
<speed>0.9</speed>
<course>12.6</course>
<desc>Speed 0.9 km/h Distance 0.11 km</desc>
<time>2010-09-11T14:13:27.45</time>
<name>18</name>
</trkpt>
<trkpt lat="50.078712" lon="9.247073">
<ele>246.0</ele>
<speed>0.9</speed>
<course>12.6</course>
<desc>Speed 0.9 km/h Distance 0.11 km</desc>
<time>2010-09-11T14:13:28.47</time>
<name>19</name>
</trkpt>
<trkpt lat="50.078712" lon="9.247072">
<ele>246.5</ele>
<speed>0.9</speed>
<course>12.6</course>
<desc>Speed 0.9 km/h Distance 0.11 km</desc>
<time>2010-09-11T14:13:29.45</time>
<name>20</name>
</trkpt>
<trkpt lat="50.078712" lon="9.247070">
<ele>246.5</ele>
<speed>0.9</speed>
<course>298.3</course>
<desc>Speed 0.9 km/h Distance 0.11 km</desc>
<time>2010-09-11T14:13:30.45</time>
<name>21</name>
</trkpt>
<trkpt lat="50.078713" lon="9.247065">
<ele>246.5</ele>
<speed>0.9</speed>
<course>192.6</course>
<desc>Speed 0.9 km/h Distance 0.11 km</desc>
<time>2010-09-11T14:13:31.45</time>
<name>22</name>
</trkpt>
<trkpt lat="50.078708" lon="9.247063">
<ele>246.5</ele>
<speed>1.9</speed>
<course>90.0</course>
<desc>Speed 1.9 km/h Distance 0.11 km</desc>
<time>2010-09-11T14:13:32.46</time>
<name>23</name>
</trkpt>
<trkpt lat="50.078708" lon="9.247065">
<ele>246.5</ele>
<speed>1.6</speed>
<course>152.2</course>
<desc>Speed 1.6 km/h Distance 0.11 km</desc>
<time>2010-09-11T14:13:33.45</time>
<name>24</name>
</trkpt>
<trkpt lat="50.078690" lon="9.247080">
<ele>248.0</ele>
<speed>8.8</speed>
<course>155.8</course>
<desc>Speed 8.8 km/h Distance 0.12 km</desc>
<time>2010-09-11T14:13:34.46</time>
<name>25</name>
</trkpt>
<trkpt lat="50.078673" lon="9.247092">
<ele>248.5</ele>
<speed>8.8</speed>
<course>203.0</course>
<desc>Speed 8.8 km/h Distance 0.12 km</desc>
<time>2010-09-11T14:13:35.45</time>
<name>26</name>
</trkpt>
<trkpt lat="50.078663" lon="9.247085">
<ele>249.5</ele>
<speed>5.7</speed>
<course>130.8</course>
<desc>Speed 5.7 km/h Distance 0.12 km</desc>
<time>2010-09-11T14:13:36.45</time>
<name>27</name>
</trkpt>
<trkpt lat="50.078655" lon="9.247100">
<ele>250.0</ele>
<speed>4.7</speed>
<course>155.4</course>
<desc>Speed 4.7 km/h Distance 0.12 km</desc>
<time>2010-09-11T14:13:37.45</time>
<name>28</name>
</trkpt>
<trkpt lat="50.078643" lon="9.247108">
<ele>252.5</ele>
<speed>5.0</speed>
<course>223.5</course>
<desc>Speed 5.0 km/h Distance 0.12 km</desc>
<time>2010-09-11T14:13:38.45</time>
<name>29</name>
</trkpt>
<trkpt lat="50.078640" lon="9.247103">
<ele>254.0</ele>
<speed>1.9</speed>
<course>252.7</course>
<desc>Speed 1.9 km/h Distance 0.12 km</desc>
<time>2010-09-11T14:13:39.45</time>
<name>30</name>
</trkpt>
<trkpt lat="50.078638" lon="9.247095">
<ele>254.5</ele>
<speed>3.6</speed>
<course>297.4</course>
<desc>Speed 3.6 km/h Distance 0.12 km</desc>
<time>2010-09-11T14:13:40.45</time>
<name>31</name>
</trkpt>
<trkpt lat="50.078642" lon="9.247085">
<ele>255.5</ele>
<speed>0.7</speed>
<course>37.2</course>
<desc>Speed 0.7 km/h Distance 0.12 km</desc>
<time>2010-09-11T14:13:41.44</time>
<name>32</name>
</trkpt>
<trkpt lat="50.078643" lon="9.247087">
<ele>256.5</ele>
<speed>1.1</speed>
<course>300.3</course>
<desc>Speed 1.1 km/h Distance 0.12 km</desc>
<time>2010-09-11T14:13:42.45</time>
<name>33</name>
</trkpt>
<trkpt lat="50.078648" lon="9.247073">
<ele>257.0</ele>
<speed>1.7</speed>
<course>286.4</course>
<desc>Speed 1.7 km/h Distance 0.13 km</desc>
<time>2010-09-11T14:13:43.44</time>
<name>34</name>
</trkpt>
<trkpt lat="50.078660" lon="9.247012">
<ele>259.0</ele>
<speed>0.8</speed>
<course>325.9</course>
<desc>Speed 0.8 km/h Distance 0.13 km</desc>
<time>2010-09-11T14:13:45.44</time>
<name>35</name>
</trkpt>
<trkpt lat="50.078665" lon="9.247007">
<ele>259.0</ele>
<speed>1.5</speed>
<course>270.0</course>
<desc>Speed 1.5 km/h Distance 0.13 km</desc>
<time>2010-09-11T14:13:46.45</time>
<name>36</name>
</trkpt>
<trkpt lat="50.078665" lon="9.246973">
<ele>261.0</ele>
<speed>1.5</speed>
<course>270.0</course>
<desc>Speed 1.5 km/h Distance 0.13 km</desc>
<time>2010-09-11T14:13:47.44</time>
<name>37</name>
</trkpt>
<trkpt lat="50.078665" lon="9.246968">
<ele>262.5</ele>
<speed>2.1</speed>
<course>180.0</course>
<desc>Speed 2.1 km/h Distance 0.13 km</desc>
<time>2010-09-11T14:13:48.44</time>
<name>38</name>
</trkpt>
<trkpt lat="50.078662" lon="9.246968">
<ele>263.5</ele>
<speed>0.9</speed>
<course>48.3</course>
<desc>Speed 0.9 km/h Distance 0.13 km</desc>
<time>2010-09-11T14:13:49.44</time>
<name>39</name>
</trkpt>
<trkpt lat="50.078668" lon="9.246980">
<ele>263.0</ele>
<speed>3.3</speed>
<course>319.4</course>
<desc>Speed 3.3 km/h Distance 0.13 km</desc>
<time>2010-09-11T14:13:50.44</time>
<name>40</name>
</trkpt>
<trkpt lat="50.078678" lon="9.246967">
<ele>262.5</ele>
<speed>5.8</speed>
<course>327.4</course>
<desc>Speed 5.8 km/h Distance 0.14 km</desc>
<time>2010-09-11T14:13:51.45</time>
<name>41</name>
</trkpt>
<trkpt lat="50.078685" lon="9.246960">
<ele>262.5</ele>
<speed>5.8</speed>
<course>234.7</course>
<desc>Speed 5.8 km/h Distance 0.14 km</desc>
<time>2010-09-11T14:13:52.44</time>
<name>42</name>
</trkpt>
<trkpt lat="50.078677" lon="9.246942">
<ele>264.0</ele>
<speed>2.5</speed>
<course>162.5</course>
<desc>Speed 2.5 km/h Distance 0.14 km</desc>
<time>2010-09-11T14:13:53.44</time>
<name>43</name>
</trkpt>
<trkpt lat="50.078670" lon="9.246945">
<ele>264.0</ele>
<speed>2.6</speed>
<course>308.1</course>
<desc>Speed 2.6 km/h Distance 0.14 km</desc>
<time>2010-09-11T14:13:54.45</time>
<name>44</name>
</trkpt>
<trkpt lat="50.078672" lon="9.246942">
<ele>263.5</ele>
<speed>0.6</speed>
<course>270.0</course>
<desc>Speed 0.6 km/h Distance 0.14 km</desc>
<time>2010-09-11T14:13:55.44</time>
<name>45</name>
</trkpt>
<trkpt lat="50.078672" lon="9.246937">
<ele>264.0</ele>
<speed>1.1</speed>
<course>255.5</course>
<desc>Speed 1.1 km/h Distance 0.14 km</desc>
<time>2010-09-11T14:13:56.44</time>
<name>46</name>
</trkpt>
<trkpt lat="50.078670" lon="9.246927">
<ele>264.5</ele>
<speed>0.6</speed>
<course>224.0</course>
<desc>Speed 0.6 km/h Distance 0.14 km</desc>
<time>2010-09-11T14:13:57.44</time>
<name>47</name>
</trkpt>
<trkpt lat="50.078663" lon="9.246917">
<ele>265.0</ele>
<speed>0.8</speed>
<course>255.4</course>
<desc>Speed 0.8 km/h Distance 0.14 km</desc>
<time>2010-09-11T14:13:58.44</time>
<name>48</name>
</trkpt>
<trkpt lat="50.078662" lon="9.246907">
<ele>266.0</ele>
<speed>0.8</speed>
<course>252.7</course>
<desc>Speed 0.8 km/h Distance 0.14 km</desc>
<time>2010-09-11T14:13:59.44</time>
<name>49</name>
</trkpt>
<trkpt lat="50.078658" lon="9.246890">
<ele>267.0</ele>
<speed>2.0</speed>
<course>279.8</course>
<desc>Speed 2.0 km/h Distance 0.14 km</desc>
<time>2010-09-11T14:14:00.43</time>
<name>50</name>
</trkpt>
<trkpt lat="50.078660" lon="9.246875">
<ele>267.5</ele>
<speed>3.3</speed>
<course>349.7</course>
<desc>Speed 3.3 km/h Distance 0.14 km</desc>
<time>2010-09-11T14:14:01.44</time>
<name>51</name>
</trkpt>
<trkpt lat="50.078667" lon="9.246873">
<ele>268.5</ele>
<speed>3.3</speed>
<course>308.1</course>
<desc>Speed 3.3 km/h Distance 0.15 km</desc>
<time>2010-09-11T14:14:02.43</time>
<name>52</name>
</trkpt>
<trkpt lat="50.078668" lon="9.246870">
<ele>268.5</ele>
<speed>1.8</speed>
<course>337.0</course>
<desc>Speed 1.8 km/h Distance 0.15 km</desc>
<time>2010-09-11T14:14:03.43</time>
<name>53</name>
</trkpt>
<trkpt lat="50.078672" lon="9.246868">
<ele>269.0</ele>
<speed>1.8</speed>
<course>231.9</course>
<desc>Speed 1.8 km/h Distance 0.15 km</desc>
<time>2010-09-11T14:14:04.42</time>
<name>54</name>
</trkpt>
<trkpt lat="50.078670" lon="9.246865">
<ele>268.5</ele>
<speed>1.8</speed>
<course>217.2</course>
<desc>Speed 1.8 km/h Distance 0.15 km</desc>
<time>2010-09-11T14:14:05.43</time>
<name>55</name>
</trkpt>
<trkpt lat="50.078668" lon="9.246863">
<ele>268.0</ele>
<speed>1.8</speed>
<course>270.0</course>
<desc>Speed 1.8 km/h Distance 0.15 km</desc>
<time>2010-09-11T14:14:06.46</time>
<name>56</name>
</trkpt>
<trkpt lat="50.078668" lon="9.246862">
<ele>268.0</ele>
<speed>1.8</speed>
<course>90.0</course>
<desc>Speed 1.8 km/h Distance 0.15 km</desc>
<time>2010-09-11T14:14:07.45</time>
<name>57</name>
</trkpt>
<trkpt lat="50.078668" lon="9.246872">
<ele>268.5</ele>
<speed>1.8</speed>
<course>127.9</course>
<desc>Speed 1.8 km/h Distance 0.15 km</desc>
<time>2010-09-11T14:14:08.42</time>
<name>58</name>
</trkpt>
<trkpt lat="50.078663" lon="9.246882">
<ele>269.0</ele>
<speed>1.8</speed>
<course>157.0</course>
<desc>Speed 1.8 km/h Distance 0.15 km</desc>
<time>2010-09-11T14:14:09.42</time>
<name>59</name>
</trkpt>
<trkpt lat="50.078653" lon="9.246888">
<ele>269.0</ele>
<speed>3.4</speed>
<course>153.0</course>
<desc>Speed 3.4 km/h Distance 0.15 km</desc>
<time>2010-09-11T14:14:10.43</time>
<name>60</name>
</trkpt>
<trkpt lat="50.078645" lon="9.246895">
<ele>269.5</ele>
<speed>3.4</speed>
<course>167.8</course>
<desc>Speed 3.4 km/h Distance 0.15 km</desc>
<time>2010-09-11T14:14:11.42</time>
<name>61</name>
</trkpt>
<trkpt lat="50.078630" lon="9.246900">
<ele>269.0</ele>
<speed>3.4</speed>
<course>162.4</course>
<desc>Speed 3.4 km/h Distance 0.15 km</desc>
<time>2010-09-11T14:14:12.42</time>
<name>62</name>
</trkpt>
<trkpt lat="50.078620" lon="9.246905">
<ele>269.0</ele>
<speed>3.4</speed>
<course>141.0</course>
<desc>Speed 3.4 km/h Distance 0.15 km</desc>
<time>2010-09-11T14:14:13.43</time>
<name>63</name>
</trkpt>
<trkpt lat="50.078613" lon="9.246913">
<ele>268.5</ele>
<speed>2.1</speed>
<course>212.6</course>
<desc>Speed 2.1 km/h Distance 0.15 km</desc>
<time>2010-09-11T14:14:14.43</time>
<name>64</name>
</trkpt>
<trkpt lat="50.078607" lon="9.246907">
<ele>269.0</ele>
<speed>2.1</speed>
<course>192.6</course>
<desc>Speed 2.1 km/h Distance 0.16 km</desc>
<time>2010-09-11T14:14:15.43</time>
<name>65</name>
</trkpt>
<trkpt lat="50.078605" lon="9.246905">
<ele>269.0</ele>
<speed>1.0</speed>
<course>90.0</course>
<desc>Speed 1.0 km/h Distance 0.16 km</desc>
<time>2010-09-11T14:14:16.43</time>
<name>66</name>
</trkpt>
<trkpt lat="50.078605" lon="9.246918">
<ele>269.0</ele>
<speed>1.0</speed>
<course>97.4</course>
<desc>Speed 1.0 km/h Distance 0.16 km</desc>
<time>2010-09-11T14:14:17.42</time>
<name>67</name>
</trkpt>
<trkpt lat="50.078603" lon="9.246938">
<ele>269.0</ele>
<speed>1.0</speed>
<course>107.3</course>
<desc>Speed 1.0 km/h Distance 0.16 km</desc>
<time>2010-09-11T14:14:18.42</time>
<name>68</name>
</trkpt>
<trkpt lat="50.078600" lon="9.246955">
<ele>269.0</ele>
<speed>0.5</speed>
<course>102.6</course>
<desc>Speed 0.5 km/h Distance 0.16 km</desc>
<time>2010-09-11T14:14:19.42</time>
<name>69</name>
</trkpt>
<trkpt lat="50.078598" lon="9.246967">
<ele>269.0</ele>
<speed>0.5</speed>
<course>142.8</course>
<desc>Speed 0.5 km/h Distance 0.16 km</desc>
<time>2010-09-11T14:14:20.42</time>
<name>70</name>
</trkpt>
<trkpt lat="50.078597" lon="9.246968">
<ele>268.5</ele>
<speed>0.4</speed>
<course>7.4</course>
<desc>Speed 0.4 km/h Distance 0.16 km</desc>
<time>2010-09-11T14:14:21.42</time>
<name>71</name>
</trkpt>
<trkpt lat="50.078603" lon="9.246970">
<ele>268.0</ele>
<speed>3.1</speed>
<course>51.9</course>
<desc>Speed 3.1 km/h Distance 0.16 km</desc>
<time>2010-09-11T14:14:22.42</time>
<name>72</name>
</trkpt>
<trkpt lat="50.078605" lon="9.246973">
<ele>268.0</ele>
<speed>0.6</speed>
<course>74.2</course>
<desc>Speed 0.6 km/h Distance 0.16 km</desc>
<time>2010-09-11T14:14:23.42</time>
<name>73</name>
</trkpt>
<trkpt lat="50.078608" lon="9.246992">
<ele>266.0</ele>
<speed>0.5</speed>
<course>344.0</course>
<desc>Speed 0.5 km/h Distance 0.16 km</desc>
<time>2010-09-11T14:14:24.42</time>
<name>74</name>
</trkpt>
<trkpt lat="50.078615" lon="9.246988">
<ele>266.0</ele>
<speed>1.5</speed>
<course>51.9</course>
<desc>Speed 1.5 km/h Distance 0.16 km</desc>
<time>2010-09-11T14:14:25.42</time>
<name>75</name>
</trkpt>
<trkpt lat="50.078618" lon="9.246995">
<ele>265.5</ele>
<speed>1.5</speed>
<course>40.5</course>
<desc>Speed 1.5 km/h Distance 0.16 km</desc>
<time>2010-09-11T14:14:26.42</time>
<name>76</name>
</trkpt>
<trkpt lat="50.078633" lon="9.247015">
<ele>263.5</ele>
<speed>1.2</speed>
<course>41.9</course>
<desc>Speed 1.2 km/h Distance 0.17 km</desc>
<time>2010-09-11T14:14:27.42</time>
<name>77</name>
</trkpt>
<trkpt lat="50.078642" lon="9.247027">
<ele>263.5</ele>
<speed>1.1</speed>
<course>41.9</course>
<desc>Speed 1.1 km/h Distance 0.17 km</desc>
<time>2010-09-11T14:14:28.42</time>
<name>78</name>
</trkpt>
<trkpt lat="50.078642" lon="9.247027">
<ele>263.0</ele>
<speed>0.4</speed>
<course>12.6</course>
<desc>Speed 0.4 km/h Distance 0.17 km</desc>
<time>2010-09-11T14:14:29.42</time>
<name>79</name>
</trkpt>
<trkpt lat="50.078645" lon="9.247027">
<ele>263.0</ele>
<speed>0.3</speed>
<course>12.6</course>
<desc>Speed 0.3 km/h Distance 0.17 km</desc>
<time>2010-09-11T14:14:30.42</time>
<name>80</name>
</trkpt>
<trkpt lat="50.078648" lon="9.247028">
<ele>262.5</ele>
<speed>0.2</speed>
<course>28.0</course>
<desc>Speed 0.2 km/h Distance 0.17 km</desc>
<time>2010-09-11T14:14:31.41</time>
<name>81</name>
</trkpt>
<trkpt lat="50.078658" lon="9.247037">
<ele>261.5</ele>
<speed>0.5</speed>
<course>322.8</course>
<desc>Speed 0.5 km/h Distance 0.17 km</desc>
<time>2010-09-11T14:14:32.42</time>
<name>82</name>
</trkpt>
<trkpt lat="50.078660" lon="9.247035">
<ele>261.0</ele>
<speed>0.2</speed>
<course>322.8</course>
<desc>Speed 0.2 km/h Distance 0.17 km</desc>
<time>2010-09-11T14:14:33.41</time>
<name>83</name>
</trkpt>
<trkpt lat="50.078660" lon="9.247035">
<ele>260.5</ele>
<speed>0.7</speed>
<course>322.8</course>
<desc>Speed 0.7 km/h Distance 0.17 km</desc>
<time>2010-09-11T14:14:34.42</time>
<name>84</name>
</trkpt>
<trkpt lat="50.078662" lon="9.247033">
<ele>260.5</ele>
<speed>0.5</speed>
<course>62.6</course>
<desc>Speed 0.5 km/h Distance 0.17 km</desc>
<time>2010-09-11T14:14:35.41</time>
<name>85</name>
</trkpt>
<trkpt lat="50.078663" lon="9.247038">
<ele>260.5</ele>
<speed>1.0</speed>
<course>1.2</course>
<desc>Speed 1.0 km/h Distance 0.17 km</desc>
<time>2010-09-11T14:14:36.42</time>
<name>86</name>
</trkpt>
<trkpt lat="50.078670" lon="9.247038">
<ele>259.5</ele>
<speed>1.0</speed>
<course>167.4</course>
<desc>Speed 1.0 km/h Distance 0.17 km</desc>
<time>2010-09-11T14:14:37.41</time>
<name>87</name>
</trkpt>
<trkpt lat="50.078667" lon="9.247038">
<ele>259.5</ele>
<speed>2.3</speed>
<course>224.5</course>
<desc>Speed 2.3 km/h Distance 0.17 km</desc>
<time>2010-09-11T14:14:38.41</time>
<name>88</name>
</trkpt>
<trkpt lat="50.078663" lon="9.247033">
<ele>259.5</ele>
<speed>1.8</speed>
<course>5.0</course>
<desc>Speed 1.8 km/h Distance 0.17 km</desc>
<time>2010-09-11T14:14:39.41</time>
<name>89</name>
</trkpt>
<trkpt lat="50.078672" lon="9.247033">
<ele>259.0</ele>
<speed>2.8</speed>
<course>327.2</course>
<desc>Speed 2.8 km/h Distance 0.17 km</desc>
<time>2010-09-11T14:14:40.41</time>
<name>90</name>
</trkpt>
<trkpt lat="50.078683" lon="9.247022">
<ele>259.0</ele>
<speed>2.8</speed>
<course>355.6</course>
<desc>Speed 2.8 km/h Distance 0.17 km</desc>
<time>2010-09-11T14:14:41.41</time>
<name>91</name>
</trkpt>
<trkpt lat="50.078693" lon="9.247020">
<ele>258.5</ele>
<speed>1.0</speed>
<course>220.3</course>
<desc>Speed 1.0 km/h Distance 0.18 km</desc>
<time>2010-09-11T14:14:42.41</time>
<name>92</name>
</trkpt>
<trkpt lat="50.078688" lon="9.247013">
<ele>258.5</ele>
<speed>2.7</speed>
<course>235.3</course>
<desc>Speed 2.7 km/h Distance 0.18 km</desc>
<time>2010-09-11T14:14:43.41</time>
<name>93</name>
</trkpt>
<trkpt lat="50.078682" lon="9.246998">
<ele>258.5</ele>
<speed>4.5</speed>
<course>228.3</course>
<desc>Speed 4.5 km/h Distance 0.18 km</desc>
<time>2010-09-11T14:14:44.41</time>
<name>94</name>
</trkpt>
<trkpt lat="50.078675" lon="9.246987">
<ele>258.5</ele>
<speed>4.5</speed>
<course>270.0</course>
<desc>Speed 4.5 km/h Distance 0.18 km</desc>
<time>2010-09-11T14:14:45.41</time>
<name>95</name>
</trkpt>
<trkpt lat="50.078675" lon="9.246983">
<ele>259.0</ele>
<speed>0.7</speed>
<course>330.8</course>
<desc>Speed 0.7 km/h Distance 0.18 km</desc>
<time>2010-09-11T14:14:46.41</time>
<name>96</name>
</trkpt>
<trkpt lat="50.078727" lon="9.246938">
<ele>259.0</ele>
<speed>9.9</speed>
<course>68.7</course>
<desc>Speed 9.9 km/h Distance 0.19 km</desc>
<time>2010-09-11T14:14:48.41</time>
<name>97</name>
</trkpt>
<trkpt lat="50.078730" lon="9.246952">
<ele>259.0</ele>
<speed>0.9</speed>
<course>51.9</course>
<desc>Speed 0.9 km/h Distance 0.19 km</desc>
<time>2010-09-11T14:14:50.41</time>
<name>98</name>
</trkpt>
<trkpt lat="50.078733" lon="9.246958">
<ele>259.0</ele>
<speed>0.9</speed>
<course>142.8</course>
<desc>Speed 0.9 km/h Distance 0.19 km</desc>
<time>2010-09-11T14:14:51.40</time>
<name>99</name>
</trkpt>
<trkpt lat="50.078732" lon="9.246960">
<ele>259.5</ele>
<speed>0.9</speed>
<course>90.0</course>
<desc>Speed 0.9 km/h Distance 0.19 km</desc>
<time>2010-09-11T14:14:52.40</time>
<name>100</name>
</trkpt>
<trkpt lat="50.078732" lon="9.246970">
<ele>261.5</ele>
<speed>0.9</speed>
<course>135.5</course>
<desc>Speed 0.9 km/h Distance 0.19 km</desc>
<time>2010-09-11T14:14:53.40</time>
<name>101</name>
</trkpt>
<trkpt lat="50.078728" lon="9.246975">
<ele>262.0</ele>
<speed>0.9</speed>
<course>167.4</course>
<desc>Speed 0.9 km/h Distance 0.19 km</desc>
<time>2010-09-11T14:14:54.40</time>
<name>102</name>
</trkpt>
<trkpt lat="50.078723" lon="9.246977">
<ele>262.5</ele>
<speed>0.9</speed>
<course>208.0</course>
<desc>Speed 0.9 km/h Distance 0.19 km</desc>
<time>2010-09-11T14:14:55.40</time>
<name>103</name>
</trkpt>
<trkpt lat="50.078713" lon="9.246968">
<ele>262.5</ele>
<speed>0.9</speed>
<course>270.0</course>
<desc>Speed 0.9 km/h Distance 0.19 km</desc>
<time>2010-09-11T14:14:56.40</time>
<name>104</name>
</trkpt>
<trkpt lat="50.078713" lon="9.246965">
<ele>262.5</ele>
<speed>0.9</speed>
<course>130.6</course>
<desc>Speed 0.9 km/h Distance 0.19 km</desc>
<time>2010-09-11T14:14:57.40</time>
<name>105</name>
</trkpt>
<trkpt lat="50.078712" lon="9.246968">
<ele>262.5</ele>
<speed>0.9</speed>
<course>32.8</course>
<desc>Speed 0.9 km/h Distance 0.19 km</desc>
<time>2010-09-11T14:14:58.40</time>
<name>106</name>
</trkpt>
<trkpt lat="50.078722" lon="9.246978">
<ele>261.0</ele>
<speed>4.0</speed>
<course>23.8</course>
<desc>Speed 4.0 km/h Distance 0.19 km</desc>
<time>2010-09-11T14:14:59.40</time>
<name>107</name>
</trkpt>
<trkpt lat="50.078727" lon="9.246982">
<ele>261.0</ele>
<speed>1.7</speed>
<course>123.7</course>
<desc>Speed 1.7 km/h Distance 0.19 km</desc>
<time>2010-09-11T14:15:00.40</time>
<name>108</name>
</trkpt>
<trkpt lat="50.078717" lon="9.247005">
<ele>261.0</ele>
<speed>7.3</speed>
<course>190.4</course>
<desc>Speed 7.3 km/h Distance 0.20 km</desc>
<time>2010-09-11T14:15:01.40</time>
<name>109</name>
</trkpt>
<trkpt lat="50.078705" lon="9.247002">
<ele>261.5</ele>
<speed>7.3</speed>
<course>153.0</course>
<desc>Speed 7.3 km/h Distance 0.20 km</desc>
<time>2010-09-11T14:15:02.40</time>
<name>110</name>
</trkpt>
<trkpt lat="50.078697" lon="9.247008">
<ele>262.0</ele>
<speed>5.1</speed>
<course>51.9</course>
<desc>Speed 5.1 km/h Distance 0.20 km</desc>
<time>2010-09-11T14:15:03.40</time>
<name>111</name>
</trkpt>
<trkpt lat="50.078702" lon="9.247018">
<ele>261.5</ele>
<speed>5.1</speed>
<course>282.0</course>
<desc>Speed 5.1 km/h Distance 0.20 km</desc>
<time>2010-09-11T14:15:04.40</time>
<name>112</name>
</trkpt>
<trkpt lat="50.078707" lon="9.246982">
<ele>261.5</ele>
<speed>10.0</speed>
<course>350.5</course>
<desc>Speed 10.0 km/h Distance 0.20 km</desc>
<time>2010-09-11T14:15:05.40</time>
<name>113</name>
</trkpt>
<trkpt lat="50.078718" lon="9.246978">
<ele>261.0</ele>
<speed>0.3</speed>
<course>142.8</course>
<desc>Speed 0.3 km/h Distance 0.20 km</desc>
<time>2010-09-11T14:15:07.39</time>
<name>114</name>
</trkpt>
<trkpt lat="50.078717" lon="9.246980">
<ele>261.0</ele>
<speed>0.9</speed>
<course>198.8</course>
<desc>Speed 0.9 km/h Distance 0.20 km</desc>
<time>2010-09-11T14:15:08.40</time>
<name>115</name>
</trkpt>
<trkpt lat="50.078713" lon="9.246978">
<ele>261.0</ele>
<speed>0.5</speed>
<course>211.6</course>
<desc>Speed 0.5 km/h Distance 0.20 km</desc>
<time>2010-09-11T14:15:09.39</time>
<name>116</name>
</trkpt>
<trkpt lat="50.078710" lon="9.246975">
<ele>261.0</ele>
<speed>0.4</speed>
<course>178.8</course>
<desc>Speed 0.4 km/h Distance 0.20 km</desc>
<time>2010-09-11T14:15:10.39</time>
<name>117</name>
</trkpt>
<trkpt lat="50.078703" lon="9.246975">
<ele>260.0</ele>
<speed>1.9</speed>
<course>180.0</course>
<desc>Speed 1.9 km/h Distance 0.20 km</desc>
<time>2010-09-11T14:15:11.39</time>
<name>118</name>
</trkpt>
<trkpt lat="50.078698" lon="9.246975">
<ele>260.0</ele>
<speed>1.0</speed>
<course>102.6</course>
<desc>Speed 1.0 km/h Distance 0.20 km</desc>
<time>2010-09-11T14:15:12.39</time>
<name>119</name>
</trkpt>
<trkpt lat="50.078697" lon="9.246987">
<ele>259.5</ele>
<speed>3.7</speed>
<course>90.0</course>
<desc>Speed 3.7 km/h Distance 0.21 km</desc>
<time>2010-09-11T14:15:13.39</time>
<name>120</name>
</trkpt>
<trkpt lat="50.078697" lon="9.246995">
<ele>259.5</ele>
<speed>1.8</speed>
<course>220.3</course>
<desc>Speed 1.8 km/h Distance 0.21 km</desc>
<time>2010-09-11T14:15:14.40</time>
<name>121</name>
</trkpt>
<trkpt lat="50.078692" lon="9.246988">
<ele>262.0</ele>
<speed>2.1</speed>
<course>90.0</course>
<desc>Speed 2.1 km/h Distance 0.21 km</desc>
<time>2010-09-11T14:15:15.39</time>
<name>122</name>
</trkpt>
<trkpt lat="50.078692" lon="9.246993">
<ele>262.0</ele>
<speed>1.0</speed>
<course>90.0</course>
<desc>Speed 1.0 km/h Distance 0.21 km</desc>
<time>2010-09-11T14:15:16.39</time>
<name>123</name>
</trkpt>
<trkpt lat="50.078692" lon="9.247013">
<ele>262.0</ele>
<speed>3.1</speed>
<course>122.1</course>
<desc>Speed 3.1 km/h Distance 0.21 km</desc>
<time>2010-09-11T14:15:17.39</time>
<name>124</name>
</trkpt>
<trkpt lat="50.078688" lon="9.247022">
<ele>262.0</ele>
<speed>1.4</speed>
<course>120.4</course>
<desc>Speed 1.4 km/h Distance 0.21 km</desc>
<time>2010-09-11T14:15:18.39</time>
<name>125</name>
</trkpt>
<trkpt lat="50.078683" lon="9.247035">
<ele>262.0</ele>
<speed>2.7</speed>
<course>223.9</course>
<desc>Speed 2.7 km/h Distance 0.21 km</desc>
<time>2010-09-11T14:15:19.40</time>
<name>126</name>
</trkpt>
<trkpt lat="50.078673" lon="9.247020">
<ele>262.5</ele>
<speed>4.5</speed>
<course>246.6</course>
<desc>Speed 4.5 km/h Distance 0.21 km</desc>
<time>2010-09-11T14:15:20.39</time>
<name>127</name>
</trkpt>
<trkpt lat="50.078665" lon="9.246990">
<ele>262.0</ele>
<speed>7.7</speed>
<course>239.0</course>
<desc>Speed 7.7 km/h Distance 0.21 km</desc>
<time>2010-09-11T14:15:21.39</time>
<name>128</name>
</trkpt>
<trkpt lat="50.078657" lon="9.246968">
<ele>262.0</ele>
<speed>7.7</speed>
<course>224.9</course>
<desc>Speed 7.7 km/h Distance 0.22 km</desc>
<time>2010-09-11T14:15:22.39</time>
<name>129</name>
</trkpt>
<trkpt lat="50.078642" lon="9.246945">
<ele>262.0</ele>
<speed>7.9</speed>
<course>241.8</course>
<desc>Speed 7.9 km/h Distance 0.22 km</desc>
<time>2010-09-11T14:15:23.39</time>
<name>130</name>
</trkpt>
<trkpt lat="50.078625" lon="9.246897">
<ele>262.0</ele>
<speed>11.5</speed>
<course>228.9</course>
<desc>Speed 11.5 km/h Distance 0.22 km</desc>
<time>2010-09-11T14:15:24.38</time>
<name>131</name>
</trkpt>
<trkpt lat="50.078602" lon="9.246855">
<ele>261.5</ele>
<speed>11.9</speed>
<course>222.3</course>
<desc>Speed 11.9 km/h Distance 0.23 km</desc>
<time>2010-09-11T14:15:25.38</time>
<name>132</name>
</trkpt>
<trkpt lat="50.078582" lon="9.246827">
<ele>261.5</ele>
<speed>11.9</speed>
<course>164.7</course>
<desc>Speed 11.9 km/h Distance 0.23 km</desc>
<time>2010-09-11T14:15:26.38</time>
<name>133</name>
</trkpt>
<trkpt lat="50.078558" lon="9.246837">
<ele>261.0</ele>
<speed>9.0</speed>
<course>240.7</course>
<desc>Speed 9.0 km/h Distance 0.23 km</desc>
<time>2010-09-11T14:15:27.38</time>
<name>134</name>
</trkpt>
<trkpt lat="50.078543" lon="9.246795">
<ele>260.5</ele>
<speed>11.6</speed>
<course>246.0</course>
<desc>Speed 11.6 km/h Distance 0.24 km</desc>
<time>2010-09-11T14:15:28.38</time>
<name>135</name>
</trkpt>
<trkpt lat="50.078533" lon="9.246760">
<ele>260.5</ele>
<speed>11.6</speed>
<course>241.2</course>
<desc>Speed 11.6 km/h Distance 0.24 km</desc>
<time>2010-09-11T14:15:29.38</time>
<name>136</name>
</trkpt>
<trkpt lat="50.078523" lon="9.246732">
<ele>260.5</ele>
<speed>11.6</speed>
<course>234.3</course>
<desc>Speed 11.6 km/h Distance 0.24 km</desc>
<time>2010-09-11T14:15:30.39</time>
<name>137</name>
</trkpt>
<trkpt lat="50.078513" lon="9.246710">
<ele>260.0</ele>
<speed>11.6</speed>
<course>270.0</course>
<desc>Speed 11.6 km/h Distance 0.24 km</desc>
<time>2010-09-11T14:15:32.38</time>
<name>138</name>
</trkpt>
<trkpt lat="50.078513" lon="9.246683">
<ele>260.0</ele>
<speed>11.6</speed>
<course>264.1</course>
<desc>Speed 11.6 km/h Distance 0.24 km</desc>
<time>2010-09-11T14:15:33.38</time>
<name>139</name>
</trkpt>
<trkpt lat="50.078512" lon="9.246658">
<ele>260.0</ele>
<speed>11.6</speed>
<course>262.6</course>
<desc>Speed 11.6 km/h Distance 0.25 km</desc>
<time>2010-09-11T14:15:34.39</time>
<name>140</name>
</trkpt>
<trkpt lat="50.078510" lon="9.246638">
<ele>260.0</ele>
<speed>11.6</speed>
<course>294.6</course>
<desc>Speed 11.6 km/h Distance 0.25 km</desc>
<time>2010-09-11T14:15:35.38</time>
<name>141</name>
</trkpt>
<trkpt lat="50.078518" lon="9.246610">
<ele>260.5</ele>
<speed>11.6</speed>
<course>293.3</course>
<desc>Speed 11.6 km/h Distance 0.25 km</desc>
<time>2010-09-11T14:15:36.38</time>
<name>142</name>
</trkpt>
<trkpt lat="50.078532" lon="9.246562">
<ele>260.5</ele>
<speed>11.6</speed>
<course>304.3</course>
<desc>Speed 11.6 km/h Distance 0.25 km</desc>
<time>2010-09-11T14:15:37.37</time>
<name>143</name>
</trkpt>
<trkpt lat="50.078585" lon="9.246440">
<ele>260.5</ele>
<speed>11.6</speed>
<course>293.2</course>
<desc>Speed 11.6 km/h Distance 0.26 km</desc>
<time>2010-09-11T14:15:39.38</time>
<name>144</name>
</trkpt>
<trkpt lat="50.078635" lon="9.246258">
<ele>261.0</ele>
<speed>11.6</speed>
<course>302.3</course>
<desc>Speed 11.6 km/h Distance 0.28 km</desc>
<time>2010-09-11T14:15:41.37</time>
<name>145</name>
</trkpt>
<trkpt lat="50.078688" lon="9.246127">
<ele>262.0</ele>
<speed>11.6</speed>
<course>302.7</course>
<desc>Speed 11.6 km/h Distance 0.29 km</desc>
<time>2010-09-11T14:15:43.38</time>
<name>146</name>
</trkpt>
<trkpt lat="50.078700" lon="9.246098">
<ele>262.0</ele>
<speed>11.6</speed>
<course>307.9</course>
<desc>Speed 11.6 km/h Distance 0.29 km</desc>
<time>2010-09-11T14:15:44.37</time>
<name>147</name>
</trkpt>
<trkpt lat="50.078710" lon="9.246078">
<ele>262.0</ele>
<speed>11.6</speed>
<course>38.1</course>
<desc>Speed 11.6 km/h Distance 0.29 km</desc>
<time>2010-09-11T14:15:46.37</time>
<name>148</name>
</trkpt>
<trkpt lat="50.078725" lon="9.246097">
<ele>262.5</ele>
<speed>11.6</speed>
<course>32.8</course>
<desc>Speed 11.6 km/h Distance 0.30 km</desc>
<time>2010-09-11T14:15:47.36</time>
<name>149</name>
</trkpt>
<trkpt lat="50.078735" lon="9.246107">
<ele>262.5</ele>
<speed>11.6</speed>
<course>327.4</course>
<desc>Speed 11.6 km/h Distance 0.30 km</desc>
<time>2010-09-11T14:15:48.37</time>
<name>150</name>
</trkpt>
<trkpt lat="50.078757" lon="9.246085">
<ele>262.5</ele>
<speed>11.6</speed>
<course>26.5</course>
<desc>Speed 11.6 km/h Distance 0.30 km</desc>
<time>2010-09-11T14:15:50.37</time>
<name>151</name>
</trkpt>
<trkpt lat="50.078832" lon="9.246143">
<ele>262.5</ele>
<speed>11.6</speed>
<course>6.0</course>
<desc>Speed 11.6 km/h Distance 0.31 km</desc>
<time>2010-09-11T14:15:52.37</time>
<name>152</name>
</trkpt>
<trkpt lat="50.079723" lon="9.246288">
<ele>253.0</ele>
<speed>29.9</speed>
<course>352.9</course>
<desc>Speed 29.9 km/h Distance 0.41 km</desc>
<time>2010-09-11T14:15:58.37</time>
<name>153</name>
</trkpt>
<trkpt lat="50.079800" lon="9.246273">
<ele>252.0</ele>
<speed>29.9</speed>
<course>345.2</course>
<desc>Speed 29.9 km/h Distance 0.42 km</desc>
<time>2010-09-11T14:15:59.37</time>
<name>154</name>
</trkpt>
<trkpt lat="50.079857" lon="9.246250">
<ele>251.5</ele>
<speed>29.9</speed>
<course>351.9</course>
<desc>Speed 29.9 km/h Distance 0.42 km</desc>
<time>2010-09-11T14:16:00.37</time>
<name>155</name>
</trkpt>
<trkpt lat="50.079917" lon="9.246237">
<ele>251.0</ele>
<speed>29.9</speed>
<course>1.3</course>
<desc>Speed 29.9 km/h Distance 0.43 km</desc>
<time>2010-09-11T14:16:01.37</time>
<name>156</name>
</trkpt>
<trkpt lat="50.080663" lon="9.246263">
<ele>250.0</ele>
<speed>40.8</speed>
<course>9.1</course>
<desc>Speed 40.8 km/h Distance 0.51 km</desc>
<time>2010-09-11T14:16:06.36</time>
<name>157</name>
</trkpt>
<trkpt lat="50.080770" lon="9.246290">
<ele>250.0</ele>
<speed>40.8</speed>
<course>6.6</course>
<desc>Speed 40.8 km/h Distance 0.53 km</desc>
<time>2010-09-11T14:16:07.37</time>
<name>158</name>
</trkpt>
<trkpt lat="50.080918" lon="9.246317">
<ele>250.0</ele>
<speed>40.8</speed>
<course>8.5</course>
<desc>Speed 40.8 km/h Distance 0.54 km</desc>
<time>2010-09-11T14:16:09.36</time>
<name>159</name>
</trkpt>
<trkpt lat="50.081068" lon="9.246352">
<ele>254.0</ele>
<speed>40.8</speed>
<course>345.2</course>
<desc>Speed 40.8 km/h Distance 0.56 km</desc>
<time>2010-09-11T14:16:11.36</time>
<name>160</name>
</trkpt>
<trkpt lat="50.081210" lon="9.246293">
<ele>255.0</ele>
<speed>40.8</speed>
<course>3.7</course>
<desc>Speed 40.8 km/h Distance 0.58 km</desc>
<time>2010-09-11T14:16:13.35</time>
<name>161</name>
</trkpt>
<trkpt lat="50.081408" lon="9.246313">
<ele>252.5</ele>
<speed>40.8</speed>
<course>11.9</course>
<desc>Speed 40.8 km/h Distance 0.60 km</desc>
<time>2010-09-11T14:16:17.36</time>
<name>162</name>
</trkpt>
<trkpt lat="50.081622" lon="9.246383">
<ele>253.0</ele>
<speed>28.6</speed>
<course>3.8</course>
<desc>Speed 28.6 km/h Distance 0.62 km</desc>
<time>2010-09-11T14:16:20.36</time>
<name>163</name>
</trkpt>
<trkpt lat="50.081785" lon="9.246400">
<ele>252.0</ele>
<speed>28.6</speed>
<course>20.5</course>
<desc>Speed 28.6 km/h Distance 0.64 km</desc>
<time>2010-09-11T14:16:22.36</time>
<name>164</name>
</trkpt>
<trkpt lat="50.081957" lon="9.246500">
<ele>256.5</ele>
<speed>28.6</speed>
<course>352.0</course>
<desc>Speed 28.6 km/h Distance 0.66 km</desc>
<time>2010-09-11T14:16:24.35</time>
<name>165</name>
</trkpt>
<trkpt lat="50.082123" lon="9.246463">
<ele>255.0</ele>
<speed>28.6</speed>
<course>13.9</course>
<desc>Speed 28.6 km/h Distance 0.68 km</desc>
<time>2010-09-11T14:16:26.35</time>
<name>166</name>
</trkpt>
<trkpt lat="50.082227" lon="9.246503">
<ele>257.0</ele>
<speed>28.6</speed>
<course>356.2</course>
<desc>Speed 28.6 km/h Distance 0.69 km</desc>
<time>2010-09-11T14:16:28.36</time>
<name>167</name>
</trkpt>
<trkpt lat="50.082292" lon="9.246497">
<ele>257.5</ele>
<speed>28.6</speed>
<course>354.4</course>
<desc>Speed 28.6 km/h Distance 0.70 km</desc>
<time>2010-09-11T14:16:29.34</time>
<name>168</name>
</trkpt>
<trkpt lat="50.082892" lon="9.246405">
<ele>255.5</ele>
<speed>38.1</speed>
<course>327.8</course>
<desc>Speed 38.1 km/h Distance 0.77 km</desc>
<time>2010-09-11T14:16:33.89</time>
<name>169</name>
</trkpt>
<trkpt lat="50.083065" lon="9.246235">
<ele>257.5</ele>
<speed>38.1</speed>
<course>338.9</course>
<desc>Speed 38.1 km/h Distance 0.79 km</desc>
<time>2010-09-11T14:16:35.71</time>
<name>170</name>
</trkpt>
<trkpt lat="50.083248" lon="9.246125">
<ele>259.0</ele>
<speed>38.1</speed>
<course>334.6</course>
<desc>Speed 38.1 km/h Distance 0.81 km</desc>
<time>2010-09-11T14:16:37.71</time>
<name>171</name>
</trkpt>
<trkpt lat="50.083422" lon="9.245997">
<ele>260.5</ele>
<speed>38.1</speed>
<course>355.2</course>
<desc>Speed 38.1 km/h Distance 0.83 km</desc>
<time>2010-09-11T14:16:39.71</time>
<name>172</name>
</trkpt>
<trkpt lat="50.083575" lon="9.245977">
<ele>261.0</ele>
<speed>38.1</speed>
<course>352.4</course>
<desc>Speed 38.1 km/h Distance 0.85 km</desc>
<time>2010-09-11T14:16:43.70</time>
<name>173</name>
</trkpt>
<trkpt lat="50.083727" lon="9.245945">
<ele>260.0</ele>
<speed>38.1</speed>
<course>5.0</course>
<desc>Speed 38.1 km/h Distance 0.87 km</desc>
<time>2010-09-11T14:16:45.71</time>
<name>174</name>
</trkpt>
<trkpt lat="50.083885" lon="9.245967">
<ele>259.0</ele>
<speed>38.1</speed>
<course>14.9</course>
<desc>Speed 38.1 km/h Distance 0.88 km</desc>
<time>2010-09-11T14:16:47.71</time>
<name>175</name>
</trkpt>
<trkpt lat="50.084013" lon="9.246020">
<ele>258.5</ele>
<speed>38.1</speed>
<course>331.3</course>
<desc>Speed 38.1 km/h Distance 0.90 km</desc>
<time>2010-09-11T14:16:51.70</time>
<name>176</name>
</trkpt>
<trkpt lat="50.084185" lon="9.245873">
<ele>258.5</ele>
<speed>25.4</speed>
<course>349.3</course>
<desc>Speed 25.4 km/h Distance 0.92 km</desc>
<time>2010-09-11T14:16:54.67</time>
<name>177</name>
</trkpt>
<trkpt lat="50.084885" lon="9.245667">
<ele>258.5</ele>
<speed>35.2</speed>
<course>325.8</course>
<desc>Speed 35.2 km/h Distance 1.00 km</desc>
<time>2010-09-11T14:16:59.69</time>
<name>178</name>
</trkpt>
<trkpt lat="50.085078" lon="9.245462">
<ele>258.5</ele>
<speed>35.2</speed>
<course>325.9</course>
<desc>Speed 35.2 km/h Distance 1.03 km</desc>
<time>2010-09-11T14:17:01.69</time>
<name>179</name>
</trkpt>
<trkpt lat="50.085170" lon="9.245365">
<ele>258.5</ele>
<speed>35.2</speed>
<course>324.0</course>
<desc>Speed 35.2 km/h Distance 1.04 km</desc>
<time>2010-09-11T14:17:03.69</time>
<name>180</name>
</trkpt>
<trkpt lat="50.085307" lon="9.245210">
<ele>258.5</ele>
<speed>35.2</speed>
<course>324.4</course>
<desc>Speed 35.2 km/h Distance 1.06 km</desc>
<time>2010-09-11T14:17:05.68</time>
<name>181</name>
</trkpt>
<trkpt lat="50.085407" lon="9.245098">
<ele>258.5</ele>
<speed>35.2</speed>
<course>316.9</course>
<desc>Speed 35.2 km/h Distance 1.07 km</desc>
<time>2010-09-11T14:17:07.68</time>
<name>182</name>
</trkpt>
<trkpt lat="50.085483" lon="9.244987">
<ele>258.5</ele>
<speed>35.2</speed>
<course>349.4</course>
<desc>Speed 35.2 km/h Distance 1.08 km</desc>
<time>2010-09-11T14:17:09.68</time>
<name>183</name>
</trkpt>
<trkpt lat="50.085700" lon="9.244923">
<ele>258.5</ele>
<speed>21.0</speed>
<course>338.7</course>
<desc>Speed 21.0 km/h Distance 1.11 km</desc>
<time>2010-09-11T14:17:12.68</time>
<name>184</name>
</trkpt>
<trkpt lat="50.085815" lon="9.244853">
<ele>258.5</ele>
<speed>21.0</speed>
<course>328.6</course>
<desc>Speed 21.0 km/h Distance 1.12 km</desc>
<time>2010-09-11T14:17:14.68</time>
<name>185</name>
</trkpt>
<trkpt lat="50.085850" lon="9.244820">
<ele>258.5</ele>
<speed>21.0</speed>
<course>331.7</course>
<desc>Speed 21.0 km/h Distance 1.13 km</desc>
<time>2010-09-11T14:17:15.69</time>
<name>186</name>
</trkpt>
<trkpt lat="50.085912" lon="9.244768">
<ele>258.5</ele>
<speed>21.0</speed>
<course>332.6</course>
<desc>Speed 21.0 km/h Distance 1.13 km</desc>
<time>2010-09-11T14:17:17.68</time>
<name>187</name>
</trkpt>
<trkpt lat="50.085947" lon="9.244740">
<ele>258.5</ele>
<speed>21.0</speed>
<course>341.7</course>
<desc>Speed 21.0 km/h Distance 1.14 km</desc>
<time>2010-09-11T14:17:19.67</time>
<name>188</name>
</trkpt>
<trkpt lat="50.086005" lon="9.244710">
<ele>258.5</ele>
<speed>21.0</speed>
<course>0.4</course>
<desc>Speed 21.0 km/h Distance 1.14 km</desc>
<time>2010-09-11T14:17:21.67</time>
<name>189</name>
</trkpt>
<trkpt lat="50.086308" lon="9.244713">
<ele>258.0</ele>
<speed>29.6</speed>
<course>4.9</course>
<desc>Speed 29.6 km/h Distance 1.18 km</desc>
<time>2010-09-11T14:17:24.68</time>
<name>190</name>
</trkpt>
<trkpt lat="50.086383" lon="9.244723">
<ele>258.5</ele>
<speed>29.6</speed>
<course>6.1</course>
<desc>Speed 29.6 km/h Distance 1.19 km</desc>
<time>2010-09-11T14:17:25.68</time>
<name>191</name>
</trkpt>
<trkpt lat="50.086573" lon="9.244755">
<ele>258.0</ele>
<speed>30.3</speed>
<course>1.3</course>
<desc>Speed 30.3 km/h Distance 1.21 km</desc>
<time>2010-09-11T14:17:27.67</time>
<name>192</name>
</trkpt>
<trkpt lat="50.086662" lon="9.244758">
<ele>258.0</ele>
<speed>30.3</speed>
<course>10.6</course>
<desc>Speed 30.3 km/h Distance 1.22 km</desc>
<time>2010-09-11T14:17:28.67</time>
<name>193</name>
</trkpt>
<trkpt lat="50.086730" lon="9.244778">
<ele>258.0</ele>
<speed>30.3</speed>
<course>17.1</course>
<desc>Speed 30.3 km/h Distance 1.23 km</desc>
<time>2010-09-11T14:17:29.67</time>
<name>194</name>
</trkpt>
<trkpt lat="50.087032" lon="9.244923">
<ele>258.0</ele>
<speed>29.8</speed>
<course>23.1</course>
<desc>Speed 29.8 km/h Distance 1.26 km</desc>
<time>2010-09-11T14:17:32.68</time>
<name>195</name>
</trkpt>
<trkpt lat="50.087195" lon="9.245032">
<ele>258.0</ele>
<speed>29.8</speed>
<course>24.3</course>
<desc>Speed 29.8 km/h Distance 1.28 km</desc>
<time>2010-09-11T14:17:34.67</time>
<name>196</name>
</trkpt>
<trkpt lat="50.087257" lon="9.245075">
<ele>258.0</ele>
<speed>29.8</speed>
<course>24.8</course>
<desc>Speed 29.8 km/h Distance 1.29 km</desc>
<time>2010-09-11T14:17:35.67</time>
<name>197</name>
</trkpt>
<trkpt lat="50.087555" lon="9.245290">
<ele>258.0</ele>
<speed>31.2</speed>
<course>25.1</course>
<desc>Speed 31.2 km/h Distance 1.32 km</desc>
<time>2010-09-11T14:17:38.66</time>
<name>198</name>
</trkpt>
<trkpt lat="50.087642" lon="9.245353">
<ele>258.0</ele>
<speed>31.2</speed>
<course>24.0</course>
<desc>Speed 31.2 km/h Distance 1.33 km</desc>
<time>2010-09-11T14:17:39.67</time>
<name>199</name>
</trkpt>
<trkpt lat="50.087967" lon="9.245578">
<ele>258.0</ele>
<speed>33.7</speed>
<course>31.0</course>
<desc>Speed 33.7 km/h Distance 1.37 km</desc>
<time>2010-09-11T14:17:42.67</time>
<name>200</name>
</trkpt>
<trkpt lat="50.088045" lon="9.245652">
<ele>258.0</ele>
<speed>33.7</speed>
<course>29.4</course>
<desc>Speed 33.7 km/h Distance 1.38 km</desc>
<time>2010-09-11T14:17:43.66</time>
<name>201</name>
</trkpt>
<trkpt lat="50.088128" lon="9.245725">
<ele>258.0</ele>
<speed>33.7</speed>
<course>40.5</course>
<desc>Speed 33.7 km/h Distance 1.40 km</desc>
<time>2010-09-11T14:17:44.66</time>
<name>202</name>
</trkpt>
<trkpt lat="50.088393" lon="9.246078">
<ele>258.0</ele>
<speed>39.0</speed>
<course>50.2</course>
<desc>Speed 39.0 km/h Distance 1.43 km</desc>
<time>2010-09-11T14:17:47.67</time>
<name>203</name>
</trkpt>
<trkpt lat="50.088458" lon="9.246200">
<ele>258.0</ele>
<speed>39.0</speed>
<course>38.2</course>
<desc>Speed 39.0 km/h Distance 1.45 km</desc>
<time>2010-09-11T14:17:48.66</time>
<name>204</name>
</trkpt>
<trkpt lat="50.088770" lon="9.246582">
<ele>259.0</ele>
<speed>42.6</speed>
<course>29.0</course>
<desc>Speed 42.6 km/h Distance 1.49 km</desc>
<time>2010-09-11T14:17:51.66</time>
<name>205</name>
</trkpt>
<trkpt lat="50.088868" lon="9.246667">
<ele>259.5</ele>
<speed>42.6</speed>
<course>26.9</course>
<desc>Speed 42.6 km/h Distance 1.50 km</desc>
<time>2010-09-11T14:17:52.66</time>
<name>206</name>
</trkpt>
<trkpt lat="50.088963" lon="9.246742">
<ele>260.0</ele>
<speed>42.6</speed>
<course>52.3</course>
<desc>Speed 42.6 km/h Distance 1.51 km</desc>
<time>2010-09-11T14:17:53.66</time>
<name>207</name>
</trkpt>
<trkpt lat="50.089090" lon="9.246997">
<ele>260.0</ele>
<speed>42.9</speed>
<course>42.3</course>
<desc>Speed 42.9 km/h Distance 1.54 km</desc>
<time>2010-09-11T14:17:55.65</time>
<name>208</name>
</trkpt>
<trkpt lat="50.089170" lon="9.247110">
<ele>260.0</ele>
<speed>42.9</speed>
<course>49.6</course>
<desc>Speed 42.9 km/h Distance 1.55 km</desc>
<time>2010-09-11T14:17:56.65</time>
<name>209</name>
</trkpt>
<trkpt lat="50.089307" lon="9.247360">
<ele>259.5</ele>
<speed>46.0</speed>
<course>37.4</course>
<desc>Speed 46.0 km/h Distance 1.57 km</desc>
<time>2010-09-11T14:17:58.65</time>
<name>210</name>
</trkpt>
<trkpt lat="50.089412" lon="9.247485">
<ele>260.0</ele>
<speed>46.1</speed>
<course>34.3</course>
<desc>Speed 46.1 km/h Distance 1.59 km</desc>
<time>2010-09-11T14:17:59.65</time>
<name>211</name>
</trkpt>
<trkpt lat="50.089627" lon="9.247713">
<ele>260.0</ele>
<speed>44.2</speed>
<course>45.0</course>
<desc>Speed 44.2 km/h Distance 1.62 km</desc>
<time>2010-09-11T14:18:01.66</time>
<name>212</name>
</trkpt>
<trkpt lat="50.089758" lon="9.247918">
<ele>261.0</ele>
<speed>34.4</speed>
<course>30.1</course>
<desc>Speed 34.4 km/h Distance 1.64 km</desc>
<time>2010-09-11T14:18:03.65</time>
<name>213</name>
</trkpt>
<trkpt lat="50.089843" lon="9.247995">
<ele>261.0</ele>
<speed>36.4</speed>
<course>31.2</course>
<desc>Speed 36.4 km/h Distance 1.65 km</desc>
<time>2010-09-11T14:18:04.65</time>
<name>214</name>
</trkpt>
<trkpt lat="50.089933" lon="9.248080">
<ele>261.0</ele>
<speed>37.7</speed>
<course>47.4</course>
<desc>Speed 37.7 km/h Distance 1.66 km</desc>
<time>2010-09-11T14:18:05.65</time>
<name>215</name>
</trkpt>
<trkpt lat="50.090005" lon="9.248202">
<ele>261.5</ele>
<speed>35.6</speed>
<course>29.5</course>
<desc>Speed 35.6 km/h Distance 1.67 km</desc>
<time>2010-09-11T14:18:06.65</time>
<name>216</name>
</trkpt>
<trkpt lat="50.090090" lon="9.248277">
<ele>261.5</ele>
<speed>33.6</speed>
<course>26.5</course>
<desc>Speed 33.6 km/h Distance 1.68 km</desc>
<time>2010-09-11T14:18:07.65</time>
<name>217</name>
</trkpt>
<trkpt lat="50.090180" lon="9.248347">
<ele>262.0</ele>
<speed>35.0</speed>
<course>25.7</course>
<desc>Speed 35.0 km/h Distance 1.69 km</desc>
<time>2010-09-11T14:18:08.65</time>
<name>218</name>
</trkpt>
<trkpt lat="50.090273" lon="9.248417">
<ele>262.5</ele>
<speed>35.3</speed>
<course>30.6</course>
<desc>Speed 35.3 km/h Distance 1.70 km</desc>
<time>2010-09-11T14:18:09.64</time>
<name>219</name>
</trkpt>
<trkpt lat="50.090360" lon="9.248497">
<ele>262.5</ele>
<speed>34.7</speed>
<course>30.4</course>
<desc>Speed 34.7 km/h Distance 1.72 km</desc>
<time>2010-09-11T14:18:10.64</time>
<name>220</name>
</trkpt>
<trkpt lat="50.090438" lon="9.248568">
<ele>263.0</ele>
<speed>32.6</speed>
<course>32.7</course>
<desc>Speed 32.6 km/h Distance 1.73 km</desc>
<time>2010-09-11T14:18:11.64</time>
<name>221</name>
</trkpt>
<trkpt lat="50.090517" lon="9.248647">
<ele>263.0</ele>
<speed>34.7</speed>
<course>41.6</course>
<desc>Speed 34.7 km/h Distance 1.74 km</desc>
<time>2010-09-11T14:18:12.65</time>
<name>222</name>
</trkpt>
<trkpt lat="50.091087" lon="9.249437">
<ele>263.0</ele>
<speed>67.8</speed>
<course>34.1</course>
<desc>Speed 67.8 km/h Distance 1.82 km</desc>
<time>2010-09-11T14:18:17.64</time>
<name>223</name>
</trkpt>
<trkpt lat="50.091428" lon="9.249797">
<ele>262.5</ele>
<speed>67.8</speed>
<course>39.8</course>
<desc>Speed 67.8 km/h Distance 1.87 km</desc>
<time>2010-09-11T14:18:20.63</time>
<name>224</name>
</trkpt>
<trkpt lat="50.091717" lon="9.250172">
<ele>262.5</ele>
<speed>56.6</speed>
<course>41.1</course>
<desc>Speed 56.6 km/h Distance 1.91 km</desc>
<time>2010-09-11T14:18:23.63</time>
<name>225</name>
</trkpt>
<trkpt lat="50.091920" lon="9.250448">
<ele>262.5</ele>
<speed>56.1</speed>
<course>40.9</course>
<desc>Speed 56.1 km/h Distance 1.94 km</desc>
<time>2010-09-11T14:18:25.64</time>
<name>226</name>
</trkpt>
<trkpt lat="50.092038" lon="9.250608">
<ele>262.0</ele>
<speed>56.1</speed>
<course>43.8</course>
<desc>Speed 56.1 km/h Distance 1.96 km</desc>
<time>2010-09-11T14:18:26.64</time>
<name>227</name>
</trkpt>
<trkpt lat="50.092150" lon="9.250775">
<ele>262.5</ele>
<speed>56.0</speed>
<course>43.6</course>
<desc>Speed 56.0 km/h Distance 1.97 km</desc>
<time>2010-09-11T14:18:27.63</time>
<name>228</name>
</trkpt>
<trkpt lat="50.092257" lon="9.250933">
<ele>262.5</ele>
<speed>55.8</speed>
<course>41.5</course>
<desc>Speed 55.8 km/h Distance 1.99 km</desc>
<time>2010-09-11T14:18:28.63</time>
<name>229</name>
</trkpt>
<trkpt lat="50.092367" lon="9.251085">
<ele>262.0</ele>
<speed>54.4</speed>
<course>39.1</course>
<desc>Speed 54.4 km/h Distance 2.01 km</desc>
<time>2010-09-11T14:18:29.64</time>
<name>230</name>
</trkpt>
<trkpt lat="50.092473" lon="9.251220">
<ele>262.0</ele>
<speed>50.2</speed>
<course>40.1</course>
<desc>Speed 50.2 km/h Distance 2.02 km</desc>
<time>2010-09-11T14:18:30.62</time>
<name>231</name>
</trkpt>
<trkpt lat="50.092692" lon="9.251507">
<ele>262.0</ele>
<speed>55.3</speed>
<course>38.5</course>
<desc>Speed 55.3 km/h Distance 2.05 km</desc>
<time>2010-09-11T14:18:32.63</time>
<name>232</name>
</trkpt>
<trkpt lat="50.093572" lon="9.252597">
<ele>262.0</ele>
<speed>99.9</speed>
<course>46.6</course>
<desc>Speed 99.9 km/h Distance 2.18 km</desc>
<time>2010-09-11T14:18:37.63</time>
<name>233</name>
</trkpt>
<trkpt lat="50.094130" lon="9.253517">
<ele>262.0</ele>
<speed>99.9</speed>
<course>46.2</course>
<desc>Speed 99.9 km/h Distance 2.27 km</desc>
<time>2010-09-11T14:18:42.63</time>
<name>234</name>
</trkpt>
<trkpt lat="50.094507" lon="9.254128">
<ele>262.0</ele>
<speed>85.6</speed>
<course>36.0</course>
<desc>Speed 85.6 km/h Distance 2.33 km</desc>
<time>2010-09-11T14:18:44.63</time>
<name>235</name>
</trkpt>
<trkpt lat="50.094845" lon="9.254512">
<ele>262.0</ele>
<speed>86.5</speed>
<course>58.8</course>
<desc>Speed 86.5 km/h Distance 2.38 km</desc>
<time>2010-09-11T14:18:46.63</time>
<name>236</name>
</trkpt>
<trkpt lat="50.095098" lon="9.255163">
<ele>262.5</ele>
<speed>89.4</speed>
<course>51.7</course>
<desc>Speed 89.4 km/h Distance 2.43 km</desc>
<time>2010-09-11T14:18:48.63</time>
<name>237</name>
</trkpt>
<trkpt lat="50.095463" lon="9.255885">
<ele>262.0</ele>
<speed>92.8</speed>
<course>64.7</course>
<desc>Speed 92.8 km/h Distance 2.50 km</desc>
<time>2010-09-11T14:18:51.62</time>
<name>238</name>
</trkpt>
<trkpt lat="50.095675" lon="9.256583">
<ele>264.0</ele>
<speed>84.1</speed>
<course>59.8</course>
<desc>Speed 84.1 km/h Distance 2.55 km</desc>
<time>2010-09-11T14:18:53.62</time>
<name>239</name>
</trkpt>
<trkpt lat="50.095917" lon="9.257230">
<ele>264.5</ele>
<speed>85.2</speed>
<course>51.2</course>
<desc>Speed 85.2 km/h Distance 2.60 km</desc>
<time>2010-09-11T14:18:55.62</time>
<name>240</name>
</trkpt>
<trkpt lat="50.096393" lon="9.258153">
<ele>265.0</ele>
<speed>95.1</speed>
<course>56.9</course>
<desc>Speed 95.1 km/h Distance 2.69 km</desc>
<time>2010-09-11T14:18:58.62</time>
<name>241</name>
</trkpt>
<trkpt lat="50.096527" lon="9.258472">
<ele>265.5</ele>
<speed>93.8</speed>
<course>61.6</course>
<desc>Speed 93.8 km/h Distance 2.72 km</desc>
<time>2010-09-11T14:18:59.61</time>
<name>242</name>
</trkpt>
<trkpt lat="50.096645" lon="9.258813">
<ele>266.0</ele>
<speed>95.7</speed>
<course>63.0</course>
<desc>Speed 95.7 km/h Distance 2.74 km</desc>
<time>2010-09-11T14:19:00.61</time>
<name>243</name>
</trkpt>
<trkpt lat="50.096877" lon="9.259522">
<ele>266.0</ele>
<speed>92.6</speed>
<course>55.7</course>
<desc>Speed 92.6 km/h Distance 2.80 km</desc>
<time>2010-09-11T14:19:02.62</time>
<name>244</name>
</trkpt>
<trkpt lat="50.097148" lon="9.260142">
<ele>266.0</ele>
<speed>88.6</speed>
<course>54.5</course>
<desc>Speed 88.6 km/h Distance 2.85 km</desc>
<time>2010-09-11T14:19:04.61</time>
<name>245</name>
</trkpt>
<trkpt lat="50.097390" lon="9.260670">
<ele>266.0</ele>
<speed>79.9</speed>
<course>40.5</course>
<desc>Speed 79.9 km/h Distance 2.90 km</desc>
<time>2010-09-11T14:19:06.60</time>
<name>246</name>
</trkpt>
<trkpt lat="50.097720" lon="9.261110">
<ele>266.0</ele>
<speed>82.2</speed>
<course>38.4</course>
<desc>Speed 82.2 km/h Distance 2.95 km</desc>
<time>2010-09-11T14:19:08.61</time>
<name>247</name>
</trkpt>
<trkpt lat="50.098030" lon="9.261493">
<ele>266.0</ele>
<speed>77.0</speed>
<course>41.8</course>
<desc>Speed 77.0 km/h Distance 2.99 km</desc>
<time>2010-09-11T14:19:10.61</time>
<name>248</name>
</trkpt>
<trkpt lat="50.098162" lon="9.261677">
<ele>266.0</ele>
<speed>77.0</speed>
<course>29.7</course>
<desc>Speed 77.0 km/h Distance 3.01 km</desc>
<time>2010-09-11T14:19:11.61</time>
<name>249</name>
</trkpt>
<trkpt lat="50.098667" lon="9.262125">
<ele>267.5</ele>
<speed>77.0</speed>
<course>33.2</course>
<desc>Speed 77.0 km/h Distance 3.08 km</desc>
<time>2010-09-11T14:19:17.60</time>
<name>250</name>
</trkpt>
<trkpt lat="50.098982" lon="9.262447">
<ele>274.0</ele>
<speed>71.5</speed>
<course>23.7</course>
<desc>Speed 71.5 km/h Distance 3.12 km</desc>
<time>2010-09-11T14:19:19.61</time>
<name>251</name>
</trkpt>
<trkpt lat="50.099342" lon="9.262693">
<ele>277.0</ele>
<speed>60.2</speed>
<course>1.0</course>
<desc>Speed 60.2 km/h Distance 3.16 km</desc>
<time>2010-09-11T14:19:21.60</time>
<name>252</name>
</trkpt>
<trkpt lat="50.099765" lon="9.262705">
<ele>276.5</ele>
<speed>44.6</speed>
<course>2.7</course>
<desc>Speed 44.6 km/h Distance 3.21 km</desc>
<time>2010-09-11T14:19:24.60</time>
<name>253</name>
</trkpt>
<trkpt lat="50.099880" lon="9.262713">
<ele>275.5</ele>
<speed>44.6</speed>
<course>17.8</course>
<desc>Speed 44.6 km/h Distance 3.22 km</desc>
<time>2010-09-11T14:19:25.60</time>
<name>254</name>
</trkpt>
<trkpt lat="50.100160" lon="9.262853">
<ele>274.5</ele>
<speed>46.8</speed>
<course>17.2</course>
<desc>Speed 46.8 km/h Distance 3.26 km</desc>
<time>2010-09-11T14:19:27.60</time>
<name>255</name>
</trkpt>
<trkpt lat="50.100573" lon="9.263053">
<ele>271.0</ele>
<speed>52.0</speed>
<course>57.1</course>
<desc>Speed 52.0 km/h Distance 3.30 km</desc>
<time>2010-09-11T14:19:30.60</time>
<name>256</name>
</trkpt>
<trkpt lat="50.100635" lon="9.263202">
<ele>270.5</ele>
<speed>52.0</speed>
<course>14.5</course>
<desc>Speed 52.0 km/h Distance 3.32 km</desc>
<time>2010-09-11T14:19:31.60</time>
<name>257</name>
</trkpt>
<trkpt lat="50.100772" lon="9.263257">
<ele>270.5</ele>
<speed>52.8</speed>
<course>41.5</course>
<desc>Speed 52.8 km/h Distance 3.33 km</desc>
<time>2010-09-11T14:19:32.59</time>
<name>258</name>
</trkpt>
<trkpt lat="50.100995" lon="9.263565">
<ele>269.5</ele>
<speed>50.5</speed>
<course>38.4</course>
<desc>Speed 50.5 km/h Distance 3.37 km</desc>
<time>2010-09-11T14:19:34.59</time>
<name>259</name>
</trkpt>
<trkpt lat="50.101102" lon="9.263697">
<ele>269.0</ele>
<speed>50.5</speed>
<course>41.1</course>
<desc>Speed 50.5 km/h Distance 3.38 km</desc>
<time>2010-09-11T14:19:35.59</time>
<name>260</name>
</trkpt>
<trkpt lat="50.101477" lon="9.264207">
<ele>267.5</ele>
<speed>57.9</speed>
<course>52.0</course>
<desc>Speed 57.9 km/h Distance 3.44 km</desc>
<time>2010-09-11T14:19:38.59</time>
<name>261</name>
</trkpt>
<trkpt lat="50.101693" lon="9.264638">
<ele>267.0</ele>
<speed>56.7</speed>
<course>55.9</course>
<desc>Speed 56.7 km/h Distance 3.48 km</desc>
<time>2010-09-11T14:19:40.59</time>
<name>262</name>
</trkpt>
<trkpt lat="50.101843" lon="9.264983">
<ele>266.0</ele>
<speed>56.7</speed>
<course>86.4</course>
<desc>Speed 56.7 km/h Distance 3.51 km</desc>
<time>2010-09-11T14:19:42.58</time>
<name>263</name>
</trkpt>
<trkpt lat="50.101865" lon="9.265523">
<ele>267.5</ele>
<speed>52.7</speed>
<course>88.1</course>
<desc>Speed 52.7 km/h Distance 3.54 km</desc>
<time>2010-09-11T14:19:44.59</time>
<name>264</name>
</trkpt>
<trkpt lat="50.101875" lon="9.265992">
<ele>267.5</ele>
<speed>53.7</speed>
<course>91.6</course>
<desc>Speed 53.7 km/h Distance 3.58 km</desc>
<time>2010-09-11T14:19:46.59</time>
<name>265</name>
</trkpt>
<trkpt lat="50.101872" lon="9.266180">
<ele>267.0</ele>
<speed>53.7</speed>
<course>85.3</course>
<desc>Speed 53.7 km/h Distance 3.59 km</desc>
<time>2010-09-11T14:19:47.59</time>
<name>266</name>
</trkpt>
<trkpt lat="50.101883" lon="9.266403">
<ele>267.0</ele>
<speed>52.8</speed>
<course>88.6</course>
<desc>Speed 52.8 km/h Distance 3.61 km</desc>
<time>2010-09-11T14:19:48.59</time>
<name>267</name>
</trkpt>
<trkpt lat="50.101887" lon="9.266623">
<ele>266.5</ele>
<speed>51.2</speed>
<course>83.8</course>
<desc>Speed 51.2 km/h Distance 3.62 km</desc>
<time>2010-09-11T14:19:49.58</time>
<name>268</name>
</trkpt>
<trkpt lat="50.101902" lon="9.266838">
<ele>266.5</ele>
<speed>50.8</speed>
<course>80.2</course>
<desc>Speed 50.8 km/h Distance 3.64 km</desc>
<time>2010-09-11T14:19:50.58</time>
<name>269</name>
</trkpt>
<trkpt lat="50.101925" lon="9.267050">
<ele>266.5</ele>
<speed>51.9</speed>
<course>71.9</course>
<desc>Speed 51.9 km/h Distance 3.65 km</desc>
<time>2010-09-11T14:19:51.59</time>
<name>270</name>
</trkpt>
<trkpt lat="50.102015" lon="9.267480">
<ele>266.0</ele>
<speed>53.9</speed>
<course>69.6</course>
<desc>Speed 53.9 km/h Distance 3.69 km</desc>
<time>2010-09-11T14:19:53.58</time>
<name>271</name>
</trkpt>
<trkpt lat="50.102065" lon="9.267690">
<ele>266.0</ele>
<speed>54.4</speed>
<course>69.2</course>
<desc>Speed 54.4 km/h Distance 3.70 km</desc>
<time>2010-09-11T14:19:54.58</time>
<name>272</name>
</trkpt>
<trkpt lat="50.102118" lon="9.267908">
<ele>265.5</ele>
<speed>55.1</speed>
<course>68.9</course>
<desc>Speed 55.1 km/h Distance 3.72 km</desc>
<time>2010-09-11T14:19:55.58</time>
<name>273</name>
</trkpt>
<trkpt lat="50.102172" lon="9.268123">
<ele>265.5</ele>
<speed>53.5</speed>
<course>73.9</course>
<desc>Speed 53.5 km/h Distance 3.73 km</desc>
<time>2010-09-11T14:19:56.58</time>
<name>274</name>
</trkpt>
<trkpt lat="50.102212" lon="9.268340">
<ele>265.0</ele>
<speed>51.7</speed>
<course>72.7</course>
<desc>Speed 51.7 km/h Distance 3.75 km</desc>
<time>2010-09-11T14:19:57.58</time>
<name>275</name>
</trkpt>
<trkpt lat="50.102253" lon="9.268548">
<ele>264.5</ele>
<speed>50.6</speed>
<course>56.7</course>
<desc>Speed 50.6 km/h Distance 3.77 km</desc>
<time>2010-09-11T14:19:58.59</time>
<name>276</name>
</trkpt>
<trkpt lat="50.102392" lon="9.268877">
<ele>264.0</ele>
<speed>30.1</speed>
<course>41.9</course>
<desc>Speed 30.1 km/h Distance 3.79 km</desc>
<time>2010-09-11T14:20:01.57</time>
<name>277</name>
</trkpt>
<trkpt lat="50.102488" lon="9.269012">
<ele>264.0</ele>
<speed>30.3</speed>
<course>35.0</course>
<desc>Speed 30.3 km/h Distance 3.81 km</desc>
<time>2010-09-11T14:20:03.57</time>
<name>278</name>
</trkpt>
<trkpt lat="50.102542" lon="9.269070">
<ele>264.0</ele>
<speed>30.3</speed>
<course>30.2</course>
<desc>Speed 30.3 km/h Distance 3.82 km</desc>
<time>2010-09-11T14:20:04.57</time>
<name>279</name>
</trkpt>
<trkpt lat="50.102595" lon="9.269118">
<ele>264.0</ele>
<speed>30.3</speed>
<course>25.7</course>
<desc>Speed 30.3 km/h Distance 3.82 km</desc>
<time>2010-09-11T14:20:05.58</time>
<name>280</name>
</trkpt>
<trkpt lat="50.102695" lon="9.269193">
<ele>264.0</ele>
<speed>30.3</speed>
<course>50.6</course>
<desc>Speed 30.3 km/h Distance 3.84 km</desc>
<time>2010-09-11T14:20:07.57</time>
<name>281</name>
</trkpt>
<trkpt lat="50.102825" lon="9.269440">
<ele>263.0</ele>
<speed>35.3</speed>
<course>51.0</course>
<desc>Speed 35.3 km/h Distance 3.86 km</desc>
<time>2010-09-11T14:20:09.57</time>
<name>282</name>
</trkpt>
<trkpt lat="50.102870" lon="9.269527">
<ele>263.0</ele>
<speed>35.3</speed>
<course>45.5</course>
<desc>Speed 35.3 km/h Distance 3.87 km</desc>
<time>2010-09-11T14:20:10.56</time>
<name>283</name>
</trkpt>
<trkpt lat="50.103295" lon="9.270200">
<ele>264.0</ele>
<speed>55.9</speed>
<course>33.9</course>
<desc>Speed 55.9 km/h Distance 3.93 km</desc>
<time>2010-09-11T14:20:14.56</time>
<name>284</name>
</trkpt>
<trkpt lat="50.103403" lon="9.270313">
<ele>264.0</ele>
<speed>55.9</speed>
<course>30.4</course>
<desc>Speed 55.9 km/h Distance 3.95 km</desc>
<time>2010-09-11T14:20:15.57</time>
<name>285</name>
</trkpt>
<trkpt lat="50.103840" lon="9.270713">
<ele>266.0</ele>
<speed>66.1</speed>
<course>17.0</course>
<desc>Speed 66.1 km/h Distance 4.00 km</desc>
<time>2010-09-11T14:20:18.56</time>
<name>286</name>
</trkpt>
<trkpt lat="50.104387" lon="9.270973">
<ele>268.0</ele>
<speed>78.8</speed>
<course>19.2</course>
<desc>Speed 78.8 km/h Distance 4.07 km</desc>
<time>2010-09-11T14:20:21.55</time>
<name>287</name>
</trkpt>
<trkpt lat="50.104903" lon="9.271253">
<ele>270.5</ele>
<speed>78.2</speed>
<course>16.6</course>
<desc>Speed 78.2 km/h Distance 4.13 km</desc>
<time>2010-09-11T14:20:24.55</time>
<name>288</name>
</trkpt>
<trkpt lat="50.105297" lon="9.271437">
<ele>272.0</ele>
<speed>67.1</speed>
<course>14.2</course>
<desc>Speed 67.1 km/h Distance 4.17 km</desc>
<time>2010-09-11T14:20:26.56</time>
<name>289</name>
</trkpt>
<trkpt lat="50.105680" lon="9.271588">
<ele>269.0</ele>
<speed>68.2</speed>
<course>32.5</course>
<desc>Speed 68.2 km/h Distance 4.22 km</desc>
<time>2010-09-11T14:20:28.55</time>
<name>290</name>
</trkpt>
<trkpt lat="50.106193" lon="9.272098">
<ele>270.5</ele>
<speed>65.2</speed>
<course>46.6</course>
<desc>Speed 65.2 km/h Distance 4.29 km</desc>
<time>2010-09-11T14:20:31.56</time>
<name>291</name>
</trkpt>
<trkpt lat="50.106460" lon="9.272538">
<ele>276.0</ele>
<speed>64.3</speed>
<course>44.6</course>
<desc>Speed 64.3 km/h Distance 4.33 km</desc>
<time>2010-09-11T14:20:33.55</time>
<name>292</name>
</trkpt>
<trkpt lat="50.106680" lon="9.272877">
<ele>276.0</ele>
<speed>64.3</speed>
<course>58.7</course>
<desc>Speed 64.3 km/h Distance 4.36 km</desc>
<time>2010-09-11T14:20:35.55</time>
<name>293</name>
</trkpt>
<trkpt lat="50.106958" lon="9.273592">
<ele>276.5</ele>
<speed>64.3</speed>
<course>63.4</course>
<desc>Speed 64.3 km/h Distance 4.42 km</desc>
<time>2010-09-11T14:20:38.54</time>
<name>294</name>
</trkpt>
<trkpt lat="50.107028" lon="9.273810">
<ele>277.0</ele>
<speed>59.1</speed>
<course>51.8</course>
<desc>Speed 59.1 km/h Distance 4.44 km</desc>
<time>2010-09-11T14:20:39.55</time>
<name>295</name>
</trkpt>
<trkpt lat="50.107117" lon="9.273985">
<ele>277.0</ele>
<speed>56.7</speed>
<course>36.9</course>
<desc>Speed 56.7 km/h Distance 4.46 km</desc>
<time>2010-09-11T14:20:40.55</time>
<name>296</name>
</trkpt>
<trkpt lat="50.107235" lon="9.274123">
<ele>278.5</ele>
<speed>56.5</speed>
<course>38.7</course>
<desc>Speed 56.5 km/h Distance 4.47 km</desc>
<time>2010-09-11T14:20:41.54</time>
<name>297</name>
</trkpt>
<trkpt lat="50.107435" lon="9.274373">
<ele>279.0</ele>
<speed>54.5</speed>
<course>30.1</course>
<desc>Speed 54.5 km/h Distance 4.50 km</desc>
<time>2010-09-11T14:20:43.54</time>
<name>298</name>
</trkpt>
<trkpt lat="50.107557" lon="9.274483">
<ele>279.5</ele>
<speed>53.0</speed>
<course>30.5</course>
<desc>Speed 53.0 km/h Distance 4.52 km</desc>
<time>2010-09-11T14:20:44.55</time>
<name>299</name>
</trkpt>
<trkpt lat="50.107677" lon="9.274593">
<ele>280.0</ele>
<speed>51.4</speed>
<course>36.4</course>
<desc>Speed 51.4 km/h Distance 4.53 km</desc>
<time>2010-09-11T14:20:45.53</time>
<name>300</name>
</trkpt>
<trkpt lat="50.107788" lon="9.274722">
<ele>280.5</ele>
<speed>52.1</speed>
<course>42.1</course>
<desc>Speed 52.1 km/h Distance 4.55 km</desc>
<time>2010-09-11T14:20:46.54</time>
<name>301</name>
</trkpt>
<trkpt lat="50.107882" lon="9.274853">
<ele>280.5</ele>
<speed>51.1</speed>
<course>60.9</course>
<desc>Speed 51.1 km/h Distance 4.56 km</desc>
<time>2010-09-11T14:20:47.53</time>
<name>302</name>
</trkpt>
<trkpt lat="50.107950" lon="9.275045">
<ele>280.5</ele>
<speed>53.0</speed>
<course>54.8</course>
<desc>Speed 53.0 km/h Distance 4.58 km</desc>
<time>2010-09-11T14:20:48.54</time>
<name>303</name>
</trkpt>
<trkpt lat="50.108067" lon="9.275303">
<ele>281.0</ele>
<speed>53.0</speed>
<course>56.4</course>
<desc>Speed 53.0 km/h Distance 4.60 km</desc>
<time>2010-09-11T14:20:50.54</time>
<name>304</name>
</trkpt>
<trkpt lat="50.108188" lon="9.275588">
<ele>280.5</ele>
<speed>52.7</speed>
<course>63.5</course>
<desc>Speed 52.7 km/h Distance 4.63 km</desc>
<time>2010-09-11T14:20:52.53</time>
<name>305</name>
</trkpt>
<trkpt lat="50.108278" lon="9.275870">
<ele>280.5</ele>
<speed>52.7</speed>
<course>60.3</course>
<desc>Speed 52.7 km/h Distance 4.65 km</desc>
<time>2010-09-11T14:20:54.53</time>
<name>306</name>
</trkpt>
<trkpt lat="50.108385" lon="9.276162">
<ele>280.5</ele>
<speed>48.0</speed>
<course>57.9</course>
<desc>Speed 48.0 km/h Distance 4.67 km</desc>
<time>2010-09-11T14:20:56.53</time>
<name>307</name>
</trkpt>
<trkpt lat="50.108453" lon="9.276332">
<ele>280.5</ele>
<speed>45.5</speed>
<course>73.1</course>
<desc>Speed 45.5 km/h Distance 4.69 km</desc>
<time>2010-09-11T14:20:57.53</time>
<name>308</name>
</trkpt>
<trkpt lat="50.108488" lon="9.276512">
<ele>280.5</ele>
<speed>43.0</speed>
<course>66.2</course>
<desc>Speed 43.0 km/h Distance 4.70 km</desc>
<time>2010-09-11T14:20:58.53</time>
<name>309</name>
</trkpt>
<trkpt lat="50.108532" lon="9.276665">
<ele>280.5</ele>
<speed>39.0</speed>
<course>34.8</course>
<desc>Speed 39.0 km/h Distance 4.71 km</desc>
<time>2010-09-11T14:20:59.53</time>
<name>310</name>
</trkpt>
<trkpt lat="50.108610" lon="9.276750">
<ele>280.5</ele>
<speed>33.4</speed>
<course>55.9</course>
<desc>Speed 33.4 km/h Distance 4.72 km</desc>
<time>2010-09-11T14:21:00.53</time>
<name>311</name>
</trkpt>
<trkpt lat="50.108730" lon="9.277027">
<ele>281.0</ele>
<speed>33.9</speed>
<course>36.7</course>
<desc>Speed 33.9 km/h Distance 4.75 km</desc>
<time>2010-09-11T14:21:02.53</time>
<name>312</name>
</trkpt>
<trkpt lat="50.108915" lon="9.277242">
<ele>281.0</ele>
<speed>45.0</speed>
<course>31.6</course>
<desc>Speed 45.0 km/h Distance 4.77 km</desc>
<time>2010-09-11T14:21:04.52</time>
<name>313</name>
</trkpt>
<trkpt lat="50.108997" lon="9.277320">
<ele>281.0</ele>
<speed>45.0</speed>
<course>40.4</course>
<desc>Speed 45.0 km/h Distance 4.78 km</desc>
<time>2010-09-11T14:21:05.52</time>
<name>314</name>
</trkpt>
<trkpt lat="50.109128" lon="9.277495">
<ele>281.5</ele>
<speed>45.0</speed>
<course>30.3</course>
<desc>Speed 45.0 km/h Distance 4.80 km</desc>
<time>2010-09-11T14:21:07.53</time>
<name>315</name>
</trkpt>
<trkpt lat="50.109332" lon="9.277680">
<ele>281.5</ele>
<speed>42.2</speed>
<course>33.2</course>
<desc>Speed 42.2 km/h Distance 4.83 km</desc>
<time>2010-09-11T14:21:09.52</time>
<name>316</name>
</trkpt>
<trkpt lat="50.109413" lon="9.277763">
<ele>281.5</ele>
<speed>42.2</speed>
<course>46.8</course>
<desc>Speed 42.2 km/h Distance 4.84 km</desc>
<time>2010-09-11T14:21:10.52</time>
<name>317</name>
</trkpt>
<trkpt lat="50.109848" lon="9.278487">
<ele>281.5</ele>
<speed>62.4</speed>
<course>46.5</course>
<desc>Speed 62.4 km/h Distance 4.91 km</desc>
<time>2010-09-11T14:21:14.52</time>
<name>318</name>
</trkpt>
<trkpt lat="50.109965" lon="9.278678">
<ele>282.0</ele>
<speed>60.6</speed>
<course>52.1</course>
<desc>Speed 60.6 km/h Distance 4.93 km</desc>
<time>2010-09-11T14:21:15.52</time>
<name>319</name>
</trkpt>
<trkpt lat="50.110067" lon="9.278882">
<ele>282.0</ele>
<speed>60.7</speed>
<course>49.6</course>
<desc>Speed 60.7 km/h Distance 4.95 km</desc>
<time>2010-09-11T14:21:16.52</time>
<name>320</name>
</trkpt>
<trkpt lat="50.110217" lon="9.279157">
<ele>282.0</ele>
<speed>60.7</speed>
<course>51.9</course>
<desc>Speed 60.7 km/h Distance 4.97 km</desc>
<time>2010-09-11T14:21:18.52</time>
<name>321</name>
</trkpt>
<trkpt lat="50.110412" lon="9.279545">
<ele>282.0</ele>
<speed>67.0</speed>
<course>53.7</course>
<desc>Speed 67.0 km/h Distance 5.01 km</desc>
<time>2010-09-11T14:21:20.51</time>
<name>322</name>
</trkpt>
<trkpt lat="50.110522" lon="9.279778">
<ele>282.0</ele>
<speed>71.2</speed>
<course>44.1</course>
<desc>Speed 71.2 km/h Distance 5.03 km</desc>
<time>2010-09-11T14:21:21.51</time>
<name>323</name>
</trkpt>
<trkpt lat="50.110802" lon="9.280202">
<ele>282.0</ele>
<speed>71.2</speed>
<course>31.8</course>
<desc>Speed 71.2 km/h Distance 5.07 km</desc>
<time>2010-09-11T14:21:23.51</time>
<name>324</name>
</trkpt>
<trkpt lat="50.111045" lon="9.280437">
<ele>282.0</ele>
<speed>60.7</speed>
<course>25.6</course>
<desc>Speed 60.7 km/h Distance 5.10 km</desc>
<time>2010-09-11T14:21:25.51</time>
<name>325</name>
</trkpt>
<trkpt lat="50.111288" lon="9.280618">
<ele>282.5</ele>
<speed>58.9</speed>
<course>17.1</course>
<desc>Speed 58.9 km/h Distance 5.13 km</desc>
<time>2010-09-11T14:21:27.51</time>
<name>326</name>
</trkpt>
<trkpt lat="50.111413" lon="9.280678">
<ele>282.5</ele>
<speed>58.9</speed>
<course>10.4</course>
<desc>Speed 58.9 km/h Distance 5.15 km</desc>
<time>2010-09-11T14:21:28.50</time>
<name>327</name>
</trkpt>
<trkpt lat="50.111758" lon="9.280777">
<ele>283.0</ele>
<speed>58.9</speed>
<course>19.7</course>
<desc>Speed 58.9 km/h Distance 5.19 km</desc>
<time>2010-09-11T14:21:32.51</time>
<name>328</name>
</trkpt>
<trkpt lat="50.112045" lon="9.280937">
<ele>283.0</ele>
<speed>58.9</speed>
<course>22.3</course>
<desc>Speed 58.9 km/h Distance 5.22 km</desc>
<time>2010-09-11T14:21:36.49</time>
<name>329</name>
</trkpt>
<trkpt lat="50.112327" lon="9.281117">
<ele>282.5</ele>
<speed>58.9</speed>
<course>31.7</course>
<desc>Speed 58.9 km/h Distance 5.26 km</desc>
<time>2010-09-11T14:21:38.49</time>
<name>330</name>
</trkpt>
<trkpt lat="50.112458" lon="9.281243">
<ele>282.5</ele>
<speed>58.9</speed>
<course>38.7</course>
<desc>Speed 58.9 km/h Distance 5.27 km</desc>
<time>2010-09-11T14:21:39.48</time>
<name>331</name>
</trkpt>
<trkpt lat="50.112652" lon="9.281485">
<ele>282.0</ele>
<speed>58.9</speed>
<course>26.1</course>
<desc>Speed 58.9 km/h Distance 5.30 km</desc>
<time>2010-09-11T14:21:41.48</time>
<name>332</name>
</trkpt>
<trkpt lat="50.112772" lon="9.281577">
<ele>282.0</ele>
<speed>58.9</speed>
<course>38.4</course>
<desc>Speed 58.9 km/h Distance 5.31 km</desc>
<time>2010-09-11T14:21:42.48</time>
<name>333</name>
</trkpt>
<trkpt lat="50.113720" lon="9.282750">
<ele>281.5</ele>
<speed>58.9</speed>
<course>33.5</course>
<desc>Speed 58.9 km/h Distance 5.45 km</desc>
<time>2010-09-11T14:21:45.48</time>
<name>334</name>
</trkpt>
<trkpt lat="50.114135" lon="9.283178">
<ele>281.0</ele>
<speed>58.9</speed>
<course>62.8</course>
<desc>Speed 58.9 km/h Distance 5.51 km</desc>
<time>2010-09-11T14:21:48.48</time>
<name>335</name>
</trkpt>
<trkpt lat="50.114652" lon="9.284743">
<ele>281.0</ele>
<speed>76.6</speed>
<course>34.5</course>
<desc>Speed 76.6 km/h Distance 5.63 km</desc>
<time>2010-09-11T14:21:53.47</time>
<name>336</name>
</trkpt>
<trkpt lat="50.115142" lon="9.285268">
<ele>281.5</ele>
<speed>76.6</speed>
<course>29.9</course>
<desc>Speed 76.6 km/h Distance 5.70 km</desc>
<time>2010-09-11T14:21:59.47</time>
<name>337</name>
</trkpt>
<trkpt lat="50.116438" lon="9.286433">
<ele>282.0</ele>
<speed>80.2</speed>
<course>44.3</course>
<desc>Speed 80.2 km/h Distance 5.86 km</desc>
<time>2010-09-11T14:22:04.48</time>
<name>338</name>
</trkpt>
<trkpt lat="50.117182" lon="9.287563">
<ele>282.5</ele>
<speed>82.7</speed>
<course>41.6</course>
<desc>Speed 82.7 km/h Distance 5.98 km</desc>
<time>2010-09-11T14:22:08.46</time>
<name>339</name>
</trkpt>
<trkpt lat="50.117328" lon="9.287767">
<ele>282.0</ele>
<speed>82.7</speed>
<course>50.8</course>
<desc>Speed 82.7 km/h Distance 6.00 km</desc>
<time>2010-09-11T14:22:09.46</time>
<name>340</name>
</trkpt>
<trkpt lat="50.117578" lon="9.288245">
<ele>282.5</ele>
<speed>86.5</speed>
<course>53.1</course>
<desc>Speed 86.5 km/h Distance 6.04 km</desc>
<time>2010-09-11T14:22:11.46</time>
<name>341</name>
</trkpt>
<trkpt lat="50.117838" lon="9.288785">
<ele>283.0</ele>
<speed>87.8</speed>
<course>52.1</course>
<desc>Speed 87.8 km/h Distance 6.09 km</desc>
<time>2010-09-11T14:22:13.46</time>
<name>342</name>
</trkpt>
<trkpt lat="50.117980" lon="9.289068">
<ele>283.0</ele>
<speed>87.8</speed>
<course>45.9</course>
<desc>Speed 87.8 km/h Distance 6.12 km</desc>
<time>2010-09-11T14:22:14.46</time>
<name>343</name>
</trkpt>
<trkpt lat="50.118375" lon="9.289703">
<ele>283.0</ele>
<speed>91.9</speed>
<course>39.4</course>
<desc>Speed 91.9 km/h Distance 6.18 km</desc>
<time>2010-09-11T14:22:17.46</time>
<name>344</name>
</trkpt>
<trkpt lat="50.118782" lon="9.290225">
<ele>283.0</ele>
<speed>96.0</speed>
<course>43.8</course>
<desc>Speed 96.0 km/h Distance 6.24 km</desc>
<time>2010-09-11T14:22:19.45</time>
<name>345</name>
</trkpt>
<trkpt lat="50.119152" lon="9.290778">
<ele>283.5</ele>
<speed>91.4</speed>
<course>42.6</course>
<desc>Speed 91.4 km/h Distance 6.30 km</desc>
<time>2010-09-11T14:22:21.45</time>
<name>346</name>
</trkpt>
<trkpt lat="50.119683" lon="9.291540">
<ele>284.0</ele>
<speed>91.4</speed>
<course>54.4</course>
<desc>Speed 91.4 km/h Distance 6.38 km</desc>
<time>2010-09-11T14:22:26.45</time>
<name>347</name>
</trkpt>
<trkpt lat="50.119990" lon="9.292208">
<ele>283.5</ele>
<speed>91.4</speed>
<course>70.6</course>
<desc>Speed 91.4 km/h Distance 6.44 km</desc>
<time>2010-09-11T14:22:32.45</time>
<name>348</name>
</trkpt>
<trkpt lat="50.120183" lon="9.293063">
<ele>283.0</ele>
<speed>78.6</speed>
<course>75.6</course>
<desc>Speed 78.6 km/h Distance 6.50 km</desc>
<time>2010-09-11T14:22:37.45</time>
<name>349</name>
</trkpt>
<trkpt lat="50.120365" lon="9.294163">
<ele>283.0</ele>
<speed>83.3</speed>
<course>72.7</course>
<desc>Speed 83.3 km/h Distance 6.58 km</desc>
<time>2010-09-11T14:22:40.44</time>
<name>350</name>
</trkpt>
<trkpt lat="50.120900" lon="9.296837">
<ele>285.0</ele>
<speed>79.3</speed>
<course>81.1</course>
<desc>Speed 79.3 km/h Distance 6.78 km</desc>
<time>2010-09-11T14:22:46.44</time>
<name>351</name>
</trkpt>
<trkpt lat="50.120952" lon="9.297353">
<ele>285.5</ele>
<speed>79.3</speed>
<course>59.3</course>
<desc>Speed 79.3 km/h Distance 6.82 km</desc>
<time>2010-09-11T14:22:48.44</time>
<name>352</name>
</trkpt>
<trkpt lat="50.121118" lon="9.297792">
<ele>285.5</ele>
<speed>79.3</speed>
<course>62.5</course>
<desc>Speed 79.3 km/h Distance 6.86 km</desc>
<time>2010-09-11T14:22:50.44</time>
<name>353</name>
</trkpt>
<trkpt lat="50.121723" lon="9.299607">
<ele>288.5</ele>
<speed>77.0</speed>
<course>56.9</course>
<desc>Speed 77.0 km/h Distance 7.00 km</desc>
<time>2010-09-11T14:22:55.43</time>
<name>354</name>
</trkpt>
<trkpt lat="50.121912" lon="9.300057">
<ele>288.5</ele>
<speed>77.0</speed>
<course>59.3</course>
<desc>Speed 77.0 km/h Distance 7.04 km</desc>
<time>2010-09-11T14:22:57.43</time>
<name>355</name>
</trkpt>
<trkpt lat="50.122263" lon="9.300980">
<ele>288.5</ele>
<speed>77.0</speed>
<course>18.7</course>
<desc>Speed 77.0 km/h Distance 7.12 km</desc>
<time>2010-09-11T14:23:03.42</time>
<name>356</name>
</trkpt>
<trkpt lat="50.123025" lon="9.301382">
<ele>289.0</ele>
<speed>77.0</speed>
<course>37.9</course>
<desc>Speed 77.0 km/h Distance 7.21 km</desc>
<time>2010-09-11T14:23:07.43</time>
<name>357</name>
</trkpt>
<trkpt lat="50.123433" lon="9.301878">
<ele>291.0</ele>
<speed>77.0</speed>
<course>82.7</course>
<desc>Speed 77.0 km/h Distance 7.26 km</desc>
<time>2010-09-11T14:23:10.42</time>
<name>358</name>
</trkpt>
<trkpt lat="50.123478" lon="9.302425">
<ele>292.5</ele>
<speed>83.2</speed>
<course>79.4</course>
<desc>Speed 83.2 km/h Distance 7.30 km</desc>
<time>2010-09-11T14:23:12.42</time>
<name>359</name>
</trkpt>
<trkpt lat="50.123515" lon="9.302730">
<ele>292.5</ele>
<speed>83.2</speed>
<course>80.6</course>
<desc>Speed 83.2 km/h Distance 7.33 km</desc>
<time>2010-09-11T14:23:13.42</time>
<name>360</name>
</trkpt>
<trkpt lat="50.123613" lon="9.303658">
<ele>294.5</ele>
<speed>97.7</speed>
<course>93.9</course>
<desc>Speed 97.7 km/h Distance 7.39 km</desc>
<time>2010-09-11T14:23:16.41</time>
<name>361</name>
</trkpt>
<trkpt lat="50.123528" lon="9.305598">
<ele>304.0</ele>
<speed>105</speed>
<course>82.1</course>
<desc>Speed 105 km/h Distance 7.53 km</desc>
<time>2010-09-11T14:23:20.41</time>
<name>362</name>
</trkpt>
<trkpt lat="50.123565" lon="9.306008">
<ele>305.5</ele>
<speed>105</speed>
<course>68.4</course>
<desc>Speed 105 km/h Distance 7.56 km</desc>
<time>2010-09-11T14:23:21.41</time>
<name>363</name>
</trkpt>
<trkpt lat="50.123895" lon="9.307310">
<ele>313.0</ele>
<speed>105</speed>
<course>102.0</course>
<desc>Speed 105 km/h Distance 7.66 km</desc>
<time>2010-09-11T14:23:26.41</time>
<name>364</name>
</trkpt>
<trkpt lat="50.123698" lon="9.308752">
<ele>310.0</ele>
<speed>85.7</speed>
<course>117.2</course>
<desc>Speed 85.7 km/h Distance 7.77 km</desc>
<time>2010-09-11T14:23:32.41</time>
<name>365</name>
</trkpt>
<trkpt lat="50.123055" lon="9.310703">
<ele>310.5</ele>
<speed>85.7</speed>
<course>110.0</course>
<desc>Speed 85.7 km/h Distance 7.92 km</desc>
<time>2010-09-11T14:23:39.41</time>
<name>366</name>
</trkpt>
<trkpt lat="50.122893" lon="9.311395">
<ele>310.5</ele>
<speed>85.7</speed>
<course>119.0</course>
<desc>Speed 85.7 km/h Distance 7.98 km</desc>
<time>2010-09-11T14:23:45.39</time>
<name>367</name>
</trkpt>
<trkpt lat="50.121885" lon="9.314227">
<ele>310.5</ele>
<speed>85.7</speed>
<course>134.0</course>
<desc>Speed 85.7 km/h Distance 8.21 km</desc>
<time>2010-09-11T14:23:57.39</time>
<name>368</name>
</trkpt>
<trkpt lat="50.121582" lon="9.314717">
<ele>310.0</ele>
<speed>85.7</speed>
<course>131.9</course>
<desc>Speed 85.7 km/h Distance 8.26 km</desc>
<time>2010-09-11T14:23:59.38</time>
<name>369</name>
</trkpt>
<trkpt lat="50.121288" lon="9.315227">
<ele>311.0</ele>
<speed>85.7</speed>
<course>36.9</course>
<desc>Speed 85.7 km/h Distance 8.30 km</desc>
<time>2010-09-11T14:24:01.38</time>
<name>370</name>
</trkpt>
<trkpt lat="50.121592" lon="9.315582">
<ele>313.0</ele>
<speed>85.7</speed>
<course>83.9</course>
<desc>Speed 85.7 km/h Distance 8.35 km</desc>
<time>2010-09-11T14:24:03.38</time>
<name>371</name>
</trkpt>
<trkpt lat="50.121647" lon="9.316387">
<ele>315.0</ele>
<speed>85.7</speed>
<course>54.4</course>
<desc>Speed 85.7 km/h Distance 8.40 km</desc>
<time>2010-09-11T14:24:09.38</time>
<name>372</name>
</trkpt>
<trkpt lat="50.122065" lon="9.317298">
<ele>314.5</ele>
<speed>85.7</speed>
<course>75.4</course>
<desc>Speed 85.7 km/h Distance 8.48 km</desc>
<time>2010-09-11T14:24:13.38</time>
<name>373</name>
</trkpt>
<trkpt lat="50.122188" lon="9.318038">
<ele>314.0</ele>
<speed>85.7</speed>
<course>64.8</course>
<desc>Speed 85.7 km/h Distance 8.54 km</desc>
<time>2010-09-11T14:24:15.38</time>
<name>374</name>
</trkpt>
<trkpt lat="50.122425" lon="9.318822">
<ele>314.0</ele>
<speed>85.7</speed>
<course>98.6</course>
<desc>Speed 85.7 km/h Distance 8.60 km</desc>
<time>2010-09-11T14:24:19.38</time>
<name>375</name>
</trkpt>
<trkpt lat="50.122245" lon="9.320668">
<ele>314.5</ele>
<speed>85.7</speed>
<course>112.9</course>
<desc>Speed 85.7 km/h Distance 8.73 km</desc>
<time>2010-09-11T14:24:21.38</time>
<name>376</name>
</trkpt>
<trkpt lat="50.121822" lon="9.322228">
<ele>313.5</ele>
<speed>85.7</speed>
<course>129.3</course>
<desc>Speed 85.7 km/h Distance 8.85 km</desc>
<time>2010-09-11T14:24:25.37</time>
<name>377</name>
</trkpt>
<trkpt lat="50.120605" lon="9.324543">
<ele>313.0</ele>
<speed>85.7</speed>
<course>108.9</course>
<desc>Speed 85.7 km/h Distance 9.07 km</desc>
<time>2010-09-11T14:24:31.36</time>
<name>378</name>
</trkpt>
<trkpt lat="50.119972" lon="9.327422">
<ele>312.5</ele>
<speed>76.6</speed>
<course>129.9</course>
<desc>Speed 76.6 km/h Distance 9.29 km</desc>
<time>2010-09-11T14:24:36.36</time>
<name>379</name>
</trkpt>
<trkpt lat="50.119403" lon="9.328483">
<ele>313.0</ele>
<speed>76.6</speed>
<course>106.5</course>
<desc>Speed 76.6 km/h Distance 9.38 km</desc>
<time>2010-09-11T14:24:40.36</time>
<name>380</name>
</trkpt>
<trkpt lat="50.119282" lon="9.329123">
<ele>313.0</ele>
<speed>76.6</speed>
<course>120.9</course>
<desc>Speed 76.6 km/h Distance 9.43 km</desc>
<time>2010-09-11T14:24:43.36</time>
<name>381</name>
</trkpt>
<trkpt lat="50.118765" lon="9.330472">
<ele>313.0</ele>
<speed>76.6</speed>
<course>117.5</course>
<desc>Speed 76.6 km/h Distance 9.54 km</desc>
<time>2010-09-11T14:24:45.35</time>
<name>382</name>
</trkpt>
<trkpt lat="50.118560" lon="9.331087">
<ele>313.5</ele>
<speed>76.6</speed>
<course>131.3</course>
<desc>Speed 76.6 km/h Distance 9.59 km</desc>
<time>2010-09-11T14:24:47.36</time>
<name>383</name>
</trkpt>
<trkpt lat="50.118157" lon="9.331802">
<ele>313.5</ele>
<speed>76.6</speed>
<course>126.4</course>
<desc>Speed 76.6 km/h Distance 9.66 km</desc>
<time>2010-09-11T14:24:49.35</time>
<name>384</name>
</trkpt>
<trkpt lat="50.117560" lon="9.333063">
<ele>313.5</ele>
<speed>76.6</speed>
<course>151.0</course>
<desc>Speed 76.6 km/h Distance 9.77 km</desc>
<time>2010-09-11T14:24:51.35</time>
<name>385</name>
</trkpt>
<trkpt lat="50.116148" lon="9.334283">
<ele>313.5</ele>
<speed>76.6</speed>
<course>98.8</course>
<desc>Speed 76.6 km/h Distance 9.95 km</desc>
<time>2010-09-11T14:24:57.33</time>
<name>386</name>
</trkpt>
<trkpt lat="50.116103" lon="9.334735">
<ele>313.5</ele>
<speed>76.6</speed>
<course>101.0</course>
<desc>Speed 76.6 km/h Distance 9.99 km</desc>
<time>2010-09-11T14:25:02.34</time>
<name>387</name>
</trkpt>
<trkpt lat="50.115813" lon="9.337058">
<ele>313.0</ele>
<speed>76.6</speed>
<course>109.0</course>
<desc>Speed 76.6 km/h Distance 10.15 km</desc>
<time>2010-09-11T14:25:07.32</time>
<name>388</name>
</trkpt>
<trkpt lat="50.115750" lon="9.337345">
<ele>313.0</ele>
<speed>76.6</speed>
<course>121.4</course>
<desc>Speed 76.6 km/h Distance 10.18 km</desc>
<time>2010-09-11T14:25:08.32</time>
<name>389</name>
</trkpt>
<trkpt lat="50.115032" lon="9.339182">
<ele>313.0</ele>
<speed>76.6</speed>
<course>107.2</course>
<desc>Speed 76.6 km/h Distance 10.33 km</desc>
<time>2010-09-11T14:25:14.32</time>
<name>390</name>
</trkpt>
<trkpt lat="50.114847" lon="9.340115">
<ele>313.0</ele>
<speed>76.6</speed>
<course>117.6</course>
<desc>Speed 76.6 km/h Distance 10.40 km</desc>
<time>2010-09-11T14:25:16.31</time>
<name>391</name>
</trkpt>
<trkpt lat="50.114405" lon="9.341432">
<ele>313.5</ele>
<speed>76.6</speed>
<course>72.7</course>
<desc>Speed 76.6 km/h Distance 10.51 km</desc>
<time>2010-09-11T14:25:19.31</time>
<name>392</name>
</trkpt>
<trkpt lat="50.114897" lon="9.343890">
<ele>313.0</ele>
<speed>102</speed>
<course>106.5</course>
<desc>Speed 102 km/h Distance 10.69 km</desc>
<time>2010-09-11T14:25:25.30</time>
<name>393</name>
</trkpt>
<trkpt lat="50.114640" lon="9.345238">
<ele>313.5</ele>
<speed>102</speed>
<course>131.9</course>
<desc>Speed 102 km/h Distance 10.79 km</desc>
<time>2010-09-11T14:25:34.30</time>
<name>394</name>
</trkpt>
<trkpt lat="50.113230" lon="9.347688">
<ele>313.5</ele>
<speed>102</speed>
<course>157.9</course>
<desc>Speed 102 km/h Distance 11.02 km</desc>
<time>2010-09-11T14:25:38.30</time>
<name>395</name>
</trkpt>
<trkpt lat="50.112990" lon="9.347840">
<ele>313.5</ele>
<speed>102</speed>
<course>200.6</course>
<desc>Speed 102 km/h Distance 11.05 km</desc>
<time>2010-09-11T14:25:39.30</time>
<name>396</name>
</trkpt>
<trkpt lat="50.111457" lon="9.346943">
<ele>314.0</ele>
<speed>102</speed>
<course>221.2</course>
<desc>Speed 102 km/h Distance 11.24 km</desc>
<time>2010-09-11T14:25:43.30</time>
<name>397</name>
</trkpt>
<trkpt lat="50.110768" lon="9.346003">
<ele>314.0</ele>
<speed>102</speed>
<course>220.1</course>
<desc>Speed 102 km/h Distance 11.34 km</desc>
<time>2010-09-11T14:25:45.29</time>
<name>398</name>
</trkpt>
<trkpt lat="50.110645" lon="9.345842">
<ele>314.0</ele>
<speed>102</speed>
<course>289.3</course>
<desc>Speed 102 km/h Distance 11.36 km</desc>
<time>2010-09-11T14:25:47.29</time>
<name>399</name>
</trkpt>
<trkpt lat="50.110833" lon="9.345002">
<ele>314.0</ele>
<speed>102</speed>
<course>205.1</course>
<desc>Speed 102 km/h Distance 11.42 km</desc>
<time>2010-09-11T14:25:49.30</time>
<name>400</name>
</trkpt>
<trkpt lat="50.110047" lon="9.344427">
<ele>314.0</ele>
<speed>63.9</speed>
<course>129.5</course>
<desc>Speed 63.9 km/h Distance 11.52 km</desc>
<time>2010-09-11T14:25:55.29</time>
<name>401</name>
</trkpt>
<trkpt lat="50.109120" lon="9.346182">
<ele>314.5</ele>
<speed>63.9</speed>
<course>154.5</course>
<desc>Speed 63.9 km/h Distance 11.68 km</desc>
<time>2010-09-11T14:26:06.29</time>
<name>402</name>
</trkpt>
<trkpt lat="50.107977" lon="9.347033">
<ele>315.0</ele>
<speed>63.9</speed>
<course>160.8</course>
<desc>Speed 63.9 km/h Distance 11.82 km</desc>
<time>2010-09-11T14:26:14.27</time>
<name>403</name>
</trkpt>
<trkpt lat="50.106615" lon="9.347773">
<ele>315.5</ele>
<speed>63.9</speed>
<course>204.0</course>
<desc>Speed 63.9 km/h Distance 11.98 km</desc>
<time>2010-09-11T14:26:31.28</time>
<name>404</name>
</trkpt>
<trkpt lat="50.105375" lon="9.346913">
<ele>316.0</ele>
<speed>63.9</speed>
<course>190.1</course>
<desc>Speed 63.9 km/h Distance 12.13 km</desc>
<time>2010-09-11T14:26:34.85</time>
<name>405</name>
</trkpt>
<trkpt lat="50.103022" lon="9.346262">
<ele>316.0</ele>
<speed>63.9</speed>
<course>198.8</course>
<desc>Speed 63.9 km/h Distance 12.40 km</desc>
<time>2010-09-11T14:26:40.27</time>
<name>406</name>
</trkpt>
<trkpt lat="50.101327" lon="9.345362">
<ele>316.0</ele>
<speed>63.9</speed>
<course>178.6</course>
<desc>Speed 63.9 km/h Distance 12.60 km</desc>
<time>2010-09-11T14:26:45.27</time>
<name>407</name>
</trkpt>
<trkpt lat="50.100972" lon="9.345375">
<ele>316.0</ele>
<speed>63.9</speed>
<course>178.8</course>
<desc>Speed 63.9 km/h Distance 12.64 km</desc>
<time>2010-09-11T14:26:49.27</time>
<name>408</name>
</trkpt>
<trkpt lat="50.100670" lon="9.345385">
<ele>316.0</ele>
<speed>63.9</speed>
<course>173.6</course>
<desc>Speed 63.9 km/h Distance 12.67 km</desc>
<time>2010-09-11T14:26:52.27</time>
<name>409</name>
</trkpt>
<trkpt lat="50.100527" lon="9.345410">
<ele>316.0</ele>
<speed>63.9</speed>
<course>200.6</course>
<desc>Speed 63.9 km/h Distance 12.69 km</desc>
<time>2010-09-11T14:26:53.26</time>
<name>410</name>
</trkpt>
<trkpt lat="50.099575" lon="9.344853">
<ele>316.0</ele>
<speed>63.9</speed>
<course>197.2</course>
<desc>Speed 63.9 km/h Distance 12.80 km</desc>
<time>2010-09-11T14:26:56.30</time>
<name>411</name>
</trkpt>
<trkpt lat="50.099222" lon="9.344683">
<ele>316.5</ele>
<speed>63.9</speed>
<course>167.1</course>
<desc>Speed 63.9 km/h Distance 12.84 km</desc>
<time>2010-09-11T14:26:58.26</time>
<name>412</name>
</trkpt>
<trkpt lat="50.097977" lon="9.345128">
<ele>316.5</ele>
<speed>63.9</speed>
<course>246.3</course>
<desc>Speed 63.9 km/h Distance 12.98 km</desc>
<time>2010-09-11T14:27:00.26</time>
<name>413</name>
</trkpt>
<trkpt lat="50.097180" lon="9.342295">
<ele>316.5</ele>
<speed>63.9</speed>
<course>230.9</course>
<desc>Speed 63.9 km/h Distance 13.20 km</desc>
<time>2010-09-11T14:27:05.26</time>
<name>414</name>
</trkpt>
<trkpt lat="50.096307" lon="9.340618">
<ele>316.5</ele>
<speed>63.9</speed>
<course>220.1</course>
<desc>Speed 63.9 km/h Distance 13.36 km</desc>
<time>2010-09-11T14:27:11.26</time>
<name>415</name>
</trkpt>
<trkpt lat="50.095692" lon="9.339810">
<ele>316.5</ele>
<speed>63.9</speed>
<course>202.7</course>
<desc>Speed 63.9 km/h Distance 13.45 km</desc>
<time>2010-09-11T14:27:15.25</time>
<name>416</name>
</trkpt>
<trkpt lat="50.093723" lon="9.338525">
<ele>317.0</ele>
<speed>63.9</speed>
<course>155.6</course>
<desc>Speed 63.9 km/h Distance 13.68 km</desc>
<time>2010-09-11T14:27:31.26</time>
<name>417</name>
</trkpt>
<trkpt lat="50.093030" lon="9.339015">
<ele>317.0</ele>
<speed>63.9</speed>
<course>214.2</course>
<desc>Speed 63.9 km/h Distance 13.77 km</desc>
<time>2010-09-11T14:27:33.25</time>
<name>418</name>
</trkpt>
<trkpt lat="50.091987" lon="9.337910">
<ele>317.5</ele>
<speed>63.9</speed>
<course>166.4</course>
<desc>Speed 63.9 km/h Distance 13.91 km</desc>
<time>2010-09-11T14:27:35.25</time>
<name>419</name>
</trkpt>
<trkpt lat="50.090803" lon="9.338355">
<ele>317.5</ele>
<speed>63.9</speed>
<course>201.1</course>
<desc>Speed 63.9 km/h Distance 14.04 km</desc>
<time>2010-09-11T14:27:37.25</time>
<name>420</name>
</trkpt>
<trkpt lat="50.090177" lon="9.337978">
<ele>317.5</ele>
<speed>63.9</speed>
<course>177.1</course>
<desc>Speed 63.9 km/h Distance 14.12 km</desc>
<time>2010-09-11T14:27:39.25</time>
<name>421</name>
</trkpt>
<trkpt lat="50.088825" lon="9.338083">
<ele>318.0</ele>
<speed>63.9</speed>
<course>166.5</course>
<desc>Speed 63.9 km/h Distance 14.27 km</desc>
<time>2010-09-11T14:27:41.25</time>
<name>422</name>
</trkpt>
<trkpt lat="50.088360" lon="9.338257">
<ele>318.0</ele>
<speed>63.9</speed>
<course>223.8</course>
<desc>Speed 63.9 km/h Distance 14.32 km</desc>
<time>2010-09-11T14:27:43.25</time>
<name>423</name>
</trkpt>
<trkpt lat="50.087837" lon="9.337475">
<ele>318.0</ele>
<speed>63.9</speed>
<course>194.3</course>
<desc>Speed 63.9 km/h Distance 14.40 km</desc>
<time>2010-09-11T14:27:45.24</time>
<name>424</name>
</trkpt>
<trkpt lat="50.085983" lon="9.336740">
<ele>318.0</ele>
<speed>63.9</speed>
<course>221.6</course>
<desc>Speed 63.9 km/h Distance 14.62 km</desc>
<time>2010-09-11T14:27:50.24</time>
<name>425</name>
</trkpt>
<trkpt lat="50.085735" lon="9.336397">
<ele>318.0</ele>
<speed>63.9</speed>
<course>218.1</course>
<desc>Speed 63.9 km/h Distance 14.65 km</desc>
<time>2010-09-11T14:27:52.24</time>
<name>426</name>
</trkpt>
<trkpt lat="50.085338" lon="9.335912">
<ele>318.0</ele>
<speed>63.9</speed>
<course>221.5</course>
<desc>Speed 63.9 km/h Distance 14.71 km</desc>
<time>2010-09-11T14:27:55.24</time>
<name>427</name>
</trkpt>
<trkpt lat="50.084918" lon="9.335332">
<ele>318.0</ele>
<speed>63.9</speed>
<course>221.2</course>
<desc>Speed 63.9 km/h Distance 14.77 km</desc>
<time>2010-09-11T14:27:58.24</time>
<name>428</name>
</trkpt>
<trkpt lat="50.084647" lon="9.334962">
<ele>318.0</ele>
<speed>63.9</speed>
<course>230.6</course>
<desc>Speed 63.9 km/h Distance 14.81 km</desc>
<time>2010-09-11T14:28:02.23</time>
<name>429</name>
</trkpt>
<trkpt lat="50.083998" lon="9.333732">
<ele>318.0</ele>
<speed>63.9</speed>
<course>242.8</course>
<desc>Speed 63.9 km/h Distance 14.93 km</desc>
<time>2010-09-11T14:28:07.23</time>
<name>430</name>
</trkpt>
<trkpt lat="50.083577" lon="9.332452">
<ele>318.0</ele>
<speed>63.9</speed>
<course>214.7</course>
<desc>Speed 63.9 km/h Distance 15.03 km</desc>
<time>2010-09-11T14:28:13.23</time>
<name>431</name>
</trkpt>
<trkpt lat="50.083267" lon="9.332117">
<ele>318.5</ele>
<speed>63.9</speed>
<course>345.2</course>
<desc>Speed 63.9 km/h Distance 15.07 km</desc>
<time>2010-09-11T14:28:15.23</time>
<name>432</name>
</trkpt>
<trkpt lat="50.083555" lon="9.331998">
<ele>319.0</ele>
<speed>63.9</speed>
<course>37.5</course>
<desc>Speed 63.9 km/h Distance 15.10 km</desc>
<time>2010-09-11T14:28:34.21</time>
<name>433</name>
</trkpt>
<trkpt lat="50.083707" lon="9.332180">
<ele>320.5</ele>
<speed>63.9</speed>
<course>120.4</course>
<desc>Speed 63.9 km/h Distance 15.13 km</desc>
<time>2010-09-11T14:28:40.21</time>
<name>434</name>
</trkpt>
<trkpt lat="50.082335" lon="9.335818">
<ele>321.5</ele>
<speed>63.9</speed>
<course>151.4</course>
<desc>Speed 63.9 km/h Distance 15.43 km</desc>
<time>2010-09-11T14:28:54.21</time>
<name>435</name>
</trkpt>
<trkpt lat="50.081505" lon="9.336523">
<ele>321.5</ele>
<speed>63.9</speed>
<course>119.1</course>
<desc>Speed 63.9 km/h Distance 15.53 km</desc>
<time>2010-09-11T14:28:56.20</time>
<name>436</name>
</trkpt>
<trkpt lat="50.081137" lon="9.337557">
<ele>322.5</ele>
<speed>63.9</speed>
<course>149.4</course>
<desc>Speed 63.9 km/h Distance 15.62 km</desc>
<time>2010-09-11T14:29:00.20</time>
<name>437</name>
</trkpt>
<trkpt lat="50.080838" lon="9.337832">
<ele>323.0</ele>
<speed>63.9</speed>
<course>170.4</course>
<desc>Speed 63.9 km/h Distance 15.66 km</desc>
<time>2010-09-11T14:29:03.21</time>
<name>438</name>
</trkpt>
<trkpt lat="50.073720" lon="9.339717">
<ele>347.0</ele>
<speed>57.5</speed>
<course>105.6</course>
<desc>Speed 57.5 km/h Distance 16.46 km</desc>
<time>2010-09-11T14:29:44.18</time>
<name>439</name>
</trkpt>
<trkpt lat="50.073447" lon="9.341240">
<ele>357.0</ele>
<speed>53.2</speed>
<course>120.8</course>
<desc>Speed 53.2 km/h Distance 16.57 km</desc>
<time>2010-09-11T14:29:52.17</time>
<name>440</name>
</trkpt>
<trkpt lat="50.073195" lon="9.341898">
<ele>364.0</ele>
<speed>53.2</speed>
<course>157.7</course>
<desc>Speed 53.2 km/h Distance 16.63 km</desc>
<time>2010-09-11T14:29:58.16</time>
<name>441</name>
</trkpt>
<trkpt lat="50.072013" lon="9.342653">
<ele>383.5</ele>
<speed>51.8</speed>
<course>121.3</course>
<desc>Speed 51.8 km/h Distance 16.77 km</desc>
<time>2010-09-11T14:30:04.15</time>
<name>442</name>
</trkpt>
<trkpt lat="50.071913" lon="9.342910">
<ele>386.0</ele>
<speed>51.8</speed>
<course>134.0</course>
<desc>Speed 51.8 km/h Distance 16.79 km</desc>
<time>2010-09-11T14:30:06.12</time>
<name>443</name>
</trkpt>
<trkpt lat="50.071733" lon="9.343200">
<ele>389.0</ele>
<speed>51.8</speed>
<course>137.2</course>
<desc>Speed 51.8 km/h Distance 16.82 km</desc>
<time>2010-09-11T14:30:08.14</time>
<name>444</name>
</trkpt>
<trkpt lat="50.071572" lon="9.343433">
<ele>391.5</ele>
<speed>51.8</speed>
<course>138.2</course>
<desc>Speed 51.8 km/h Distance 16.84 km</desc>
<time>2010-09-11T14:30:10.15</time>
<name>445</name>
</trkpt>
<trkpt lat="50.071358" lon="9.343730">
<ele>394.5</ele>
<speed>37.8</speed>
<course>137.5</course>
<desc>Speed 37.8 km/h Distance 16.88 km</desc>
<time>2010-09-11T14:30:12.15</time>
<name>446</name>
</trkpt>
<trkpt lat="50.071300" lon="9.343813">
<ele>394.5</ele>
<speed>37.8</speed>
<course>154.8</course>
<desc>Speed 37.8 km/h Distance 16.88 km</desc>
<time>2010-09-11T14:30:13.15</time>
<name>447</name>
</trkpt>
<trkpt lat="50.071027" lon="9.344013">
<ele>395.0</ele>
<speed>53.5</speed>
<course>149.6</course>
<desc>Speed 53.5 km/h Distance 16.92 km</desc>
<time>2010-09-11T14:30:16.14</time>
<name>448</name>
</trkpt>
<trkpt lat="50.070852" lon="9.344173">
<ele>395.5</ele>
<speed>53.5</speed>
<course>168.3</course>
<desc>Speed 53.5 km/h Distance 16.94 km</desc>
<time>2010-09-11T14:30:18.14</time>
<name>449</name>
</trkpt>
<trkpt lat="50.070522" lon="9.344280">
<ele>396.0</ele>
<speed>53.5</speed>
<course>176.8</course>
<desc>Speed 53.5 km/h Distance 16.98 km</desc>
<time>2010-09-11T14:30:23.14</time>
<name>450</name>
</trkpt>
<trkpt lat="50.070275" lon="9.344302">
<ele>397.0</ele>
<speed>53.5</speed>
<course>186.9</course>
<desc>Speed 53.5 km/h Distance 17.01 km</desc>
<time>2010-09-11T14:30:27.14</time>
<name>451</name>
</trkpt>
<trkpt lat="50.070008" lon="9.344252">
<ele>397.0</ele>
<speed>53.5</speed>
<course>230.0</course>
<desc>Speed 53.5 km/h Distance 17.04 km</desc>
<time>2010-09-11T14:30:31.14</time>
<name>452</name>
</trkpt>
<trkpt lat="50.069915" lon="9.344078">
<ele>397.5</ele>
<speed>53.5</speed>
<course>195.4</course>
<desc>Speed 53.5 km/h Distance 17.05 km</desc>
<time>2010-09-11T14:30:32.14</time>
<name>453</name>
</trkpt>
<trkpt lat="50.069592" lon="9.343940">
<ele>398.0</ele>
<speed>61.6</speed>
<course>198.8</course>
<desc>Speed 61.6 km/h Distance 17.09 km</desc>
<time>2010-09-11T14:30:34.13</time>
<name>454</name>
</trkpt>
<trkpt lat="50.068738" lon="9.343488">
<ele>401.0</ele>
<speed>63.2</speed>
<course>167.9</course>
<desc>Speed 63.2 km/h Distance 17.19 km</desc>
<time>2010-09-11T14:30:38.13</time>
<name>455</name>
</trkpt>
<trkpt lat="50.068418" lon="9.343595">
<ele>402.0</ele>
<speed>63.2</speed>
<course>196.9</course>
<desc>Speed 63.2 km/h Distance 17.23 km</desc>
<time>2010-09-11T14:30:41.12</time>
<name>456</name>
</trkpt>
<trkpt lat="50.068035" lon="9.343413">
<ele>406.5</ele>
<speed>63.2</speed>
<course>176.1</course>
<desc>Speed 63.2 km/h Distance 17.27 km</desc>
<time>2010-09-11T14:30:44.12</time>
<name>457</name>
</trkpt>
<trkpt lat="50.067675" lon="9.343452">
<ele>407.0</ele>
<speed>63.2</speed>
<course>180.1</course>
<desc>Speed 63.2 km/h Distance 17.31 km</desc>
<time>2010-09-11T14:30:49.11</time>
<name>458</name>
</trkpt>
<trkpt lat="50.067178" lon="9.343450">
<ele>408.5</ele>
<speed>63.2</speed>
<course>194.7</course>
<desc>Speed 63.2 km/h Distance 17.37 km</desc>
<time>2010-09-11T14:30:53.10</time>
<name>459</name>
</trkpt>
<trkpt lat="50.066085" lon="9.343002">
<ele>415.5</ele>
<speed>63.2</speed>
<course>192.5</course>
<desc>Speed 63.2 km/h Distance 17.49 km</desc>
<time>2010-09-11T14:30:58.10</time>
<name>460</name>
</trkpt>
<trkpt lat="50.065892" lon="9.342935">
<ele>415.0</ele>
<speed>63.2</speed>
<course>184.0</course>
<desc>Speed 63.2 km/h Distance 17.51 km</desc>
<time>2010-09-11T14:31:04.10</time>
<name>461</name>
</trkpt>
<trkpt lat="50.062842" lon="9.342602">
<ele>411.5</ele>
<speed>63.2</speed>
<course>189.0</course>
<desc>Speed 63.2 km/h Distance 17.85 km</desc>
<time>2010-09-11T14:31:10.09</time>
<name>462</name>
</trkpt>
<trkpt lat="50.060557" lon="9.342037">
<ele>410.5</ele>
<speed>106</speed>
<course>162.1</course>
<desc>Speed 106 km/h Distance 18.11 km</desc>
<time>2010-09-11T14:31:16.08</time>
<name>463</name>
</trkpt>
<trkpt lat="50.060043" lon="9.342295">
<ele>411.0</ele>
<speed>109</speed>
<course>153.8</course>
<desc>Speed 109 km/h Distance 18.17 km</desc>
<time>2010-09-11T14:31:18.08</time>
<name>464</name>
</trkpt>
<trkpt lat="50.059787" lon="9.342492">
<ele>411.0</ele>
<speed>111</speed>
<course>149.5</course>
<desc>Speed 111 km/h Distance 18.20 km</desc>
<time>2010-09-11T14:31:19.10</time>
<name>465</name>
</trkpt>
<trkpt lat="50.059540" lon="9.342718">
<ele>411.0</ele>
<speed>114</speed>
<course>145.3</course>
<desc>Speed 114 km/h Distance 18.24 km</desc>
<time>2010-09-11T14:31:20.09</time>
<name>466</name>
</trkpt>
<trkpt lat="50.057727" lon="9.344677">
<ele>411.0</ele>
<speed>106</speed>
<course>134.7</course>
<desc>Speed 106 km/h Distance 18.48 km</desc>
<time>2010-09-11T14:31:32.07</time>
<name>467</name>
</trkpt>
<trkpt lat="50.057023" lon="9.345783">
<ele>410.5</ele>
<speed>53.7</speed>
<course>111.6</course>
<desc>Speed 53.7 km/h Distance 18.59 km</desc>
<time>2010-09-11T14:31:38.07</time>
<name>468</name>
</trkpt>
<trkpt lat="50.056978" lon="9.345960">
<ele>410.5</ele>
<speed>53.7</speed>
<course>136.4</course>
<desc>Speed 53.7 km/h Distance 18.61 km</desc>
<time>2010-09-11T14:31:39.08</time>
<name>469</name>
</trkpt>
<trkpt lat="50.056772" lon="9.346267">
<ele>411.5</ele>
<speed>53.7</speed>
<course>141.2</course>
<desc>Speed 53.7 km/h Distance 18.64 km</desc>
<time>2010-09-11T14:31:41.07</time>
<name>470</name>
</trkpt>
<trkpt lat="50.056667" lon="9.346398">
<ele>412.0</ele>
<speed>53.7</speed>
<course>139.6</course>
<desc>Speed 53.7 km/h Distance 18.65 km</desc>
<time>2010-09-11T14:31:42.06</time>
<name>471</name>
</trkpt>
<trkpt lat="50.056432" lon="9.346710">
<ele>413.0</ele>
<speed>53.7</speed>
<course>188.7</course>
<desc>Speed 53.7 km/h Distance 18.69 km</desc>
<time>2010-09-11T14:31:47.03</time>
<name>472</name>
</trkpt>
<trkpt lat="50.054260" lon="9.346192">
<ele>411.0</ele>
<speed>53.7</speed>
<course>179.1</course>
<desc>Speed 53.7 km/h Distance 18.93 km</desc>
<time>2010-09-11T14:31:53.05</time>
<name>473</name>
</trkpt>
<trkpt lat="50.052852" lon="9.346227">
<ele>411.0</ele>
<speed>107</speed>
<course>159.7</course>
<desc>Speed 107 km/h Distance 19.09 km</desc>
<time>2010-09-11T14:31:58.05</time>
<name>474</name>
</trkpt>
<trkpt lat="50.051708" lon="9.346885">
<ele>410.0</ele>
<speed>127</speed>
<course>154.0</course>
<desc>Speed 127 km/h Distance 19.22 km</desc>
<time>2010-09-11T14:32:02.04</time>
<name>475</name>
</trkpt>
<trkpt lat="50.050522" lon="9.347787">
<ele>409.5</ele>
<speed>128</speed>
<course>162.4</course>
<desc>Speed 128 km/h Distance 19.37 km</desc>
<time>2010-09-11T14:32:08.04</time>
<name>476</name>
</trkpt>
<trkpt lat="50.049943" lon="9.348072">
<ele>409.0</ele>
<speed>128</speed>
<course>155.4</course>
<desc>Speed 128 km/h Distance 19.44 km</desc>
<time>2010-09-11T14:32:10.03</time>
<name>477</name>
</trkpt>
<trkpt lat="50.049342" lon="9.348500">
<ele>409.0</ele>
<speed>128</speed>
<course>207.2</course>
<desc>Speed 128 km/h Distance 19.51 km</desc>
<time>2010-09-11T14:32:16.03</time>
<name>478</name>
</trkpt>
<trkpt lat="50.048812" lon="9.348075">
<ele>408.5</ele>
<speed>128</speed>
<course>188.7</course>
<desc>Speed 128 km/h Distance 19.58 km</desc>
<time>2010-09-11T14:32:19.03</time>
<name>479</name>
</trkpt>
<trkpt lat="50.047490" lon="9.347758">
<ele>408.5</ele>
<speed>128</speed>
<course>192.9</course>
<desc>Speed 128 km/h Distance 19.73 km</desc>
<time>2010-09-11T14:32:24.02</time>
<name>480</name>
</trkpt>
<trkpt lat="50.046922" lon="9.347555">
<ele>408.5</ele>
<speed>118</speed>
<course>201.9</course>
<desc>Speed 118 km/h Distance 19.79 km</desc>
<time>2010-09-11T14:32:26.01</time>
<name>481</name>
</trkpt>
<trkpt lat="50.046223" lon="9.347118">
<ele>408.5</ele>
<speed>118</speed>
<course>210.1</course>
<desc>Speed 118 km/h Distance 19.88 km</desc>
<time>2010-09-11T14:32:29.01</time>
<name>482</name>
</trkpt>
<trkpt lat="50.045223" lon="9.346217">
<ele>408.5</ele>
<speed>118</speed>
<course>272.5</course>
<desc>Speed 118 km/h Distance 20.01 km</desc>
<time>2010-09-11T14:32:36.00</time>
<name>483</name>
</trkpt>
<trkpt lat="50.045268" lon="9.344628">
<ele>408.5</ele>
<speed>118</speed>
<course>226.6</course>
<desc>Speed 118 km/h Distance 20.12 km</desc>
<time>2010-09-11T14:32:42.00</time>
<name>484</name>
</trkpt>
<trkpt lat="50.044073" lon="9.342658">
<ele>407.5</ele>
<speed>118</speed>
<course>228.1</course>
<desc>Speed 118 km/h Distance 20.31 km</desc>
<time>2010-09-11T14:32:46.00</time>
<name>485</name>
</trkpt>
<trkpt lat="50.043553" lon="9.341757">
<ele>408.0</ele>
<speed>118</speed>
<course>211.4</course>
<desc>Speed 118 km/h Distance 20.40 km</desc>
<time>2010-09-11T14:32:52.01</time>
<name>486</name>
</trkpt>
<trkpt lat="50.042045" lon="9.340325">
<ele>408.0</ele>
<speed>119</speed>
<course>216.9</course>
<desc>Speed 119 km/h Distance 20.60 km</desc>
<time>2010-09-11T14:32:57.01</time>
<name>487</name>
</trkpt>
<trkpt lat="50.041127" lon="9.339253">
<ele>408.0</ele>
<speed>119</speed>
<course>206.4</course>
<desc>Speed 119 km/h Distance 20.72 km</desc>
<time>2010-09-11T14:33:02.99</time>
<name>488</name>
</trkpt>
<trkpt lat="50.040182" lon="9.338523">
<ele>408.0</ele>
<speed>36.2</speed>
<course>189.9</course>
<desc>Speed 36.2 km/h Distance 20.84 km</desc>
<time>2010-09-11T14:33:07.99</time>
<name>489</name>
</trkpt>
<trkpt lat="50.039580" lon="9.338360">
<ele>408.0</ele>
<speed>58.3</speed>
<course>146.4</course>
<desc>Speed 58.3 km/h Distance 20.91 km</desc>
<time>2010-09-11T14:33:11.99</time>
<name>490</name>
</trkpt>
<trkpt lat="50.039283" lon="9.338667">
<ele>408.0</ele>
<speed>58.3</speed>
<course>124.9</course>
<desc>Speed 58.3 km/h Distance 20.95 km</desc>
<time>2010-09-11T14:33:15.98</time>
<name>491</name>
</trkpt>
<trkpt lat="50.038892" lon="9.339540">
<ele>408.0</ele>
<speed>58.3</speed>
<course>123.5</course>
<desc>Speed 58.3 km/h Distance 21.02 km</desc>
<time>2010-09-11T14:33:19.98</time>
<name>492</name>
</trkpt>
<trkpt lat="50.038742" lon="9.339893">
<ele>408.0</ele>
<speed>58.3</speed>
<course>127.9</course>
<desc>Speed 58.3 km/h Distance 21.05 km</desc>
<time>2010-09-11T14:33:21.98</time>
<name>493</name>
</trkpt>
<trkpt lat="50.038112" lon="9.341155">
<ele>408.5</ele>
<speed>58.3</speed>
<course>160.5</course>
<desc>Speed 58.3 km/h Distance 21.17 km</desc>
<time>2010-09-11T14:33:23.97</time>
<name>494</name>
</trkpt>
<trkpt lat="50.036588" lon="9.341995">
<ele>408.5</ele>
<speed>58.3</speed>
<course>73.2</course>
<desc>Speed 58.3 km/h Distance 21.35 km</desc>
<time>2010-09-11T14:33:29.97</time>
<name>495</name>
</trkpt>
<trkpt lat="50.036667" lon="9.342398">
<ele>407.5</ele>
<speed>58.3</speed>
<course>67.5</course>
<desc>Speed 58.3 km/h Distance 21.38 km</desc>
<time>2010-09-11T14:33:31.97</time>
<name>496</name>
</trkpt>
<trkpt lat="50.036875" lon="9.343180">
<ele>407.0</ele>
<speed>58.3</speed>
<course>124.2</course>
<desc>Speed 58.3 km/h Distance 21.44 km</desc>
<time>2010-09-11T14:33:34.97</time>
<name>497</name>
</trkpt>
<trkpt lat="50.036458" lon="9.344133">
<ele>406.5</ele>
<speed>58.3</speed>
<course>159.4</course>
<desc>Speed 58.3 km/h Distance 21.52 km</desc>
<time>2010-09-11T14:33:41.97</time>
<name>498</name>
</trkpt>
<trkpt lat="50.035323" lon="9.344798">
<ele>405.5</ele>
<speed>58.3</speed>
<course>154.4</course>
<desc>Speed 58.3 km/h Distance 21.66 km</desc>
<time>2010-09-11T14:33:45.96</time>
<name>499</name>
</trkpt>
<trkpt lat="50.033002" lon="9.346530">
<ele>406.5</ele>
<speed>58.3</speed>
<course>142.8</course>
<desc>Speed 58.3 km/h Distance 21.94 km</desc>
<time>2010-09-11T14:33:49.96</time>
<name>500</name>
</trkpt>
<trkpt lat="50.031675" lon="9.348100">
<ele>406.5</ele>
<speed>58.3</speed>
<course>143.3</course>
<desc>Speed 58.3 km/h Distance 22.13 km</desc>
<time>2010-09-11T14:33:53.95</time>
<name>501</name>
</trkpt>
<trkpt lat="50.031258" lon="9.348583">
<ele>406.0</ele>
<speed>58.3</speed>
<course>148.1</course>
<desc>Speed 58.3 km/h Distance 22.19 km</desc>
<time>2010-09-11T14:33:56.95</time>
<name>502</name>
</trkpt>
<trkpt lat="50.030137" lon="9.349668">
<ele>406.0</ele>
<speed>58.3</speed>
<course>137.5</course>
<desc>Speed 58.3 km/h Distance 22.33 km</desc>
<time>2010-09-11T14:34:00.95</time>
<name>503</name>
</trkpt>
<trkpt lat="50.028740" lon="9.351660">
<ele>404.0</ele>
<speed>49.0</speed>
<course>173.2</course>
<desc>Speed 49.0 km/h Distance 22.55 km</desc>
<time>2010-09-11T14:34:06.94</time>
<name>504</name>
</trkpt>
<trkpt lat="50.028452" lon="9.351713">
<ele>403.0</ele>
<speed>49.0</speed>
<course>241.8</course>
<desc>Speed 49.0 km/h Distance 22.58 km</desc>
<time>2010-09-11T14:34:10.93</time>
<name>505</name>
</trkpt>
<trkpt lat="50.028435" lon="9.351665">
<ele>402.0</ele>
<speed>49.0</speed>
<course>184.3</course>
<desc>Speed 49.0 km/h Distance 22.58 km</desc>
<time>2010-09-11T14:34:16.93</time>
<name>506</name>
</trkpt>
<trkpt lat="50.028205" lon="9.351638">
<ele>401.5</ele>
<speed>49.0</speed>
<course>94.2</course>
<desc>Speed 49.0 km/h Distance 22.61 km</desc>
<time>2010-09-11T14:34:19.93</time>
<name>507</name>
</trkpt>
<trkpt lat="50.028107" lon="9.353747">
<ele>401.0</ele>
<speed>49.0</speed>
<course>92.9</course>
<desc>Speed 49.0 km/h Distance 22.76 km</desc>
<time>2010-09-11T14:34:24.93</time>
<name>508</name>
</trkpt>
<trkpt lat="50.028070" lon="9.354887">
<ele>399.5</ele>
<speed>74.7</speed>
<course>87.7</course>
<desc>Speed 74.7 km/h Distance 22.84 km</desc>
<time>2010-09-11T14:34:28.92</time>
<name>509</name>
</trkpt>
<trkpt lat="50.028087" lon="9.355540">
<ele>399.5</ele>
<speed>71.5</speed>
<course>116.8</course>
<desc>Speed 71.5 km/h Distance 22.89 km</desc>
<time>2010-09-11T14:34:31.92</time>
<name>510</name>
</trkpt>
<trkpt lat="50.027922" lon="9.356048">
<ele>399.0</ele>
<speed>71.5</speed>
<course>111.2</course>
<desc>Speed 71.5 km/h Distance 22.93 km</desc>
<time>2010-09-11T14:34:33.92</time>
<name>511</name>
</trkpt>
<trkpt lat="50.027782" lon="9.356610">
<ele>398.0</ele>
<speed>67.3</speed>
<course>114.0</course>
<desc>Speed 67.3 km/h Distance 22.97 km</desc>
<time>2010-09-11T14:34:35.93</time>
<name>512</name>
</trkpt>
<trkpt lat="50.027707" lon="9.356872">
<ele>398.0</ele>
<speed>65.6</speed>
<course>115.2</course>
<desc>Speed 65.6 km/h Distance 22.99 km</desc>
<time>2010-09-11T14:34:36.92</time>
<name>513</name>
</trkpt>
<trkpt lat="50.027642" lon="9.357087">
<ele>397.5</ele>
<speed>65.6</speed>
<course>121.5</course>
<desc>Speed 65.6 km/h Distance 23.01 km</desc>
<time>2010-09-11T14:34:37.92</time>
<name>514</name>
</trkpt>
<trkpt lat="50.027562" lon="9.357290">
<ele>397.5</ele>
<speed>65.6</speed>
<course>116.4</course>
<desc>Speed 65.6 km/h Distance 23.02 km</desc>
<time>2010-09-11T14:34:38.92</time>
<name>515</name>
</trkpt>
<trkpt lat="50.027407" lon="9.357775">
<ele>397.5</ele>
<speed>65.6</speed>
<course>120.7</course>
<desc>Speed 65.6 km/h Distance 23.06 km</desc>
<time>2010-09-11T14:34:41.93</time>
<name>516</name>
</trkpt>
<trkpt lat="50.027327" lon="9.357985">
<ele>398.0</ele>
<speed>65.6</speed>
<course>100.2</course>
<desc>Speed 65.6 km/h Distance 23.08 km</desc>
<time>2010-09-11T14:34:42.92</time>
<name>517</name>
</trkpt>
<trkpt lat="50.027270" lon="9.358477">
<ele>397.5</ele>
<speed>57.9</speed>
<course>105.9</course>
<desc>Speed 57.9 km/h Distance 23.12 km</desc>
<time>2010-09-11T14:34:44.92</time>
<name>518</name>
</trkpt>
<trkpt lat="50.027207" lon="9.358822">
<ele>396.5</ele>
<speed>57.9</speed>
<course>87.6</course>
<desc>Speed 57.9 km/h Distance 23.14 km</desc>
<time>2010-09-11T14:34:46.92</time>
<name>519</name>
</trkpt>
<trkpt lat="50.027220" lon="9.359317">
<ele>395.5</ele>
<speed>60.8</speed>
<course>82.8</course>
<desc>Speed 60.8 km/h Distance 23.18 km</desc>
<time>2010-09-11T14:34:48.92</time>
<name>520</name>
</trkpt>
<trkpt lat="50.027257" lon="9.359772">
<ele>395.5</ele>
<speed>60.8</speed>
<course>99.9</course>
<desc>Speed 60.8 km/h Distance 23.21 km</desc>
<time>2010-09-11T14:34:51.92</time>
<name>521</name>
</trkpt>
<trkpt lat="50.027193" lon="9.360337">
<ele>394.5</ele>
<speed>63.4</speed>
<course>108.2</course>
<desc>Speed 63.4 km/h Distance 23.25 km</desc>
<time>2010-09-11T14:34:53.91</time>
<name>522</name>
</trkpt>
<trkpt lat="50.027145" lon="9.360565">
<ele>394.0</ele>
<speed>63.4</speed>
<course>111.8</course>
<desc>Speed 63.4 km/h Distance 23.27 km</desc>
<time>2010-09-11T14:34:54.91</time>
<name>523</name>
</trkpt>
<trkpt lat="50.027047" lon="9.360948">
<ele>393.5</ele>
<speed>63.4</speed>
<course>108.3</course>
<desc>Speed 63.4 km/h Distance 23.30 km</desc>
<time>2010-09-11T14:34:56.91</time>
<name>524</name>
</trkpt>
<trkpt lat="50.026927" lon="9.361512">
<ele>393.5</ele>
<speed>67.3</speed>
<course>101.1</course>
<desc>Speed 67.3 km/h Distance 23.34 km</desc>
<time>2010-09-11T14:34:58.91</time>
<name>525</name>
</trkpt>
<trkpt lat="50.026892" lon="9.361790">
<ele>393.5</ele>
<speed>67.3</speed>
<course>97.5</course>
<desc>Speed 67.3 km/h Distance 23.36 km</desc>
<time>2010-09-11T14:34:59.91</time>
<name>526</name>
</trkpt>
<trkpt lat="50.026868" lon="9.362065">
<ele>393.5</ele>
<speed>67.3</speed>
<course>111.6</course>
<desc>Speed 67.3 km/h Distance 23.38 km</desc>
<time>2010-09-11T14:35:00.91</time>
<name>527</name>
</trkpt>
<trkpt lat="50.026722" lon="9.362642">
<ele>392.5</ele>
<speed>67.3</speed>
<course>104.9</course>
<desc>Speed 67.3 km/h Distance 23.43 km</desc>
<time>2010-09-11T14:35:04.89</time>
<name>528</name>
</trkpt>
<trkpt lat="50.026580" lon="9.363472">
<ele>391.5</ele>
<speed>67.3</speed>
<course>96.6</course>
<desc>Speed 67.3 km/h Distance 23.49 km</desc>
<time>2010-09-11T14:35:08.91</time>
<name>529</name>
</trkpt>
<trkpt lat="50.026518" lon="9.364300">
<ele>391.5</ele>
<speed>65.2</speed>
<course>92.3</course>
<desc>Speed 65.2 km/h Distance 23.55 km</desc>
<time>2010-09-11T14:35:13.90</time>
<name>530</name>
</trkpt>
<trkpt lat="50.026503" lon="9.364878">
<ele>391.5</ele>
<speed>64.8</speed>
<course>93.4</course>
<desc>Speed 64.8 km/h Distance 23.59 km</desc>
<time>2010-09-11T14:35:15.90</time>
<name>531</name>
</trkpt>
<trkpt lat="50.026493" lon="9.365137">
<ele>391.5</ele>
<speed>64.8</speed>
<course>82.6</course>
<desc>Speed 64.8 km/h Distance 23.61 km</desc>
<time>2010-09-11T14:35:16.90</time>
<name>532</name>
</trkpt>
<trkpt lat="50.026537" lon="9.365658">
<ele>391.5</ele>
<speed>64.8</speed>
<course>85.0</course>
<desc>Speed 64.8 km/h Distance 23.64 km</desc>
<time>2010-09-11T14:35:18.89</time>
<name>533</name>
</trkpt>
<trkpt lat="50.026582" lon="9.366462">
<ele>391.5</ele>
<speed>77.7</speed>
<course>82.6</course>
<desc>Speed 77.7 km/h Distance 23.70 km</desc>
<time>2010-09-11T14:35:23.89</time>
<name>534</name>
</trkpt>
<trkpt lat="50.026607" lon="9.366762">
<ele>391.5</ele>
<speed>77.7</speed>
<course>82.3</course>
<desc>Speed 77.7 km/h Distance 23.72 km</desc>
<time>2010-09-11T14:35:24.89</time>
<name>535</name>
</trkpt>
<trkpt lat="50.026733" lon="9.368218">
<ele>391.5</ele>
<speed>71.0</speed>
<course>75.3</course>
<desc>Speed 71.0 km/h Distance 23.83 km</desc>
<time>2010-09-11T14:35:28.89</time>
<name>536</name>
</trkpt>
<trkpt lat="50.026873" lon="9.369047">
<ele>391.5</ele>
<speed>71.0</speed>
<course>79.7</course>
<desc>Speed 71.0 km/h Distance 23.89 km</desc>
<time>2010-09-11T14:35:31.89</time>
<name>537</name>
</trkpt>
<trkpt lat="50.027090" lon="9.370912">
<ele>391.0</ele>
<speed>74.0</speed>
<course>102.0</course>
<desc>Speed 74.0 km/h Distance 24.03 km</desc>
<time>2010-09-11T14:35:36.89</time>
<name>538</name>
</trkpt>
<trkpt lat="50.026767" lon="9.373280">
<ele>392.0</ele>
<speed>73.6</speed>
<course>108.0</course>
<desc>Speed 73.6 km/h Distance 24.20 km</desc>
<time>2010-09-11T14:35:42.89</time>
<name>539</name>
</trkpt>
<trkpt lat="50.026713" lon="9.373535">
<ele>392.0</ele>
<speed>73.6</speed>
<course>112.3</course>
<desc>Speed 73.6 km/h Distance 24.22 km</desc>
<time>2010-09-11T14:35:43.88</time>
<name>540</name>
</trkpt>
<trkpt lat="50.026555" lon="9.374137">
<ele>392.0</ele>
<speed>69.7</speed>
<course>114.8</course>
<desc>Speed 69.7 km/h Distance 24.26 km</desc>
<time>2010-09-11T14:35:45.88</time>
<name>541</name>
</trkpt>
<trkpt lat="50.026437" lon="9.374535">
<ele>391.5</ele>
<speed>69.7</speed>
<course>112.5</course>
<desc>Speed 69.7 km/h Distance 24.30 km</desc>
<time>2010-09-11T14:35:47.88</time>
<name>542</name>
</trkpt>
<trkpt lat="50.026310" lon="9.375010">
<ele>392.0</ele>
<speed>69.7</speed>
<course>115.8</course>
<desc>Speed 69.7 km/h Distance 24.33 km</desc>
<time>2010-09-11T14:35:52.88</time>
<name>543</name>
</trkpt>
<trkpt lat="50.025682" lon="9.377030">
<ele>392.0</ele>
<speed>69.7</speed>
<course>93.4</course>
<desc>Speed 69.7 km/h Distance 24.49 km</desc>
<time>2010-09-11T14:36:00.86</time>
<name>544</name>
</trkpt>
<trkpt lat="50.025642" lon="9.378073">
<ele>391.5</ele>
<speed>69.7</speed>
<course>115.3</course>
<desc>Speed 69.7 km/h Distance 24.57 km</desc>
<time>2010-09-11T14:36:03.86</time>
<name>545</name>
</trkpt>
<trkpt lat="50.025300" lon="9.379197">
<ele>391.5</ele>
<speed>69.7</speed>
<course>86.7</course>
<desc>Speed 69.7 km/h Distance 24.66 km</desc>
<time>2010-09-11T14:36:05.86</time>
<name>546</name>
</trkpt>
<trkpt lat="50.025317" lon="9.379647">
<ele>391.5</ele>
<speed>69.7</speed>
<course>104.7</course>
<desc>Speed 69.7 km/h Distance 24.69 km</desc>
<time>2010-09-11T14:36:07.85</time>
<name>547</name>
</trkpt>
<trkpt lat="50.025242" lon="9.380092">
<ele>391.5</ele>
<speed>69.7</speed>
<course>124.5</course>
<desc>Speed 69.7 km/h Distance 24.72 km</desc>
<time>2010-09-11T14:36:09.85</time>
<name>548</name>
</trkpt>
<trkpt lat="50.024223" lon="9.382402">
<ele>391.0</ele>
<speed>69.7</speed>
<course>133.3</course>
<desc>Speed 69.7 km/h Distance 24.92 km</desc>
<time>2010-09-11T14:36:12.85</time>
<name>549</name>
</trkpt>
<trkpt lat="50.023318" lon="9.383897">
<ele>391.5</ele>
<speed>69.7</speed>
<course>103.4</course>
<desc>Speed 69.7 km/h Distance 25.07 km</desc>
<time>2010-09-11T14:36:17.86</time>
<name>550</name>
</trkpt>
<trkpt lat="50.023205" lon="9.384635">
<ele>390.5</ele>
<speed>69.7</speed>
<course>62.2</course>
<desc>Speed 69.7 km/h Distance 25.12 km</desc>
<time>2010-09-11T14:36:21.85</time>
<name>551</name>
</trkpt>
<trkpt lat="50.023392" lon="9.385187">
<ele>390.0</ele>
<speed>69.7</speed>
<course>109.3</course>
<desc>Speed 69.7 km/h Distance 25.17 km</desc>
<time>2010-09-11T14:36:23.85</time>
<name>552</name>
</trkpt>
<trkpt lat="50.022975" lon="9.387043">
<ele>390.0</ele>
<speed>69.7</speed>
<course>121.6</course>
<desc>Speed 69.7 km/h Distance 25.31 km</desc>
<time>2010-09-11T14:36:26.85</time>
<name>553</name>
</trkpt>
<trkpt lat="50.022240" lon="9.388905">
<ele>390.0</ele>
<speed>69.7</speed>
<course>115.0</course>
<desc>Speed 69.7 km/h Distance 25.46 km</desc>
<time>2010-09-11T14:36:30.85</time>
<name>554</name>
</trkpt>
<trkpt lat="50.021755" lon="9.390527">
<ele>390.0</ele>
<speed>69.7</speed>
<course>179.0</course>
<desc>Speed 69.7 km/h Distance 25.59 km</desc>
<time>2010-09-11T14:36:32.86</time>
<name>555</name>
</trkpt>
<trkpt lat="50.020787" lon="9.390553">
<ele>390.0</ele>
<speed>69.7</speed>
<course>153.1</course>
<desc>Speed 69.7 km/h Distance 25.70 km</desc>
<time>2010-09-11T14:36:35.85</time>
<name>556</name>
</trkpt>
<trkpt lat="50.020628" lon="9.390678">
<ele>390.0</ele>
<speed>69.7</speed>
<course>159.5</course>
<desc>Speed 69.7 km/h Distance 25.72 km</desc>
<time>2010-09-11T14:36:36.84</time>
<name>557</name>
</trkpt>
<trkpt lat="50.020068" lon="9.391005">
<ele>390.0</ele>
<speed>69.7</speed>
<course>113.5</course>
<desc>Speed 69.7 km/h Distance 25.79 km</desc>
<time>2010-09-11T14:36:39.84</time>
<name>558</name>
</trkpt>
<trkpt lat="50.019988" lon="9.391292">
<ele>390.0</ele>
<speed>69.7</speed>
<course>132.6</course>
<desc>Speed 69.7 km/h Distance 25.81 km</desc>
<time>2010-09-11T14:36:42.84</time>
<name>559</name>
</trkpt>
<trkpt lat="50.018285" lon="9.394175">
<ele>390.5</ele>
<speed>69.7</speed>
<course>119.2</course>
<desc>Speed 69.7 km/h Distance 26.09 km</desc>
<time>2010-09-11T14:36:49.82</time>
<name>560</name>
</trkpt>
<trkpt lat="50.017882" lon="9.395297">
<ele>390.0</ele>
<speed>69.7</speed>
<course>159.7</course>
<desc>Speed 69.7 km/h Distance 26.18 km</desc>
<time>2010-09-11T14:36:53.82</time>
<name>561</name>
</trkpt>
<trkpt lat="50.017442" lon="9.395550">
<ele>390.0</ele>
<speed>69.7</speed>
<course>178.2</course>
<desc>Speed 69.7 km/h Distance 26.23 km</desc>
<time>2010-09-11T14:36:56.82</time>
<name>562</name>
</trkpt>
<trkpt lat="50.016608" lon="9.395592">
<ele>390.0</ele>
<speed>69.7</speed>
<course>145.4</course>
<desc>Speed 69.7 km/h Distance 26.33 km</desc>
<time>2010-09-11T14:37:01.82</time>
<name>563</name>
</trkpt>
<trkpt lat="50.014352" lon="9.398017">
<ele>390.0</ele>
<speed>92.6</speed>
<course>116.3</course>
<desc>Speed 92.6 km/h Distance 26.63 km</desc>
<time>2010-09-11T14:37:07.82</time>
<name>564</name>
</trkpt>
<trkpt lat="50.014010" lon="9.399093">
<ele>390.0</ele>
<speed>92.6</speed>
<course>152.6</course>
<desc>Speed 92.6 km/h Distance 26.72 km</desc>
<time>2010-09-11T14:37:10.82</time>
<name>565</name>
</trkpt>
<trkpt lat="50.012430" lon="9.400367">
<ele>390.0</ele>
<speed>92.6</speed>
<course>114.4</course>
<desc>Speed 92.6 km/h Distance 26.92 km</desc>
<time>2010-09-11T14:37:17.82</time>
<name>566</name>
</trkpt>
<trkpt lat="50.012200" lon="9.401155">
<ele>390.0</ele>
<speed>92.6</speed>
<course>102.2</course>
<desc>Speed 92.6 km/h Distance 26.98 km</desc>
<time>2010-09-11T14:37:23.82</time>
<name>567</name>
</trkpt>
<trkpt lat="50.011288" lon="9.407742">
<ele>387.0</ele>
<speed>92.6</speed>
<course>112.3</course>
<desc>Speed 92.6 km/h Distance 27.46 km</desc>
<time>2010-09-11T14:37:40.81</time>
<name>568</name>
</trkpt>
<trkpt lat="50.010495" lon="9.410748">
<ele>386.5</ele>
<speed>92.6</speed>
<course>120.8</course>
<desc>Speed 92.6 km/h Distance 27.69 km</desc>
<time>2010-09-11T14:37:46.81</time>
<name>569</name>
</trkpt>
<trkpt lat="50.010137" lon="9.411685">
<ele>387.5</ele>
<speed>75.9</speed>
<course>110.9</course>
<desc>Speed 75.9 km/h Distance 27.77 km</desc>
<time>2010-09-11T14:37:49.80</time>
<name>570</name>
</trkpt>
<trkpt lat="50.010012" lon="9.412195">
<ele>388.0</ele>
<speed>75.9</speed>
<course>115.4</course>
<desc>Speed 75.9 km/h Distance 27.81 km</desc>
<time>2010-09-11T14:37:51.81</time>
<name>571</name>
</trkpt>
<trkpt lat="50.009797" lon="9.412898">
<ele>387.5</ele>
<speed>50.6</speed>
<course>121.3</course>
<desc>Speed 50.6 km/h Distance 27.86 km</desc>
<time>2010-09-11T14:37:56.80</time>
<name>572</name>
</trkpt>
<trkpt lat="50.009633" lon="9.413317">
<ele>387.5</ele>
<speed>50.6</speed>
<course>120.7</course>
<desc>Speed 50.6 km/h Distance 27.90 km</desc>
<time>2010-09-11T14:37:58.80</time>
<name>573</name>
</trkpt>
<trkpt lat="50.009502" lon="9.413662">
<ele>387.0</ele>
<speed>50.6</speed>
<course>92.8</course>
<desc>Speed 50.6 km/h Distance 27.93 km</desc>
<time>2010-09-11T14:38:00.80</time>
<name>574</name>
</trkpt>
<trkpt lat="50.009490" lon="9.414030">
<ele>386.5</ele>
<speed>50.6</speed>
<course>127.0</course>
<desc>Speed 50.6 km/h Distance 27.95 km</desc>
<time>2010-09-11T14:38:02.79</time>
<name>575</name>
</trkpt>
<trkpt lat="50.009285" lon="9.414453">
<ele>386.5</ele>
<speed>50.6</speed>
<course>129.0</course>
<desc>Speed 50.6 km/h Distance 27.99 km</desc>
<time>2010-09-11T14:38:07.78</time>
<name>576</name>
</trkpt>
<trkpt lat="50.009097" lon="9.414815">
<ele>386.5</ele>
<speed>50.6</speed>
<course>113.9</course>
<desc>Speed 50.6 km/h Distance 28.03 km</desc>
<time>2010-09-11T14:38:10.78</time>
<name>577</name>
</trkpt>
<trkpt lat="50.008990" lon="9.415190">
<ele>386.5</ele>
<speed>37.8</speed>
<course>115.1</course>
<desc>Speed 37.8 km/h Distance 28.06 km</desc>
<time>2010-09-11T14:38:13.78</time>
<name>578</name>
</trkpt>
<trkpt lat="50.008912" lon="9.415450">
<ele>386.5</ele>
<speed>37.8</speed>
<course>188.8</course>
<desc>Speed 37.8 km/h Distance 28.08 km</desc>
<time>2010-09-11T14:38:15.78</time>
<name>579</name>
</trkpt>
<trkpt lat="50.007897" lon="9.415205">
<ele>387.0</ele>
<speed>37.8</speed>
<course>132.5</course>
<desc>Speed 37.8 km/h Distance 28.19 km</desc>
<time>2010-09-11T14:38:21.78</time>
<name>580</name>
</trkpt>
<trkpt lat="50.007047" lon="9.416647">
<ele>386.5</ele>
<speed>37.8</speed>
<course>165.6</course>
<desc>Speed 37.8 km/h Distance 28.33 km</desc>
<time>2010-09-11T14:38:27.77</time>
<name>581</name>
</trkpt>
<trkpt lat="50.006102" lon="9.417023">
<ele>386.5</ele>
<speed>37.8</speed>
<course>131.4</course>
<desc>Speed 37.8 km/h Distance 28.44 km</desc>
<time>2010-09-11T14:38:33.77</time>
<name>582</name>
</trkpt>
<trkpt lat="50.006023" lon="9.417162">
<ele>386.5</ele>
<speed>37.8</speed>
<course>175.6</course>
<desc>Speed 37.8 km/h Distance 28.45 km</desc>
<time>2010-09-11T14:38:35.77</time>
<name>583</name>
</trkpt>
<trkpt lat="50.005450" lon="9.417230">
<ele>386.5</ele>
<speed>37.8</speed>
<course>121.8</course>
<desc>Speed 37.8 km/h Distance 28.52 km</desc>
<time>2010-09-11T14:38:39.77</time>
<name>584</name>
</trkpt>
<trkpt lat="50.005138" lon="9.418013">
<ele>387.0</ele>
<speed>37.8</speed>
<course>119.1</course>
<desc>Speed 37.8 km/h Distance 28.58 km</desc>
<time>2010-09-11T14:38:43.76</time>
<name>585</name>
</trkpt>
<trkpt lat="50.005055" lon="9.418247">
<ele>387.0</ele>
<speed>37.8</speed>
<course>116.4</course>
<desc>Speed 37.8 km/h Distance 28.60 km</desc>
<time>2010-09-11T14:38:45.76</time>
<name>586</name>
</trkpt>
<trkpt lat="50.004940" lon="9.418607">
<ele>387.0</ele>
<speed>37.8</speed>
<course>100.2</course>
<desc>Speed 37.8 km/h Distance 28.63 km</desc>
<time>2010-09-11T14:38:47.76</time>
<name>587</name>
</trkpt>
<trkpt lat="50.004913" lon="9.418837">
<ele>387.0</ele>
<speed>37.8</speed>
<course>101.8</course>
<desc>Speed 37.8 km/h Distance 28.65 km</desc>
<time>2010-09-11T14:38:49.76</time>
<name>588</name>
</trkpt>
<trkpt lat="50.004880" lon="9.419085">
<ele>387.0</ele>
<speed>37.8</speed>
<course>119.5</course>
<desc>Speed 37.8 km/h Distance 28.66 km</desc>
<time>2010-09-11T14:38:51.76</time>
<name>589</name>
</trkpt>
<trkpt lat="50.004318" lon="9.420627">
<ele>389.0</ele>
<speed>48.8</speed>
<course>114.7</course>
<desc>Speed 48.8 km/h Distance 28.79 km</desc>
<time>2010-09-11T14:38:57.76</time>
<name>590</name>
</trkpt>
<trkpt lat="50.004245" lon="9.420875">
<ele>389.5</ele>
<speed>48.8</speed>
<course>129.7</course>
<desc>Speed 48.8 km/h Distance 28.81 km</desc>
<time>2010-09-11T14:38:59.75</time>
<name>591</name>
</trkpt>
<trkpt lat="50.004085" lon="9.421175">
<ele>389.5</ele>
<speed>45.5</speed>
<course>119.0</course>
<desc>Speed 45.5 km/h Distance 28.84 km</desc>
<time>2010-09-11T14:39:01.75</time>
<name>592</name>
</trkpt>
<trkpt lat="50.003988" lon="9.421447">
<ele>389.5</ele>
<speed>45.5</speed>
<course>113.5</course>
<desc>Speed 45.5 km/h Distance 28.86 km</desc>
<time>2010-09-11T14:39:03.75</time>
<name>593</name>
</trkpt>
<trkpt lat="50.003892" lon="9.421793">
<ele>390.0</ele>
<speed>38.4</speed>
<course>118.7</course>
<desc>Speed 38.4 km/h Distance 28.89 km</desc>
<time>2010-09-11T14:39:05.76</time>
<name>594</name>
</trkpt>
<trkpt lat="50.003595" lon="9.422637">
<ele>391.0</ele>
<speed>38.4</speed>
<course>129.5</course>
<desc>Speed 38.4 km/h Distance 28.96 km</desc>
<time>2010-09-11T14:39:09.75</time>
<name>595</name>
</trkpt>
<trkpt lat="50.003465" lon="9.422882">
<ele>390.5</ele>
<speed>38.4</speed>
<course>102.5</course>
<desc>Speed 38.4 km/h Distance 28.98 km</desc>
<time>2010-09-11T14:39:11.75</time>
<name>596</name>
</trkpt>
<trkpt lat="50.003410" lon="9.423268">
<ele>390.0</ele>
<speed>38.4</speed>
<course>103.8</course>
<desc>Speed 38.4 km/h Distance 29.01 km</desc>
<time>2010-09-11T14:39:13.75</time>
<name>597</name>
</trkpt>
<trkpt lat="50.003372" lon="9.423512">
<ele>389.5</ele>
<speed>38.4</speed>
<course>97.7</course>
<desc>Speed 38.4 km/h Distance 29.03 km</desc>
<time>2010-09-11T14:39:15.74</time>
<name>598</name>
</trkpt>
<trkpt lat="50.003342" lon="9.423857">
<ele>389.0</ele>
<speed>38.4</speed>
<course>127.9</course>
<desc>Speed 38.4 km/h Distance 29.05 km</desc>
<time>2010-09-11T14:39:17.74</time>
<name>599</name>
</trkpt>
<trkpt lat="50.003247" lon="9.424047">
<ele>389.0</ele>
<speed>38.4</speed>
<course>98.3</course>
<desc>Speed 38.4 km/h Distance 29.07 km</desc>
<time>2010-09-11T14:39:19.74</time>
<name>600</name>
</trkpt>
<trkpt lat="50.003225" lon="9.424278">
<ele>388.5</ele>
<speed>38.4</speed>
<course>122.8</course>
<desc>Speed 38.4 km/h Distance 29.08 km</desc>
<time>2010-09-11T14:39:21.74</time>
<name>601</name>
</trkpt>
<trkpt lat="50.003157" lon="9.424443">
<ele>388.5</ele>
<speed>38.4</speed>
<course>80.6</course>
<desc>Speed 38.4 km/h Distance 29.10 km</desc>
<time>2010-09-11T14:39:24.74</time>
<name>602</name>
</trkpt>
<trkpt lat="50.003225" lon="9.425085">
<ele>389.5</ele>
<speed>51.6</speed>
<course>64.6</course>
<desc>Speed 51.6 km/h Distance 29.15 km</desc>
<time>2010-09-11T14:39:27.74</time>
<name>603</name>
</trkpt>
<trkpt lat="50.003352" lon="9.425500">
<ele>389.5</ele>
<speed>61.9</speed>
<course>84.9</course>
<desc>Speed 61.9 km/h Distance 29.18 km</desc>
<time>2010-09-11T14:39:29.74</time>
<name>604</name>
</trkpt>
<trkpt lat="50.003380" lon="9.425997">
<ele>389.5</ele>
<speed>57.9</speed>
<course>100.3</course>
<desc>Speed 57.9 km/h Distance 29.21 km</desc>
<time>2010-09-11T14:39:31.74</time>
<name>605</name>
</trkpt>
<trkpt lat="50.003188" lon="9.427632">
<ele>388.5</ele>
<speed>71.8</speed>
<course>107.8</course>
<desc>Speed 71.8 km/h Distance 29.33 km</desc>
<time>2010-09-11T14:39:36.74</time>
<name>606</name>
</trkpt>
<trkpt lat="50.003060" lon="9.428253">
<ele>388.0</ele>
<speed>71.8</speed>
<course>101.1</course>
<desc>Speed 71.8 km/h Distance 29.38 km</desc>
<time>2010-09-11T14:39:39.74</time>
<name>607</name>
</trkpt>
<trkpt lat="50.002965" lon="9.429003">
<ele>388.5</ele>
<speed>71.8</speed>
<course>147.7</course>
<desc>Speed 71.8 km/h Distance 29.43 km</desc>
<time>2010-09-11T14:39:43.73</time>
<name>608</name>
</trkpt>
<trkpt lat="50.002460" lon="9.429500">
<ele>384.5</ele>
<speed>51.4</speed>
<course>117.9</course>
<desc>Speed 51.4 km/h Distance 29.50 km</desc>
<time>2010-09-11T14:39:48.73</time>
<name>609</name>
</trkpt>
<trkpt lat="50.002330" lon="9.429882">
<ele>379.5</ele>
<speed>51.4</speed>
<course>113.4</course>
<desc>Speed 51.4 km/h Distance 29.53 km</desc>
<time>2010-09-11T14:39:50.73</time>
<name>610</name>
</trkpt>
<trkpt lat="50.002227" lon="9.430253">
<ele>379.0</ele>
<speed>51.4</speed>
<course>115.6</course>
<desc>Speed 51.4 km/h Distance 29.56 km</desc>
<time>2010-09-11T14:39:52.73</time>
<name>611</name>
</trkpt>
<trkpt lat="50.002123" lon="9.430588">
<ele>377.5</ele>
<speed>51.4</speed>
<course>133.6</course>
<desc>Speed 51.4 km/h Distance 29.59 km</desc>
<time>2010-09-11T14:39:54.72</time>
<name>612</name>
</trkpt>
<trkpt lat="50.001837" lon="9.431057">
<ele>374.5</ele>
<speed>58.8</speed>
<course>141.7</course>
<desc>Speed 58.8 km/h Distance 29.63 km</desc>
<time>2010-09-11T14:39:58.72</time>
<name>613</name>
</trkpt>
<trkpt lat="50.000882" lon="9.432230">
<ele>371.5</ele>
<speed>73.6</speed>
<course>113.1</course>
<desc>Speed 73.6 km/h Distance 29.77 km</desc>
<time>2010-09-11T14:40:03.72</time>
<name>614</name>
</trkpt>
<trkpt lat="50.000510" lon="9.433588">
<ele>354.5</ele>
<speed>79.2</speed>
<course>100.1</course>
<desc>Speed 79.2 km/h Distance 29.87 km</desc>
<time>2010-09-11T14:40:07.72</time>
<name>615</name>
</trkpt>
<trkpt lat="50.000408" lon="9.434475">
<ele>337.0</ele>
<speed>79.2</speed>
<course>102.3</course>
<desc>Speed 79.2 km/h Distance 29.94 km</desc>
<time>2010-09-11T14:40:12.71</time>
<name>616</name>
</trkpt>
<trkpt lat="50.000187" lon="9.436050">
<ele>322.0</ele>
<speed>112</speed>
<course>105.2</course>
<desc>Speed 112 km/h Distance 30.05 km</desc>
<time>2010-09-11T14:40:17.71</time>
<name>617</name>
</trkpt>
<trkpt lat="50.000048" lon="9.436843">
<ele>312.5</ele>
<speed>112</speed>
<course>108.1</course>
<desc>Speed 112 km/h Distance 30.11 km</desc>
<time>2010-09-11T14:40:19.71</time>
<name>618</name>
</trkpt>
<trkpt lat="49.999875" lon="9.437668">
<ele>309.0</ele>
<speed>112</speed>
<course>104.5</course>
<desc>Speed 112 km/h Distance 30.18 km</desc>
<time>2010-09-11T14:40:21.71</time>
<name>619</name>
</trkpt>
<trkpt lat="49.999650" lon="9.439023">
<ele>303.5</ele>
<speed>96.6</speed>
<course>104.7</course>
<desc>Speed 96.6 km/h Distance 30.28 km</desc>
<time>2010-09-11T14:40:24.71</time>
<name>620</name>
</trkpt>
<trkpt lat="49.999517" lon="9.439817">
<ele>301.5</ele>
<speed>96.6</speed>
<course>107.5</course>
<desc>Speed 96.6 km/h Distance 30.33 km</desc>
<time>2010-09-11T14:40:26.71</time>
<name>621</name>
</trkpt>
<trkpt lat="49.999363" lon="9.440575">
<ele>300.5</ele>
<speed>96.6</speed>
<course>106.0</course>
<desc>Speed 96.6 km/h Distance 30.39 km</desc>
<time>2010-09-11T14:40:28.70</time>
<name>622</name>
</trkpt>
<trkpt lat="49.999188" lon="9.441525">
<ele>299.5</ele>
<speed>76.4</speed>
<course>103.8</course>
<desc>Speed 76.4 km/h Distance 30.46 km</desc>
<time>2010-09-11T14:40:31.70</time>
<name>623</name>
</trkpt>
<trkpt lat="49.998950" lon="9.443037">
<ele>301.5</ele>
<speed>76.4</speed>
<course>97.0</course>
<desc>Speed 76.4 km/h Distance 30.57 km</desc>
<time>2010-09-11T14:40:35.70</time>
<name>624</name>
</trkpt>
<trkpt lat="49.998887" lon="9.443835">
<ele>302.5</ele>
<speed>76.4</speed>
<course>110.1</course>
<desc>Speed 76.4 km/h Distance 30.63 km</desc>
<time>2010-09-11T14:40:40.69</time>
<name>625</name>
</trkpt>
<trkpt lat="49.998752" lon="9.444410">
<ele>302.5</ele>
<speed>76.4</speed>
<course>112.4</course>
<desc>Speed 76.4 km/h Distance 30.67 km</desc>
<time>2010-09-11T14:40:45.69</time>
<name>626</name>
</trkpt>
<trkpt lat="49.997680" lon="9.448455">
<ele>303.0</ele>
<speed>76.1</speed>
<course>143.5</course>
<desc>Speed 76.1 km/h Distance 30.99 km</desc>
<time>2010-09-11T14:40:53.68</time>
<name>627</name>
</trkpt>
<trkpt lat="49.996912" lon="9.449340">
<ele>303.5</ele>
<speed>76.1</speed>
<course>119.9</course>
<desc>Speed 76.1 km/h Distance 31.09 km</desc>
<time>2010-09-11T14:40:57.66</time>
<name>628</name>
</trkpt>
<trkpt lat="49.996428" lon="9.450648">
<ele>303.5</ele>
<speed>76.1</speed>
<course>118.4</course>
<desc>Speed 76.1 km/h Distance 31.20 km</desc>
<time>2010-09-11T14:41:05.65</time>
<name>629</name>
</trkpt>
<trkpt lat="49.995527" lon="9.453247">
<ele>304.0</ele>
<speed>76.1</speed>
<course>144.3</course>
<desc>Speed 76.1 km/h Distance 31.41 km</desc>
<time>2010-09-11T14:41:12.65</time>
<name>630</name>
</trkpt>
<trkpt lat="49.994857" lon="9.453997">
<ele>304.0</ele>
<speed>76.1</speed>
<course>117.8</course>
<desc>Speed 76.1 km/h Distance 31.50 km</desc>
<time>2010-09-11T14:41:16.65</time>
<name>631</name>
</trkpt>
<trkpt lat="49.994438" lon="9.455233">
<ele>304.5</ele>
<speed>76.1</speed>
<course>150.2</course>
<desc>Speed 76.1 km/h Distance 31.60 km</desc>
<time>2010-09-11T14:41:25.64</time>
<name>632</name>
</trkpt>
<trkpt lat="49.990062" lon="9.459128">
<ele>306.0</ele>
<speed>76.1</speed>
<course>171.1</course>
<desc>Speed 76.1 km/h Distance 32.17 km</desc>
<time>2010-09-11T14:41:36.66</time>
<name>633</name>
</trkpt>
<trkpt lat="49.988490" lon="9.459510">
<ele>308.0</ele>
<speed>76.1</speed>
<course>132.3</course>
<desc>Speed 76.1 km/h Distance 32.34 km</desc>
<time>2010-09-11T14:41:42.64</time>
<name>634</name>
</trkpt>
<trkpt lat="49.988143" lon="9.460103">
<ele>308.5</ele>
<speed>76.1</speed>
<course>187.0</course>
<desc>Speed 76.1 km/h Distance 32.40 km</desc>
<time>2010-09-11T14:41:50.65</time>
<name>635</name>
</trkpt>
<trkpt lat="49.987713" lon="9.460022">
<ele>308.5</ele>
<speed>76.1</speed>
<course>151.6</course>
<desc>Speed 76.1 km/h Distance 32.45 km</desc>
<time>2010-09-11T14:41:54.65</time>
<name>636</name>
</trkpt>
<trkpt lat="49.984385" lon="9.462823">
<ele>310.5</ele>
<speed>76.1</speed>
<course>193.8</course>
<desc>Speed 76.1 km/h Distance 32.87 km</desc>
<time>2010-09-11T14:42:18.61</time>
<name>637</name>
</trkpt>
<trkpt lat="49.982647" lon="9.462160">
<ele>311.0</ele>
<speed>76.1</speed>
<course>179.9</course>
<desc>Speed 76.1 km/h Distance 33.07 km</desc>
<time>2010-09-11T14:42:23.62</time>
<name>638</name>
</trkpt>
<trkpt lat="49.982258" lon="9.462160">
<ele>310.5</ele>
<speed>76.1</speed>
<course>177.8</course>
<desc>Speed 76.1 km/h Distance 33.11 km</desc>
<time>2010-09-11T14:42:28.63</time>
<name>639</name>
</trkpt>
<trkpt lat="49.977797" lon="9.462425">
<ele>310.0</ele>
<speed>18.5</speed>
<course>213.4</course>
<desc>Speed 18.5 km/h Distance 33.61 km</desc>
<time>2010-09-11T14:43:23.58</time>
<name>640</name>
</trkpt>
<trkpt lat="49.974948" lon="9.459503">
<ele>312.5</ele>
<speed>18.5</speed>
<course>201.8</course>
<desc>Speed 18.5 km/h Distance 33.99 km</desc>
<time>2010-09-11T14:43:28.57</time>
<name>641</name>
</trkpt>
<trkpt lat="49.972782" lon="9.458158">
<ele>311.0</ele>
<speed>18.5</speed>
<course>197.4</course>
<desc>Speed 18.5 km/h Distance 34.25 km</desc>
<time>2010-09-11T14:43:32.60</time>
<name>642</name>
</trkpt>
<trkpt lat="49.971007" lon="9.457295">
<ele>310.5</ele>
<speed>18.5</speed>
<course>249.0</course>
<desc>Speed 18.5 km/h Distance 34.46 km</desc>
<time>2010-09-11T14:43:37.75</time>
<name>643</name>
</trkpt>
<trkpt lat="49.969832" lon="9.452543">
<ele>311.5</ele>
<speed>18.5</speed>
<course>200.4</course>
<desc>Speed 18.5 km/h Distance 34.82 km</desc>
<time>2010-09-11T14:44:12.56</time>
<name>644</name>
</trkpt>
<trkpt lat="49.967637" lon="9.451273">
<ele>313.0</ele>
<speed>18.5</speed>
<course>212.3</course>
<desc>Speed 18.5 km/h Distance 35.08 km</desc>
<time>2010-09-11T14:44:18.55</time>
<name>645</name>
</trkpt>
<trkpt lat="49.966455" lon="9.450110">
<ele>313.0</ele>
<speed>18.5</speed>
<course>322.9</course>
<desc>Speed 18.5 km/h Distance 35.24 km</desc>
<time>2010-09-11T14:44:23.57</time>
<name>646</name>
</trkpt>
<trkpt lat="49.966778" lon="9.449730">
<ele>313.0</ele>
<speed>18.5</speed>
<course>277.8</course>
<desc>Speed 18.5 km/h Distance 35.28 km</desc>
<time>2010-09-11T14:44:27.57</time>
<name>647</name>
</trkpt>
<trkpt lat="49.966915" lon="9.448180">
<ele>313.0</ele>
<speed>41.3</speed>
<course>205.8</course>
<desc>Speed 41.3 km/h Distance 35.39 km</desc>
<time>2010-09-11T14:44:54.56</time>
<name>648</name>
</trkpt>
<trkpt lat="49.966668" lon="9.447995">
<ele>313.5</ele>
<speed>41.3</speed>
<course>182.5</course>
<desc>Speed 41.3 km/h Distance 35.42 km</desc>
<time>2010-09-11T14:44:56.55</time>
<name>649</name>
</trkpt>
<trkpt lat="49.966293" lon="9.447970">
<ele>313.0</ele>
<speed>41.3</speed>
<course>141.1</course>
<desc>Speed 41.3 km/h Distance 35.47 km</desc>
<time>2010-09-11T14:44:59.55</time>
<name>650</name>
</trkpt>
<trkpt lat="49.966215" lon="9.448068">
<ele>313.0</ele>
<speed>41.3</speed>
<course>187.6</course>
<desc>Speed 41.3 km/h Distance 35.48 km</desc>
<time>2010-09-11T14:45:04.53</time>
<name>651</name>
</trkpt>
<trkpt lat="49.965212" lon="9.447860">
<ele>313.0</ele>
<speed>41.3</speed>
<course>159.9</course>
<desc>Speed 41.3 km/h Distance 35.59 km</desc>
<time>2010-09-11T14:45:09.54</time>
<name>652</name>
</trkpt>
<trkpt lat="49.965088" lon="9.447930">
<ele>313.0</ele>
<speed>41.3</speed>
<course>253.2</course>
<desc>Speed 41.3 km/h Distance 35.61 km</desc>
<time>2010-09-11T14:45:14.54</time>
<name>653</name>
</trkpt>
<trkpt lat="49.964948" lon="9.447208">
<ele>313.5</ele>
<speed>41.3</speed>
<course>139.4</course>
<desc>Speed 41.3 km/h Distance 35.66 km</desc>
<time>2010-09-11T14:45:18.54</time>
<name>654</name>
</trkpt>
<trkpt lat="49.964813" lon="9.447388">
<ele>313.5</ele>
<speed>41.3</speed>
<course>146.7</course>
<desc>Speed 41.3 km/h Distance 35.68 km</desc>
<time>2010-09-11T14:45:20.53</time>
<name>655</name>
</trkpt>
<trkpt lat="49.964652" lon="9.447553">
<ele>313.5</ele>
<speed>41.3</speed>
<course>189.2</course>
<desc>Speed 41.3 km/h Distance 35.70 km</desc>
<time>2010-09-11T14:45:24.53</time>
<name>656</name>
</trkpt>
<trkpt lat="49.964507" lon="9.447517">
<ele>313.5</ele>
<speed>41.3</speed>
<course>150.0</course>
<desc>Speed 41.3 km/h Distance 35.72 km</desc>
<time>2010-09-11T14:45:26.53</time>
<name>657</name>
</trkpt>
<trkpt lat="49.963883" lon="9.448077">
<ele>313.5</ele>
<speed>41.3</speed>
<course>177.2</course>
<desc>Speed 41.3 km/h Distance 35.80 km</desc>
<time>2010-09-11T14:45:30.53</time>
<name>658</name>
</trkpt>
<trkpt lat="49.963793" lon="9.448083">
<ele>313.5</ele>
<speed>41.3</speed>
<course>132.8</course>
<desc>Speed 41.3 km/h Distance 35.81 km</desc>
<time>2010-09-11T14:45:31.52</time>
<name>659</name>
</trkpt>
<trkpt lat="49.962723" lon="9.449880">
<ele>314.0</ele>
<speed>41.3</speed>
<course>172.2</course>
<desc>Speed 41.3 km/h Distance 35.98 km</desc>
<time>2010-09-11T14:45:38.51</time>
<name>660</name>
</trkpt>
<trkpt lat="49.961207" lon="9.450205">
<ele>314.5</ele>
<speed>41.3</speed>
<course>135.7</course>
<desc>Speed 41.3 km/h Distance 36.15 km</desc>
<time>2010-09-11T14:45:43.53</time>
<name>661</name>
</trkpt>
<trkpt lat="49.960633" lon="9.451075">
<ele>314.5</ele>
<speed>41.3</speed>
<course>142.4</course>
<desc>Speed 41.3 km/h Distance 36.24 km</desc>
<time>2010-09-11T14:45:47.52</time>
<name>662</name>
</trkpt>
<trkpt lat="49.959743" lon="9.452140">
<ele>315.0</ele>
<speed>41.3</speed>
<course>138.6</course>
<desc>Speed 41.3 km/h Distance 36.37 km</desc>
<time>2010-09-11T14:45:56.50</time>
<name>663</name>
</trkpt>
<trkpt lat="49.959223" lon="9.452852">
<ele>314.5</ele>
<speed>41.3</speed>
<course>171.7</course>
<desc>Speed 41.3 km/h Distance 36.44 km</desc>
<time>2010-09-11T14:46:00.51</time>
<name>664</name>
</trkpt>
<trkpt lat="49.958485" lon="9.453018">
<ele>314.5</ele>
<speed>41.3</speed>
<course>185.9</course>
<desc>Speed 41.3 km/h Distance 36.53 km</desc>
<time>2010-09-11T14:46:02.49</time>
<name>665</name>
</trkpt>
<trkpt lat="49.954243" lon="9.452342">
<ele>313.0</ele>
<speed>41.3</speed>
<course>178.3</course>
<desc>Speed 41.3 km/h Distance 37.00 km</desc>
<time>2010-09-11T14:46:06.50</time>
<name>666</name>
</trkpt>
<trkpt lat="49.950537" lon="9.452512">
<ele>311.0</ele>
<speed>41.3</speed>
<course>168.8</course>
<desc>Speed 41.3 km/h Distance 37.41 km</desc>
<time>2010-09-11T14:46:19.50</time>
<name>667</name>
</trkpt>
<trkpt lat="49.949532" lon="9.452820">
<ele>310.5</ele>
<speed>29.6</speed>
<course>123.5</course>
<desc>Speed 29.6 km/h Distance 37.53 km</desc>
<time>2010-09-11T14:46:25.49</time>
<name>668</name>
</trkpt>
<trkpt lat="49.949465" lon="9.452977">
<ele>310.5</ele>
<speed>29.6</speed>
<course>118.4</course>
<desc>Speed 29.6 km/h Distance 37.54 km</desc>
<time>2010-09-11T14:46:27.49</time>
<name>669</name>
</trkpt>
<trkpt lat="49.949438" lon="9.453053">
<ele>310.5</ele>
<speed>29.6</speed>
<course>116.4</course>
<desc>Speed 29.6 km/h Distance 37.55 km</desc>
<time>2010-09-11T14:46:28.49</time>
<name>670</name>
</trkpt>
<trkpt lat="49.949413" lon="9.453132">
<ele>310.5</ele>
<speed>29.6</speed>
<course>112.7</course>
<desc>Speed 29.6 km/h Distance 37.55 km</desc>
<time>2010-09-11T14:46:29.49</time>
<name>671</name>
</trkpt>
<trkpt lat="49.949367" lon="9.453305">
<ele>310.5</ele>
<speed>29.6</speed>
<course>112.2</course>
<desc>Speed 29.6 km/h Distance 37.57 km</desc>
<time>2010-09-11T14:46:31.49</time>
<name>672</name>
</trkpt>
<trkpt lat="49.949148" lon="9.454138">
<ele>310.0</ele>
<speed>53.7</speed>
<course>102.5</course>
<desc>Speed 53.7 km/h Distance 37.63 km</desc>
<time>2010-09-11T14:46:35.86</time>
<name>673</name>
</trkpt>
<trkpt lat="49.949088" lon="9.454558">
<ele>310.0</ele>
<speed>53.7</speed>
<course>85.1</course>
<desc>Speed 53.7 km/h Distance 37.66 km</desc>
<time>2010-09-11T14:46:39.46</time>
<name>674</name>
</trkpt>
<trkpt lat="49.949110" lon="9.454955">
<ele>310.0</ele>
<speed>53.7</speed>
<course>59.0</course>
<desc>Speed 53.7 km/h Distance 37.69 km</desc>
<time>2010-09-11T14:46:42.48</time>
<name>675</name>
</trkpt>
<trkpt lat="49.949347" lon="9.455568">
<ele>310.0</ele>
<speed>53.7</speed>
<course>67.8</course>
<desc>Speed 53.7 km/h Distance 37.74 km</desc>
<time>2010-09-11T14:46:46.48</time>
<name>676</name>
</trkpt>
<trkpt lat="49.949453" lon="9.455975">
<ele>310.0</ele>
<speed>53.7</speed>
<course>48.2</course>
<desc>Speed 53.7 km/h Distance 37.77 km</desc>
<time>2010-09-11T14:46:48.48</time>
<name>677</name>
</trkpt>
<trkpt lat="49.949632" lon="9.456285">
<ele>310.0</ele>
<speed>53.7</speed>
<course>69.1</course>
<desc>Speed 53.7 km/h Distance 37.80 km</desc>
<time>2010-09-11T14:46:52.48</time>
<name>678</name>
</trkpt>
<trkpt lat="49.950082" lon="9.458120">
<ele>310.0</ele>
<speed>53.7</speed>
<course>82.2</course>
<desc>Speed 53.7 km/h Distance 37.94 km</desc>
<time>2010-09-11T14:46:54.47</time>
<name>679</name>
</trkpt>
<trkpt lat="49.950413" lon="9.461878">
<ele>309.5</ele>
<speed>53.7</speed>
<course>94.8</course>
<desc>Speed 53.7 km/h Distance 38.22 km</desc>
<time>2010-09-11T14:47:01.48</time>
<name>680</name>
</trkpt>
<trkpt lat="49.950230" lon="9.465255">
<ele>308.0</ele>
<speed>53.7</speed>
<course>97.6</course>
<desc>Speed 53.7 km/h Distance 38.46 km</desc>
<time>2010-09-11T14:47:09.47</time>
<name>681</name>
</trkpt>
<trkpt lat="49.950040" lon="9.467468">
<ele>308.0</ele>
<speed>94.3</speed>
<course>101.1</course>
<desc>Speed 94.3 km/h Distance 38.62 km</desc>
<time>2010-09-11T14:47:15.46</time>
<name>682</name>
</trkpt>
<trkpt lat="49.949902" lon="9.468563">
<ele>308.0</ele>
<speed>94.3</speed>
<course>114.7</course>
<desc>Speed 94.3 km/h Distance 38.70 km</desc>
<time>2010-09-11T14:47:21.46</time>
<name>683</name>
</trkpt>
<trkpt lat="49.949437" lon="9.470135">
<ele>308.0</ele>
<speed>64.3</speed>
<course>135.2</course>
<desc>Speed 64.3 km/h Distance 38.82 km</desc>
<time>2010-09-11T14:47:27.46</time>
<name>684</name>
</trkpt>
<trkpt lat="49.948598" lon="9.471430">
<ele>308.0</ele>
<speed>64.3</speed>
<course>132.0</course>
<desc>Speed 64.3 km/h Distance 38.95 km</desc>
<time>2010-09-11T14:47:32.45</time>
<name>685</name>
</trkpt>
<trkpt lat="49.948312" lon="9.471925">
<ele>308.0</ele>
<speed>64.3</speed>
<course>133.7</course>
<desc>Speed 64.3 km/h Distance 39.00 km</desc>
<time>2010-09-11T14:47:36.44</time>
<name>686</name>
</trkpt>
<trkpt lat="49.947440" lon="9.473343">
<ele>308.0</ele>
<speed>64.3</speed>
<course>138.0</course>
<desc>Speed 64.3 km/h Distance 39.14 km</desc>
<time>2010-09-11T14:47:44.44</time>
<name>687</name>
</trkpt>
<trkpt lat="49.946838" lon="9.474185">
<ele>308.0</ele>
<speed>64.3</speed>
<course>113.7</course>
<desc>Speed 64.3 km/h Distance 39.23 km</desc>
<time>2010-09-11T14:47:48.44</time>
<name>688</name>
</trkpt>
<trkpt lat="49.945947" lon="9.477338">
<ele>308.0</ele>
<speed>61.3</speed>
<course>109.9</course>
<desc>Speed 61.3 km/h Distance 39.48 km</desc>
<time>2010-09-11T14:47:54.43</time>
<name>689</name>
</trkpt>
<trkpt lat="49.945840" lon="9.477795">
<ele>308.0</ele>
<speed>50.5</speed>
<course>117.8</course>
<desc>Speed 50.5 km/h Distance 39.51 km</desc>
<time>2010-09-11T14:47:56.43</time>
<name>690</name>
</trkpt>
<trkpt lat="49.945707" lon="9.478188">
<ele>308.5</ele>
<speed>45.4</speed>
<course>102.6</course>
<desc>Speed 45.4 km/h Distance 39.55 km</desc>
<time>2010-09-11T14:47:58.43</time>
<name>691</name>
</trkpt>
<trkpt lat="49.945647" lon="9.478607">
<ele>308.5</ele>
<speed>50.8</speed>
<course>105.5</course>
<desc>Speed 50.8 km/h Distance 39.58 km</desc>
<time>2010-09-11T14:48:00.43</time>
<name>692</name>
</trkpt>
<trkpt lat="49.945525" lon="9.479287">
<ele>308.5</ele>
<speed>60.0</speed>
<course>97.0</course>
<desc>Speed 60.0 km/h Distance 39.63 km</desc>
<time>2010-09-11T14:48:03.43</time>
<name>693</name>
</trkpt>
<trkpt lat="49.945507" lon="9.479520">
<ele>308.5</ele>
<speed>59.3</speed>
<course>99.5</course>
<desc>Speed 59.3 km/h Distance 39.64 km</desc>
<time>2010-09-11T14:48:04.43</time>
<name>694</name>
</trkpt>
<trkpt lat="49.945468" lon="9.479875">
<ele>308.5</ele>
<speed>59.3</speed>
<course>89.5</course>
<desc>Speed 59.3 km/h Distance 39.67 km</desc>
<time>2010-09-11T14:48:06.43</time>
<name>695</name>
</trkpt>
<trkpt lat="49.945472" lon="9.480430">
<ele>308.5</ele>
<speed>47.2</speed>
<course>83.2</course>
<desc>Speed 47.2 km/h Distance 39.71 km</desc>
<time>2010-09-11T14:48:10.42</time>
<name>696</name>
</trkpt>
<trkpt lat="49.945505" lon="9.480863">
<ele>308.5</ele>
<speed>52.3</speed>
<course>76.4</course>
<desc>Speed 52.3 km/h Distance 39.74 km</desc>
<time>2010-09-11T14:48:12.42</time>
<name>697</name>
</trkpt>
<trkpt lat="49.945533" lon="9.481045">
<ele>308.5</ele>
<speed>52.3</speed>
<course>79.1</course>
<desc>Speed 52.3 km/h Distance 39.75 km</desc>
<time>2010-09-11T14:48:13.42</time>
<name>698</name>
</trkpt>
<trkpt lat="49.945578" lon="9.481407">
<ele>308.5</ele>
<speed>52.3</speed>
<course>86.2</course>
<desc>Speed 52.3 km/h Distance 39.78 km</desc>
<time>2010-09-11T14:48:16.42</time>
<name>699</name>
</trkpt>
<trkpt lat="49.945595" lon="9.481797">
<ele>308.5</ele>
<speed>52.3</speed>
<course>87.8</course>
<desc>Speed 52.3 km/h Distance 39.81 km</desc>
<time>2010-09-11T14:48:20.41</time>
<name>700</name>
</trkpt>
<trkpt lat="49.945605" lon="9.482198">
<ele>308.5</ele>
<speed>52.3</speed>
<course>92.1</course>
<desc>Speed 52.3 km/h Distance 39.84 km</desc>
<time>2010-09-11T14:48:24.41</time>
<name>701</name>
</trkpt>
<trkpt lat="49.945598" lon="9.482482">
<ele>308.5</ele>
<speed>52.3</speed>
<course>108.4</course>
<desc>Speed 52.3 km/h Distance 39.86 km</desc>
<time>2010-09-11T14:48:30.38</time>
<name>702</name>
</trkpt>
<trkpt lat="49.945525" lon="9.482823">
<ele>308.5</ele>
<speed>52.3</speed>
<course>104.7</course>
<desc>Speed 52.3 km/h Distance 39.88 km</desc>
<time>2010-09-11T14:48:35.39</time>
<name>703</name>
</trkpt>
<trkpt lat="49.945435" lon="9.483357">
<ele>308.5</ele>
<speed>52.3</speed>
<course>105.0</course>
<desc>Speed 52.3 km/h Distance 39.92 km</desc>
<time>2010-09-11T14:48:39.37</time>
<name>704</name>
</trkpt>
<trkpt lat="49.945217" lon="9.484627">
<ele>308.5</ele>
<speed>52.3</speed>
<course>172.1</course>
<desc>Speed 52.3 km/h Distance 40.02 km</desc>
<time>2010-09-11T14:48:42.37</time>
<name>705</name>
</trkpt>
<trkpt lat="49.942735" lon="9.485163">
<ele>307.0</ele>
<speed>52.3</speed>
<course>143.2</course>
<desc>Speed 52.3 km/h Distance 40.30 km</desc>
<time>2010-09-11T14:48:46.38</time>
<name>706</name>
</trkpt>
<trkpt lat="49.941935" lon="9.486092">
<ele>306.5</ele>
<speed>52.3</speed>
<course>143.8</course>
<desc>Speed 52.3 km/h Distance 40.41 km</desc>
<time>2010-09-11T14:48:51.38</time>
<name>707</name>
</trkpt>
<trkpt lat="49.941738" lon="9.486315">
<ele>306.5</ele>
<speed>52.3</speed>
<course>194.2</course>
<desc>Speed 52.3 km/h Distance 40.43 km</desc>
<time>2010-09-11T14:48:53.38</time>
<name>708</name>
</trkpt>
<trkpt lat="49.941535" lon="9.486235">
<ele>306.5</ele>
<speed>52.3</speed>
<course>188.1</course>
<desc>Speed 52.3 km/h Distance 40.46 km</desc>
<time>2010-09-11T14:48:58.38</time>
<name>709</name>
</trkpt>
<trkpt lat="49.941285" lon="9.486180">
<ele>306.5</ele>
<speed>52.3</speed>
<course>236.1</course>
<desc>Speed 52.3 km/h Distance 40.49 km</desc>
<time>2010-09-11T14:49:02.38</time>
<name>710</name>
</trkpt>
<trkpt lat="49.941253" lon="9.486107">
<ele>306.5</ele>
<speed>52.3</speed>
<course>158.7</course>
<desc>Speed 52.3 km/h Distance 40.49 km</desc>
<time>2010-09-11T14:49:06.38</time>
<name>711</name>
</trkpt>
<trkpt lat="49.938685" lon="9.487662">
<ele>308.0</ele>
<speed>61.0</speed>
<course>150.9</course>
<desc>Speed 61.0 km/h Distance 40.80 km</desc>
<time>2010-09-11T14:49:20.37</time>
<name>712</name>
</trkpt>
<trkpt lat="49.937962" lon="9.488288">
<ele>308.0</ele>
<speed>61.0</speed>
<course>130.1</course>
<desc>Speed 61.0 km/h Distance 40.89 km</desc>
<time>2010-09-11T14:49:24.37</time>
<name>713</name>
</trkpt>
<trkpt lat="49.937853" lon="9.488488">
<ele>308.0</ele>
<speed>61.0</speed>
<course>112.5</course>
<desc>Speed 61.0 km/h Distance 40.91 km</desc>
<time>2010-09-11T14:49:25.37</time>
<name>714</name>
</trkpt>
<trkpt lat="49.937800" lon="9.488688">
<ele>308.0</ele>
<speed>61.0</speed>
<course>136.2</course>
<desc>Speed 61.0 km/h Distance 40.93 km</desc>
<time>2010-09-11T14:49:26.37</time>
<name>715</name>
</trkpt>
<trkpt lat="49.937285" lon="9.489457">
<ele>308.0</ele>
<speed>61.0</speed>
<course>129.8</course>
<desc>Speed 61.0 km/h Distance 41.01 km</desc>
<time>2010-09-11T14:49:36.35</time>
<name>716</name>
</trkpt>
<trkpt lat="49.937115" lon="9.489773">
<ele>308.0</ele>
<speed>61.0</speed>
<course>153.0</course>
<desc>Speed 61.0 km/h Distance 41.04 km</desc>
<time>2010-09-11T14:49:38.35</time>
<name>717</name>
</trkpt>
<trkpt lat="49.936603" lon="9.490178">
<ele>306.5</ele>
<speed>61.0</speed>
<course>171.6</course>
<desc>Speed 61.0 km/h Distance 41.10 km</desc>
<time>2010-09-11T14:49:41.35</time>
<name>718</name>
</trkpt>
<trkpt lat="49.936465" lon="9.490210">
<ele>306.0</ele>
<speed>61.0</speed>
<course>139.5</course>
<desc>Speed 61.0 km/h Distance 41.11 km</desc>
<time>2010-09-11T14:49:43.35</time>
<name>719</name>
</trkpt>
<trkpt lat="49.929823" lon="9.499028">
<ele>300.0</ele>
<speed>82.6</speed>
<course>124.2</course>
<desc>Speed 82.6 km/h Distance 42.09 km</desc>
<time>2010-09-11T14:50:27.33</time>
<name>720</name>
</trkpt>
<trkpt lat="49.928775" lon="9.501423">
<ele>301.5</ele>
<speed>53.2</speed>
<course>90.9</course>
<desc>Speed 53.2 km/h Distance 42.29 km</desc>
<time>2010-09-11T14:50:33.32</time>
<name>721</name>
</trkpt>
<trkpt lat="49.928770" lon="9.501895">
<ele>302.0</ele>
<speed>53.2</speed>
<course>98.1</course>
<desc>Speed 53.2 km/h Distance 42.33 km</desc>
<time>2010-09-11T14:50:35.32</time>
<name>722</name>
</trkpt>
<trkpt lat="49.928735" lon="9.502278">
<ele>302.5</ele>
<speed>53.2</speed>
<course>127.2</course>
<desc>Speed 53.2 km/h Distance 42.36 km</desc>
<time>2010-09-11T14:50:38.32</time>
<name>723</name>
</trkpt>
<trkpt lat="49.928583" lon="9.502588">
<ele>306.5</ele>
<speed>53.2</speed>
<course>164.5</course>
<desc>Speed 53.2 km/h Distance 42.38 km</desc>
<time>2010-09-11T14:50:42.31</time>
<name>724</name>
</trkpt>
<trkpt lat="49.928203" lon="9.502752">
<ele>306.0</ele>
<speed>28.4</speed>
<course>151.7</course>
<desc>Speed 28.4 km/h Distance 42.43 km</desc>
<time>2010-09-11T14:50:46.31</time>
<name>725</name>
</trkpt>
<trkpt lat="49.928020" lon="9.502905">
<ele>307.0</ele>
<speed>28.4</speed>
<course>145.8</course>
<desc>Speed 28.4 km/h Distance 42.45 km</desc>
<time>2010-09-11T14:50:48.31</time>
<name>726</name>
</trkpt>
<trkpt lat="49.927932" lon="9.502998">
<ele>305.0</ele>
<speed>13.9</speed>
<course>167.9</course>
<desc>Speed 13.9 km/h Distance 42.46 km</desc>
<time>2010-09-11T14:50:51.31</time>
<name>727</name>
</trkpt>
<trkpt lat="49.927902" lon="9.503008">
<ele>304.5</ele>
<speed>13.9</speed>
<course>161.4</course>
<desc>Speed 13.9 km/h Distance 42.47 km</desc>
<time>2010-09-11T14:50:52.31</time>
<name>728</name>
</trkpt>
<trkpt lat="49.927867" lon="9.503027">
<ele>304.0</ele>
<speed>13.9</speed>
<course>145.0</course>
<desc>Speed 13.9 km/h Distance 42.47 km</desc>
<time>2010-09-11T14:50:53.31</time>
<name>729</name>
</trkpt>
<trkpt lat="49.927848" lon="9.503047">
<ele>301.5</ele>
<speed>13.9</speed>
<course>140.1</course>
<desc>Speed 13.9 km/h Distance 42.47 km</desc>
<time>2010-09-11T14:50:54.30</time>
<name>730</name>
</trkpt>
<trkpt lat="49.927832" lon="9.503068">
<ele>299.5</ele>
<speed>13.9</speed>
<course>62.4</course>
<desc>Speed 13.9 km/h Distance 42.48 km</desc>
<time>2010-09-11T14:50:56.31</time>
<name>731</name>
</trkpt>
<trkpt lat="49.927835" lon="9.503078">
<ele>298.0</ele>
<speed>13.9</speed>
<course>43.5</course>
<desc>Speed 13.9 km/h Distance 42.48 km</desc>
<time>2010-09-11T14:50:58.30</time>
<name>732</name>
</trkpt>
<trkpt lat="49.927838" lon="9.503083">
<ele>297.0</ele>
<speed>13.9</speed>
<course>130.8</course>
<desc>Speed 13.9 km/h Distance 42.48 km</desc>
<time>2010-09-11T14:51:00.31</time>
<name>733</name>
</trkpt>
<trkpt lat="49.927805" lon="9.503143">
<ele>296.0</ele>
<speed>13.9</speed>
<course>159.8</course>
<desc>Speed 13.9 km/h Distance 42.48 km</desc>
<time>2010-09-11T14:51:02.30</time>
<name>734</name>
</trkpt>
<trkpt lat="49.927793" lon="9.503150">
<ele>295.5</ele>
<speed>13.9</speed>
<course>110.1</course>
<desc>Speed 13.9 km/h Distance 42.48 km</desc>
<time>2010-09-11T14:51:04.30</time>
<name>735</name>
</trkpt>
<trkpt lat="49.927787" lon="9.503178">
<ele>295.0</ele>
<speed>13.9</speed>
<course>90.0</course>
<desc>Speed 13.9 km/h Distance 42.49 km</desc>
<time>2010-09-11T14:51:05.30</time>
<name>736</name>
</trkpt>
<trkpt lat="49.927787" lon="9.503195">
<ele>294.5</ele>
<speed>13.9</speed>
<course>354.5</course>
<desc>Speed 13.9 km/h Distance 42.49 km</desc>
<time>2010-09-11T14:51:07.30</time>
<name>737</name>
</trkpt>
<trkpt lat="49.927832" lon="9.503188">
<ele>292.5</ele>
<speed>7.8</speed>
<course>19.5</course>
<desc>Speed 7.8 km/h Distance 42.49 km</desc>
<time>2010-09-11T14:51:09.30</time>
<name>738</name>
</trkpt>
<trkpt lat="49.928013" lon="9.503288">
<ele>287.5</ele>
<speed>18.0</speed>
<course>357.9</course>
<desc>Speed 18.0 km/h Distance 42.51 km</desc>
<time>2010-09-11T14:51:12.30</time>
<name>739</name>
</trkpt>
<trkpt lat="49.928075" lon="9.503285">
<ele>286.5</ele>
<speed>18.8</speed>
<course>347.9</course>
<desc>Speed 18.8 km/h Distance 42.52 km</desc>
<time>2010-09-11T14:51:13.30</time>
<name>740</name>
</trkpt>
<trkpt lat="49.928120" lon="9.503270">
<ele>286.5</ele>
<speed>18.8</speed>
<course>341.4</course>
<desc>Speed 18.8 km/h Distance 42.53 km</desc>
<time>2010-09-11T14:51:14.30</time>
<name>741</name>
</trkpt>
<trkpt lat="49.928152" lon="9.503253">
<ele>286.0</ele>
<speed>18.8</speed>
<course>332.4</course>
<desc>Speed 18.8 km/h Distance 42.53 km</desc>
<time>2010-09-11T14:51:15.30</time>
<name>742</name>
</trkpt>
<trkpt lat="49.928178" lon="9.503232">
<ele>286.0</ele>
<speed>18.8</speed>
<course>352.5</course>
<desc>Speed 18.8 km/h Distance 42.53 km</desc>
<time>2010-09-11T14:51:16.30</time>
<name>743</name>
</trkpt>
<trkpt lat="49.928235" lon="9.503220">
<ele>285.5</ele>
<speed>18.1</speed>
<course>342.2</course>
<desc>Speed 18.1 km/h Distance 42.54 km</desc>
<time>2010-09-11T14:51:17.29</time>
<name>744</name>
</trkpt>
<trkpt lat="49.928275" lon="9.503200">
<ele>285.5</ele>
<speed>18.1</speed>
<course>347.1</course>
<desc>Speed 18.1 km/h Distance 42.54 km</desc>
<time>2010-09-11T14:51:18.28</time>
<name>745</name>
</trkpt>
<trkpt lat="49.928303" lon="9.503190">
<ele>285.5</ele>
<speed>18.1</speed>
<course>245.8</course>
<desc>Speed 18.1 km/h Distance 42.55 km</desc>
<time>2010-09-11T14:51:19.30</time>
<name>746</name>
</trkpt>
<trkpt lat="49.928285" lon="9.503127">
<ele>283.0</ele>
<speed>11.3</speed>
<course>342.2</course>
<desc>Speed 11.3 km/h Distance 42.55 km</desc>
<time>2010-09-11T14:51:21.29</time>
<name>747</name>
</trkpt>
<trkpt lat="49.928312" lon="9.503113">
<ele>283.0</ele>
<speed>11.3</speed>
<course>334.3</course>
<desc>Speed 11.3 km/h Distance 42.56 km</desc>
<time>2010-09-11T14:51:22.29</time>
<name>748</name>
</trkpt>
<trkpt lat="49.928332" lon="9.503098">
<ele>283.0</ele>
<speed>11.3</speed>
<course>330.4</course>
<desc>Speed 11.3 km/h Distance 42.56 km</desc>
<time>2010-09-11T14:51:23.29</time>
<name>749</name>
</trkpt>
<trkpt lat="49.928347" lon="9.503085">
<ele>283.0</ele>
<speed>11.3</speed>
<course>337.7</course>
<desc>Speed 11.3 km/h Distance 42.56 km</desc>
<time>2010-09-11T14:51:24.28</time>
<name>750</name>
</trkpt>
<trkpt lat="49.928365" lon="9.503073">
<ele>282.5</ele>
<speed>11.3</speed>
<course>332.0</course>
<desc>Speed 11.3 km/h Distance 42.56 km</desc>
<time>2010-09-11T14:51:25.29</time>
<name>751</name>
</trkpt>
<trkpt lat="49.928375" lon="9.503065">
<ele>282.5</ele>
<speed>11.3</speed>
<course>333.6</course>
<desc>Speed 11.3 km/h Distance 42.56 km</desc>
<time>2010-09-11T14:51:26.29</time>
<name>752</name>
</trkpt>
<trkpt lat="49.928390" lon="9.503053">
<ele>282.5</ele>
<speed>11.3</speed>
<course>347.4</course>
<desc>Speed 11.3 km/h Distance 42.56 km</desc>
<time>2010-09-11T14:51:28.27</time>
<name>753</name>
</trkpt>
<trkpt lat="49.928395" lon="9.503052">
<ele>282.5</ele>
<speed>11.3</speed>
<course>108.4</course>
<desc>Speed 11.3 km/h Distance 42.57 km</desc>
<time>2010-09-11T14:51:30.29</time>
<name>754</name>
</trkpt>
<trkpt lat="49.928390" lon="9.503075">
<ele>282.5</ele>
<speed>11.3</speed>
<course>35.6</course>
<desc>Speed 11.3 km/h Distance 42.57 km</desc>
<time>2010-09-11T14:51:31.29</time>
<name>755</name>
</trkpt>
<trkpt lat="49.928420" lon="9.503108">
<ele>282.5</ele>
<speed>11.3</speed>
<course>56.3</course>
<desc>Speed 11.3 km/h Distance 42.57 km</desc>
<time>2010-09-11T14:51:32.29</time>
<name>756</name>
</trkpt>
<trkpt lat="49.928430" lon="9.503132">
<ele>282.0</ele>
<speed>11.3</speed>
<course>90.0</course>
<desc>Speed 11.3 km/h Distance 42.57 km</desc>
<time>2010-09-11T14:51:33.28</time>
<name>757</name>
</trkpt>
<trkpt lat="49.928430" lon="9.503150">
<ele>282.0</ele>
<speed>11.3</speed>
<course>90.0</course>
<desc>Speed 11.3 km/h Distance 42.57 km</desc>
<time>2010-09-11T14:51:34.29</time>
<name>758</name>
</trkpt>
<trkpt lat="49.928430" lon="9.503158">
<ele>282.0</ele>
<speed>11.3</speed>
<course>21.4</course>
<desc>Speed 11.3 km/h Distance 42.58 km</desc>
<time>2010-09-11T14:51:35.86</time>
<name>759</name>
</trkpt>
<trkpt lat="49.928498" lon="9.503200">
<ele>282.5</ele>
<speed>11.3</speed>
<course>36.8</course>
<desc>Speed 11.3 km/h Distance 42.58 km</desc>
<time>2010-09-11T14:51:37.28</time>
<name>760</name>
</trkpt>
<trkpt lat="49.928508" lon="9.503212">
<ele>282.5</ele>
<speed>11.3</speed>
<course>14.1</course>
<desc>Speed 11.3 km/h Distance 42.58 km</desc>
<time>2010-09-11T14:51:39.28</time>
<name>761</name>
</trkpt>
<trkpt lat="49.928547" lon="9.503227">
<ele>282.5</ele>
<speed>11.3</speed>
<course>9.0</course>
<desc>Speed 11.3 km/h Distance 42.59 km</desc>
<time>2010-09-11T14:51:40.28</time>
<name>762</name>
</trkpt>
<trkpt lat="49.928560" lon="9.503230">
<ele>282.5</ele>
<speed>11.3</speed>
<course>349.6</course>
<desc>Speed 11.3 km/h Distance 42.59 km</desc>
<time>2010-09-11T14:51:41.27</time>
<name>763</name>
</trkpt>
<trkpt lat="49.928572" lon="9.503227">
<ele>282.5</ele>
<speed>11.3</speed>
<course>347.3</course>
<desc>Speed 11.3 km/h Distance 42.59 km</desc>
<time>2010-09-11T14:51:43.27</time>
<name>764</name>
</trkpt>
<trkpt lat="49.928605" lon="9.503215">
<ele>282.5</ele>
<speed>11.3</speed>
<course>334.2</course>
<desc>Speed 11.3 km/h Distance 42.60 km</desc>
<time>2010-09-11T14:51:44.28</time>
<name>765</name>
</trkpt>
<trkpt lat="49.928632" lon="9.503195">
<ele>282.5</ele>
<speed>11.3</speed>
<course>275.2</course>
<desc>Speed 11.3 km/h Distance 42.60 km</desc>
<time>2010-09-11T14:51:45.27</time>
<name>766</name>
</trkpt>
<trkpt lat="49.928633" lon="9.503167">
<ele>282.5</ele>
<speed>11.3</speed>
<course>157.8</course>
<desc>Speed 11.3 km/h Distance 42.60 km</desc>
<time>2010-09-11T14:51:46.27</time>
<name>767</name>
</trkpt>
<trkpt lat="49.928628" lon="9.503170">
<ele>282.5</ele>
<speed>11.3</speed>
<course>138.6</course>
<desc>Speed 11.3 km/h Distance 42.60 km</desc>
<time>2010-09-11T14:51:48.28</time>
<name>768</name>
</trkpt>
<trkpt lat="49.928615" lon="9.503188">
<ele>282.5</ele>
<speed>11.3</speed>
<course>180.0</course>
<desc>Speed 11.3 km/h Distance 42.60 km</desc>
<time>2010-09-11T14:51:49.27</time>
<name>769</name>
</trkpt>
<trkpt lat="49.928592" lon="9.503188">
<ele>282.5</ele>
<speed>11.3</speed>
<course>185.6</course>
<desc>Speed 11.3 km/h Distance 42.61 km</desc>
<time>2010-09-11T14:51:50.28</time>
<name>770</name>
</trkpt>
<trkpt lat="49.928548" lon="9.503182">
<ele>282.5</ele>
<speed>11.3</speed>
<course>184.1</course>
<desc>Speed 11.3 km/h Distance 42.61 km</desc>
<time>2010-09-11T14:51:51.27</time>
<name>771</name>
</trkpt>
<trkpt lat="49.928520" lon="9.503178">
<ele>282.5</ele>
<speed>11.3</speed>
<course>187.1</course>
<desc>Speed 11.3 km/h Distance 42.61 km</desc>
<time>2010-09-11T14:51:52.28</time>
<name>772</name>
</trkpt>
<trkpt lat="49.928477" lon="9.503170">
<ele>282.5</ele>
<speed>11.3</speed>
<course>120.6</course>
<desc>Speed 11.3 km/h Distance 42.62 km</desc>
<time>2010-09-11T14:51:53.27</time>
<name>773</name>
</trkpt>
<trkpt lat="49.928463" lon="9.503205">
<ele>282.5</ele>
<speed>11.3</speed>
<course>165.0</course>
<desc>Speed 11.3 km/h Distance 42.62 km</desc>
<time>2010-09-11T14:51:54.27</time>
<name>774</name>
</trkpt>
<trkpt lat="49.928443" lon="9.503213">
<ele>282.5</ele>
<speed>11.3</speed>
<course>180.0</course>
<desc>Speed 11.3 km/h Distance 42.62 km</desc>
<time>2010-09-11T14:51:55.27</time>
<name>775</name>
</trkpt>
<trkpt lat="49.928428" lon="9.503213">
<ele>282.5</ele>
<speed>11.3</speed>
<course>144.5</course>
<desc>Speed 11.3 km/h Distance 42.63 km</desc>
<time>2010-09-11T14:51:56.27</time>
<name>776</name>
</trkpt>
<trkpt lat="49.928413" lon="9.503230">
<ele>282.5</ele>
<speed>11.3</speed>
<course>166.0</course>
<desc>Speed 11.3 km/h Distance 42.63 km</desc>
<time>2010-09-11T14:51:57.27</time>
<name>777</name>
</trkpt>
<trkpt lat="49.928392" lon="9.503238">
<ele>282.5</ele>
<speed>11.3</speed>
<course>166.4</course>
<desc>Speed 11.3 km/h Distance 42.63 km</desc>
<time>2010-09-11T14:51:58.27</time>
<name>778</name>
</trkpt>
<trkpt lat="49.928352" lon="9.503253">
<ele>282.5</ele>
<speed>11.3</speed>
<course>137.8</course>
<desc>Speed 11.3 km/h Distance 42.64 km</desc>
<time>2010-09-11T14:51:59.27</time>
<name>779</name>
</trkpt>
<trkpt lat="49.928225" lon="9.503432">
<ele>282.0</ele>
<speed>11.3</speed>
<course>195.1</course>
<desc>Speed 11.3 km/h Distance 42.65 km</desc>
<time>2010-09-11T14:52:02.27</time>
<name>780</name>
</trkpt>
<trkpt lat="49.928113" lon="9.503385">
<ele>282.0</ele>
<speed>11.3</speed>
<course>209.8</course>
<desc>Speed 11.3 km/h Distance 42.67 km</desc>
<time>2010-09-11T14:52:04.27</time>
<name>781</name>
</trkpt>
<trkpt lat="49.928098" lon="9.503372">
<ele>282.0</ele>
<speed>11.3</speed>
<course>164.8</course>
<desc>Speed 11.3 km/h Distance 42.67 km</desc>
<time>2010-09-11T14:52:05.26</time>
<name>782</name>
</trkpt>
<trkpt lat="49.926898" lon="9.503878">
<ele>281.5</ele>
<speed>11.3</speed>
<course>181.1</course>
<desc>Speed 11.3 km/h Distance 42.81 km</desc>
<time>2010-09-11T14:52:07.26</time>
<name>783</name>
</trkpt>
<trkpt lat="49.925460" lon="9.503837">
<ele>280.5</ele>
<speed>65.6</speed>
<course>205.4</course>
<desc>Speed 65.6 km/h Distance 42.97 km</desc>
<time>2010-09-11T14:52:13.25</time>
<name>784</name>
</trkpt>
<trkpt lat="49.921530" lon="9.500938">
<ele>277.5</ele>
<speed>65.6</speed>
<course>178.4</course>
<desc>Speed 65.6 km/h Distance 43.45 km</desc>
<time>2010-09-11T14:52:34.23</time>
<name>785</name>
</trkpt>
<trkpt lat="49.920880" lon="9.500967">
<ele>276.5</ele>
<speed>65.6</speed>
<course>153.2</course>
<desc>Speed 65.6 km/h Distance 43.52 km</desc>
<time>2010-09-11T14:52:38.23</time>
<name>786</name>
</trkpt>
<trkpt lat="49.920403" lon="9.501340">
<ele>275.5</ele>
<speed>65.6</speed>
<course>137.0</course>
<desc>Speed 65.6 km/h Distance 43.58 km</desc>
<time>2010-09-11T14:52:42.23</time>
<name>787</name>
</trkpt>
<trkpt lat="49.920292" lon="9.501502">
<ele>275.5</ele>
<speed>65.6</speed>
<course>109.8</course>
<desc>Speed 65.6 km/h Distance 43.60 km</desc>
<time>2010-09-11T14:52:43.23</time>
<name>788</name>
</trkpt>
<trkpt lat="49.920232" lon="9.501760">
<ele>276.0</ele>
<speed>65.6</speed>
<course>98.7</course>
<desc>Speed 65.6 km/h Distance 43.62 km</desc>
<time>2010-09-11T14:52:44.23</time>
<name>789</name>
</trkpt>
<trkpt lat="49.920178" lon="9.502298">
<ele>275.5</ele>
<speed>65.6</speed>
<course>102.7</course>
<desc>Speed 65.6 km/h Distance 43.66 km</desc>
<time>2010-09-11T14:52:46.21</time>
<name>790</name>
</trkpt>
<trkpt lat="49.919973" lon="9.503707">
<ele>274.5</ele>
<speed>65.6</speed>
<course>106.0</course>
<desc>Speed 65.6 km/h Distance 43.76 km</desc>
<time>2010-09-11T14:52:50.25</time>
<name>791</name>
</trkpt>
<trkpt lat="49.919718" lon="9.505090">
<ele>274.5</ele>
<speed>65.6</speed>
<course>104.9</course>
<desc>Speed 65.6 km/h Distance 43.87 km</desc>
<time>2010-09-11T14:52:52.25</time>
<name>792</name>
</trkpt>
<trkpt lat="49.919555" lon="9.506045">
<ele>274.5</ele>
<speed>65.6</speed>
<course>104.8</course>
<desc>Speed 65.6 km/h Distance 43.94 km</desc>
<time>2010-09-11T14:52:54.25</time>
<name>793</name>
</trkpt>
<trkpt lat="49.919460" lon="9.506605">
<ele>274.5</ele>
<speed>65.6</speed>
<course>129.0</course>
<desc>Speed 65.6 km/h Distance 43.98 km</desc>
<time>2010-09-11T14:52:56.24</time>
<name>794</name>
</trkpt>
<trkpt lat="49.915595" lon="9.514020">
<ele>273.5</ele>
<speed>81.3</speed>
<course>128.5</course>
<desc>Speed 81.3 km/h Distance 44.66 km</desc>
<time>2010-09-11T14:53:27.22</time>
<name>795</name>
</trkpt>
<trkpt lat="49.915128" lon="9.514932">
<ele>270.0</ele>
<speed>81.3</speed>
<course>128.3</course>
<desc>Speed 81.3 km/h Distance 44.75 km</desc>
<time>2010-09-11T14:53:30.21</time>
<name>796</name>
</trkpt>
<trkpt lat="49.893592" lon="9.557287">
<ele>273.0</ele>
<speed>81.3</speed>
<course>114.9</course>
<desc>Speed 81.3 km/h Distance 48.61 km</desc>
<time>2010-09-11T14:56:26.14</time>
<name>797</name>
</trkpt>
<trkpt lat="49.892470" lon="9.561045">
<ele>271.0</ele>
<speed>81.3</speed>
<course>133.8</course>
<desc>Speed 81.3 km/h Distance 48.91 km</desc>
<time>2010-09-11T14:56:32.11</time>
<name>798</name>
</trkpt>
<trkpt lat="49.891923" lon="9.561928">
<ele>274.0</ele>
<speed>81.3</speed>
<course>110.4</course>
<desc>Speed 81.3 km/h Distance 49.00 km</desc>
<time>2010-09-11T14:56:36.11</time>
<name>799</name>
</trkpt>
<trkpt lat="49.891778" lon="9.562533">
<ele>274.0</ele>
<speed>81.3</speed>
<course>110.4</course>
<desc>Speed 81.3 km/h Distance 49.05 km</desc>
<time>2010-09-11T14:56:38.09</time>
<name>800</name>
</trkpt>
<trkpt lat="49.891637" lon="9.563123">
<ele>274.0</ele>
<speed>81.3</speed>
<course>177.0</course>
<desc>Speed 81.3 km/h Distance 49.09 km</desc>
<time>2010-09-11T14:56:40.13</time>
<name>801</name>
</trkpt>
<trkpt lat="49.889610" lon="9.563287">
<ele>275.0</ele>
<speed>133</speed>
<course>147.2</course>
<desc>Speed 133 km/h Distance 49.32 km</desc>
<time>2010-09-11T14:56:42.11</time>
<name>802</name>
</trkpt>
<trkpt lat="49.888643" lon="9.564255">
<ele>275.0</ele>
<speed>133</speed>
<course>166.8</course>
<desc>Speed 133 km/h Distance 49.45 km</desc>
<time>2010-09-11T14:56:45.11</time>
<name>803</name>
</trkpt>
<trkpt lat="49.887987" lon="9.564493">
<ele>274.0</ele>
<speed>133</speed>
<course>93.5</course>
<desc>Speed 133 km/h Distance 49.52 km</desc>
<time>2010-09-11T14:56:47.11</time>
<name>804</name>
</trkpt>
<trkpt lat="49.887823" lon="9.568615">
<ele>269.5</ele>
<speed>133</speed>
<course>111.5</course>
<desc>Speed 133 km/h Distance 49.82 km</desc>
<time>2010-09-11T14:57:02.09</time>
<name>805</name>
</trkpt>
<trkpt lat="49.887550" lon="9.569692">
<ele>271.0</ele>
<speed>133</speed>
<course>140.0</course>
<desc>Speed 133 km/h Distance 49.90 km</desc>
<time>2010-09-11T14:57:07.11</time>
<name>806</name>
</trkpt>
<trkpt lat="49.887312" lon="9.570002">
<ele>267.5</ele>
<speed>8.5</speed>
<course>44.6</course>
<desc>Speed 8.5 km/h Distance 49.93 km</desc>
<time>2010-09-11T14:57:13.08</time>
<name>807</name>
</trkpt>
<trkpt lat="49.887368" lon="9.570088">
<ele>267.0</ele>
<speed>8.5</speed>
<course>57.7</course>
<desc>Speed 8.5 km/h Distance 49.94 km</desc>
<time>2010-09-11T14:57:15.08</time>
<name>808</name>
</trkpt>
<trkpt lat="49.887575" lon="9.570595">
<ele>262.0</ele>
<speed>38.7</speed>
<course>69.3</course>
<desc>Speed 38.7 km/h Distance 49.99 km</desc>
<time>2010-09-11T14:57:20.08</time>
<name>809</name>
</trkpt>
<trkpt lat="49.887625" lon="9.570800">
<ele>259.0</ele>
<speed>38.7</speed>
<course>136.5</course>
<desc>Speed 38.7 km/h Distance 50.00 km</desc>
<time>2010-09-11T14:57:24.07</time>
<name>810</name>
</trkpt>
<trkpt lat="49.886982" lon="9.571748">
<ele>256.5</ele>
<speed>38.7</speed>
<course>145.8</course>
<desc>Speed 38.7 km/h Distance 50.10 km</desc>
<time>2010-09-11T14:57:30.08</time>
<name>811</name>
</trkpt>
<trkpt lat="49.885410" lon="9.573403">
<ele>250.5</ele>
<speed>74.8</speed>
<course>118.4</course>
<desc>Speed 74.8 km/h Distance 50.31 km</desc>
<time>2010-09-11T14:57:36.07</time>
<name>812</name>
</trkpt>
<trkpt lat="49.885318" lon="9.573667">
<ele>249.0</ele>
<speed>73.0</speed>
<course>119.9</course>
<desc>Speed 73.0 km/h Distance 50.33 km</desc>
<time>2010-09-11T14:57:37.07</time>
<name>813</name>
</trkpt>
<trkpt lat="49.885225" lon="9.573918">
<ele>248.0</ele>
<speed>70.9</speed>
<course>118.6</course>
<desc>Speed 70.9 km/h Distance 50.35 km</desc>
<time>2010-09-11T14:57:38.07</time>
<name>814</name>
</trkpt>
<trkpt lat="49.885043" lon="9.574435">
<ele>246.5</ele>
<speed>69.6</speed>
<course>112.6</course>
<desc>Speed 69.6 km/h Distance 50.40 km</desc>
<time>2010-09-11T14:57:40.06</time>
<name>815</name>
</trkpt>
<trkpt lat="49.884975" lon="9.574690">
<ele>244.5</ele>
<speed>69.4</speed>
<course>98.6</course>
<desc>Speed 69.4 km/h Distance 50.42 km</desc>
<time>2010-09-11T14:57:41.06</time>
<name>816</name>
</trkpt>
<trkpt lat="49.884948" lon="9.574963">
<ele>242.5</ele>
<speed>68.7</speed>
<course>101.3</course>
<desc>Speed 68.7 km/h Distance 50.44 km</desc>
<time>2010-09-11T14:57:42.06</time>
<name>817</name>
</trkpt>
<trkpt lat="49.884875" lon="9.575533">
<ele>241.5</ele>
<speed>68.7</speed>
<course>128.5</course>
<desc>Speed 68.7 km/h Distance 50.48 km</desc>
<time>2010-09-11T14:57:45.06</time>
<name>818</name>
</trkpt>
<trkpt lat="49.884610" lon="9.576050">
<ele>242.5</ele>
<speed>59.9</speed>
<course>133.1</course>
<desc>Speed 59.9 km/h Distance 50.52 km</desc>
<time>2010-09-11T14:57:49.06</time>
<name>819</name>
</trkpt>
<trkpt lat="49.884387" lon="9.576420">
<ele>241.5</ele>
<speed>62.1</speed>
<course>120.7</course>
<desc>Speed 62.1 km/h Distance 50.56 km</desc>
<time>2010-09-11T14:57:51.06</time>
<name>820</name>
</trkpt>
<trkpt lat="49.884257" lon="9.576760">
<ele>242.0</ele>
<speed>62.1</speed>
<course>137.3</course>
<desc>Speed 62.1 km/h Distance 50.59 km</desc>
<time>2010-09-11T14:57:53.06</time>
<name>821</name>
</trkpt>
<trkpt lat="49.884002" lon="9.577125">
<ele>242.0</ele>
<speed>61.1</speed>
<course>142.9</course>
<desc>Speed 61.1 km/h Distance 50.63 km</desc>
<time>2010-09-11T14:57:55.06</time>
<name>822</name>
</trkpt>
<trkpt lat="49.883693" lon="9.577487">
<ele>242.5</ele>
<speed>61.1</speed>
<course>138.5</course>
<desc>Speed 61.1 km/h Distance 50.67 km</desc>
<time>2010-09-11T14:57:58.06</time>
<name>823</name>
</trkpt>
<trkpt lat="49.883237" lon="9.578113">
<ele>242.0</ele>
<speed>62.8</speed>
<course>131.6</course>
<desc>Speed 62.8 km/h Distance 50.74 km</desc>
<time>2010-09-11T14:58:01.05</time>
<name>824</name>
</trkpt>
<trkpt lat="49.883130" lon="9.578300">
<ele>242.0</ele>
<speed>56.5</speed>
<course>134.8</course>
<desc>Speed 56.5 km/h Distance 50.76 km</desc>
<time>2010-09-11T14:58:02.06</time>
<name>825</name>
</trkpt>
<trkpt lat="49.882893" lon="9.578670">
<ele>244.5</ele>
<speed>57.2</speed>
<course>132.6</course>
<desc>Speed 57.2 km/h Distance 50.79 km</desc>
<time>2010-09-11T14:58:04.05</time>
<name>826</name>
</trkpt>
<trkpt lat="49.882808" lon="9.578813">
<ele>244.0</ele>
<speed>57.2</speed>
<course>127.1</course>
<desc>Speed 57.2 km/h Distance 50.81 km</desc>
<time>2010-09-11T14:58:05.05</time>
<name>827</name>
</trkpt>
<trkpt lat="49.882643" lon="9.579152">
<ele>243.5</ele>
<speed>57.2</speed>
<course>138.2</course>
<desc>Speed 57.2 km/h Distance 50.84 km</desc>
<time>2010-09-11T14:58:08.07</time>
<name>828</name>
</trkpt>
<trkpt lat="49.882412" lon="9.579473">
<ele>243.0</ele>
<speed>61.3</speed>
<course>136.0</course>
<desc>Speed 61.3 km/h Distance 50.87 km</desc>
<time>2010-09-11T14:58:10.05</time>
<name>829</name>
</trkpt>
<trkpt lat="49.882163" lon="9.579845">
<ele>243.0</ele>
<speed>61.3</speed>
<course>127.8</course>
<desc>Speed 61.3 km/h Distance 50.91 km</desc>
<time>2010-09-11T14:58:12.05</time>
<name>830</name>
</trkpt>
<trkpt lat="49.882018" lon="9.580135">
<ele>243.5</ele>
<speed>61.3</speed>
<course>124.0</course>
<desc>Speed 61.3 km/h Distance 50.94 km</desc>
<time>2010-09-11T14:58:14.05</time>
<name>831</name>
</trkpt>
<trkpt lat="49.881942" lon="9.580312">
<ele>244.5</ele>
<speed>61.3</speed>
<course>134.3</course>
<desc>Speed 61.3 km/h Distance 50.95 km</desc>
<time>2010-09-11T14:58:15.05</time>
<name>832</name>
</trkpt>
<trkpt lat="49.881832" lon="9.580487">
<ele>245.5</ele>
<speed>61.3</speed>
<course>118.9</course>
<desc>Speed 61.3 km/h Distance 50.97 km</desc>
<time>2010-09-11T14:58:16.05</time>
<name>833</name>
</trkpt>
<trkpt lat="49.881683" lon="9.580903">
<ele>244.0</ele>
<speed>61.3</speed>
<course>119.3</course>
<desc>Speed 61.3 km/h Distance 51.01 km</desc>
<time>2010-09-11T14:58:18.05</time>
<name>834</name>
</trkpt>
<trkpt lat="49.881542" lon="9.581295">
<ele>241.0</ele>
<speed>61.8</speed>
<course>116.1</course>
<desc>Speed 61.8 km/h Distance 51.04 km</desc>
<time>2010-09-11T14:58:20.05</time>
<name>835</name>
</trkpt>
<trkpt lat="49.881470" lon="9.581522">
<ele>241.0</ele>
<speed>61.8</speed>
<course>107.2</course>
<desc>Speed 61.8 km/h Distance 51.06 km</desc>
<time>2010-09-11T14:58:21.04</time>
<name>836</name>
</trkpt>
<trkpt lat="49.881398" lon="9.581880">
<ele>239.0</ele>
<speed>61.8</speed>
<course>89.2</course>
<desc>Speed 61.8 km/h Distance 51.08 km</desc>
<time>2010-09-11T14:58:23.04</time>
<name>837</name>
</trkpt>
<trkpt lat="49.881410" lon="9.583185">
<ele>231.5</ele>
<speed>66.9</speed>
<course>104.0</course>
<desc>Speed 66.9 km/h Distance 51.18 km</desc>
<time>2010-09-11T14:58:27.04</time>
<name>838</name>
</trkpt>
<trkpt lat="49.881320" lon="9.583745">
<ele>227.0</ele>
<speed>66.6</speed>
<course>106.7</course>
<desc>Speed 66.6 km/h Distance 51.22 km</desc>
<time>2010-09-11T14:58:29.04</time>
<name>839</name>
</trkpt>
<trkpt lat="49.881238" lon="9.584168">
<ele>227.5</ele>
<speed>66.6</speed>
<course>113.1</course>
<desc>Speed 66.6 km/h Distance 51.25 km</desc>
<time>2010-09-11T14:58:31.04</time>
<name>840</name>
</trkpt>
<trkpt lat="49.881043" lon="9.584878">
<ele>223.0</ele>
<speed>66.6</speed>
<course>135.6</course>
<desc>Speed 66.6 km/h Distance 51.30 km</desc>
<time>2010-09-11T14:58:36.03</time>
<name>841</name>
</trkpt>
<trkpt lat="49.879700" lon="9.586922">
<ele>221.0</ele>
<speed>112</speed>
<course>138.9</course>
<desc>Speed 112 km/h Distance 51.51 km</desc>
<time>2010-09-11T14:58:42.03</time>
<name>842</name>
</trkpt>
<trkpt lat="49.879227" lon="9.587563">
<ele>220.0</ele>
<speed>109</speed>
<course>137.1</course>
<desc>Speed 109 km/h Distance 51.58 km</desc>
<time>2010-09-11T14:58:44.03</time>
<name>843</name>
</trkpt>
<trkpt lat="49.878837" lon="9.588125">
<ele>220.5</ele>
<speed>112</speed>
<course>137.4</course>
<desc>Speed 112 km/h Distance 51.64 km</desc>
<time>2010-09-11T14:58:46.03</time>
<name>844</name>
</trkpt>
<trkpt lat="49.878187" lon="9.589052">
<ele>230.5</ele>
<speed>112</speed>
<course>133.5</course>
<desc>Speed 112 km/h Distance 51.74 km</desc>
<time>2010-09-11T14:58:50.02</time>
<name>845</name>
</trkpt>
<trkpt lat="49.877570" lon="9.590058">
<ele>239.5</ele>
<speed>112</speed>
<course>163.6</course>
<desc>Speed 112 km/h Distance 51.84 km</desc>
<time>2010-09-11T14:58:56.02</time>
<name>846</name>
</trkpt>
<trkpt lat="49.876578" lon="9.590510">
<ele>241.5</ele>
<speed>112</speed>
<course>139.8</course>
<desc>Speed 112 km/h Distance 51.96 km</desc>
<time>2010-09-11T14:59:03.01</time>
<name>847</name>
</trkpt>
<trkpt lat="49.875107" lon="9.592437">
<ele>242.5</ele>
<speed>112</speed>
<course>156.5</course>
<desc>Speed 112 km/h Distance 52.17 km</desc>
<time>2010-09-11T14:59:06.01</time>
<name>848</name>
</trkpt>
<trkpt lat="49.872903" lon="9.593923">
<ele>241.0</ele>
<speed>112</speed>
<course>157.7</course>
<desc>Speed 112 km/h Distance 52.44 km</desc>
<time>2010-09-11T14:59:11.01</time>
<name>849</name>
</trkpt>
<trkpt lat="49.872547" lon="9.594150">
<ele>241.0</ele>
<speed>112</speed>
<course>113.6</course>
<desc>Speed 112 km/h Distance 52.48 km</desc>
<time>2010-09-11T14:59:13.00</time>
<name>850</name>
</trkpt>
<trkpt lat="49.872143" lon="9.595583">
<ele>241.0</ele>
<speed>112</speed>
<course>161.6</course>
<desc>Speed 112 km/h Distance 52.59 km</desc>
<time>2010-09-11T14:59:17.00</time>
<name>851</name>
</trkpt>
<trkpt lat="49.870732" lon="9.596313">
<ele>239.0</ele>
<speed>69.2</speed>
<course>167.5</course>
<desc>Speed 69.2 km/h Distance 52.76 km</desc>
<time>2010-09-11T14:59:23.00</time>
<name>852</name>
</trkpt>
<trkpt lat="49.869837" lon="9.596620">
<ele>240.0</ele>
<speed>69.2</speed>
<course>134.5</course>
<desc>Speed 69.2 km/h Distance 52.86 km</desc>
<time>2010-09-11T14:59:27.00</time>
<name>853</name>
</trkpt>
<trkpt lat="49.869530" lon="9.597105">
<ele>231.0</ele>
<speed>69.2</speed>
<course>112.9</course>
<desc>Speed 69.2 km/h Distance 52.91 km</desc>
<time>2010-09-11T14:59:31.99</time>
<name>854</name>
</trkpt>
<trkpt lat="49.869428" lon="9.597478">
<ele>227.0</ele>
<speed>69.2</speed>
<course>100.8</course>
<desc>Speed 69.2 km/h Distance 52.94 km</desc>
<time>2010-09-11T14:59:38.01</time>
<name>855</name>
</trkpt>
<trkpt lat="49.869350" lon="9.598115">
<ele>225.5</ele>
<speed>69.2</speed>
<course>91.9</course>
<desc>Speed 69.2 km/h Distance 52.98 km</desc>
<time>2010-09-11T14:59:43.99</time>
<name>856</name>
</trkpt>
<trkpt lat="49.869318" lon="9.599612">
<ele>224.5</ele>
<speed>59.1</speed>
<course>107.8</course>
<desc>Speed 59.1 km/h Distance 53.09 km</desc>
<time>2010-09-11T14:59:47.98</time>
<name>857</name>
</trkpt>
<trkpt lat="49.869063" lon="9.600847">
<ele>224.5</ele>
<speed>69.9</speed>
<course>91.7</course>
<desc>Speed 69.9 km/h Distance 53.19 km</desc>
<time>2010-09-11T14:59:51.99</time>
<name>858</name>
</trkpt>
<trkpt lat="49.869038" lon="9.602122">
<ele>225.0</ele>
<speed>24.6</speed>
<course>112.0</course>
<desc>Speed 24.6 km/h Distance 53.28 km</desc>
<time>2010-09-11T14:59:57.98</time>
<name>859</name>
</trkpt>
<trkpt lat="49.868880" lon="9.602728">
<ele>227.0</ele>
<speed>1.5</speed>
<course>107.2</course>
<desc>Speed 1.5 km/h Distance 53.32 km</desc>
<time>2010-09-11T15:00:01.97</time>
<name>860</name>
</trkpt>
<trkpt lat="49.868867" lon="9.602795">
<ele>226.5</ele>
<speed>1.5</speed>
<course>89.4</course>
<desc>Speed 1.5 km/h Distance 53.33 km</desc>
<time>2010-09-11T15:00:03.97</time>
<name>861</name>
</trkpt>
<trkpt lat="49.868868" lon="9.603037">
<ele>226.0</ele>
<speed>1.0</speed>
<course>79.7</course>
<desc>Speed 1.0 km/h Distance 53.35 km</desc>
<time>2010-09-11T15:00:06.98</time>
<name>862</name>
</trkpt>
<trkpt lat="49.868910" lon="9.603392">
<ele>225.0</ele>
<speed>1.2</speed>
<course>102.1</course>
<desc>Speed 1.2 km/h Distance 53.37 km</desc>
<time>2010-09-11T15:00:14.97</time>
<name>863</name>
</trkpt>
<trkpt lat="49.868843" lon="9.603873">
<ele>225.5</ele>
<speed>8.7</speed>
<course>23.8</course>
<desc>Speed 8.7 km/h Distance 53.41 km</desc>
<time>2010-09-11T15:00:19.95</time>
<name>864</name>
</trkpt>
<trkpt lat="49.868853" lon="9.603880">
<ele>225.5</ele>
<speed>8.7</speed>
<course>316.4</course>
<desc>Speed 8.7 km/h Distance 53.41 km</desc>
<time>2010-09-11T15:00:20.96</time>
<name>865</name>
</trkpt>
<trkpt lat="49.868895" lon="9.603818">
<ele>225.0</ele>
<speed>8.7</speed>
<course>341.2</course>
<desc>Speed 8.7 km/h Distance 53.42 km</desc>
<time>2010-09-11T15:00:22.94</time>
<name>866</name>
</trkpt>
<trkpt lat="49.868902" lon="9.603815">
<ele>225.0</ele>
<speed>8.7</speed>
<course>15.7</course>
<desc>Speed 8.7 km/h Distance 53.42 km</desc>
<time>2010-09-11T15:00:23.94</time>
<name>867</name>
</trkpt>
<trkpt lat="49.868907" lon="9.603817">
<ele>225.0</ele>
<speed>8.7</speed>
<course>351.6</course>
<desc>Speed 8.7 km/h Distance 53.42 km</desc>
<time>2010-09-11T15:00:24.94</time>
<name>868</name>
</trkpt>
<trkpt lat="49.869082" lon="9.603777">
<ele>225.0</ele>
<speed>8.7</speed>
<course>332.7</course>
<desc>Speed 8.7 km/h Distance 53.44 km</desc>
<time>2010-09-11T15:00:33.95</time>
<name>869</name>
</trkpt>
<trkpt lat="49.869098" lon="9.603763">
<ele>225.0</ele>
<speed>8.7</speed>
<course>297.3</course>
<desc>Speed 8.7 km/h Distance 53.44 km</desc>
<time>2010-09-11T15:00:34.95</time>
<name>870</name>
</trkpt>
<trkpt lat="49.869108" lon="9.603733">
<ele>225.0</ele>
<speed>8.7</speed>
<course>90.0</course>
<desc>Speed 8.7 km/h Distance 53.44 km</desc>
<time>2010-09-11T15:00:35.94</time>
<name>871</name>
</trkpt>
<trkpt lat="49.869108" lon="9.603742">
<ele>225.0</ele>
<speed>8.7</speed>
<course>202.2</course>
<desc>Speed 8.7 km/h Distance 53.44 km</desc>
<time>2010-09-11T15:00:36.95</time>
<name>872</name>
</trkpt>
<trkpt lat="49.869027" lon="9.603690">
<ele>225.0</ele>
<speed>8.7</speed>
<course>283.7</course>
<desc>Speed 8.7 km/h Distance 53.45 km</desc>
<time>2010-09-11T15:00:38.94</time>
<name>873</name>
</trkpt>
<trkpt lat="49.869045" lon="9.603573">
<ele>224.5</ele>
<speed>8.7</speed>
<course>128.1</course>
<desc>Speed 8.7 km/h Distance 53.46 km</desc>
<time>2010-09-11T15:00:40.95</time>
<name>874</name>
</trkpt>
<trkpt lat="49.869042" lon="9.603580">
<ele>224.5</ele>
<speed>8.7</speed>
<course>121.8</course>
<desc>Speed 8.7 km/h Distance 53.46 km</desc>
<time>2010-09-11T15:00:42.95</time>
<name>875</name>
</trkpt>
<trkpt lat="49.869035" lon="9.603597">
<ele>224.5</ele>
<speed>8.7</speed>
<course>25.2</course>
<desc>Speed 8.7 km/h Distance 53.46 km</desc>
<time>2010-09-11T15:00:44.94</time>
<name>876</name>
</trkpt>
<trkpt lat="49.869312" lon="9.603798">
<ele>224.5</ele>
<speed>8.7</speed>
<course>0.0</course>
<desc>Speed 8.7 km/h Distance 53.50 km</desc>
<time>2010-09-11T15:00:48.94</time>
<name>877</name>
</trkpt>
<trkpt lat="49.869628" lon="9.603798">
<ele>224.5</ele>
<speed>8.7</speed>
<course>21.9</course>
<desc>Speed 8.7 km/h Distance 53.53 km</desc>
<time>2010-09-11T15:00:51.94</time>
<name>878</name>
</trkpt>
<trkpt lat="49.869717" lon="9.603853">
<ele>224.5</ele>
<speed>8.7</speed>
<course>317.5</course>
<desc>Speed 8.7 km/h Distance 53.54 km</desc>
<time>2010-09-11T15:00:53.94</time>
<name>879</name>
</trkpt>
<trkpt lat="49.869737" lon="9.603825">
<ele>224.5</ele>
<speed>8.7</speed>
<course>301.3</course>
<desc>Speed 8.7 km/h Distance 53.54 km</desc>
<time>2010-09-11T15:00:54.93</time>
<name>880</name>
</trkpt>
<trkpt lat="49.869755" lon="9.603778">
<ele>224.5</ele>
<speed>8.7</speed>
<course>307.8</course>
<desc>Speed 8.7 km/h Distance 53.55 km</desc>
<time>2010-09-11T15:00:55.93</time>
<name>881</name>
</trkpt>
<trkpt lat="49.869765" lon="9.603758">
<ele>224.5</ele>
<speed>8.7</speed>
<course>320.3</course>
<desc>Speed 8.7 km/h Distance 53.55 km</desc>
<time>2010-09-11T15:00:56.94</time>
<name>882</name>
</trkpt>
<trkpt lat="49.869770" lon="9.603752">
<ele>224.5</ele>
<speed>8.7</speed>
<course>302.1</course>
<desc>Speed 8.7 km/h Distance 53.55 km</desc>
<time>2010-09-11T15:00:57.94</time>
<name>883</name>
</trkpt>
<trkpt lat="49.869773" lon="9.603743">
<ele>224.5</ele>
<speed>8.7</speed>
<course>294.0</course>
<desc>Speed 8.7 km/h Distance 53.55 km</desc>
<time>2010-09-11T15:00:58.94</time>
<name>884</name>
</trkpt>
<trkpt lat="49.869777" lon="9.603732">
<ele>224.5</ele>
<speed>8.7</speed>
<course>291.6</course>
<desc>Speed 8.7 km/h Distance 53.55 km</desc>
<time>2010-09-11T15:00:59.94</time>
<name>885</name>
</trkpt>
<trkpt lat="49.869778" lon="9.603725">
<ele>224.5</ele>
<speed>8.7</speed>
<course>291.9</course>
<desc>Speed 8.7 km/h Distance 53.55 km</desc>
<time>2010-09-11T15:01:00.91</time>
<name>886</name>
</trkpt>
<trkpt lat="49.869790" lon="9.603680">
<ele>224.5</ele>
<speed>8.7</speed>
<course>286.1</course>
<desc>Speed 8.7 km/h Distance 53.56 km</desc>
<time>2010-09-11T15:01:01.94</time>
<name>887</name>
</trkpt>
<trkpt lat="49.869803" lon="9.603608">
<ele>224.5</ele>
<speed>8.7</speed>
<course>10.9</course>
<desc>Speed 8.7 km/h Distance 53.56 km</desc>
<time>2010-09-11T15:01:03.93</time>
<name>888</name>
</trkpt>
<trkpt lat="49.871145" lon="9.604008">
<ele>224.0</ele>
<speed>8.7</speed>
<course>331.2</course>
<desc>Speed 8.7 km/h Distance 53.71 km</desc>
<time>2010-09-11T15:01:08.91</time>
<name>889</name>
</trkpt>
<trkpt lat="49.871860" lon="9.603398">
<ele>223.5</ele>
<speed>8.7</speed>
<course>355.5</course>
<desc>Speed 8.7 km/h Distance 53.80 km</desc>
<time>2010-09-11T15:01:13.93</time>
<name>890</name>
</trkpt>
<trkpt lat="49.872942" lon="9.603267">
<ele>223.0</ele>
<speed>54.3</speed>
<course>351.4</course>
<desc>Speed 54.3 km/h Distance 53.93 km</desc>
<time>2010-09-11T15:01:19.92</time>
<name>891</name>
</trkpt>
<trkpt lat="49.873588" lon="9.603115">
<ele>223.0</ele>
<speed>52.0</speed>
<course>356.9</course>
<desc>Speed 52.0 km/h Distance 54.00 km</desc>
<time>2010-09-11T15:01:23.92</time>
<name>892</name>
</trkpt>
<trkpt lat="49.873708" lon="9.603105">
<ele>222.5</ele>
<speed>52.0</speed>
<course>326.9</course>
<desc>Speed 52.0 km/h Distance 54.01 km</desc>
<time>2010-09-11T15:01:24.92</time>
<name>893</name>
</trkpt>
<trkpt lat="49.874052" lon="9.602758">
<ele>223.0</ele>
<speed>57.3</speed>
<course>325.4</course>
<desc>Speed 57.3 km/h Distance 54.06 km</desc>
<time>2010-09-11T15:01:28.92</time>
<name>894</name>
</trkpt>
<trkpt lat="49.874312" lon="9.602480">
<ele>223.0</ele>
<speed>57.3</speed>
<course>335.1</course>
<desc>Speed 57.3 km/h Distance 54.09 km</desc>
<time>2010-09-11T15:01:30.92</time>
<name>895</name>
</trkpt>
<trkpt lat="49.875183" lon="9.601852">
<ele>222.5</ele>
<speed>72.3</speed>
<course>349.9</course>
<desc>Speed 72.3 km/h Distance 54.20 km</desc>
<time>2010-09-11T15:01:35.94</time>
<name>896</name>
</trkpt>
<trkpt lat="49.875365" lon="9.601802">
<ele>222.0</ele>
<speed>72.3</speed>
<course>350.7</course>
<desc>Speed 72.3 km/h Distance 54.22 km</desc>
<time>2010-09-11T15:01:36.92</time>
<name>897</name>
</trkpt>
<trkpt lat="49.876965" lon="9.601393">
<ele>217.0</ele>
<speed>98.1</speed>
<course>349.3</course>
<desc>Speed 98.1 km/h Distance 54.40 km</desc>
<time>2010-09-11T15:01:42.92</time>
<name>898</name>
</trkpt>
<trkpt lat="49.877490" lon="9.601240">
<ele>216.5</ele>
<speed>104</speed>
<course>341.9</course>
<desc>Speed 104 km/h Distance 54.46 km</desc>
<time>2010-09-11T15:01:44.91</time>
<name>899</name>
</trkpt>
<trkpt lat="49.878003" lon="9.600980">
<ele>217.0</ele>
<speed>106</speed>
<course>343.3</course>
<desc>Speed 106 km/h Distance 54.52 km</desc>
<time>2010-09-11T15:01:46.92</time>
<name>900</name>
</trkpt>
<trkpt lat="49.878545" lon="9.600728">
<ele>216.5</ele>
<speed>112</speed>
<course>341.2</course>
<desc>Speed 112 km/h Distance 54.58 km</desc>
<time>2010-09-11T15:01:48.92</time>
<name>901</name>
</trkpt>
<trkpt lat="49.879068" lon="9.600452">
<ele>216.0</ele>
<speed>112</speed>
<course>342.7</course>
<desc>Speed 112 km/h Distance 54.64 km</desc>
<time>2010-09-11T15:01:50.91</time>
<name>902</name>
</trkpt>
<trkpt lat="49.879918" lon="9.600042">
<ele>217.5</ele>
<speed>112</speed>
<course>341.6</course>
<desc>Speed 112 km/h Distance 54.74 km</desc>
<time>2010-09-11T15:01:53.91</time>
<name>903</name>
</trkpt>
<trkpt lat="49.881998" lon="9.598968">
<ele>226.0</ele>
<speed>153</speed>
<course>333.8</course>
<desc>Speed 153 km/h Distance 54.99 km</desc>
<time>2010-09-11T15:01:59.91</time>
<name>904</name>
</trkpt>
<trkpt lat="49.882692" lon="9.598438">
<ele>222.0</ele>
<speed>153</speed>
<course>344.2</course>
<desc>Speed 153 km/h Distance 55.07 km</desc>
<time>2010-09-11T15:02:01.90</time>
<name>905</name>
</trkpt>
<trkpt lat="49.883923" lon="9.597897">
<ele>208.0</ele>
<speed>124</speed>
<course>347.3</course>
<desc>Speed 124 km/h Distance 55.22 km</desc>
<time>2010-09-11T15:02:05.90</time>
<name>906</name>
</trkpt>
<trkpt lat="49.884462" lon="9.597708">
<ele>203.5</ele>
<speed>124</speed>
<course>337.9</course>
<desc>Speed 124 km/h Distance 55.28 km</desc>
<time>2010-09-11T15:02:07.89</time>
<name>907</name>
</trkpt>
<trkpt lat="49.885295" lon="9.597183">
<ele>211.0</ele>
<speed>124</speed>
<course>314.4</course>
<desc>Speed 124 km/h Distance 55.38 km</desc>
<time>2010-09-11T15:02:12.90</time>
<name>908</name>
</trkpt>
<trkpt lat="49.885682" lon="9.596570">
<ele>208.0</ele>
<speed>24.8</speed>
<course>295.0</course>
<desc>Speed 24.8 km/h Distance 55.44 km</desc>
<time>2010-09-11T15:02:18.89</time>
<name>909</name>
</trkpt>
<trkpt lat="49.885727" lon="9.596420">
<ele>202.0</ele>
<speed>24.8</speed>
<course>276.9</course>
<desc>Speed 24.8 km/h Distance 55.45 km</desc>
<time>2010-09-11T15:02:20.89</time>
<name>910</name>
</trkpt>
<trkpt lat="49.885735" lon="9.596313">
<ele>201.0</ele>
<speed>24.8</speed>
<course>283.6</course>
<desc>Speed 24.8 km/h Distance 55.46 km</desc>
<time>2010-09-11T15:02:22.89</time>
<name>911</name>
</trkpt>
<trkpt lat="49.885778" lon="9.596035">
<ele>191.5</ele>
<speed>24.8</speed>
<course>312.7</course>
<desc>Speed 24.8 km/h Distance 55.48 km</desc>
<time>2010-09-11T15:02:24.89</time>
<name>912</name>
</trkpt>
<trkpt lat="49.885842" lon="9.595928">
<ele>193.0</ele>
<speed>24.8</speed>
<course>310.4</course>
<desc>Speed 24.8 km/h Distance 55.49 km</desc>
<time>2010-09-11T15:02:26.88</time>
<name>913</name>
</trkpt>
<trkpt lat="49.885880" lon="9.595858">
<ele>192.5</ele>
<speed>24.8</speed>
<course>330.2</course>
<desc>Speed 24.8 km/h Distance 55.50 km</desc>
<time>2010-09-11T15:02:28.88</time>
<name>914</name>
</trkpt>
<trkpt lat="49.886345" lon="9.595445">
<ele>193.5</ele>
<speed>24.8</speed>
<course>334.3</course>
<desc>Speed 24.8 km/h Distance 55.56 km</desc>
<time>2010-09-11T15:02:33.88</time>
<name>915</name>
</trkpt>
<trkpt lat="49.887610" lon="9.594500">
<ele>195.5</ele>
<speed>24.8</speed>
<course>299.5</course>
<desc>Speed 24.8 km/h Distance 55.71 km</desc>
<time>2010-09-11T15:02:35.89</time>
<name>916</name>
</trkpt>
<trkpt lat="49.888160" lon="9.592993">
<ele>195.5</ele>
<speed>24.8</speed>
<course>343.3</course>
<desc>Speed 24.8 km/h Distance 55.84 km</desc>
<time>2010-09-11T15:02:41.88</time>
<name>917</name>
</trkpt>
<trkpt lat="49.889727" lon="9.592265">
<ele>196.0</ele>
<speed>79.3</speed>
<course>314.9</course>
<desc>Speed 79.3 km/h Distance 56.02 km</desc>
<time>2010-09-11T15:02:47.87</time>
<name>918</name>
</trkpt>
<trkpt lat="49.890038" lon="9.591780">
<ele>198.0</ele>
<speed>79.3</speed>
<course>314.5</course>
<desc>Speed 79.3 km/h Distance 56.07 km</desc>
<time>2010-09-11T15:02:49.87</time>
<name>919</name>
</trkpt>
<trkpt lat="49.890295" lon="9.591375">
<ele>197.5</ele>
<speed>66.6</speed>
<course>316.5</course>
<desc>Speed 66.6 km/h Distance 56.11 km</desc>
<time>2010-09-11T15:02:51.88</time>
<name>920</name>
</trkpt>
<trkpt lat="49.890412" lon="9.591203">
<ele>197.5</ele>
<speed>66.6</speed>
<course>279.4</course>
<desc>Speed 66.6 km/h Distance 56.13 km</desc>
<time>2010-09-11T15:02:52.86</time>
<name>921</name>
</trkpt>
<trkpt lat="49.890510" lon="9.590283">
<ele>198.5</ele>
<speed>67.8</speed>
<course>288.7</course>
<desc>Speed 67.8 km/h Distance 56.19 km</desc>
<time>2010-09-11T15:02:55.86</time>
<name>922</name>
</trkpt>
<trkpt lat="49.890670" lon="9.589548">
<ele>199.5</ele>
<speed>67.5</speed>
<course>289.5</course>
<desc>Speed 67.5 km/h Distance 56.25 km</desc>
<time>2010-09-11T15:02:58.87</time>
<name>923</name>
</trkpt>
<trkpt lat="49.890727" lon="9.589300">
<ele>199.5</ele>
<speed>67.5</speed>
<course>292.3</course>
<desc>Speed 67.5 km/h Distance 56.27 km</desc>
<time>2010-09-11T15:02:59.86</time>
<name>924</name>
</trkpt>
<trkpt lat="49.890832" lon="9.588903">
<ele>201.5</ele>
<speed>67.5</speed>
<course>287.2</course>
<desc>Speed 67.5 km/h Distance 56.30 km</desc>
<time>2010-09-11T15:03:01.86</time>
<name>925</name>
</trkpt>
<trkpt lat="49.890933" lon="9.588393">
<ele>203.5</ele>
<speed>59.9</speed>
<course>289.7</course>
<desc>Speed 59.9 km/h Distance 56.34 km</desc>
<time>2010-09-11T15:03:03.87</time>
<name>926</name>
</trkpt>
<trkpt lat="49.891047" lon="9.587903">
<ele>203.0</ele>
<speed>52.5</speed>
<course>296.7</course>
<desc>Speed 52.5 km/h Distance 56.37 km</desc>
<time>2010-09-11T15:03:05.86</time>
<name>927</name>
</trkpt>
<trkpt lat="49.891177" lon="9.587502">
<ele>203.5</ele>
<speed>48.1</speed>
<course>299.7</course>
<desc>Speed 48.1 km/h Distance 56.41 km</desc>
<time>2010-09-11T15:03:07.86</time>
<name>928</name>
</trkpt>
<trkpt lat="49.891260" lon="9.587275">
<ele>204.5</ele>
<speed>48.1</speed>
<course>313.8</course>
<desc>Speed 48.1 km/h Distance 56.43 km</desc>
<time>2010-09-11T15:03:09.85</time>
<name>929</name>
</trkpt>
<trkpt lat="49.891408" lon="9.587035">
<ele>207.0</ele>
<speed>48.1</speed>
<course>355.3</course>
<desc>Speed 48.1 km/h Distance 56.45 km</desc>
<time>2010-09-11T15:03:14.85</time>
<name>930</name>
</trkpt>
<trkpt lat="49.891567" lon="9.587015">
<ele>214.0</ele>
<speed>3.1</speed>
<course>110.9</course>
<desc>Speed 3.1 km/h Distance 56.47 km</desc>
<time>2010-09-11T15:03:19.85</time>
<name>931</name>
</trkpt>
<trkpt lat="49.891565" lon="9.587022">
<ele>214.0</ele>
<speed>0.8</speed>
<course>100.9</course>
<desc>Speed 0.8 km/h Distance 56.47 km</desc>
<time>2010-09-11T15:03:20.85</time>
<name>932</name>
</trkpt>
<trkpt lat="49.891563" lon="9.587035">
<ele>214.5</ele>
<speed>1.5</speed>
<course>322.8</course>
<desc>Speed 1.5 km/h Distance 56.47 km</desc>
<time>2010-09-11T15:03:21.85</time>
<name>933</name>
</trkpt>
<trkpt lat="49.891565" lon="9.587033">
<ele>214.5</ele>
<speed>1.0</speed>
<course>276.8</course>
<desc>Speed 1.0 km/h Distance 56.47 km</desc>
<time>2010-09-11T15:03:22.85</time>
<name>934</name>
</trkpt>
<trkpt lat="49.891567" lon="9.587012">
<ele>215.0</ele>
<speed>3.3</speed>
<course>276.8</course>
<desc>Speed 3.3 km/h Distance 56.47 km</desc>
<time>2010-09-11T15:03:23.85</time>
<name>935</name>
</trkpt>
<trkpt lat="49.891568" lon="9.586990">
<ele>215.0</ele>
<speed>2.1</speed>
<course>279.8</course>
<desc>Speed 2.1 km/h Distance 56.47 km</desc>
<time>2010-09-11T15:03:24.85</time>
<name>936</name>
</trkpt>
<trkpt lat="49.891570" lon="9.586975">
<ele>215.5</ele>
<speed>0.8</speed>
<course>305.3</course>
<desc>Speed 0.8 km/h Distance 56.47 km</desc>
<time>2010-09-11T15:03:25.85</time>
<name>937</name>
</trkpt>
<trkpt lat="49.891578" lon="9.586957">
<ele>219.5</ele>
<speed>1.2</speed>
<course>10.1</course>
<desc>Speed 1.2 km/h Distance 56.47 km</desc>
<time>2010-09-11T15:03:26.84</time>
<name>938</name>
</trkpt>
<trkpt lat="49.891608" lon="9.586965">
<ele>225.0</ele>
<speed>2.3</speed>
<course>20.4</course>
<desc>Speed 2.3 km/h Distance 56.48 km</desc>
<time>2010-09-11T15:03:28.84</time>
<name>939</name>
</trkpt>
<trkpt lat="49.891652" lon="9.586990">
<ele>231.5</ele>
<speed>13.3</speed>
<course>48.9</course>
<desc>Speed 13.3 km/h Distance 56.48 km</desc>
<time>2010-09-11T15:03:30.84</time>
<name>940</name>
</trkpt>
<trkpt lat="49.891820" lon="9.587290">
<ele>242.5</ele>
<speed>28.7</speed>
<course>43.1</course>
<desc>Speed 28.7 km/h Distance 56.51 km</desc>
<time>2010-09-11T15:03:33.84</time>
<name>941</name>
</trkpt>
<trkpt lat="49.891975" lon="9.587515">
<ele>247.0</ele>
<speed>30.0</speed>
<course>28.3</course>
<desc>Speed 30.0 km/h Distance 56.54 km</desc>
<time>2010-09-11T15:03:35.84</time>
<name>942</name>
</trkpt>
<trkpt lat="49.892047" lon="9.587575">
<ele>248.0</ele>
<speed>29.4</speed>
<course>31.4</course>
<desc>Speed 29.4 km/h Distance 56.54 km</desc>
<time>2010-09-11T15:03:36.84</time>
<name>943</name>
</trkpt>
<trkpt lat="49.892112" lon="9.587637">
<ele>249.0</ele>
<speed>26.2</speed>
<course>6.0</course>
<desc>Speed 26.2 km/h Distance 56.55 km</desc>
<time>2010-09-11T15:03:37.83</time>
<name>944</name>
</trkpt>
<trkpt lat="49.892163" lon="9.587645">
<ele>248.0</ele>
<speed>21.6</speed>
<course>0.4</course>
<desc>Speed 21.6 km/h Distance 56.56 km</desc>
<time>2010-09-11T15:03:38.84</time>
<name>945</name>
</trkpt>
<trkpt lat="49.892212" lon="9.587645">
<ele>248.0</ele>
<speed>21.6</speed>
<course>352.2</course>
<desc>Speed 21.6 km/h Distance 56.56 km</desc>
<time>2010-09-11T15:03:39.84</time>
<name>946</name>
</trkpt>
<trkpt lat="49.892250" lon="9.587637">
<ele>248.5</ele>
<speed>21.6</speed>
<course>355.2</course>
<desc>Speed 21.6 km/h Distance 56.57 km</desc>
<time>2010-09-11T15:03:40.83</time>
<name>947</name>
</trkpt>
<trkpt lat="49.892340" lon="9.587625">
<ele>248.5</ele>
<speed>24.4</speed>
<course>358.6</course>
<desc>Speed 24.4 km/h Distance 56.58 km</desc>
<time>2010-09-11T15:03:42.83</time>
<name>948</name>
</trkpt>
<trkpt lat="49.892612" lon="9.587615">
<ele>249.5</ele>
<speed>22.1</speed>
<course>349.9</course>
<desc>Speed 22.1 km/h Distance 56.61 km</desc>
<time>2010-09-11T15:03:46.83</time>
<name>949</name>
</trkpt>
<trkpt lat="49.892672" lon="9.587598">
<ele>249.5</ele>
<speed>22.1</speed>
<course>353.9</course>
<desc>Speed 22.1 km/h Distance 56.62 km</desc>
<time>2010-09-11T15:03:47.83</time>
<name>950</name>
</trkpt>
<trkpt lat="49.892732" lon="9.587588">
<ele>250.5</ele>
<speed>22.1</speed>
<course>349.7</course>
<desc>Speed 22.1 km/h Distance 56.62 km</desc>
<time>2010-09-11T15:03:49.82</time>
<name>951</name>
</trkpt>
<trkpt lat="49.892797" lon="9.587570">
<ele>252.0</ele>
<speed>22.1</speed>
<course>1.1</course>
<desc>Speed 22.1 km/h Distance 56.63 km</desc>
<time>2010-09-11T15:03:51.83</time>
<name>952</name>
</trkpt>
<trkpt lat="49.892840" lon="9.587570">
<ele>253.0</ele>
<speed>22.1</speed>
<course>37.8</course>
<desc>Speed 22.1 km/h Distance 56.63 km</desc>
<time>2010-09-11T15:03:52.82</time>
<name>953</name>
</trkpt>
<trkpt lat="49.892857" lon="9.587590">
<ele>254.0</ele>
<speed>6.6</speed>
<course>198.8</course>
<desc>Speed 6.6 km/h Distance 56.64 km</desc>
<time>2010-09-11T15:03:55.82</time>
<name>954</name>
</trkpt>
<trkpt lat="49.892853" lon="9.587588">
<ele>254.0</ele>
<speed>6.6</speed>
<course>161.2</course>
<desc>Speed 6.6 km/h Distance 56.64 km</desc>
<time>2010-09-11T15:03:56.82</time>
<name>955</name>
</trkpt>
<trkpt lat="49.892850" lon="9.587590">
<ele>254.0</ele>
<speed>6.6</speed>
<course>270.0</course>
<desc>Speed 6.6 km/h Distance 56.64 km</desc>
<time>2010-09-11T15:03:57.82</time>
<name>956</name>
</trkpt>
<trkpt lat="49.892850" lon="9.587588">
<ele>254.5</ele>
<speed>6.6</speed>
<course>150.8</course>
<desc>Speed 6.6 km/h Distance 56.64 km</desc>
<time>2010-09-11T15:03:58.81</time>
<name>957</name>
</trkpt>
<trkpt lat="49.892848" lon="9.587590">
<ele>255.0</ele>
<speed>6.6</speed>
<course>357.3</course>
<desc>Speed 6.6 km/h Distance 56.64 km</desc>
<time>2010-09-11T15:03:59.81</time>
<name>958</name>
</trkpt>
<trkpt lat="49.892868" lon="9.587588">
<ele>255.0</ele>
<speed>0.7</speed>
<course>0.0</course>
<desc>Speed 0.7 km/h Distance 56.64 km</desc>
<time>2010-09-11T15:04:00.81</time>
<name>959</name>
</trkpt>
<trkpt lat="49.892880" lon="9.587588">
<ele>255.0</ele>
<speed>0.7</speed>
<course>292.9</course>
<desc>Speed 0.7 km/h Distance 56.64 km</desc>
<time>2010-09-11T15:04:01.81</time>
<name>960</name>
</trkpt>
<trkpt lat="49.892885" lon="9.587570">
<ele>255.0</ele>
<speed>0.7</speed>
<course>270.0</course>
<desc>Speed 0.7 km/h Distance 56.64 km</desc>
<time>2010-09-11T15:04:02.81</time>
<name>961</name>
</trkpt>
<trkpt lat="49.892885" lon="9.587563">
<ele>255.5</ele>
<speed>0.7</speed>
<course>21.5</course>
<desc>Speed 0.7 km/h Distance 56.64 km</desc>
<time>2010-09-11T15:04:03.81</time>
<name>962</name>
</trkpt>
<trkpt lat="49.892893" lon="9.587568">
<ele>255.5</ele>
<speed>2.3</speed>
<course>336.2</course>
<desc>Speed 2.3 km/h Distance 56.64 km</desc>
<time>2010-09-11T15:04:04.81</time>
<name>963</name>
</trkpt>
<trkpt lat="49.892898" lon="9.587565">
<ele>255.5</ele>
<speed>2.3</speed>
<course>12.6</course>
<desc>Speed 2.3 km/h Distance 56.64 km</desc>
<time>2010-09-11T15:04:05.81</time>
<name>964</name>
</trkpt>
<trkpt lat="49.892902" lon="9.587567">
<ele>255.5</ele>
<speed>2.3</speed>
<course>33.7</course>
<desc>Speed 2.3 km/h Distance 56.64 km</desc>
<time>2010-09-11T15:04:06.81</time>
<name>965</name>
</trkpt>
<trkpt lat="49.892905" lon="9.587570">
<ele>255.5</ele>
<speed>2.3</speed>
<course>90.0</course>
<desc>Speed 2.3 km/h Distance 56.65 km</desc>
<time>2010-09-11T15:04:07.81</time>
<name>966</name>
</trkpt>
<trkpt lat="49.892905" lon="9.587583">
<ele>256.0</ele>
<speed>2.3</speed>
<course>62.6</course>
<desc>Speed 2.3 km/h Distance 56.65 km</desc>
<time>2010-09-11T15:04:08.81</time>
<name>967</name>
</trkpt>
<trkpt lat="49.892907" lon="9.587588">
<ele>256.0</ele>
<speed>2.3</speed>
<course>12.6</course>
<desc>Speed 2.3 km/h Distance 56.65 km</desc>
<time>2010-09-11T15:04:09.81</time>
<name>968</name>
</trkpt>
<trkpt lat="49.892908" lon="9.587588">
<ele>256.0</ele>
<speed>2.3</speed>
<course>198.2</course>
<desc>Speed 2.3 km/h Distance 56.65 km</desc>
<time>2010-09-11T15:04:10.81</time>
<name>969</name>
</trkpt>
<trkpt lat="49.892898" lon="9.587583">
<ele>256.0</ele>
<speed>3.2</speed>
<course>205.6</course>
<desc>Speed 3.2 km/h Distance 56.65 km</desc>
<time>2010-09-11T15:04:11.81</time>
<name>970</name>
</trkpt>
<trkpt lat="49.892892" lon="9.587578">
<ele>255.5</ele>
<speed>3.2</speed>
<course>251.6</course>
<desc>Speed 3.2 km/h Distance 56.65 km</desc>
<time>2010-09-11T15:04:12.81</time>
<name>971</name>
</trkpt>
<trkpt lat="49.892872" lon="9.587485">
<ele>256.5</ele>
<speed>3.2</speed>
<course>160.4</course>
<desc>Speed 3.2 km/h Distance 56.66 km</desc>
<time>2010-09-11T15:04:14.81</time>
<name>972</name>
</trkpt>
<trkpt lat="49.892823" lon="9.587512">
<ele>256.5</ele>
<speed>9.5</speed>
<course>138.0</course>
<desc>Speed 9.5 km/h Distance 56.66 km</desc>
<time>2010-09-11T15:04:16.80</time>
<name>973</name>
</trkpt>
<trkpt lat="49.892798" lon="9.587547">
<ele>255.5</ele>
<speed>13.3</speed>
<course>141.1</course>
<desc>Speed 13.3 km/h Distance 56.67 km</desc>
<time>2010-09-11T15:04:17.81</time>
<name>974</name>
</trkpt>
<trkpt lat="49.892778" lon="9.587572">
<ele>256.0</ele>
<speed>13.3</speed>
<course>172.6</course>
<desc>Speed 13.3 km/h Distance 56.67 km</desc>
<time>2010-09-11T15:04:18.81</time>
<name>975</name>
</trkpt>
<trkpt lat="49.892737" lon="9.587580">
<ele>256.0</ele>
<speed>13.3</speed>
<course>180.5</course>
<desc>Speed 13.3 km/h Distance 56.67 km</desc>
<time>2010-09-11T15:04:19.81</time>
<name>976</name>
</trkpt>
<trkpt lat="49.892400" lon="9.587575">
<ele>257.5</ele>
<speed>23.1</speed>
<course>168.8</course>
<desc>Speed 23.1 km/h Distance 56.71 km</desc>
<time>2010-09-11T15:04:23.80</time>
<name>977</name>
</trkpt>
<trkpt lat="49.892357" lon="9.587588">
<ele>258.0</ele>
<speed>23.1</speed>
<course>177.8</course>
<desc>Speed 23.1 km/h Distance 56.72 km</desc>
<time>2010-09-11T15:04:24.80</time>
<name>978</name>
</trkpt>
<trkpt lat="49.892245" lon="9.587595">
<ele>262.0</ele>
<speed>10.9</speed>
<course>141.8</course>
<desc>Speed 10.9 km/h Distance 56.73 km</desc>
<time>2010-09-11T15:04:26.80</time>
<name>979</name>
</trkpt>
<trkpt lat="49.892215" lon="9.587632">
<ele>262.5</ele>
<speed>11.9</speed>
<course>130.6</course>
<desc>Speed 11.9 km/h Distance 56.73 km</desc>
<time>2010-09-11T15:04:27.79</time>
<name>980</name>
</trkpt>
<trkpt lat="49.892188" lon="9.587680">
<ele>263.0</ele>
<speed>11.9</speed>
<course>78.5</course>
<desc>Speed 11.9 km/h Distance 56.74 km</desc>
<time>2010-09-11T15:04:28.80</time>
<name>981</name>
</trkpt>
<trkpt lat="49.892197" lon="9.587743">
<ele>263.0</ele>
<speed>14.6</speed>
<course>79.9</course>
<desc>Speed 14.6 km/h Distance 56.74 km</desc>
<time>2010-09-11T15:04:29.79</time>
<name>982</name>
</trkpt>
<trkpt lat="49.892203" lon="9.587802">
<ele>263.5</ele>
<speed>14.6</speed>
<course>84.8</course>
<desc>Speed 14.6 km/h Distance 56.75 km</desc>
<time>2010-09-11T15:04:30.79</time>
<name>983</name>
</trkpt>
<trkpt lat="49.892207" lon="9.587858">
<ele>264.5</ele>
<speed>14.6</speed>
<course>74.7</course>
<desc>Speed 14.6 km/h Distance 56.75 km</desc>
<time>2010-09-11T15:04:31.79</time>
<name>984</name>
</trkpt>
<trkpt lat="49.892212" lon="9.587887">
<ele>264.5</ele>
<speed>14.6</speed>
<course>137.7</course>
<desc>Speed 14.6 km/h Distance 56.75 km</desc>
<time>2010-09-11T15:04:32.79</time>
<name>985</name>
</trkpt>
<trkpt lat="49.892183" lon="9.587927">
<ele>265.0</ele>
<speed>15.2</speed>
<course>80.6</course>
<desc>Speed 15.2 km/h Distance 56.76 km</desc>
<time>2010-09-11T15:04:33.79</time>
<name>986</name>
</trkpt>
<trkpt lat="49.892188" lon="9.587973">
<ele>265.5</ele>
<speed>11.8</speed>
<course>98.5</course>
<desc>Speed 11.8 km/h Distance 56.76 km</desc>
<time>2010-09-11T15:04:34.80</time>
<name>987</name>
</trkpt>
<trkpt lat="49.892183" lon="9.588025">
<ele>266.5</ele>
<speed>11.9</speed>
<course>124.2</course>
<desc>Speed 11.9 km/h Distance 56.76 km</desc>
<time>2010-09-11T15:04:35.80</time>
<name>988</name>
</trkpt>
<trkpt lat="49.892160" lon="9.588078">
<ele>267.5</ele>
<speed>12.2</speed>
<course>115.9</course>
<desc>Speed 12.2 km/h Distance 56.77 km</desc>
<time>2010-09-11T15:04:36.79</time>
<name>989</name>
</trkpt>
<trkpt lat="49.892143" lon="9.588132">
<ele>268.0</ele>
<speed>9.9</speed>
<course>103.2</course>
<desc>Speed 9.9 km/h Distance 56.77 km</desc>
<time>2010-09-11T15:04:37.78</time>
<name>990</name>
</trkpt>
<trkpt lat="49.892135" lon="9.588187">
<ele>269.0</ele>
<speed>9.4</speed>
<course>134.1</course>
<desc>Speed 9.4 km/h Distance 56.78 km</desc>
<time>2010-09-11T15:04:38.78</time>
<name>991</name>
</trkpt>
<trkpt lat="49.892118" lon="9.588213">
<ele>269.5</ele>
<speed>9.4</speed>
<course>114.4</course>
<desc>Speed 9.4 km/h Distance 56.78 km</desc>
<time>2010-09-11T15:04:39.79</time>
<name>992</name>
</trkpt>
<trkpt lat="49.892107" lon="9.588253">
<ele>269.5</ele>
<speed>11.3</speed>
<course>138.3</course>
<desc>Speed 11.3 km/h Distance 56.78 km</desc>
<time>2010-09-11T15:04:40.78</time>
<name>993</name>
</trkpt>
<trkpt lat="49.892085" lon="9.588283">
<ele>269.5</ele>
<speed>11.8</speed>
<course>115.0</course>
<desc>Speed 11.8 km/h Distance 56.79 km</desc>
<time>2010-09-11T15:04:41.79</time>
<name>994</name>
</trkpt>
<trkpt lat="49.892075" lon="9.588317">
<ele>269.5</ele>
<speed>9.9</speed>
<course>56.4</course>
<desc>Speed 9.9 km/h Distance 56.79 km</desc>
<time>2010-09-11T15:04:42.79</time>
<name>995</name>
</trkpt>
<trkpt lat="49.892090" lon="9.588352">
<ele>269.5</ele>
<speed>9.8</speed>
<course>93.4</course>
<desc>Speed 9.8 km/h Distance 56.79 km</desc>
<time>2010-09-11T15:04:43.79</time>
<name>996</name>
</trkpt>
<trkpt lat="49.892088" lon="9.588395">
<ele>269.5</ele>
<speed>11.1</speed>
<course>80.7</course>
<desc>Speed 11.1 km/h Distance 56.79 km</desc>
<time>2010-09-11T15:04:44.79</time>
<name>997</name>
</trkpt>
<trkpt lat="49.892092" lon="9.588427">
<ele>269.5</ele>
<speed>11.1</speed>
<course>100.4</course>
<desc>Speed 11.1 km/h Distance 56.80 km</desc>
<time>2010-09-11T15:04:45.79</time>
<name>998</name>
</trkpt>
<trkpt lat="49.892088" lon="9.588455">
<ele>269.5</ele>
<speed>11.1</speed>
<course>90.0</course>
<desc>Speed 11.1 km/h Distance 56.80 km</desc>
<time>2010-09-11T15:04:46.79</time>
<name>999</name>
</trkpt>
<trkpt lat="49.892088" lon="9.588473">
<ele>269.5</ele>
<speed>11.1</speed>
<course>124.5</course>
<desc>Speed 11.1 km/h Distance 56.80 km</desc>
<time>2010-09-11T15:04:47.79</time>
<name>1000</name>
</trkpt>
<trkpt lat="49.892082" lon="9.588488">
<ele>269.5</ele>
<speed>11.1</speed>
<course>208.3</course>
<desc>Speed 11.1 km/h Distance 56.80 km</desc>
<time>2010-09-11T15:04:48.78</time>
<name>1001</name>
</trkpt>
<trkpt lat="49.892062" lon="9.588472">
<ele>269.0</ele>
<speed>1.3</speed>
<course>218.7</course>
<desc>Speed 1.3 km/h Distance 56.80 km</desc>
<time>2010-09-11T15:04:50.78</time>
<name>1002</name>
</trkpt>
<trkpt lat="49.892055" lon="9.588463">
<ele>269.0</ele>
<speed>1.3</speed>
<course>90.0</course>
<desc>Speed 1.3 km/h Distance 56.80 km</desc>
<time>2010-09-11T15:04:51.79</time>
<name>1003</name>
</trkpt>
<trkpt lat="49.892055" lon="9.588465">
<ele>269.0</ele>
<speed>1.3</speed>
<course>107.1</course>
<desc>Speed 1.3 km/h Distance 56.80 km</desc>
<time>2010-09-11T15:04:52.78</time>
<name>1004</name>
</trkpt>
<trkpt lat="49.892053" lon="9.588473">
<ele>269.0</ele>
<speed>1.3</speed>
<course>313.9</course>
<desc>Speed 1.3 km/h Distance 56.81 km</desc>
<time>2010-09-11T15:04:53.78</time>
<name>1005</name>
</trkpt>
<trkpt lat="49.892062" lon="9.588460">
<ele>268.0</ele>
<speed>1.3</speed>
<course>308.1</course>
<desc>Speed 1.3 km/h Distance 56.81 km</desc>
<time>2010-09-11T15:04:54.78</time>
<name>1006</name>
</trkpt>
<trkpt lat="49.892063" lon="9.588457">
<ele>267.5</ele>
<speed>1.3</speed>
<course>270.0</course>
<desc>Speed 1.3 km/h Distance 56.81 km</desc>
<time>2010-09-11T15:04:55.78</time>
<name>1007</name>
</trkpt>
<trkpt lat="49.892063" lon="9.588453">
<ele>267.5</ele>
<speed>1.3</speed>
<course>316.5</course>
<desc>Speed 1.3 km/h Distance 56.81 km</desc>
<time>2010-09-11T15:04:56.78</time>
<name>1008</name>
</trkpt>
<trkpt lat="49.892095" lon="9.588407">
<ele>264.5</ele>
<speed>0.5</speed>
<course>134.1</course>
<desc>Speed 0.5 km/h Distance 56.81 km</desc>
<time>2010-09-11T15:04:58.77</time>
<name>1009</name>
</trkpt>
<trkpt lat="49.892087" lon="9.588420">
<ele>264.5</ele>
<speed>1.3</speed>
<course>117.4</course>
<desc>Speed 1.3 km/h Distance 56.81 km</desc>
<time>2010-09-11T15:04:59.77</time>
<name>1010</name>
</trkpt>
<trkpt lat="49.892085" lon="9.588425">
<ele>264.5</ele>
<speed>1.3</speed>
<course>125.3</course>
<desc>Speed 1.3 km/h Distance 56.81 km</desc>
<time>2010-09-11T15:05:00.77</time>
<name>1011</name>
</trkpt>
<trkpt lat="49.892077" lon="9.588443">
<ele>264.5</ele>
<speed>1.3</speed>
<course>126.8</course>
<desc>Speed 1.3 km/h Distance 56.82 km</desc>
<time>2010-09-11T15:05:01.77</time>
<name>1012</name>
</trkpt>
<trkpt lat="49.892055" lon="9.588488">
<ele>264.0</ele>
<speed>2.6</speed>
<course>176.1</course>
<desc>Speed 2.6 km/h Distance 56.82 km</desc>
<time>2010-09-11T15:05:03.77</time>
<name>1013</name>
</trkpt>
<trkpt lat="49.892042" lon="9.588488">
<ele>264.0</ele>
<speed>2.6</speed>
<course>231.9</course>
<desc>Speed 2.6 km/h Distance 56.82 km</desc>
<time>2010-09-11T15:05:04.77</time>
<name>1014</name>
</trkpt>
<trkpt lat="49.892040" lon="9.588485">
<ele>264.0</ele>
<speed>1.0</speed>
<course>313.3</course>
<desc>Speed 1.0 km/h Distance 56.82 km</desc>
<time>2010-09-11T15:05:05.77</time>
<name>1015</name>
</trkpt>
<trkpt lat="49.892068" lon="9.588438">
<ele>263.0</ele>
<speed>1.5</speed>
<course>121.8</course>
<desc>Speed 1.5 km/h Distance 56.83 km</desc>
<time>2010-09-11T15:05:07.77</time>
<name>1016</name>
</trkpt>
<trkpt lat="49.892065" lon="9.588447">
<ele>263.0</ele>
<speed>0.4</speed>
<course>62.6</course>
<desc>Speed 0.4 km/h Distance 56.83 km</desc>
<time>2010-09-11T15:05:08.77</time>
<name>1017</name>
</trkpt>
<trkpt lat="49.892068" lon="9.588457">
<ele>263.0</ele>
<speed>2.1</speed>
<course>307.9</course>
<desc>Speed 2.1 km/h Distance 56.83 km</desc>
<time>2010-09-11T15:05:09.77</time>
<name>1018</name>
</trkpt>
<trkpt lat="49.892077" lon="9.588440">
<ele>262.0</ele>
<speed>2.1</speed>
<course>61.7</course>
<desc>Speed 2.1 km/h Distance 56.83 km</desc>
<time>2010-09-11T15:05:10.76</time>
<name>1019</name>
</trkpt>
<trkpt lat="49.892078" lon="9.588445">
<ele>262.0</ele>
<speed>2.1</speed>
<course>0.0</course>
<desc>Speed 2.1 km/h Distance 56.83 km</desc>
<time>2010-09-11T15:05:11.76</time>
<name>1020</name>
</trkpt>
<trkpt lat="49.892083" lon="9.588445">
<ele>262.0</ele>
<speed>2.1</speed>
<course>221.1</course>
<desc>Speed 2.1 km/h Distance 56.83 km</desc>
<time>2010-09-11T15:05:12.76</time>
<name>1021</name>
</trkpt>
<trkpt lat="49.892055" lon="9.588407">
<ele>262.0</ele>
<speed>3.7</speed>
<course>205.6</course>
<desc>Speed 3.7 km/h Distance 56.83 km</desc>
<time>2010-09-11T15:05:14.76</time>
<name>1022</name>
</trkpt>
<trkpt lat="49.892048" lon="9.588402">
<ele>261.5</ele>
<speed>3.7</speed>
<course>198.8</course>
<desc>Speed 3.7 km/h Distance 56.83 km</desc>
<time>2010-09-11T15:05:15.76</time>
<name>1023</name>
</trkpt>
<trkpt lat="49.892045" lon="9.588400">
<ele>261.5</ele>
<speed>3.7</speed>
<course>278.8</course>
<desc>Speed 3.7 km/h Distance 56.83 km</desc>
<time>2010-09-11T15:05:16.76</time>
<name>1024</name>
</trkpt>
<trkpt lat="49.892047" lon="9.588383">
<ele>261.5</ele>
<speed>3.7</speed>
<course>270.0</course>
<desc>Speed 3.7 km/h Distance 56.84 km</desc>
<time>2010-09-11T15:05:17.77</time>
<name>1025</name>
</trkpt>
<trkpt lat="49.892047" lon="9.588377">
<ele>261.5</ele>
<speed>3.7</speed>
<course>12.6</course>
<desc>Speed 3.7 km/h Distance 56.84 km</desc>
<time>2010-09-11T15:05:18.76</time>
<name>1026</name>
</trkpt>
<trkpt lat="49.892048" lon="9.588377">
<ele>261.5</ele>
<speed>1.3</speed>
<course>231.9</course>
<desc>Speed 1.3 km/h Distance 56.84 km</desc>
<time>2010-09-11T15:05:19.76</time>
<name>1027</name>
</trkpt>
<trkpt lat="49.892047" lon="9.588373">
<ele>261.5</ele>
<speed>1.3</speed>
<course>287.2</course>
<desc>Speed 1.3 km/h Distance 56.84 km</desc>
<time>2010-09-11T15:05:20.76</time>
<name>1028</name>
</trkpt>
<trkpt lat="49.892050" lon="9.588357">
<ele>262.0</ele>
<speed>0.5</speed>
<course>287.1</course>
<desc>Speed 0.5 km/h Distance 56.84 km</desc>
<time>2010-09-11T15:05:21.76</time>
<name>1029</name>
</trkpt>
<trkpt lat="49.892052" lon="9.588348">
<ele>262.0</ele>
<speed>0.5</speed>
<course>217.2</course>
<desc>Speed 0.5 km/h Distance 56.84 km</desc>
<time>2010-09-11T15:05:22.76</time>
<name>1030</name>
</trkpt>
<trkpt lat="49.892050" lon="9.588347">
<ele>262.0</ele>
<speed>1.2</speed>
<course>285.8</course>
<desc>Speed 1.2 km/h Distance 56.84 km</desc>
<time>2010-09-11T15:05:23.76</time>
<name>1031</name>
</trkpt>
<trkpt lat="49.892053" lon="9.588328">
<ele>262.0</ele>
<speed>1.1</speed>
<course>278.8</course>
<desc>Speed 1.1 km/h Distance 56.84 km</desc>
<time>2010-09-11T15:05:24.76</time>
<name>1032</name>
</trkpt>
<trkpt lat="49.892055" lon="9.588312">
<ele>262.5</ele>
<speed>1.1</speed>
<course>257.6</course>
<desc>Speed 1.1 km/h Distance 56.84 km</desc>
<time>2010-09-11T15:05:25.76</time>
<name>1033</name>
</trkpt>
<trkpt lat="49.892053" lon="9.588300">
<ele>262.5</ele>
<speed>0.7</speed>
<course>171.0</course>
<desc>Speed 0.7 km/h Distance 56.84 km</desc>
<time>2010-09-11T15:05:26.76</time>
<name>1034</name>
</trkpt>
<trkpt lat="49.892040" lon="9.588303">
<ele>263.5</ele>
<speed>4.2</speed>
<course>308.1</course>
<desc>Speed 4.2 km/h Distance 56.84 km</desc>
<time>2010-09-11T15:05:27.76</time>
<name>1035</name>
</trkpt>
<trkpt lat="49.892043" lon="9.588297">
<ele>263.5</ele>
<speed>2.4</speed>
<course>308.1</course>
<desc>Speed 2.4 km/h Distance 56.84 km</desc>
<time>2010-09-11T15:05:28.75</time>
<name>1036</name>
</trkpt>
<trkpt lat="49.892045" lon="9.588293">
<ele>264.0</ele>
<speed>2.4</speed>
<course>270.0</course>
<desc>Speed 2.4 km/h Distance 56.85 km</desc>
<time>2010-09-11T15:05:29.75</time>
<name>1037</name>
</trkpt>
<trkpt lat="49.892045" lon="9.588288">
<ele>264.0</ele>
<speed>2.4</speed>
<course>308.1</course>
<desc>Speed 2.4 km/h Distance 56.85 km</desc>
<time>2010-09-11T15:05:30.76</time>
<name>1038</name>
</trkpt>
<trkpt lat="49.892047" lon="9.588285">
<ele>264.0</ele>
<speed>2.4</speed>
<course>134.6</course>
<desc>Speed 2.4 km/h Distance 56.85 km</desc>
<time>2010-09-11T15:05:31.76</time>
<name>1039</name>
</trkpt>
<trkpt lat="49.892035" lon="9.588303">
<ele>265.0</ele>
<speed>2.4</speed>
<course>129.6</course>
<desc>Speed 2.4 km/h Distance 56.85 km</desc>
<time>2010-09-11T15:05:32.76</time>
<name>1040</name>
</trkpt>
<trkpt lat="49.892022" lon="9.588328">
<ele>265.5</ele>
<speed>2.4</speed>
<course>167.4</course>
<desc>Speed 2.4 km/h Distance 56.85 km</desc>
<time>2010-09-11T15:05:33.76</time>
<name>1041</name>
</trkpt>
<trkpt lat="49.892020" lon="9.588328">
<ele>266.0</ele>
<speed>2.4</speed>
<course>122.1</course>
<desc>Speed 2.4 km/h Distance 56.85 km</desc>
<time>2010-09-11T15:05:34.76</time>
<name>1042</name>
</trkpt>
<trkpt lat="49.892017" lon="9.588337">
<ele>266.0</ele>
<speed>2.4</speed>
<course>122.1</course>
<desc>Speed 2.4 km/h Distance 56.85 km</desc>
<time>2010-09-11T15:05:35.76</time>
<name>1043</name>
</trkpt>
<trkpt lat="49.892017" lon="9.588337">
<ele>266.0</ele>
<speed>2.4</speed>
<course>101.9</course>
<desc>Speed 2.4 km/h Distance 56.85 km</desc>
<time>2010-09-11T15:05:36.75</time>
<name>1044</name>
</trkpt>
<trkpt lat="49.892012" lon="9.588373">
<ele>267.0</ele>
<speed>1.7</speed>
<course>80.2</course>
<desc>Speed 1.7 km/h Distance 56.85 km</desc>
<time>2010-09-11T15:05:38.76</time>
<name>1045</name>
</trkpt>
<trkpt lat="49.892015" lon="9.588403">
<ele>267.5</ele>
<speed>1.8</speed>
<course>90.0</course>
<desc>Speed 1.8 km/h Distance 56.86 km</desc>
<time>2010-09-11T15:05:39.76</time>
<name>1046</name>
</trkpt>
<trkpt lat="49.892015" lon="9.588430">
<ele>268.5</ele>
<speed>1.1</speed>
<course>8.8</course>
<desc>Speed 1.1 km/h Distance 56.86 km</desc>
<time>2010-09-11T15:05:40.75</time>
<name>1047</name>
</trkpt>
<trkpt lat="49.892030" lon="9.588433">
<ele>269.0</ele>
<speed>0.9</speed>
<course>301.8</course>
<desc>Speed 0.9 km/h Distance 56.86 km</desc>
<time>2010-09-11T15:05:41.75</time>
<name>1048</name>
</trkpt>
<trkpt lat="49.892033" lon="9.588425">
<ele>269.0</ele>
<speed>1.0</speed>
<course>301.8</course>
<desc>Speed 1.0 km/h Distance 56.86 km</desc>
<time>2010-09-11T15:05:42.75</time>
<name>1049</name>
</trkpt>
<trkpt lat="49.892033" lon="9.588425">
<ele>269.0</ele>
<speed>0.5</speed>
<course>158.5</course>
<desc>Speed 0.5 km/h Distance 56.86 km</desc>
<time>2010-09-11T15:05:43.75</time>
<name>1050</name>
</trkpt>
<trkpt lat="49.892025" lon="9.588430">
<ele>270.5</ele>
<speed>0.1</speed>
<course>167.4</course>
<desc>Speed 0.1 km/h Distance 56.86 km</desc>
<time>2010-09-11T15:05:44.75</time>
<name>1051</name>
</trkpt>
<trkpt lat="49.892023" lon="9.588430">
<ele>270.5</ele>
<speed>0.3</speed>
<course>128.1</course>
<desc>Speed 0.3 km/h Distance 56.86 km</desc>
<time>2010-09-11T15:05:45.75</time>
<name>1052</name>
</trkpt>
<trkpt lat="49.892022" lon="9.588433">
<ele>270.5</ele>
<speed>0.3</speed>
<course>161.2</course>
<desc>Speed 0.3 km/h Distance 56.86 km</desc>
<time>2010-09-11T15:05:46.75</time>
<name>1053</name>
</trkpt>
<trkpt lat="49.892018" lon="9.588435">
<ele>271.0</ele>
<speed>0.2</speed>
<course>142.8</course>
<desc>Speed 0.2 km/h Distance 56.86 km</desc>
<time>2010-09-11T15:05:47.75</time>
<name>1054</name>
</trkpt>
<trkpt lat="49.892017" lon="9.588437">
<ele>271.5</ele>
<speed>0.5</speed>
<course>72.7</course>
<desc>Speed 0.5 km/h Distance 56.86 km</desc>
<time>2010-09-11T15:05:48.75</time>
<name>1055</name>
</trkpt>
<trkpt lat="49.892020" lon="9.588453">
<ele>272.0</ele>
<speed>5.3</speed>
<course>162.5</course>
<desc>Speed 5.3 km/h Distance 56.86 km</desc>
<time>2010-09-11T15:05:49.74</time>
<name>1056</name>
</trkpt>
<trkpt lat="49.892013" lon="9.588457">
<ele>273.0</ele>
<speed>1.8</speed>
<course>230.4</course>
<desc>Speed 1.8 km/h Distance 56.86 km</desc>
<time>2010-09-11T15:05:50.74</time>
<name>1057</name>
</trkpt>
<trkpt lat="49.891987" lon="9.588407">
<ele>273.5</ele>
<speed>5.8</speed>
<course>231.9</course>
<desc>Speed 5.8 km/h Distance 56.87 km</desc>
<time>2010-09-11T15:05:52.74</time>
<name>1058</name>
</trkpt>
<trkpt lat="49.891982" lon="9.588397">
<ele>273.5</ele>
<speed>0.6</speed>
<course>192.6</course>
<desc>Speed 0.6 km/h Distance 56.87 km</desc>
<time>2010-09-11T15:05:53.74</time>
<name>1059</name>
</trkpt>
<trkpt lat="49.891978" lon="9.588395">
<ele>273.5</ele>
<speed>0.3</speed>
<course>212.3</course>
<desc>Speed 0.3 km/h Distance 56.87 km</desc>
<time>2010-09-11T15:05:54.74</time>
<name>1060</name>
</trkpt>
<trkpt lat="49.891973" lon="9.588390">
<ele>273.0</ele>
<speed>0.5</speed>
<course>107.1</course>
<desc>Speed 0.5 km/h Distance 56.87 km</desc>
<time>2010-09-11T15:05:55.74</time>
<name>1061</name>
</trkpt>
<trkpt lat="49.891972" lon="9.588398">
<ele>273.0</ele>
<speed>2.7</speed>
<course>90.0</course>
<desc>Speed 2.7 km/h Distance 56.87 km</desc>
<time>2010-09-11T15:05:56.74</time>
<name>1062</name>
</trkpt>
<trkpt lat="49.891972" lon="9.588402">
<ele>273.0</ele>
<speed>0.1</speed>
<course>180.0</course>
<desc>Speed 0.1 km/h Distance 56.87 km</desc>
<time>2010-09-11T15:05:57.73</time>
<name>1063</name>
</trkpt>
<trkpt lat="49.891965" lon="9.588402">
<ele>273.5</ele>
<speed>1.6</speed>
<course>236.4</course>
<desc>Speed 1.6 km/h Distance 56.87 km</desc>
<time>2010-09-11T15:05:58.73</time>
<name>1064</name>
</trkpt>
<trkpt lat="49.891960" lon="9.588390">
<ele>273.0</ele>
<speed>1.3</speed>
<course>131.5</course>
<desc>Speed 1.3 km/h Distance 56.87 km</desc>
<time>2010-09-11T15:05:59.73</time>
<name>1065</name>
</trkpt>
<trkpt lat="49.891953" lon="9.588402">
<ele>273.0</ele>
<speed>4.5</speed>
<course>75.4</course>
<desc>Speed 4.5 km/h Distance 56.87 km</desc>
<time>2010-09-11T15:06:00.73</time>
<name>1066</name>
</trkpt>
<trkpt lat="49.891955" lon="9.588412">
<ele>272.5</ele>
<speed>1.5</speed>
<course>57.9</course>
<desc>Speed 1.5 km/h Distance 56.88 km</desc>
<time>2010-09-11T15:06:01.73</time>
<name>1067</name>
</trkpt>
<trkpt lat="49.891958" lon="9.588420">
<ele>272.5</ele>
<speed>2.0</speed>
<course>347.4</course>
<desc>Speed 2.0 km/h Distance 56.88 km</desc>
<time>2010-09-11T15:06:02.73</time>
<name>1068</name>
</trkpt>
<trkpt lat="49.891962" lon="9.588418">
<ele>272.0</ele>
<speed>1.1</speed>
<course>330.8</course>
<desc>Speed 1.1 km/h Distance 56.88 km</desc>
<time>2010-09-11T15:06:03.73</time>
<name>1069</name>
</trkpt>
<trkpt lat="49.891963" lon="9.588417">
<ele>271.5</ele>
<speed>0.7</speed>
<course>270.0</course>
<desc>Speed 0.7 km/h Distance 56.88 km</desc>
<time>2010-09-11T15:06:04.73</time>
<name>1070</name>
</trkpt>
<trkpt lat="49.891963" lon="9.588413">
<ele>271.5</ele>
<speed>0.3</speed>
<course>209.2</course>
<desc>Speed 0.3 km/h Distance 56.88 km</desc>
<time>2010-09-11T15:06:05.73</time>
<name>1071</name>
</trkpt>
<trkpt lat="49.891962" lon="9.588412">
<ele>271.0</ele>
<speed>0.4</speed>
<course>252.5</course>
<desc>Speed 0.4 km/h Distance 56.88 km</desc>
<time>2010-09-11T15:06:06.73</time>
<name>1072</name>
</trkpt>
<trkpt lat="49.891960" lon="9.588403">
<ele>271.0</ele>
<speed>2.0</speed>
<course>282.6</course>
<desc>Speed 2.0 km/h Distance 56.88 km</desc>
<time>2010-09-11T15:06:07.73</time>
<name>1073</name>
</trkpt>
<trkpt lat="49.891962" lon="9.588392">
<ele>270.5</ele>
<speed>1.7</speed>
<course>8.1</course>
<desc>Speed 1.7 km/h Distance 56.88 km</desc>
<time>2010-09-11T15:06:08.73</time>
<name>1074</name>
</trkpt>
<trkpt lat="49.891967" lon="9.588393">
<ele>270.0</ele>
<speed>0.9</speed>
<course>8.1</course>
<desc>Speed 0.9 km/h Distance 56.88 km</desc>
<time>2010-09-11T15:06:09.73</time>
<name>1075</name>
</trkpt>
<trkpt lat="49.891967" lon="9.588392">
<ele>269.5</ele>
<speed>0.6</speed>
<course>42.5</course>
<desc>Speed 0.6 km/h Distance 56.88 km</desc>
<time>2010-09-11T15:06:10.73</time>
<name>1076</name>
</trkpt>
<trkpt lat="49.891970" lon="9.588397">
<ele>269.5</ele>
<speed>2.3</speed>
<course>222.5</course>
<desc>Speed 2.3 km/h Distance 56.88 km</desc>
<time>2010-09-11T15:06:11.73</time>
<name>1077</name>
</trkpt>
<trkpt lat="49.891967" lon="9.588392">
<ele>270.0</ele>
<speed>1.2</speed>
<course>51.9</course>
<desc>Speed 1.2 km/h Distance 56.88 km</desc>
<time>2010-09-11T15:06:12.73</time>
<name>1078</name>
</trkpt>
<trkpt lat="49.891968" lon="9.588395">
<ele>270.5</ele>
<speed>1.4</speed>
<course>37.2</course>
<desc>Speed 1.4 km/h Distance 56.88 km</desc>
<time>2010-09-11T15:06:13.72</time>
<name>1079</name>
</trkpt>
<trkpt lat="49.891970" lon="9.588397">
<ele>270.5</ele>
<speed>0.3</speed>
<course>270.0</course>
<desc>Speed 0.3 km/h Distance 56.88 km</desc>
<time>2010-09-11T15:06:14.72</time>
<name>1080</name>
</trkpt>
<trkpt lat="49.891970" lon="9.588395">
<ele>270.5</ele>
<speed>0.0</speed>
<course>12.6</course>
<desc>Speed 0.0 km/h Distance 56.88 km</desc>
<time>2010-09-11T15:06:15.72</time>
<name>1081</name>
</trkpt>
<trkpt lat="49.891972" lon="9.588397">
<ele>271.0</ele>
<speed>0.5</speed>
<course>13.8</course>
<desc>Speed 0.5 km/h Distance 56.88 km</desc>
<time>2010-09-11T15:06:16.72</time>
<name>1082</name>
</trkpt>
<trkpt lat="49.891980" lon="9.588400">
<ele>269.5</ele>
<speed>2.6</speed>
<course>12.6</course>
<desc>Speed 2.6 km/h Distance 56.88 km</desc>
<time>2010-09-11T15:06:17.72</time>
<name>1083</name>
</trkpt>
<trkpt lat="49.891985" lon="9.588402">
<ele>269.5</ele>
<speed>0.3</speed>
<course>32.6</course>
<desc>Speed 0.3 km/h Distance 56.88 km</desc>
<time>2010-09-11T15:06:18.72</time>
<name>1084</name>
</trkpt>
<trkpt lat="49.891992" lon="9.588408">
<ele>269.5</ele>
<speed>0.8</speed>
<course>31.6</course>
<desc>Speed 0.8 km/h Distance 56.88 km</desc>
<time>2010-09-11T15:06:19.72</time>
<name>1085</name>
</trkpt>
<trkpt lat="49.891995" lon="9.588412">
<ele>269.5</ele>
<speed>0.5</speed>
<course>0.0</course>
<desc>Speed 0.5 km/h Distance 56.88 km</desc>
<time>2010-09-11T15:06:20.72</time>
<name>1086</name>
</trkpt>
<trkpt lat="49.892000" lon="9.588412">
<ele>270.0</ele>
<speed>0.1</speed>
<course>18.8</course>
<desc>Speed 0.1 km/h Distance 56.88 km</desc>
<time>2010-09-11T15:06:21.72</time>
<name>1087</name>
</trkpt>
<trkpt lat="49.892003" lon="9.588413">
<ele>270.0</ele>
<speed>0.2</speed>
<course>23.0</course>
<desc>Speed 0.2 km/h Distance 56.88 km</desc>
<time>2010-09-11T15:06:22.73</time>
<name>1088</name>
</trkpt>
<trkpt lat="49.892007" lon="9.588415">
<ele>270.0</ele>
<speed>0.3</speed>
<course>328.4</course>
<desc>Speed 0.3 km/h Distance 56.89 km</desc>
<time>2010-09-11T15:06:23.72</time>
<name>1089</name>
</trkpt>
<trkpt lat="49.892010" lon="9.588412">
<ele>270.5</ele>
<speed>0.8</speed>
<course>115.5</course>
<desc>Speed 0.8 km/h Distance 56.89 km</desc>
<time>2010-09-11T15:06:24.71</time>
<name>1090</name>
</trkpt>
<trkpt lat="49.892003" lon="9.588433">
<ele>270.5</ele>
<speed>7.3</speed>
<course>109.7</course>
<desc>Speed 7.3 km/h Distance 56.89 km</desc>
<time>2010-09-11T15:06:25.71</time>
<name>1091</name>
</trkpt>
<trkpt lat="49.891998" lon="9.588455">
<ele>270.5</ele>
<speed>7.3</speed>
<course>299.0</course>
<desc>Speed 7.3 km/h Distance 56.89 km</desc>
<time>2010-09-11T15:06:26.71</time>
<name>1092</name>
</trkpt>
<trkpt lat="49.892007" lon="9.588432">
<ele>271.5</ele>
<speed>6.4</speed>
<course>308.1</course>
<desc>Speed 6.4 km/h Distance 56.89 km</desc>
<time>2010-09-11T15:06:27.72</time>
<name>1093</name>
</trkpt>
<trkpt lat="49.892010" lon="9.588425">
<ele>271.5</ele>
<speed>2.2</speed>
<course>224.0</course>
<desc>Speed 2.2 km/h Distance 56.89 km</desc>
<time>2010-09-11T15:06:28.72</time>
<name>1094</name>
</trkpt>
<trkpt lat="49.892000" lon="9.588410">
<ele>272.0</ele>
<speed>4.9</speed>
<course>202.2</course>
<desc>Speed 4.9 km/h Distance 56.89 km</desc>
<time>2010-09-11T15:06:29.72</time>
<name>1095</name>
</trkpt>
<trkpt lat="49.891995" lon="9.588407">
<ele>272.0</ele>
<speed>1.9</speed>
<course>202.2</course>
<desc>Speed 1.9 km/h Distance 56.89 km</desc>
<time>2010-09-11T15:06:30.71</time>
<name>1096</name>
</trkpt>
<trkpt lat="49.891990" lon="9.588403">
<ele>272.0</ele>
<speed>1.9</speed>
<course>123.6</course>
<desc>Speed 1.9 km/h Distance 56.89 km</desc>
<time>2010-09-11T15:06:31.71</time>
<name>1097</name>
</trkpt>
<trkpt lat="49.891980" lon="9.588427">
<ele>272.0</ele>
<speed>7.5</speed>
<course>121.8</course>
<desc>Speed 7.5 km/h Distance 56.90 km</desc>
<time>2010-09-11T15:06:32.71</time>
<name>1098</name>
</trkpt>
<trkpt lat="49.891973" lon="9.588443">
<ele>272.0</ele>
<speed>5.1</speed>
<course>139.1</course>
<desc>Speed 5.1 km/h Distance 56.90 km</desc>
<time>2010-09-11T15:06:33.71</time>
<name>1099</name>
</trkpt>
<trkpt lat="49.891968" lon="9.588450">
<ele>272.5</ele>
<speed>3.3</speed>
<course>107.3</course>
<desc>Speed 3.3 km/h Distance 56.90 km</desc>
<time>2010-09-11T15:06:34.71</time>
<name>1100</name>
</trkpt>
<trkpt lat="49.891963" lon="9.588475">
<ele>272.0</ele>
<speed>5.2</speed>
<course>108.1</course>
<desc>Speed 5.2 km/h Distance 56.90 km</desc>
<time>2010-09-11T15:06:35.88</time>
<name>1101</name>
</trkpt>
<trkpt lat="49.891957" lon="9.588507">
<ele>272.0</ele>
<speed>5.2</speed>
<course>96.8</course>
<desc>Speed 5.2 km/h Distance 56.90 km</desc>
<time>2010-09-11T15:06:37.71</time>
<name>1102</name>
</trkpt>
<trkpt lat="49.891955" lon="9.588528">
<ele>272.0</ele>
<speed>5.7</speed>
<course>80.2</course>
<desc>Speed 5.7 km/h Distance 56.90 km</desc>
<time>2010-09-11T15:06:38.71</time>
<name>1103</name>
</trkpt>
<trkpt lat="49.891957" lon="9.588543">
<ele>272.5</ele>
<speed>4.5</speed>
<course>104.5</course>
<desc>Speed 4.5 km/h Distance 56.91 km</desc>
<time>2010-09-11T15:06:39.71</time>
<name>1104</name>
</trkpt>
<trkpt lat="49.891952" lon="9.588573">
<ele>272.5</ele>
<speed>6.6</speed>
<course>70.9</course>
<desc>Speed 6.6 km/h Distance 56.91 km</desc>
<time>2010-09-11T15:06:40.71</time>
<name>1105</name>
</trkpt>
<trkpt lat="49.891955" lon="9.588588">
<ele>272.5</ele>
<speed>3.7</speed>
<course>103.4</course>
<desc>Speed 3.7 km/h Distance 56.91 km</desc>
<time>2010-09-11T15:06:41.71</time>
<name>1106</name>
</trkpt>
<trkpt lat="49.891952" lon="9.588610">
<ele>273.0</ele>
<speed>4.6</speed>
<course>90.0</course>
<desc>Speed 4.6 km/h Distance 56.91 km</desc>
<time>2010-09-11T15:06:42.70</time>
<name>1107</name>
</trkpt>
<trkpt lat="49.891952" lon="9.588627">
<ele>272.5</ele>
<speed>3.9</speed>
<course>104.5</course>
<desc>Speed 3.9 km/h Distance 56.91 km</desc>
<time>2010-09-11T15:06:43.71</time>
<name>1108</name>
</trkpt>
<trkpt lat="49.891948" lon="9.588647">
<ele>273.0</ele>
<speed>3.8</speed>
<course>83.7</course>
<desc>Speed 3.8 km/h Distance 56.91 km</desc>
<time>2010-09-11T15:06:44.70</time>
<name>1109</name>
</trkpt>
<trkpt lat="49.891950" lon="9.588670">
<ele>273.0</ele>
<speed>4.1</speed>
<course>95.2</course>
<desc>Speed 4.1 km/h Distance 56.91 km</desc>
<time>2010-09-11T15:06:45.71</time>
<name>1110</name>
</trkpt>
<trkpt lat="49.891948" lon="9.588698">
<ele>273.0</ele>
<speed>4.9</speed>
<course>65.1</course>
<desc>Speed 4.9 km/h Distance 56.92 km</desc>
<time>2010-09-11T15:06:46.70</time>
<name>1111</name>
</trkpt>
<trkpt lat="49.891953" lon="9.588715">
<ele>273.5</ele>
<speed>4.5</speed>
<course>55.5</course>
<desc>Speed 4.5 km/h Distance 56.92 km</desc>
<time>2010-09-11T15:06:47.70</time>
<name>1112</name>
</trkpt>
<trkpt lat="49.891960" lon="9.588730">
<ele>273.0</ele>
<speed>4.1</speed>
<course>74.2</course>
<desc>Speed 4.1 km/h Distance 56.92 km</desc>
<time>2010-09-11T15:06:48.71</time>
<name>1113</name>
</trkpt>
<trkpt lat="49.891963" lon="9.588748">
<ele>273.0</ele>
<speed>4.5</speed>
<course>70.3</course>
<desc>Speed 4.5 km/h Distance 56.92 km</desc>
<time>2010-09-11T15:06:49.70</time>
<name>1114</name>
</trkpt>
<trkpt lat="49.891968" lon="9.588770">
<ele>272.5</ele>
<speed>5.2</speed>
<course>82.0</course>
<desc>Speed 5.2 km/h Distance 56.92 km</desc>
<time>2010-09-11T15:06:50.70</time>
<name>1115</name>
</trkpt>
<trkpt lat="49.891970" lon="9.588788">
<ele>272.0</ele>
<speed>4.5</speed>
<course>66.0</course>
<desc>Speed 4.5 km/h Distance 56.92 km</desc>
<time>2010-09-11T15:06:51.71</time>
<name>1116</name>
</trkpt>
<trkpt lat="49.891973" lon="9.588800">
<ele>272.0</ele>
<speed>3.9</speed>
<course>68.9</course>
<desc>Speed 3.9 km/h Distance 56.92 km</desc>
<time>2010-09-11T15:06:52.71</time>
<name>1117</name>
</trkpt>
<trkpt lat="49.891977" lon="9.588813">
<ele>272.0</ele>
<speed>4.5</speed>
<course>68.8</course>
<desc>Speed 4.5 km/h Distance 56.93 km</desc>
<time>2010-09-11T15:06:53.70</time>
<name>1118</name>
</trkpt>
<trkpt lat="49.891980" lon="9.588827">
<ele>271.5</ele>
<speed>4.2</speed>
<course>68.7</course>
<desc>Speed 4.2 km/h Distance 56.93 km</desc>
<time>2010-09-11T15:06:54.70</time>
<name>1119</name>
</trkpt>
<trkpt lat="49.891983" lon="9.588840">
<ele>271.5</ele>
<speed>4.0</speed>
<course>90.0</course>
<desc>Speed 4.0 km/h Distance 56.93 km</desc>
<time>2010-09-11T15:06:55.70</time>
<name>1120</name>
</trkpt>
<trkpt lat="49.891983" lon="9.588853">
<ele>271.5</ele>
<speed>3.8</speed>
<course>77.4</course>
<desc>Speed 3.8 km/h Distance 56.93 km</desc>
<time>2010-09-11T15:06:56.70</time>
<name>1121</name>
</trkpt>
<trkpt lat="49.891985" lon="9.588865">
<ele>271.5</ele>
<speed>2.9</speed>
<course>338.5</course>
<desc>Speed 2.9 km/h Distance 56.93 km</desc>
<time>2010-09-11T15:06:57.70</time>
<name>1122</name>
</trkpt>
<trkpt lat="49.891993" lon="9.588860">
<ele>271.5</ele>
<speed>2.9</speed>
<course>52.4</course>
<desc>Speed 2.9 km/h Distance 56.93 km</desc>
<time>2010-09-11T15:06:58.69</time>
<name>1123</name>
</trkpt>
<trkpt lat="49.891998" lon="9.588870">
<ele>271.5</ele>
<speed>3.7</speed>
<course>82.0</course>
<desc>Speed 3.7 km/h Distance 56.93 km</desc>
<time>2010-09-11T15:06:59.69</time>
<name>1124</name>
</trkpt>
<trkpt lat="49.892000" lon="9.588888">
<ele>271.5</ele>
<speed>5.3</speed>
<course>56.4</course>
<desc>Speed 5.3 km/h Distance 56.93 km</desc>
<time>2010-09-11T15:07:00.69</time>
<name>1125</name>
</trkpt>
<trkpt lat="49.892005" lon="9.588900">
<ele>271.5</ele>
<speed>3.7</speed>
<course>66.0</course>
<desc>Speed 3.7 km/h Distance 56.93 km</desc>
<time>2010-09-11T15:07:01.69</time>
<name>1126</name>
</trkpt>
<trkpt lat="49.892008" lon="9.588912">
<ele>271.5</ele>
<speed>3.3</speed>
<course>77.6</course>
<desc>Speed 3.3 km/h Distance 56.93 km</desc>
<time>2010-09-11T15:07:02.69</time>
<name>1127</name>
</trkpt>
<trkpt lat="49.892010" lon="9.588923">
<ele>271.5</ele>
<speed>3.3</speed>
<course>48.3</course>
<desc>Speed 3.3 km/h Distance 56.94 km</desc>
<time>2010-09-11T15:07:03.69</time>
<name>1128</name>
</trkpt>
<trkpt lat="49.892017" lon="9.588935">
<ele>271.5</ele>
<speed>3.7</speed>
<course>52.4</course>
<desc>Speed 3.7 km/h Distance 56.94 km</desc>
<time>2010-09-11T15:07:04.69</time>
<name>1129</name>
</trkpt>
<trkpt lat="49.892022" lon="9.588945">
<ele>271.5</ele>
<speed>3.1</speed>
<course>75.5</course>
<desc>Speed 3.1 km/h Distance 56.94 km</desc>
<time>2010-09-11T15:07:05.69</time>
<name>1130</name>
</trkpt>
<trkpt lat="49.892025" lon="9.588965">
<ele>271.5</ele>
<speed>4.7</speed>
<course>108.6</course>
<desc>Speed 4.7 km/h Distance 56.94 km</desc>
<time>2010-09-11T15:07:06.69</time>
<name>1131</name>
</trkpt>
<trkpt lat="49.892017" lon="9.589003">
<ele>271.5</ele>
<speed>9.5</speed>
<course>95.9</course>
<desc>Speed 9.5 km/h Distance 56.94 km</desc>
<time>2010-09-11T15:07:07.69</time>
<name>1132</name>
</trkpt>
<trkpt lat="49.892015" lon="9.589028">
<ele>271.5</ele>
<speed>4.9</speed>
<course>65.1</course>
<desc>Speed 4.9 km/h Distance 56.94 km</desc>
<time>2010-09-11T15:07:08.69</time>
<name>1133</name>
</trkpt>
<trkpt lat="49.892020" lon="9.589045">
<ele>271.5</ele>
<speed>4.0</speed>
<course>115.6</course>
<desc>Speed 4.0 km/h Distance 56.95 km</desc>
<time>2010-09-11T15:07:09.68</time>
<name>1134</name>
</trkpt>
<trkpt lat="49.891963" lon="9.589228">
<ele>272.5</ele>
<speed>3.9</speed>
<course>99.5</course>
<desc>Speed 3.9 km/h Distance 56.96 km</desc>
<time>2010-09-11T15:07:12.68</time>
<name>1135</name>
</trkpt>
<trkpt lat="49.891957" lon="9.589290">
<ele>272.5</ele>
<speed>3.7</speed>
<course>42.1</course>
<desc>Speed 3.7 km/h Distance 56.96 km</desc>
<time>2010-09-11T15:07:14.68</time>
<name>1136</name>
</trkpt>
<trkpt lat="49.891965" lon="9.589302">
<ele>272.5</ele>
<speed>4.1</speed>
<course>52.2</course>
<desc>Speed 4.1 km/h Distance 56.97 km</desc>
<time>2010-09-11T15:07:15.68</time>
<name>1137</name>
</trkpt>
<trkpt lat="49.891972" lon="9.589315">
<ele>272.5</ele>
<speed>4.0</speed>
<course>72.7</course>
<desc>Speed 4.0 km/h Distance 56.97 km</desc>
<time>2010-09-11T15:07:16.67</time>
<name>1138</name>
</trkpt>
<trkpt lat="49.891975" lon="9.589332">
<ele>272.5</ele>
<speed>4.2</speed>
<course>52.4</course>
<desc>Speed 4.2 km/h Distance 56.97 km</desc>
<time>2010-09-11T15:07:17.68</time>
<name>1139</name>
</trkpt>
<trkpt lat="49.891978" lon="9.589338">
<ele>272.5</ele>
<speed>3.1</speed>
<course>75.4</course>
<desc>Speed 3.1 km/h Distance 56.97 km</desc>
<time>2010-09-11T15:07:18.68</time>
<name>1140</name>
</trkpt>
<trkpt lat="49.891980" lon="9.589348">
<ele>272.5</ele>
<speed>2.5</speed>
<course>51.9</course>
<desc>Speed 2.5 km/h Distance 56.97 km</desc>
<time>2010-09-11T15:07:19.67</time>
<name>1141</name>
</trkpt>
<trkpt lat="49.891983" lon="9.589355">
<ele>272.5</ele>
<speed>4.0</speed>
<course>355.0</course>
<desc>Speed 4.0 km/h Distance 56.97 km</desc>
<time>2010-09-11T15:07:20.68</time>
<name>1142</name>
</trkpt>
<trkpt lat="49.891992" lon="9.589353">
<ele>272.5</ele>
<speed>4.0</speed>
<course>321.8</course>
<desc>Speed 4.0 km/h Distance 56.97 km</desc>
<time>2010-09-11T15:07:21.67</time>
<name>1143</name>
</trkpt>
<trkpt lat="49.892007" lon="9.589335">
<ele>272.5</ele>
<speed>4.0</speed>
<course>313.0</course>
<desc>Speed 4.0 km/h Distance 56.97 km</desc>
<time>2010-09-11T15:07:22.68</time>
<name>1144</name>
</trkpt>
<trkpt lat="49.892022" lon="9.589310">
<ele>272.5</ele>
<speed>4.0</speed>
<course>327.2</course>
<desc>Speed 4.0 km/h Distance 56.98 km</desc>
<time>2010-09-11T15:07:23.68</time>
<name>1145</name>
</trkpt>
<trkpt lat="49.892032" lon="9.589300">
<ele>272.5</ele>
<speed>4.0</speed>
<course>12.6</course>
<desc>Speed 4.0 km/h Distance 56.98 km</desc>
<time>2010-09-11T15:07:24.67</time>
<name>1146</name>
</trkpt>
<trkpt lat="49.892033" lon="9.589300">
<ele>272.5</ele>
<speed>4.0</speed>
<course>37.2</course>
<desc>Speed 4.0 km/h Distance 56.98 km</desc>
<time>2010-09-11T15:07:25.67</time>
<name>1147</name>
</trkpt>
<trkpt lat="49.892035" lon="9.589302">
<ele>272.5</ele>
<speed>4.0</speed>
<course>90.0</course>
<desc>Speed 4.0 km/h Distance 56.98 km</desc>
<time>2010-09-11T15:07:26.66</time>
<name>1148</name>
</trkpt>
<trkpt lat="49.892035" lon="9.589303">
<ele>272.5</ele>
<speed>4.0</speed>
<course>90.0</course>
<desc>Speed 4.0 km/h Distance 56.98 km</desc>
<time>2010-09-11T15:07:27.66</time>
<name>1149</name>
</trkpt>
<trkpt lat="49.892035" lon="9.589303">
<ele>272.5</ele>
<speed>4.0</speed>
<course>273.9</course>
<desc>Speed 4.0 km/h Distance 56.98 km</desc>
<time>2010-09-11T15:07:28.64</time>
<name>1150</name>
</trkpt>
<trkpt lat="49.892040" lon="9.589190">
<ele>272.5</ele>
<speed>4.0</speed>
<course>236.0</course>
<desc>Speed 4.0 km/h Distance 56.99 km</desc>
<time>2010-09-11T15:07:37.64</time>
<name>1151</name>
</trkpt>
<trkpt lat="49.891947" lon="9.588975">
<ele>272.0</ele>
<speed>4.0</speed>
<course>86.3</course>
<desc>Speed 4.0 km/h Distance 57.00 km</desc>
<time>2010-09-11T15:07:41.64</time>
<name>1152</name>
</trkpt>
<trkpt lat="49.891972" lon="9.589577">
<ele>272.0</ele>
<speed>4.0</speed>
<course>15.3</course>
<desc>Speed 4.0 km/h Distance 57.05 km</desc>
<time>2010-09-11T15:07:46.65</time>
<name>1153</name>
</trkpt>
<trkpt lat="49.891995" lon="9.589587">
<ele>272.0</ele>
<speed>4.0</speed>
<course>36.5</course>
<desc>Speed 4.0 km/h Distance 57.05 km</desc>
<time>2010-09-11T15:07:48.66</time>
<name>1154</name>
</trkpt>
<trkpt lat="49.892007" lon="9.589600">
<ele>272.0</ele>
<speed>4.0</speed>
<course>90.0</course>
<desc>Speed 4.0 km/h Distance 57.05 km</desc>
<time>2010-09-11T15:07:49.65</time>
<name>1155</name>
</trkpt>
<trkpt lat="49.892007" lon="9.589617">
<ele>272.0</ele>
<speed>4.0</speed>
<course>65.6</course>
<desc>Speed 4.0 km/h Distance 57.05 km</desc>
<time>2010-09-11T15:07:50.66</time>
<name>1156</name>
</trkpt>
<trkpt lat="49.892053" lon="9.589777">
<ele>271.0</ele>
<speed>6.2</speed>
<course>158.5</course>
<desc>Speed 6.2 km/h Distance 57.07 km</desc>
<time>2010-09-11T15:07:53.65</time>
<name>1157</name>
</trkpt>
<trkpt lat="49.892045" lon="9.589782">
<ele>271.0</ele>
<speed>3.1</speed>
<course>127.8</course>
<desc>Speed 3.1 km/h Distance 57.07 km</desc>
<time>2010-09-11T15:07:54.66</time>
<name>1158</name>
</trkpt>
<trkpt lat="49.892037" lon="9.589798">
<ele>271.0</ele>
<speed>7.8</speed>
<course>79.0</course>
<desc>Speed 7.8 km/h Distance 57.07 km</desc>
<time>2010-09-11T15:07:55.65</time>
<name>1159</name>
</trkpt>
<trkpt lat="49.892043" lon="9.589852">
<ele>270.5</ele>
<speed>5.3</speed>
<course>230.3</course>
<desc>Speed 5.3 km/h Distance 57.07 km</desc>
<time>2010-09-11T15:07:56.65</time>
<name>1160</name>
</trkpt>
<trkpt lat="49.892005" lon="9.589780">
<ele>270.5</ele>
<speed>9.3</speed>
<course>246.0</course>
<desc>Speed 9.3 km/h Distance 57.08 km</desc>
<time>2010-09-11T15:07:58.65</time>
<name>1161</name>
</trkpt>
<trkpt lat="49.891998" lon="9.589757">
<ele>270.5</ele>
<speed>6.2</speed>
<course>212.3</course>
<desc>Speed 6.2 km/h Distance 57.08 km</desc>
<time>2010-09-11T15:07:59.65</time>
<name>1162</name>
</trkpt>
<trkpt lat="49.891993" lon="9.589752">
<ele>270.5</ele>
<speed>6.2</speed>
<course>167.4</course>
<desc>Speed 6.2 km/h Distance 57.08 km</desc>
<time>2010-09-11T15:08:00.65</time>
<name>1163</name>
</trkpt>
<trkpt lat="49.891990" lon="9.589753">
<ele>270.5</ele>
<speed>6.2</speed>
<course>128.1</course>
<desc>Speed 6.2 km/h Distance 57.08 km</desc>
<time>2010-09-11T15:08:01.65</time>
<name>1164</name>
</trkpt>
<trkpt lat="49.891988" lon="9.589757">
<ele>270.5</ele>
<speed>6.2</speed>
<course>128.1</course>
<desc>Speed 6.2 km/h Distance 57.08 km</desc>
<time>2010-09-11T15:08:02.65</time>
<name>1165</name>
</trkpt>
<trkpt lat="49.891987" lon="9.589760">
<ele>270.5</ele>
<speed>6.2</speed>
<course>167.4</course>
<desc>Speed 6.2 km/h Distance 57.08 km</desc>
<time>2010-09-11T15:08:03.65</time>
<name>1166</name>
</trkpt>
<trkpt lat="49.891983" lon="9.589762">
<ele>270.5</ele>
<speed>6.2</speed>
<course>38.8</course>
<desc>Speed 6.2 km/h Distance 57.08 km</desc>
<time>2010-09-11T15:08:04.64</time>
<name>1167</name>
</trkpt>
<trkpt lat="49.891997" lon="9.589778">
<ele>270.5</ele>
<speed>6.8</speed>
<course>70.9</course>
<desc>Speed 6.8 km/h Distance 57.08 km</desc>
<time>2010-09-11T15:08:05.65</time>
<name>1168</name>
</trkpt>
<trkpt lat="49.892000" lon="9.589793">
<ele>270.5</ele>
<speed>6.8</speed>
<course>90.0</course>
<desc>Speed 6.8 km/h Distance 57.09 km</desc>
<time>2010-09-11T15:08:06.65</time>
<name>1169</name>
</trkpt>
<trkpt lat="49.892000" lon="9.589803">
<ele>270.5</ele>
<speed>6.8</speed>
<course>104.6</course>
<desc>Speed 6.8 km/h Distance 57.09 km</desc>
<time>2010-09-11T15:08:07.64</time>
<name>1170</name>
</trkpt>
<trkpt lat="49.891998" lon="9.589813">
<ele>270.5</ele>
<speed>6.8</speed>
<course>100.9</course>
<desc>Speed 6.8 km/h Distance 57.09 km</desc>
<time>2010-09-11T15:08:08.64</time>
<name>1171</name>
</trkpt>
<trkpt lat="49.891997" lon="9.589827">
<ele>270.5</ele>
<speed>6.8</speed>
<course>104.6</course>
<desc>Speed 6.8 km/h Distance 57.09 km</desc>
<time>2010-09-11T15:08:09.64</time>
<name>1172</name>
</trkpt>
<trkpt lat="49.891995" lon="9.589837">
<ele>270.5</ele>
<speed>6.8</speed>
<course>142.8</course>
<desc>Speed 6.8 km/h Distance 57.09 km</desc>
<time>2010-09-11T15:08:10.64</time>
<name>1173</name>
</trkpt>
<trkpt lat="49.891993" lon="9.589838">
<ele>270.5</ele>
<speed>6.8</speed>
<course>249.1</course>
<desc>Speed 6.8 km/h Distance 57.09 km</desc>
<time>2010-09-11T15:08:11.65</time>
<name>1174</name>
</trkpt>
<trkpt lat="49.891992" lon="9.589832">
<ele>270.5</ele>
<speed>6.8</speed>
<course>255.4</course>
<desc>Speed 6.8 km/h Distance 57.09 km</desc>
<time>2010-09-11T15:08:12.64</time>
<name>1175</name>
</trkpt>
<trkpt lat="49.891990" lon="9.589822">
<ele>270.5</ele>
<speed>6.8</speed>
<course>263.7</course>
<desc>Speed 6.8 km/h Distance 57.09 km</desc>
<time>2010-09-11T15:08:13.64</time>
<name>1176</name>
</trkpt>
<trkpt lat="49.891988" lon="9.589798">
<ele>270.5</ele>
<speed>6.8</speed>
<course>248.7</course>
<desc>Speed 6.8 km/h Distance 57.09 km</desc>
<time>2010-09-11T15:08:14.64</time>
<name>1177</name>
</trkpt>
<trkpt lat="49.891987" lon="9.589792">
<ele>270.5</ele>
<speed>6.8</speed>
<course>278.2</course>
<desc>Speed 6.8 km/h Distance 57.09 km</desc>
<time>2010-09-11T15:08:15.64</time>
<name>1178</name>
</trkpt>
<trkpt lat="49.891993" lon="9.589720">
<ele>270.5</ele>
<speed>6.8</speed>
<course>216.8</course>
<desc>Speed 6.8 km/h Distance 57.10 km</desc>
<time>2010-09-11T15:08:17.64</time>
<name>1179</name>
</trkpt>
<trkpt lat="49.891983" lon="9.589708">
<ele>270.5</ele>
<speed>6.8</speed>
<course>231.9</course>
<desc>Speed 6.8 km/h Distance 57.10 km</desc>
<time>2010-09-11T15:08:18.64</time>
<name>1180</name>
</trkpt>
<trkpt lat="49.891978" lon="9.589698">
<ele>270.5</ele>
<speed>6.8</speed>
<course>255.4</course>
<desc>Speed 6.8 km/h Distance 57.10 km</desc>
<time>2010-09-11T15:08:19.64</time>
<name>1181</name>
</trkpt>
<trkpt lat="49.891977" lon="9.589688">
<ele>270.5</ele>
<speed>6.8</speed>
<course>213.7</course>
<desc>Speed 6.8 km/h Distance 57.10 km</desc>
<time>2010-09-11T15:08:20.64</time>
<name>1182</name>
</trkpt>
<trkpt lat="49.891973" lon="9.589685">
<ele>270.5</ele>
<speed>6.8</speed>
<course>270.0</course>
<desc>Speed 6.8 km/h Distance 57.10 km</desc>
<time>2010-09-11T15:08:21.64</time>
<name>1183</name>
</trkpt>
<trkpt lat="49.891973" lon="9.589672">
<ele>270.5</ele>
<speed>6.8</speed>
<course>213.7</course>
<desc>Speed 6.8 km/h Distance 57.10 km</desc>
<time>2010-09-11T15:08:22.64</time>
<name>1184</name>
</trkpt>
<trkpt lat="49.891925" lon="9.589622">
<ele>270.5</ele>
<speed>6.8</speed>
<course>238.1</course>
<desc>Speed 6.8 km/h Distance 57.11 km</desc>
<time>2010-09-11T15:08:24.64</time>
<name>1185</name>
</trkpt>
<trkpt lat="49.891918" lon="9.589605">
<ele>270.5</ele>
<speed>6.8</speed>
<course>286.2</course>
<desc>Speed 6.8 km/h Distance 57.11 km</desc>
<time>2010-09-11T15:08:25.63</time>
<name>1186</name>
</trkpt>
<trkpt lat="49.891923" lon="9.589578">
<ele>270.5</ele>
<speed>6.8</speed>
<course>287.2</course>
<desc>Speed 6.8 km/h Distance 57.11 km</desc>
<time>2010-09-11T15:08:26.63</time>
<name>1187</name>
</trkpt>
<trkpt lat="49.891927" lon="9.589562">
<ele>270.5</ele>
<speed>6.8</speed>
<course>270.0</course>
<desc>Speed 6.8 km/h Distance 57.11 km</desc>
<time>2010-09-11T15:08:27.64</time>
<name>1188</name>
</trkpt>
<trkpt lat="49.891927" lon="9.589558">
<ele>270.5</ele>
<speed>6.8</speed>
<course>270.0</course>
<desc>Speed 6.8 km/h Distance 57.11 km</desc>
<time>2010-09-11T15:08:28.64</time>
<name>1189</name>
</trkpt>
<trkpt lat="49.891927" lon="9.589558">
<ele>270.5</ele>
<speed>6.8</speed>
<course>15.5</course>
<desc>Speed 6.8 km/h Distance 57.11 km</desc>
<time>2010-09-11T15:08:29.64</time>
<name>1190</name>
</trkpt>
<trkpt lat="49.891938" lon="9.589563">
<ele>270.5</ele>
<speed>6.8</speed>
<course>299.5</course>
<desc>Speed 6.8 km/h Distance 57.11 km</desc>
<time>2010-09-11T15:08:30.64</time>
<name>1191</name>
</trkpt>
<trkpt lat="49.891945" lon="9.589545">
<ele>270.5</ele>
<speed>6.8</speed>
<course>14.9</course>
<desc>Speed 6.8 km/h Distance 57.12 km</desc>
<time>2010-09-11T15:08:31.63</time>
<name>1192</name>
</trkpt>
<trkpt lat="49.891953" lon="9.589548">
<ele>270.5</ele>
<speed>6.8</speed>
<course>307.8</course>
<desc>Speed 6.8 km/h Distance 57.12 km</desc>
<time>2010-09-11T15:08:32.64</time>
<name>1193</name>
</trkpt>
<trkpt lat="49.891965" lon="9.589525">
<ele>270.5</ele>
<speed>6.8</speed>
<course>344.6</course>
<desc>Speed 6.8 km/h Distance 57.12 km</desc>
<time>2010-09-11T15:08:33.62</time>
<name>1194</name>
</trkpt>
<trkpt lat="49.892035" lon="9.589495">
<ele>270.5</ele>
<speed>8.3</speed>
<course>3.7</course>
<desc>Speed 8.3 km/h Distance 57.13 km</desc>
<time>2010-09-11T15:08:35.63</time>
<name>1195</name>
</trkpt>
<trkpt lat="49.892053" lon="9.589497">
<ele>270.5</ele>
<speed>8.3</speed>
<course>7.7</course>
<desc>Speed 8.3 km/h Distance 57.13 km</desc>
<time>2010-09-11T15:08:36.62</time>
<name>1196</name>
</trkpt>
<trkpt lat="49.892070" lon="9.589500">
<ele>270.5</ele>
<speed>8.3</speed>
<course>16.1</course>
<desc>Speed 8.3 km/h Distance 57.13 km</desc>
<time>2010-09-11T15:08:37.62</time>
<name>1197</name>
</trkpt>
<trkpt lat="49.892133" lon="9.589528">
<ele>270.5</ele>
<speed>8.3</speed>
<course>15.5</course>
<desc>Speed 8.3 km/h Distance 57.14 km</desc>
<time>2010-09-11T15:08:39.62</time>
<name>1198</name>
</trkpt>
<trkpt lat="49.892145" lon="9.589533">
<ele>270.5</ele>
<speed>8.3</speed>
<course>48.3</course>
<desc>Speed 8.3 km/h Distance 57.14 km</desc>
<time>2010-09-11T15:08:40.62</time>
<name>1199</name>
</trkpt>
<trkpt lat="49.892152" lon="9.589545">
<ele>270.5</ele>
<speed>8.3</speed>
<course>23.2</course>
<desc>Speed 8.3 km/h Distance 57.14 km</desc>
<time>2010-09-11T15:08:41.62</time>
<name>1200</name>
</trkpt>
<trkpt lat="49.892212" lon="9.589585">
<ele>270.5</ele>
<speed>8.3</speed>
<course>22.2</course>
<desc>Speed 8.3 km/h Distance 57.15 km</desc>
<time>2010-09-11T15:08:43.62</time>
<name>1201</name>
</trkpt>
<trkpt lat="49.892217" lon="9.589588">
<ele>270.5</ele>
<speed>8.3</speed>
<course>294.0</course>
<desc>Speed 8.3 km/h Distance 57.15 km</desc>
<time>2010-09-11T15:08:44.61</time>
<name>1202</name>
</trkpt>
<trkpt lat="49.892220" lon="9.589577">
<ele>271.0</ele>
<speed>8.3</speed>
<course>307.0</course>
<desc>Speed 8.3 km/h Distance 57.15 km</desc>
<time>2010-09-11T15:08:46.61</time>
<name>1203</name>
</trkpt>
<trkpt lat="49.892223" lon="9.589570">
<ele>271.0</ele>
<speed>8.3</speed>
<course>234.9</course>
<desc>Speed 8.3 km/h Distance 57.15 km</desc>
<time>2010-09-11T15:08:47.61</time>
<name>1204</name>
</trkpt>
<trkpt lat="49.892215" lon="9.589552">
<ele>271.0</ele>
<speed>8.3</speed>
<course>231.9</course>
<desc>Speed 8.3 km/h Distance 57.15 km</desc>
<time>2010-09-11T15:08:48.61</time>
<name>1205</name>
</trkpt>
<trkpt lat="49.892212" lon="9.589545">
<ele>271.0</ele>
<speed>8.3</speed>
<course>82.0</course>
<desc>Speed 8.3 km/h Distance 57.15 km</desc>
<time>2010-09-11T15:08:49.61</time>
<name>1206</name>
</trkpt>
<trkpt lat="49.892213" lon="9.589563">
<ele>271.0</ele>
<speed>8.3</speed>
<course>90.0</course>
<desc>Speed 8.3 km/h Distance 57.15 km</desc>
<time>2010-09-11T15:08:51.62</time>
<name>1207</name>
</trkpt>
<trkpt lat="49.892213" lon="9.589577">
<ele>271.0</ele>
<speed>8.3</speed>
<course>297.4</course>
<desc>Speed 8.3 km/h Distance 57.15 km</desc>
<time>2010-09-11T15:08:52.61</time>
<name>1208</name>
</trkpt>
<trkpt lat="49.892218" lon="9.589562">
<ele>271.0</ele>
<speed>8.3</speed>
<course>291.3</course>
<desc>Speed 8.3 km/h Distance 57.16 km</desc>
<time>2010-09-11T15:08:53.62</time>
<name>1209</name>
</trkpt>
<trkpt lat="49.892222" lon="9.589548">
<ele>271.0</ele>
<speed>8.3</speed>
<course>308.1</course>
<desc>Speed 8.3 km/h Distance 57.16 km</desc>
<time>2010-09-11T15:08:54.61</time>
<name>1210</name>
</trkpt>
<trkpt lat="49.892223" lon="9.589545">
<ele>271.0</ele>
<speed>8.3</speed>
<course>293.9</course>
<desc>Speed 8.3 km/h Distance 57.16 km</desc>
<time>2010-09-11T15:08:55.61</time>
<name>1211</name>
</trkpt>
<trkpt lat="49.892227" lon="9.589533">
<ele>271.0</ele>
<speed>8.3</speed>
<course>287.5</course>
<desc>Speed 8.3 km/h Distance 57.16 km</desc>
<time>2010-09-11T15:08:57.61</time>
<name>1212</name>
</trkpt>
<trkpt lat="49.892228" lon="9.589525">
<ele>271.0</ele>
<speed>8.3</speed>
<course>287.3</course>
<desc>Speed 8.3 km/h Distance 57.16 km</desc>
<time>2010-09-11T15:08:58.61</time>
<name>1213</name>
</trkpt>
<trkpt lat="49.892230" lon="9.589517">
<ele>271.0</ele>
<speed>8.3</speed>
<course>270.0</course>
<desc>Speed 8.3 km/h Distance 57.16 km</desc>
<time>2010-09-11T15:08:59.61</time>
<name>1214</name>
</trkpt>
<trkpt lat="49.892230" lon="9.589512">
<ele>271.0</ele>
<speed>8.3</speed>
<course>292.5</course>
<desc>Speed 8.3 km/h Distance 57.16 km</desc>
<time>2010-09-11T15:09:00.61</time>
<name>1215</name>
</trkpt>
<trkpt lat="49.892237" lon="9.589487">
<ele>271.0</ele>
<speed>8.3</speed>
<course>288.2</course>
<desc>Speed 8.3 km/h Distance 57.16 km</desc>
<time>2010-09-11T15:09:01.61</time>
<name>1216</name>
</trkpt>
<trkpt lat="49.892262" lon="9.589368">
<ele>271.0</ele>
<speed>8.3</speed>
<course>285.7</course>
<desc>Speed 8.3 km/h Distance 57.17 km</desc>
<time>2010-09-11T15:09:03.61</time>
<name>1217</name>
</trkpt>
<trkpt lat="49.892265" lon="9.589350">
<ele>271.0</ele>
<speed>8.3</speed>
<course>290.9</course>
<desc>Speed 8.3 km/h Distance 57.17 km</desc>
<time>2010-09-11T15:09:04.61</time>
<name>1218</name>
</trkpt>
<trkpt lat="49.892267" lon="9.589343">
<ele>271.0</ele>
<speed>8.3</speed>
<course>52.4</course>
<desc>Speed 8.3 km/h Distance 57.17 km</desc>
<time>2010-09-11T15:09:05.60</time>
<name>1219</name>
</trkpt>
<trkpt lat="49.892272" lon="9.589353">
<ele>271.0</ele>
<speed>8.3</speed>
<course>90.0</course>
<desc>Speed 8.3 km/h Distance 57.17 km</desc>
<time>2010-09-11T15:09:07.60</time>
<name>1220</name>
</trkpt>
<trkpt lat="49.892272" lon="9.589365">
<ele>271.0</ele>
<speed>8.3</speed>
<course>145.0</course>
<desc>Speed 8.3 km/h Distance 57.17 km</desc>
<time>2010-09-11T15:09:08.60</time>
<name>1221</name>
</trkpt>
<trkpt lat="49.892252" lon="9.589387">
<ele>271.0</ele>
<speed>4.1</speed>
<course>209.5</course>
<desc>Speed 4.1 km/h Distance 57.18 km</desc>
<time>2010-09-11T15:09:09.60</time>
<name>1222</name>
</trkpt>
<trkpt lat="49.892238" lon="9.589375">
<ele>271.0</ele>
<speed>2.6</speed>
<course>167.4</course>
<desc>Speed 2.6 km/h Distance 57.18 km</desc>
<time>2010-09-11T15:09:10.60</time>
<name>1223</name>
</trkpt>
<trkpt lat="49.892235" lon="9.589377">
<ele>271.0</ele>
<speed>1.6</speed>
<course>316.5</course>
<desc>Speed 1.6 km/h Distance 57.18 km</desc>
<time>2010-09-11T15:09:11.60</time>
<name>1224</name>
</trkpt>
<trkpt lat="49.892238" lon="9.589372">
<ele>271.0</ele>
<speed>1.3</speed>
<course>20.8</course>
<desc>Speed 1.3 km/h Distance 57.18 km</desc>
<time>2010-09-11T15:09:12.60</time>
<name>1225</name>
</trkpt>
<trkpt lat="49.892247" lon="9.589377">
<ele>271.0</ele>
<speed>4.3</speed>
<course>12.6</course>
<desc>Speed 4.3 km/h Distance 57.18 km</desc>
<time>2010-09-11T15:09:13.60</time>
<name>1226</name>
</trkpt>
<trkpt lat="49.892255" lon="9.589380">
<ele>271.0</ele>
<speed>4.3</speed>
<course>16.0</course>
<desc>Speed 4.3 km/h Distance 57.18 km</desc>
<time>2010-09-11T15:09:14.60</time>
<name>1227</name>
</trkpt>
<trkpt lat="49.892262" lon="9.589383">
<ele>271.0</ele>
<speed>4.3</speed>
<course>22.2</course>
<desc>Speed 4.3 km/h Distance 57.18 km</desc>
<time>2010-09-11T15:09:15.59</time>
<name>1228</name>
</trkpt>
<trkpt lat="49.892267" lon="9.589387">
<ele>271.0</ele>
<speed>4.3</speed>
<course>12.6</course>
<desc>Speed 4.3 km/h Distance 57.18 km</desc>
<time>2010-09-11T15:09:16.59</time>
<name>1229</name>
</trkpt>
<trkpt lat="49.892272" lon="9.589388">
<ele>271.0</ele>
<speed>4.3</speed>
<course>18.8</course>
<desc>Speed 4.3 km/h Distance 57.18 km</desc>
<time>2010-09-11T15:09:17.58</time>
<name>1230</name>
</trkpt>
<trkpt lat="49.892275" lon="9.589390">
<ele>271.0</ele>
<speed>4.3</speed>
<course>12.6</course>
<desc>Speed 4.3 km/h Distance 57.18 km</desc>
<time>2010-09-11T15:09:18.57</time>
<name>1231</name>
</trkpt>
<trkpt lat="49.892278" lon="9.589392">
<ele>271.0</ele>
<speed>4.3</speed>
<course>118.2</course>
<desc>Speed 4.3 km/h Distance 57.18 km</desc>
<time>2010-09-11T15:09:19.57</time>
<name>1232</name>
</trkpt>
<trkpt lat="49.892097" lon="9.589918">
<ele>270.5</ele>
<speed>4.3</speed>
<course>299.3</course>
<desc>Speed 4.3 km/h Distance 57.23 km</desc>
<time>2010-09-11T15:10:45.53</time>
<name>1233</name>
</trkpt>
<trkpt lat="49.892223" lon="9.589568">
<ele>272.0</ele>
<speed>5.8</speed>
<course>166.4</course>
<desc>Speed 5.8 km/h Distance 57.26 km</desc>
<time>2010-09-11T15:10:50.56</time>
<name>1234</name>
</trkpt>
<trkpt lat="49.892183" lon="9.589583">
<ele>272.0</ele>
<speed>5.8</speed>
<course>227.0</course>
<desc>Speed 5.8 km/h Distance 57.26 km</desc>
<time>2010-09-11T15:10:52.56</time>
<name>1235</name>
</trkpt>
<trkpt lat="49.892143" lon="9.589517">
<ele>273.5</ele>
<speed>5.8</speed>
<course>209.2</course>
<desc>Speed 5.8 km/h Distance 57.27 km</desc>
<time>2010-09-11T15:10:54.56</time>
<name>1236</name>
</trkpt>
<trkpt lat="49.892142" lon="9.589515">
<ele>273.5</ele>
<speed>5.8</speed>
<course>68.7</course>
<desc>Speed 5.8 km/h Distance 57.27 km</desc>
<time>2010-09-11T15:10:55.55</time>
<name>1237</name>
</trkpt>
<trkpt lat="49.892145" lon="9.589528">
<ele>273.0</ele>
<speed>5.8</speed>
<course>15.6</course>
<desc>Speed 5.8 km/h Distance 57.27 km</desc>
<time>2010-09-11T15:10:56.55</time>
<name>1238</name>
</trkpt>
<trkpt lat="49.892183" lon="9.589545">
<ele>273.0</ele>
<speed>5.8</speed>
<course>270.0</course>
<desc>Speed 5.8 km/h Distance 57.27 km</desc>
<time>2010-09-11T15:10:58.55</time>
<name>1239</name>
</trkpt>
<trkpt lat="49.892183" lon="9.589542">
<ele>273.0</ele>
<speed>5.8</speed>
<course>275.2</course>
<desc>Speed 5.8 km/h Distance 57.27 km</desc>
<time>2010-09-11T15:10:59.55</time>
<name>1240</name>
</trkpt>
<trkpt lat="49.892185" lon="9.589513">
<ele>272.5</ele>
<speed>5.8</speed>
<course>44.1</course>
<desc>Speed 5.8 km/h Distance 57.27 km</desc>
<time>2010-09-11T15:11:00.55</time>
<name>1241</name>
</trkpt>
<trkpt lat="49.892195" lon="9.589528">
<ele>273.5</ele>
<speed>5.8</speed>
<course>52.1</course>
<desc>Speed 5.8 km/h Distance 57.28 km</desc>
<time>2010-09-11T15:11:01.55</time>
<name>1242</name>
</trkpt>
<trkpt lat="49.892203" lon="9.589545">
<ele>273.5</ele>
<speed>5.8</speed>
<course>242.6</course>
<desc>Speed 5.8 km/h Distance 57.28 km</desc>
<time>2010-09-11T15:11:02.55</time>
<name>1243</name>
</trkpt>
<trkpt lat="49.892202" lon="9.589540">
<ele>273.5</ele>
<speed>5.8</speed>
<course>34.6</course>
<desc>Speed 5.8 km/h Distance 57.28 km</desc>
<time>2010-09-11T15:11:03.55</time>
<name>1244</name>
</trkpt>
<trkpt lat="49.892225" lon="9.589565">
<ele>274.0</ele>
<speed>0.8</speed>
<course>312.9</course>
<desc>Speed 0.8 km/h Distance 57.28 km</desc>
<time>2010-09-11T15:11:04.56</time>
<name>1245</name>
</trkpt>
<trkpt lat="49.892230" lon="9.589557">
<ele>274.0</ele>
<speed>0.8</speed>
<course>276.3</course>
<desc>Speed 0.8 km/h Distance 57.28 km</desc>
<time>2010-09-11T15:11:05.55</time>
<name>1246</name>
</trkpt>
<trkpt lat="49.892232" lon="9.589533">
<ele>274.0</ele>
<speed>4.1</speed>
<course>168.6</course>
<desc>Speed 4.1 km/h Distance 57.28 km</desc>
<time>2010-09-11T15:11:06.56</time>
<name>1247</name>
</trkpt>
<trkpt lat="49.892205" lon="9.589542">
<ele>274.0</ele>
<speed>4.1</speed>
<course>124.7</course>
<desc>Speed 4.1 km/h Distance 57.29 km</desc>
<time>2010-09-11T15:11:07.55</time>
<name>1248</name>
</trkpt>
<trkpt lat="49.892198" lon="9.589557">
<ele>275.5</ele>
<speed>1.7</speed>
<course>60.9</course>
<desc>Speed 1.7 km/h Distance 57.29 km</desc>
<time>2010-09-11T15:11:08.55</time>
<name>1249</name>
</trkpt>
<trkpt lat="49.892207" lon="9.589580">
<ele>279.5</ele>
<speed>3.1</speed>
<course>128.6</course>
<desc>Speed 3.1 km/h Distance 57.29 km</desc>
<time>2010-09-11T15:11:09.55</time>
<name>1250</name>
</trkpt>
<trkpt lat="49.892177" lon="9.589638">
<ele>283.0</ele>
<speed>5.0</speed>
<course>83.2</course>
<desc>Speed 5.0 km/h Distance 57.30 km</desc>
<time>2010-09-11T15:11:11.55</time>
<name>1251</name>
</trkpt>
<trkpt lat="49.892178" lon="9.589660">
<ele>284.0</ele>
<speed>5.0</speed>
<course>80.2</course>
<desc>Speed 5.0 km/h Distance 57.30 km</desc>
<time>2010-09-11T15:11:12.55</time>
<name>1252</name>
</trkpt>
<trkpt lat="49.892180" lon="9.589675">
<ele>284.0</ele>
<speed>5.0</speed>
<course>220.6</course>
<desc>Speed 5.0 km/h Distance 57.30 km</desc>
<time>2010-09-11T15:11:13.55</time>
<name>1253</name>
</trkpt>
<trkpt lat="49.892170" lon="9.589662">
<ele>279.0</ele>
<speed>5.0</speed>
<course>260.2</course>
<desc>Speed 5.0 km/h Distance 57.30 km</desc>
<time>2010-09-11T15:11:14.55</time>
<name>1254</name>
</trkpt>
<trkpt lat="49.892165" lon="9.589617">
<ele>273.5</ele>
<speed>8.0</speed>
<course>270.0</course>
<desc>Speed 8.0 km/h Distance 57.30 km</desc>
<time>2010-09-11T15:11:16.55</time>
<name>1255</name>
</trkpt>
<trkpt lat="49.892165" lon="9.589572">
<ele>278.0</ele>
<speed>8.0</speed>
<course>257.5</course>
<desc>Speed 8.0 km/h Distance 57.31 km</desc>
<time>2010-09-11T15:11:17.55</time>
<name>1256</name>
</trkpt>
<trkpt lat="49.892163" lon="9.589560">
<ele>281.5</ele>
<speed>8.0</speed>
<course>100.9</course>
<desc>Speed 8.0 km/h Distance 57.31 km</desc>
<time>2010-09-11T15:11:18.55</time>
<name>1257</name>
</trkpt>
<trkpt lat="49.892162" lon="9.589573">
<ele>282.0</ele>
<speed>8.0</speed>
<course>90.0</course>
<desc>Speed 8.0 km/h Distance 57.31 km</desc>
<time>2010-09-11T15:11:19.55</time>
<name>1258</name>
</trkpt>
<trkpt lat="49.892162" lon="9.589578">
<ele>283.0</ele>
<speed>8.0</speed>
<course>190.4</course>
<desc>Speed 8.0 km/h Distance 57.31 km</desc>
<time>2010-09-11T15:11:20.54</time>
<name>1259</name>
</trkpt>
<trkpt lat="49.892150" lon="9.589575">
<ele>287.0</ele>
<speed>5.1</speed>
<course>132.9</course>
<desc>Speed 5.1 km/h Distance 57.31 km</desc>
<time>2010-09-11T15:11:21.55</time>
<name>1260</name>
</trkpt>
<trkpt lat="49.892145" lon="9.589583">
<ele>287.0</ele>
<speed>5.1</speed>
<course>143.2</course>
<desc>Speed 5.1 km/h Distance 57.31 km</desc>
<time>2010-09-11T15:11:22.55</time>
<name>1261</name>
</trkpt>
<trkpt lat="49.892135" lon="9.589595">
<ele>289.0</ele>
<speed>5.1</speed>
<course>259.0</course>
<desc>Speed 5.1 km/h Distance 57.31 km</desc>
<time>2010-09-11T15:11:23.55</time>
<name>1262</name>
</trkpt>
<trkpt lat="49.892132" lon="9.589568">
<ele>289.5</ele>
<speed>5.1</speed>
<course>270.0</course>
<desc>Speed 5.1 km/h Distance 57.31 km</desc>
<time>2010-09-11T15:11:24.54</time>
<name>1263</name>
</trkpt>
<trkpt lat="49.892132" lon="9.589563">
<ele>289.5</ele>
<speed>5.1</speed>
<course>197.6</course>
<desc>Speed 5.1 km/h Distance 57.31 km</desc>
<time>2010-09-11T15:11:25.54</time>
<name>1264</name>
</trkpt>
<trkpt lat="49.892122" lon="9.589558">
<ele>288.0</ele>
<speed>5.1</speed>
<course>190.8</course>
<desc>Speed 5.1 km/h Distance 57.32 km</desc>
<time>2010-09-11T15:11:26.54</time>
<name>1265</name>
</trkpt>
<trkpt lat="49.892105" lon="9.589553">
<ele>288.0</ele>
<speed>5.1</speed>
<course>208.0</course>
<desc>Speed 5.1 km/h Distance 57.32 km</desc>
<time>2010-09-11T15:11:27.54</time>
<name>1266</name>
</trkpt>
<trkpt lat="49.892095" lon="9.589545">
<ele>288.5</ele>
<speed>5.1</speed>
<course>212.6</course>
<desc>Speed 5.1 km/h Distance 57.32 km</desc>
<time>2010-09-11T15:11:28.53</time>
<name>1267</name>
</trkpt>
<trkpt lat="49.892088" lon="9.589538">
<ele>289.0</ele>
<speed>5.1</speed>
<course>212.3</course>
<desc>Speed 5.1 km/h Distance 57.32 km</desc>
<time>2010-09-11T15:11:29.54</time>
<name>1268</name>
</trkpt>
<trkpt lat="49.892083" lon="9.589533">
<ele>289.0</ele>
<speed>5.1</speed>
<course>270.0</course>
<desc>Speed 5.1 km/h Distance 57.32 km</desc>
<time>2010-09-11T15:11:30.55</time>
<name>1269</name>
</trkpt>
<trkpt lat="49.892083" lon="9.589532">
<ele>290.0</ele>
<speed>5.1</speed>
<course>90.0</course>
<desc>Speed 5.1 km/h Distance 57.32 km</desc>
<time>2010-09-11T15:11:31.54</time>
<name>1270</name>
</trkpt>
<trkpt lat="49.892083" lon="9.589533">
<ele>290.5</ele>
<speed>5.1</speed>
<course>171.0</course>
<desc>Speed 5.1 km/h Distance 57.32 km</desc>
<time>2010-09-11T15:11:32.54</time>
<name>1271</name>
</trkpt>
<trkpt lat="49.892070" lon="9.589537">
<ele>292.0</ele>
<speed>2.4</speed>
<course>90.0</course>
<desc>Speed 2.4 km/h Distance 57.32 km</desc>
<time>2010-09-11T15:11:33.53</time>
<name>1272</name>
</trkpt>
<trkpt lat="49.892070" lon="9.589540">
<ele>292.5</ele>
<speed>2.4</speed>
<course>40.9</course>
<desc>Speed 2.4 km/h Distance 57.32 km</desc>
<time>2010-09-11T15:11:34.54</time>
<name>1273</name>
</trkpt>
<trkpt lat="49.892075" lon="9.589547">
<ele>292.5</ele>
<speed>2.4</speed>
<course>107.1</course>
<desc>Speed 2.4 km/h Distance 57.32 km</desc>
<time>2010-09-11T15:11:36.86</time>
<name>1274</name>
</trkpt>
<trkpt lat="49.892073" lon="9.589555">
<ele>292.5</ele>
<speed>1.1</speed>
<course>44.0</course>
<desc>Speed 1.1 km/h Distance 57.32 km</desc>
<time>2010-09-11T15:11:37.54</time>
<name>1275</name>
</trkpt>
<trkpt lat="49.892093" lon="9.589585">
<ele>296.5</ele>
<speed>2.8</speed>
<course>2.8</course>
<desc>Speed 2.8 km/h Distance 57.33 km</desc>
<time>2010-09-11T15:11:39.53</time>
<name>1276</name>
</trkpt>
<trkpt lat="49.892110" lon="9.589587">
<ele>297.5</ele>
<speed>5.0</speed>
<course>351.0</course>
<desc>Speed 5.0 km/h Distance 57.33 km</desc>
<time>2010-09-11T15:11:40.53</time>
<name>1277</name>
</trkpt>
<trkpt lat="49.892123" lon="9.589583">
<ele>297.5</ele>
<speed>0.5</speed>
<course>355.6</course>
<desc>Speed 0.5 km/h Distance 57.33 km</desc>
<time>2010-09-11T15:11:41.53</time>
<name>1278</name>
</trkpt>
<trkpt lat="49.892133" lon="9.589582">
<ele>288.0</ele>
<speed>0.5</speed>
<course>299.0</course>
<desc>Speed 0.5 km/h Distance 57.33 km</desc>
<time>2010-09-11T15:11:42.53</time>
<name>1279</name>
</trkpt>
<trkpt lat="49.892142" lon="9.589558">
<ele>286.0</ele>
<speed>5.1</speed>
<course>287.3</course>
<desc>Speed 5.1 km/h Distance 57.33 km</desc>
<time>2010-09-11T15:11:43.53</time>
<name>1280</name>
</trkpt>
<trkpt lat="49.892145" lon="9.589542">
<ele>286.0</ele>
<speed>5.1</speed>
<course>77.5</course>
<desc>Speed 5.1 km/h Distance 57.33 km</desc>
<time>2010-09-11T15:11:44.53</time>
<name>1281</name>
</trkpt>
<trkpt lat="49.892147" lon="9.589553">
<ele>284.0</ele>
<speed>1.7</speed>
<course>257.5</course>
<desc>Speed 1.7 km/h Distance 57.34 km</desc>
<time>2010-09-11T15:11:45.53</time>
<name>1282</name>
</trkpt>
<trkpt lat="49.892145" lon="9.589542">
<ele>284.5</ele>
<speed>1.4</speed>
<course>312.9</course>
<desc>Speed 1.4 km/h Distance 57.34 km</desc>
<time>2010-09-11T15:11:46.54</time>
<name>1283</name>
</trkpt>
<trkpt lat="49.892150" lon="9.589533">
<ele>286.5</ele>
<speed>1.4</speed>
<course>305.3</course>
<desc>Speed 1.4 km/h Distance 57.34 km</desc>
<time>2010-09-11T15:11:47.53</time>
<name>1284</name>
</trkpt>
<trkpt lat="49.892158" lon="9.589515">
<ele>288.0</ele>
<speed>3.7</speed>
<course>50.1</course>
<desc>Speed 3.7 km/h Distance 57.34 km</desc>
<time>2010-09-11T15:11:48.53</time>
<name>1285</name>
</trkpt>
<trkpt lat="49.892170" lon="9.589537">
<ele>288.5</ele>
<speed>1.5</speed>
<course>17.7</course>
<desc>Speed 1.5 km/h Distance 57.34 km</desc>
<time>2010-09-11T15:11:49.53</time>
<name>1286</name>
</trkpt>
<trkpt lat="49.892187" lon="9.589545">
<ele>290.0</ele>
<speed>1.9</speed>
<course>315.6</course>
<desc>Speed 1.9 km/h Distance 57.34 km</desc>
<time>2010-09-11T15:11:50.53</time>
<name>1287</name>
</trkpt>
<trkpt lat="49.892228" lon="9.589482">
<ele>297.0</ele>
<speed>6.7</speed>
<course>62.1</course>
<desc>Speed 6.7 km/h Distance 57.35 km</desc>
<time>2010-09-11T15:11:52.53</time>
<name>1288</name>
</trkpt>
<trkpt lat="49.892252" lon="9.589550">
<ele>300.0</ele>
<speed>2.9</speed>
<course>36.5</course>
<desc>Speed 2.9 km/h Distance 57.35 km</desc>
<time>2010-09-11T15:11:54.53</time>
<name>1289</name>
</trkpt>
<trkpt lat="49.892263" lon="9.589563">
<ele>300.0</ele>
<speed>0.8</speed>
<course>270.0</course>
<desc>Speed 0.8 km/h Distance 57.36 km</desc>
<time>2010-09-11T15:11:55.53</time>
<name>1290</name>
</trkpt>
<trkpt lat="49.892263" lon="9.589557">
<ele>300.0</ele>
<speed>3.3</speed>
<course>35.2</course>
<desc>Speed 3.3 km/h Distance 57.36 km</desc>
<time>2010-09-11T15:11:56.53</time>
<name>1291</name>
</trkpt>
<trkpt lat="49.892298" lon="9.589595">
<ele>299.0</ele>
<speed>3.2</speed>
<course>51.4</course>
<desc>Speed 3.2 km/h Distance 57.36 km</desc>
<time>2010-09-11T15:11:58.52</time>
<name>1292</name>
</trkpt>
<trkpt lat="49.892330" lon="9.589657">
<ele>309.0</ele>
<speed>4.5</speed>
<course>90.0</course>
<desc>Speed 4.5 km/h Distance 57.37 km</desc>
<time>2010-09-11T15:12:00.52</time>
<name>1293</name>
</trkpt>
<trkpt lat="49.892330" lon="9.589663">
<ele>309.5</ele>
<speed>1.9</speed>
<course>322.8</course>
<desc>Speed 1.9 km/h Distance 57.37 km</desc>
<time>2010-09-11T15:12:01.52</time>
<name>1294</name>
</trkpt>
<trkpt lat="49.892332" lon="9.589662">
<ele>308.0</ele>
<speed>2.0</speed>
<course>66.3</course>
<desc>Speed 2.0 km/h Distance 57.37 km</desc>
<time>2010-09-11T15:12:02.52</time>
<name>1295</name>
</trkpt>
<trkpt lat="49.892353" lon="9.589738">
<ele>310.0</ele>
<speed>4.1</speed>
<course>122.1</course>
<desc>Speed 4.1 km/h Distance 57.37 km</desc>
<time>2010-09-11T15:12:04.52</time>
<name>1296</name>
</trkpt>
<trkpt lat="49.892350" lon="9.589747">
<ele>310.0</ele>
<speed>1.8</speed>
<course>180.0</course>
<desc>Speed 1.8 km/h Distance 57.37 km</desc>
<time>2010-09-11T15:12:05.52</time>
<name>1297</name>
</trkpt>
<trkpt lat="49.892345" lon="9.589747">
<ele>308.0</ele>
<speed>2.5</speed>
<course>270.0</course>
<desc>Speed 2.5 km/h Distance 57.37 km</desc>
<time>2010-09-11T15:12:06.51</time>
<name>1298</name>
</trkpt>
<trkpt lat="49.892345" lon="9.589738">
<ele>307.5</ele>
<speed>1.1</speed>
<course>192.6</course>
<desc>Speed 1.1 km/h Distance 57.38 km</desc>
<time>2010-09-11T15:12:07.51</time>
<name>1299</name>
</trkpt>
<trkpt lat="49.892342" lon="9.589737">
<ele>307.5</ele>
<speed>1.8</speed>
<course>90.0</course>
<desc>Speed 1.8 km/h Distance 57.38 km</desc>
<time>2010-09-11T15:12:08.52</time>
<name>1300</name>
</trkpt>
<trkpt lat="49.892342" lon="9.589825">
<ele>308.5</ele>
<speed>1.7</speed>
<course>111.3</course>
<desc>Speed 1.7 km/h Distance 57.38 km</desc>
<time>2010-09-11T15:12:10.51</time>
<name>1301</name>
</trkpt>
<trkpt lat="49.892340" lon="9.589832">
<ele>310.0</ele>
<speed>1.7</speed>
<course>107.5</course>
<desc>Speed 1.7 km/h Distance 57.38 km</desc>
<time>2010-09-11T15:12:11.51</time>
<name>1302</name>
</trkpt>
<trkpt lat="49.892338" lon="9.589840">
<ele>310.5</ele>
<speed>1.7</speed>
<course>252.7</course>
<desc>Speed 1.7 km/h Distance 57.38 km</desc>
<time>2010-09-11T15:12:12.51</time>
<name>1303</name>
</trkpt>
<trkpt lat="49.892335" lon="9.589823">
<ele>311.0</ele>
<speed>1.9</speed>
<course>150.8</course>
<desc>Speed 1.9 km/h Distance 57.38 km</desc>
<time>2010-09-11T15:12:13.52</time>
<name>1304</name>
</trkpt>
<trkpt lat="49.892332" lon="9.589827">
<ele>310.5</ele>
<speed>3.0</speed>
<course>270.0</course>
<desc>Speed 3.0 km/h Distance 57.39 km</desc>
<time>2010-09-11T15:12:14.51</time>
<name>1305</name>
</trkpt>
<trkpt lat="49.892332" lon="9.589795">
<ele>311.0</ele>
<speed>4.1</speed>
<course>180.0</course>
<desc>Speed 4.1 km/h Distance 57.39 km</desc>
<time>2010-09-11T15:12:15.51</time>
<name>1306</name>
</trkpt>
<trkpt lat="49.892327" lon="9.589795">
<ele>312.0</ele>
<speed>4.1</speed>
<course>222.4</course>
<desc>Speed 4.1 km/h Distance 57.39 km</desc>
<time>2010-09-11T15:12:16.51</time>
<name>1307</name>
</trkpt>
<trkpt lat="49.892307" lon="9.589767">
<ele>315.0</ele>
<speed>4.1</speed>
<course>218.7</course>
<desc>Speed 4.1 km/h Distance 57.39 km</desc>
<time>2010-09-11T15:12:17.51</time>
<name>1308</name>
</trkpt>
<trkpt lat="49.892300" lon="9.589758">
<ele>315.5</ele>
<speed>2.5</speed>
<course>197.5</course>
<desc>Speed 2.5 km/h Distance 57.39 km</desc>
<time>2010-09-11T15:12:18.51</time>
<name>1309</name>
</trkpt>
<trkpt lat="49.892293" lon="9.589755">
<ele>315.5</ele>
<speed>2.5</speed>
<course>180.0</course>
<desc>Speed 2.5 km/h Distance 57.39 km</desc>
<time>2010-09-11T15:12:19.51</time>
<name>1310</name>
</trkpt>
<trkpt lat="49.892292" lon="9.589755">
<ele>315.5</ele>
<speed>2.5</speed>
<course>244.1</course>
<desc>Speed 2.5 km/h Distance 57.39 km</desc>
<time>2010-09-11T15:12:20.51</time>
<name>1311</name>
</trkpt>
<trkpt lat="49.892275" lon="9.589702">
<ele>317.5</ele>
<speed>2.5</speed>
<course>270.0</course>
<desc>Speed 2.5 km/h Distance 57.40 km</desc>
<time>2010-09-11T15:12:22.50</time>
<name>1312</name>
</trkpt>
<trkpt lat="49.892275" lon="9.589692">
<ele>317.5</ele>
<speed>2.5</speed>
<course>270.0</course>
<desc>Speed 2.5 km/h Distance 57.40 km</desc>
<time>2010-09-11T15:12:23.50</time>
<name>1313</name>
</trkpt>
<trkpt lat="49.892275" lon="9.589687">
<ele>317.5</ele>
<speed>2.5</speed>
<course>283.6</course>
<desc>Speed 2.5 km/h Distance 57.40 km</desc>
<time>2010-09-11T15:12:24.50</time>
<name>1314</name>
</trkpt>
<trkpt lat="49.892287" lon="9.589612">
<ele>317.0</ele>
<speed>4.9</speed>
<course>337.9</course>
<desc>Speed 4.9 km/h Distance 57.40 km</desc>
<time>2010-09-11T15:12:26.50</time>
<name>1315</name>
</trkpt>
<trkpt lat="49.892300" lon="9.589603">
<ele>317.5</ele>
<speed>4.9</speed>
<course>323.6</course>
<desc>Speed 4.9 km/h Distance 57.41 km</desc>
<time>2010-09-11T15:12:27.50</time>
<name>1316</name>
</trkpt>
<trkpt lat="49.892312" lon="9.589590">
<ele>317.5</ele>
<speed>4.9</speed>
<course>227.0</course>
<desc>Speed 4.9 km/h Distance 57.41 km</desc>
<time>2010-09-11T15:12:28.50</time>
<name>1317</name>
</trkpt>
<trkpt lat="49.892297" lon="9.589565">
<ele>316.5</ele>
<speed>3.6</speed>
<course>240.5</course>
<desc>Speed 3.6 km/h Distance 57.41 km</desc>
<time>2010-09-11T15:12:29.50</time>
<name>1318</name>
</trkpt>
<trkpt lat="49.892290" lon="9.589547">
<ele>316.0</ele>
<speed>3.6</speed>
<course>238.1</course>
<desc>Speed 3.6 km/h Distance 57.41 km</desc>
<time>2010-09-11T15:12:30.50</time>
<name>1319</name>
</trkpt>
<trkpt lat="49.892283" lon="9.589530">
<ele>316.0</ele>
<speed>3.6</speed>
<course>150.8</course>
<desc>Speed 3.6 km/h Distance 57.41 km</desc>
<time>2010-09-11T15:12:31.50</time>
<name>1320</name>
</trkpt>
<trkpt lat="49.892282" lon="9.589530">
<ele>315.5</ele>
<speed>3.6</speed>
<course>215.2</course>
<desc>Speed 3.6 km/h Distance 57.41 km</desc>
<time>2010-09-11T15:12:32.50</time>
<name>1321</name>
</trkpt>
<trkpt lat="49.892263" lon="9.589510">
<ele>314.5</ele>
<speed>2.3</speed>
<course>114.9</course>
<desc>Speed 2.3 km/h Distance 57.41 km</desc>
<time>2010-09-11T15:12:33.50</time>
<name>1322</name>
</trkpt>
<trkpt lat="49.892258" lon="9.589527">
<ele>314.5</ele>
<speed>2.3</speed>
<course>259.1</course>
<desc>Speed 2.3 km/h Distance 57.42 km</desc>
<time>2010-09-11T15:12:34.50</time>
<name>1323</name>
</trkpt>
<trkpt lat="49.892257" lon="9.589513">
<ele>313.5</ele>
<speed>2.3</speed>
<course>203.0</course>
<desc>Speed 2.3 km/h Distance 57.42 km</desc>
<time>2010-09-11T15:12:35.50</time>
<name>1324</name>
</trkpt>
<trkpt lat="49.892253" lon="9.589512">
<ele>313.0</ele>
<speed>2.3</speed>
<course>13.6</course>
<desc>Speed 2.3 km/h Distance 57.42 km</desc>
<time>2010-09-11T15:12:36.50</time>
<name>1325</name>
</trkpt>
<trkpt lat="49.892293" lon="9.589527">
<ele>311.5</ele>
<speed>6.1</speed>
<course>41.9</course>
<desc>Speed 6.1 km/h Distance 57.42 km</desc>
<time>2010-09-11T15:12:38.50</time>
<name>1326</name>
</trkpt>
<trkpt lat="49.892302" lon="9.589538">
<ele>312.0</ele>
<speed>6.1</speed>
<course>5.0</course>
<desc>Speed 6.1 km/h Distance 57.42 km</desc>
<time>2010-09-11T15:12:39.50</time>
<name>1327</name>
</trkpt>
<trkpt lat="49.892310" lon="9.589540">
<ele>312.5</ele>
<speed>6.1</speed>
<course>62.6</course>
<desc>Speed 6.1 km/h Distance 57.42 km</desc>
<time>2010-09-11T15:12:40.50</time>
<name>1328</name>
</trkpt>
<trkpt lat="49.892313" lon="9.589550">
<ele>312.5</ele>
<speed>6.1</speed>
<course>90.0</course>
<desc>Speed 6.1 km/h Distance 57.43 km</desc>
<time>2010-09-11T15:12:41.49</time>
<name>1329</name>
</trkpt>
<trkpt lat="49.892313" lon="9.589573">
<ele>313.0</ele>
<speed>6.1</speed>
<course>166.4</course>
<desc>Speed 6.1 km/h Distance 57.43 km</desc>
<time>2010-09-11T15:12:42.49</time>
<name>1330</name>
</trkpt>
<trkpt lat="49.892292" lon="9.589582">
<ele>313.5</ele>
<speed>6.1</speed>
<course>310.6</course>
<desc>Speed 6.1 km/h Distance 57.43 km</desc>
<time>2010-09-11T15:12:43.49</time>
<name>1331</name>
</trkpt>
<trkpt lat="49.892293" lon="9.589578">
<ele>314.0</ele>
<speed>6.1</speed>
<course>171.2</course>
<desc>Speed 6.1 km/h Distance 57.43 km</desc>
<time>2010-09-11T15:12:44.49</time>
<name>1332</name>
</trkpt>
<trkpt lat="49.892273" lon="9.589583">
<ele>314.0</ele>
<speed>7.3</speed>
<course>177.2</course>
<desc>Speed 7.3 km/h Distance 57.43 km</desc>
<time>2010-09-11T15:12:45.49</time>
<name>1333</name>
</trkpt>
<trkpt lat="49.892257" lon="9.589583">
<ele>313.5</ele>
<speed>7.3</speed>
<course>188.8</course>
<desc>Speed 7.3 km/h Distance 57.43 km</desc>
<time>2010-09-11T15:12:46.49</time>
<name>1334</name>
</trkpt>
<trkpt lat="49.892237" lon="9.589578">
<ele>313.5</ele>
<speed>7.3</speed>
<course>178.8</course>
<desc>Speed 7.3 km/h Distance 57.44 km</desc>
<time>2010-09-11T15:12:47.48</time>
<name>1335</name>
</trkpt>
<trkpt lat="49.892223" lon="9.589578">
<ele>313.5</ele>
<speed>7.3</speed>
<course>90.0</course>
<desc>Speed 7.3 km/h Distance 57.44 km</desc>
<time>2010-09-11T15:12:48.48</time>
<name>1336</name>
</trkpt>
<trkpt lat="49.892223" lon="9.589585">
<ele>313.0</ele>
<speed>7.3</speed>
<course>90.0</course>
<desc>Speed 7.3 km/h Distance 57.44 km</desc>
<time>2010-09-11T15:12:49.48</time>
<name>1337</name>
</trkpt>
<trkpt lat="49.892223" lon="9.589587">
<ele>313.0</ele>
<speed>7.3</speed>
<course>213.2</course>
<desc>Speed 7.3 km/h Distance 57.44 km</desc>
<time>2010-09-11T15:12:50.49</time>
<name>1338</name>
</trkpt>
<trkpt lat="49.892217" lon="9.589580">
<ele>313.0</ele>
<speed>7.3</speed>
<course>197.9</course>
<desc>Speed 7.3 km/h Distance 57.44 km</desc>
<time>2010-09-11T15:12:51.48</time>
<name>1339</name>
</trkpt>
<trkpt lat="49.892197" lon="9.589570">
<ele>312.5</ele>
<speed>7.3</speed>
<course>184.4</course>
<desc>Speed 7.3 km/h Distance 57.44 km</desc>
<time>2010-09-11T15:12:52.49</time>
<name>1340</name>
</trkpt>
<trkpt lat="49.892187" lon="9.589568">
<ele>312.5</ele>
<speed>7.3</speed>
<course>231.9</course>
<desc>Speed 7.3 km/h Distance 57.44 km</desc>
<time>2010-09-11T15:12:53.49</time>
<name>1341</name>
</trkpt>
<trkpt lat="49.892182" lon="9.589558">
<ele>312.5</ele>
<speed>7.3</speed>
<course>8.1</course>
<desc>Speed 7.3 km/h Distance 57.44 km</desc>
<time>2010-09-11T15:12:54.48</time>
<name>1342</name>
</trkpt>
<trkpt lat="49.892187" lon="9.589560">
<ele>312.5</ele>
<speed>7.3</speed>
<course>307.6</course>
<desc>Speed 7.3 km/h Distance 57.44 km</desc>
<time>2010-09-11T15:12:55.48</time>
<name>1343</name>
</trkpt>
<trkpt lat="49.892190" lon="9.589553">
<ele>312.5</ele>
<speed>7.3</speed>
<course>308.1</course>
<desc>Speed 7.3 km/h Distance 57.44 km</desc>
<time>2010-09-11T15:12:56.48</time>
<name>1344</name>
</trkpt>
<trkpt lat="49.892192" lon="9.589550">
<ele>312.5</ele>
<speed>7.3</speed>
<course>319.1</course>
<desc>Speed 7.3 km/h Distance 57.44 km</desc>
<time>2010-09-11T15:12:57.49</time>
<name>1345</name>
</trkpt>
<trkpt lat="49.892197" lon="9.589543">
<ele>312.5</ele>
<speed>7.3</speed>
<course>12.6</course>
<desc>Speed 7.3 km/h Distance 57.45 km</desc>
<time>2010-09-11T15:12:58.48</time>
<name>1346</name>
</trkpt>
<trkpt lat="49.892200" lon="9.589543">
<ele>312.5</ele>
<speed>7.3</speed>
<course>12.6</course>
<desc>Speed 7.3 km/h Distance 57.45 km</desc>
<time>2010-09-11T15:12:59.48</time>
<name>1347</name>
</trkpt>
<trkpt lat="49.892205" lon="9.589545">
<ele>312.5</ele>
<speed>7.3</speed>
<course>249.1</course>
<desc>Speed 7.3 km/h Distance 57.45 km</desc>
<time>2010-09-11T15:13:00.48</time>
<name>1348</name>
</trkpt>
<trkpt lat="49.892203" lon="9.589538">
<ele>312.5</ele>
<speed>7.3</speed>
<course>307.8</course>
<desc>Speed 7.3 km/h Distance 57.45 km</desc>
<time>2010-09-11T15:13:01.49</time>
<name>1349</name>
</trkpt>
<trkpt lat="49.892213" lon="9.589518">
<ele>312.5</ele>
<speed>2.6</speed>
<course>327.4</course>
<desc>Speed 2.6 km/h Distance 57.45 km</desc>
<time>2010-09-11T15:13:02.48</time>
<name>1350</name>
</trkpt>
<trkpt lat="49.892220" lon="9.589512">
<ele>312.5</ele>
<speed>2.6</speed>
<course>327.4</course>
<desc>Speed 2.6 km/h Distance 57.45 km</desc>
<time>2010-09-11T15:13:03.48</time>
<name>1351</name>
</trkpt>
<trkpt lat="49.892220" lon="9.589512">
<ele>312.5</ele>
<speed>2.6</speed>
<course>0.0</course>
<desc>Speed 2.6 km/h Distance 57.45 km</desc>
<time>2010-09-11T15:13:04.48</time>
<name>1352</name>
</trkpt>
<trkpt lat="49.892228" lon="9.589512">
<ele>312.0</ele>
<speed>2.6</speed>
<course>341.9</course>
<desc>Speed 2.6 km/h Distance 57.45 km</desc>
<time>2010-09-11T15:13:05.48</time>
<name>1353</name>
</trkpt>
<trkpt lat="49.892242" lon="9.589505">
<ele>312.0</ele>
<speed>2.6</speed>
<course>296.6</course>
<desc>Speed 2.6 km/h Distance 57.45 km</desc>
<time>2010-09-11T15:13:06.48</time>
<name>1354</name>
</trkpt>
<trkpt lat="49.892243" lon="9.589500">
<ele>312.0</ele>
<speed>2.6</speed>
<course>270.0</course>
<desc>Speed 2.6 km/h Distance 57.45 km</desc>
<time>2010-09-11T15:13:07.47</time>
<name>1355</name>
</trkpt>
<trkpt lat="49.892243" lon="9.589497">
<ele>312.0</ele>
<speed>2.6</speed>
<course>11.0</course>
<desc>Speed 2.6 km/h Distance 57.45 km</desc>
<time>2010-09-11T15:13:08.48</time>
<name>1356</name>
</trkpt>
<trkpt lat="49.892310" lon="9.589517">
<ele>309.5</ele>
<speed>3.2</speed>
<course>355.6</course>
<desc>Speed 3.2 km/h Distance 57.46 km</desc>
<time>2010-09-11T15:13:10.47</time>
<name>1357</name>
</trkpt>
<trkpt lat="49.892320" lon="9.589515">
<ele>308.5</ele>
<speed>3.2</speed>
<course>317.9</course>
<desc>Speed 3.2 km/h Distance 57.46 km</desc>
<time>2010-09-11T15:13:11.47</time>
<name>1358</name>
</trkpt>
<trkpt lat="49.892328" lon="9.589503">
<ele>308.0</ele>
<speed>3.2</speed>
<course>308.0</course>
<desc>Speed 3.2 km/h Distance 57.46 km</desc>
<time>2010-09-11T15:13:12.47</time>
<name>1359</name>
</trkpt>
<trkpt lat="49.892335" lon="9.589490">
<ele>307.0</ele>
<speed>3.2</speed>
<course>37.2</course>
<desc>Speed 3.2 km/h Distance 57.46 km</desc>
<time>2010-09-11T15:13:13.47</time>
<name>1360</name>
</trkpt>
<trkpt lat="49.892337" lon="9.589492">
<ele>307.0</ele>
<speed>3.2</speed>
<course>12.6</course>
<desc>Speed 3.2 km/h Distance 57.46 km</desc>
<time>2010-09-11T15:13:14.46</time>
<name>1361</name>
</trkpt>
<trkpt lat="49.892340" lon="9.589492">
<ele>307.0</ele>
<speed>3.2</speed>
<course>12.6</course>
<desc>Speed 3.2 km/h Distance 57.46 km</desc>
<time>2010-09-11T15:13:15.46</time>
<name>1362</name>
</trkpt>
<trkpt lat="49.892340" lon="9.589492">
<ele>306.5</ele>
<speed>3.2</speed>
<course>239.9</course>
<desc>Speed 3.2 km/h Distance 57.46 km</desc>
<time>2010-09-11T15:13:16.46</time>
<name>1363</name>
</trkpt>
<trkpt lat="49.892335" lon="9.589478">
<ele>306.5</ele>
<speed>3.2</speed>
<course>242.6</course>
<desc>Speed 3.2 km/h Distance 57.47 km</desc>
<time>2010-09-11T15:13:17.46</time>
<name>1364</name>
</trkpt>
<trkpt lat="49.892332" lon="9.589468">
<ele>305.5</ele>
<speed>2.5</speed>
<course>211.6</course>
<desc>Speed 2.5 km/h Distance 57.47 km</desc>
<time>2010-09-11T15:13:18.46</time>
<name>1365</name>
</trkpt>
<trkpt lat="49.892328" lon="9.589465">
<ele>305.0</ele>
<speed>2.5</speed>
<course>192.6</course>
<desc>Speed 2.5 km/h Distance 57.47 km</desc>
<time>2010-09-11T15:13:19.46</time>
<name>1366</name>
</trkpt>
<trkpt lat="49.892325" lon="9.589463">
<ele>304.5</ele>
<speed>2.5</speed>
<course>167.4</course>
<desc>Speed 2.5 km/h Distance 57.47 km</desc>
<time>2010-09-11T15:13:20.46</time>
<name>1367</name>
</trkpt>
<trkpt lat="49.892323" lon="9.589463">
<ele>304.5</ele>
<speed>2.5</speed>
<course>270.0</course>
<desc>Speed 2.5 km/h Distance 57.47 km</desc>
<time>2010-09-11T15:13:21.46</time>
<name>1368</name>
</trkpt>
<trkpt lat="49.892323" lon="9.589455">
<ele>304.0</ele>
<speed>2.5</speed>
<course>212.3</course>
<desc>Speed 2.5 km/h Distance 57.47 km</desc>
<time>2010-09-11T15:13:22.46</time>
<name>1369</name>
</trkpt>
<trkpt lat="49.892318" lon="9.589450">
<ele>304.0</ele>
<speed>2.5</speed>
<course>90.0</course>
<desc>Speed 2.5 km/h Distance 57.47 km</desc>
<time>2010-09-11T15:13:23.46</time>
<name>1370</name>
</trkpt>
<trkpt lat="49.892318" lon="9.589452">
<ele>304.0</ele>
<speed>2.5</speed>
<course>90.0</course>
<desc>Speed 2.5 km/h Distance 57.47 km</desc>
<time>2010-09-11T15:13:24.46</time>
<name>1371</name>
</trkpt>
<trkpt lat="49.892318" lon="9.589453">
<ele>303.5</ele>
<speed>2.5</speed>
<course>247.1</course>
<desc>Speed 2.5 km/h Distance 57.47 km</desc>
<time>2010-09-11T15:13:25.46</time>
<name>1372</name>
</trkpt>
<trkpt lat="49.892313" lon="9.589435">
<ele>303.5</ele>
<speed>2.5</speed>
<course>202.2</course>
<desc>Speed 2.5 km/h Distance 57.47 km</desc>
<time>2010-09-11T15:13:26.46</time>
<name>1373</name>
</trkpt>
<trkpt lat="49.892308" lon="9.589432">
<ele>303.5</ele>
<speed>2.5</speed>
<course>135.5</course>
<desc>Speed 2.5 km/h Distance 57.47 km</desc>
<time>2010-09-11T15:13:27.46</time>
<name>1374</name>
</trkpt>
<trkpt lat="49.892305" lon="9.589437">
<ele>303.0</ele>
<speed>2.5</speed>
<course>146.3</course>
<desc>Speed 2.5 km/h Distance 57.47 km</desc>
<time>2010-09-11T15:13:28.46</time>
<name>1375</name>
</trkpt>
<trkpt lat="49.892302" lon="9.589440">
<ele>303.0</ele>
<speed>2.5</speed>
<course>231.9</course>
<desc>Speed 2.5 km/h Distance 57.47 km</desc>
<time>2010-09-11T15:13:29.46</time>
<name>1376</name>
</trkpt>
<trkpt lat="49.892300" lon="9.589437">
<ele>305.5</ele>
<speed>3.0</speed>
<course>29.2</course>
<desc>Speed 3.0 km/h Distance 57.47 km</desc>
<time>2010-09-11T15:13:30.45</time>
<name>1377</name>
</trkpt>
<trkpt lat="49.892302" lon="9.589438">
<ele>306.0</ele>
<speed>3.0</speed>
<course>12.6</course>
<desc>Speed 3.0 km/h Distance 57.47 km</desc>
<time>2010-09-11T15:13:31.45</time>
<name>1378</name>
</trkpt>
<trkpt lat="49.892303" lon="9.589438">
<ele>306.0</ele>
<speed>3.0</speed>
<course>12.6</course>
<desc>Speed 3.0 km/h Distance 57.47 km</desc>
<time>2010-09-11T15:13:32.46</time>
<name>1379</name>
</trkpt>
<trkpt lat="49.892307" lon="9.589440">
<ele>306.0</ele>
<speed>3.0</speed>
<course>260.2</course>
<desc>Speed 3.0 km/h Distance 57.47 km</desc>
<time>2010-09-11T15:13:33.46</time>
<name>1380</name>
</trkpt>
<trkpt lat="49.892303" lon="9.589410">
<ele>305.5</ele>
<speed>1.8</speed>
<course>205.6</course>
<desc>Speed 1.8 km/h Distance 57.48 km</desc>
<time>2010-09-11T15:13:34.45</time>
<name>1381</name>
</trkpt>
<trkpt lat="49.892297" lon="9.589405">
<ele>306.0</ele>
<speed>1.3</speed>
<course>147.4</course>
<desc>Speed 1.3 km/h Distance 57.48 km</desc>
<time>2010-09-11T15:13:35.45</time>
<name>1382</name>
</trkpt>
<trkpt lat="49.892290" lon="9.589412">
<ele>306.0</ele>
<speed>1.3</speed>
<course>79.0</course>
<desc>Speed 1.3 km/h Distance 57.48 km</desc>
<time>2010-09-11T15:13:36.45</time>
<name>1383</name>
</trkpt>
<trkpt lat="49.892292" lon="9.589425">
<ele>306.5</ele>
<speed>1.0</speed>
<course>77.5</course>
<desc>Speed 1.0 km/h Distance 57.48 km</desc>
<time>2010-09-11T15:13:37.45</time>
<name>1384</name>
</trkpt>
<trkpt lat="49.892295" lon="9.589448">
<ele>305.0</ele>
<speed>1.0</speed>
<course>62.4</course>
<desc>Speed 1.0 km/h Distance 57.48 km</desc>
<time>2010-09-11T15:13:38.45</time>
<name>1385</name>
</trkpt>
<trkpt lat="49.892298" lon="9.589458">
<ele>304.5</ele>
<speed>1.0</speed>
<course>61.7</course>
<desc>Speed 1.0 km/h Distance 57.48 km</desc>
<time>2010-09-11T15:13:39.45</time>
<name>1386</name>
</trkpt>
<trkpt lat="49.892300" lon="9.589463">
<ele>304.0</ele>
<speed>1.0</speed>
<course>90.0</course>
<desc>Speed 1.0 km/h Distance 57.48 km</desc>
<time>2010-09-11T15:13:40.45</time>
<name>1387</name>
</trkpt>
<trkpt lat="49.892300" lon="9.589467">
<ele>304.0</ele>
<speed>1.0</speed>
<course>2.7</course>
<desc>Speed 1.0 km/h Distance 57.48 km</desc>
<time>2010-09-11T15:13:41.45</time>
<name>1388</name>
</trkpt>
<trkpt lat="49.892320" lon="9.589468">
<ele>303.5</ele>
<speed>2.1</speed>
<course>333.6</course>
<desc>Speed 2.1 km/h Distance 57.48 km</desc>
<time>2010-09-11T15:13:42.44</time>
<name>1389</name>
</trkpt>
<trkpt lat="49.892327" lon="9.589463">
<ele>303.0</ele>
<speed>2.1</speed>
<course>222.1</course>
<desc>Speed 2.1 km/h Distance 57.48 km</desc>
<time>2010-09-11T15:13:43.44</time>
<name>1390</name>
</trkpt>
<trkpt lat="49.892318" lon="9.589452">
<ele>303.5</ele>
<speed>2.1</speed>
<course>177.4</course>
<desc>Speed 2.1 km/h Distance 57.49 km</desc>
<time>2010-09-11T15:13:44.44</time>
<name>1391</name>
</trkpt>
<trkpt lat="49.892248" lon="9.589457">
<ele>301.0</ele>
<speed>2.1</speed>
<course>167.4</course>
<desc>Speed 2.1 km/h Distance 57.49 km</desc>
<time>2010-09-11T15:13:46.45</time>
<name>1392</name>
</trkpt>
<trkpt lat="49.892243" lon="9.589458">
<ele>301.0</ele>
<speed>2.1</speed>
<course>127.6</course>
<desc>Speed 2.1 km/h Distance 57.49 km</desc>
<time>2010-09-11T15:13:47.45</time>
<name>1393</name>
</trkpt>
<trkpt lat="49.892240" lon="9.589465">
<ele>300.5</ele>
<speed>2.8</speed>
<course>56.4</course>
<desc>Speed 2.8 km/h Distance 57.49 km</desc>
<time>2010-09-11T15:13:48.45</time>
<name>1394</name>
</trkpt>
<trkpt lat="49.892245" lon="9.589477">
<ele>300.0</ele>
<speed>2.8</speed>
<course>272.8</course>
<desc>Speed 2.8 km/h Distance 57.50 km</desc>
<time>2010-09-11T15:13:49.45</time>
<name>1395</name>
</trkpt>
<trkpt lat="49.892247" lon="9.589423">
<ele>298.5</ele>
<speed>2.4</speed>
<course>295.7</course>
<desc>Speed 2.4 km/h Distance 57.50 km</desc>
<time>2010-09-11T15:13:51.45</time>
<name>1396</name>
</trkpt>
<trkpt lat="49.892262" lon="9.589375">
<ele>296.0</ele>
<speed>5.6</speed>
<course>275.5</course>
<desc>Speed 5.6 km/h Distance 57.50 km</desc>
<time>2010-09-11T15:13:53.45</time>
<name>1397</name>
</trkpt>
<trkpt lat="49.892263" lon="9.589348">
<ele>295.0</ele>
<speed>2.8</speed>
<course>309.4</course>
<desc>Speed 2.8 km/h Distance 57.50 km</desc>
<time>2010-09-11T15:13:54.45</time>
<name>1398</name>
</trkpt>
<trkpt lat="49.892278" lon="9.589320">
<ele>295.0</ele>
<speed>2.1</speed>
<course>318.1</course>
<desc>Speed 2.1 km/h Distance 57.51 km</desc>
<time>2010-09-11T15:13:55.45</time>
<name>1399</name>
</trkpt>
<trkpt lat="49.892287" lon="9.589308">
<ele>295.0</ele>
<speed>2.1</speed>
<course>317.5</course>
<desc>Speed 2.1 km/h Distance 57.51 km</desc>
<time>2010-09-11T15:13:56.45</time>
<name>1400</name>
</trkpt>
<trkpt lat="49.892290" lon="9.589303">
<ele>295.0</ele>
<speed>2.1</speed>
<course>282.5</course>
<desc>Speed 2.1 km/h Distance 57.51 km</desc>
<time>2010-09-11T15:13:57.44</time>
<name>1401</name>
</trkpt>
<trkpt lat="49.892293" lon="9.589280">
<ele>294.5</ele>
<speed>2.1</speed>
<course>303.6</course>
<desc>Speed 2.1 km/h Distance 57.51 km</desc>
<time>2010-09-11T15:13:58.44</time>
<name>1402</name>
</trkpt>
<trkpt lat="49.892303" lon="9.589257">
<ele>295.0</ele>
<speed>2.1</speed>
<course>103.3</course>
<desc>Speed 2.1 km/h Distance 57.51 km</desc>
<time>2010-09-11T15:13:59.44</time>
<name>1403</name>
</trkpt>
<trkpt lat="49.892292" lon="9.589333">
<ele>297.0</ele>
<speed>2.1</speed>
<course>79.3</course>
<desc>Speed 2.1 km/h Distance 57.52 km</desc>
<time>2010-09-11T15:14:01.43</time>
<name>1404</name>
</trkpt>
<trkpt lat="49.892305" lon="9.589443">
<ele>297.0</ele>
<speed>9.3</speed>
<course>73.8</course>
<desc>Speed 9.3 km/h Distance 57.53 km</desc>
<time>2010-09-11T15:14:03.44</time>
<name>1405</name>
</trkpt>
<trkpt lat="49.892310" lon="9.589470">
<ele>297.0</ele>
<speed>9.3</speed>
<course>75.5</course>
<desc>Speed 9.3 km/h Distance 57.53 km</desc>
<time>2010-09-11T15:14:04.44</time>
<name>1406</name>
</trkpt>
<trkpt lat="49.892313" lon="9.589490">
<ele>297.0</ele>
<speed>9.3</speed>
<course>78.5</course>
<desc>Speed 9.3 km/h Distance 57.53 km</desc>
<time>2010-09-11T15:14:05.43</time>
<name>1407</name>
</trkpt>
<trkpt lat="49.892318" lon="9.589528">
<ele>296.5</ele>
<speed>9.3</speed>
<course>90.0</course>
<desc>Speed 9.3 km/h Distance 57.53 km</desc>
<time>2010-09-11T15:14:06.43</time>
<name>1408</name>
</trkpt>
<trkpt lat="49.892318" lon="9.589540">
<ele>296.5</ele>
<speed>9.3</speed>
<course>104.4</course>
<desc>Speed 9.3 km/h Distance 57.53 km</desc>
<time>2010-09-11T15:14:07.43</time>
<name>1409</name>
</trkpt>
<trkpt lat="49.892317" lon="9.589550">
<ele>296.0</ele>
<speed>9.3</speed>
<course>127.6</course>
<desc>Speed 9.3 km/h Distance 57.53 km</desc>
<time>2010-09-11T15:14:09.43</time>
<name>1410</name>
</trkpt>
<trkpt lat="49.892312" lon="9.589560">
<ele>296.5</ele>
<speed>9.3</speed>
<course>246.1</course>
<desc>Speed 9.3 km/h Distance 57.54 km</desc>
<time>2010-09-11T15:14:11.44</time>
<name>1411</name>
</trkpt>
<trkpt lat="49.892305" lon="9.589537">
<ele>296.5</ele>
<speed>9.3</speed>
<course>235.8</course>
<desc>Speed 9.3 km/h Distance 57.54 km</desc>
<time>2010-09-11T15:14:12.43</time>
<name>1412</name>
</trkpt>
<trkpt lat="49.892293" lon="9.589510">
<ele>297.0</ele>
<speed>3.5</speed>
<course>239.8</course>
<desc>Speed 3.5 km/h Distance 57.54 km</desc>
<time>2010-09-11T15:14:14.43</time>
<name>1413</name>
</trkpt>
<trkpt lat="49.892283" lon="9.589483">
<ele>297.0</ele>
<speed>4.6</speed>
<course>244.5</course>
<desc>Speed 4.6 km/h Distance 57.54 km</desc>
<time>2010-09-11T15:14:15.44</time>
<name>1414</name>
</trkpt>
<trkpt lat="49.892277" lon="9.589462">
<ele>296.5</ele>
<speed>1.5</speed>
<course>18.2</course>
<desc>Speed 1.5 km/h Distance 57.54 km</desc>
<time>2010-09-11T15:14:16.44</time>
<name>1415</name>
</trkpt>
<trkpt lat="49.892287" lon="9.589467">
<ele>296.5</ele>
<speed>0.3</speed>
<course>347.4</course>
<desc>Speed 0.3 km/h Distance 57.54 km</desc>
<time>2010-09-11T15:14:17.44</time>
<name>1416</name>
</trkpt>
<trkpt lat="49.892290" lon="9.589465">
<ele>296.0</ele>
<speed>0.2</speed>
<course>200.0</course>
<desc>Speed 0.2 km/h Distance 57.55 km</desc>
<time>2010-09-11T15:14:18.44</time>
<name>1417</name>
</trkpt>
<trkpt lat="49.892252" lon="9.589443">
<ele>296.0</ele>
<speed>5.6</speed>
<course>212.3</course>
<desc>Speed 5.6 km/h Distance 57.55 km</desc>
<time>2010-09-11T15:14:20.44</time>
<name>1418</name>
</trkpt>
<trkpt lat="49.892247" lon="9.589438">
<ele>296.0</ele>
<speed>3.6</speed>
<course>2.5</course>
<desc>Speed 3.6 km/h Distance 57.55 km</desc>
<time>2010-09-11T15:14:21.44</time>
<name>1419</name>
</trkpt>
<trkpt lat="49.892272" lon="9.589440">
<ele>296.0</ele>
<speed>2.2</speed>
<course>90.0</course>
<desc>Speed 2.2 km/h Distance 57.55 km</desc>
<time>2010-09-11T15:14:22.44</time>
<name>1420</name>
</trkpt>
<trkpt lat="49.892272" lon="9.589452">
<ele>295.5</ele>
<speed>6.5</speed>
<course>167.4</course>
<desc>Speed 6.5 km/h Distance 57.55 km</desc>
<time>2010-09-11T15:14:23.43</time>
<name>1421</name>
</trkpt>
<trkpt lat="49.892265" lon="9.589453">
<ele>295.5</ele>
<speed>6.5</speed>
<course>217.7</course>
<desc>Speed 6.5 km/h Distance 57.55 km</desc>
<time>2010-09-11T15:14:24.43</time>
<name>1422</name>
</trkpt>
<trkpt lat="49.892257" lon="9.589443">
<ele>295.0</ele>
<speed>6.5</speed>
<course>232.2</course>
<desc>Speed 6.5 km/h Distance 57.56 km</desc>
<time>2010-09-11T15:14:25.43</time>
<name>1423</name>
</trkpt>
<trkpt lat="49.892245" lon="9.589420">
<ele>295.0</ele>
<speed>4.9</speed>
<course>331.0</course>
<desc>Speed 4.9 km/h Distance 57.56 km</desc>
<time>2010-09-11T15:14:26.43</time>
<name>1424</name>
</trkpt>
<trkpt lat="49.892257" lon="9.589410">
<ele>294.5</ele>
<speed>4.9</speed>
<course>306.1</course>
<desc>Speed 4.9 km/h Distance 57.56 km</desc>
<time>2010-09-11T15:14:27.43</time>
<name>1425</name>
</trkpt>
<trkpt lat="49.892258" lon="9.589407">
<ele>294.5</ele>
<speed>4.9</speed>
<course>212.8</course>
<desc>Speed 4.9 km/h Distance 57.56 km</desc>
<time>2010-09-11T15:14:28.42</time>
<name>1426</name>
</trkpt>
<trkpt lat="49.892248" lon="9.589397">
<ele>294.5</ele>
<speed>6.3</speed>
<course>252.7</course>
<desc>Speed 6.3 km/h Distance 57.56 km</desc>
<time>2010-09-11T15:14:29.42</time>
<name>1427</name>
</trkpt>
<trkpt lat="49.892247" lon="9.589388">
<ele>294.5</ele>
<speed>2.7</speed>
<course>180.0</course>
<desc>Speed 2.7 km/h Distance 57.56 km</desc>
<time>2010-09-11T15:14:30.43</time>
<name>1428</name>
</trkpt>
<trkpt lat="49.892243" lon="9.589388">
<ele>294.5</ele>
<speed>3.2</speed>
<course>147.2</course>
<desc>Speed 3.2 km/h Distance 57.56 km</desc>
<time>2010-09-11T15:14:31.43</time>
<name>1429</name>
</trkpt>
<trkpt lat="49.892228" lon="9.589403">
<ele>294.0</ele>
<speed>0.9</speed>
<course>31.6</course>
<desc>Speed 0.9 km/h Distance 57.56 km</desc>
<time>2010-09-11T15:14:33.43</time>
<name>1430</name>
</trkpt>
<trkpt lat="49.892232" lon="9.589407">
<ele>294.0</ele>
<speed>0.9</speed>
<course>22.2</course>
<desc>Speed 0.9 km/h Distance 57.56 km</desc>
<time>2010-09-11T15:14:34.43</time>
<name>1431</name>
</trkpt>
<trkpt lat="49.892282" lon="9.589438">
<ele>294.0</ele>
<speed>9.9</speed>
<course>175.0</course>
<desc>Speed 9.9 km/h Distance 57.57 km</desc>
<time>2010-09-11T15:14:36.42</time>
<name>1432</name>
</trkpt>
<trkpt lat="49.892273" lon="9.589440">
<ele>294.0</ele>
<speed>1.5</speed>
<course>7.4</course>
<desc>Speed 1.5 km/h Distance 57.57 km</desc>
<time>2010-09-11T15:14:38.42</time>
<name>1433</name>
</trkpt>
<trkpt lat="49.892280" lon="9.589442">
<ele>294.0</ele>
<speed>1.5</speed>
<course>8.1</course>
<desc>Speed 1.5 km/h Distance 57.57 km</desc>
<time>2010-09-11T15:14:39.43</time>
<name>1434</name>
</trkpt>
<trkpt lat="49.892285" lon="9.589443">
<ele>294.0</ele>
<speed>1.5</speed>
<course>32.5</course>
<desc>Speed 1.5 km/h Distance 57.57 km</desc>
<time>2010-09-11T15:14:40.42</time>
<name>1435</name>
</trkpt>
<trkpt lat="49.892293" lon="9.589452">
<ele>293.5</ele>
<speed>3.5</speed>
<course>10.4</course>
<desc>Speed 3.5 km/h Distance 57.57 km</desc>
<time>2010-09-11T15:14:41.42</time>
<name>1436</name>
</trkpt>
<trkpt lat="49.892305" lon="9.589455">
<ele>293.5</ele>
<speed>3.5</speed>
<course>8.1</course>
<desc>Speed 3.5 km/h Distance 57.58 km</desc>
<time>2010-09-11T15:14:42.42</time>
<name>1437</name>
</trkpt>
<trkpt lat="49.892315" lon="9.589457">
<ele>293.5</ele>
<speed>3.5</speed>
<course>7.4</course>
<desc>Speed 3.5 km/h Distance 57.58 km</desc>
<time>2010-09-11T15:14:43.41</time>
<name>1438</name>
</trkpt>
<trkpt lat="49.892322" lon="9.589457">
<ele>293.5</ele>
<speed>3.5</speed>
<course>20.2</course>
<desc>Speed 3.5 km/h Distance 57.58 km</desc>
<time>2010-09-11T15:14:44.42</time>
<name>1439</name>
</trkpt>
<trkpt lat="49.892333" lon="9.589463">
<ele>293.5</ele>
<speed>2.6</speed>
<course>3.1</course>
<desc>Speed 2.6 km/h Distance 57.58 km</desc>
<time>2010-09-11T15:14:45.41</time>
<name>1440</name>
</trkpt>
<trkpt lat="49.892412" lon="9.589470">
<ele>293.0</ele>
<speed>2.6</speed>
<course>32.9</course>
<desc>Speed 2.6 km/h Distance 57.59 km</desc>
<time>2010-09-11T15:14:47.42</time>
<name>1441</name>
</trkpt>
<trkpt lat="49.892420" lon="9.589478">
<ele>293.0</ele>
<speed>2.6</speed>
<course>322.8</course>
<desc>Speed 2.6 km/h Distance 57.59 km</desc>
<time>2010-09-11T15:14:48.41</time>
<name>1442</name>
</trkpt>
<trkpt lat="49.892422" lon="9.589477">
<ele>293.0</ele>
<speed>2.6</speed>
<course>17.6</course>
<desc>Speed 2.6 km/h Distance 57.59 km</desc>
<time>2010-09-11T15:14:49.42</time>
<name>1443</name>
</trkpt>
<trkpt lat="49.892432" lon="9.589482">
<ele>293.0</ele>
<speed>2.6</speed>
<course>12.6</course>
<desc>Speed 2.6 km/h Distance 57.59 km</desc>
<time>2010-09-11T15:14:50.41</time>
<name>1444</name>
</trkpt>
<trkpt lat="49.892437" lon="9.589483">
<ele>293.0</ele>
<speed>2.6</speed>
<course>37.2</course>
<desc>Speed 2.6 km/h Distance 57.59 km</desc>
<time>2010-09-11T15:14:51.41</time>
<name>1445</name>
</trkpt>
<trkpt lat="49.892438" lon="9.589485">
<ele>293.0</ele>
<speed>2.6</speed>
<course>167.4</course>
<desc>Speed 2.6 km/h Distance 57.59 km</desc>
<time>2010-09-11T15:14:52.42</time>
<name>1446</name>
</trkpt>
<trkpt lat="49.892437" lon="9.589485">
<ele>293.0</ele>
<speed>2.6</speed>
<course>107.1</course>
<desc>Speed 2.6 km/h Distance 57.59 km</desc>
<time>2010-09-11T15:14:53.41</time>
<name>1447</name>
</trkpt>
<trkpt lat="49.892435" lon="9.589493">
<ele>293.0</ele>
<speed>2.6</speed>
<course>114.0</course>
<desc>Speed 2.6 km/h Distance 57.59 km</desc>
<time>2010-09-11T15:14:54.41</time>
<name>1448</name>
</trkpt>
<trkpt lat="49.892432" lon="9.589505">
<ele>293.0</ele>
<speed>2.6</speed>
<course>62.6</course>
<desc>Speed 2.6 km/h Distance 57.59 km</desc>
<time>2010-09-11T15:14:55.41</time>
<name>1449</name>
</trkpt>
<trkpt lat="49.892433" lon="9.589510">
<ele>293.0</ele>
<speed>2.6</speed>
<course>241.3</course>
<desc>Speed 2.6 km/h Distance 57.59 km</desc>
<time>2010-09-11T15:14:56.41</time>
<name>1450</name>
</trkpt>
<trkpt lat="49.892423" lon="9.589482">
<ele>293.0</ele>
<speed>3.2</speed>
<course>256.6</course>
<desc>Speed 3.2 km/h Distance 57.59 km</desc>
<time>2010-09-11T15:14:57.41</time>
<name>1451</name>
</trkpt>
<trkpt lat="49.892420" lon="9.589460">
<ele>293.0</ele>
<speed>3.2</speed>
<course>232.4</course>
<desc>Speed 3.2 km/h Distance 57.60 km</desc>
<time>2010-09-11T15:14:58.41</time>
<name>1452</name>
</trkpt>
<trkpt lat="49.892417" lon="9.589453">
<ele>293.0</ele>
<speed>3.2</speed>
<course>260.2</course>
<desc>Speed 3.2 km/h Distance 57.60 km</desc>
<time>2010-09-11T15:14:59.41</time>
<name>1453</name>
</trkpt>
<trkpt lat="49.892415" lon="9.589438">
<ele>293.0</ele>
<speed>3.2</speed>
<course>250.9</course>
<desc>Speed 3.2 km/h Distance 57.60 km</desc>
<time>2010-09-11T15:15:00.41</time>
<name>1454</name>
</trkpt>
<trkpt lat="49.892412" lon="9.589423">
<ele>293.0</ele>
<speed>3.2</speed>
<course>270.0</course>
<desc>Speed 3.2 km/h Distance 57.60 km</desc>
<time>2010-09-11T15:15:01.41</time>
<name>1455</name>
</trkpt>
<trkpt lat="49.892412" lon="9.589415">
<ele>293.0</ele>
<speed>3.2</speed>
<course>270.0</course>
<desc>Speed 3.2 km/h Distance 57.60 km</desc>
<time>2010-09-11T15:15:02.41</time>
<name>1456</name>
</trkpt>
<trkpt lat="49.892412" lon="9.589388">
<ele>293.0</ele>
<speed>3.2</speed>
<course>287.5</course>
<desc>Speed 3.2 km/h Distance 57.60 km</desc>
<time>2010-09-11T15:15:03.41</time>
<name>1457</name>
</trkpt>
<trkpt lat="49.892413" lon="9.589380">
<ele>293.0</ele>
<speed>3.2</speed>
<course>327.7</course>
<desc>Speed 3.2 km/h Distance 57.60 km</desc>
<time>2010-09-11T15:15:04.41</time>
<name>1458</name>
</trkpt>
<trkpt lat="49.892418" lon="9.589375">
<ele>293.0</ele>
<speed>3.2</speed>
<course>201.1</course>
<desc>Speed 3.2 km/h Distance 57.60 km</desc>
<time>2010-09-11T15:15:05.41</time>
<name>1459</name>
</trkpt>
<trkpt lat="49.892402" lon="9.589365">
<ele>293.0</ele>
<speed>3.2</speed>
<course>190.8</course>
<desc>Speed 3.2 km/h Distance 57.61 km</desc>
<time>2010-09-11T15:15:06.40</time>
<name>1460</name>
</trkpt>
<trkpt lat="49.892385" lon="9.589360">
<ele>293.0</ele>
<speed>3.2</speed>
<course>220.9</course>
<desc>Speed 3.2 km/h Distance 57.61 km</desc>
<time>2010-09-11T15:15:07.40</time>
<name>1461</name>
</trkpt>
<trkpt lat="49.892380" lon="9.589353">
<ele>293.0</ele>
<speed>3.2</speed>
<course>308.1</course>
<desc>Speed 3.2 km/h Distance 57.61 km</desc>
<time>2010-09-11T15:15:08.41</time>
<name>1462</name>
</trkpt>
<trkpt lat="49.892382" lon="9.589350">
<ele>293.0</ele>
<speed>3.2</speed>
<course>237.0</course>
<desc>Speed 3.2 km/h Distance 57.61 km</desc>
<time>2010-09-11T15:15:09.40</time>
<name>1463</name>
</trkpt>
<trkpt lat="49.892373" lon="9.589330">
<ele>293.0</ele>
<speed>3.2</speed>
<course>210.0</course>
<desc>Speed 3.2 km/h Distance 57.61 km</desc>
<time>2010-09-11T15:15:10.41</time>
<name>1464</name>
</trkpt>
<trkpt lat="49.892357" lon="9.589315">
<ele>293.0</ele>
<speed>3.2</speed>
<course>270.0</course>
<desc>Speed 3.2 km/h Distance 57.61 km</desc>
<time>2010-09-11T15:15:11.40</time>
<name>1465</name>
</trkpt>
<trkpt lat="49.892357" lon="9.589313">
<ele>293.0</ele>
<speed>3.2</speed>
<course>308.1</course>
<desc>Speed 3.2 km/h Distance 57.61 km</desc>
<time>2010-09-11T15:15:12.40</time>
<name>1466</name>
</trkpt>
<trkpt lat="49.892358" lon="9.589310">
<ele>293.0</ele>
<speed>3.2</speed>
<course>299.0</course>
<desc>Speed 3.2 km/h Distance 57.61 km</desc>
<time>2010-09-11T15:15:13.40</time>
<name>1467</name>
</trkpt>
<trkpt lat="49.892367" lon="9.589287">
<ele>292.5</ele>
<speed>3.2</speed>
<course>192.1</course>
<desc>Speed 3.2 km/h Distance 57.61 km</desc>
<time>2010-09-11T15:15:14.40</time>
<name>1468</name>
</trkpt>
<trkpt lat="49.892342" lon="9.589278">
<ele>292.5</ele>
<speed>3.1</speed>
<course>187.5</course>
<desc>Speed 3.1 km/h Distance 57.62 km</desc>
<time>2010-09-11T15:15:15.40</time>
<name>1469</name>
</trkpt>
<trkpt lat="49.892327" lon="9.589275">
<ele>292.5</ele>
<speed>3.1</speed>
<course>192.6</course>
<desc>Speed 3.1 km/h Distance 57.62 km</desc>
<time>2010-09-11T15:15:16.40</time>
<name>1470</name>
</trkpt>
<trkpt lat="49.892317" lon="9.589272">
<ele>292.5</ele>
<speed>3.1</speed>
<course>203.0</course>
<desc>Speed 3.1 km/h Distance 57.62 km</desc>
<time>2010-09-11T15:15:17.40</time>
<name>1471</name>
</trkpt>
<trkpt lat="49.892307" lon="9.589265">
<ele>292.5</ele>
<speed>3.1</speed>
<course>159.8</course>
<desc>Speed 3.1 km/h Distance 57.62 km</desc>
<time>2010-09-11T15:15:18.39</time>
<name>1472</name>
</trkpt>
<trkpt lat="49.892295" lon="9.589272">
<ele>292.5</ele>
<speed>3.1</speed>
<course>178.8</course>
<desc>Speed 3.1 km/h Distance 57.62 km</desc>
<time>2010-09-11T15:15:19.40</time>
<name>1473</name>
</trkpt>
<trkpt lat="49.892242" lon="9.589273">
<ele>292.5</ele>
<speed>2.6</speed>
<course>160.8</course>
<desc>Speed 2.6 km/h Distance 57.63 km</desc>
<time>2010-09-11T15:15:21.40</time>
<name>1474</name>
</trkpt>
<trkpt lat="49.892220" lon="9.589285">
<ele>292.5</ele>
<speed>2.6</speed>
<course>173.0</course>
<desc>Speed 2.6 km/h Distance 57.63 km</desc>
<time>2010-09-11T15:15:22.40</time>
<name>1475</name>
</trkpt>
<trkpt lat="49.892202" lon="9.589288">
<ele>292.5</ele>
<speed>2.6</speed>
<course>159.2</course>
<desc>Speed 2.6 km/h Distance 57.63 km</desc>
<time>2010-09-11T15:15:23.40</time>
<name>1476</name>
</trkpt>
<trkpt lat="49.892193" lon="9.589293">
<ele>292.5</ele>
<speed>2.6</speed>
<course>136.5</course>
<desc>Speed 2.6 km/h Distance 57.63 km</desc>
<time>2010-09-11T15:15:24.40</time>
<name>1477</name>
</trkpt>
<trkpt lat="49.892190" lon="9.589298">
<ele>292.5</ele>
<speed>2.6</speed>
<course>164.0</course>
<desc>Speed 2.6 km/h Distance 57.63 km</desc>
<time>2010-09-11T15:15:25.40</time>
<name>1478</name>
</trkpt>
<trkpt lat="49.892178" lon="9.589303">
<ele>292.5</ele>
<speed>2.6</speed>
<course>157.8</course>
<desc>Speed 2.6 km/h Distance 57.64 km</desc>
<time>2010-09-11T15:15:26.40</time>
<name>1479</name>
</trkpt>
<trkpt lat="49.892173" lon="9.589307">
<ele>292.5</ele>
<speed>2.6</speed>
<course>147.4</course>
<desc>Speed 2.6 km/h Distance 57.64 km</desc>
<time>2010-09-11T15:15:27.40</time>
<name>1480</name>
</trkpt>
<trkpt lat="49.892167" lon="9.589313">
<ele>292.5</ele>
<speed>2.6</speed>
<course>167.4</course>
<desc>Speed 2.6 km/h Distance 57.64 km</desc>
<time>2010-09-11T15:15:28.39</time>
<name>1481</name>
</trkpt>
<trkpt lat="49.892165" lon="9.589315">
<ele>292.5</ele>
<speed>2.6</speed>
<course>111.3</course>
<desc>Speed 2.6 km/h Distance 57.64 km</desc>
<time>2010-09-11T15:15:29.40</time>
<name>1482</name>
</trkpt>
<trkpt lat="49.892163" lon="9.589322">
<ele>292.5</ele>
<speed>2.6</speed>
<course>146.8</course>
<desc>Speed 2.6 km/h Distance 57.64 km</desc>
<time>2010-09-11T15:15:30.40</time>
<name>1483</name>
</trkpt>
<trkpt lat="49.892157" lon="9.589328">
<ele>292.5</ele>
<speed>2.6</speed>
<course>180.0</course>
<desc>Speed 2.6 km/h Distance 57.64 km</desc>
<time>2010-09-11T15:15:31.39</time>
<name>1484</name>
</trkpt>
<trkpt lat="49.892152" lon="9.589328">
<ele>292.5</ele>
<speed>2.6</speed>
<course>180.0</course>
<desc>Speed 2.6 km/h Distance 57.64 km</desc>
<time>2010-09-11T15:15:32.39</time>
<name>1485</name>
</trkpt>
<trkpt lat="49.892148" lon="9.589328">
<ele>292.5</ele>
<speed>2.6</speed>
<course>117.4</course>
<desc>Speed 2.6 km/h Distance 57.64 km</desc>
<time>2010-09-11T15:15:33.39</time>
<name>1486</name>
</trkpt>
<trkpt lat="49.892145" lon="9.589338">
<ele>292.5</ele>
<speed>2.6</speed>
<course>90.0</course>
<desc>Speed 2.6 km/h Distance 57.64 km</desc>
<time>2010-09-11T15:15:34.39</time>
<name>1487</name>
</trkpt>
<trkpt lat="49.892145" lon="9.589345">
<ele>292.5</ele>
<speed>2.6</speed>
<course>241.7</course>
<desc>Speed 2.6 km/h Distance 57.64 km</desc>
<time>2010-09-11T15:15:35.39</time>
<name>1488</name>
</trkpt>
<trkpt lat="49.892143" lon="9.589340">
<ele>292.5</ele>
<speed>2.6</speed>
<course>270.0</course>
<desc>Speed 2.6 km/h Distance 57.64 km</desc>
<time>2010-09-11T15:15:36.39</time>
<name>1489</name>
</trkpt>
<trkpt lat="49.892143" lon="9.589337">
<ele>292.5</ele>
<speed>2.6</speed>
<course>102.5</course>
<desc>Speed 2.6 km/h Distance 57.64 km</desc>
<time>2010-09-11T15:15:37.38</time>
<name>1490</name>
</trkpt>
<trkpt lat="49.892142" lon="9.589348">
<ele>292.5</ele>
<speed>2.6</speed>
<course>150.8</course>
<desc>Speed 2.6 km/h Distance 57.64 km</desc>
<time>2010-09-11T15:15:38.38</time>
<name>1491</name>
</trkpt>
<trkpt lat="49.892140" lon="9.589350">
<ele>292.5</ele>
<speed>2.6</speed>
<course>167.4</course>
<desc>Speed 2.6 km/h Distance 57.64 km</desc>
<time>2010-09-11T15:15:39.38</time>
<name>1492</name>
</trkpt>
<trkpt lat="49.892138" lon="9.589350">
<ele>292.5</ele>
<speed>2.6</speed>
<course>270.0</course>
<desc>Speed 2.6 km/h Distance 57.64 km</desc>
<time>2010-09-11T15:15:40.38</time>
<name>1493</name>
</trkpt>
<trkpt lat="49.892138" lon="9.589348">
<ele>292.5</ele>
<speed>2.6</speed>
<course>231.9</course>
<desc>Speed 2.6 km/h Distance 57.64 km</desc>
<time>2010-09-11T15:15:41.38</time>
<name>1494</name>
</trkpt>
<trkpt lat="49.892137" lon="9.589345">
<ele>292.5</ele>
<speed>2.6</speed>
<course>231.9</course>
<desc>Speed 2.6 km/h Distance 57.64 km</desc>
<time>2010-09-11T15:15:42.38</time>
<name>1495</name>
</trkpt>
<trkpt lat="49.892133" lon="9.589338">
<ele>292.5</ele>
<speed>2.6</speed>
<course>228.3</course>
<desc>Speed 2.6 km/h Distance 57.64 km</desc>
<time>2010-09-11T15:15:43.38</time>
<name>1496</name>
</trkpt>
<trkpt lat="49.892127" lon="9.589327">
<ele>292.5</ele>
<speed>2.6</speed>
<course>237.9</course>
<desc>Speed 2.6 km/h Distance 57.65 km</desc>
<time>2010-09-11T15:15:44.38</time>
<name>1497</name>
</trkpt>
<trkpt lat="49.892123" lon="9.589318">
<ele>292.5</ele>
<speed>2.6</speed>
<course>231.9</course>
<desc>Speed 2.6 km/h Distance 57.65 km</desc>
<time>2010-09-11T15:15:45.38</time>
<name>1498</name>
</trkpt>
<trkpt lat="49.892120" lon="9.589312">
<ele>292.5</ele>
<speed>2.6</speed>
<course>1.2</course>
<desc>Speed 2.6 km/h Distance 57.65 km</desc>
<time>2010-09-11T15:15:46.38</time>
<name>1499</name>
</trkpt>
<trkpt lat="49.892133" lon="9.589312">
<ele>292.5</ele>
<speed>2.6</speed>
<course>352.6</course>
<desc>Speed 2.6 km/h Distance 57.65 km</desc>
<time>2010-09-11T15:15:47.39</time>
<name>1500</name>
</trkpt>
<trkpt lat="49.892140" lon="9.589310">
<ele>292.5</ele>
<speed>2.6</speed>
<course>12.6</course>
<desc>Speed 2.6 km/h Distance 57.65 km</desc>
<time>2010-09-11T15:15:48.38</time>
<name>1501</name>
</trkpt>
<trkpt lat="49.892145" lon="9.589312">
<ele>292.5</ele>
<speed>2.6</speed>
<course>241.7</course>
<desc>Speed 2.6 km/h Distance 57.65 km</desc>
<time>2010-09-11T15:15:49.38</time>
<name>1502</name>
</trkpt>
<trkpt lat="49.892143" lon="9.589307">
<ele>292.5</ele>
<speed>2.6</speed>
<course>179.5</course>
<desc>Speed 2.6 km/h Distance 57.65 km</desc>
<time>2010-09-11T15:15:50.37</time>
<name>1503</name>
</trkpt>
<trkpt lat="49.892005" lon="9.589308">
<ele>292.5</ele>
<speed>2.6</speed>
<course>170.8</course>
<desc>Speed 2.6 km/h Distance 57.67 km</desc>
<time>2010-09-11T15:15:52.39</time>
<name>1504</name>
</trkpt>
<trkpt lat="49.891965" lon="9.589318">
<ele>292.5</ele>
<speed>2.6</speed>
<course>137.5</course>
<desc>Speed 2.6 km/h Distance 57.67 km</desc>
<time>2010-09-11T15:15:54.39</time>
<name>1505</name>
</trkpt>
<trkpt lat="49.891962" lon="9.589323">
<ele>292.5</ele>
<speed>2.6</speed>
<course>90.0</course>
<desc>Speed 2.6 km/h Distance 57.67 km</desc>
<time>2010-09-11T15:15:55.38</time>
<name>1506</name>
</trkpt>
<trkpt lat="49.891962" lon="9.589325">
<ele>292.5</ele>
<speed>2.6</speed>
<course>167.4</course>
<desc>Speed 2.6 km/h Distance 57.67 km</desc>
<time>2010-09-11T15:15:56.38</time>
<name>1507</name>
</trkpt>
<trkpt lat="49.891960" lon="9.589327">
<ele>292.5</ele>
<speed>2.6</speed>
<course>354.4</course>
<desc>Speed 2.6 km/h Distance 57.67 km</desc>
<time>2010-09-11T15:15:57.36</time>
<name>1508</name>
</trkpt>
<trkpt lat="49.892070" lon="9.589310">
<ele>292.5</ele>
<speed>2.6</speed>
<course>315.9</course>
<desc>Speed 2.6 km/h Distance 57.68 km</desc>
<time>2010-09-11T15:16:00.37</time>
<name>1509</name>
</trkpt>
<trkpt lat="49.892080" lon="9.589295">
<ele>292.5</ele>
<speed>2.6</speed>
<course>0.0</course>
<desc>Speed 2.6 km/h Distance 57.68 km</desc>
<time>2010-09-11T15:16:02.37</time>
<name>1510</name>
</trkpt>
<trkpt lat="49.892092" lon="9.589295">
<ele>292.5</ele>
<speed>2.6</speed>
<course>17.5</course>
<desc>Speed 2.6 km/h Distance 57.69 km</desc>
<time>2010-09-11T15:16:03.37</time>
<name>1511</name>
</trkpt>
<trkpt lat="49.892098" lon="9.589298">
<ele>292.5</ele>
<speed>2.6</speed>
<course>281.8</course>
<desc>Speed 2.6 km/h Distance 57.69 km</desc>
<time>2010-09-11T15:16:04.37</time>
<name>1512</name>
</trkpt>
<trkpt lat="49.892107" lon="9.589237">
<ele>292.5</ele>
<speed>2.6</speed>
<course>90.6</course>
<desc>Speed 2.6 km/h Distance 57.69 km</desc>
<time>2010-09-11T15:16:07.37</time>
<name>1513</name>
</trkpt>
<trkpt lat="49.892105" lon="9.589500">
<ele>292.5</ele>
<speed>2.6</speed>
<course>228.3</course>
<desc>Speed 2.6 km/h Distance 57.71 km</desc>
<time>2010-09-11T15:16:10.36</time>
<name>1514</name>
</trkpt>
<trkpt lat="49.892098" lon="9.589488">
<ele>292.5</ele>
<speed>2.6</speed>
<course>110.4</course>
<desc>Speed 2.6 km/h Distance 57.71 km</desc>
<time>2010-09-11T15:16:11.37</time>
<name>1515</name>
</trkpt>
<trkpt lat="49.892080" lon="9.589565">
<ele>292.5</ele>
<speed>2.6</speed>
<course>90.0</course>
<desc>Speed 2.6 km/h Distance 57.72 km</desc>
<time>2010-09-11T15:16:13.36</time>
<name>1516</name>
</trkpt>
<trkpt lat="49.892080" lon="9.589573">
<ele>292.5</ele>
<speed>2.6</speed>
<course>282.5</course>
<desc>Speed 2.6 km/h Distance 57.72 km</desc>
<time>2010-09-11T15:16:14.36</time>
<name>1517</name>
</trkpt>
<trkpt lat="49.892083" lon="9.589550">
<ele>292.5</ele>
<speed>2.6</speed>
<course>130.4</course>
<desc>Speed 2.6 km/h Distance 57.72 km</desc>
<time>2010-09-11T15:16:15.36</time>
<name>1518</name>
</trkpt>
<trkpt lat="49.892055" lon="9.589602">
<ele>292.5</ele>
<speed>2.6</speed>
<course>197.9</course>
<desc>Speed 2.6 km/h Distance 57.72 km</desc>
<time>2010-09-11T15:16:17.36</time>
<name>1519</name>
</trkpt>
<trkpt lat="49.892035" lon="9.589592">
<ele>292.5</ele>
<speed>2.6</speed>
<course>311.5</course>
<desc>Speed 2.6 km/h Distance 57.73 km</desc>
<time>2010-09-11T15:16:18.36</time>
<name>1520</name>
</trkpt>
<trkpt lat="49.892042" lon="9.589580">
<ele>292.5</ele>
<speed>2.6</speed>
<course>90.0</course>
<desc>Speed 2.6 km/h Distance 57.73 km</desc>
<time>2010-09-11T15:16:19.36</time>
<name>1521</name>
</trkpt>
<trkpt lat="49.892042" lon="9.589595">
<ele>292.5</ele>
<speed>2.6</speed>
<course>59.9</course>
<desc>Speed 2.6 km/h Distance 57.73 km</desc>
<time>2010-09-11T15:16:20.36</time>
<name>1522</name>
</trkpt>
<trkpt lat="49.892047" lon="9.589608">
<ele>292.5</ele>
<speed>2.6</speed>
<course>62.6</course>
<desc>Speed 2.6 km/h Distance 57.73 km</desc>
<time>2010-09-11T15:16:21.36</time>
<name>1523</name>
</trkpt>
<trkpt lat="49.892048" lon="9.589613">
<ele>292.5</ele>
<speed>2.6</speed>
<course>111.2</course>
<desc>Speed 2.6 km/h Distance 57.73 km</desc>
<time>2010-09-11T15:16:22.36</time>
<name>1524</name>
</trkpt>
<trkpt lat="49.892040" lon="9.589647">
<ele>292.5</ele>
<speed>2.6</speed>
<course>112.9</course>
<desc>Speed 2.6 km/h Distance 57.73 km</desc>
<time>2010-09-11T15:16:23.36</time>
<name>1525</name>
</trkpt>
<trkpt lat="49.892035" lon="9.589665">
<ele>292.5</ele>
<speed>2.6</speed>
<course>117.4</course>
<desc>Speed 2.6 km/h Distance 57.73 km</desc>
<time>2010-09-11T15:16:24.35</time>
<name>1526</name>
</trkpt>
<trkpt lat="49.892033" lon="9.589670">
<ele>292.5</ele>
<speed>2.6</speed>
<course>90.0</course>
<desc>Speed 2.6 km/h Distance 57.73 km</desc>
<time>2010-09-11T15:16:25.35</time>
<name>1527</name>
</trkpt>
<trkpt lat="49.892033" lon="9.589673">
<ele>292.5</ele>
<speed>2.6</speed>
<course>310.3</course>
<desc>Speed 2.6 km/h Distance 57.73 km</desc>
<time>2010-09-11T15:16:26.33</time>
<name>1528</name>
</trkpt>
<trkpt lat="49.892043" lon="9.589655">
<ele>292.5</ele>
<speed>2.6</speed>
<course>313.6</course>
<desc>Speed 2.6 km/h Distance 57.74 km</desc>
<time>2010-09-11T15:16:27.35</time>
<name>1529</name>
</trkpt>
<trkpt lat="49.892048" lon="9.589647">
<ele>292.5</ele>
<speed>2.6</speed>
<course>353.5</course>
<desc>Speed 2.6 km/h Distance 57.74 km</desc>
<time>2010-09-11T15:16:28.35</time>
<name>1530</name>
</trkpt>
<trkpt lat="49.892065" lon="9.589643">
<ele>292.5</ele>
<speed>2.6</speed>
<course>270.0</course>
<desc>Speed 2.6 km/h Distance 57.74 km</desc>
<time>2010-09-11T15:16:29.36</time>
<name>1531</name>
</trkpt>
<trkpt lat="49.892065" lon="9.589635">
<ele>292.5</ele>
<speed>2.6</speed>
<course>252.5</course>
<desc>Speed 2.6 km/h Distance 57.74 km</desc>
<time>2010-09-11T15:16:30.36</time>
<name>1532</name>
</trkpt>
<trkpt lat="49.892063" lon="9.589627">
<ele>292.5</ele>
<speed>2.6</speed>
<course>297.4</course>
<desc>Speed 2.6 km/h Distance 57.74 km</desc>
<time>2010-09-11T15:16:31.36</time>
<name>1533</name>
</trkpt>
<trkpt lat="49.892067" lon="9.589617">
<ele>292.5</ele>
<speed>2.6</speed>
<course>224.0</course>
<desc>Speed 2.6 km/h Distance 57.74 km</desc>
<time>2010-09-11T15:16:32.36</time>
<name>1534</name>
</trkpt>
<trkpt lat="49.892060" lon="9.589607">
<ele>292.5</ele>
<speed>2.6</speed>
<course>220.9</course>
<desc>Speed 2.6 km/h Distance 57.74 km</desc>
<time>2010-09-11T15:16:33.36</time>
<name>1535</name>
</trkpt>
<trkpt lat="49.892055" lon="9.589600">
<ele>292.5</ele>
<speed>2.6</speed>
<course>220.7</course>
<desc>Speed 2.6 km/h Distance 57.74 km</desc>
<time>2010-09-11T15:16:34.36</time>
<name>1536</name>
</trkpt>
<trkpt lat="49.892045" lon="9.589587">
<ele>292.5</ele>
<speed>2.6</speed>
<course>255.4</course>
<desc>Speed 2.6 km/h Distance 57.74 km</desc>
<time>2010-09-11T15:16:35.36</time>
<name>1537</name>
</trkpt>
<trkpt lat="49.892043" lon="9.589577">
<ele>292.5</ele>
<speed>2.6</speed>
<course>276.3</course>
<desc>Speed 2.6 km/h Distance 57.75 km</desc>
<time>2010-09-11T15:16:36.86</time>
<name>1538</name>
</trkpt>
<trkpt lat="49.892045" lon="9.589553">
<ele>292.5</ele>
<speed>2.6</speed>
<course>258.3</course>
<desc>Speed 2.6 km/h Distance 57.75 km</desc>
<time>2010-09-11T15:16:38.36</time>
<name>1539</name>
</trkpt>
<trkpt lat="49.892042" lon="9.589528">
<ele>292.5</ele>
<speed>2.6</speed>
<course>270.0</course>
<desc>Speed 2.6 km/h Distance 57.75 km</desc>
<time>2010-09-11T15:16:39.36</time>
<name>1540</name>
</trkpt>
<trkpt lat="49.892042" lon="9.589513">
<ele>292.5</ele>
<speed>2.6</speed>
<course>252.9</course>
<desc>Speed 2.6 km/h Distance 57.75 km</desc>
<time>2010-09-11T15:16:40.36</time>
<name>1541</name>
</trkpt>
<trkpt lat="49.892040" lon="9.589505">
<ele>292.5</ele>
<speed>2.6</speed>
<course>297.4</course>
<desc>Speed 2.6 km/h Distance 57.75 km</desc>
<time>2010-09-11T15:16:41.35</time>
<name>1542</name>
</trkpt>
<trkpt lat="49.892042" lon="9.589500">
<ele>292.5</ele>
<speed>2.6</speed>
<course>270.0</course>
<desc>Speed 2.6 km/h Distance 57.75 km</desc>
<time>2010-09-11T15:16:42.35</time>
<name>1543</name>
</trkpt>
<trkpt lat="49.892042" lon="9.589492">
<ele>292.5</ele>
<speed>2.6</speed>
<course>288.4</course>
<desc>Speed 2.6 km/h Distance 57.75 km</desc>
<time>2010-09-11T15:16:43.34</time>
<name>1544</name>
</trkpt>
<trkpt lat="49.892047" lon="9.589468">
<ele>292.5</ele>
<speed>2.6</speed>
<course>247.1</course>
<desc>Speed 2.6 km/h Distance 57.75 km</desc>
<time>2010-09-11T15:16:44.35</time>
<name>1545</name>
</trkpt>
<trkpt lat="49.892042" lon="9.589450">
<ele>292.5</ele>
<speed>2.6</speed>
<course>233.0</course>
<desc>Speed 2.6 km/h Distance 57.75 km</desc>
<time>2010-09-11T15:16:45.34</time>
<name>1546</name>
</trkpt>
<trkpt lat="49.892038" lon="9.589443">
<ele>292.5</ele>
<speed>2.6</speed>
<course>270.0</course>
<desc>Speed 2.6 km/h Distance 57.76 km</desc>
<time>2010-09-11T15:16:46.35</time>
<name>1547</name>
</trkpt>
<trkpt lat="49.892038" lon="9.589440">
<ele>292.5</ele>
<speed>2.6</speed>
<course>278.8</course>
<desc>Speed 2.6 km/h Distance 57.76 km</desc>
<time>2010-09-11T15:16:47.34</time>
<name>1548</name>
</trkpt>
<trkpt lat="49.892040" lon="9.589423">
<ele>292.5</ele>
<speed>2.6</speed>
<course>215.0</course>
<desc>Speed 2.6 km/h Distance 57.76 km</desc>
<time>2010-09-11T15:16:48.34</time>
<name>1549</name>
</trkpt>
<trkpt lat="49.891923" lon="9.589297">
<ele>292.5</ele>
<speed>2.6</speed>
<course>149.6</course>
<desc>Speed 2.6 km/h Distance 57.77 km</desc>
<time>2010-09-11T15:18:05.32</time>
<name>1550</name>
</trkpt>
<trkpt lat="49.891868" lon="9.589347">
<ele>292.0</ele>
<speed>2.6</speed>
<course>42.4</course>
<desc>Speed 2.6 km/h Distance 57.78 km</desc>
<time>2010-09-11T15:18:07.31</time>
<name>1551</name>
</trkpt>
<trkpt lat="49.892012" lon="9.589550">
<ele>292.0</ele>
<speed>3.6</speed>
<course>82.3</course>
<desc>Speed 3.6 km/h Distance 57.80 km</desc>
<time>2010-09-11T15:18:18.30</time>
<name>1552</name>
</trkpt>
<trkpt lat="49.892015" lon="9.589588">
<ele>292.0</ele>
<speed>3.6</speed>
<course>339.8</course>
<desc>Speed 3.6 km/h Distance 57.80 km</desc>
<time>2010-09-11T15:18:19.29</time>
<name>1553</name>
</trkpt>
<trkpt lat="49.892027" lon="9.589582">
<ele>292.0</ele>
<speed>3.6</speed>
<course>334.4</course>
<desc>Speed 3.6 km/h Distance 57.81 km</desc>
<time>2010-09-11T15:18:20.29</time>
<name>1554</name>
</trkpt>
<trkpt lat="49.892033" lon="9.589577">
<ele>292.0</ele>
<speed>3.6</speed>
<course>10.6</course>
<desc>Speed 3.6 km/h Distance 57.81 km</desc>
<time>2010-09-11T15:18:21.29</time>
<name>1555</name>
</trkpt>
<trkpt lat="49.892043" lon="9.589580">
<ele>292.0</ele>
<speed>3.6</speed>
<course>236.4</course>
<desc>Speed 3.6 km/h Distance 57.81 km</desc>
<time>2010-09-11T15:18:22.29</time>
<name>1556</name>
</trkpt>
<trkpt lat="49.892038" lon="9.589568">
<ele>292.0</ele>
<speed>3.6</speed>
<course>29.3</course>
<desc>Speed 3.6 km/h Distance 57.81 km</desc>
<time>2010-09-11T15:18:23.29</time>
<name>1557</name>
</trkpt>
<trkpt lat="49.892052" lon="9.589580">
<ele>292.0</ele>
<speed>6.4</speed>
<course>41.9</course>
<desc>Speed 6.4 km/h Distance 57.81 km</desc>
<time>2010-09-11T15:18:24.29</time>
<name>1558</name>
</trkpt>
<trkpt lat="49.892060" lon="9.589592">
<ele>292.0</ele>
<speed>6.4</speed>
<course>28.8</course>
<desc>Speed 6.4 km/h Distance 57.81 km</desc>
<time>2010-09-11T15:18:25.29</time>
<name>1559</name>
</trkpt>
<trkpt lat="49.892072" lon="9.589602">
<ele>292.0</ele>
<speed>6.4</speed>
<course>46.7</course>
<desc>Speed 6.4 km/h Distance 57.81 km</desc>
<time>2010-09-11T15:18:26.30</time>
<name>1560</name>
</trkpt>
<trkpt lat="49.892077" lon="9.589610">
<ele>292.0</ele>
<speed>6.4</speed>
<course>47.1</course>
<desc>Speed 6.4 km/h Distance 57.81 km</desc>
<time>2010-09-11T15:18:27.29</time>
<name>1561</name>
</trkpt>
<trkpt lat="49.892082" lon="9.589618">
<ele>292.0</ele>
<speed>6.4</speed>
<course>67.5</course>
<desc>Speed 6.4 km/h Distance 57.81 km</desc>
<time>2010-09-11T15:18:28.27</time>
<name>1562</name>
</trkpt>
<trkpt lat="49.892088" lon="9.589643">
<ele>292.0</ele>
<speed>6.4</speed>
<course>23.4</course>
<desc>Speed 6.4 km/h Distance 57.82 km</desc>
<time>2010-09-11T15:18:29.27</time>
<name>1563</name>
</trkpt>
<trkpt lat="49.892210" lon="9.589725">
<ele>292.0</ele>
<speed>6.4</speed>
<course>294.5</course>
<desc>Speed 6.4 km/h Distance 57.83 km</desc>
<time>2010-09-11T15:18:32.29</time>
<name>1564</name>
</trkpt>
<trkpt lat="49.892218" lon="9.589697">
<ele>292.0</ele>
<speed>6.4</speed>
<course>297.4</course>
<desc>Speed 6.4 km/h Distance 57.83 km</desc>
<time>2010-09-11T15:18:33.29</time>
<name>1565</name>
</trkpt>
<trkpt lat="49.892222" lon="9.589687">
<ele>292.0</ele>
<speed>6.4</speed>
<course>5.9</course>
<desc>Speed 6.4 km/h Distance 57.83 km</desc>
<time>2010-09-11T15:18:34.30</time>
<name>1566</name>
</trkpt>
<trkpt lat="49.892252" lon="9.589692">
<ele>292.0</ele>
<speed>6.4</speed>
<course>7.4</course>
<desc>Speed 6.4 km/h Distance 57.84 km</desc>
<time>2010-09-11T15:18:35.30</time>
<name>1567</name>
</trkpt>
<trkpt lat="49.892258" lon="9.589692">
<ele>292.0</ele>
<speed>6.4</speed>
<course>291.2</course>
<desc>Speed 6.4 km/h Distance 57.84 km</desc>
<time>2010-09-11T15:18:36.30</time>
<name>1568</name>
</trkpt>
<trkpt lat="49.892263" lon="9.589672">
<ele>292.0</ele>
<speed>0.8</speed>
<course>301.4</course>
<desc>Speed 0.8 km/h Distance 57.84 km</desc>
<time>2010-09-11T15:18:37.30</time>
<name>1569</name>
</trkpt>
<trkpt lat="49.892267" lon="9.589663">
<ele>292.0</ele>
<speed>0.8</speed>
<course>270.0</course>
<desc>Speed 0.8 km/h Distance 57.84 km</desc>
<time>2010-09-11T15:18:38.30</time>
<name>1570</name>
</trkpt>
<trkpt lat="49.892267" lon="9.589643">
<ele>292.0</ele>
<speed>0.8</speed>
<course>352.7</course>
<desc>Speed 0.8 km/h Distance 57.84 km</desc>
<time>2010-09-11T15:18:39.30</time>
<name>1571</name>
</trkpt>
<trkpt lat="49.892510" lon="9.589595">
<ele>292.0</ele>
<speed>31.7</speed>
<course>359.2</course>
<desc>Speed 31.7 km/h Distance 57.87 km</desc>
<time>2010-09-11T15:18:44.28</time>
<name>1572</name>
</trkpt>
<trkpt lat="49.892567" lon="9.589593">
<ele>292.0</ele>
<speed>31.7</speed>
<course>208.7</course>
<desc>Speed 31.7 km/h Distance 57.88 km</desc>
<time>2010-09-11T15:18:48.29</time>
<name>1573</name>
</trkpt>
<trkpt lat="49.892500" lon="9.589537">
<ele>292.5</ele>
<speed>31.7</speed>
<course>299.8</course>
<desc>Speed 31.7 km/h Distance 57.88 km</desc>
<time>2010-09-11T15:18:51.29</time>
<name>1574</name>
</trkpt>
<trkpt lat="49.892523" lon="9.589473">
<ele>294.0</ele>
<speed>4.5</speed>
<course>307.8</course>
<desc>Speed 4.5 km/h Distance 57.89 km</desc>
<time>2010-09-11T15:18:55.29</time>
<name>1575</name>
</trkpt>
<trkpt lat="49.892538" lon="9.589443">
<ele>293.5</ele>
<speed>4.6</speed>
<course>312.2</course>
<desc>Speed 4.6 km/h Distance 57.89 km</desc>
<time>2010-09-11T15:18:56.29</time>
<name>1576</name>
</trkpt>
<trkpt lat="49.892550" lon="9.589423">
<ele>293.0</ele>
<speed>3.3</speed>
<course>262.0</course>
<desc>Speed 3.3 km/h Distance 57.89 km</desc>
<time>2010-09-11T15:18:57.29</time>
<name>1577</name>
</trkpt>
<trkpt lat="49.892548" lon="9.589405">
<ele>292.5</ele>
<speed>3.3</speed>
<course>353.7</course>
<desc>Speed 3.3 km/h Distance 57.90 km</desc>
<time>2010-09-11T15:18:58.29</time>
<name>1578</name>
</trkpt>
<trkpt lat="49.892560" lon="9.589403">
<ele>292.5</ele>
<speed>3.3</speed>
<course>277.7</course>
<desc>Speed 3.3 km/h Distance 57.90 km</desc>
<time>2010-09-11T15:18:59.28</time>
<name>1579</name>
</trkpt>
<trkpt lat="49.892563" lon="9.589365">
<ele>291.0</ele>
<speed>2.8</speed>
<course>267.8</course>
<desc>Speed 2.8 km/h Distance 57.90 km</desc>
<time>2010-09-11T15:19:00.28</time>
<name>1580</name>
</trkpt>
<trkpt lat="49.892562" lon="9.589297">
<ele>290.0</ele>
<speed>6.3</speed>
<course>257.5</course>
<desc>Speed 6.3 km/h Distance 57.90 km</desc>
<time>2010-09-11T15:19:02.28</time>
<name>1581</name>
</trkpt>
<trkpt lat="49.892558" lon="9.589273">
<ele>289.5</ele>
<speed>6.3</speed>
<course>339.4</course>
<desc>Speed 6.3 km/h Distance 57.91 km</desc>
<time>2010-09-11T15:19:03.29</time>
<name>1582</name>
</trkpt>
<trkpt lat="49.892570" lon="9.589267">
<ele>289.5</ele>
<speed>2.8</speed>
<course>321.0</course>
<desc>Speed 2.8 km/h Distance 57.91 km</desc>
<time>2010-09-11T15:19:04.29</time>
<name>1583</name>
</trkpt>
<trkpt lat="49.892577" lon="9.589258">
<ele>288.5</ele>
<speed>2.7</speed>
<course>262.0</course>
<desc>Speed 2.7 km/h Distance 57.91 km</desc>
<time>2010-09-11T15:19:05.29</time>
<name>1584</name>
</trkpt>
<trkpt lat="49.892575" lon="9.589240">
<ele>288.5</ele>
<speed>3.3</speed>
<course>220.9</course>
<desc>Speed 3.3 km/h Distance 57.91 km</desc>
<time>2010-09-11T15:19:06.29</time>
<name>1585</name>
</trkpt>
<trkpt lat="49.892570" lon="9.589233">
<ele>288.5</ele>
<speed>2.8</speed>
<course>255.5</course>
<desc>Speed 2.8 km/h Distance 57.91 km</desc>
<time>2010-09-11T15:19:07.29</time>
<name>1586</name>
</trkpt>
<trkpt lat="49.892567" lon="9.589213">
<ele>287.5</ele>
<speed>0.9</speed>
<course>278.8</course>
<desc>Speed 0.9 km/h Distance 57.91 km</desc>
<time>2010-09-11T15:19:08.29</time>
<name>1587</name>
</trkpt>
<trkpt lat="49.892568" lon="9.589197">
<ele>287.0</ele>
<speed>1.8</speed>
<course>317.5</course>
<desc>Speed 1.8 km/h Distance 57.91 km</desc>
<time>2010-09-11T15:19:09.29</time>
<name>1588</name>
</trkpt>
<trkpt lat="49.892572" lon="9.589192">
<ele>287.0</ele>
<speed>1.8</speed>
<course>149.7</course>
<desc>Speed 1.8 km/h Distance 57.91 km</desc>
<time>2010-09-11T15:19:10.28</time>
<name>1589</name>
</trkpt>
<trkpt lat="49.892535" lon="9.589225">
<ele>286.5</ele>
<speed>10.3</speed>
<course>111.3</course>
<desc>Speed 10.3 km/h Distance 57.92 km</desc>
<time>2010-09-11T15:19:12.28</time>
<name>1590</name>
</trkpt>
<trkpt lat="49.892532" lon="9.589238">
<ele>286.0</ele>
<speed>1.7</speed>
<course>49.2</course>
<desc>Speed 1.7 km/h Distance 57.92 km</desc>
<time>2010-09-11T15:19:14.28</time>
<name>1591</name>
</trkpt>
<trkpt lat="49.892565" lon="9.589298">
<ele>284.5</ele>
<speed>0.4</speed>
<course>84.5</course>
<desc>Speed 0.4 km/h Distance 57.92 km</desc>
<time>2010-09-11T15:19:16.28</time>
<name>1592</name>
</trkpt>
<trkpt lat="49.892567" lon="9.589325">
<ele>284.0</ele>
<speed>0.8</speed>
<course>195.5</course>
<desc>Speed 0.8 km/h Distance 57.93 km</desc>
<time>2010-09-11T15:19:17.28</time>
<name>1593</name>
</trkpt>
<trkpt lat="49.892555" lon="9.589320">
<ele>284.0</ele>
<speed>1.4</speed>
<course>264.8</course>
<desc>Speed 1.4 km/h Distance 57.93 km</desc>
<time>2010-09-11T15:19:18.28</time>
<name>1594</name>
</trkpt>
<trkpt lat="49.892553" lon="9.589292">
<ele>282.0</ele>
<speed>7.2</speed>
<course>214.6</course>
<desc>Speed 7.2 km/h Distance 57.93 km</desc>
<time>2010-09-11T15:19:19.28</time>
<name>1595</name>
</trkpt>
<trkpt lat="49.892530" lon="9.589267">
<ele>282.0</ele>
<speed>7.2</speed>
<course>188.8</course>
<desc>Speed 7.2 km/h Distance 57.93 km</desc>
<time>2010-09-11T15:19:20.27</time>
<name>1596</name>
</trkpt>
<trkpt lat="49.892510" lon="9.589262">
<ele>281.5</ele>
<speed>4.4</speed>
<course>190.4</course>
<desc>Speed 4.4 km/h Distance 57.94 km</desc>
<time>2010-09-11T15:19:21.28</time>
<name>1597</name>
</trkpt>
<trkpt lat="49.892487" lon="9.589255">
<ele>280.5</ele>
<speed>4.4</speed>
<course>230.6</course>
<desc>Speed 4.4 km/h Distance 57.94 km</desc>
<time>2010-09-11T15:19:22.27</time>
<name>1598</name>
</trkpt>
<trkpt lat="49.892472" lon="9.589227">
<ele>279.5</ele>
<speed>2.8</speed>
<course>253.6</course>
<desc>Speed 2.8 km/h Distance 57.94 km</desc>
<time>2010-09-11T15:19:23.27</time>
<name>1599</name>
</trkpt>
<trkpt lat="49.892460" lon="9.589165">
<ele>278.0</ele>
<speed>2.4</speed>
<course>264.5</course>
<desc>Speed 2.4 km/h Distance 57.95 km</desc>
<time>2010-09-11T15:19:25.27</time>
<name>1600</name>
</trkpt>
<trkpt lat="49.892458" lon="9.589138">
<ele>277.0</ele>
<speed>2.4</speed>
<course>209.4</course>
<desc>Speed 2.4 km/h Distance 57.95 km</desc>
<time>2010-09-11T15:19:26.27</time>
<name>1601</name>
</trkpt>
<trkpt lat="49.892418" lon="9.589103">
<ele>277.0</ele>
<speed>7.1</speed>
<course>220.7</course>
<desc>Speed 7.1 km/h Distance 57.95 km</desc>
<time>2010-09-11T15:19:28.28</time>
<name>1602</name>
</trkpt>
<trkpt lat="49.892403" lon="9.589083">
<ele>277.0</ele>
<speed>7.1</speed>
<course>228.7</course>
<desc>Speed 7.1 km/h Distance 57.95 km</desc>
<time>2010-09-11T15:19:29.27</time>
<name>1603</name>
</trkpt>
<trkpt lat="49.892397" lon="9.589072">
<ele>277.0</ele>
<speed>7.1</speed>
<course>217.7</course>
<desc>Speed 7.1 km/h Distance 57.96 km</desc>
<time>2010-09-11T15:19:30.27</time>
<name>1604</name>
</trkpt>
<trkpt lat="49.892388" lon="9.589062">
<ele>277.0</ele>
<speed>7.1</speed>
<course>201.5</course>
<desc>Speed 7.1 km/h Distance 57.96 km</desc>
<time>2010-09-11T15:19:31.27</time>
<name>1605</name>
</trkpt>
<trkpt lat="49.892380" lon="9.589057">
<ele>277.0</ele>
<speed>7.1</speed>
<course>219.3</course>
<desc>Speed 7.1 km/h Distance 57.96 km</desc>
<time>2010-09-11T15:19:32.27</time>
<name>1606</name>
</trkpt>
<trkpt lat="49.892362" lon="9.589033">
<ele>278.5</ele>
<speed>3.4</speed>
<course>270.0</course>
<desc>Speed 3.4 km/h Distance 57.96 km</desc>
<time>2010-09-11T15:19:33.27</time>
<name>1607</name>
</trkpt>
<trkpt lat="49.892362" lon="9.589003">
<ele>279.0</ele>
<speed>3.4</speed>
<course>223.8</course>
<desc>Speed 3.4 km/h Distance 57.96 km</desc>
<time>2010-09-11T15:19:34.28</time>
<name>1608</name>
</trkpt>
<trkpt lat="49.892355" lon="9.588993">
<ele>279.5</ele>
<speed>0.5</speed>
<course>197.0</course>
<desc>Speed 0.5 km/h Distance 57.96 km</desc>
<time>2010-09-11T15:19:35.27</time>
<name>1609</name>
</trkpt>
<trkpt lat="49.892345" lon="9.588988">
<ele>279.5</ele>
<speed>0.5</speed>
<course>147.2</course>
<desc>Speed 0.5 km/h Distance 57.97 km</desc>
<time>2010-09-11T15:19:36.27</time>
<name>1610</name>
</trkpt>
<trkpt lat="49.892335" lon="9.588998">
<ele>279.5</ele>
<speed>4.7</speed>
<course>204.8</course>
<desc>Speed 4.7 km/h Distance 57.97 km</desc>
<time>2010-09-11T15:19:37.27</time>
<name>1611</name>
</trkpt>
<trkpt lat="49.892328" lon="9.588993">
<ele>279.0</ele>
<speed>3.3</speed>
<course>284.5</course>
<desc>Speed 3.3 km/h Distance 57.97 km</desc>
<time>2010-09-11T15:19:38.27</time>
<name>1612</name>
</trkpt>
<trkpt lat="49.892332" lon="9.588973">
<ele>279.0</ele>
<speed>1.4</speed>
<course>29.2</course>
<desc>Speed 1.4 km/h Distance 57.97 km</desc>
<time>2010-09-11T15:19:39.27</time>
<name>1613</name>
</trkpt>
<trkpt lat="49.892333" lon="9.588975">
<ele>278.5</ele>
<speed>2.0</speed>
<course>284.6</course>
<desc>Speed 2.0 km/h Distance 57.97 km</desc>
<time>2010-09-11T15:19:40.27</time>
<name>1614</name>
</trkpt>
<trkpt lat="49.892335" lon="9.588965">
<ele>278.0</ele>
<speed>0.9</speed>
<course>65.0</course>
<desc>Speed 0.9 km/h Distance 57.97 km</desc>
<time>2010-09-11T15:19:41.27</time>
<name>1615</name>
</trkpt>
<trkpt lat="49.892340" lon="9.588982">
<ele>278.5</ele>
<speed>5.6</speed>
<course>60.5</course>
<desc>Speed 5.6 km/h Distance 57.97 km</desc>
<time>2010-09-11T15:19:42.27</time>
<name>1616</name>
</trkpt>
<trkpt lat="49.892347" lon="9.589000">
<ele>279.0</ele>
<speed>3.7</speed>
<course>350.2</course>
<desc>Speed 3.7 km/h Distance 57.97 km</desc>
<time>2010-09-11T15:19:43.27</time>
<name>1617</name>
</trkpt>
<trkpt lat="49.892365" lon="9.588995">
<ele>277.5</ele>
<speed>4.9</speed>
<course>323.6</course>
<desc>Speed 4.9 km/h Distance 57.97 km</desc>
<time>2010-09-11T15:19:44.26</time>
<name>1618</name>
</trkpt>
<trkpt lat="49.892377" lon="9.588982">
<ele>277.0</ele>
<speed>5.6</speed>
<course>127.9</course>
<desc>Speed 5.6 km/h Distance 57.98 km</desc>
<time>2010-09-11T15:19:45.26</time>
<name>1619</name>
</trkpt>
<trkpt lat="49.892368" lon="9.588998">
<ele>277.0</ele>
<speed>4.3</speed>
<course>107.9</course>
<desc>Speed 4.3 km/h Distance 57.98 km</desc>
<time>2010-09-11T15:19:46.26</time>
<name>1620</name>
</trkpt>
<trkpt lat="49.892360" lon="9.589038">
<ele>277.0</ele>
<speed>3.9</speed>
<course>21.5</course>
<desc>Speed 3.9 km/h Distance 57.98 km</desc>
<time>2010-09-11T15:19:47.27</time>
<name>1621</name>
</trkpt>
<trkpt lat="49.892368" lon="9.589043">
<ele>276.5</ele>
<speed>3.7</speed>
<course>32.8</course>
<desc>Speed 3.7 km/h Distance 57.98 km</desc>
<time>2010-09-11T15:19:48.26</time>
<name>1622</name>
</trkpt>
<trkpt lat="49.892378" lon="9.589053">
<ele>276.5</ele>
<speed>3.9</speed>
<course>22.1</course>
<desc>Speed 3.9 km/h Distance 57.98 km</desc>
<time>2010-09-11T15:19:49.26</time>
<name>1623</name>
</trkpt>
<trkpt lat="49.892392" lon="9.589062">
<ele>276.0</ele>
<speed>3.7</speed>
<course>39.5</course>
<desc>Speed 3.7 km/h Distance 57.98 km</desc>
<time>2010-09-11T15:19:50.26</time>
<name>1624</name>
</trkpt>
<trkpt lat="49.892403" lon="9.589077">
<ele>275.5</ele>
<speed>3.1</speed>
<course>48.5</course>
<desc>Speed 3.1 km/h Distance 57.99 km</desc>
<time>2010-09-11T15:19:51.26</time>
<name>1625</name>
</trkpt>
<trkpt lat="49.892410" lon="9.589088">
<ele>275.5</ele>
<speed>3.1</speed>
<course>127.9</course>
<desc>Speed 3.1 km/h Distance 57.99 km</desc>
<time>2010-09-11T15:19:52.27</time>
<name>1626</name>
</trkpt>
<trkpt lat="49.892405" lon="9.589098">
<ele>275.5</ele>
<speed>3.9</speed>
<course>154.4</course>
<desc>Speed 3.9 km/h Distance 57.99 km</desc>
<time>2010-09-11T15:19:53.27</time>
<name>1627</name>
</trkpt>
<trkpt lat="49.892398" lon="9.589103">
<ele>276.0</ele>
<speed>1.4</speed>
<course>90.0</course>
<desc>Speed 1.4 km/h Distance 57.99 km</desc>
<time>2010-09-11T15:19:54.26</time>
<name>1628</name>
</trkpt>
<trkpt lat="49.892398" lon="9.589113">
<ele>277.0</ele>
<speed>1.4</speed>
<course>23.8</course>
<desc>Speed 1.4 km/h Distance 57.99 km</desc>
<time>2010-09-11T15:19:55.26</time>
<name>1629</name>
</trkpt>
<trkpt lat="49.892403" lon="9.589117">
<ele>277.0</ele>
<speed>1.4</speed>
<course>121.8</course>
<desc>Speed 1.4 km/h Distance 57.99 km</desc>
<time>2010-09-11T15:19:56.26</time>
<name>1630</name>
</trkpt>
<trkpt lat="49.892400" lon="9.589125">
<ele>277.0</ele>
<speed>1.4</speed>
<course>104.5</course>
<desc>Speed 1.4 km/h Distance 57.99 km</desc>
<time>2010-09-11T15:19:57.26</time>
<name>1631</name>
</trkpt>
<trkpt lat="49.892397" lon="9.589145">
<ele>277.0</ele>
<speed>1.4</speed>
<course>90.0</course>
<desc>Speed 1.4 km/h Distance 57.99 km</desc>
<time>2010-09-11T15:19:58.25</time>
<name>1632</name>
</trkpt>
<trkpt lat="49.892397" lon="9.589147">
<ele>277.0</ele>
<speed>1.4</speed>
<course>128.1</course>
<desc>Speed 1.4 km/h Distance 57.99 km</desc>
<time>2010-09-11T15:19:59.26</time>
<name>1633</name>
</trkpt>
<trkpt lat="49.892395" lon="9.589150">
<ele>277.0</ele>
<speed>1.4</speed>
<course>142.8</course>
<desc>Speed 1.4 km/h Distance 57.99 km</desc>
<time>2010-09-11T15:20:00.26</time>
<name>1634</name>
</trkpt>
<trkpt lat="49.892393" lon="9.589152">
<ele>277.0</ele>
<speed>1.4</speed>
<course>32.9</course>
<desc>Speed 1.4 km/h Distance 57.99 km</desc>
<time>2010-09-11T15:20:01.26</time>
<name>1635</name>
</trkpt>
<trkpt lat="49.892407" lon="9.589165">
<ele>277.5</ele>
<speed>1.4</speed>
<course>156.7</course>
<desc>Speed 1.4 km/h Distance 58.00 km</desc>
<time>2010-09-11T15:20:02.26</time>
<name>1636</name>
</trkpt>
<trkpt lat="49.892392" lon="9.589175">
<ele>278.0</ele>
<speed>1.4</speed>
<course>90.0</course>
<desc>Speed 1.4 km/h Distance 58.00 km</desc>
<time>2010-09-11T15:20:03.26</time>
<name>1637</name>
</trkpt>
<trkpt lat="49.892392" lon="9.589180">
<ele>278.0</ele>
<speed>1.4</speed>
<course>270.0</course>
<desc>Speed 1.4 km/h Distance 58.00 km</desc>
<time>2010-09-11T15:20:04.26</time>
<name>1638</name>
</trkpt>
<trkpt lat="49.892392" lon="9.589178">
<ele>278.5</ele>
<speed>1.4</speed>
<course>287.2</course>
<desc>Speed 1.4 km/h Distance 58.00 km</desc>
<time>2010-09-11T15:20:05.26</time>
<name>1639</name>
</trkpt>
<trkpt lat="49.892395" lon="9.589162">
<ele>277.5</ele>
<speed>5.4</speed>
<course>253.8</course>
<desc>Speed 5.4 km/h Distance 58.00 km</desc>
<time>2010-09-11T15:20:06.26</time>
<name>1640</name>
</trkpt>
<trkpt lat="49.892390" lon="9.589135">
<ele>277.5</ele>
<speed>8.6</speed>
<course>344.5</course>
<desc>Speed 8.6 km/h Distance 58.00 km</desc>
<time>2010-09-11T15:20:07.26</time>
<name>1641</name>
</trkpt>
<trkpt lat="49.892402" lon="9.589130">
<ele>277.5</ele>
<speed>4.7</speed>
<course>7.4</course>
<desc>Speed 4.7 km/h Distance 58.00 km</desc>
<time>2010-09-11T15:20:08.26</time>
<name>1642</name>
</trkpt>
<trkpt lat="49.892408" lon="9.589132">
<ele>277.5</ele>
<speed>0.9</speed>
<course>53.5</course>
<desc>Speed 0.9 km/h Distance 58.00 km</desc>
<time>2010-09-11T15:20:09.26</time>
<name>1643</name>
</trkpt>
<trkpt lat="49.892425" lon="9.589167">
<ele>280.0</ele>
<speed>0.4</speed>
<course>72.7</course>
<desc>Speed 0.4 km/h Distance 58.01 km</desc>
<time>2010-09-11T15:20:11.25</time>
<name>1644</name>
</trkpt>
<trkpt lat="49.892428" lon="9.589183">
<ele>280.5</ele>
<speed>1.2</speed>
<course>104.5</course>
<desc>Speed 1.2 km/h Distance 58.01 km</desc>
<time>2010-09-11T15:20:12.25</time>
<name>1645</name>
</trkpt>
<trkpt lat="49.892425" lon="9.589203">
<ele>281.5</ele>
<speed>3.9</speed>
<course>111.2</course>
<desc>Speed 3.9 km/h Distance 58.01 km</desc>
<time>2010-09-11T15:20:13.25</time>
<name>1646</name>
</trkpt>
<trkpt lat="49.892422" lon="9.589217">
<ele>282.0</ele>
<speed>3.9</speed>
<course>121.8</course>
<desc>Speed 3.9 km/h Distance 58.01 km</desc>
<time>2010-09-11T15:20:14.25</time>
<name>1647</name>
</trkpt>
<trkpt lat="49.892418" lon="9.589225">
<ele>282.0</ele>
<speed>3.9</speed>
<course>148.4</course>
<desc>Speed 3.9 km/h Distance 58.01 km</desc>
<time>2010-09-11T15:20:15.24</time>
<name>1648</name>
</trkpt>
<trkpt lat="49.892415" lon="9.589228">
<ele>282.5</ele>
<speed>3.9</speed>
<course>142.8</course>
<desc>Speed 3.9 km/h Distance 58.01 km</desc>
<time>2010-09-11T15:20:16.24</time>
<name>1649</name>
</trkpt>
<trkpt lat="49.892413" lon="9.589230">
<ele>282.5</ele>
<speed>3.9</speed>
<course>6.9</course>
<desc>Speed 3.9 km/h Distance 58.01 km</desc>
<time>2010-09-11T15:20:17.24</time>
<name>1650</name>
</trkpt>
<trkpt lat="49.892440" lon="9.589235">
<ele>282.5</ele>
<speed>4.7</speed>
<course>10.4</course>
<desc>Speed 4.7 km/h Distance 58.01 km</desc>
<time>2010-09-11T15:20:18.24</time>
<name>1651</name>
</trkpt>
<trkpt lat="49.892452" lon="9.589238">
<ele>282.0</ele>
<speed>4.7</speed>
<course>49.4</course>
<desc>Speed 4.7 km/h Distance 58.02 km</desc>
<time>2010-09-11T15:20:19.24</time>
<name>1652</name>
</trkpt>
<trkpt lat="49.892453" lon="9.589242">
<ele>282.0</ele>
<speed>4.7</speed>
<course>292.5</course>
<desc>Speed 4.7 km/h Distance 58.02 km</desc>
<time>2010-09-11T15:20:20.25</time>
<name>1653</name>
</trkpt>
<trkpt lat="49.892460" lon="9.589217">
<ele>281.5</ele>
<speed>4.7</speed>
<course>4.7</course>
<desc>Speed 4.7 km/h Distance 58.02 km</desc>
<time>2010-09-11T15:20:21.24</time>
<name>1654</name>
</trkpt>
<trkpt lat="49.892483" lon="9.589220">
<ele>281.5</ele>
<speed>10.7</speed>
<course>16.4</course>
<desc>Speed 10.7 km/h Distance 58.02 km</desc>
<time>2010-09-11T15:20:22.25</time>
<name>1655</name>
</trkpt>
<trkpt lat="49.892502" lon="9.589228">
<ele>281.0</ele>
<speed>10.7</speed>
<course>19.9</course>
<desc>Speed 10.7 km/h Distance 58.02 km</desc>
<time>2010-09-11T15:20:23.25</time>
<name>1656</name>
</trkpt>
<trkpt lat="49.892517" lon="9.589237">
<ele>281.0</ele>
<speed>10.7</speed>
<course>39.8</course>
<desc>Speed 10.7 km/h Distance 58.02 km</desc>
<time>2010-09-11T15:20:24.24</time>
<name>1657</name>
</trkpt>
<trkpt lat="49.892528" lon="9.589252">
<ele>280.5</ele>
<speed>10.7</speed>
<course>159.8</course>
<desc>Speed 10.7 km/h Distance 58.03 km</desc>
<time>2010-09-11T15:20:25.24</time>
<name>1658</name>
</trkpt>
<trkpt lat="49.892505" lon="9.589265">
<ele>281.0</ele>
<speed>7.1</speed>
<course>346.2</course>
<desc>Speed 7.1 km/h Distance 58.03 km</desc>
<time>2010-09-11T15:20:26.24</time>
<name>1659</name>
</trkpt>
<trkpt lat="49.892513" lon="9.589262">
<ele>281.0</ele>
<speed>0.3</speed>
<course>322.8</course>
<desc>Speed 0.3 km/h Distance 58.03 km</desc>
<time>2010-09-11T15:20:27.24</time>
<name>1660</name>
</trkpt>
<trkpt lat="49.892515" lon="9.589260">
<ele>281.0</ele>
<speed>0.4</speed>
<course>12.6</course>
<desc>Speed 0.4 km/h Distance 58.03 km</desc>
<time>2010-09-11T15:20:28.24</time>
<name>1661</name>
</trkpt>
<trkpt lat="49.892517" lon="9.589260">
<ele>281.0</ele>
<speed>0.4</speed>
<course>341.8</course>
<desc>Speed 0.4 km/h Distance 58.03 km</desc>
<time>2010-09-11T15:20:29.24</time>
<name>1662</name>
</trkpt>
<trkpt lat="49.892527" lon="9.589255">
<ele>281.0</ele>
<speed>5.6</speed>
<course>69.1</course>
<desc>Speed 5.6 km/h Distance 58.03 km</desc>
<time>2010-09-11T15:20:30.25</time>
<name>1663</name>
</trkpt>
<trkpt lat="49.892528" lon="9.589262">
<ele>281.0</ele>
<speed>5.6</speed>
<course>8.1</course>
<desc>Speed 5.6 km/h Distance 58.03 km</desc>
<time>2010-09-11T15:20:31.24</time>
<name>1664</name>
</trkpt>
<trkpt lat="49.892533" lon="9.589262">
<ele>281.0</ele>
<speed>5.6</speed>
<course>7.4</course>
<desc>Speed 5.6 km/h Distance 58.03 km</desc>
<time>2010-09-11T15:20:32.24</time>
<name>1665</name>
</trkpt>
<trkpt lat="49.892540" lon="9.589262">
<ele>281.0</ele>
<speed>5.6</speed>
<course>282.4</course>
<desc>Speed 5.6 km/h Distance 58.03 km</desc>
<time>2010-09-11T15:20:33.24</time>
<name>1666</name>
</trkpt>
<trkpt lat="49.892542" lon="9.589250">
<ele>281.0</ele>
<speed>4.1</speed>
<course>297.2</course>
<desc>Speed 4.1 km/h Distance 58.03 km</desc>
<time>2010-09-11T15:20:34.24</time>
<name>1667</name>
</trkpt>
<trkpt lat="49.892545" lon="9.589240">
<ele>280.5</ele>
<speed>4.1</speed>
<course>17.5</course>
<desc>Speed 4.1 km/h Distance 58.03 km</desc>
<time>2010-09-11T15:20:35.24</time>
<name>1668</name>
</trkpt>
<trkpt lat="49.892552" lon="9.589243">
<ele>280.0</ele>
<speed>3.6</speed>
<course>90.0</course>
<desc>Speed 3.6 km/h Distance 58.04 km</desc>
<time>2010-09-11T15:20:36.24</time>
<name>1669</name>
</trkpt>
<trkpt lat="49.892552" lon="9.589252">
<ele>280.0</ele>
<speed>3.7</speed>
<course>90.0</course>
<desc>Speed 3.7 km/h Distance 58.04 km</desc>
<time>2010-09-11T15:20:37.24</time>
<name>1670</name>
</trkpt>
<trkpt lat="49.892552" lon="9.589255">
<ele>280.0</ele>
<speed>3.6</speed>
<course>202.2</course>
<desc>Speed 3.6 km/h Distance 58.04 km</desc>
<time>2010-09-11T15:20:38.24</time>
<name>1671</name>
</trkpt>
<trkpt lat="49.892547" lon="9.589252">
<ele>280.0</ele>
<speed>3.1</speed>
<course>242.6</course>
<desc>Speed 3.1 km/h Distance 58.04 km</desc>
<time>2010-09-11T15:20:39.24</time>
<name>1672</name>
</trkpt>
<trkpt lat="49.892543" lon="9.589242">
<ele>280.0</ele>
<speed>3.5</speed>
<course>248.8</course>
<desc>Speed 3.5 km/h Distance 58.04 km</desc>
<time>2010-09-11T15:20:40.24</time>
<name>1673</name>
</trkpt>
<trkpt lat="49.892540" lon="9.589228">
<ele>280.0</ele>
<speed>1.9</speed>
<course>257.6</course>
<desc>Speed 1.9 km/h Distance 58.04 km</desc>
<time>2010-09-11T15:20:41.24</time>
<name>1674</name>
</trkpt>
<trkpt lat="49.892538" lon="9.589217">
<ele>279.5</ele>
<speed>2.7</speed>
<course>326.3</course>
<desc>Speed 2.7 km/h Distance 58.04 km</desc>
<time>2010-09-11T15:20:42.23</time>
<name>1675</name>
</trkpt>
<trkpt lat="49.892542" lon="9.589213">
<ele>279.0</ele>
<speed>1.8</speed>
<course>284.4</course>
<desc>Speed 1.8 km/h Distance 58.04 km</desc>
<time>2010-09-11T15:20:43.23</time>
<name>1676</name>
</trkpt>
<trkpt lat="49.892543" lon="9.589203">
<ele>279.0</ele>
<speed>2.4</speed>
<course>212.3</course>
<desc>Speed 2.4 km/h Distance 58.04 km</desc>
<time>2010-09-11T15:20:44.24</time>
<name>1677</name>
</trkpt>
<trkpt lat="49.892538" lon="9.589198">
<ele>278.0</ele>
<speed>0.7</speed>
<course>167.4</course>
<desc>Speed 0.7 km/h Distance 58.04 km</desc>
<time>2010-09-11T15:20:45.23</time>
<name>1678</name>
</trkpt>
<trkpt lat="49.892537" lon="9.589198">
<ele>277.5</ele>
<speed>0.7</speed>
<course>248.7</course>
<desc>Speed 0.7 km/h Distance 58.04 km</desc>
<time>2010-09-11T15:20:46.23</time>
<name>1679</name>
</trkpt>
<trkpt lat="49.892535" lon="9.589192">
<ele>277.0</ele>
<speed>0.8</speed>
<course>270.0</course>
<desc>Speed 0.8 km/h Distance 58.04 km</desc>
<time>2010-09-11T15:20:47.23</time>
<name>1680</name>
</trkpt>
<trkpt lat="49.892535" lon="9.589182">
<ele>277.0</ele>
<speed>2.6</speed>
<course>242.6</course>
<desc>Speed 2.6 km/h Distance 58.04 km</desc>
<time>2010-09-11T15:20:48.24</time>
<name>1681</name>
</trkpt>
<trkpt lat="49.892533" lon="9.589177">
<ele>276.5</ele>
<speed>0.8</speed>
<course>158.5</course>
<desc>Speed 0.8 km/h Distance 58.04 km</desc>
<time>2010-09-11T15:20:49.24</time>
<name>1682</name>
</trkpt>
<trkpt lat="49.892525" lon="9.589182">
<ele>276.5</ele>
<speed>1.4</speed>
<course>128.1</course>
<desc>Speed 1.4 km/h Distance 58.04 km</desc>
<time>2010-09-11T15:20:50.23</time>
<name>1683</name>
</trkpt>
<trkpt lat="49.892523" lon="9.589185">
<ele>276.5</ele>
<speed>0.8</speed>
<course>90.0</course>
<desc>Speed 0.8 km/h Distance 58.04 km</desc>
<time>2010-09-11T15:20:51.23</time>
<name>1684</name>
</trkpt>
<trkpt lat="49.892523" lon="9.589190">
<ele>277.0</ele>
<speed>0.3</speed>
<course>146.3</course>
<desc>Speed 0.3 km/h Distance 58.04 km</desc>
<time>2010-09-11T15:20:52.24</time>
<name>1685</name>
</trkpt>
<trkpt lat="49.892520" lon="9.589193">
<ele>277.0</ele>
<speed>0.1</speed>
<course>146.3</course>
<desc>Speed 0.1 km/h Distance 58.05 km</desc>
<time>2010-09-11T15:20:53.23</time>
<name>1686</name>
</trkpt>
<trkpt lat="49.892520" lon="9.589193">
<ele>277.0</ele>
<speed>0.4</speed>
<course>146.3</course>
<desc>Speed 0.4 km/h Distance 58.05 km</desc>
<time>2010-09-11T15:20:54.23</time>
<name>1687</name>
</trkpt>
<trkpt lat="49.892520" lon="9.589193">
<ele>277.5</ele>
<speed>0.4</speed>
<course>110.9</course>
<desc>Speed 0.4 km/h Distance 58.05 km</desc>
<time>2010-09-11T15:20:55.23</time>
<name>1688</name>
</trkpt>
<trkpt lat="49.892518" lon="9.589200">
<ele>277.5</ele>
<speed>2.0</speed>
<course>132.9</course>
<desc>Speed 2.0 km/h Distance 58.05 km</desc>
<time>2010-09-11T15:20:56.23</time>
<name>1689</name>
</trkpt>
<trkpt lat="49.892513" lon="9.589208">
<ele>278.0</ele>
<speed>1.0</speed>
<course>307.6</course>
<desc>Speed 1.0 km/h Distance 58.05 km</desc>
<time>2010-09-11T15:20:57.23</time>
<name>1690</name>
</trkpt>
<trkpt lat="49.892517" lon="9.589202">
<ele>278.0</ele>
<speed>2.0</speed>
<course>307.6</course>
<desc>Speed 2.0 km/h Distance 58.05 km</desc>
<time>2010-09-11T15:20:58.23</time>
<name>1691</name>
</trkpt>
<trkpt lat="49.892517" lon="9.589202">
<ele>278.5</ele>
<speed>0.3</speed>
<course>117.4</course>
<desc>Speed 0.3 km/h Distance 58.05 km</desc>
<time>2010-09-11T15:20:59.22</time>
<name>1692</name>
</trkpt>
<trkpt lat="49.892513" lon="9.589212">
<ele>279.0</ele>
<speed>1.4</speed>
<course>316.7</course>
<desc>Speed 1.4 km/h Distance 58.05 km</desc>
<time>2010-09-11T15:21:01.23</time>
<name>1693</name>
</trkpt>
<trkpt lat="49.892535" lon="9.589180">
<ele>281.0</ele>
<speed>0.5</speed>
<course>305.1</course>
<desc>Speed 0.5 km/h Distance 58.05 km</desc>
<time>2010-09-11T15:21:03.22</time>
<name>1694</name>
</trkpt>
<trkpt lat="49.892567" lon="9.589110">
<ele>285.0</ele>
<speed>4.0</speed>
<course>307.8</course>
<desc>Speed 4.0 km/h Distance 58.06 km</desc>
<time>2010-09-11T15:21:05.22</time>
<name>1695</name>
</trkpt>
<trkpt lat="49.892583" lon="9.589077">
<ele>286.0</ele>
<speed>6.6</speed>
<course>291.2</course>
<desc>Speed 6.6 km/h Distance 58.06 km</desc>
<time>2010-09-11T15:21:06.23</time>
<name>1696</name>
</trkpt>
<trkpt lat="49.892588" lon="9.589057">
<ele>287.5</ele>
<speed>6.6</speed>
<course>303.6</course>
<desc>Speed 6.6 km/h Distance 58.06 km</desc>
<time>2010-09-11T15:21:07.22</time>
<name>1697</name>
</trkpt>
<trkpt lat="49.892593" lon="9.589045">
<ele>287.5</ele>
<speed>6.6</speed>
<course>242.6</course>
<desc>Speed 6.6 km/h Distance 58.06 km</desc>
<time>2010-09-11T15:21:08.22</time>
<name>1698</name>
</trkpt>
<trkpt lat="49.892592" lon="9.589040">
<ele>287.5</ele>
<speed>6.6</speed>
<course>198.1</course>
<desc>Speed 6.6 km/h Distance 58.06 km</desc>
<time>2010-09-11T15:21:09.22</time>
<name>1699</name>
</trkpt>
<trkpt lat="49.892578" lon="9.589033">
<ele>288.5</ele>
<speed>2.1</speed>
<course>172.5</course>
<desc>Speed 2.1 km/h Distance 58.06 km</desc>
<time>2010-09-11T15:21:10.22</time>
<name>1700</name>
</trkpt>
<trkpt lat="49.892563" lon="9.589037">
<ele>289.5</ele>
<speed>2.1</speed>
<course>167.4</course>
<desc>Speed 2.1 km/h Distance 58.07 km</desc>
<time>2010-09-11T15:21:11.23</time>
<name>1701</name>
</trkpt>
<trkpt lat="49.892555" lon="9.589040">
<ele>290.0</ele>
<speed>2.1</speed>
<course>159.7</course>
<desc>Speed 2.1 km/h Distance 58.07 km</desc>
<time>2010-09-11T15:21:12.22</time>
<name>1702</name>
</trkpt>
<trkpt lat="49.892550" lon="9.589043">
<ele>290.0</ele>
<speed>2.1</speed>
<course>261.4</course>
<desc>Speed 2.1 km/h Distance 58.07 km</desc>
<time>2010-09-11T15:21:13.22</time>
<name>1703</name>
</trkpt>
<trkpt lat="49.892543" lon="9.588975">
<ele>288.5</ele>
<speed>12.5</speed>
<course>167.4</course>
<desc>Speed 12.5 km/h Distance 58.07 km</desc>
<time>2010-09-11T15:21:15.21</time>
<name>1704</name>
</trkpt>
<trkpt lat="49.892528" lon="9.588980">
<ele>288.0</ele>
<speed>12.5</speed>
<course>142.2</course>
<desc>Speed 12.5 km/h Distance 58.07 km</desc>
<time>2010-09-11T15:21:16.21</time>
<name>1705</name>
</trkpt>
<trkpt lat="49.892455" lon="9.589068">
<ele>287.5</ele>
<speed>3.9</speed>
<course>225.8</course>
<desc>Speed 3.9 km/h Distance 58.09 km</desc>
<time>2010-09-11T15:21:18.21</time>
<name>1706</name>
</trkpt>
<trkpt lat="49.892447" lon="9.589055">
<ele>288.5</ele>
<speed>4.4</speed>
<course>224.0</course>
<desc>Speed 4.4 km/h Distance 58.09 km</desc>
<time>2010-09-11T15:21:19.21</time>
<name>1707</name>
</trkpt>
<trkpt lat="49.892440" lon="9.589045">
<ele>288.5</ele>
<speed>4.4</speed>
<course>142.9</course>
<desc>Speed 4.4 km/h Distance 58.09 km</desc>
<time>2010-09-11T15:21:20.21</time>
<name>1708</name>
</trkpt>
<trkpt lat="49.892353" lon="9.589147">
<ele>288.5</ele>
<speed>2.3</speed>
<course>90.0</course>
<desc>Speed 2.3 km/h Distance 58.10 km</desc>
<time>2010-09-11T15:21:23.21</time>
<name>1709</name>
</trkpt>
<trkpt lat="49.892353" lon="9.589148">
<ele>288.5</ele>
<speed>2.3</speed>
<course>12.6</course>
<desc>Speed 2.3 km/h Distance 58.10 km</desc>
<time>2010-09-11T15:21:24.21</time>
<name>1710</name>
</trkpt>
<trkpt lat="49.892355" lon="9.589148">
<ele>288.5</ele>
<speed>2.3</speed>
<course>310.8</course>
<desc>Speed 2.3 km/h Distance 58.10 km</desc>
<time>2010-09-11T15:21:25.21</time>
<name>1711</name>
</trkpt>
<trkpt lat="49.892363" lon="9.589133">
<ele>287.5</ele>
<speed>0.2</speed>
<course>220.9</course>
<desc>Speed 0.2 km/h Distance 58.10 km</desc>
<time>2010-09-11T15:21:26.21</time>
<name>1712</name>
</trkpt>
<trkpt lat="49.892358" lon="9.589127">
<ele>287.5</ele>
<speed>1.3</speed>
<course>302.1</course>
<desc>Speed 1.3 km/h Distance 58.10 km</desc>
<time>2010-09-11T15:21:27.21</time>
<name>1713</name>
</trkpt>
<trkpt lat="49.892362" lon="9.589118">
<ele>286.0</ele>
<speed>1.8</speed>
<course>1.2</course>
<desc>Speed 1.8 km/h Distance 58.10 km</desc>
<time>2010-09-11T15:21:28.21</time>
<name>1714</name>
</trkpt>
<trkpt lat="49.892382" lon="9.589118">
<ele>286.5</ele>
<speed>2.4</speed>
<course>44.5</course>
<desc>Speed 2.4 km/h Distance 58.11 km</desc>
<time>2010-09-11T15:21:29.21</time>
<name>1715</name>
</trkpt>
<trkpt lat="49.892385" lon="9.589123">
<ele>286.5</ele>
<speed>2.4</speed>
<course>259.1</course>
<desc>Speed 2.4 km/h Distance 58.11 km</desc>
<time>2010-09-11T15:21:30.21</time>
<name>1716</name>
</trkpt>
<trkpt lat="49.892383" lon="9.589110">
<ele>288.0</ele>
<speed>2.1</speed>
<course>189.7</course>
<desc>Speed 2.1 km/h Distance 58.11 km</desc>
<time>2010-09-11T15:21:31.21</time>
<name>1717</name>
</trkpt>
<trkpt lat="49.892370" lon="9.589107">
<ele>288.0</ele>
<speed>2.1</speed>
<course>299.0</course>
<desc>Speed 2.1 km/h Distance 58.11 km</desc>
<time>2010-09-11T15:21:32.21</time>
<name>1718</name>
</trkpt>
<trkpt lat="49.892378" lon="9.589083">
<ele>287.5</ele>
<speed>1.2</speed>
<course>178.1</course>
<desc>Speed 1.2 km/h Distance 58.11 km</desc>
<time>2010-09-11T15:21:33.21</time>
<name>1719</name>
</trkpt>
<trkpt lat="49.892363" lon="9.589083">
<ele>287.5</ele>
<speed>2.4</speed>
<course>190.6</course>
<desc>Speed 2.4 km/h Distance 58.11 km</desc>
<time>2010-09-11T15:21:34.20</time>
<name>1720</name>
</trkpt>
<trkpt lat="49.892353" lon="9.589080">
<ele>287.5</ele>
<speed>2.7</speed>
<course>212.3</course>
<desc>Speed 2.7 km/h Distance 58.11 km</desc>
<time>2010-09-11T15:21:35.21</time>
<name>1721</name>
</trkpt>
<trkpt lat="49.892348" lon="9.589075">
<ele>287.5</ele>
<speed>2.7</speed>
<course>303.6</course>
<desc>Speed 2.7 km/h Distance 58.11 km</desc>
<time>2010-09-11T15:21:36.86</time>
<name>1722</name>
</trkpt>
<trkpt lat="49.892353" lon="9.589063">
<ele>288.0</ele>
<speed>0.8</speed>
<course>326.8</course>
<desc>Speed 0.8 km/h Distance 58.11 km</desc>
<time>2010-09-11T15:21:38.21</time>
<name>1723</name>
</trkpt>
<trkpt lat="49.892360" lon="9.589057">
<ele>288.5</ele>
<speed>5.9</speed>
<course>270.0</course>
<desc>Speed 5.9 km/h Distance 58.12 km</desc>
<time>2010-09-11T15:21:39.21</time>
<name>1724</name>
</trkpt>
<trkpt lat="49.892360" lon="9.589052">
<ele>289.5</ele>
<speed>5.9</speed>
<course>242.6</course>
<desc>Speed 5.9 km/h Distance 58.12 km</desc>
<time>2010-09-11T15:21:40.21</time>
<name>1725</name>
</trkpt>
<trkpt lat="49.892358" lon="9.589047">
<ele>290.5</ele>
<speed>1.0</speed>
<course>16.0</course>
<desc>Speed 1.0 km/h Distance 58.12 km</desc>
<time>2010-09-11T15:21:41.21</time>
<name>1726</name>
</trkpt>
<trkpt lat="49.892365" lon="9.589050">
<ele>290.5</ele>
<speed>1.8</speed>
<course>222.5</course>
<desc>Speed 1.8 km/h Distance 58.12 km</desc>
<time>2010-09-11T15:21:42.21</time>
<name>1727</name>
</trkpt>
<trkpt lat="49.892362" lon="9.589045">
<ele>291.0</ele>
<speed>1.3</speed>
<course>167.4</course>
<desc>Speed 1.3 km/h Distance 58.12 km</desc>
<time>2010-09-11T15:21:43.21</time>
<name>1728</name>
</trkpt>
<trkpt lat="49.892360" lon="9.589045">
<ele>291.0</ele>
<speed>1.3</speed>
<course>180.0</course>
<desc>Speed 1.3 km/h Distance 58.12 km</desc>
<time>2010-09-11T15:21:44.21</time>
<name>1729</name>
</trkpt>
<trkpt lat="49.892355" lon="9.589045">
<ele>291.5</ele>
<speed>1.3</speed>
<course>138.1</course>
<desc>Speed 1.3 km/h Distance 58.12 km</desc>
<time>2010-09-11T15:21:45.20</time>
<name>1730</name>
</trkpt>
<trkpt lat="49.892347" lon="9.589057">
<ele>292.0</ele>
<speed>7.2</speed>
<course>344.5</course>
<desc>Speed 7.2 km/h Distance 58.12 km</desc>
<time>2010-09-11T15:21:46.21</time>
<name>1731</name>
</trkpt>
<trkpt lat="49.892358" lon="9.589052">
<ele>292.0</ele>
<speed>4.7</speed>
<course>33.2</course>
<desc>Speed 4.7 km/h Distance 58.12 km</desc>
<time>2010-09-11T15:21:47.20</time>
<name>1732</name>
</trkpt>
<trkpt lat="49.892367" lon="9.589060">
<ele>292.0</ele>
<speed>3.8</speed>
<course>70.3</course>
<desc>Speed 3.8 km/h Distance 58.12 km</desc>
<time>2010-09-11T15:21:48.21</time>
<name>1733</name>
</trkpt>
<trkpt lat="49.892372" lon="9.589082">
<ele>292.5</ele>
<speed>4.4</speed>
<course>22.1</course>
<desc>Speed 4.4 km/h Distance 58.12 km</desc>
<time>2010-09-11T15:21:49.21</time>
<name>1734</name>
</trkpt>
<trkpt lat="49.892385" lon="9.589090">
<ele>292.5</ele>
<speed>4.0</speed>
<course>62.7</course>
<desc>Speed 4.0 km/h Distance 58.13 km</desc>
<time>2010-09-11T15:21:50.20</time>
<name>1735</name>
</trkpt>
<trkpt lat="49.892392" lon="9.589110">
<ele>292.5</ele>
<speed>3.6</speed>
<course>57.8</course>
<desc>Speed 3.6 km/h Distance 58.13 km</desc>
<time>2010-09-11T15:21:51.20</time>
<name>1736</name>
</trkpt>
<trkpt lat="49.892413" lon="9.589163">
<ele>294.5</ele>
<speed>3.6</speed>
<course>46.1</course>
<desc>Speed 3.6 km/h Distance 58.13 km</desc>
<time>2010-09-11T15:21:53.20</time>
<name>1737</name>
</trkpt>
<trkpt lat="49.892422" lon="9.589177">
<ele>295.0</ele>
<speed>3.6</speed>
<course>83.2</course>
<desc>Speed 3.6 km/h Distance 58.13 km</desc>
<time>2010-09-11T15:21:54.20</time>
<name>1738</name>
</trkpt>
<trkpt lat="49.892423" lon="9.589198">
<ele>295.0</ele>
<speed>4.3</speed>
<course>79.1</course>
<desc>Speed 4.3 km/h Distance 58.13 km</desc>
<time>2010-09-11T15:21:55.20</time>
<name>1739</name>
</trkpt>
<trkpt lat="49.892425" lon="9.589212">
<ele>295.0</ele>
<speed>3.5</speed>
<course>62.6</course>
<desc>Speed 3.5 km/h Distance 58.14 km</desc>
<time>2010-09-11T15:21:56.20</time>
<name>1740</name>
</trkpt>
<trkpt lat="49.892428" lon="9.589222">
<ele>295.5</ele>
<speed>2.3</speed>
<course>16.0</course>
<desc>Speed 2.3 km/h Distance 58.14 km</desc>
<time>2010-09-11T15:21:57.20</time>
<name>1741</name>
</trkpt>
<trkpt lat="49.892435" lon="9.589225">
<ele>295.0</ele>
<speed>2.3</speed>
<course>100.9</course>
<desc>Speed 2.3 km/h Distance 58.14 km</desc>
<time>2010-09-11T15:21:58.20</time>
<name>1742</name>
</trkpt>
<trkpt lat="49.892433" lon="9.589238">
<ele>295.0</ele>
<speed>2.3</speed>
<course>113.4</course>
<desc>Speed 2.3 km/h Distance 58.14 km</desc>
<time>2010-09-11T15:21:59.20</time>
<name>1743</name>
</trkpt>
<trkpt lat="49.892413" lon="9.589310">
<ele>293.5</ele>
<speed>2.0</speed>
<course>113.7</course>
<desc>Speed 2.0 km/h Distance 58.14 km</desc>
<time>2010-09-11T15:22:01.19</time>
<name>1744</name>
</trkpt>
<trkpt lat="49.892388" lon="9.589398">
<ele>293.0</ele>
<speed>3.7</speed>
<course>139.1</course>
<desc>Speed 3.7 km/h Distance 58.15 km</desc>
<time>2010-09-11T15:22:03.19</time>
<name>1745</name>
</trkpt>
<trkpt lat="49.892378" lon="9.589412">
<ele>293.0</ele>
<speed>3.7</speed>
<course>121.8</course>
<desc>Speed 3.7 km/h Distance 58.15 km</desc>
<time>2010-09-11T15:22:04.19</time>
<name>1746</name>
</trkpt>
<trkpt lat="49.892375" lon="9.589420">
<ele>293.0</ele>
<speed>3.7</speed>
<course>90.0</course>
<desc>Speed 3.7 km/h Distance 58.15 km</desc>
<time>2010-09-11T15:22:05.19</time>
<name>1747</name>
</trkpt>
<trkpt lat="49.892375" lon="9.589428">
<ele>293.0</ele>
<speed>3.7</speed>
<course>90.0</course>
<desc>Speed 3.7 km/h Distance 58.15 km</desc>
<time>2010-09-11T15:22:06.19</time>
<name>1748</name>
</trkpt>
<trkpt lat="49.892375" lon="9.589433">
<ele>293.0</ele>
<speed>3.7</speed>
<course>180.0</course>
<desc>Speed 3.7 km/h Distance 58.15 km</desc>
<time>2010-09-11T15:22:07.19</time>
<name>1749</name>
</trkpt>
<trkpt lat="49.892373" lon="9.589433">
<ele>293.0</ele>
<speed>3.7</speed>
<course>161.2</course>
<desc>Speed 3.7 km/h Distance 58.15 km</desc>
<time>2010-09-11T15:22:08.19</time>
<name>1750</name>
</trkpt>
<trkpt lat="49.892370" lon="9.589435">
<ele>293.0</ele>
<speed>3.7</speed>
<course>270.0</course>
<desc>Speed 3.7 km/h Distance 58.15 km</desc>
<time>2010-09-11T15:22:09.19</time>
<name>1751</name>
</trkpt>
<trkpt lat="49.892370" lon="9.589433">
<ele>293.0</ele>
<speed>3.7</speed>
<course>270.0</course>
<desc>Speed 3.7 km/h Distance 58.15 km</desc>
<time>2010-09-11T15:22:10.19</time>
<name>1752</name>
</trkpt>
<trkpt lat="49.892370" lon="9.589432">
<ele>293.0</ele>
<speed>3.7</speed>
<course>192.6</course>
<desc>Speed 3.7 km/h Distance 58.15 km</desc>
<time>2010-09-11T15:22:11.17</time>
<name>1753</name>
</trkpt>
<trkpt lat="49.892365" lon="9.589430">
<ele>293.0</ele>
<speed>3.7</speed>
<course>192.6</course>
<desc>Speed 3.7 km/h Distance 58.15 km</desc>
<time>2010-09-11T15:22:12.18</time>
<name>1754</name>
</trkpt>
<trkpt lat="49.892365" lon="9.589430">
<ele>293.0</ele>
<speed>3.7</speed>
<course>147.2</course>
<desc>Speed 3.7 km/h Distance 58.15 km</desc>
<time>2010-09-11T15:22:13.18</time>
<name>1755</name>
</trkpt>
<trkpt lat="49.892332" lon="9.589463">
<ele>293.0</ele>
<speed>3.5</speed>
<course>197.5</course>
<desc>Speed 3.5 km/h Distance 58.16 km</desc>
<time>2010-09-11T15:22:15.18</time>
<name>1756</name>
</trkpt>
<trkpt lat="49.892325" lon="9.589460">
<ele>293.0</ele>
<speed>3.5</speed>
<course>242.6</course>
<desc>Speed 3.5 km/h Distance 58.16 km</desc>
<time>2010-09-11T15:22:16.18</time>
<name>1757</name>
</trkpt>
<trkpt lat="49.892323" lon="9.589455">
<ele>293.0</ele>
<speed>3.5</speed>
<course>147.2</course>
<desc>Speed 3.5 km/h Distance 58.16 km</desc>
<time>2010-09-11T15:22:17.18</time>
<name>1758</name>
</trkpt>
<trkpt lat="49.892282" lon="9.589497">
<ele>292.5</ele>
<speed>8.1</speed>
<course>264.8</course>
<desc>Speed 8.1 km/h Distance 58.17 km</desc>
<time>2010-09-11T15:22:19.18</time>
<name>1759</name>
</trkpt>
<trkpt lat="49.892280" lon="9.589468">
<ele>292.5</ele>
<speed>8.1</speed>
<course>264.5</course>
<desc>Speed 8.1 km/h Distance 58.17 km</desc>
<time>2010-09-11T15:22:20.18</time>
<name>1760</name>
</trkpt>
<trkpt lat="49.892278" lon="9.589442">
<ele>292.0</ele>
<speed>8.1</speed>
<course>136.5</course>
<desc>Speed 8.1 km/h Distance 58.17 km</desc>
<time>2010-09-11T15:22:21.18</time>
<name>1761</name>
</trkpt>
<trkpt lat="49.892275" lon="9.589447">
<ele>292.5</ele>
<speed>1.5</speed>
<course>128.1</course>
<desc>Speed 1.5 km/h Distance 58.17 km</desc>
<time>2010-09-11T15:22:22.18</time>
<name>1762</name>
</trkpt>
<trkpt lat="49.892270" lon="9.589457">
<ele>292.5</ele>
<speed>1.5</speed>
<course>139.1</course>
<desc>Speed 1.5 km/h Distance 58.17 km</desc>
<time>2010-09-11T15:22:23.18</time>
<name>1763</name>
</trkpt>
<trkpt lat="49.892265" lon="9.589463">
<ele>292.5</ele>
<speed>1.5</speed>
<course>126.1</course>
<desc>Speed 1.5 km/h Distance 58.17 km</desc>
<time>2010-09-11T15:22:24.18</time>
<name>1764</name>
</trkpt>
<trkpt lat="49.892263" lon="9.589467">
<ele>292.5</ele>
<speed>1.5</speed>
<course>117.4</course>
<desc>Speed 1.5 km/h Distance 58.17 km</desc>
<time>2010-09-11T15:22:25.17</time>
<name>1765</name>
</trkpt>
<trkpt lat="49.892262" lon="9.589472">
<ele>292.5</ele>
<speed>1.5</speed>
<course>141.3</course>
<desc>Speed 1.5 km/h Distance 58.17 km</desc>
<time>2010-09-11T15:22:26.18</time>
<name>1766</name>
</trkpt>
<trkpt lat="49.892255" lon="9.589480">
<ele>292.5</ele>
<speed>1.5</speed>
<course>128.1</course>
<desc>Speed 1.5 km/h Distance 58.17 km</desc>
<time>2010-09-11T15:22:27.18</time>
<name>1767</name>
</trkpt>
<trkpt lat="49.892253" lon="9.589483">
<ele>292.0</ele>
<speed>1.5</speed>
<course>150.8</course>
<desc>Speed 1.5 km/h Distance 58.17 km</desc>
<time>2010-09-11T15:22:28.18</time>
<name>1768</name>
</trkpt>
<trkpt lat="49.892252" lon="9.589485">
<ele>292.0</ele>
<speed>1.5</speed>
<course>133.0</course>
<desc>Speed 1.5 km/h Distance 58.17 km</desc>
<time>2010-09-11T15:22:29.18</time>
<name>1769</name>
</trkpt>
<trkpt lat="49.892217" lon="9.589543">
<ele>292.0</ele>
<speed>4.8</speed>
<course>114.0</course>
<desc>Speed 4.8 km/h Distance 58.18 km</desc>
<time>2010-09-11T15:22:31.18</time>
<name>1770</name>
</trkpt>
<trkpt lat="49.892213" lon="9.589555">
<ele>292.0</ele>
<speed>4.8</speed>
<course>128.1</course>
<desc>Speed 4.8 km/h Distance 58.18 km</desc>
<time>2010-09-11T15:22:32.18</time>
<name>1771</name>
</trkpt>
<trkpt lat="49.892210" lon="9.589562">
<ele>292.0</ele>
<speed>4.8</speed>
<course>128.1</course>
<desc>Speed 4.8 km/h Distance 58.18 km</desc>
<time>2010-09-11T15:22:33.18</time>
<name>1772</name>
</trkpt>
<trkpt lat="49.892207" lon="9.589568">
<ele>292.0</ele>
<speed>4.8</speed>
<course>148.4</course>
<desc>Speed 4.8 km/h Distance 58.18 km</desc>
<time>2010-09-11T15:22:34.17</time>
<name>1773</name>
</trkpt>
<trkpt lat="49.892203" lon="9.589572">
<ele>292.0</ele>
<speed>4.8</speed>
<course>128.1</course>
<desc>Speed 4.8 km/h Distance 58.18 km</desc>
<time>2010-09-11T15:22:35.17</time>
<name>1774</name>
</trkpt>
<trkpt lat="49.892202" lon="9.589575">
<ele>292.0</ele>
<speed>4.8</speed>
<course>146.3</course>
<desc>Speed 4.8 km/h Distance 58.18 km</desc>
<time>2010-09-11T15:22:36.18</time>
<name>1775</name>
</trkpt>
<trkpt lat="49.892198" lon="9.589578">
<ele>292.0</ele>
<speed>4.8</speed>
<course>44.0</course>
<desc>Speed 4.8 km/h Distance 58.18 km</desc>
<time>2010-09-11T15:22:37.17</time>
<name>1776</name>
</trkpt>
<trkpt lat="49.892218" lon="9.589608">
<ele>292.0</ele>
<speed>4.8</speed>
<course>45.8</course>
<desc>Speed 4.8 km/h Distance 58.19 km</desc>
<time>2010-09-11T15:22:38.18</time>
<name>1777</name>
</trkpt>
<trkpt lat="49.892227" lon="9.589622">
<ele>292.0</ele>
<speed>4.8</speed>
<course>60.8</course>
<desc>Speed 4.8 km/h Distance 58.19 km</desc>
<time>2010-09-11T15:22:39.17</time>
<name>1778</name>
</trkpt>
<trkpt lat="49.892228" lon="9.589627">
<ele>292.0</ele>
<speed>4.8</speed>
<course>90.0</course>
<desc>Speed 4.8 km/h Distance 58.19 km</desc>
<time>2010-09-11T15:22:40.17</time>
<name>1779</name>
</trkpt>
<trkpt lat="49.892228" lon="9.589630">
<ele>292.0</ele>
<speed>4.8</speed>
<course>90.0</course>
<desc>Speed 4.8 km/h Distance 58.19 km</desc>
<time>2010-09-11T15:22:41.16</time>
<name>1780</name>
</trkpt>
<trkpt lat="49.892228" lon="9.589632">
<ele>292.0</ele>
<speed>4.8</speed>
<course>90.0</course>
<desc>Speed 4.8 km/h Distance 58.19 km</desc>
<time>2010-09-11T15:22:42.17</time>
<name>1781</name>
</trkpt>
<trkpt lat="49.892228" lon="9.589633">
<ele>292.0</ele>
<speed>4.8</speed>
<course>90.0</course>
<desc>Speed 4.8 km/h Distance 58.19 km</desc>
<time>2010-09-11T15:22:43.17</time>
<name>1782</name>
</trkpt>
<trkpt lat="49.892228" lon="9.589633">
<ele>292.0</ele>
<speed>4.8</speed>
<course>90.0</course>
<desc>Speed 4.8 km/h Distance 58.19 km</desc>
<time>2010-09-11T15:22:44.17</time>
<name>1783</name>
</trkpt>
<trkpt lat="49.892228" lon="9.589633">
<ele>292.0</ele>
<speed>4.8</speed>
<course>213.7</course>
<desc>Speed 4.8 km/h Distance 58.19 km</desc>
<time>2010-09-11T15:22:45.16</time>
<name>1784</name>
</trkpt>
<trkpt lat="49.892225" lon="9.589630">
<ele>292.0</ele>
<speed>4.8</speed>
<course>169.6</course>
<desc>Speed 4.8 km/h Distance 58.19 km</desc>
<time>2010-09-11T15:22:47.17</time>
<name>1785</name>
</trkpt>
<trkpt lat="49.892213" lon="9.589633">
<ele>292.0</ele>
<speed>4.8</speed>
<course>180.0</course>
<desc>Speed 4.8 km/h Distance 58.19 km</desc>
<time>2010-09-11T15:22:48.16</time>
<name>1786</name>
</trkpt>
<trkpt lat="49.892210" lon="9.589633">
<ele>292.0</ele>
<speed>4.8</speed>
<course>180.0</course>
<desc>Speed 4.8 km/h Distance 58.19 km</desc>
<time>2010-09-11T15:22:49.16</time>
<name>1787</name>
</trkpt>
<trkpt lat="49.892207" lon="9.589633">
<ele>292.0</ele>
<speed>4.8</speed>
<course>188.8</course>
<desc>Speed 4.8 km/h Distance 58.19 km</desc>
<time>2010-09-11T15:22:50.14</time>
<name>1788</name>
</trkpt>
<trkpt lat="49.892187" lon="9.589628">
<ele>292.0</ele>
<speed>4.8</speed>
<course>212.8</course>
<desc>Speed 4.8 km/h Distance 58.19 km</desc>
<time>2010-09-11T15:22:51.14</time>
<name>1789</name>
</trkpt>
<trkpt lat="49.892177" lon="9.589618">
<ele>292.0</ele>
<speed>4.8</speed>
<course>147.1</course>
<desc>Speed 4.8 km/h Distance 58.19 km</desc>
<time>2010-09-11T15:22:53.15</time>
<name>1790</name>
</trkpt>
<trkpt lat="49.892163" lon="9.589632">
<ele>292.0</ele>
<speed>4.8</speed>
<course>196.5</course>
<desc>Speed 4.8 km/h Distance 58.20 km</desc>
<time>2010-09-11T15:22:54.15</time>
<name>1791</name>
</trkpt>
<trkpt lat="49.892080" lon="9.589593">
<ele>292.0</ele>
<speed>4.8</speed>
<course>144.1</course>
<desc>Speed 4.8 km/h Distance 58.21 km</desc>
<time>2010-09-11T15:22:56.16</time>
<name>1792</name>
</trkpt>
<trkpt lat="49.892067" lon="9.589608">
<ele>292.0</ele>
<speed>4.8</speed>
<course>142.3</course>
<desc>Speed 4.8 km/h Distance 58.21 km</desc>
<time>2010-09-11T15:22:57.16</time>
<name>1793</name>
</trkpt>
<trkpt lat="49.892058" lon="9.589618">
<ele>292.0</ele>
<speed>4.8</speed>
<course>48.4</course>
<desc>Speed 4.8 km/h Distance 58.21 km</desc>
<time>2010-09-11T15:22:58.15</time>
<name>1794</name>
</trkpt>
<trkpt lat="49.892150" lon="9.589778">
<ele>292.0</ele>
<speed>4.8</speed>
<course>27.8</course>
<desc>Speed 4.8 km/h Distance 58.22 km</desc>
<time>2010-09-11T15:23:01.15</time>
<name>1795</name>
</trkpt>
<trkpt lat="49.892233" lon="9.589847">
<ele>292.0</ele>
<speed>4.8</speed>
<course>0.0</course>
<desc>Speed 4.8 km/h Distance 58.23 km</desc>
<time>2010-09-11T15:23:03.15</time>
<name>1796</name>
</trkpt>
<trkpt lat="49.892252" lon="9.589847">
<ele>292.0</ele>
<speed>4.8</speed>
<course>211.6</course>
<desc>Speed 4.8 km/h Distance 58.24 km</desc>
<time>2010-09-11T15:23:04.16</time>
<name>1797</name>
</trkpt>
<trkpt lat="49.892060" lon="9.589663">
<ele>292.0</ele>
<speed>4.8</speed>
<course>68.8</course>
<desc>Speed 4.8 km/h Distance 58.26 km</desc>
<time>2010-09-11T15:23:08.16</time>
<name>1798</name>
</trkpt>
<trkpt lat="49.892082" lon="9.589750">
<ele>292.0</ele>
<speed>1.0</speed>
<course>100.6</course>
<desc>Speed 1.0 km/h Distance 58.27 km</desc>
<time>2010-09-11T15:23:10.15</time>
<name>1799</name>
</trkpt>
<trkpt lat="49.892077" lon="9.589792">
<ele>292.0</ele>
<speed>2.3</speed>
<course>217.7</course>
<desc>Speed 2.3 km/h Distance 58.27 km</desc>
<time>2010-09-11T15:23:12.15</time>
<name>1800</name>
</trkpt>
<trkpt lat="49.892068" lon="9.589782">
<ele>292.0</ele>
<speed>2.3</speed>
<course>221.6</course>
<desc>Speed 2.3 km/h Distance 58.27 km</desc>
<time>2010-09-11T15:23:13.16</time>
<name>1801</name>
</trkpt>
<trkpt lat="49.892055" lon="9.589763">
<ele>292.0</ele>
<speed>2.3</speed>
<course>171.6</course>
<desc>Speed 2.3 km/h Distance 58.27 km</desc>
<time>2010-09-11T15:23:14.15</time>
<name>1802</name>
</trkpt>
<trkpt lat="49.892033" lon="9.589768">
<ele>292.0</ele>
<speed>2.3</speed>
<course>202.1</course>
<desc>Speed 2.3 km/h Distance 58.28 km</desc>
<time>2010-09-11T15:23:15.16</time>
<name>1803</name>
</trkpt>
<trkpt lat="49.892020" lon="9.589760">
<ele>292.0</ele>
<speed>2.3</speed>
<course>314.2</course>
<desc>Speed 2.3 km/h Distance 58.28 km</desc>
<time>2010-09-11T15:23:16.15</time>
<name>1804</name>
</trkpt>
<trkpt lat="49.892028" lon="9.589747">
<ele>292.0</ele>
<speed>2.3</speed>
<course>297.4</course>
<desc>Speed 2.3 km/h Distance 58.28 km</desc>
<time>2010-09-11T15:23:17.15</time>
<name>1805</name>
</trkpt>
<trkpt lat="49.892030" lon="9.589742">
<ele>292.0</ele>
<speed>2.3</speed>
<course>192.6</course>
<desc>Speed 2.3 km/h Distance 58.28 km</desc>
<time>2010-09-11T15:23:18.15</time>
<name>1806</name>
</trkpt>
<trkpt lat="49.892027" lon="9.589740">
<ele>292.0</ele>
<speed>6.0</speed>
<course>308.1</course>
<desc>Speed 6.0 km/h Distance 58.28 km</desc>
<time>2010-09-11T15:23:19.16</time>
<name>1807</name>
</trkpt>
<trkpt lat="49.892032" lon="9.589730">
<ele>292.0</ele>
<speed>6.0</speed>
<course>318.4</course>
<desc>Speed 6.0 km/h Distance 58.28 km</desc>
<time>2010-09-11T15:23:20.15</time>
<name>1808</name>
</trkpt>
<trkpt lat="49.892045" lon="9.589712">
<ele>292.0</ele>
<speed>6.0</speed>
<course>276.8</course>
<desc>Speed 6.0 km/h Distance 58.28 km</desc>
<time>2010-09-11T15:23:21.15</time>
<name>1809</name>
</trkpt>
<trkpt lat="49.892047" lon="9.589690">
<ele>292.0</ele>
<speed>6.0</speed>
<course>280.9</course>
<desc>Speed 6.0 km/h Distance 58.29 km</desc>
<time>2010-09-11T15:23:22.15</time>
<name>1810</name>
</trkpt>
<trkpt lat="49.892048" lon="9.589677">
<ele>292.0</ele>
<speed>6.0</speed>
<course>308.1</course>
<desc>Speed 6.0 km/h Distance 58.29 km</desc>
<time>2010-09-11T15:23:23.15</time>
<name>1811</name>
</trkpt>
<trkpt lat="49.892052" lon="9.589670">
<ele>292.0</ele>
<speed>6.0</speed>
<course>307.0</course>
<desc>Speed 6.0 km/h Distance 58.29 km</desc>
<time>2010-09-11T15:23:24.15</time>
<name>1812</name>
</trkpt>
<trkpt lat="49.892055" lon="9.589663">
<ele>292.0</ele>
<speed>6.0</speed>
<course>287.1</course>
<desc>Speed 6.0 km/h Distance 58.29 km</desc>
<time>2010-09-11T15:23:25.16</time>
<name>1813</name>
</trkpt>
<trkpt lat="49.892057" lon="9.589655">
<ele>292.0</ele>
<speed>6.0</speed>
<course>270.0</course>
<desc>Speed 6.0 km/h Distance 58.29 km</desc>
<time>2010-09-11T15:23:26.15</time>
<name>1814</name>
</trkpt>
<trkpt lat="49.892057" lon="9.589648">
<ele>292.0</ele>
<speed>6.0</speed>
<course>252.9</course>
<desc>Speed 6.0 km/h Distance 58.29 km</desc>
<time>2010-09-11T15:23:27.14</time>
<name>1815</name>
</trkpt>
<trkpt lat="49.892055" lon="9.589640">
<ele>292.0</ele>
<speed>6.0</speed>
<course>142.8</course>
<desc>Speed 6.0 km/h Distance 58.29 km</desc>
<time>2010-09-11T15:23:28.13</time>
<name>1816</name>
</trkpt>
<trkpt lat="49.892053" lon="9.589642">
<ele>292.0</ele>
<speed>6.0</speed>
<course>128.1</course>
<desc>Speed 6.0 km/h Distance 58.29 km</desc>
<time>2010-09-11T15:23:29.15</time>
<name>1817</name>
</trkpt>
<trkpt lat="49.892050" lon="9.589648">
<ele>292.0</ele>
<speed>6.0</speed>
<course>254.2</course>
<desc>Speed 6.0 km/h Distance 58.29 km</desc>
<time>2010-09-11T15:23:30.15</time>
<name>1818</name>
</trkpt>
<trkpt lat="49.891970" lon="9.589210">
<ele>292.0</ele>
<speed>6.0</speed>
<course>121.3</course>
<desc>Speed 6.0 km/h Distance 58.32 km</desc>
<time>2010-09-11T15:23:47.13</time>
<name>1819</name>
</trkpt>
<trkpt lat="49.891955" lon="9.589248">
<ele>291.5</ele>
<speed>6.0</speed>
<course>228.2</course>
<desc>Speed 6.0 km/h Distance 58.33 km</desc>
<time>2010-09-11T15:23:48.13</time>
<name>1820</name>
</trkpt>
<trkpt lat="49.891892" lon="9.589138">
<ele>291.0</ele>
<speed>2.4</speed>
<course>291.6</course>
<desc>Speed 2.4 km/h Distance 58.34 km</desc>
<time>2010-09-11T15:23:50.12</time>
<name>1821</name>
</trkpt>
<trkpt lat="49.891893" lon="9.589132">
<ele>291.0</ele>
<speed>2.4</speed>
<course>72.8</course>
<desc>Speed 2.4 km/h Distance 58.34 km</desc>
<time>2010-09-11T15:23:51.12</time>
<name>1822</name>
</trkpt>
<trkpt lat="49.891897" lon="9.589148">
<ele>290.5</ele>
<speed>2.4</speed>
<course>288.2</course>
<desc>Speed 2.4 km/h Distance 58.34 km</desc>
<time>2010-09-11T15:23:52.13</time>
<name>1823</name>
</trkpt>
<trkpt lat="49.891908" lon="9.589093">
<ele>289.5</ele>
<speed>4.6</speed>
<course>270.0</course>
<desc>Speed 4.6 km/h Distance 58.34 km</desc>
<time>2010-09-11T15:23:54.12</time>
<name>1824</name>
</trkpt>
<trkpt lat="49.891908" lon="9.589073">
<ele>289.5</ele>
<speed>3.8</speed>
<course>352.6</course>
<desc>Speed 3.8 km/h Distance 58.34 km</desc>
<time>2010-09-11T15:23:55.12</time>
<name>1825</name>
</trkpt>
<trkpt lat="49.891915" lon="9.589072">
<ele>289.5</ele>
<speed>1.4</speed>
<course>316.5</course>
<desc>Speed 1.4 km/h Distance 58.34 km</desc>
<time>2010-09-11T15:23:56.13</time>
<name>1826</name>
</trkpt>
<trkpt lat="49.891947" lon="9.589025">
<ele>288.0</ele>
<speed>2.6</speed>
<course>329.9</course>
<desc>Speed 2.6 km/h Distance 58.35 km</desc>
<time>2010-09-11T15:23:58.12</time>
<name>1827</name>
</trkpt>
<trkpt lat="49.891980" lon="9.588995">
<ele>286.0</ele>
<speed>3.3</speed>
<course>321.3</course>
<desc>Speed 3.3 km/h Distance 58.35 km</desc>
<time>2010-09-11T15:24:00.12</time>
<name>1828</name>
</trkpt>
<trkpt lat="49.891987" lon="9.588987">
<ele>285.5</ele>
<speed>3.3</speed>
<course>338.2</course>
<desc>Speed 3.3 km/h Distance 58.35 km</desc>
<time>2010-09-11T15:24:01.12</time>
<name>1829</name>
</trkpt>
<trkpt lat="49.892000" lon="9.588978">
<ele>284.5</ele>
<speed>3.2</speed>
<course>259.0</course>
<desc>Speed 3.2 km/h Distance 58.36 km</desc>
<time>2010-09-11T15:24:02.12</time>
<name>1830</name>
</trkpt>
<trkpt lat="49.891997" lon="9.588952">
<ele>284.5</ele>
<speed>5.8</speed>
<course>354.7</course>
<desc>Speed 5.8 km/h Distance 58.36 km</desc>
<time>2010-09-11T15:24:03.12</time>
<name>1831</name>
</trkpt>
<trkpt lat="49.892010" lon="9.588950">
<ele>284.0</ele>
<speed>2.3</speed>
<course>347.4</course>
<desc>Speed 2.3 km/h Distance 58.36 km</desc>
<time>2010-09-11T15:24:04.12</time>
<name>1832</name>
</trkpt>
<trkpt lat="49.892020" lon="9.588947">
<ele>284.0</ele>
<speed>2.3</speed>
<course>344.0</course>
<desc>Speed 2.3 km/h Distance 58.36 km</desc>
<time>2010-09-11T15:24:05.12</time>
<name>1833</name>
</trkpt>
<trkpt lat="49.892027" lon="9.588943">
<ele>283.5</ele>
<speed>2.3</speed>
<course>252.7</course>
<desc>Speed 2.3 km/h Distance 58.36 km</desc>
<time>2010-09-11T15:24:06.12</time>
<name>1834</name>
</trkpt>
<trkpt lat="49.892023" lon="9.588927">
<ele>283.5</ele>
<speed>2.3</speed>
<course>261.2</course>
<desc>Speed 2.3 km/h Distance 58.36 km</desc>
<time>2010-09-11T15:24:07.12</time>
<name>1835</name>
</trkpt>
<trkpt lat="49.892022" lon="9.588910">
<ele>283.5</ele>
<speed>3.5</speed>
<course>220.3</course>
<desc>Speed 3.5 km/h Distance 58.36 km</desc>
<time>2010-09-11T15:24:08.12</time>
<name>1836</name>
</trkpt>
<trkpt lat="49.891985" lon="9.588862">
<ele>283.0</ele>
<speed>2.7</speed>
<course>270.0</course>
<desc>Speed 2.7 km/h Distance 58.37 km</desc>
<time>2010-09-11T15:24:10.12</time>
<name>1837</name>
</trkpt>
<trkpt lat="49.891985" lon="9.588858">
<ele>283.0</ele>
<speed>2.7</speed>
<course>259.0</course>
<desc>Speed 2.7 km/h Distance 58.37 km</desc>
<time>2010-09-11T15:24:11.12</time>
<name>1838</name>
</trkpt>
<trkpt lat="49.891983" lon="9.588845">
<ele>283.0</ele>
<speed>4.6</speed>
<course>254.2</course>
<desc>Speed 4.6 km/h Distance 58.37 km</desc>
<time>2010-09-11T15:24:12.12</time>
<name>1839</name>
</trkpt>
<trkpt lat="49.891977" lon="9.588808">
<ele>283.0</ele>
<speed>7.0</speed>
<course>270.0</course>
<desc>Speed 7.0 km/h Distance 58.37 km</desc>
<time>2010-09-11T15:24:13.12</time>
<name>1840</name>
</trkpt>
<trkpt lat="49.891977" lon="9.588788">
<ele>283.0</ele>
<speed>3.5</speed>
<course>281.0</course>
<desc>Speed 3.5 km/h Distance 58.37 km</desc>
<time>2010-09-11T15:24:14.12</time>
<name>1841</name>
</trkpt>
<trkpt lat="49.891978" lon="9.588775">
<ele>283.0</ele>
<speed>2.4</speed>
<course>302.1</course>
<desc>Speed 2.4 km/h Distance 58.38 km</desc>
<time>2010-09-11T15:24:15.12</time>
<name>1842</name>
</trkpt>
<trkpt lat="49.891982" lon="9.588767">
<ele>282.5</ele>
<speed>2.4</speed>
<course>335.2</course>
<desc>Speed 2.4 km/h Distance 58.38 km</desc>
<time>2010-09-11T15:24:16.12</time>
<name>1843</name>
</trkpt>
<trkpt lat="49.891988" lon="9.588762">
<ele>282.5</ele>
<speed>2.2</speed>
<course>321.3</course>
<desc>Speed 2.2 km/h Distance 58.38 km</desc>
<time>2010-09-11T15:24:17.12</time>
<name>1844</name>
</trkpt>
<trkpt lat="49.891995" lon="9.588753">
<ele>282.0</ele>
<speed>2.2</speed>
<course>254.1</course>
<desc>Speed 2.2 km/h Distance 58.38 km</desc>
<time>2010-09-11T15:24:18.12</time>
<name>1845</name>
</trkpt>
<trkpt lat="49.891977" lon="9.588653">
<ele>282.0</ele>
<speed>2.3</speed>
<course>38.7</course>
<desc>Speed 2.3 km/h Distance 58.39 km</desc>
<time>2010-09-11T15:24:20.12</time>
<name>1846</name>
</trkpt>
<trkpt lat="49.891983" lon="9.588662">
<ele>282.0</ele>
<speed>2.3</speed>
<course>101.5</course>
<desc>Speed 2.3 km/h Distance 58.39 km</desc>
<time>2010-09-11T15:24:21.12</time>
<name>1847</name>
</trkpt>
<trkpt lat="49.891978" lon="9.588700">
<ele>282.0</ele>
<speed>9.4</speed>
<course>162.4</course>
<desc>Speed 9.4 km/h Distance 58.39 km</desc>
<time>2010-09-11T15:24:23.12</time>
<name>1848</name>
</trkpt>
<trkpt lat="49.891958" lon="9.588710">
<ele>281.5</ele>
<speed>9.4</speed>
<course>153.4</course>
<desc>Speed 9.4 km/h Distance 58.39 km</desc>
<time>2010-09-11T15:24:24.12</time>
<name>1849</name>
</trkpt>
<trkpt lat="49.891943" lon="9.588722">
<ele>282.0</ele>
<speed>9.4</speed>
<course>351.9</course>
<desc>Speed 9.4 km/h Distance 58.39 km</desc>
<time>2010-09-11T15:24:25.12</time>
<name>1850</name>
</trkpt>
<trkpt lat="49.891953" lon="9.588720">
<ele>281.5</ele>
<speed>3.9</speed>
<course>293.7</course>
<desc>Speed 3.9 km/h Distance 58.39 km</desc>
<time>2010-09-11T15:24:26.12</time>
<name>1851</name>
</trkpt>
<trkpt lat="49.891957" lon="9.588708">
<ele>281.0</ele>
<speed>3.9</speed>
<course>278.8</course>
<desc>Speed 3.9 km/h Distance 58.40 km</desc>
<time>2010-09-11T15:24:27.12</time>
<name>1852</name>
</trkpt>
<trkpt lat="49.891958" lon="9.588692">
<ele>281.5</ele>
<speed>3.9</speed>
<course>303.0</course>
<desc>Speed 3.9 km/h Distance 58.40 km</desc>
<time>2010-09-11T15:24:28.12</time>
<name>1853</name>
</trkpt>
<trkpt lat="49.891967" lon="9.588672">
<ele>282.0</ele>
<speed>3.7</speed>
<course>270.0</course>
<desc>Speed 3.7 km/h Distance 58.40 km</desc>
<time>2010-09-11T15:24:29.12</time>
<name>1854</name>
</trkpt>
<trkpt lat="49.891967" lon="9.588662">
<ele>282.0</ele>
<speed>3.7</speed>
<course>291.3</course>
<desc>Speed 3.7 km/h Distance 58.40 km</desc>
<time>2010-09-11T15:24:30.12</time>
<name>1855</name>
</trkpt>
<trkpt lat="49.891970" lon="9.588648">
<ele>281.5</ele>
<speed>3.7</speed>
<course>286.2</course>
<desc>Speed 3.7 km/h Distance 58.40 km</desc>
<time>2010-09-11T15:24:31.12</time>
<name>1856</name>
</trkpt>
<trkpt lat="49.891975" lon="9.588622">
<ele>279.5</ele>
<speed>3.7</speed>
<course>317.1</course>
<desc>Speed 3.7 km/h Distance 58.40 km</desc>
<time>2010-09-11T15:24:32.12</time>
<name>1857</name>
</trkpt>
<trkpt lat="49.891990" lon="9.588600">
<ele>277.5</ele>
<speed>7.5</speed>
<course>193.5</course>
<desc>Speed 7.5 km/h Distance 58.40 km</desc>
<time>2010-09-11T15:24:33.12</time>
<name>1858</name>
</trkpt>
<trkpt lat="49.891963" lon="9.588590">
<ele>274.5</ele>
<speed>3.2</speed>
<course>221.9</course>
<desc>Speed 3.2 km/h Distance 58.41 km</desc>
<time>2010-09-11T15:24:34.11</time>
<name>1859</name>
</trkpt>
<trkpt lat="49.891955" lon="9.588578">
<ele>273.5</ele>
<speed>3.2</speed>
<course>162.5</course>
<desc>Speed 3.2 km/h Distance 58.41 km</desc>
<time>2010-09-11T15:24:35.11</time>
<name>1860</name>
</trkpt>
<trkpt lat="49.891948" lon="9.588582">
<ele>273.5</ele>
<speed>3.2</speed>
<course>307.8</course>
<desc>Speed 3.2 km/h Distance 58.41 km</desc>
<time>2010-09-11T15:24:36.11</time>
<name>1861</name>
</trkpt>
<trkpt lat="49.891957" lon="9.588565">
<ele>272.0</ele>
<speed>3.2</speed>
<course>22.2</course>
<desc>Speed 3.2 km/h Distance 58.41 km</desc>
<time>2010-09-11T15:24:37.11</time>
<name>1862</name>
</trkpt>
<trkpt lat="49.891962" lon="9.588568">
<ele>272.0</ele>
<speed>2.3</speed>
<course>312.2</course>
<desc>Speed 2.3 km/h Distance 58.41 km</desc>
<time>2010-09-11T15:24:38.11</time>
<name>1863</name>
</trkpt>
<trkpt lat="49.891973" lon="9.588548">
<ele>271.0</ele>
<speed>2.3</speed>
<course>304.2</course>
<desc>Speed 2.3 km/h Distance 58.41 km</desc>
<time>2010-09-11T15:24:39.11</time>
<name>1864</name>
</trkpt>
<trkpt lat="49.891985" lon="9.588522">
<ele>269.0</ele>
<speed>2.3</speed>
<course>259.0</course>
<desc>Speed 2.3 km/h Distance 58.42 km</desc>
<time>2010-09-11T15:24:40.11</time>
<name>1865</name>
</trkpt>
<trkpt lat="49.891983" lon="9.588508">
<ele>268.5</ele>
<speed>2.2</speed>
<course>308.1</course>
<desc>Speed 2.2 km/h Distance 58.42 km</desc>
<time>2010-09-11T15:24:41.11</time>
<name>1866</name>
</trkpt>
<trkpt lat="49.891988" lon="9.588498">
<ele>268.0</ele>
<speed>3.9</speed>
<course>147.2</course>
<desc>Speed 3.9 km/h Distance 58.42 km</desc>
<time>2010-09-11T15:24:42.11</time>
<name>1867</name>
</trkpt>
<trkpt lat="49.891978" lon="9.588508">
<ele>267.5</ele>
<speed>4.6</speed>
<course>175.0</course>
<desc>Speed 4.6 km/h Distance 58.42 km</desc>
<time>2010-09-11T15:24:43.11</time>
<name>1868</name>
</trkpt>
<trkpt lat="49.891970" lon="9.588510">
<ele>267.0</ele>
<speed>3.0</speed>
<course>217.2</course>
<desc>Speed 3.0 km/h Distance 58.42 km</desc>
<time>2010-09-11T15:24:44.10</time>
<name>1869</name>
</trkpt>
<trkpt lat="49.891968" lon="9.588508">
<ele>267.0</ele>
<speed>2.2</speed>
<course>173.4</course>
<desc>Speed 2.2 km/h Distance 58.42 km</desc>
<time>2010-09-11T15:24:45.11</time>
<name>1870</name>
</trkpt>
<trkpt lat="49.891948" lon="9.588512">
<ele>270.0</ele>
<speed>5.4</speed>
<course>159.4</course>
<desc>Speed 5.4 km/h Distance 58.42 km</desc>
<time>2010-09-11T15:24:46.10</time>
<name>1871</name>
</trkpt>
<trkpt lat="49.891937" lon="9.588518">
<ele>271.0</ele>
<speed>5.4</speed>
<course>342.9</course>
<desc>Speed 5.4 km/h Distance 58.42 km</desc>
<time>2010-09-11T15:24:47.10</time>
<name>1872</name>
</trkpt>
<trkpt lat="49.892007" lon="9.588485">
<ele>273.0</ele>
<speed>8.2</speed>
<course>141.3</course>
<desc>Speed 8.2 km/h Distance 58.43 km</desc>
<time>2010-09-11T15:24:49.10</time>
<name>1873</name>
</trkpt>
<trkpt lat="49.892000" lon="9.588493">
<ele>273.5</ele>
<speed>0.3</speed>
<course>150.8</course>
<desc>Speed 0.3 km/h Distance 58.43 km</desc>
<time>2010-09-11T15:24:51.11</time>
<name>1874</name>
</trkpt>
<trkpt lat="49.891998" lon="9.588495">
<ele>274.0</ele>
<speed>0.2</speed>
<course>294.0</course>
<desc>Speed 0.2 km/h Distance 58.43 km</desc>
<time>2010-09-11T15:24:52.11</time>
<name>1875</name>
</trkpt>
<trkpt lat="49.892002" lon="9.588483">
<ele>274.5</ele>
<speed>0.9</speed>
<course>311.7</course>
<desc>Speed 0.9 km/h Distance 58.43 km</desc>
<time>2010-09-11T15:24:53.10</time>
<name>1876</name>
</trkpt>
<trkpt lat="49.892008" lon="9.588472">
<ele>275.5</ele>
<speed>1.0</speed>
<course>303.6</course>
<desc>Speed 1.0 km/h Distance 58.44 km</desc>
<time>2010-09-11T15:24:54.10</time>
<name>1877</name>
</trkpt>
<trkpt lat="49.892013" lon="9.588460">
<ele>276.5</ele>
<speed>1.0</speed>
<course>137.9</course>
<desc>Speed 1.0 km/h Distance 58.44 km</desc>
<time>2010-09-11T15:24:55.10</time>
<name>1878</name>
</trkpt>
<trkpt lat="49.892005" lon="9.588472">
<ele>276.5</ele>
<speed>1.9</speed>
<course>114.0</course>
<desc>Speed 1.9 km/h Distance 58.44 km</desc>
<time>2010-09-11T15:24:56.10</time>
<name>1879</name>
</trkpt>
<trkpt lat="49.892002" lon="9.588483">
<ele>277.0</ele>
<speed>0.3</speed>
<course>114.0</course>
<desc>Speed 0.3 km/h Distance 58.44 km</desc>
<time>2010-09-11T15:24:57.10</time>
<name>1880</name>
</trkpt>
<trkpt lat="49.891998" lon="9.588495">
<ele>277.0</ele>
<speed>0.6</speed>
<course>110.9</course>
<desc>Speed 0.6 km/h Distance 58.44 km</desc>
<time>2010-09-11T15:24:58.10</time>
<name>1881</name>
</trkpt>
<trkpt lat="49.891997" lon="9.588502">
<ele>277.5</ele>
<speed>0.3</speed>
<course>150.8</course>
<desc>Speed 0.3 km/h Distance 58.44 km</desc>
<time>2010-09-11T15:24:59.10</time>
<name>1882</name>
</trkpt>
<trkpt lat="49.891995" lon="9.588503">
<ele>277.5</ele>
<speed>0.6</speed>
<course>90.0</course>
<desc>Speed 0.6 km/h Distance 58.44 km</desc>
<time>2010-09-11T15:25:00.10</time>
<name>1883</name>
</trkpt>
<trkpt lat="49.891995" lon="9.588505">
<ele>277.5</ele>
<speed>0.4</speed>
<course>90.0</course>
<desc>Speed 0.4 km/h Distance 58.44 km</desc>
<time>2010-09-11T15:25:01.10</time>
<name>1884</name>
</trkpt>
<trkpt lat="49.891995" lon="9.588505">
<ele>277.5</ele>
<speed>0.1</speed>
<course>12.6</course>
<desc>Speed 0.1 km/h Distance 58.44 km</desc>
<time>2010-09-11T15:25:02.10</time>
<name>1885</name>
</trkpt>
<trkpt lat="49.891997" lon="9.588505">
<ele>277.5</ele>
<speed>0.6</speed>
<course>146.3</course>
<desc>Speed 0.6 km/h Distance 58.44 km</desc>
<time>2010-09-11T15:25:03.10</time>
<name>1886</name>
</trkpt>
<trkpt lat="49.891993" lon="9.588508">
<ele>278.0</ele>
<speed>0.4</speed>
<course>90.0</course>
<desc>Speed 0.4 km/h Distance 58.44 km</desc>
<time>2010-09-11T15:25:04.10</time>
<name>1887</name>
</trkpt>
<trkpt lat="49.891993" lon="9.588512">
<ele>278.0</ele>
<speed>0.6</speed>
<course>307.6</course>
<desc>Speed 0.6 km/h Distance 58.44 km</desc>
<time>2010-09-11T15:25:05.09</time>
<name>1888</name>
</trkpt>
<trkpt lat="49.891997" lon="9.588505">
<ele>278.0</ele>
<speed>1.7</speed>
<course>167.4</course>
<desc>Speed 1.7 km/h Distance 58.44 km</desc>
<time>2010-09-11T15:25:06.09</time>
<name>1889</name>
</trkpt>
<trkpt lat="49.891995" lon="9.588505">
<ele>278.5</ele>
<speed>0.7</speed>
<course>167.4</course>
<desc>Speed 0.7 km/h Distance 58.44 km</desc>
<time>2010-09-11T15:25:07.09</time>
<name>1890</name>
</trkpt>
<trkpt lat="49.891995" lon="9.588505">
<ele>278.0</ele>
<speed>0.7</speed>
<course>188.1</course>
<desc>Speed 0.7 km/h Distance 58.44 km</desc>
<time>2010-09-11T15:25:08.10</time>
<name>1891</name>
</trkpt>
<trkpt lat="49.891990" lon="9.588503">
<ele>278.0</ele>
<speed>2.8</speed>
<course>354.7</course>
<desc>Speed 2.8 km/h Distance 58.44 km</desc>
<time>2010-09-11T15:25:09.09</time>
<name>1892</name>
</trkpt>
<trkpt lat="49.892003" lon="9.588502">
<ele>278.0</ele>
<speed>3.3</speed>
<course>353.4</course>
<desc>Speed 3.3 km/h Distance 58.44 km</desc>
<time>2010-09-11T15:25:10.10</time>
<name>1893</name>
</trkpt>
<trkpt lat="49.892013" lon="9.588500">
<ele>278.0</ele>
<speed>3.3</speed>
<course>349.4</course>
<desc>Speed 3.3 km/h Distance 58.45 km</desc>
<time>2010-09-11T15:25:11.09</time>
<name>1894</name>
</trkpt>
<trkpt lat="49.892023" lon="9.588497">
<ele>277.5</ele>
<speed>3.3</speed>
<course>343.4</course>
<desc>Speed 3.3 km/h Distance 58.45 km</desc>
<time>2010-09-11T15:25:12.09</time>
<name>1895</name>
</trkpt>
<trkpt lat="49.892042" lon="9.588488">
<ele>277.5</ele>
<speed>3.3</speed>
<course>5.3</course>
<desc>Speed 3.3 km/h Distance 58.45 km</desc>
<time>2010-09-11T15:25:13.09</time>
<name>1896</name>
</trkpt>
<trkpt lat="49.892055" lon="9.588490">
<ele>277.5</ele>
<speed>3.5</speed>
<course>319.1</course>
<desc>Speed 3.5 km/h Distance 58.45 km</desc>
<time>2010-09-11T15:25:14.09</time>
<name>1897</name>
</trkpt>
<trkpt lat="49.892060" lon="9.588483">
<ele>277.5</ele>
<speed>3.5</speed>
<course>292.5</course>
<desc>Speed 3.5 km/h Distance 58.45 km</desc>
<time>2010-09-11T15:25:15.10</time>
<name>1898</name>
</trkpt>
<trkpt lat="49.892067" lon="9.588458">
<ele>277.0</ele>
<speed>3.5</speed>
<course>278.0</course>
<desc>Speed 3.5 km/h Distance 58.45 km</desc>
<time>2010-09-11T15:25:16.09</time>
<name>1899</name>
</trkpt>
<trkpt lat="49.892068" lon="9.588440">
<ele>277.0</ele>
<speed>3.5</speed>
<course>348.3</course>
<desc>Speed 3.5 km/h Distance 58.45 km</desc>
<time>2010-09-11T15:25:17.09</time>
<name>1900</name>
</trkpt>
<trkpt lat="49.892083" lon="9.588435">
<ele>276.5</ele>
<speed>2.3</speed>
<course>142.8</course>
<desc>Speed 2.3 km/h Distance 58.46 km</desc>
<time>2010-09-11T15:25:19.10</time>
<name>1901</name>
</trkpt>
<trkpt lat="49.892082" lon="9.588437">
<ele>276.5</ele>
<speed>1.4</speed>
<course>146.3</course>
<desc>Speed 1.4 km/h Distance 58.46 km</desc>
<time>2010-09-11T15:25:20.09</time>
<name>1902</name>
</trkpt>
<trkpt lat="49.892078" lon="9.588440">
<ele>276.5</ele>
<speed>1.1</speed>
<course>198.8</course>
<desc>Speed 1.1 km/h Distance 58.46 km</desc>
<time>2010-09-11T15:25:21.09</time>
<name>1903</name>
</trkpt>
<trkpt lat="49.892075" lon="9.588438">
<ele>276.0</ele>
<speed>0.8</speed>
<course>224.0</course>
<desc>Speed 0.8 km/h Distance 58.46 km</desc>
<time>2010-09-11T15:25:22.09</time>
<name>1904</name>
</trkpt>
<trkpt lat="49.892068" lon="9.588428">
<ele>276.0</ele>
<speed>0.2</speed>
<course>198.8</course>
<desc>Speed 0.2 km/h Distance 58.46 km</desc>
<time>2010-09-11T15:25:23.09</time>
<name>1905</name>
</trkpt>
<trkpt lat="49.892062" lon="9.588425">
<ele>276.0</ele>
<speed>1.1</speed>
<course>236.4</course>
<desc>Speed 1.1 km/h Distance 58.46 km</desc>
<time>2010-09-11T15:25:24.09</time>
<name>1906</name>
</trkpt>
<trkpt lat="49.892057" lon="9.588413">
<ele>276.0</ele>
<speed>0.6</speed>
<course>209.0</course>
<desc>Speed 0.6 km/h Distance 58.46 km</desc>
<time>2010-09-11T15:25:25.09</time>
<name>1907</name>
</trkpt>
<trkpt lat="49.892045" lon="9.588403">
<ele>276.0</ele>
<speed>5.4</speed>
<course>90.0</course>
<desc>Speed 5.4 km/h Distance 58.46 km</desc>
<time>2010-09-11T15:25:26.08</time>
<name>1908</name>
</trkpt>
<trkpt lat="49.892045" lon="9.588410">
<ele>276.0</ele>
<speed>2.4</speed>
<course>222.6</course>
<desc>Speed 2.4 km/h Distance 58.46 km</desc>
<time>2010-09-11T15:25:27.08</time>
<name>1909</name>
</trkpt>
<trkpt lat="49.892033" lon="9.588393">
<ele>276.0</ele>
<speed>0.9</speed>
<course>209.2</course>
<desc>Speed 0.9 km/h Distance 58.46 km</desc>
<time>2010-09-11T15:25:28.08</time>
<name>1910</name>
</trkpt>
<trkpt lat="49.892032" lon="9.588392">
<ele>276.0</ele>
<speed>0.6</speed>
<course>90.0</course>
<desc>Speed 0.6 km/h Distance 58.46 km</desc>
<time>2010-09-11T15:25:29.08</time>
<name>1911</name>
</trkpt>
<trkpt lat="49.892032" lon="9.588395">
<ele>276.0</ele>
<speed>1.7</speed>
<course>79.0</course>
<desc>Speed 1.7 km/h Distance 58.46 km</desc>
<time>2010-09-11T15:25:30.08</time>
<name>1912</name>
</trkpt>
<trkpt lat="49.892033" lon="9.588408">
<ele>275.5</ele>
<speed>0.3</speed>
<course>215.9</course>
<desc>Speed 0.3 km/h Distance 58.46 km</desc>
<time>2010-09-11T15:25:32.08</time>
<name>1913</name>
</trkpt>
<trkpt lat="49.892020" lon="9.588393">
<ele>275.5</ele>
<speed>0.3</speed>
<course>200.8</course>
<desc>Speed 0.3 km/h Distance 58.47 km</desc>
<time>2010-09-11T15:25:33.08</time>
<name>1914</name>
</trkpt>
<trkpt lat="49.892012" lon="9.588388">
<ele>275.5</ele>
<speed>0.0</speed>
<course>192.6</course>
<desc>Speed 0.0 km/h Distance 58.47 km</desc>
<time>2010-09-11T15:25:34.08</time>
<name>1915</name>
</trkpt>
<trkpt lat="49.892007" lon="9.588387">
<ele>275.5</ele>
<speed>0.5</speed>
<course>213.7</course>
<desc>Speed 0.5 km/h Distance 58.47 km</desc>
<time>2010-09-11T15:25:35.08</time>
<name>1916</name>
</trkpt>
<trkpt lat="49.892003" lon="9.588383">
<ele>275.5</ele>
<speed>0.5</speed>
<course>222.5</course>
<desc>Speed 0.5 km/h Distance 58.47 km</desc>
<time>2010-09-11T15:25:36.08</time>
<name>1917</name>
</trkpt>
<trkpt lat="49.891992" lon="9.588367">
<ele>275.0</ele>
<speed>5.1</speed>
<course>217.7</course>
<desc>Speed 5.1 km/h Distance 58.47 km</desc>
<time>2010-09-11T15:25:37.08</time>
<name>1918</name>
</trkpt>
<trkpt lat="49.891983" lon="9.588357">
<ele>275.0</ele>
<speed>5.1</speed>
<course>167.4</course>
<desc>Speed 5.1 km/h Distance 58.47 km</desc>
<time>2010-09-11T15:25:38.08</time>
<name>1919</name>
</trkpt>
<trkpt lat="49.891982" lon="9.588358">
<ele>274.5</ele>
<speed>0.3</speed>
<course>246.0</course>
<desc>Speed 0.3 km/h Distance 58.47 km</desc>
<time>2010-09-11T15:25:39.08</time>
<name>1920</name>
</trkpt>
<trkpt lat="49.891978" lon="9.588347">
<ele>275.0</ele>
<speed>1.4</speed>
<course>49.4</course>
<desc>Speed 1.4 km/h Distance 58.47 km</desc>
<time>2010-09-11T15:25:40.08</time>
<name>1921</name>
</trkpt>
<trkpt lat="49.891980" lon="9.588350">
<ele>275.0</ele>
<speed>0.3</speed>
<course>62.6</course>
<desc>Speed 0.3 km/h Distance 58.47 km</desc>
<time>2010-09-11T15:25:41.08</time>
<name>1922</name>
</trkpt>
<trkpt lat="49.891982" lon="9.588355">
<ele>274.5</ele>
<speed>0.8</speed>
<course>90.0</course>
<desc>Speed 0.8 km/h Distance 58.47 km</desc>
<time>2010-09-11T15:25:42.08</time>
<name>1923</name>
</trkpt>
<trkpt lat="49.891982" lon="9.588367">
<ele>274.5</ele>
<speed>1.5</speed>
<course>270.0</course>
<desc>Speed 1.5 km/h Distance 58.47 km</desc>
<time>2010-09-11T15:25:43.08</time>
<name>1924</name>
</trkpt>
<trkpt lat="49.891982" lon="9.588355">
<ele>274.5</ele>
<speed>1.6</speed>
<course>270.0</course>
<desc>Speed 1.6 km/h Distance 58.48 km</desc>
<time>2010-09-11T15:25:44.08</time>
<name>1925</name>
</trkpt>
<trkpt lat="49.891982" lon="9.588355">
<ele>274.5</ele>
<speed>1.0</speed>
<course>49.4</course>
<desc>Speed 1.0 km/h Distance 58.48 km</desc>
<time>2010-09-11T15:25:45.08</time>
<name>1926</name>
</trkpt>
<trkpt lat="49.891983" lon="9.588358">
<ele>274.5</ele>
<speed>1.2</speed>
<course>52.1</course>
<desc>Speed 1.2 km/h Distance 58.48 km</desc>
<time>2010-09-11T15:25:46.08</time>
<name>1927</name>
</trkpt>
<trkpt lat="49.891992" lon="9.588375">
<ele>274.0</ele>
<speed>0.6</speed>
<course>51.9</course>
<desc>Speed 0.6 km/h Distance 58.48 km</desc>
<time>2010-09-11T15:25:47.08</time>
<name>1928</name>
</trkpt>
<trkpt lat="49.891993" lon="9.588378">
<ele>274.0</ele>
<speed>1.0</speed>
<course>62.6</course>
<desc>Speed 1.0 km/h Distance 58.48 km</desc>
<time>2010-09-11T15:25:48.08</time>
<name>1929</name>
</trkpt>
<trkpt lat="49.891995" lon="9.588383">
<ele>274.0</ele>
<speed>0.8</speed>
<course>51.9</course>
<desc>Speed 0.8 km/h Distance 58.48 km</desc>
<time>2010-09-11T15:25:49.08</time>
<name>1930</name>
</trkpt>
<trkpt lat="49.892000" lon="9.588393">
<ele>274.0</ele>
<speed>0.8</speed>
<course>45.8</course>
<desc>Speed 0.8 km/h Distance 58.48 km</desc>
<time>2010-09-11T15:25:50.08</time>
<name>1931</name>
</trkpt>
<trkpt lat="49.892008" lon="9.588407">
<ele>274.0</ele>
<speed>0.8</speed>
<course>342.5</course>
<desc>Speed 0.8 km/h Distance 58.48 km</desc>
<time>2010-09-11T15:25:51.07</time>
<name>1932</name>
</trkpt>
<trkpt lat="49.892015" lon="9.588403">
<ele>274.5</ele>
<speed>2.3</speed>
<course>327.4</course>
<desc>Speed 2.3 km/h Distance 58.48 km</desc>
<time>2010-09-11T15:25:52.08</time>
<name>1933</name>
</trkpt>
<trkpt lat="49.892022" lon="9.588397">
<ele>274.5</ele>
<speed>3.1</speed>
<course>213.7</course>
<desc>Speed 3.1 km/h Distance 58.48 km</desc>
<time>2010-09-11T15:25:53.08</time>
<name>1934</name>
</trkpt>
<trkpt lat="49.892018" lon="9.588393">
<ele>274.0</ele>
<speed>1.5</speed>
<course>312.9</course>
<desc>Speed 1.5 km/h Distance 58.48 km</desc>
<time>2010-09-11T15:25:54.08</time>
<name>1935</name>
</trkpt>
<trkpt lat="49.892023" lon="9.588385">
<ele>274.5</ele>
<speed>0.4</speed>
<course>225.3</course>
<desc>Speed 0.4 km/h Distance 58.48 km</desc>
<time>2010-09-11T15:25:55.07</time>
<name>1936</name>
</trkpt>
<trkpt lat="49.892012" lon="9.588367">
<ele>274.5</ele>
<speed>2.1</speed>
<course>348.3</course>
<desc>Speed 2.1 km/h Distance 58.48 km</desc>
<time>2010-09-11T15:25:57.08</time>
<name>1937</name>
</trkpt>
<trkpt lat="49.892027" lon="9.588362">
<ele>274.5</ele>
<speed>2.1</speed>
<course>331.4</course>
<desc>Speed 2.1 km/h Distance 58.49 km</desc>
<time>2010-09-11T15:25:59.07</time>
<name>1938</name>
</trkpt>
<trkpt lat="49.892037" lon="9.588353">
<ele>274.5</ele>
<speed>2.1</speed>
<course>326.3</course>
<desc>Speed 2.1 km/h Distance 58.49 km</desc>
<time>2010-09-11T15:26:01.08</time>
<name>1939</name>
</trkpt>
<trkpt lat="49.892040" lon="9.588350">
<ele>274.5</ele>
<speed>2.1</speed>
<course>327.4</course>
<desc>Speed 2.1 km/h Distance 58.49 km</desc>
<time>2010-09-11T15:26:03.07</time>
<name>1940</name>
</trkpt>
<trkpt lat="49.892047" lon="9.588343">
<ele>275.0</ele>
<speed>2.1</speed>
<course>117.4</course>
<desc>Speed 2.1 km/h Distance 58.49 km</desc>
<time>2010-09-11T15:26:05.07</time>
<name>1941</name>
</trkpt>
<trkpt lat="49.892045" lon="9.588348">
<ele>275.5</ele>
<speed>2.1</speed>
<course>220.9</course>
<desc>Speed 2.1 km/h Distance 58.49 km</desc>
<time>2010-09-11T15:26:07.08</time>
<name>1942</name>
</trkpt>
<trkpt lat="49.892040" lon="9.588342">
<ele>276.0</ele>
<speed>2.1</speed>
<course>147.5</course>
<desc>Speed 2.1 km/h Distance 58.49 km</desc>
<time>2010-09-11T15:26:09.07</time>
<name>1943</name>
</trkpt>
<trkpt lat="49.892032" lon="9.588350">
<ele>276.0</ele>
<speed>1.9</speed>
<course>12.2</course>
<desc>Speed 1.9 km/h Distance 58.49 km</desc>
<time>2010-09-11T15:26:11.07</time>
<name>1944</name>
</trkpt>
<trkpt lat="49.892047" lon="9.588355">
<ele>276.5</ele>
<speed>1.3</speed>
<course>354.4</course>
<desc>Speed 1.3 km/h Distance 58.49 km</desc>
<time>2010-09-11T15:26:13.07</time>
<name>1945</name>
</trkpt>
<trkpt lat="49.892067" lon="9.588352">
<ele>276.5</ele>
<speed>3.9</speed>
<course>127.8</course>
<desc>Speed 3.9 km/h Distance 58.50 km</desc>
<time>2010-09-11T15:26:15.07</time>
<name>1946</name>
</trkpt>
<trkpt lat="49.892057" lon="9.588372">
<ele>276.5</ele>
<speed>3.9</speed>
<course>270.0</course>
<desc>Speed 3.9 km/h Distance 58.50 km</desc>
<time>2010-09-11T15:26:17.07</time>
<name>1947</name>
</trkpt>
<trkpt lat="49.892057" lon="9.588355">
<ele>276.5</ele>
<speed>2.7</speed>
<course>140.1</course>
<desc>Speed 2.7 km/h Distance 58.50 km</desc>
<time>2010-09-11T15:26:19.06</time>
<name>1948</name>
</trkpt>
<trkpt lat="49.892040" lon="9.588377">
<ele>276.5</ele>
<speed>2.7</speed>
<course>156.6</course>
<desc>Speed 2.7 km/h Distance 58.50 km</desc>
<time>2010-09-11T15:26:21.07</time>
<name>1949</name>
</trkpt>
<trkpt lat="49.892030" lon="9.588383">
<ele>276.0</ele>
<speed>2.7</speed>
<course>106.2</course>
<desc>Speed 2.7 km/h Distance 58.50 km</desc>
<time>2010-09-11T15:26:23.07</time>
<name>1950</name>
</trkpt>
<trkpt lat="49.892025" lon="9.588410">
<ele>275.5</ele>
<speed>1.2</speed>
<course>96.3</course>
<desc>Speed 1.2 km/h Distance 58.50 km</desc>
<time>2010-09-11T15:26:25.06</time>
<name>1951</name>
</trkpt>
<trkpt lat="49.892023" lon="9.588433">
<ele>274.5</ele>
<speed>1.2</speed>
<course>347.4</course>
<desc>Speed 1.2 km/h Distance 58.51 km</desc>
<time>2010-09-11T15:26:27.06</time>
<name>1952</name>
</trkpt>
<trkpt lat="49.892027" lon="9.588432">
<ele>274.0</ele>
<speed>1.2</speed>
<course>192.6</course>
<desc>Speed 1.2 km/h Distance 58.51 km</desc>
<time>2010-09-11T15:26:29.06</time>
<name>1953</name>
</trkpt>
<trkpt lat="49.892023" lon="9.588430">
<ele>273.5</ele>
<speed>1.4</speed>
<course>175.0</course>
<desc>Speed 1.4 km/h Distance 58.51 km</desc>
<time>2010-09-11T15:26:31.06</time>
<name>1954</name>
</trkpt>
<trkpt lat="49.892015" lon="9.588430">
<ele>273.0</ele>
<speed>1.4</speed>
<course>261.7</course>
<desc>Speed 1.4 km/h Distance 58.51 km</desc>
<time>2010-09-11T15:26:33.06</time>
<name>1955</name>
</trkpt>
<trkpt lat="49.892010" lon="9.588377">
<ele>275.0</ele>
<speed>1.9</speed>
<course>278.0</course>
<desc>Speed 1.9 km/h Distance 58.51 km</desc>
<time>2010-09-11T15:26:35.06</time>
<name>1956</name>
</trkpt>
<trkpt lat="49.892012" lon="9.588358">
<ele>275.5</ele>
<speed>1.9</speed>
<course>347.4</course>
<desc>Speed 1.9 km/h Distance 58.51 km</desc>
<time>2010-09-11T15:26:37.06</time>
<name>1957</name>
</trkpt>
<trkpt lat="49.892017" lon="9.588357">
<ele>275.5</ele>
<speed>1.9</speed>
<course>212.3</course>
<desc>Speed 1.9 km/h Distance 58.51 km</desc>
<time>2010-09-11T15:26:39.06</time>
<name>1958</name>
</trkpt>
<trkpt lat="49.892012" lon="9.588352">
<ele>276.5</ele>
<speed>0.5</speed>
<course>147.3</course>
<desc>Speed 0.5 km/h Distance 58.51 km</desc>
<time>2010-09-11T15:26:41.05</time>
<name>1959</name>
</trkpt>
<trkpt lat="49.891995" lon="9.588368">
<ele>275.5</ele>
<speed>2.8</speed>
<course>212.8</course>
<desc>Speed 2.8 km/h Distance 58.52 km</desc>
<time>2010-09-11T15:26:43.05</time>
<name>1960</name>
</trkpt>
<trkpt lat="49.891983" lon="9.588357">
<ele>275.0</ele>
<speed>0.1</speed>
<course>99.8</course>
<desc>Speed 0.1 km/h Distance 58.52 km</desc>
<time>2010-09-11T15:26:45.05</time>
<name>1961</name>
</trkpt>
<trkpt lat="49.891982" lon="9.588372">
<ele>274.0</ele>
<speed>0.1</speed>
<course>237.6</course>
<desc>Speed 0.1 km/h Distance 58.52 km</desc>
<time>2010-09-11T15:26:47.04</time>
<name>1962</name>
</trkpt>
<trkpt lat="49.891967" lon="9.588335">
<ele>275.0</ele>
<speed>0.5</speed>
<course>333.0</course>
<desc>Speed 0.5 km/h Distance 58.52 km</desc>
<time>2010-09-11T15:26:49.05</time>
<name>1963</name>
</trkpt>
<trkpt lat="49.891975" lon="9.588328">
<ele>275.0</ele>
<speed>2.8</speed>
<course>216.4</course>
<desc>Speed 2.8 km/h Distance 58.52 km</desc>
<time>2010-09-11T15:26:51.05</time>
<name>1964</name>
</trkpt>
<trkpt lat="49.891963" lon="9.588315">
<ele>274.5</ele>
<speed>2.4</speed>
<course>90.0</course>
<desc>Speed 2.4 km/h Distance 58.52 km</desc>
<time>2010-09-11T15:26:53.05</time>
<name>1965</name>
</trkpt>
<trkpt lat="49.891963" lon="9.588328">
<ele>274.5</ele>
<speed>2.4</speed>
<course>310.8</course>
<desc>Speed 2.4 km/h Distance 58.53 km</desc>
<time>2010-09-11T15:26:55.05</time>
<name>1966</name>
</trkpt>
<trkpt lat="49.891980" lon="9.588298">
<ele>275.0</ele>
<speed>2.4</speed>
<course>221.5</course>
<desc>Speed 2.4 km/h Distance 58.53 km</desc>
<time>2010-09-11T15:26:57.04</time>
<name>1967</name>
</trkpt>
<trkpt lat="49.891953" lon="9.588262">
<ele>277.5</ele>
<speed>2.2</speed>
<course>167.4</course>
<desc>Speed 2.2 km/h Distance 58.53 km</desc>
<time>2010-09-11T15:26:59.05</time>
<name>1968</name>
</trkpt>
<trkpt lat="49.891950" lon="9.588262">
<ele>279.0</ele>
<speed>2.2</speed>
<course>249.1</course>
<desc>Speed 2.2 km/h Distance 58.53 km</desc>
<time>2010-09-11T15:27:01.04</time>
<name>1969</name>
</trkpt>
<trkpt lat="49.891948" lon="9.588255">
<ele>280.0</ele>
<speed>2.2</speed>
<course>90.0</course>
<desc>Speed 2.2 km/h Distance 58.53 km</desc>
<time>2010-09-11T15:27:03.04</time>
<name>1970</name>
</trkpt>
<trkpt lat="49.891948" lon="9.588265">
<ele>280.5</ele>
<speed>2.2</speed>
<course>239.8</course>
<desc>Speed 2.2 km/h Distance 58.53 km</desc>
<time>2010-09-11T15:27:05.04</time>
<name>1971</name>
</trkpt>
<trkpt lat="49.891938" lon="9.588238">
<ele>282.5</ele>
<speed>2.2</speed>
<course>110.4</course>
<desc>Speed 2.2 km/h Distance 58.54 km</desc>
<time>2010-09-11T15:27:07.04</time>
<name>1972</name>
</trkpt>
<trkpt lat="49.891928" lon="9.588280">
<ele>284.0</ele>
<speed>1.2</speed>
<course>305.3</course>
<desc>Speed 1.2 km/h Distance 58.54 km</desc>
<time>2010-09-11T15:27:09.04</time>
<name>1973</name>
</trkpt>
<trkpt lat="49.891937" lon="9.588262">
<ele>285.0</ele>
<speed>1.2</speed>
<course>14.0</course>
<desc>Speed 1.2 km/h Distance 58.54 km</desc>
<time>2010-09-11T15:27:11.04</time>
<name>1974</name>
</trkpt>
<trkpt lat="49.891958" lon="9.588270">
<ele>284.5</ele>
<speed>2.5</speed>
<course>336.8</course>
<desc>Speed 2.5 km/h Distance 58.54 km</desc>
<time>2010-09-11T15:27:13.04</time>
<name>1975</name>
</trkpt>
<trkpt lat="49.891983" lon="9.588253">
<ele>285.5</ele>
<speed>3.1</speed>
<course>321.2</course>
<desc>Speed 3.1 km/h Distance 58.55 km</desc>
<time>2010-09-11T15:27:15.04</time>
<name>1976</name>
</trkpt>
<trkpt lat="49.891997" lon="9.588237">
<ele>285.5</ele>
<speed>0.1</speed>
<course>22.2</course>
<desc>Speed 0.1 km/h Distance 58.55 km</desc>
<time>2010-09-11T15:27:17.03</time>
<name>1977</name>
</trkpt>
<trkpt lat="49.892002" lon="9.588240">
<ele>285.5</ele>
<speed>0.1</speed>
<course>97.4</course>
<desc>Speed 0.1 km/h Distance 58.55 km</desc>
<time>2010-09-11T15:27:19.03</time>
<name>1978</name>
</trkpt>
<trkpt lat="49.892000" lon="9.588260">
<ele>284.5</ele>
<speed>2.1</speed>
<course>161.2</course>
<desc>Speed 2.1 km/h Distance 58.55 km</desc>
<time>2010-09-11T15:27:21.03</time>
<name>1979</name>
</trkpt>
<trkpt lat="49.891972" lon="9.588275">
<ele>284.0</ele>
<speed>1.0</speed>
<course>104.6</course>
<desc>Speed 1.0 km/h Distance 58.55 km</desc>
<time>2010-09-11T15:27:23.04</time>
<name>1980</name>
</trkpt>
<trkpt lat="49.891970" lon="9.588285">
<ele>283.5</ele>
<speed>0.8</speed>
<course>132.9</course>
<desc>Speed 0.8 km/h Distance 58.55 km</desc>
<time>2010-09-11T15:27:25.03</time>
<name>1981</name>
</trkpt>
<trkpt lat="49.891965" lon="9.588293">
<ele>283.5</ele>
<speed>0.8</speed>
<course>112.2</course>
<desc>Speed 0.8 km/h Distance 58.55 km</desc>
<time>2010-09-11T15:27:27.03</time>
<name>1982</name>
</trkpt>
<trkpt lat="49.891957" lon="9.588325">
<ele>282.0</ele>
<speed>2.4</speed>
<course>351.6</course>
<desc>Speed 2.4 km/h Distance 58.56 km</desc>
<time>2010-09-11T15:27:29.03</time>
<name>1983</name>
</trkpt>
<trkpt lat="49.891978" lon="9.588320">
<ele>279.0</ele>
<speed>0.9</speed>
<course>98.0</course>
<desc>Speed 0.9 km/h Distance 58.56 km</desc>
<time>2010-09-11T15:27:31.03</time>
<name>1984</name>
</trkpt>
<trkpt lat="49.891977" lon="9.588338">
<ele>279.5</ele>
<speed>2.4</speed>
<course>296.1</course>
<desc>Speed 2.4 km/h Distance 58.56 km</desc>
<time>2010-09-11T15:27:33.03</time>
<name>1985</name>
</trkpt>
<trkpt lat="49.891987" lon="9.588307">
<ele>278.0</ele>
<speed>2.4</speed>
<course>302.3</course>
<desc>Speed 2.4 km/h Distance 58.56 km</desc>
<time>2010-09-11T15:27:35.02</time>
<name>1986</name>
</trkpt>
<trkpt lat="49.892005" lon="9.588262">
<ele>276.0</ele>
<speed>0.6</speed>
<course>12.6</course>
<desc>Speed 0.6 km/h Distance 58.57 km</desc>
<time>2010-09-11T15:27:37.02</time>
<name>1987</name>
</trkpt>
<trkpt lat="49.892008" lon="9.588263">
<ele>275.5</ele>
<speed>0.1</speed>
<course>259.1</course>
<desc>Speed 0.1 km/h Distance 58.57 km</desc>
<time>2010-09-11T15:27:39.02</time>
<name>1988</name>
</trkpt>
<trkpt lat="49.892007" lon="9.588250">
<ele>275.0</ele>
<speed>0.4</speed>
<course>66.0</course>
<desc>Speed 0.4 km/h Distance 58.57 km</desc>
<time>2010-09-11T15:27:41.02</time>
<name>1989</name>
</trkpt>
<trkpt lat="49.892010" lon="9.588262">
<ele>274.5</ele>
<speed>4.6</speed>
<course>80.2</course>
<desc>Speed 4.6 km/h Distance 58.57 km</desc>
<time>2010-09-11T15:27:43.02</time>
<name>1990</name>
</trkpt>
<trkpt lat="49.892012" lon="9.588277">
<ele>275.5</ele>
<speed>0.6</speed>
<course>104.6</course>
<desc>Speed 0.6 km/h Distance 58.57 km</desc>
<time>2010-09-11T15:27:45.03</time>
<name>1991</name>
</trkpt>
<trkpt lat="49.892010" lon="9.588287">
<ele>280.0</ele>
<speed>0.3</speed>
<course>220.6</course>
<desc>Speed 0.3 km/h Distance 58.57 km</desc>
<time>2010-09-11T15:27:47.02</time>
<name>1992</name>
</trkpt>
<trkpt lat="49.892000" lon="9.588273">
<ele>282.0</ele>
<speed>1.4</speed>
<course>90.0</course>
<desc>Speed 1.4 km/h Distance 58.57 km</desc>
<time>2010-09-11T15:27:49.02</time>
<name>1993</name>
</trkpt>
<trkpt lat="49.892000" lon="9.588278">
<ele>282.5</ele>
<speed>3.5</speed>
<course>218.7</course>
<desc>Speed 3.5 km/h Distance 58.57 km</desc>
<time>2010-09-11T15:27:51.02</time>
<name>1994</name>
</trkpt>
<trkpt lat="49.891993" lon="9.588270">
<ele>283.0</ele>
<speed>1.8</speed>
<course>90.0</course>
<desc>Speed 1.8 km/h Distance 58.57 km</desc>
<time>2010-09-11T15:27:53.02</time>
<name>1995</name>
</trkpt>
<trkpt lat="49.891993" lon="9.588283">
<ele>284.0</ele>
<speed>2.1</speed>
<course>90.0</course>
<desc>Speed 2.1 km/h Distance 58.58 km</desc>
<time>2010-09-11T15:27:55.01</time>
<name>1996</name>
</trkpt>
<trkpt lat="49.891993" lon="9.588283">
<ele>286.5</ele>
<speed>0.3</speed>
<course>136.1</course>
<desc>Speed 0.3 km/h Distance 58.58 km</desc>
<time>2010-09-11T15:27:57.01</time>
<name>1997</name>
</trkpt>
<trkpt lat="49.891983" lon="9.588298">
<ele>278.5</ele>
<speed>0.8</speed>
<course>319.7</course>
<desc>Speed 0.8 km/h Distance 58.58 km</desc>
<time>2010-09-11T15:27:59.01</time>
<name>1998</name>
</trkpt>
<trkpt lat="49.891988" lon="9.588292">
<ele>282.5</ele>
<speed>0.8</speed>
<course>38.7</course>
<desc>Speed 0.8 km/h Distance 58.58 km</desc>
<time>2010-09-11T15:28:01.02</time>
<name>1999</name>
</trkpt>
<trkpt lat="49.891995" lon="9.588300">
<ele>279.5</ele>
<speed>0.8</speed>
<course>51.9</course>
<desc>Speed 0.8 km/h Distance 58.58 km</desc>
<time>2010-09-11T15:28:03.01</time>
<name>2000</name>
</trkpt>
<trkpt lat="49.891997" lon="9.588303">
<ele>278.5</ele>
<speed>1.0</speed>
<course>69.1</course>
<desc>Speed 1.0 km/h Distance 58.58 km</desc>
<time>2010-09-11T15:28:05.01</time>
<name>2001</name>
</trkpt>
<trkpt lat="49.891998" lon="9.588310">
<ele>277.5</ele>
<speed>1.0</speed>
<course>127.6</course>
<desc>Speed 1.0 km/h Distance 58.58 km</desc>
<time>2010-09-11T15:28:07.01</time>
<name>2002</name>
</trkpt>
<trkpt lat="49.891993" lon="9.588320">
<ele>275.0</ele>
<speed>1.0</speed>
<course>127.6</course>
<desc>Speed 1.0 km/h Distance 58.58 km</desc>
<time>2010-09-11T15:28:09.01</time>
<name>2003</name>
</trkpt>
<trkpt lat="49.891993" lon="9.588320">
<ele>274.5</ele>
<speed>0.1</speed>
<course>141.8</course>
<desc>Speed 0.1 km/h Distance 58.58 km</desc>
<time>2010-09-11T15:28:11.02</time>
<name>2004</name>
</trkpt>
<trkpt lat="49.891978" lon="9.588338">
<ele>276.0</ele>
<speed>1.2</speed>
<course>0.0</course>
<desc>Speed 1.2 km/h Distance 58.58 km</desc>
<time>2010-09-11T15:28:13.01</time>
<name>2005</name>
</trkpt>
<trkpt lat="49.891980" lon="9.588338">
<ele>276.5</ele>
<speed>3.1</speed>
<course>213.2</course>
<desc>Speed 3.1 km/h Distance 58.58 km</desc>
<time>2010-09-11T15:28:15.01</time>
<name>2006</name>
</trkpt>
<trkpt lat="49.891975" lon="9.588333">
<ele>278.0</ele>
<speed>0.8</speed>
<course>270.0</course>
<desc>Speed 0.8 km/h Distance 58.58 km</desc>
<time>2010-09-11T15:28:17.01</time>
<name>2007</name>
</trkpt>
<trkpt lat="49.891975" lon="9.588332">
<ele>278.5</ele>
<speed>0.8</speed>
<course>171.9</course>
<desc>Speed 0.8 km/h Distance 58.58 km</desc>
<time>2010-09-11T15:28:19.01</time>
<name>2008</name>
</trkpt>
<trkpt lat="49.891965" lon="9.588333">
<ele>279.0</ele>
<speed>3.0</speed>
<course>300.1</course>
<desc>Speed 3.0 km/h Distance 58.58 km</desc>
<time>2010-09-11T15:28:21.00</time>
<name>2009</name>
</trkpt>
<trkpt lat="49.891970" lon="9.588320">
<ele>278.0</ele>
<speed>2.5</speed>
<course>312.9</course>
<desc>Speed 2.5 km/h Distance 58.59 km</desc>
<time>2010-09-11T15:28:23.01</time>
<name>2010</name>
</trkpt>
<trkpt lat="49.891975" lon="9.588312">
<ele>277.0</ele>
<speed>2.5</speed>
<course>285.7</course>
<desc>Speed 2.5 km/h Distance 58.59 km</desc>
<time>2010-09-11T15:28:25.00</time>
<name>2011</name>
</trkpt>
<trkpt lat="49.891978" lon="9.588293">
<ele>277.5</ele>
<speed>8.5</speed>
<course>75.4</course>
<desc>Speed 8.5 km/h Distance 58.59 km</desc>
<time>2010-09-11T15:28:27.00</time>
<name>2012</name>
</trkpt>
<trkpt lat="49.891980" lon="9.588303">
<ele>278.0</ele>
<speed>1.9</speed>
<course>72.7</course>
<desc>Speed 1.9 km/h Distance 58.59 km</desc>
<time>2010-09-11T15:28:29.00</time>
<name>2013</name>
</trkpt>
<trkpt lat="49.891982" lon="9.588312">
<ele>278.0</ele>
<speed>1.2</speed>
<course>111.3</course>
<desc>Speed 1.2 km/h Distance 58.59 km</desc>
<time>2010-09-11T15:28:31.00</time>
<name>2014</name>
</trkpt>
<trkpt lat="49.891980" lon="9.588318">
<ele>278.0</ele>
<speed>1.2</speed>
<course>47.1</course>
<desc>Speed 1.2 km/h Distance 58.59 km</desc>
<time>2010-09-11T15:28:33.00</time>
<name>2015</name>
</trkpt>
<trkpt lat="49.891985" lon="9.588327">
<ele>278.0</ele>
<speed>1.2</speed>
<course>0.0</course>
<desc>Speed 1.2 km/h Distance 58.59 km</desc>
<time>2010-09-11T15:28:35.00</time>
<name>2016</name>
</trkpt>
<trkpt lat="49.891990" lon="9.588327">
<ele>277.5</ele>
<speed>0.8</speed>
<course>68.7</course>
<desc>Speed 0.8 km/h Distance 58.59 km</desc>
<time>2010-09-11T15:28:36.99</time>
<name>2017</name>
</trkpt>
<trkpt lat="49.891992" lon="9.588333">
<ele>276.5</ele>
<speed>1.4</speed>
<course>100.4</course>
<desc>Speed 1.4 km/h Distance 58.59 km</desc>
<time>2010-09-11T15:28:39.00</time>
<name>2018</name>
</trkpt>
<trkpt lat="49.891988" lon="9.588362">
<ele>275.5</ele>
<speed>3.3</speed>
<course>196.0</course>
<desc>Speed 3.3 km/h Distance 58.59 km</desc>
<time>2010-09-11T15:28:40.99</time>
<name>2019</name>
</trkpt>
<trkpt lat="49.891973" lon="9.588355">
<ele>274.5</ele>
<speed>3.3</speed>
<course>153.0</course>
<desc>Speed 3.3 km/h Distance 58.60 km</desc>
<time>2010-09-11T15:28:42.99</time>
<name>2020</name>
</trkpt>
<trkpt lat="49.891965" lon="9.588362">
<ele>273.5</ele>
<speed>2.5</speed>
<course>197.0</course>
<desc>Speed 2.5 km/h Distance 58.60 km</desc>
<time>2010-09-11T15:28:44.99</time>
<name>2021</name>
</trkpt>
<trkpt lat="49.891955" lon="9.588357">
<ele>273.5</ele>
<speed>2.5</speed>
<course>117.4</course>
<desc>Speed 2.5 km/h Distance 58.60 km</desc>
<time>2010-09-11T15:28:46.99</time>
<name>2022</name>
</trkpt>
<trkpt lat="49.891942" lon="9.588397">
<ele>273.5</ele>
<speed>3.4</speed>
<course>26.6</course>
<desc>Speed 3.4 km/h Distance 58.60 km</desc>
<time>2010-09-11T15:28:49.01</time>
<name>2023</name>
</trkpt>
<trkpt lat="49.891957" lon="9.588408">
<ele>273.5</ele>
<speed>3.6</speed>
<course>15.5</course>
<desc>Speed 3.6 km/h Distance 58.60 km</desc>
<time>2010-09-11T15:28:50.99</time>
<name>2024</name>
</trkpt>
<trkpt lat="49.891980" lon="9.588418">
<ele>273.5</ele>
<speed>3.6</speed>
<course>352.6</course>
<desc>Speed 3.6 km/h Distance 58.61 km</desc>
<time>2010-09-11T15:28:53.00</time>
<name>2025</name>
</trkpt>
<trkpt lat="49.891987" lon="9.588417">
<ele>273.5</ele>
<speed>1.5</speed>
<course>144.8</course>
<desc>Speed 1.5 km/h Distance 58.61 km</desc>
<time>2010-09-11T15:28:54.99</time>
<name>2026</name>
</trkpt>
<trkpt lat="49.891968" lon="9.588437">
<ele>275.5</ele>
<speed>4.0</speed>
<course>295.3</course>
<desc>Speed 4.0 km/h Distance 58.61 km</desc>
<time>2010-09-11T15:28:56.98</time>
<name>2027</name>
</trkpt>
<trkpt lat="49.891980" lon="9.588398">
<ele>276.0</ele>
<speed>2.8</speed>
<course>276.8</course>
<desc>Speed 2.8 km/h Distance 58.61 km</desc>
<time>2010-09-11T15:28:58.98</time>
<name>2028</name>
</trkpt>
<trkpt lat="49.891982" lon="9.588377">
<ele>276.0</ele>
<speed>2.8</speed>
<course>270.0</course>
<desc>Speed 2.8 km/h Distance 58.61 km</desc>
<time>2010-09-11T15:29:00.98</time>
<name>2029</name>
</trkpt>
<trkpt lat="49.891982" lon="9.588367">
<ele>276.0</ele>
<speed>2.8</speed>
<course>304.0</course>
<desc>Speed 2.8 km/h Distance 58.61 km</desc>
<time>2010-09-11T15:29:02.96</time>
<name>2030</name>
</trkpt>
<trkpt lat="49.891998" lon="9.588328">
<ele>275.5</ele>
<speed>0.6</speed>
<course>167.4</course>
<desc>Speed 0.6 km/h Distance 58.62 km</desc>
<time>2010-09-11T15:29:04.98</time>
<name>2031</name>
</trkpt>
<trkpt lat="49.891997" lon="9.588328">
<ele>276.0</ele>
<speed>1.2</speed>
<course>244.5</course>
<desc>Speed 1.2 km/h Distance 58.62 km</desc>
<time>2010-09-11T15:29:06.98</time>
<name>2032</name>
</trkpt>
<trkpt lat="49.891990" lon="9.588307">
<ele>276.0</ele>
<speed>1.2</speed>
<course>238.1</course>
<desc>Speed 1.2 km/h Distance 58.62 km</desc>
<time>2010-09-11T15:29:08.98</time>
<name>2033</name>
</trkpt>
<trkpt lat="49.891983" lon="9.588290">
<ele>276.0</ele>
<speed>4.8</speed>
<course>270.0</course>
<desc>Speed 4.8 km/h Distance 58.62 km</desc>
<time>2010-09-11T15:29:10.98</time>
<name>2034</name>
</trkpt>
<trkpt lat="49.891983" lon="9.588262">
<ele>275.5</ele>
<speed>3.1</speed>
<course>334.4</course>
<desc>Speed 3.1 km/h Distance 58.62 km</desc>
<time>2010-09-11T15:29:12.98</time>
<name>2035</name>
</trkpt>
<trkpt lat="49.891997" lon="9.588252">
<ele>275.5</ele>
<speed>3.1</speed>
<course>3.8</course>
<desc>Speed 3.1 km/h Distance 58.62 km</desc>
<time>2010-09-11T15:29:14.97</time>
<name>2036</name>
</trkpt>
<trkpt lat="49.892012" lon="9.588253">
<ele>275.5</ele>
<speed>3.1</speed>
<course>254.2</course>
<desc>Speed 3.1 km/h Distance 58.63 km</desc>
<time>2010-09-11T15:29:16.97</time>
<name>2037</name>
</trkpt>
<trkpt lat="49.892008" lon="9.588235">
<ele>275.5</ele>
<speed>3.1</speed>
<course>259.3</course>
<desc>Speed 3.1 km/h Distance 58.63 km</desc>
<time>2010-09-11T15:29:18.97</time>
<name>2038</name>
</trkpt>
<trkpt lat="49.892000" lon="9.588167">
<ele>273.5</ele>
<speed>10.0</speed>
<course>301.4</course>
<desc>Speed 10.0 km/h Distance 58.63 km</desc>
<time>2010-09-11T15:29:20.97</time>
<name>2039</name>
</trkpt>
<trkpt lat="49.892037" lon="9.588073">
<ele>272.5</ele>
<speed>10.0</speed>
<course>293.9</course>
<desc>Speed 10.0 km/h Distance 58.64 km</desc>
<time>2010-09-11T15:29:22.97</time>
<name>2040</name>
</trkpt>
<trkpt lat="49.892057" lon="9.588003">
<ele>272.0</ele>
<speed>14.0</speed>
<course>299.9</course>
<desc>Speed 14.0 km/h Distance 58.65 km</desc>
<time>2010-09-11T15:29:24.97</time>
<name>2041</name>
</trkpt>
<trkpt lat="49.892073" lon="9.587958">
<ele>272.0</ele>
<speed>4.7</speed>
<course>235.3</course>
<desc>Speed 4.7 km/h Distance 58.65 km</desc>
<time>2010-09-11T15:29:26.97</time>
<name>2042</name>
</trkpt>
<trkpt lat="49.891983" lon="9.587757">
<ele>273.0</ele>
<speed>21.9</speed>
<course>233.4</course>
<desc>Speed 21.9 km/h Distance 58.67 km</desc>
<time>2010-09-11T15:29:29.97</time>
<name>2043</name>
</trkpt>
<trkpt lat="49.891910" lon="9.587603">
<ele>273.5</ele>
<speed>23.9</speed>
<course>231.4</course>
<desc>Speed 23.9 km/h Distance 58.68 km</desc>
<time>2010-09-11T15:29:31.97</time>
<name>2044</name>
</trkpt>
<trkpt lat="49.891825" lon="9.587438">
<ele>274.0</ele>
<speed>19.2</speed>
<course>243.3</course>
<desc>Speed 19.2 km/h Distance 58.70 km</desc>
<time>2010-09-11T15:29:33.97</time>
<name>2045</name>
</trkpt>
<trkpt lat="49.891770" lon="9.587268">
<ele>274.5</ele>
<speed>12.2</speed>
<course>223.2</course>
<desc>Speed 12.2 km/h Distance 58.71 km</desc>
<time>2010-09-11T15:29:35.96</time>
<name>2046</name>
</trkpt>
<trkpt lat="49.891712" lon="9.587183">
<ele>274.5</ele>
<speed>13.6</speed>
<course>209.8</course>
<desc>Speed 13.6 km/h Distance 58.72 km</desc>
<time>2010-09-11T15:29:37.97</time>
<name>2047</name>
</trkpt>
<trkpt lat="49.891667" lon="9.587143">
<ele>274.5</ele>
<speed>13.6</speed>
<course>167.3</course>
<desc>Speed 13.6 km/h Distance 58.72 km</desc>
<time>2010-09-11T15:29:39.97</time>
<name>2048</name>
</trkpt>
<trkpt lat="49.891633" lon="9.587155">
<ele>273.5</ele>
<speed>13.6</speed>
<course>136.3</course>
<desc>Speed 13.6 km/h Distance 58.73 km</desc>
<time>2010-09-11T15:29:41.96</time>
<name>2049</name>
</trkpt>
<trkpt lat="49.891582" lon="9.587232">
<ele>272.0</ele>
<speed>13.6</speed>
<course>128.8</course>
<desc>Speed 13.6 km/h Distance 58.74 km</desc>
<time>2010-09-11T15:29:43.97</time>
<name>2050</name>
</trkpt>
<trkpt lat="49.891557" lon="9.587280">
<ele>270.0</ele>
<speed>13.6</speed>
<course>109.7</course>
<desc>Speed 13.6 km/h Distance 58.74 km</desc>
<time>2010-09-11T15:29:45.96</time>
<name>2051</name>
</trkpt>
<trkpt lat="49.891517" lon="9.587453">
<ele>269.0</ele>
<speed>13.6</speed>
<course>123.4</course>
<desc>Speed 13.6 km/h Distance 58.75 km</desc>
<time>2010-09-11T15:29:47.96</time>
<name>2052</name>
</trkpt>
<trkpt lat="49.891055" lon="9.588538">
<ele>266.0</ele>
<speed>60.6</speed>
<course>112.3</course>
<desc>Speed 60.6 km/h Distance 58.85 km</desc>
<time>2010-09-11T15:29:52.98</time>
<name>2053</name>
</trkpt>
<trkpt lat="49.890837" lon="9.589365">
<ele>265.5</ele>
<speed>60.6</speed>
<course>93.3</course>
<desc>Speed 60.6 km/h Distance 58.91 km</desc>
<time>2010-09-11T15:29:55.96</time>
<name>2054</name>
</trkpt>
<trkpt lat="49.890820" lon="9.589820">
<ele>265.0</ele>
<speed>60.6</speed>
<course>112.0</course>
<desc>Speed 60.6 km/h Distance 58.94 km</desc>
<time>2010-09-11T15:29:58.95</time>
<name>2055</name>
</trkpt>
<trkpt lat="49.890695" lon="9.590300">
<ele>264.0</ele>
<speed>60.6</speed>
<course>107.1</course>
<desc>Speed 60.6 km/h Distance 58.98 km</desc>
<time>2010-09-11T15:30:04.96</time>
<name>2056</name>
</trkpt>
<trkpt lat="49.890605" lon="9.590753">
<ele>263.5</ele>
<speed>60.6</speed>
<course>117.4</course>
<desc>Speed 60.6 km/h Distance 59.01 km</desc>
<time>2010-09-11T15:30:07.95</time>
<name>2057</name>
</trkpt>
<trkpt lat="49.890482" lon="9.591123">
<ele>262.5</ele>
<speed>62.9</speed>
<course>130.5</course>
<desc>Speed 62.9 km/h Distance 59.04 km</desc>
<time>2010-09-11T15:30:09.95</time>
<name>2058</name>
</trkpt>
<trkpt lat="49.890265" lon="9.591517">
<ele>262.5</ele>
<speed>62.9</speed>
<course>119.9</course>
<desc>Speed 62.9 km/h Distance 59.08 km</desc>
<time>2010-09-11T15:30:11.95</time>
<name>2059</name>
</trkpt>
<trkpt lat="49.890088" lon="9.591993">
<ele>264.0</ele>
<speed>62.9</speed>
<course>145.8</course>
<desc>Speed 62.9 km/h Distance 59.12 km</desc>
<time>2010-09-11T15:30:15.94</time>
<name>2060</name>
</trkpt>
<trkpt lat="49.889777" lon="9.592322">
<ele>263.5</ele>
<speed>62.9</speed>
<course>155.3</course>
<desc>Speed 62.9 km/h Distance 59.16 km</desc>
<time>2010-09-11T15:30:19.95</time>
<name>2061</name>
</trkpt>
<trkpt lat="49.889637" lon="9.592422">
<ele>258.5</ele>
<speed>62.9</speed>
<course>222.9</course>
<desc>Speed 62.9 km/h Distance 59.18 km</desc>
<time>2010-09-11T15:30:25.94</time>
<name>2062</name>
</trkpt>
<trkpt lat="49.889505" lon="9.592232">
<ele>257.5</ele>
<speed>62.9</speed>
<course>169.7</course>
<desc>Speed 62.9 km/h Distance 59.20 km</desc>
<time>2010-09-11T15:30:30.95</time>
<name>2063</name>
</trkpt>
<trkpt lat="49.889305" lon="9.592288">
<ele>257.0</ele>
<speed>62.9</speed>
<course>134.3</course>
<desc>Speed 62.9 km/h Distance 59.22 km</desc>
<time>2010-09-11T15:30:36.93</time>
<name>2064</name>
</trkpt>
<trkpt lat="49.888972" lon="9.592818">
<ele>257.0</ele>
<speed>72.7</speed>
<course>142.0</course>
<desc>Speed 72.7 km/h Distance 59.28 km</desc>
<time>2010-09-11T15:30:41.94</time>
<name>2065</name>
</trkpt>
<trkpt lat="49.888110" lon="9.593862">
<ele>257.0</ele>
<speed>27.8</speed>
<course>117.2</course>
<desc>Speed 27.8 km/h Distance 59.40 km</desc>
<time>2010-09-11T15:30:47.93</time>
<name>2066</name>
</trkpt>
<trkpt lat="49.887898" lon="9.594502">
<ele>256.5</ele>
<speed>27.8</speed>
<course>136.1</course>
<desc>Speed 27.8 km/h Distance 59.45 km</desc>
<time>2010-09-11T15:30:51.93</time>
<name>2067</name>
</trkpt>
<trkpt lat="49.887793" lon="9.594658">
<ele>256.5</ele>
<speed>27.8</speed>
<course>189.6</course>
<desc>Speed 27.8 km/h Distance 59.47 km</desc>
<time>2010-09-11T15:30:53.93</time>
<name>2068</name>
</trkpt>
<trkpt lat="49.887653" lon="9.594622">
<ele>256.5</ele>
<speed>27.8</speed>
<course>176.7</course>
<desc>Speed 27.8 km/h Distance 59.48 km</desc>
<time>2010-09-11T15:30:55.93</time>
<name>2069</name>
</trkpt>
<trkpt lat="49.887108" lon="9.594670">
<ele>256.5</ele>
<speed>27.8</speed>
<course>155.7</course>
<desc>Speed 27.8 km/h Distance 59.54 km</desc>
<time>2010-09-11T15:30:59.92</time>
<name>2070</name>
</trkpt>
<trkpt lat="49.884515" lon="9.596490">
<ele>256.0</ele>
<speed>104</speed>
<course>160.9</course>
<desc>Speed 104 km/h Distance 59.86 km</desc>
<time>2010-09-11T15:31:04.92</time>
<name>2071</name>
</trkpt>
<trkpt lat="49.883682" lon="9.596938">
<ele>254.5</ele>
<speed>104</speed>
<course>190.8</course>
<desc>Speed 104 km/h Distance 59.96 km</desc>
<time>2010-09-11T15:31:09.92</time>
<name>2072</name>
</trkpt>
<trkpt lat="49.882980" lon="9.596730">
<ele>254.0</ele>
<speed>104</speed>
<course>151.2</course>
<desc>Speed 104 km/h Distance 60.04 km</desc>
<time>2010-09-11T15:31:15.91</time>
<name>2073</name>
</trkpt>
<trkpt lat="49.881053" lon="9.598372">
<ele>268.5</ele>
<speed>92.7</speed>
<course>161.6</course>
<desc>Speed 92.7 km/h Distance 60.28 km</desc>
<time>2010-09-11T15:31:20.91</time>
<name>2074</name>
</trkpt>
<trkpt lat="49.880327" lon="9.598747">
<ele>263.5</ele>
<speed>92.7</speed>
<course>193.2</course>
<desc>Speed 92.7 km/h Distance 60.37 km</desc>
<time>2010-09-11T15:31:25.91</time>
<name>2075</name>
</trkpt>
<trkpt lat="49.879560" lon="9.598467">
<ele>261.0</ele>
<speed>92.7</speed>
<course>146.0</course>
<desc>Speed 92.7 km/h Distance 60.45 km</desc>
<time>2010-09-11T15:31:31.91</time>
<name>2076</name>
</trkpt>
<trkpt lat="49.878302" lon="9.599785">
<ele>262.0</ele>
<speed>92.7</speed>
<course>153.8</course>
<desc>Speed 92.7 km/h Distance 60.62 km</desc>
<time>2010-09-11T15:31:36.92</time>
<name>2077</name>
</trkpt>
<trkpt lat="49.877502" lon="9.600397">
<ele>262.0</ele>
<speed>92.7</speed>
<course>171.8</course>
<desc>Speed 92.7 km/h Distance 60.72 km</desc>
<time>2010-09-11T15:31:40.91</time>
<name>2078</name>
</trkpt>
<trkpt lat="49.877127" lon="9.600480">
<ele>262.5</ele>
<speed>92.7</speed>
<course>154.5</course>
<desc>Speed 92.7 km/h Distance 60.76 km</desc>
<time>2010-09-11T15:31:46.90</time>
<name>2079</name>
</trkpt>
<trkpt lat="49.876293" lon="9.601097">
<ele>262.5</ele>
<speed>92.7</speed>
<course>134.2</course>
<desc>Speed 92.7 km/h Distance 60.87 km</desc>
<time>2010-09-11T15:31:51.91</time>
<name>2080</name>
</trkpt>
<trkpt lat="49.875823" lon="9.601847">
<ele>262.5</ele>
<speed>92.7</speed>
<course>157.1</course>
<desc>Speed 92.7 km/h Distance 60.94 km</desc>
<time>2010-09-11T15:31:55.89</time>
<name>2081</name>
</trkpt>
<trkpt lat="49.873852" lon="9.603137">
<ele>262.5</ele>
<speed>36.4</speed>
<course>157.2</course>
<desc>Speed 36.4 km/h Distance 61.18 km</desc>
<time>2010-09-11T15:31:59.88</time>
<name>2082</name>
</trkpt>
<trkpt lat="49.872928" lon="9.603738">
<ele>260.5</ele>
<speed>36.6</speed>
<course>176.7</course>
<desc>Speed 36.6 km/h Distance 61.29 km</desc>
<time>2010-09-11T15:32:04.89</time>
<name>2083</name>
</trkpt>
<trkpt lat="49.872758" lon="9.603753">
<ele>260.0</ele>
<speed>36.6</speed>
<course>186.1</course>
<desc>Speed 36.6 km/h Distance 61.31 km</desc>
<time>2010-09-11T15:32:06.88</time>
<name>2084</name>
</trkpt>
<trkpt lat="49.872597" lon="9.603727">
<ele>259.5</ele>
<speed>26.7</speed>
<course>180.3</course>
<desc>Speed 26.7 km/h Distance 61.33 km</desc>
<time>2010-09-11T15:32:08.88</time>
<name>2085</name>
</trkpt>
<trkpt lat="49.872440" lon="9.603725">
<ele>259.5</ele>
<speed>28.4</speed>
<course>178.2</course>
<desc>Speed 28.4 km/h Distance 61.35 km</desc>
<time>2010-09-11T15:32:10.88</time>
<name>2086</name>
</trkpt>
<trkpt lat="49.872272" lon="9.603733">
<ele>259.0</ele>
<speed>28.0</speed>
<course>177.4</course>
<desc>Speed 28.0 km/h Distance 61.37 km</desc>
<time>2010-09-11T15:32:12.88</time>
<name>2087</name>
</trkpt>
<trkpt lat="49.872130" lon="9.603743">
<ele>258.5</ele>
<speed>28.0</speed>
<course>179.7</course>
<desc>Speed 28.0 km/h Distance 61.38 km</desc>
<time>2010-09-11T15:32:14.89</time>
<name>2088</name>
</trkpt>
<trkpt lat="49.871960" lon="9.603745">
<ele>258.5</ele>
<speed>27.7</speed>
<course>180.0</course>
<desc>Speed 27.7 km/h Distance 61.40 km</desc>
<time>2010-09-11T15:32:16.89</time>
<name>2089</name>
</trkpt>
<trkpt lat="49.871820" lon="9.603745">
<ele>258.0</ele>
<speed>27.7</speed>
<course>181.4</course>
<desc>Speed 27.7 km/h Distance 61.42 km</desc>
<time>2010-09-11T15:32:18.89</time>
<name>2090</name>
</trkpt>
<trkpt lat="49.871638" lon="9.603738">
<ele>258.0</ele>
<speed>31.2</speed>
<course>180.1</course>
<desc>Speed 31.2 km/h Distance 61.44 km</desc>
<time>2010-09-11T15:32:20.87</time>
<name>2091</name>
</trkpt>
<trkpt lat="49.871462" lon="9.603737">
<ele>258.0</ele>
<speed>31.2</speed>
<course>178.8</course>
<desc>Speed 31.2 km/h Distance 61.46 km</desc>
<time>2010-09-11T15:32:22.87</time>
<name>2092</name>
</trkpt>
<trkpt lat="49.871257" lon="9.603743">
<ele>258.0</ele>
<speed>34.8</speed>
<course>172.5</course>
<desc>Speed 34.8 km/h Distance 61.48 km</desc>
<time>2010-09-11T15:32:24.87</time>
<name>2093</name>
</trkpt>
<trkpt lat="49.871043" lon="9.603787">
<ele>257.5</ele>
<speed>35.9</speed>
<course>174.1</course>
<desc>Speed 35.9 km/h Distance 61.50 km</desc>
<time>2010-09-11T15:32:26.87</time>
<name>2094</name>
</trkpt>
<trkpt lat="49.870825" lon="9.603822">
<ele>257.5</ele>
<speed>36.6</speed>
<course>185.1</course>
<desc>Speed 36.6 km/h Distance 61.53 km</desc>
<time>2010-09-11T15:32:28.87</time>
<name>2095</name>
</trkpt>
<trkpt lat="49.870587" lon="9.603788">
<ele>257.5</ele>
<speed>40.5</speed>
<course>181.0</course>
<desc>Speed 40.5 km/h Distance 61.55 km</desc>
<time>2010-09-11T15:32:30.88</time>
<name>2096</name>
</trkpt>
<trkpt lat="49.870402" lon="9.603783">
<ele>257.5</ele>
<speed>34.4</speed>
<course>183.7</course>
<desc>Speed 34.4 km/h Distance 61.57 km</desc>
<time>2010-09-11T15:32:32.89</time>
<name>2097</name>
</trkpt>
<trkpt lat="49.870202" lon="9.603763">
<ele>257.5</ele>
<speed>33.7</speed>
<course>172.7</course>
<desc>Speed 33.7 km/h Distance 61.60 km</desc>
<time>2010-09-11T15:32:34.87</time>
<name>2098</name>
</trkpt>
<trkpt lat="49.870025" lon="9.603798">
<ele>257.5</ele>
<speed>35.0</speed>
<course>171.7</course>
<desc>Speed 35.0 km/h Distance 61.62 km</desc>
<time>2010-09-11T15:32:36.86</time>
<name>2099</name>
</trkpt>
<trkpt lat="49.869848" lon="9.603838">
<ele>257.5</ele>
<speed>34.4</speed>
<course>171.2</course>
<desc>Speed 34.4 km/h Distance 61.64 km</desc>
<time>2010-09-11T15:32:38.86</time>
<name>2100</name>
</trkpt>
<trkpt lat="49.869668" lon="9.603882">
<ele>257.0</ele>
<speed>35.8</speed>
<course>177.0</course>
<desc>Speed 35.8 km/h Distance 61.66 km</desc>
<time>2010-09-11T15:32:40.86</time>
<name>2101</name>
</trkpt>
<trkpt lat="49.869483" lon="9.603897">
<ele>257.5</ele>
<speed>35.1</speed>
<course>177.2</course>
<desc>Speed 35.1 km/h Distance 61.68 km</desc>
<time>2010-09-11T15:32:42.87</time>
<name>2102</name>
</trkpt>
<trkpt lat="49.869307" lon="9.603910">
<ele>257.0</ele>
<speed>35.1</speed>
<course>180.8</course>
<desc>Speed 35.1 km/h Distance 61.70 km</desc>
<time>2010-09-11T15:32:44.87</time>
<name>2103</name>
</trkpt>
<trkpt lat="49.869160" lon="9.603907">
<ele>256.0</ele>
<speed>35.1</speed>
<course>193.0</course>
<desc>Speed 35.1 km/h Distance 61.71 km</desc>
<time>2010-09-11T15:32:46.86</time>
<name>2104</name>
</trkpt>
<trkpt lat="49.868960" lon="9.603835">
<ele>256.0</ele>
<speed>43.1</speed>
<course>193.2</course>
<desc>Speed 43.1 km/h Distance 61.74 km</desc>
<time>2010-09-11T15:32:48.86</time>
<name>2105</name>
</trkpt>
<trkpt lat="49.868727" lon="9.603750">
<ele>255.5</ele>
<speed>42.4</speed>
<course>189.5</course>
<desc>Speed 42.4 km/h Distance 61.76 km</desc>
<time>2010-09-11T15:32:50.86</time>
<name>2106</name>
</trkpt>
<trkpt lat="49.868477" lon="9.603685">
<ele>255.5</ele>
<speed>45.3</speed>
<course>182.5</course>
<desc>Speed 45.3 km/h Distance 61.79 km</desc>
<time>2010-09-11T15:32:52.86</time>
<name>2107</name>
</trkpt>
<trkpt lat="49.868250" lon="9.603670">
<ele>255.5</ele>
<speed>43.3</speed>
<course>179.1</course>
<desc>Speed 43.3 km/h Distance 61.82 km</desc>
<time>2010-09-11T15:32:54.86</time>
<name>2108</name>
</trkpt>
<trkpt lat="49.868035" lon="9.603675">
<ele>255.0</ele>
<speed>43.2</speed>
<course>186.2</course>
<desc>Speed 43.2 km/h Distance 61.84 km</desc>
<time>2010-09-11T15:32:56.86</time>
<name>2109</name>
</trkpt>
<trkpt lat="49.867817" lon="9.603638">
<ele>254.5</ele>
<speed>39.8</speed>
<course>182.6</course>
<desc>Speed 39.8 km/h Distance 61.86 km</desc>
<time>2010-09-11T15:32:58.86</time>
<name>2110</name>
</trkpt>
<trkpt lat="49.867677" lon="9.603628">
<ele>254.5</ele>
<speed>39.8</speed>
<course>187.8</course>
<desc>Speed 39.8 km/h Distance 61.88 km</desc>
<time>2010-09-11T15:33:00.86</time>
<name>2111</name>
</trkpt>
<trkpt lat="49.867527" lon="9.603597">
<ele>252.5</ele>
<speed>39.8</speed>
<course>255.3</course>
<desc>Speed 39.8 km/h Distance 61.90 km</desc>
<time>2010-09-11T15:33:04.85</time>
<name>2112</name>
</trkpt>
<trkpt lat="49.867490" lon="9.603380">
<ele>247.0</ele>
<speed>39.8</speed>
<course>300.6</course>
<desc>Speed 39.8 km/h Distance 61.91 km</desc>
<time>2010-09-11T15:33:07.85</time>
<name>2113</name>
</trkpt>
<trkpt lat="49.867807" lon="9.602550">
<ele>244.5</ele>
<speed>39.8</speed>
<course>276.7</course>
<desc>Speed 39.8 km/h Distance 61.98 km</desc>
<time>2010-09-11T15:33:11.85</time>
<name>2114</name>
</trkpt>
<trkpt lat="49.867903" lon="9.601273">
<ele>243.5</ele>
<speed>39.8</speed>
<course>265.4</course>
<desc>Speed 39.8 km/h Distance 62.07 km</desc>
<time>2010-09-11T15:33:16.85</time>
<name>2115</name>
</trkpt>
<trkpt lat="49.867883" lon="9.600888">
<ele>244.5</ele>
<speed>39.8</speed>
<course>224.9</course>
<desc>Speed 39.8 km/h Distance 62.10 km</desc>
<time>2010-09-11T15:33:18.85</time>
<name>2116</name>
</trkpt>
<trkpt lat="49.867697" lon="9.600600">
<ele>242.5</ele>
<speed>39.8</speed>
<course>221.9</course>
<desc>Speed 39.8 km/h Distance 62.13 km</desc>
<time>2010-09-11T15:33:20.85</time>
<name>2117</name>
</trkpt>
<trkpt lat="49.867532" lon="9.600370">
<ele>240.0</ele>
<speed>39.8</speed>
<course>234.4</course>
<desc>Speed 39.8 km/h Distance 62.16 km</desc>
<time>2010-09-11T15:33:23.85</time>
<name>2118</name>
</trkpt>
<trkpt lat="49.867280" lon="9.599825">
<ele>236.5</ele>
<speed>39.8</speed>
<course>255.0</course>
<desc>Speed 39.8 km/h Distance 62.20 km</desc>
<time>2010-09-11T15:33:26.85</time>
<name>2119</name>
</trkpt>
<trkpt lat="49.867242" lon="9.599603">
<ele>235.0</ele>
<speed>39.8</speed>
<course>259.5</course>
<desc>Speed 39.8 km/h Distance 62.22 km</desc>
<time>2010-09-11T15:33:28.85</time>
<name>2120</name>
</trkpt>
<trkpt lat="49.867218" lon="9.599408">
<ele>234.0</ele>
<speed>39.8</speed>
<course>266.6</course>
<desc>Speed 39.8 km/h Distance 62.23 km</desc>
<time>2010-09-11T15:33:30.85</time>
<name>2121</name>
</trkpt>
<trkpt lat="49.867192" lon="9.598718">
<ele>234.0</ele>
<speed>57.7</speed>
<course>262.5</course>
<desc>Speed 57.7 km/h Distance 62.28 km</desc>
<time>2010-09-11T15:33:33.85</time>
<name>2122</name>
</trkpt>
<trkpt lat="49.867158" lon="9.598323">
<ele>234.0</ele>
<speed>57.7</speed>
<course>255.7</course>
<desc>Speed 57.7 km/h Distance 62.31 km</desc>
<time>2010-09-11T15:33:35.85</time>
<name>2123</name>
</trkpt>
<trkpt lat="49.867033" lon="9.597565">
<ele>231.0</ele>
<speed>57.7</speed>
<course>280.3</course>
<desc>Speed 57.7 km/h Distance 62.37 km</desc>
<time>2010-09-11T15:33:38.84</time>
<name>2124</name>
</trkpt>
<trkpt lat="49.867087" lon="9.597108">
<ele>230.0</ele>
<speed>57.7</speed>
<course>270.8</course>
<desc>Speed 57.7 km/h Distance 62.40 km</desc>
<time>2010-09-11T15:33:43.84</time>
<name>2125</name>
</trkpt>
<trkpt lat="49.867097" lon="9.596027">
<ele>230.0</ele>
<speed>57.7</speed>
<course>264.4</course>
<desc>Speed 57.7 km/h Distance 62.48 km</desc>
<time>2010-09-11T15:33:47.83</time>
<name>2126</name>
</trkpt>
<trkpt lat="49.866935" lon="9.593488">
<ele>230.0</ele>
<speed>57.7</speed>
<course>221.5</course>
<desc>Speed 57.7 km/h Distance 62.66 km</desc>
<time>2010-09-11T15:33:52.84</time>
<name>2127</name>
</trkpt>
<trkpt lat="49.865465" lon="9.591468">
<ele>233.5</ele>
<speed>95.4</speed>
<course>231.3</course>
<desc>Speed 95.4 km/h Distance 62.88 km</desc>
<time>2010-09-11T15:33:57.84</time>
<name>2128</name>
</trkpt>
<trkpt lat="49.864957" lon="9.590483">
<ele>244.0</ele>
<speed>86.7</speed>
<course>234.2</course>
<desc>Speed 86.7 km/h Distance 62.97 km</desc>
<time>2010-09-11T15:34:00.83</time>
<name>2129</name>
</trkpt>
<trkpt lat="49.864572" lon="9.589657">
<ele>238.0</ele>
<speed>73.3</speed>
<course>227.6</course>
<desc>Speed 73.3 km/h Distance 63.05 km</desc>
<time>2010-09-11T15:34:03.84</time>
<name>2130</name>
</trkpt>
<trkpt lat="49.864232" lon="9.589078">
<ele>236.5</ele>
<speed>73.3</speed>
<course>209.4</course>
<desc>Speed 73.3 km/h Distance 63.10 km</desc>
<time>2010-09-11T15:34:07.83</time>
<name>2131</name>
</trkpt>
<trkpt lat="49.863827" lon="9.588725">
<ele>222.0</ele>
<speed>73.3</speed>
<course>186.5</course>
<desc>Speed 73.3 km/h Distance 63.15 km</desc>
<time>2010-09-11T15:34:11.82</time>
<name>2132</name>
</trkpt>
<trkpt lat="49.863117" lon="9.588600">
<ele>219.0</ele>
<speed>44.9</speed>
<course>189.9</course>
<desc>Speed 44.9 km/h Distance 63.23 km</desc>
<time>2010-09-11T15:34:15.83</time>
<name>2133</name>
</trkpt>
<trkpt lat="49.862852" lon="9.588528">
<ele>221.0</ele>
<speed>44.9</speed>
<course>201.0</course>
<desc>Speed 44.9 km/h Distance 63.26 km</desc>
<time>2010-09-11T15:34:17.83</time>
<name>2134</name>
</trkpt>
<trkpt lat="49.862502" lon="9.588320">
<ele>223.0</ele>
<speed>44.9</speed>
<course>235.3</course>
<desc>Speed 44.9 km/h Distance 63.30 km</desc>
<time>2010-09-11T15:34:20.82</time>
<name>2135</name>
</trkpt>
<trkpt lat="49.862377" lon="9.588040">
<ele>223.5</ele>
<speed>44.9</speed>
<course>216.7</course>
<desc>Speed 44.9 km/h Distance 63.33 km</desc>
<time>2010-09-11T15:34:25.81</time>
<name>2136</name>
</trkpt>
<trkpt lat="49.862227" lon="9.587867">
<ele>225.5</ele>
<speed>44.9</speed>
<course>283.6</course>
<desc>Speed 44.9 km/h Distance 63.35 km</desc>
<time>2010-09-11T15:34:27.83</time>
<name>2137</name>
</trkpt>
<trkpt lat="49.862282" lon="9.587513">
<ele>223.0</ele>
<speed>32.0</speed>
<course>277.2</course>
<desc>Speed 32.0 km/h Distance 63.38 km</desc>
<time>2010-09-11T15:34:29.82</time>
<name>2138</name>
</trkpt>
<trkpt lat="49.862395" lon="9.586115">
<ele>248.5</ele>
<speed>52.6</speed>
<course>287.8</course>
<desc>Speed 52.6 km/h Distance 63.48 km</desc>
<time>2010-09-11T15:34:34.82</time>
<name>2139</name>
</trkpt>
<trkpt lat="49.862622" lon="9.585022">
<ele>251.0</ele>
<speed>62.7</speed>
<course>300.7</course>
<desc>Speed 62.7 km/h Distance 63.56 km</desc>
<time>2010-09-11T15:34:38.82</time>
<name>2140</name>
</trkpt>
<trkpt lat="49.862802" lon="9.584552">
<ele>249.5</ele>
<speed>62.7</speed>
<course>311.0</course>
<desc>Speed 62.7 km/h Distance 63.60 km</desc>
<time>2010-09-11T15:34:40.82</time>
<name>2141</name>
</trkpt>
<trkpt lat="49.863088" lon="9.584040">
<ele>258.0</ele>
<speed>62.7</speed>
<course>300.7</course>
<desc>Speed 62.7 km/h Distance 63.65 km</desc>
<time>2010-09-11T15:34:43.81</time>
<name>2142</name>
</trkpt>
<trkpt lat="49.863272" lon="9.583562">
<ele>274.5</ele>
<speed>62.7</speed>
<course>232.6</course>
<desc>Speed 62.7 km/h Distance 63.69 km</desc>
<time>2010-09-11T15:34:47.82</time>
<name>2143</name>
</trkpt>
<trkpt lat="49.863012" lon="9.583033">
<ele>245.0</ele>
<speed>62.7</speed>
<course>248.5</course>
<desc>Speed 62.7 km/h Distance 63.73 km</desc>
<time>2010-09-11T15:34:51.82</time>
<name>2144</name>
</trkpt>
<trkpt lat="49.862877" lon="9.582502">
<ele>246.0</ele>
<speed>62.7</speed>
<course>244.7</course>
<desc>Speed 62.7 km/h Distance 63.78 km</desc>
<time>2010-09-11T15:34:55.80</time>
<name>2145</name>
</trkpt>
<trkpt lat="49.862817" lon="9.582305">
<ele>244.5</ele>
<speed>62.7</speed>
<course>256.9</course>
<desc>Speed 62.7 km/h Distance 63.79 km</desc>
<time>2010-09-11T15:34:56.80</time>
<name>2146</name>
</trkpt>
<trkpt lat="49.862752" lon="9.581872">
<ele>249.5</ele>
<speed>62.7</speed>
<course>241.1</course>
<desc>Speed 62.7 km/h Distance 63.82 km</desc>
<time>2010-09-11T15:34:58.80</time>
<name>2147</name>
</trkpt>
<trkpt lat="49.862588" lon="9.581413">
<ele>242.0</ele>
<speed>47.0</speed>
<course>257.5</course>
<desc>Speed 47.0 km/h Distance 63.86 km</desc>
<time>2010-09-11T15:35:01.80</time>
<name>2148</name>
</trkpt>
<trkpt lat="49.862498" lon="9.580785">
<ele>242.5</ele>
<speed>42.3</speed>
<course>284.6</course>
<desc>Speed 42.3 km/h Distance 63.91 km</desc>
<time>2010-09-11T15:35:04.80</time>
<name>2149</name>
</trkpt>
<trkpt lat="49.862527" lon="9.580617">
<ele>242.5</ele>
<speed>42.3</speed>
<course>266.3</course>
<desc>Speed 42.3 km/h Distance 63.92 km</desc>
<time>2010-09-11T15:35:05.80</time>
<name>2150</name>
</trkpt>
<trkpt lat="49.862517" lon="9.580375">
<ele>242.5</ele>
<speed>42.3</speed>
<course>267.3</course>
<desc>Speed 42.3 km/h Distance 63.94 km</desc>
<time>2010-09-11T15:35:07.79</time>
<name>2151</name>
</trkpt>
<trkpt lat="49.862485" lon="9.579328">
<ele>240.5</ele>
<speed>42.3</speed>
<course>245.2</course>
<desc>Speed 42.3 km/h Distance 64.01 km</desc>
<time>2010-09-11T15:35:12.79</time>
<name>2152</name>
</trkpt>
<trkpt lat="49.862365" lon="9.578925">
<ele>241.0</ele>
<speed>42.3</speed>
<course>248.8</course>
<desc>Speed 42.3 km/h Distance 64.04 km</desc>
<time>2010-09-11T15:35:14.79</time>
<name>2153</name>
</trkpt>
<trkpt lat="49.862067" lon="9.577733">
<ele>244.0</ele>
<speed>42.3</speed>
<course>264.2</course>
<desc>Speed 42.3 km/h Distance 64.14 km</desc>
<time>2010-09-11T15:35:19.78</time>
<name>2154</name>
</trkpt>
<trkpt lat="49.862048" lon="9.577453">
<ele>247.0</ele>
<speed>42.3</speed>
<course>226.1</course>
<desc>Speed 42.3 km/h Distance 64.16 km</desc>
<time>2010-09-11T15:35:21.78</time>
<name>2155</name>
</trkpt>
<trkpt lat="49.861975" lon="9.577335">
<ele>248.5</ele>
<speed>42.3</speed>
<course>183.5</course>
<desc>Speed 42.3 km/h Distance 64.17 km</desc>
<time>2010-09-11T15:35:22.78</time>
<name>2156</name>
</trkpt>
<trkpt lat="49.861730" lon="9.577312">
<ele>248.5</ele>
<speed>42.3</speed>
<course>180.6</course>
<desc>Speed 42.3 km/h Distance 64.20 km</desc>
<time>2010-09-11T15:35:25.78</time>
<name>2157</name>
</trkpt>
<trkpt lat="49.861552" lon="9.577308">
<ele>248.0</ele>
<speed>30.1</speed>
<course>180.9</course>
<desc>Speed 30.1 km/h Distance 64.22 km</desc>
<time>2010-09-11T15:35:27.79</time>
<name>2158</name>
</trkpt>
<trkpt lat="49.861467" lon="9.577307">
<ele>248.0</ele>
<speed>30.1</speed>
<course>179.2</course>
<desc>Speed 30.1 km/h Distance 64.22 km</desc>
<time>2010-09-11T15:35:28.78</time>
<name>2159</name>
</trkpt>
<trkpt lat="49.861393" lon="9.577308">
<ele>248.0</ele>
<speed>30.1</speed>
<course>216.2</course>
<desc>Speed 30.1 km/h Distance 64.23 km</desc>
<time>2010-09-11T15:35:29.77</time>
<name>2160</name>
</trkpt>
<trkpt lat="49.861282" lon="9.577182">
<ele>247.5</ele>
<speed>22.8</speed>
<course>219.5</course>
<desc>Speed 22.8 km/h Distance 64.25 km</desc>
<time>2010-09-11T15:35:31.77</time>
<name>2161</name>
</trkpt>
<trkpt lat="49.861252" lon="9.577143">
<ele>247.5</ele>
<speed>22.8</speed>
<course>218.9</course>
<desc>Speed 22.8 km/h Distance 64.25 km</desc>
<time>2010-09-11T15:35:32.77</time>
<name>2162</name>
</trkpt>
<trkpt lat="49.861133" lon="9.576995">
<ele>247.0</ele>
<speed>22.8</speed>
<course>223.1</course>
<desc>Speed 22.8 km/h Distance 64.27 km</desc>
<time>2010-09-11T15:35:34.77</time>
<name>2163</name>
</trkpt>
<trkpt lat="49.860898" lon="9.576653">
<ele>248.5</ele>
<speed>35.9</speed>
<course>221.4</course>
<desc>Speed 35.9 km/h Distance 64.31 km</desc>
<time>2010-09-11T15:35:37.78</time>
<name>2164</name>
</trkpt>
<trkpt lat="49.860798" lon="9.576517">
<ele>248.5</ele>
<speed>35.9</speed>
<course>205.0</course>
<desc>Speed 35.9 km/h Distance 64.32 km</desc>
<time>2010-09-11T15:35:39.78</time>
<name>2165</name>
</trkpt>
<trkpt lat="49.860642" lon="9.576403">
<ele>248.5</ele>
<speed>35.9</speed>
<course>192.0</course>
<desc>Speed 35.9 km/h Distance 64.34 km</desc>
<time>2010-09-11T15:35:41.77</time>
<name>2166</name>
</trkpt>
<trkpt lat="49.860222" lon="9.576265">
<ele>247.0</ele>
<speed>35.9</speed>
<course>208.4</course>
<desc>Speed 35.9 km/h Distance 64.39 km</desc>
<time>2010-09-11T15:35:44.77</time>
<name>2167</name>
</trkpt>
<trkpt lat="49.860065" lon="9.576133">
<ele>246.0</ele>
<speed>35.9</speed>
<course>185.8</course>
<desc>Speed 35.9 km/h Distance 64.41 km</desc>
<time>2010-09-11T15:35:46.77</time>
<name>2168</name>
</trkpt>
<trkpt lat="49.859875" lon="9.576103">
<ele>245.5</ele>
<speed>35.9</speed>
<course>210.5</course>
<desc>Speed 35.9 km/h Distance 64.43 km</desc>
<time>2010-09-11T15:35:48.76</time>
<name>2169</name>
</trkpt>
<trkpt lat="49.859698" lon="9.575942">
<ele>243.5</ele>
<speed>35.9</speed>
<course>210.4</course>
<desc>Speed 35.9 km/h Distance 64.45 km</desc>
<time>2010-09-11T15:35:50.77</time>
<name>2170</name>
</trkpt>
<trkpt lat="49.859625" lon="9.575875">
<ele>243.5</ele>
<speed>35.9</speed>
<course>211.9</course>
<desc>Speed 35.9 km/h Distance 64.46 km</desc>
<time>2010-09-11T15:35:51.77</time>
<name>2171</name>
</trkpt>
<trkpt lat="49.859393" lon="9.575652">
<ele>243.5</ele>
<speed>56.3</speed>
<course>197.9</course>
<desc>Speed 56.3 km/h Distance 64.49 km</desc>
<time>2010-09-11T15:35:53.77</time>
<name>2172</name>
</trkpt>
<trkpt lat="49.858305" lon="9.575105">
<ele>245.0</ele>
<speed>50.3</speed>
<course>192.7</course>
<desc>Speed 50.3 km/h Distance 64.62 km</desc>
<time>2010-09-11T15:35:58.75</time>
<name>2173</name>
</trkpt>
<trkpt lat="49.857815" lon="9.574933">
<ele>247.0</ele>
<speed>55.6</speed>
<course>192.2</course>
<desc>Speed 55.6 km/h Distance 64.67 km</desc>
<time>2010-09-11T15:36:01.76</time>
<name>2174</name>
</trkpt>
<trkpt lat="49.857252" lon="9.574745">
<ele>245.5</ele>
<speed>64.5</speed>
<course>190.9</course>
<desc>Speed 64.5 km/h Distance 64.74 km</desc>
<time>2010-09-11T15:36:04.76</time>
<name>2175</name>
</trkpt>
<trkpt lat="49.856905" lon="9.574642">
<ele>245.5</ele>
<speed>55.8</speed>
<course>189.2</course>
<desc>Speed 55.8 km/h Distance 64.78 km</desc>
<time>2010-09-11T15:36:06.75</time>
<name>2176</name>
</trkpt>
<trkpt lat="49.856580" lon="9.574560">
<ele>249.5</ele>
<speed>54.8</speed>
<course>196.2</course>
<desc>Speed 54.8 km/h Distance 64.81 km</desc>
<time>2010-09-11T15:36:08.75</time>
<name>2177</name>
</trkpt>
<trkpt lat="49.856153" lon="9.574368">
<ele>255.5</ele>
<speed>15.6</speed>
<course>172.8</course>
<desc>Speed 15.6 km/h Distance 64.86 km</desc>
<time>2010-09-11T15:36:14.75</time>
<name>2178</name>
</trkpt>
<trkpt lat="49.856017" lon="9.574395">
<ele>258.5</ele>
<speed>31.6</speed>
<course>159.3</course>
<desc>Speed 31.6 km/h Distance 64.88 km</desc>
<time>2010-09-11T15:36:17.75</time>
<name>2179</name>
</trkpt>
<trkpt lat="49.855928" lon="9.574447">
<ele>258.0</ele>
<speed>31.6</speed>
<course>165.4</course>
<desc>Speed 31.6 km/h Distance 64.89 km</desc>
<time>2010-09-11T15:36:19.75</time>
<name>2180</name>
</trkpt>
<trkpt lat="49.855722" lon="9.574530">
<ele>259.5</ele>
<speed>31.6</speed>
<course>167.0</course>
<desc>Speed 31.6 km/h Distance 64.91 km</desc>
<time>2010-09-11T15:36:21.74</time>
<name>2181</name>
</trkpt>
<trkpt lat="49.855512" lon="9.574605">
<ele>256.0</ele>
<speed>31.6</speed>
<course>99.8</course>
<desc>Speed 31.6 km/h Distance 64.94 km</desc>
<time>2010-09-11T15:36:23.74</time>
<name>2182</name>
</trkpt>
<trkpt lat="49.855062" lon="9.578642">
<ele>258.0</ele>
<speed>31.6</speed>
<course>148.6</course>
<desc>Speed 31.6 km/h Distance 65.23 km</desc>
<time>2010-09-11T15:36:29.74</time>
<name>2183</name>
</trkpt>
<trkpt lat="49.853902" lon="9.579742">
<ele>244.0</ele>
<speed>31.6</speed>
<course>97.1</course>
<desc>Speed 31.6 km/h Distance 65.38 km</desc>
<time>2010-09-11T15:36:35.73</time>
<name>2184</name>
</trkpt>
<trkpt lat="49.853880" lon="9.580010">
<ele>241.5</ele>
<speed>31.6</speed>
<course>73.0</course>
<desc>Speed 31.6 km/h Distance 65.40 km</desc>
<time>2010-09-11T15:36:37.73</time>
<name>2185</name>
</trkpt>
<trkpt lat="49.853907" lon="9.580145">
<ele>242.0</ele>
<speed>31.6</speed>
<course>83.8</course>
<desc>Speed 31.6 km/h Distance 65.41 km</desc>
<time>2010-09-11T15:36:39.72</time>
<name>2186</name>
</trkpt>
<trkpt lat="49.854018" lon="9.581740">
<ele>244.0</ele>
<speed>31.6</speed>
<course>113.4</course>
<desc>Speed 31.6 km/h Distance 65.53 km</desc>
<time>2010-09-11T15:36:41.72</time>
<name>2187</name>
</trkpt>
<trkpt lat="49.853612" lon="9.583195">
<ele>244.5</ele>
<speed>31.6</speed>
<course>129.7</course>
<desc>Speed 31.6 km/h Distance 65.64 km</desc>
<time>2010-09-11T15:36:47.72</time>
<name>2188</name>
</trkpt>
<trkpt lat="49.852635" lon="9.585020">
<ele>244.0</ele>
<speed>31.6</speed>
<course>72.2</course>
<desc>Speed 31.6 km/h Distance 65.81 km</desc>
<time>2010-09-11T15:36:53.72</time>
<name>2189</name>
</trkpt>
<trkpt lat="49.853062" lon="9.587083">
<ele>245.0</ele>
<speed>31.6</speed>
<course>135.8</course>
<desc>Speed 31.6 km/h Distance 65.97 km</desc>
<time>2010-09-11T15:36:59.71</time>
<name>2190</name>
</trkpt>
<trkpt lat="49.852193" lon="9.588393">
<ele>244.0</ele>
<speed>56.3</speed>
<course>131.5</course>
<desc>Speed 56.3 km/h Distance 66.10 km</desc>
<time>2010-09-11T15:37:05.71</time>
<name>2191</name>
</trkpt>
<trkpt lat="49.851843" lon="9.589007">
<ele>243.5</ele>
<speed>50.1</speed>
<course>139.3</course>
<desc>Speed 50.1 km/h Distance 66.16 km</desc>
<time>2010-09-11T15:37:08.70</time>
<name>2192</name>
</trkpt>
<trkpt lat="49.851738" lon="9.589147">
<ele>243.5</ele>
<speed>50.1</speed>
<course>155.2</course>
<desc>Speed 50.1 km/h Distance 66.18 km</desc>
<time>2010-09-11T15:37:09.71</time>
<name>2193</name>
</trkpt>
<trkpt lat="49.851457" lon="9.589348">
<ele>244.0</ele>
<speed>50.1</speed>
<course>150.2</course>
<desc>Speed 50.1 km/h Distance 66.21 km</desc>
<time>2010-09-11T15:37:11.70</time>
<name>2194</name>
</trkpt>
<trkpt lat="49.851217" lon="9.589562">
<ele>244.0</ele>
<speed>50.1</speed>
<course>193.6</course>
<desc>Speed 50.1 km/h Distance 66.24 km</desc>
<time>2010-09-11T15:37:13.70</time>
<name>2195</name>
</trkpt>
<trkpt lat="49.849532" lon="9.588928">
<ele>245.0</ele>
<speed>50.1</speed>
<course>184.4</course>
<desc>Speed 50.1 km/h Distance 66.43 km</desc>
<time>2010-09-11T15:37:23.70</time>
<name>2196</name>
</trkpt>
<trkpt lat="49.847857" lon="9.588727">
<ele>244.0</ele>
<speed>50.1</speed>
<course>204.6</course>
<desc>Speed 50.1 km/h Distance 66.62 km</desc>
<time>2010-09-11T15:37:25.69</time>
<name>2197</name>
</trkpt>
<trkpt lat="49.846258" lon="9.587592">
<ele>244.5</ele>
<speed>96.6</speed>
<course>184.9</course>
<desc>Speed 96.6 km/h Distance 66.82 km</desc>
<time>2010-09-11T15:37:30.69</time>
<name>2198</name>
</trkpt>
<trkpt lat="49.845400" lon="9.587477">
<ele>239.5</ele>
<speed>83.4</speed>
<course>171.3</course>
<desc>Speed 83.4 km/h Distance 66.91 km</desc>
<time>2010-09-11T15:37:35.69</time>
<name>2199</name>
</trkpt>
<trkpt lat="49.845188" lon="9.587527">
<ele>239.5</ele>
<speed>77.9</speed>
<course>170.9</course>
<desc>Speed 77.9 km/h Distance 66.94 km</desc>
<time>2010-09-11T15:37:36.69</time>
<name>2200</name>
</trkpt>
<trkpt lat="49.845007" lon="9.587572">
<ele>239.5</ele>
<speed>77.9</speed>
<course>186.9</course>
<desc>Speed 77.9 km/h Distance 66.96 km</desc>
<time>2010-09-11T15:37:37.69</time>
<name>2201</name>
</trkpt>
<trkpt lat="49.844463" lon="9.587470">
<ele>244.5</ele>
<speed>77.9</speed>
<course>187.5</course>
<desc>Speed 77.9 km/h Distance 67.02 km</desc>
<time>2010-09-11T15:37:41.68</time>
<name>2202</name>
</trkpt>
<trkpt lat="49.843943" lon="9.587363">
<ele>239.5</ele>
<speed>77.9</speed>
<course>183.6</course>
<desc>Speed 77.9 km/h Distance 67.08 km</desc>
<time>2010-09-11T15:37:46.68</time>
<name>2203</name>
</trkpt>
<trkpt lat="49.843497" lon="9.587320">
<ele>237.5</ele>
<speed>77.9</speed>
<course>235.4</course>
<desc>Speed 77.9 km/h Distance 67.13 km</desc>
<time>2010-09-11T15:37:52.67</time>
<name>2204</name>
</trkpt>
<trkpt lat="49.843443" lon="9.587200">
<ele>237.5</ele>
<speed>77.9</speed>
<course>194.6</course>
<desc>Speed 77.9 km/h Distance 67.14 km</desc>
<time>2010-09-11T15:37:56.66</time>
<name>2205</name>
</trkpt>
<trkpt lat="49.843253" lon="9.587123">
<ele>237.5</ele>
<speed>77.9</speed>
<course>233.7</course>
<desc>Speed 77.9 km/h Distance 67.16 km</desc>
<time>2010-09-11T15:37:57.67</time>
<name>2206</name>
</trkpt>
<trkpt lat="49.842705" lon="9.585967">
<ele>237.0</ele>
<speed>77.9</speed>
<course>229.5</course>
<desc>Speed 77.9 km/h Distance 67.26 km</desc>
<time>2010-09-11T15:38:01.67</time>
<name>2207</name>
</trkpt>
<trkpt lat="49.841387" lon="9.583575">
<ele>237.0</ele>
<speed>77.9</speed>
<course>220.5</course>
<desc>Speed 77.9 km/h Distance 67.49 km</desc>
<time>2010-09-11T15:38:09.66</time>
<name>2208</name>
</trkpt>
<trkpt lat="49.839687" lon="9.581323">
<ele>237.5</ele>
<speed>83.0</speed>
<course>220.3</course>
<desc>Speed 83.0 km/h Distance 67.74 km</desc>
<time>2010-09-11T15:38:14.68</time>
<name>2209</name>
</trkpt>
<trkpt lat="49.838322" lon="9.579530">
<ele>243.0</ele>
<speed>102</speed>
<course>228.6</course>
<desc>Speed 102 km/h Distance 67.94 km</desc>
<time>2010-09-11T15:38:20.67</time>
<name>2210</name>
</trkpt>
<trkpt lat="49.838157" lon="9.579240">
<ele>243.0</ele>
<speed>102</speed>
<course>231.9</course>
<desc>Speed 102 km/h Distance 67.96 km</desc>
<time>2010-09-11T15:38:21.66</time>
<name>2211</name>
</trkpt>
<trkpt lat="49.837642" lon="9.578222">
<ele>241.5</ele>
<speed>102</speed>
<course>259.9</course>
<desc>Speed 102 km/h Distance 68.06 km</desc>
<time>2010-09-11T15:38:25.66</time>
<name>2212</name>
</trkpt>
<trkpt lat="49.837387" lon="9.576010">
<ele>243.0</ele>
<speed>102</speed>
<course>274.2</course>
<desc>Speed 102 km/h Distance 68.22 km</desc>
<time>2010-09-11T15:38:28.65</time>
<name>2213</name>
</trkpt>
<trkpt lat="49.837422" lon="9.575278">
<ele>244.0</ele>
<speed>102</speed>
<course>246.8</course>
<desc>Speed 102 km/h Distance 68.27 km</desc>
<time>2010-09-11T15:38:34.65</time>
<name>2214</name>
</trkpt>
<trkpt lat="49.837158" lon="9.574325">
<ele>244.5</ele>
<speed>102</speed>
<course>201.2</course>
<desc>Speed 102 km/h Distance 68.34 km</desc>
<time>2010-09-11T15:38:37.65</time>
<name>2215</name>
</trkpt>
<trkpt lat="49.836917" lon="9.574180">
<ele>245.0</ele>
<speed>102</speed>
<course>264.5</course>
<desc>Speed 102 km/h Distance 68.37 km</desc>
<time>2010-09-11T15:38:38.65</time>
<name>2216</name>
</trkpt>
<trkpt lat="49.836870" lon="9.573422">
<ele>245.0</ele>
<speed>102</speed>
<course>278.7</course>
<desc>Speed 102 km/h Distance 68.43 km</desc>
<time>2010-09-11T15:38:40.64</time>
<name>2217</name>
</trkpt>
<trkpt lat="49.836983" lon="9.572277">
<ele>244.5</ele>
<speed>102</speed>
<course>241.3</course>
<desc>Speed 102 km/h Distance 68.51 km</desc>
<time>2010-09-11T15:38:42.63</time>
<name>2218</name>
</trkpt>
<trkpt lat="49.836758" lon="9.571638">
<ele>244.5</ele>
<speed>102</speed>
<course>230.9</course>
<desc>Speed 102 km/h Distance 68.56 km</desc>
<time>2010-09-11T15:38:45.64</time>
<name>2219</name>
</trkpt>
<trkpt lat="49.836087" lon="9.570358">
<ele>244.5</ele>
<speed>102</speed>
<course>253.2</course>
<desc>Speed 102 km/h Distance 68.68 km</desc>
<time>2010-09-11T15:38:47.63</time>
<name>2220</name>
</trkpt>
<trkpt lat="49.835910" lon="9.569452">
<ele>244.5</ele>
<speed>102</speed>
<course>267.6</course>
<desc>Speed 102 km/h Distance 68.75 km</desc>
<time>2010-09-11T15:38:49.62</time>
<name>2221</name>
</trkpt>
<trkpt lat="49.835842" lon="9.566893">
<ele>244.0</ele>
<speed>102</speed>
<course>256.9</course>
<desc>Speed 102 km/h Distance 68.93 km</desc>
<time>2010-09-11T15:38:51.65</time>
<name>2222</name>
</trkpt>
<trkpt lat="49.835553" lon="9.564968">
<ele>244.5</ele>
<speed>102</speed>
<course>259.1</course>
<desc>Speed 102 km/h Distance 69.08 km</desc>
<time>2010-09-11T15:39:01.63</time>
<name>2223</name>
</trkpt>
<trkpt lat="49.835257" lon="9.562580">
<ele>244.5</ele>
<speed>102</speed>
<course>190.0</course>
<desc>Speed 102 km/h Distance 69.25 km</desc>
<time>2010-09-11T15:39:03.63</time>
<name>2224</name>
</trkpt>
<trkpt lat="49.833977" lon="9.562230">
<ele>246.5</ele>
<speed>102</speed>
<course>202.8</course>
<desc>Speed 102 km/h Distance 69.40 km</desc>
<time>2010-09-11T15:39:07.63</time>
<name>2225</name>
</trkpt>
<trkpt lat="49.833293" lon="9.561785">
<ele>247.0</ele>
<speed>112</speed>
<course>171.3</course>
<desc>Speed 112 km/h Distance 69.48 km</desc>
<time>2010-09-11T15:39:13.63</time>
<name>2226</name>
</trkpt>
<trkpt lat="49.832748" lon="9.561915">
<ele>247.0</ele>
<speed>112</speed>
<course>187.7</course>
<desc>Speed 112 km/h Distance 69.54 km</desc>
<time>2010-09-11T15:39:15.63</time>
<name>2227</name>
</trkpt>
<trkpt lat="49.832025" lon="9.561763">
<ele>246.5</ele>
<speed>112</speed>
<course>185.9</course>
<desc>Speed 112 km/h Distance 69.62 km</desc>
<time>2010-09-11T15:39:18.63</time>
<name>2228</name>
</trkpt>
<trkpt lat="49.831218" lon="9.561633">
<ele>245.0</ele>
<speed>112</speed>
<course>194.4</course>
<desc>Speed 112 km/h Distance 69.71 km</desc>
<time>2010-09-11T15:39:24.62</time>
<name>2229</name>
</trkpt>
<trkpt lat="49.827912" lon="9.560322">
<ele>247.5</ele>
<speed>114</speed>
<course>217.0</course>
<desc>Speed 114 km/h Distance 70.09 km</desc>
<time>2010-09-11T15:39:31.63</time>
<name>2230</name>
</trkpt>
<trkpt lat="49.826192" lon="9.558315">
<ele>255.0</ele>
<speed>91.1</speed>
<course>192.4</course>
<desc>Speed 91.1 km/h Distance 70.33 km</desc>
<time>2010-09-11T15:39:37.62</time>
<name>2231</name>
</trkpt>
<trkpt lat="49.825390" lon="9.558042">
<ele>262.0</ele>
<speed>70.9</speed>
<course>176.3</course>
<desc>Speed 70.9 km/h Distance 70.42 km</desc>
<time>2010-09-11T15:39:42.61</time>
<name>2232</name>
</trkpt>
<trkpt lat="49.825088" lon="9.558072">
<ele>267.5</ele>
<speed>59.1</speed>
<course>181.6</course>
<desc>Speed 59.1 km/h Distance 70.46 km</desc>
<time>2010-09-11T15:39:44.61</time>
<name>2233</name>
</trkpt>
<trkpt lat="49.824782" lon="9.558058">
<ele>269.0</ele>
<speed>60.6</speed>
<course>170.3</course>
<desc>Speed 60.6 km/h Distance 70.49 km</desc>
<time>2010-09-11T15:39:46.61</time>
<name>2234</name>
</trkpt>
<trkpt lat="49.824505" lon="9.558132">
<ele>279.0</ele>
<speed>60.6</speed>
<course>275.0</course>
<desc>Speed 60.6 km/h Distance 70.52 km</desc>
<time>2010-09-11T15:39:48.61</time>
<name>2235</name>
</trkpt>
<trkpt lat="49.824693" lon="9.554808">
<ele>275.5</ele>
<speed>60.6</speed>
<course>263.3</course>
<desc>Speed 60.6 km/h Distance 70.76 km</desc>
<time>2010-09-11T15:40:00.61</time>
<name>2236</name>
</trkpt>
<trkpt lat="49.824540" lon="9.552787">
<ele>276.5</ele>
<speed>152</speed>
<course>267.9</course>
<desc>Speed 152 km/h Distance 70.91 km</desc>
<time>2010-09-11T15:40:02.60</time>
<name>2237</name>
</trkpt>
<trkpt lat="49.824442" lon="9.548610">
<ele>279.0</ele>
<speed>150</speed>
<course>263.3</course>
<desc>Speed 150 km/h Distance 71.21 km</desc>
<time>2010-09-11T15:40:08.59</time>
<name>2238</name>
</trkpt>
<trkpt lat="49.824308" lon="9.546862">
<ele>277.5</ele>
<speed>150</speed>
<course>285.0</course>
<desc>Speed 150 km/h Distance 71.33 km</desc>
<time>2010-09-11T15:40:13.60</time>
<name>2239</name>
</trkpt>
<trkpt lat="49.824738" lon="9.544380">
<ele>279.5</ele>
<speed>108</speed>
<course>282.1</course>
<desc>Speed 108 km/h Distance 71.52 km</desc>
<time>2010-09-11T15:40:19.60</time>
<name>2240</name>
</trkpt>
<trkpt lat="49.824870" lon="9.543425">
<ele>283.5</ele>
<speed>108</speed>
<course>297.1</course>
<desc>Speed 108 km/h Distance 71.59 km</desc>
<time>2010-09-11T15:40:25.59</time>
<name>2241</name>
</trkpt>
<trkpt lat="49.824988" lon="9.543067">
<ele>281.0</ele>
<speed>108</speed>
<course>276.7</course>
<desc>Speed 108 km/h Distance 71.62 km</desc>
<time>2010-09-11T15:40:31.58</time>
<name>2242</name>
</trkpt>
<trkpt lat="49.825365" lon="9.538127">
<ele>282.0</ele>
<speed>108</speed>
<course>281.2</course>
<desc>Speed 108 km/h Distance 71.97 km</desc>
<time>2010-09-11T15:40:36.59</time>
<name>2243</name>
</trkpt>
<trkpt lat="49.825478" lon="9.537243">
<ele>283.0</ele>
<speed>108</speed>
<course>292.3</course>
<desc>Speed 108 km/h Distance 72.04 km</desc>
<time>2010-09-11T15:40:38.58</time>
<name>2244</name>
</trkpt>
<trkpt lat="49.825575" lon="9.536878">
<ele>283.0</ele>
<speed>108</speed>
<course>272.3</course>
<desc>Speed 108 km/h Distance 72.07 km</desc>
<time>2010-09-11T15:40:39.58</time>
<name>2245</name>
</trkpt>
<trkpt lat="49.825603" lon="9.535805">
<ele>282.5</ele>
<speed>108</speed>
<course>271.9</course>
<desc>Speed 108 km/h Distance 72.14 km</desc>
<time>2010-09-11T15:40:42.58</time>
<name>2246</name>
</trkpt>
<trkpt lat="49.825640" lon="9.534115">
<ele>283.0</ele>
<speed>108</speed>
<course>275.6</course>
<desc>Speed 108 km/h Distance 72.27 km</desc>
<time>2010-09-11T15:40:45.58</time>
<name>2247</name>
</trkpt>
<trkpt lat="49.825767" lon="9.532105">
<ele>284.0</ele>
<speed>113</speed>
<course>279.3</course>
<desc>Speed 113 km/h Distance 72.41 km</desc>
<time>2010-09-11T15:40:49.59</time>
<name>2248</name>
</trkpt>
<trkpt lat="49.825917" lon="9.530680">
<ele>285.0</ele>
<speed>113</speed>
<course>277.8</course>
<desc>Speed 113 km/h Distance 72.51 km</desc>
<time>2010-09-11T15:40:55.58</time>
<name>2249</name>
</trkpt>
<trkpt lat="49.825975" lon="9.530018">
<ele>285.5</ele>
<speed>113</speed>
<course>288.2</course>
<desc>Speed 113 km/h Distance 72.56 km</desc>
<time>2010-09-11T15:41:01.56</time>
<name>2250</name>
</trkpt>
<trkpt lat="49.826047" lon="9.529680">
<ele>285.5</ele>
<speed>113</speed>
<course>260.2</course>
<desc>Speed 113 km/h Distance 72.59 km</desc>
<time>2010-09-11T15:41:07.57</time>
<name>2251</name>
</trkpt>
<trkpt lat="49.825940" lon="9.528725">
<ele>285.5</ele>
<speed>113</speed>
<course>265.4</course>
<desc>Speed 113 km/h Distance 72.66 km</desc>
<time>2010-09-11T15:41:13.56</time>
<name>2252</name>
</trkpt>
<trkpt lat="49.825890" lon="9.527772">
<ele>285.5</ele>
<speed>113</speed>
<course>305.8</course>
<desc>Speed 113 km/h Distance 72.73 km</desc>
<time>2010-09-11T15:41:19.55</time>
<name>2253</name>
</trkpt>
<trkpt lat="49.826198" lon="9.527110">
<ele>285.5</ele>
<speed>113</speed>
<course>269.2</course>
<desc>Speed 113 km/h Distance 72.78 km</desc>
<time>2010-09-11T15:41:21.55</time>
<name>2254</name>
</trkpt>
<trkpt lat="49.826190" lon="9.526202">
<ele>285.5</ele>
<speed>113</speed>
<course>253.6</course>
<desc>Speed 113 km/h Distance 72.85 km</desc>
<time>2010-09-11T15:41:23.54</time>
<name>2255</name>
</trkpt>
<trkpt lat="49.826063" lon="9.525533">
<ele>285.5</ele>
<speed>113</speed>
<course>271.4</course>
<desc>Speed 113 km/h Distance 72.90 km</desc>
<time>2010-09-11T15:41:28.54</time>
<name>2256</name>
</trkpt>
<trkpt lat="49.826080" lon="9.524453">
<ele>285.5</ele>
<speed>113</speed>
<course>265.4</course>
<desc>Speed 113 km/h Distance 72.98 km</desc>
<time>2010-09-11T15:41:34.54</time>
<name>2257</name>
</trkpt>
<trkpt lat="49.826047" lon="9.523807">
<ele>285.5</ele>
<speed>113</speed>
<course>244.1</course>
<desc>Speed 113 km/h Distance 73.02 km</desc>
<time>2010-09-11T15:41:39.54</time>
<name>2258</name>
</trkpt>
<trkpt lat="49.825178" lon="9.521037">
<ele>286.5</ele>
<speed>113</speed>
<course>240.2</course>
<desc>Speed 113 km/h Distance 73.25 km</desc>
<time>2010-09-11T15:41:44.54</time>
<name>2259</name>
</trkpt>
<trkpt lat="49.824125" lon="9.518182">
<ele>287.0</ele>
<speed>99.5</speed>
<course>254.5</course>
<desc>Speed 99.5 km/h Distance 73.48 km</desc>
<time>2010-09-11T15:41:50.54</time>
<name>2260</name>
</trkpt>
<trkpt lat="49.823980" lon="9.517373">
<ele>287.0</ele>
<speed>99.5</speed>
<course>269.4</course>
<desc>Speed 99.5 km/h Distance 73.54 km</desc>
<time>2010-09-11T15:41:52.55</time>
<name>2261</name>
</trkpt>
<trkpt lat="49.823975" lon="9.516688">
<ele>286.5</ele>
<speed>99.5</speed>
<course>267.6</course>
<desc>Speed 99.5 km/h Distance 73.59 km</desc>
<time>2010-09-11T15:41:54.54</time>
<name>2262</name>
</trkpt>
<trkpt lat="49.823960" lon="9.516132">
<ele>286.5</ele>
<speed>99.5</speed>
<course>298.7</course>
<desc>Speed 99.5 km/h Distance 73.63 km</desc>
<time>2010-09-11T15:42:00.53</time>
<name>2263</name>
</trkpt>
<trkpt lat="49.824472" lon="9.514682">
<ele>286.5</ele>
<speed>99.5</speed>
<course>302.5</course>
<desc>Speed 99.5 km/h Distance 73.75 km</desc>
<time>2010-09-11T15:42:06.53</time>
<name>2264</name>
</trkpt>
<trkpt lat="49.826268" lon="9.510305">
<ele>286.0</ele>
<speed>99.5</speed>
<course>294.7</course>
<desc>Speed 99.5 km/h Distance 74.12 km</desc>
<time>2010-09-11T15:42:13.52</time>
<name>2265</name>
</trkpt>
<trkpt lat="49.826372" lon="9.509957">
<ele>285.5</ele>
<speed>99.5</speed>
<course>271.8</course>
<desc>Speed 99.5 km/h Distance 74.15 km</desc>
<time>2010-09-11T15:42:14.52</time>
<name>2266</name>
</trkpt>
<trkpt lat="49.826460" lon="9.505622">
<ele>285.5</ele>
<speed>99.5</speed>
<course>241.3</course>
<desc>Speed 99.5 km/h Distance 74.46 km</desc>
<time>2010-09-11T15:42:35.50</time>
<name>2267</name>
</trkpt>
<trkpt lat="49.826333" lon="9.505263">
<ele>285.0</ele>
<speed>99.5</speed>
<course>215.9</course>
<desc>Speed 99.5 km/h Distance 74.49 km</desc>
<time>2010-09-11T15:42:36.50</time>
<name>2268</name>
</trkpt>
<trkpt lat="49.825495" lon="9.504323">
<ele>284.5</ele>
<speed>99.5</speed>
<course>209.0</course>
<desc>Speed 99.5 km/h Distance 74.61 km</desc>
<time>2010-09-11T15:42:38.49</time>
<name>2269</name>
</trkpt>
<trkpt lat="49.824778" lon="9.503708">
<ele>283.5</ele>
<speed>99.5</speed>
<course>205.8</course>
<desc>Speed 99.5 km/h Distance 74.70 km</desc>
<time>2010-09-11T15:42:42.49</time>
<name>2270</name>
</trkpt>
<trkpt lat="49.824538" lon="9.503528">
<ele>283.0</ele>
<speed>99.5</speed>
<course>230.7</course>
<desc>Speed 99.5 km/h Distance 74.73 km</desc>
<time>2010-09-11T15:42:46.47</time>
<name>2271</name>
</trkpt>
<trkpt lat="49.824477" lon="9.503412">
<ele>283.0</ele>
<speed>99.5</speed>
<course>180.8</course>
<desc>Speed 99.5 km/h Distance 74.74 km</desc>
<time>2010-09-11T15:42:48.47</time>
<name>2272</name>
</trkpt>
<trkpt lat="49.823747" lon="9.503397">
<ele>283.0</ele>
<speed>99.5</speed>
<course>228.2</course>
<desc>Speed 99.5 km/h Distance 74.82 km</desc>
<time>2010-09-11T15:42:51.47</time>
<name>2273</name>
</trkpt>
<trkpt lat="49.822715" lon="9.501610">
<ele>283.0</ele>
<speed>99.5</speed>
<course>206.0</course>
<desc>Speed 99.5 km/h Distance 74.99 km</desc>
<time>2010-09-11T15:42:53.47</time>
<name>2274</name>
</trkpt>
<trkpt lat="49.822248" lon="9.501257">
<ele>282.5</ele>
<speed>99.5</speed>
<course>231.5</course>
<desc>Speed 99.5 km/h Distance 75.05 km</desc>
<time>2010-09-11T15:42:55.46</time>
<name>2275</name>
</trkpt>
<trkpt lat="49.820170" lon="9.497203">
<ele>282.5</ele>
<speed>99.5</speed>
<course>201.2</course>
<desc>Speed 99.5 km/h Distance 75.42 km</desc>
<time>2010-09-11T15:43:08.48</time>
<name>2276</name>
</trkpt>
<trkpt lat="49.817652" lon="9.495688">
<ele>283.0</ele>
<speed>69.1</speed>
<course>221.3</course>
<desc>Speed 69.1 km/h Distance 75.72 km</desc>
<time>2010-09-11T15:43:13.48</time>
<name>2277</name>
</trkpt>
<trkpt lat="49.817032" lon="9.494845">
<ele>282.5</ele>
<speed>48.2</speed>
<course>239.4</course>
<desc>Speed 48.2 km/h Distance 75.81 km</desc>
<time>2010-09-11T15:43:17.48</time>
<name>2278</name>
</trkpt>
<trkpt lat="49.816788" lon="9.494207">
<ele>279.5</ele>
<speed>48.2</speed>
<course>242.3</course>
<desc>Speed 48.2 km/h Distance 75.87 km</desc>
<time>2010-09-11T15:43:20.48</time>
<name>2279</name>
</trkpt>
<trkpt lat="49.816677" lon="9.493877">
<ele>279.5</ele>
<speed>48.2</speed>
<course>238.6</course>
<desc>Speed 48.2 km/h Distance 75.89 km</desc>
<time>2010-09-11T15:43:24.47</time>
<name>2280</name>
</trkpt>
<trkpt lat="49.816572" lon="9.493610">
<ele>279.5</ele>
<speed>48.2</speed>
<course>250.1</course>
<desc>Speed 48.2 km/h Distance 75.92 km</desc>
<time>2010-09-11T15:43:29.47</time>
<name>2281</name>
</trkpt>
<trkpt lat="49.816532" lon="9.493438">
<ele>280.5</ele>
<speed>48.2</speed>
<course>223.6</course>
<desc>Speed 48.2 km/h Distance 75.93 km</desc>
<time>2010-09-11T15:43:30.47</time>
<name>2282</name>
</trkpt>
<trkpt lat="49.816388" lon="9.493227">
<ele>279.0</ele>
<speed>48.2</speed>
<course>214.9</course>
<desc>Speed 48.2 km/h Distance 75.95 km</desc>
<time>2010-09-11T15:43:34.46</time>
<name>2283</name>
</trkpt>
<trkpt lat="49.816178" lon="9.493000">
<ele>279.5</ele>
<speed>48.2</speed>
<course>187.1</course>
<desc>Speed 48.2 km/h Distance 75.98 km</desc>
<time>2010-09-11T15:43:40.46</time>
<name>2284</name>
</trkpt>
<trkpt lat="49.815162" lon="9.492803">
<ele>279.0</ele>
<speed>111</speed>
<course>176.7</course>
<desc>Speed 111 km/h Distance 76.09 km</desc>
<time>2010-09-11T15:43:46.46</time>
<name>2285</name>
</trkpt>
<trkpt lat="49.814235" lon="9.492885">
<ele>279.0</ele>
<speed>111</speed>
<course>170.1</course>
<desc>Speed 111 km/h Distance 76.20 km</desc>
<time>2010-09-11T15:43:52.46</time>
<name>2286</name>
</trkpt>
<trkpt lat="49.813792" lon="9.493005">
<ele>279.0</ele>
<speed>111</speed>
<course>147.7</course>
<desc>Speed 111 km/h Distance 76.25 km</desc>
<time>2010-09-11T15:43:55.45</time>
<name>2287</name>
</trkpt>
<trkpt lat="49.812850" lon="9.493927">
<ele>278.5</ele>
<speed>111</speed>
<course>159.7</course>
<desc>Speed 111 km/h Distance 76.37 km</desc>
<time>2010-09-11T15:43:57.45</time>
<name>2288</name>
</trkpt>
<trkpt lat="49.812382" lon="9.494195">
<ele>278.5</ele>
<speed>111</speed>
<course>151.6</course>
<desc>Speed 111 km/h Distance 76.43 km</desc>
<time>2010-09-11T15:44:02.44</time>
<name>2289</name>
</trkpt>
<trkpt lat="49.812247" lon="9.494308">
<ele>278.5</ele>
<speed>111</speed>
<course>201.3</course>
<desc>Speed 111 km/h Distance 76.44 km</desc>
<time>2010-09-11T15:44:04.45</time>
<name>2290</name>
</trkpt>
<trkpt lat="49.811907" lon="9.494103">
<ele>278.5</ele>
<speed>111</speed>
<course>143.8</course>
<desc>Speed 111 km/h Distance 76.48 km</desc>
<time>2010-09-11T15:44:06.44</time>
<name>2291</name>
</trkpt>
<trkpt lat="49.810408" lon="9.495802">
<ele>278.0</ele>
<speed>111</speed>
<course>194.1</course>
<desc>Speed 111 km/h Distance 76.69 km</desc>
<time>2010-09-11T15:44:14.44</time>
<name>2292</name>
</trkpt>
<trkpt lat="49.809730" lon="9.495537">
<ele>278.0</ele>
<speed>111</speed>
<course>158.5</course>
<desc>Speed 111 km/h Distance 76.77 km</desc>
<time>2010-09-11T15:44:16.43</time>
<name>2293</name>
</trkpt>
<trkpt lat="49.807743" lon="9.496748">
<ele>278.0</ele>
<speed>111</speed>
<course>194.3</course>
<desc>Speed 111 km/h Distance 77.01 km</desc>
<time>2010-09-11T15:44:22.43</time>
<name>2294</name>
</trkpt>
<trkpt lat="49.805453" lon="9.495845">
<ele>278.0</ele>
<speed>111</speed>
<course>188.9</course>
<desc>Speed 111 km/h Distance 77.27 km</desc>
<time>2010-09-11T15:44:26.43</time>
<name>2295</name>
</trkpt>
<trkpt lat="49.804497" lon="9.495613">
<ele>278.0</ele>
<speed>111</speed>
<course>184.5</course>
<desc>Speed 111 km/h Distance 77.38 km</desc>
<time>2010-09-11T15:44:30.44</time>
<name>2296</name>
</trkpt>
<trkpt lat="49.803787" lon="9.495527">
<ele>278.0</ele>
<speed>111</speed>
<course>189.2</course>
<desc>Speed 111 km/h Distance 77.46 km</desc>
<time>2010-09-11T15:44:35.44</time>
<name>2297</name>
</trkpt>
<trkpt lat="49.802902" lon="9.495305">
<ele>278.0</ele>
<speed>111</speed>
<course>175.2</course>
<desc>Speed 111 km/h Distance 77.56 km</desc>
<time>2010-09-11T15:44:41.43</time>
<name>2298</name>
</trkpt>
<trkpt lat="49.801842" lon="9.495443">
<ele>278.0</ele>
<speed>111</speed>
<course>184.7</course>
<desc>Speed 111 km/h Distance 77.67 km</desc>
<time>2010-09-11T15:44:43.43</time>
<name>2299</name>
</trkpt>
<trkpt lat="49.800427" lon="9.495262">
<ele>277.5</ele>
<speed>111</speed>
<course>210.9</course>
<desc>Speed 111 km/h Distance 77.83 km</desc>
<time>2010-09-11T15:44:48.43</time>
<name>2300</name>
</trkpt>
<trkpt lat="49.799702" lon="9.494590">
<ele>277.5</ele>
<speed>111</speed>
<course>180.4</course>
<desc>Speed 111 km/h Distance 77.93 km</desc>
<time>2010-09-11T15:44:50.43</time>
<name>2301</name>
</trkpt>
<trkpt lat="49.798585" lon="9.494578">
<ele>277.5</ele>
<speed>111</speed>
<course>167.0</course>
<desc>Speed 111 km/h Distance 78.05 km</desc>
<time>2010-09-11T15:44:52.44</time>
<name>2302</name>
</trkpt>
<trkpt lat="49.798097" lon="9.494753">
<ele>278.0</ele>
<speed>111</speed>
<course>202.7</course>
<desc>Speed 111 km/h Distance 78.11 km</desc>
<time>2010-09-11T15:44:54.43</time>
<name>2303</name>
</trkpt>
<trkpt lat="49.797545" lon="9.494395">
<ele>278.0</ele>
<speed>111</speed>
<course>180.9</course>
<desc>Speed 111 km/h Distance 78.17 km</desc>
<time>2010-09-11T15:44:56.42</time>
<name>2304</name>
</trkpt>
<trkpt lat="49.796757" lon="9.494377">
<ele>278.0</ele>
<speed>111</speed>
<course>188.6</course>
<desc>Speed 111 km/h Distance 78.26 km</desc>
<time>2010-09-11T15:44:59.42</time>
<name>2305</name>
</trkpt>
<trkpt lat="49.796042" lon="9.494208">
<ele>278.0</ele>
<speed>111</speed>
<course>178.6</course>
<desc>Speed 111 km/h Distance 78.34 km</desc>
<time>2010-09-11T15:45:02.42</time>
<name>2306</name>
</trkpt>
<trkpt lat="49.795098" lon="9.494245">
<ele>277.5</ele>
<speed>60.3</speed>
<course>152.6</course>
<desc>Speed 60.3 km/h Distance 78.45 km</desc>
<time>2010-09-11T15:45:08.42</time>
<name>2307</name>
</trkpt>
<trkpt lat="49.794862" lon="9.494435">
<ele>277.5</ele>
<speed>60.3</speed>
<course>157.7</course>
<desc>Speed 60.3 km/h Distance 78.48 km</desc>
<time>2010-09-11T15:45:10.43</time>
<name>2308</name>
</trkpt>
<trkpt lat="49.794510" lon="9.494658">
<ele>277.5</ele>
<speed>60.3</speed>
<course>170.8</course>
<desc>Speed 60.3 km/h Distance 78.52 km</desc>
<time>2010-09-11T15:45:14.42</time>
<name>2309</name>
</trkpt>
<trkpt lat="49.792542" lon="9.495150">
<ele>278.5</ele>
<speed>60.3</speed>
<course>195.9</course>
<desc>Speed 60.3 km/h Distance 78.74 km</desc>
<time>2010-09-11T15:45:23.41</time>
<name>2310</name>
</trkpt>
<trkpt lat="49.792202" lon="9.495000">
<ele>278.5</ele>
<speed>60.3</speed>
<course>228.9</course>
<desc>Speed 60.3 km/h Distance 78.78 km</desc>
<time>2010-09-11T15:45:25.41</time>
<name>2311</name>
</trkpt>
<trkpt lat="49.791748" lon="9.494195">
<ele>279.0</ele>
<speed>60.3</speed>
<course>233.0</course>
<desc>Speed 60.3 km/h Distance 78.86 km</desc>
<time>2010-09-11T15:45:32.40</time>
<name>2312</name>
</trkpt>
<trkpt lat="49.791208" lon="9.493087">
<ele>277.5</ele>
<speed>60.3</speed>
<course>206.5</course>
<desc>Speed 60.3 km/h Distance 78.96 km</desc>
<time>2010-09-11T15:45:36.52</time>
<name>2313</name>
</trkpt>
<trkpt lat="49.790895" lon="9.492845">
<ele>276.5</ele>
<speed>60.3</speed>
<course>153.8</course>
<desc>Speed 60.3 km/h Distance 79.00 km</desc>
<time>2010-09-11T15:45:42.39</time>
<name>2314</name>
</trkpt>
<trkpt lat="49.790600" lon="9.493070">
<ele>274.5</ele>
<speed>40.3</speed>
<course>149.5</course>
<desc>Speed 40.3 km/h Distance 79.03 km</desc>
<time>2010-09-11T15:45:45.39</time>
<name>2315</name>
</trkpt>
<trkpt lat="49.790487" lon="9.493173">
<ele>273.0</ele>
<speed>34.6</speed>
<course>173.3</course>
<desc>Speed 34.6 km/h Distance 79.05 km</desc>
<time>2010-09-11T15:45:47.39</time>
<name>2316</name>
</trkpt>
<trkpt lat="49.790387" lon="9.493192">
<ele>273.0</ele>
<speed>38.8</speed>
<course>189.6</course>
<desc>Speed 38.8 km/h Distance 79.06 km</desc>
<time>2010-09-11T15:45:48.39</time>
<name>2317</name>
</trkpt>
<trkpt lat="49.790260" lon="9.493158">
<ele>272.5</ele>
<speed>26.1</speed>
<course>200.5</course>
<desc>Speed 26.1 km/h Distance 79.07 km</desc>
<time>2010-09-11T15:45:50.39</time>
<name>2318</name>
</trkpt>
<trkpt lat="49.790208" lon="9.493128">
<ele>272.5</ele>
<speed>26.1</speed>
<course>247.8</course>
<desc>Speed 26.1 km/h Distance 79.08 km</desc>
<time>2010-09-11T15:45:51.39</time>
<name>2319</name>
</trkpt>
<trkpt lat="49.790183" lon="9.493033">
<ele>271.5</ele>
<speed>26.1</speed>
<course>258.2</course>
<desc>Speed 26.1 km/h Distance 79.09 km</desc>
<time>2010-09-11T15:45:54.39</time>
<name>2320</name>
</trkpt>
<trkpt lat="49.790168" lon="9.492922">
<ele>270.5</ele>
<speed>26.1</speed>
<course>287.3</course>
<desc>Speed 26.1 km/h Distance 79.09 km</desc>
<time>2010-09-11T15:45:57.39</time>
<name>2321</name>
</trkpt>
<trkpt lat="49.790270" lon="9.492415">
<ele>269.0</ele>
<speed>38.7</speed>
<course>253.2</course>
<desc>Speed 38.7 km/h Distance 79.13 km</desc>
<time>2010-09-11T15:46:00.39</time>
<name>2322</name>
</trkpt>
<trkpt lat="49.790243" lon="9.492278">
<ele>268.5</ele>
<speed>38.7</speed>
<course>259.8</course>
<desc>Speed 38.7 km/h Distance 79.14 km</desc>
<time>2010-09-11T15:46:01.38</time>
<name>2323</name>
</trkpt>
<trkpt lat="49.790218" lon="9.492063">
<ele>268.5</ele>
<speed>38.7</speed>
<course>293.3</course>
<desc>Speed 38.7 km/h Distance 79.16 km</desc>
<time>2010-09-11T15:46:04.39</time>
<name>2324</name>
</trkpt>
<trkpt lat="49.790272" lon="9.491872">
<ele>268.5</ele>
<speed>38.7</speed>
<course>310.1</course>
<desc>Speed 38.7 km/h Distance 79.17 km</desc>
<time>2010-09-11T15:46:08.38</time>
<name>2325</name>
</trkpt>
<trkpt lat="49.790345" lon="9.491737">
<ele>268.5</ele>
<speed>38.7</speed>
<course>359.8</course>
<desc>Speed 38.7 km/h Distance 79.19 km</desc>
<time>2010-09-11T15:46:12.38</time>
<name>2326</name>
</trkpt>
<trkpt lat="49.790560" lon="9.491735">
<ele>269.0</ele>
<speed>38.7</speed>
<course>330.3</course>
<desc>Speed 38.7 km/h Distance 79.21 km</desc>
<time>2010-09-11T15:46:16.37</time>
<name>2327</name>
</trkpt>
<trkpt lat="49.790718" lon="9.491595">
<ele>269.0</ele>
<speed>38.7</speed>
<course>292.1</course>
<desc>Speed 38.7 km/h Distance 79.23 km</desc>
<time>2010-09-11T15:46:20.38</time>
<name>2328</name>
</trkpt>
<trkpt lat="49.790797" lon="9.491297">
<ele>269.0</ele>
<speed>38.7</speed>
<course>308.1</course>
<desc>Speed 38.7 km/h Distance 79.25 km</desc>
<time>2010-09-11T15:46:23.38</time>
<name>2329</name>
</trkpt>
<trkpt lat="49.791002" lon="9.490892">
<ele>269.0</ele>
<speed>38.7</speed>
<course>302.3</course>
<desc>Speed 38.7 km/h Distance 79.29 km</desc>
<time>2010-09-11T15:46:26.38</time>
<name>2330</name>
</trkpt>
<trkpt lat="49.791057" lon="9.490757">
<ele>269.0</ele>
<speed>38.7</speed>
<course>281.3</course>
<desc>Speed 38.7 km/h Distance 79.30 km</desc>
<time>2010-09-11T15:46:30.37</time>
<name>2331</name>
</trkpt>
<trkpt lat="49.791093" lon="9.490472">
<ele>269.0</ele>
<speed>38.7</speed>
<course>323.4</course>
<desc>Speed 38.7 km/h Distance 79.32 km</desc>
<time>2010-09-11T15:46:33.37</time>
<name>2332</name>
</trkpt>
<trkpt lat="49.791225" lon="9.490320">
<ele>269.0</ele>
<speed>38.7</speed>
<course>314.6</course>
<desc>Speed 38.7 km/h Distance 79.34 km</desc>
<time>2010-09-11T15:46:35.37</time>
<name>2333</name>
</trkpt>
<trkpt lat="49.791443" lon="9.489977">
<ele>269.0</ele>
<speed>38.7</speed>
<course>274.2</course>
<desc>Speed 38.7 km/h Distance 79.38 km</desc>
<time>2010-09-11T15:46:37.86</time>
<name>2334</name>
</trkpt>
<trkpt lat="49.791452" lon="9.489800">
<ele>269.0</ele>
<speed>38.7</speed>
<course>266.3</course>
<desc>Speed 38.7 km/h Distance 79.39 km</desc>
<time>2010-09-11T15:46:39.37</time>
<name>2335</name>
</trkpt>
<trkpt lat="49.791442" lon="9.489563">
<ele>269.0</ele>
<speed>38.7</speed>
<course>264.9</course>
<desc>Speed 38.7 km/h Distance 79.40 km</desc>
<time>2010-09-11T15:46:41.36</time>
<name>2336</name>
</trkpt>
<trkpt lat="49.791433" lon="9.489420">
<ele>269.0</ele>
<speed>38.7</speed>
<course>229.5</course>
<desc>Speed 38.7 km/h Distance 79.42 km</desc>
<time>2010-09-11T15:46:42.36</time>
<name>2337</name>
</trkpt>
<trkpt lat="49.791275" lon="9.489133">
<ele>269.0</ele>
<speed>38.7</speed>
<course>236.6</course>
<desc>Speed 38.7 km/h Distance 79.44 km</desc>
<time>2010-09-11T15:46:44.36</time>
<name>2338</name>
</trkpt>
<trkpt lat="49.791083" lon="9.488683">
<ele>269.0</ele>
<speed>6.8</speed>
<course>251.2</course>
<desc>Speed 6.8 km/h Distance 79.48 km</desc>
<time>2010-09-11T15:46:49.36</time>
<name>2339</name>
</trkpt>
<trkpt lat="49.791065" lon="9.488600">
<ele>269.0</ele>
<speed>6.8</speed>
<course>230.1</course>
<desc>Speed 6.8 km/h Distance 79.49 km</desc>
<time>2010-09-11T15:46:51.36</time>
<name>2340</name>
</trkpt>
<trkpt lat="49.791053" lon="9.488578">
<ele>269.0</ele>
<speed>6.8</speed>
<course>264.1</course>
<desc>Speed 6.8 km/h Distance 79.49 km</desc>
<time>2010-09-11T15:46:52.36</time>
<name>2341</name>
</trkpt>
<trkpt lat="49.790873" lon="9.485890">
<ele>270.0</ele>
<speed>6.8</speed>
<course>269.5</course>
<desc>Speed 6.8 km/h Distance 79.68 km</desc>
<time>2010-09-11T15:47:01.36</time>
<name>2342</name>
</trkpt>
<trkpt lat="49.790867" lon="9.484735">
<ele>269.0</ele>
<speed>6.8</speed>
<course>236.9</course>
<desc>Speed 6.8 km/h Distance 79.77 km</desc>
<time>2010-09-11T15:47:07.35</time>
<name>2343</name>
</trkpt>
<trkpt lat="49.790703" lon="9.484347">
<ele>269.0</ele>
<speed>6.8</speed>
<course>248.2</course>
<desc>Speed 6.8 km/h Distance 79.80 km</desc>
<time>2010-09-11T15:47:11.34</time>
<name>2344</name>
</trkpt>
<trkpt lat="49.790395" lon="9.483152">
<ele>268.5</ele>
<speed>6.8</speed>
<course>240.3</course>
<desc>Speed 6.8 km/h Distance 79.89 km</desc>
<time>2010-09-11T15:47:14.35</time>
<name>2345</name>
</trkpt>
<trkpt lat="49.789967" lon="9.481987">
<ele>268.5</ele>
<speed>6.8</speed>
<course>288.9</course>
<desc>Speed 6.8 km/h Distance 79.99 km</desc>
<time>2010-09-11T15:47:20.34</time>
<name>2346</name>
</trkpt>
<trkpt lat="49.790295" lon="9.480498">
<ele>268.5</ele>
<speed>6.8</speed>
<course>248.8</course>
<desc>Speed 6.8 km/h Distance 80.10 km</desc>
<time>2010-09-11T15:47:22.34</time>
<name>2347</name>
</trkpt>
<trkpt lat="49.789725" lon="9.478225">
<ele>266.0</ele>
<speed>80.2</speed>
<course>228.6</course>
<desc>Speed 80.2 km/h Distance 80.28 km</desc>
<time>2010-09-11T15:47:28.34</time>
<name>2348</name>
</trkpt>
<trkpt lat="49.788577" lon="9.476207">
<ele>263.5</ele>
<speed>109</speed>
<course>230.5</course>
<desc>Speed 109 km/h Distance 80.47 km</desc>
<time>2010-09-11T15:47:34.34</time>
<name>2349</name>
</trkpt>
<trkpt lat="49.788252" lon="9.475597">
<ele>262.5</ele>
<speed>109</speed>
<course>225.5</course>
<desc>Speed 109 km/h Distance 80.53 km</desc>
<time>2010-09-11T15:47:36.33</time>
<name>2350</name>
</trkpt>
<trkpt lat="49.787857" lon="9.474973">
<ele>260.5</ele>
<speed>117</speed>
<course>222.6</course>
<desc>Speed 117 km/h Distance 80.59 km</desc>
<time>2010-09-11T15:47:38.34</time>
<name>2351</name>
</trkpt>
<trkpt lat="49.787387" lon="9.474305">
<ele>257.5</ele>
<speed>105</speed>
<course>220.5</course>
<desc>Speed 105 km/h Distance 80.66 km</desc>
<time>2010-09-11T15:47:40.33</time>
<name>2352</name>
</trkpt>
<trkpt lat="49.787010" lon="9.473807">
<ele>254.5</ele>
<speed>105</speed>
<course>214.4</course>
<desc>Speed 105 km/h Distance 80.72 km</desc>
<time>2010-09-11T15:47:42.34</time>
<name>2353</name>
</trkpt>
<trkpt lat="49.786363" lon="9.473122">
<ele>251.0</ele>
<speed>105</speed>
<course>233.7</course>
<desc>Speed 105 km/h Distance 80.80 km</desc>
<time>2010-09-11T15:47:47.32</time>
<name>2354</name>
</trkpt>
<trkpt lat="49.785790" lon="9.471915">
<ele>250.0</ele>
<speed>105</speed>
<course>199.1</course>
<desc>Speed 105 km/h Distance 80.91 km</desc>
<time>2010-09-11T15:47:51.33</time>
<name>2355</name>
</trkpt>
<trkpt lat="49.785070" lon="9.471528">
<ele>249.0</ele>
<speed>105</speed>
<course>200.7</course>
<desc>Speed 105 km/h Distance 81.00 km</desc>
<time>2010-09-11T15:47:54.32</time>
<name>2356</name>
</trkpt>
<trkpt lat="49.784190" lon="9.471013">
<ele>249.5</ele>
<speed>105</speed>
<course>201.4</course>
<desc>Speed 105 km/h Distance 81.10 km</desc>
<time>2010-09-11T15:47:56.41</time>
<name>2357</name>
</trkpt>
<trkpt lat="49.781757" lon="9.469538">
<ele>250.5</ele>
<speed>105</speed>
<course>185.5</course>
<desc>Speed 105 km/h Distance 81.39 km</desc>
<time>2010-09-11T15:48:03.31</time>
<name>2358</name>
</trkpt>
<trkpt lat="49.780483" lon="9.469350">
<ele>250.5</ele>
<speed>105</speed>
<course>186.9</course>
<desc>Speed 105 km/h Distance 81.53 km</desc>
<time>2010-09-11T15:48:07.31</time>
<name>2359</name>
</trkpt>
<trkpt lat="49.780313" lon="9.469318">
<ele>250.0</ele>
<speed>105</speed>
<course>262.4</course>
<desc>Speed 105 km/h Distance 81.55 km</desc>
<time>2010-09-11T15:48:12.31</time>
<name>2360</name>
</trkpt>
<trkpt lat="49.780293" lon="9.469085">
<ele>250.0</ele>
<speed>105</speed>
<course>202.9</course>
<desc>Speed 105 km/h Distance 81.57 km</desc>
<time>2010-09-11T15:48:17.31</time>
<name>2361</name>
</trkpt>
<trkpt lat="49.778260" lon="9.467755">
<ele>250.5</ele>
<speed>105</speed>
<course>197.2</course>
<desc>Speed 105 km/h Distance 81.82 km</desc>
<time>2010-09-11T15:48:20.31</time>
<name>2362</name>
</trkpt>
<trkpt lat="49.777915" lon="9.467590">
<ele>250.5</ele>
<speed>105</speed>
<course>198.9</course>
<desc>Speed 105 km/h Distance 81.86 km</desc>
<time>2010-09-11T15:48:26.31</time>
<name>2363</name>
</trkpt>
<trkpt lat="49.776540" lon="9.466862">
<ele>250.0</ele>
<speed>105</speed>
<course>245.5</course>
<desc>Speed 105 km/h Distance 82.02 km</desc>
<time>2010-09-11T15:48:30.30</time>
<name>2364</name>
</trkpt>
<trkpt lat="49.776215" lon="9.465755">
<ele>250.5</ele>
<speed>105</speed>
<course>233.6</course>
<desc>Speed 105 km/h Distance 82.10 km</desc>
<time>2010-09-11T15:48:34.30</time>
<name>2365</name>
</trkpt>
<trkpt lat="49.775617" lon="9.464497">
<ele>250.5</ele>
<speed>105</speed>
<course>233.2</course>
<desc>Speed 105 km/h Distance 82.22 km</desc>
<time>2010-09-11T15:48:36.30</time>
<name>2366</name>
</trkpt>
<trkpt lat="49.775090" lon="9.463405">
<ele>250.5</ele>
<speed>105</speed>
<course>242.0</course>
<desc>Speed 105 km/h Distance 82.32 km</desc>
<time>2010-09-11T15:48:41.30</time>
<name>2367</name>
</trkpt>
<trkpt lat="49.774630" lon="9.462065">
<ele>250.5</ele>
<speed>105</speed>
<course>262.7</course>
<desc>Speed 105 km/h Distance 82.42 km</desc>
<time>2010-09-11T15:48:47.30</time>
<name>2368</name>
</trkpt>
<trkpt lat="49.774347" lon="9.458652">
<ele>247.0</ele>
<speed>104</speed>
<course>284.0</course>
<desc>Speed 104 km/h Distance 82.67 km</desc>
<time>2010-09-11T15:48:52.30</time>
<name>2369</name>
</trkpt>
<trkpt lat="49.774472" lon="9.457877">
<ele>234.0</ele>
<speed>112</speed>
<course>291.5</course>
<desc>Speed 112 km/h Distance 82.73 km</desc>
<time>2010-09-11T15:48:54.29</time>
<name>2370</name>
</trkpt>
<trkpt lat="49.774667" lon="9.457110">
<ele>225.0</ele>
<speed>112</speed>
<course>291.5</course>
<desc>Speed 112 km/h Distance 82.79 km</desc>
<time>2010-09-11T15:48:56.30</time>
<name>2371</name>
</trkpt>
<trkpt lat="49.774865" lon="9.456332">
<ele>227.0</ele>
<speed>111</speed>
<course>301.6</course>
<desc>Speed 111 km/h Distance 82.85 km</desc>
<time>2010-09-11T15:48:58.29</time>
<name>2372</name>
</trkpt>
<trkpt lat="49.775395" lon="9.454998">
<ele>212.5</ele>
<speed>111</speed>
<course>289.7</course>
<desc>Speed 111 km/h Distance 82.96 km</desc>
<time>2010-09-11T15:49:04.30</time>
<name>2373</name>
</trkpt>
<trkpt lat="49.775552" lon="9.454322">
<ele>203.0</ele>
<speed>111</speed>
<course>299.1</course>
<desc>Speed 111 km/h Distance 83.01 km</desc>
<time>2010-09-11T15:49:10.29</time>
<name>2374</name>
</trkpt>
<trkpt lat="49.776068" lon="9.452883">
<ele>193.5</ele>
<speed>111</speed>
<course>255.7</course>
<desc>Speed 111 km/h Distance 83.13 km</desc>
<time>2010-09-11T15:49:15.27</time>
<name>2375</name>
</trkpt>
<trkpt lat="49.775828" lon="9.451427">
<ele>194.0</ele>
<speed>111</speed>
<course>342.2</course>
<desc>Speed 111 km/h Distance 83.24 km</desc>
<time>2010-09-11T15:49:18.28</time>
<name>2376</name>
</trkpt>
<trkpt lat="49.776953" lon="9.450867">
<ele>197.0</ele>
<speed>111</speed>
<course>345.0</course>
<desc>Speed 111 km/h Distance 83.37 km</desc>
<time>2010-09-11T15:49:24.28</time>
<name>2377</name>
</trkpt>
<trkpt lat="49.777570" lon="9.450610">
<ele>197.0</ele>
<speed>111</speed>
<course>308.3</course>
<desc>Speed 111 km/h Distance 83.44 km</desc>
<time>2010-09-11T15:49:30.27</time>
<name>2378</name>
</trkpt>
<trkpt lat="49.777798" lon="9.450162">
<ele>197.0</ele>
<speed>111</speed>
<course>298.2</course>
<desc>Speed 111 km/h Distance 83.48 km</desc>
<time>2010-09-11T15:49:36.27</time>
<name>2379</name>
</trkpt>
<trkpt lat="49.778252" lon="9.448853">
<ele>197.0</ele>
<speed>111</speed>
<course>298.8</course>
<desc>Speed 111 km/h Distance 83.59 km</desc>
<time>2010-09-11T15:49:41.27</time>
<name>2380</name>
</trkpt>
<trkpt lat="49.778432" lon="9.448347">
<ele>197.0</ele>
<speed>111</speed>
<course>309.3</course>
<desc>Speed 111 km/h Distance 83.63 km</desc>
<time>2010-09-11T15:49:47.26</time>
<name>2381</name>
</trkpt>
<trkpt lat="49.780398" lon="9.444623">
<ele>196.5</ele>
<speed>111</speed>
<course>280.9</course>
<desc>Speed 111 km/h Distance 83.98 km</desc>
<time>2010-09-11T15:49:53.26</time>
<name>2382</name>
</trkpt>
<trkpt lat="49.780513" lon="9.443702">
<ele>196.0</ele>
<speed>111</speed>
<course>295.3</course>
<desc>Speed 111 km/h Distance 84.04 km</desc>
<time>2010-09-11T15:49:55.26</time>
<name>2383</name>
</trkpt>
<trkpt lat="49.780798" lon="9.442768">
<ele>196.5</ele>
<speed>111</speed>
<course>342.8</course>
<desc>Speed 111 km/h Distance 84.12 km</desc>
<time>2010-09-11T15:50:01.25</time>
<name>2384</name>
</trkpt>
<trkpt lat="49.781205" lon="9.442573">
<ele>197.0</ele>
<speed>111</speed>
<course>332.9</course>
<desc>Speed 111 km/h Distance 84.17 km</desc>
<time>2010-09-11T15:50:07.25</time>
<name>2385</name>
</trkpt>
<trkpt lat="49.781812" lon="9.442093">
<ele>196.0</ele>
<speed>111</speed>
<course>344.0</course>
<desc>Speed 111 km/h Distance 84.24 km</desc>
<time>2010-09-11T15:50:10.25</time>
<name>2386</name>
</trkpt>
<trkpt lat="49.782553" lon="9.441765">
<ele>197.0</ele>
<speed>111</speed>
<course>336.1</course>
<desc>Speed 111 km/h Distance 84.33 km</desc>
<time>2010-09-11T15:50:16.24</time>
<name>2387</name>
</trkpt>
<trkpt lat="49.783178" lon="9.441337">
<ele>195.0</ele>
<speed>54.5</speed>
<course>326.5</course>
<desc>Speed 54.5 km/h Distance 84.40 km</desc>
<time>2010-09-11T15:50:21.24</time>
<name>2388</name>
</trkpt>
<trkpt lat="49.783460" lon="9.441048">
<ele>193.0</ele>
<speed>52.3</speed>
<course>333.6</course>
<desc>Speed 52.3 km/h Distance 84.44 km</desc>
<time>2010-09-11T15:50:23.24</time>
<name>2389</name>
</trkpt>
<trkpt lat="49.783675" lon="9.440883">
<ele>192.5</ele>
<speed>52.3</speed>
<course>342.2</course>
<desc>Speed 52.3 km/h Distance 84.47 km</desc>
<time>2010-09-11T15:50:25.24</time>
<name>2390</name>
</trkpt>
<trkpt lat="49.784013" lon="9.440715">
<ele>193.0</ele>
<speed>38.8</speed>
<course>352.2</course>
<desc>Speed 38.8 km/h Distance 84.51 km</desc>
<time>2010-09-11T15:50:29.24</time>
<name>2391</name>
</trkpt>
<trkpt lat="49.784217" lon="9.440672">
<ele>193.0</ele>
<speed>38.8</speed>
<course>358.9</course>
<desc>Speed 38.8 km/h Distance 84.53 km</desc>
<time>2010-09-11T15:50:31.24</time>
<name>2392</name>
</trkpt>
<trkpt lat="49.784388" lon="9.440667">
<ele>192.5</ele>
<speed>38.8</speed>
<course>3.0</course>
<desc>Speed 38.8 km/h Distance 84.55 km</desc>
<time>2010-09-11T15:50:33.24</time>
<name>2393</name>
</trkpt>
<trkpt lat="49.784575" lon="9.440682">
<ele>194.0</ele>
<speed>38.8</speed>
<course>324.9</course>
<desc>Speed 38.8 km/h Distance 84.57 km</desc>
<time>2010-09-11T15:50:35.23</time>
<name>2394</name>
</trkpt>
<trkpt lat="49.784688" lon="9.440558">
<ele>195.0</ele>
<speed>38.8</speed>
<course>328.6</course>
<desc>Speed 38.8 km/h Distance 84.59 km</desc>
<time>2010-09-11T15:50:37.24</time>
<name>2395</name>
</trkpt>
<trkpt lat="49.784868" lon="9.440388">
<ele>194.5</ele>
<speed>34.1</speed>
<course>317.1</course>
<desc>Speed 34.1 km/h Distance 84.61 km</desc>
<time>2010-09-11T15:50:39.23</time>
<name>2396</name>
</trkpt>
<trkpt lat="49.785038" lon="9.440143">
<ele>195.0</ele>
<speed>34.1</speed>
<course>322.0</course>
<desc>Speed 34.1 km/h Distance 84.64 km</desc>
<time>2010-09-11T15:50:41.23</time>
<name>2397</name>
</trkpt>
<trkpt lat="49.785213" lon="9.439932">
<ele>191.5</ele>
<speed>17.2</speed>
<course>323.3</course>
<desc>Speed 17.2 km/h Distance 84.66 km</desc>
<time>2010-09-11T15:50:44.23</time>
<name>2398</name>
</trkpt>
<trkpt lat="49.785947" lon="9.439085">
<ele>185.0</ele>
<speed>42.4</speed>
<course>332.0</course>
<desc>Speed 42.4 km/h Distance 84.76 km</desc>
<time>2010-09-11T15:50:50.22</time>
<name>2399</name>
</trkpt>
<trkpt lat="49.786143" lon="9.438923">
<ele>185.0</ele>
<speed>42.4</speed>
<course>329.7</course>
<desc>Speed 42.4 km/h Distance 84.79 km</desc>
<time>2010-09-11T15:50:52.23</time>
<name>2400</name>
</trkpt>
<trkpt lat="49.786337" lon="9.438748">
<ele>185.5</ele>
<speed>43.8</speed>
<course>336.4</course>
<desc>Speed 43.8 km/h Distance 84.81 km</desc>
<time>2010-09-11T15:50:54.22</time>
<name>2401</name>
</trkpt>
<trkpt lat="49.786502" lon="9.438637">
<ele>186.0</ele>
<speed>43.8</speed>
<course>344.3</course>
<desc>Speed 43.8 km/h Distance 84.83 km</desc>
<time>2010-09-11T15:50:56.22</time>
<name>2402</name>
</trkpt>
<trkpt lat="49.786765" lon="9.438522">
<ele>186.0</ele>
<speed>53.1</speed>
<course>327.8</course>
<desc>Speed 53.1 km/h Distance 84.86 km</desc>
<time>2010-09-11T15:50:58.22</time>
<name>2403</name>
</trkpt>
<trkpt lat="49.787020" lon="9.438273">
<ele>185.5</ele>
<speed>52.5</speed>
<course>339.9</course>
<desc>Speed 52.5 km/h Distance 84.90 km</desc>
<time>2010-09-11T15:51:00.22</time>
<name>2404</name>
</trkpt>
<trkpt lat="49.787508" lon="9.437997">
<ele>184.0</ele>
<speed>56.8</speed>
<course>329.7</course>
<desc>Speed 56.8 km/h Distance 84.95 km</desc>
<time>2010-09-11T15:51:03.22</time>
<name>2405</name>
</trkpt>
<trkpt lat="49.787750" lon="9.437778">
<ele>185.0</ele>
<speed>54.8</speed>
<course>338.4</course>
<desc>Speed 54.8 km/h Distance 84.98 km</desc>
<time>2010-09-11T15:51:05.22</time>
<name>2406</name>
</trkpt>
<trkpt lat="49.788035" lon="9.437603">
<ele>184.5</ele>
<speed>59.1</speed>
<course>329.4</course>
<desc>Speed 59.1 km/h Distance 85.02 km</desc>
<time>2010-09-11T15:51:07.22</time>
<name>2407</name>
</trkpt>
<trkpt lat="49.788288" lon="9.437372">
<ele>184.5</ele>
<speed>59.2</speed>
<course>336.2</course>
<desc>Speed 59.2 km/h Distance 85.05 km</desc>
<time>2010-09-11T15:51:09.22</time>
<name>2408</name>
</trkpt>
<trkpt lat="49.788577" lon="9.437175">
<ele>184.5</ele>
<speed>60.8</speed>
<course>327.2</course>
<desc>Speed 60.8 km/h Distance 85.09 km</desc>
<time>2010-09-11T15:51:11.22</time>
<name>2409</name>
</trkpt>
<trkpt lat="49.788818" lon="9.436933">
<ele>185.0</ele>
<speed>54.1</speed>
<course>327.2</course>
<desc>Speed 54.1 km/h Distance 85.12 km</desc>
<time>2010-09-11T15:51:13.21</time>
<name>2410</name>
</trkpt>
<trkpt lat="49.789062" lon="9.436690">
<ele>184.0</ele>
<speed>54.1</speed>
<course>319.9</course>
<desc>Speed 54.1 km/h Distance 85.15 km</desc>
<time>2010-09-11T15:51:15.22</time>
<name>2411</name>
</trkpt>
<trkpt lat="49.789285" lon="9.436398">
<ele>182.5</ele>
<speed>56.0</speed>
<course>306.9</course>
<desc>Speed 56.0 km/h Distance 85.18 km</desc>
<time>2010-09-11T15:51:17.21</time>
<name>2412</name>
</trkpt>
<trkpt lat="49.789468" lon="9.436020">
<ele>183.5</ele>
<speed>59.4</speed>
<course>324.7</course>
<desc>Speed 59.4 km/h Distance 85.22 km</desc>
<time>2010-09-11T15:51:19.21</time>
<name>2413</name>
</trkpt>
<trkpt lat="49.789742" lon="9.435720">
<ele>182.5</ele>
<speed>64.0</speed>
<course>309.2</course>
<desc>Speed 64.0 km/h Distance 85.25 km</desc>
<time>2010-09-11T15:51:21.21</time>
<name>2414</name>
</trkpt>
<trkpt lat="49.789942" lon="9.435340">
<ele>182.5</ele>
<speed>62.2</speed>
<course>310.5</course>
<desc>Speed 62.2 km/h Distance 85.29 km</desc>
<time>2010-09-11T15:51:23.21</time>
<name>2415</name>
</trkpt>
<trkpt lat="49.790150" lon="9.434962">
<ele>182.5</ele>
<speed>65.1</speed>
<course>305.4</course>
<desc>Speed 65.1 km/h Distance 85.33 km</desc>
<time>2010-09-11T15:51:25.21</time>
<name>2416</name>
</trkpt>
<trkpt lat="49.790338" lon="9.434552">
<ele>183.5</ele>
<speed>60.1</speed>
<course>301.7</course>
<desc>Speed 60.1 km/h Distance 85.36 km</desc>
<time>2010-09-11T15:51:27.21</time>
<name>2417</name>
</trkpt>
<trkpt lat="49.790495" lon="9.434158">
<ele>183.5</ele>
<speed>60.1</speed>
<course>302.3</course>
<desc>Speed 60.1 km/h Distance 85.39 km</desc>
<time>2010-09-11T15:51:29.22</time>
<name>2418</name>
</trkpt>
<trkpt lat="49.790673" lon="9.433722">
<ele>184.0</ele>
<speed>60.1</speed>
<course>303.2</course>
<desc>Speed 60.1 km/h Distance 85.43 km</desc>
<time>2010-09-11T15:51:31.20</time>
<name>2419</name>
</trkpt>
<trkpt lat="49.790808" lon="9.433402">
<ele>185.0</ele>
<speed>60.1</speed>
<course>300.0</course>
<desc>Speed 60.1 km/h Distance 85.46 km</desc>
<time>2010-09-11T15:51:33.23</time>
<name>2420</name>
</trkpt>
<trkpt lat="49.790950" lon="9.433022">
<ele>186.0</ele>
<speed>53.1</speed>
<course>286.2</course>
<desc>Speed 53.1 km/h Distance 85.49 km</desc>
<time>2010-09-11T15:51:35.20</time>
<name>2421</name>
</trkpt>
<trkpt lat="49.791028" lon="9.432605">
<ele>187.5</ele>
<speed>53.1</speed>
<course>319.5</course>
<desc>Speed 53.1 km/h Distance 85.52 km</desc>
<time>2010-09-11T15:51:37.86</time>
<name>2422</name>
</trkpt>
<trkpt lat="49.791210" lon="9.432365">
<ele>186.5</ele>
<speed>53.1</speed>
<course>16.4</course>
<desc>Speed 53.1 km/h Distance 85.55 km</desc>
<time>2010-09-11T15:51:42.20</time>
<name>2423</name>
</trkpt>
<trkpt lat="49.791538" lon="9.432515">
<ele>188.0</ele>
<speed>37.9</speed>
<course>27.6</course>
<desc>Speed 37.9 km/h Distance 85.59 km</desc>
<time>2010-09-11T15:51:46.19</time>
<name>2424</name>
</trkpt>
<trkpt lat="49.791705" lon="9.432650">
<ele>190.5</ele>
<speed>37.9</speed>
<course>27.0</course>
<desc>Speed 37.9 km/h Distance 85.61 km</desc>
<time>2010-09-11T15:51:48.19</time>
<name>2425</name>
</trkpt>
<trkpt lat="49.791887" lon="9.432793">
<ele>189.5</ele>
<speed>0.8</speed>
<course>22.3</course>
<desc>Speed 0.8 km/h Distance 85.63 km</desc>
<time>2010-09-11T15:51:54.19</time>
<name>2426</name>
</trkpt>
<trkpt lat="49.791905" lon="9.432805">
<ele>189.0</ele>
<speed>0.5</speed>
<course>5.0</course>
<desc>Speed 0.5 km/h Distance 85.63 km</desc>
<time>2010-09-11T15:51:56.18</time>
<name>2427</name>
</trkpt>
<trkpt lat="49.791913" lon="9.432807">
<ele>189.0</ele>
<speed>1.7</speed>
<course>51.9</course>
<desc>Speed 1.7 km/h Distance 85.63 km</desc>
<time>2010-09-11T15:51:58.18</time>
<name>2428</name>
</trkpt>
<trkpt lat="49.791917" lon="9.432813">
<ele>189.5</ele>
<speed>0.7</speed>
<course>22.2</course>
<desc>Speed 0.7 km/h Distance 85.63 km</desc>
<time>2010-09-11T15:52:00.19</time>
<name>2429</name>
</trkpt>
<trkpt lat="49.791922" lon="9.432817">
<ele>189.5</ele>
<speed>0.5</speed>
<course>135.9</course>
<desc>Speed 0.5 km/h Distance 85.63 km</desc>
<time>2010-09-11T15:52:02.19</time>
<name>2430</name>
</trkpt>
<trkpt lat="49.791908" lon="9.432837">
<ele>190.0</ele>
<speed>0.8</speed>
<course>72.9</course>
<desc>Speed 0.8 km/h Distance 85.64 km</desc>
<time>2010-09-11T15:52:04.18</time>
<name>2431</name>
</trkpt>
<trkpt lat="49.791910" lon="9.432845">
<ele>191.0</ele>
<speed>0.3</speed>
<course>52.4</course>
<desc>Speed 0.3 km/h Distance 85.64 km</desc>
<time>2010-09-11T15:52:06.18</time>
<name>2432</name>
</trkpt>
<trkpt lat="49.791915" lon="9.432855">
<ele>191.5</ele>
<speed>0.4</speed>
<course>0.0</course>
<desc>Speed 0.4 km/h Distance 85.64 km</desc>
<time>2010-09-11T15:52:08.18</time>
<name>2433</name>
</trkpt>
<trkpt lat="49.791918" lon="9.432855">
<ele>192.0</ele>
<speed>0.4</speed>
<course>351.9</course>
<desc>Speed 0.4 km/h Distance 85.64 km</desc>
<time>2010-09-11T15:52:10.18</time>
<name>2434</name>
</trkpt>
<trkpt lat="49.791923" lon="9.432853">
<ele>192.0</ele>
<speed>0.5</speed>
<course>12.6</course>
<desc>Speed 0.5 km/h Distance 85.64 km</desc>
<time>2010-09-11T15:52:12.18</time>
<name>2435</name>
</trkpt>
<trkpt lat="49.791925" lon="9.432853">
<ele>192.0</ele>
<speed>0.5</speed>
<course>112.5</course>
<desc>Speed 0.5 km/h Distance 85.64 km</desc>
<time>2010-09-11T15:52:14.18</time>
<name>2436</name>
</trkpt>
<trkpt lat="49.791918" lon="9.432878">
<ele>192.5</ele>
<speed>1.1</speed>
<course>107.2</course>
<desc>Speed 1.1 km/h Distance 85.64 km</desc>
<time>2010-09-11T15:52:16.18</time>
<name>2437</name>
</trkpt>
<trkpt lat="49.791915" lon="9.432895">
<ele>193.0</ele>
<speed>0.5</speed>
<course>117.4</course>
<desc>Speed 0.5 km/h Distance 85.64 km</desc>
<time>2010-09-11T15:52:18.17</time>
<name>2438</name>
</trkpt>
<trkpt lat="49.791912" lon="9.432905">
<ele>193.0</ele>
<speed>0.5</speed>
<course>139.1</course>
<desc>Speed 0.5 km/h Distance 85.64 km</desc>
<time>2010-09-11T15:52:20.17</time>
<name>2439</name>
</trkpt>
<trkpt lat="49.791907" lon="9.432912">
<ele>193.0</ele>
<speed>0.6</speed>
<course>23.0</course>
<desc>Speed 0.6 km/h Distance 85.64 km</desc>
<time>2010-09-11T15:52:22.18</time>
<name>2440</name>
</trkpt>
<trkpt lat="49.791910" lon="9.432913">
<ele>192.5</ele>
<speed>2.2</speed>
<course>194.9</course>
<desc>Speed 2.2 km/h Distance 85.64 km</desc>
<time>2010-09-11T15:52:24.18</time>
<name>2441</name>
</trkpt>
<trkpt lat="49.791902" lon="9.432910">
<ele>192.0</ele>
<speed>3.2</speed>
<course>249.1</course>
<desc>Speed 3.2 km/h Distance 85.65 km</desc>
<time>2010-09-11T15:52:26.17</time>
<name>2442</name>
</trkpt>
<trkpt lat="49.791900" lon="9.432903">
<ele>191.5</ele>
<speed>0.7</speed>
<course>322.1</course>
<desc>Speed 0.7 km/h Distance 85.65 km</desc>
<time>2010-09-11T15:52:28.17</time>
<name>2443</name>
</trkpt>
<trkpt lat="49.791908" lon="9.432893">
<ele>191.0</ele>
<speed>0.6</speed>
<course>1.9</course>
<desc>Speed 0.6 km/h Distance 85.65 km</desc>
<time>2010-09-11T15:52:30.17</time>
<name>2444</name>
</trkpt>
<trkpt lat="49.791923" lon="9.432893">
<ele>191.0</ele>
<speed>3.4</speed>
<course>282.4</course>
<desc>Speed 3.4 km/h Distance 85.65 km</desc>
<time>2010-09-11T15:52:32.16</time>
<name>2445</name>
</trkpt>
<trkpt lat="49.791925" lon="9.432882">
<ele>190.5</ele>
<speed>2.6</speed>
<course>224.0</course>
<desc>Speed 2.6 km/h Distance 85.65 km</desc>
<time>2010-09-11T15:52:34.17</time>
<name>2446</name>
</trkpt>
<trkpt lat="49.791918" lon="9.432872">
<ele>190.0</ele>
<speed>1.5</speed>
<course>270.0</course>
<desc>Speed 1.5 km/h Distance 85.65 km</desc>
<time>2010-09-11T15:52:36.17</time>
<name>2447</name>
</trkpt>
<trkpt lat="49.791918" lon="9.432868">
<ele>190.0</ele>
<speed>1.5</speed>
<course>231.9</course>
<desc>Speed 1.5 km/h Distance 85.65 km</desc>
<time>2010-09-11T15:52:38.17</time>
<name>2448</name>
</trkpt>
<trkpt lat="49.791913" lon="9.432858">
<ele>190.0</ele>
<speed>1.5</speed>
<course>255.4</course>
<desc>Speed 1.5 km/h Distance 85.65 km</desc>
<time>2010-09-11T15:52:40.17</time>
<name>2449</name>
</trkpt>
<trkpt lat="49.791912" lon="9.432848">
<ele>189.5</ele>
<speed>1.5</speed>
<course>271.5</course>
<desc>Speed 1.5 km/h Distance 85.65 km</desc>
<time>2010-09-11T15:52:50.35</time>
<name>2450</name>
</trkpt>
<trkpt lat="49.791913" lon="9.432752">
<ele>188.5</ele>
<speed>1.5</speed>
<course>198.8</course>
<desc>Speed 1.5 km/h Distance 85.66 km</desc>
<time>2010-09-11T15:52:52.22</time>
<name>2451</name>
</trkpt>
<trkpt lat="49.791907" lon="9.432748">
<ele>188.5</ele>
<speed>1.6</speed>
<course>308.1</course>
<desc>Speed 1.6 km/h Distance 85.66 km</desc>
<time>2010-09-11T15:52:54.20</time>
<name>2452</name>
</trkpt>
<trkpt lat="49.791908" lon="9.432745">
<ele>188.5</ele>
<speed>1.6</speed>
<course>72.8</course>
<desc>Speed 1.6 km/h Distance 85.66 km</desc>
<time>2010-09-11T15:52:56.18</time>
<name>2453</name>
</trkpt>
<trkpt lat="49.791912" lon="9.432762">
<ele>187.5</ele>
<speed>3.5</speed>
<course>121.1</course>
<desc>Speed 3.5 km/h Distance 85.66 km</desc>
<time>2010-09-11T15:53:01.55</time>
<name>2454</name>
</trkpt>
<trkpt lat="49.791888" lon="9.432822">
<ele>185.5</ele>
<speed>1.0</speed>
<course>141.1</course>
<desc>Speed 1.0 km/h Distance 85.67 km</desc>
<time>2010-09-11T15:53:03.16</time>
<name>2455</name>
</trkpt>
<trkpt lat="49.791875" lon="9.432838">
<ele>185.5</ele>
<speed>0.3</speed>
<course>291.6</course>
<desc>Speed 0.3 km/h Distance 85.67 km</desc>
<time>2010-09-11T15:53:05.15</time>
<name>2456</name>
</trkpt>
<trkpt lat="49.791877" lon="9.432832">
<ele>185.0</ele>
<speed>0.6</speed>
<course>291.6</course>
<desc>Speed 0.6 km/h Distance 85.67 km</desc>
<time>2010-09-11T15:53:06.15</time>
<name>2457</name>
</trkpt>
<trkpt lat="49.791877" lon="9.432830">
<ele>185.0</ele>
<speed>0.4</speed>
<course>29.2</course>
<desc>Speed 0.4 km/h Distance 85.67 km</desc>
<time>2010-09-11T15:53:07.15</time>
<name>2458</name>
</trkpt>
<trkpt lat="49.791878" lon="9.432832">
<ele>185.0</ele>
<speed>0.4</speed>
<course>12.6</course>
<desc>Speed 0.4 km/h Distance 85.67 km</desc>
<time>2010-09-11T15:53:08.15</time>
<name>2459</name>
</trkpt>
<trkpt lat="49.791880" lon="9.432832">
<ele>185.0</ele>
<speed>0.3</speed>
<course>270.0</course>
<desc>Speed 0.3 km/h Distance 85.67 km</desc>
<time>2010-09-11T15:53:09.15</time>
<name>2460</name>
</trkpt>
<trkpt lat="49.791880" lon="9.432807">
<ele>183.5</ele>
<speed>2.8</speed>
<course>333.0</course>
<desc>Speed 2.8 km/h Distance 85.67 km</desc>
<time>2010-09-11T15:53:10.15</time>
<name>2461</name>
</trkpt>
<trkpt lat="49.791888" lon="9.432800">
<ele>183.5</ele>
<speed>0.6</speed>
<course>299.0</course>
<desc>Speed 0.6 km/h Distance 85.67 km</desc>
<time>2010-09-11T15:53:11.15</time>
<name>2462</name>
</trkpt>
<trkpt lat="49.791897" lon="9.432777">
<ele>182.5</ele>
<speed>4.6</speed>
<course>330.8</course>
<desc>Speed 4.6 km/h Distance 85.67 km</desc>
<time>2010-09-11T15:53:12.15</time>
<name>2463</name>
</trkpt>
<trkpt lat="49.791908" lon="9.432767">
<ele>183.0</ele>
<speed>0.9</speed>
<course>333.6</course>
<desc>Speed 0.9 km/h Distance 85.68 km</desc>
<time>2010-09-11T15:53:13.15</time>
<name>2464</name>
</trkpt>
<trkpt lat="49.791915" lon="9.432762">
<ele>182.5</ele>
<speed>0.6</speed>
<course>171.9</course>
<desc>Speed 0.6 km/h Distance 85.68 km</desc>
<time>2010-09-11T15:53:14.15</time>
<name>2465</name>
</trkpt>
<trkpt lat="49.791910" lon="9.432762">
<ele>182.5</ele>
<speed>2.5</speed>
<course>171.9</course>
<desc>Speed 2.5 km/h Distance 85.68 km</desc>
<time>2010-09-11T15:53:15.14</time>
<name>2466</name>
</trkpt>
<trkpt lat="49.791910" lon="9.432762">
<ele>183.0</ele>
<speed>0.4</speed>
<course>37.2</course>
<desc>Speed 0.4 km/h Distance 85.68 km</desc>
<time>2010-09-11T15:53:16.14</time>
<name>2467</name>
</trkpt>
<trkpt lat="49.791912" lon="9.432763">
<ele>183.0</ele>
<speed>0.4</speed>
<course>326.3</course>
<desc>Speed 0.4 km/h Distance 85.68 km</desc>
<time>2010-09-11T15:53:17.15</time>
<name>2468</name>
</trkpt>
<trkpt lat="49.791915" lon="9.432760">
<ele>183.0</ele>
<speed>0.4</speed>
<course>307.9</course>
<desc>Speed 0.4 km/h Distance 85.68 km</desc>
<time>2010-09-11T15:53:18.14</time>
<name>2469</name>
</trkpt>
<trkpt lat="49.791920" lon="9.432750">
<ele>182.5</ele>
<speed>1.8</speed>
<course>1.2</course>
<desc>Speed 1.8 km/h Distance 85.68 km</desc>
<time>2010-09-11T15:53:19.14</time>
<name>2470</name>
</trkpt>
<trkpt lat="49.791927" lon="9.432750">
<ele>182.5</ele>
<speed>1.7</speed>
<course>23.8</course>
<desc>Speed 1.7 km/h Distance 85.68 km</desc>
<time>2010-09-11T15:53:20.14</time>
<name>2471</name>
</trkpt>
<trkpt lat="49.791932" lon="9.432753">
<ele>182.5</ele>
<speed>0.2</speed>
<course>90.0</course>
<desc>Speed 0.2 km/h Distance 85.68 km</desc>
<time>2010-09-11T15:53:21.14</time>
<name>2472</name>
</trkpt>
<trkpt lat="49.791932" lon="9.432757">
<ele>183.0</ele>
<speed>0.4</speed>
<course>127.0</course>
<desc>Speed 0.4 km/h Distance 85.68 km</desc>
<time>2010-09-11T15:53:22.14</time>
<name>2473</name>
</trkpt>
<trkpt lat="49.791928" lon="9.432763">
<ele>183.0</ele>
<speed>1.0</speed>
<course>167.4</course>
<desc>Speed 1.0 km/h Distance 85.68 km</desc>
<time>2010-09-11T15:53:23.14</time>
<name>2474</name>
</trkpt>
<trkpt lat="49.791925" lon="9.432763">
<ele>183.0</ele>
<speed>0.1</speed>
<course>167.4</course>
<desc>Speed 0.1 km/h Distance 85.68 km</desc>
<time>2010-09-11T15:53:24.14</time>
<name>2475</name>
</trkpt>
<trkpt lat="49.791922" lon="9.432765">
<ele>183.0</ele>
<speed>0.4</speed>
<course>167.4</course>
<desc>Speed 0.4 km/h Distance 85.68 km</desc>
<time>2010-09-11T15:53:25.14</time>
<name>2476</name>
</trkpt>
<trkpt lat="49.791920" lon="9.432765">
<ele>183.0</ele>
<speed>0.4</speed>
<course>90.0</course>
<desc>Speed 0.4 km/h Distance 85.68 km</desc>
<time>2010-09-11T15:53:26.13</time>
<name>2477</name>
</trkpt>
<trkpt lat="49.791920" lon="9.432768">
<ele>183.5</ele>
<speed>0.5</speed>
<course>308.1</course>
<desc>Speed 0.5 km/h Distance 85.68 km</desc>
<time>2010-09-11T15:53:27.13</time>
<name>2478</name>
</trkpt>
<trkpt lat="49.791922" lon="9.432765">
<ele>183.5</ele>
<speed>1.2</speed>
<course>72.5</course>
<desc>Speed 1.2 km/h Distance 85.68 km</desc>
<time>2010-09-11T15:53:28.13</time>
<name>2479</name>
</trkpt>
<trkpt lat="49.791923" lon="9.432773">
<ele>184.0</ele>
<speed>0.4</speed>
<course>72.5</course>
<desc>Speed 0.4 km/h Distance 85.68 km</desc>
<time>2010-09-11T15:53:29.14</time>
<name>2480</name>
</trkpt>
<trkpt lat="49.791923" lon="9.432773">
<ele>184.0</ele>
<speed>0.4</speed>
<course>72.5</course>
<desc>Speed 0.4 km/h Distance 85.68 km</desc>
<time>2010-09-11T15:53:30.13</time>
<name>2481</name>
</trkpt>
<trkpt lat="49.791923" lon="9.432773">
<ele>184.5</ele>
<speed>0.4</speed>
<course>72.5</course>
<desc>Speed 0.4 km/h Distance 85.68 km</desc>
<time>2010-09-11T15:53:31.13</time>
<name>2482</name>
</trkpt>
<trkpt lat="49.791923" lon="9.432773">
<ele>184.5</ele>
<speed>0.4</speed>
<course>12.6</course>
<desc>Speed 0.4 km/h Distance 85.68 km</desc>
<time>2010-09-11T15:53:32.13</time>
<name>2483</name>
</trkpt>
<trkpt lat="49.791925" lon="9.432773">
<ele>184.5</ele>
<speed>0.1</speed>
<course>12.6</course>
<desc>Speed 0.1 km/h Distance 85.68 km</desc>
<time>2010-09-11T15:53:33.13</time>
<name>2484</name>
</trkpt>
<trkpt lat="49.791925" lon="9.432773">
<ele>184.5</ele>
<speed>0.2</speed>
<course>12.6</course>
<desc>Speed 0.2 km/h Distance 85.68 km</desc>
<time>2010-09-11T15:53:34.13</time>
<name>2485</name>
</trkpt>
<trkpt lat="49.791927" lon="9.432773">
<ele>184.5</ele>
<speed>0.2</speed>
<course>90.0</course>
<desc>Speed 0.2 km/h Distance 85.68 km</desc>
<time>2010-09-11T15:53:35.13</time>
<name>2486</name>
</trkpt>
<trkpt lat="49.791927" lon="9.432775">
<ele>184.5</ele>
<speed>0.5</speed>
<course>90.0</course>
<desc>Speed 0.5 km/h Distance 85.68 km</desc>
<time>2010-09-11T15:53:36.13</time>
<name>2487</name>
</trkpt>
<trkpt lat="49.791927" lon="9.432775">
<ele>184.5</ele>
<speed>0.4</speed>
<course>12.6</course>
<desc>Speed 0.4 km/h Distance 85.68 km</desc>
<time>2010-09-11T15:53:37.13</time>
<name>2488</name>
</trkpt>
<trkpt lat="49.791928" lon="9.432775">
<ele>184.5</ele>
<speed>0.4</speed>
<course>12.6</course>
<desc>Speed 0.4 km/h Distance 85.68 km</desc>
<time>2010-09-11T15:53:38.13</time>
<name>2489</name>
</trkpt>
<trkpt lat="49.791928" lon="9.432775">
<ele>184.5</ele>
<speed>0.3</speed>
<course>12.6</course>
<desc>Speed 0.3 km/h Distance 85.68 km</desc>
<time>2010-09-11T15:53:39.13</time>
<name>2490</name>
</trkpt>
<trkpt lat="49.791930" lon="9.432775">
<ele>184.5</ele>
<speed>0.1</speed>
<course>12.6</course>
<desc>Speed 0.1 km/h Distance 85.68 km</desc>
<time>2010-09-11T15:53:40.13</time>
<name>2491</name>
</trkpt>
<trkpt lat="49.791930" lon="9.432775">
<ele>184.5</ele>
<speed>0.4</speed>
<course>270.0</course>
<desc>Speed 0.4 km/h Distance 85.68 km</desc>
<time>2010-09-11T15:53:41.13</time>
<name>2492</name>
</trkpt>
<trkpt lat="49.791930" lon="9.432768">
<ele>184.5</ele>
<speed>1.8</speed>
<course>90.0</course>
<desc>Speed 1.8 km/h Distance 85.68 km</desc>
<time>2010-09-11T15:53:42.12</time>
<name>2493</name>
</trkpt>
<trkpt lat="49.791930" lon="9.432770">
<ele>184.5</ele>
<speed>0.5</speed>
<course>90.0</course>
<desc>Speed 0.5 km/h Distance 85.69 km</desc>
<time>2010-09-11T15:53:43.12</time>
<name>2494</name>
</trkpt>
<trkpt lat="49.791930" lon="9.432770">
<ele>185.0</ele>
<speed>0.1</speed>
<course>110.9</course>
<desc>Speed 0.1 km/h Distance 85.69 km</desc>
<time>2010-09-11T15:53:44.12</time>
<name>2495</name>
</trkpt>
<trkpt lat="49.791928" lon="9.432777">
<ele>185.0</ele>
<speed>0.2</speed>
<course>90.0</course>
<desc>Speed 0.2 km/h Distance 85.69 km</desc>
<time>2010-09-11T15:53:45.12</time>
<name>2496</name>
</trkpt>
<trkpt lat="49.791928" lon="9.432778">
<ele>185.0</ele>
<speed>0.4</speed>
<course>270.0</course>
<desc>Speed 0.4 km/h Distance 85.69 km</desc>
<time>2010-09-11T15:53:46.12</time>
<name>2497</name>
</trkpt>
<trkpt lat="49.791928" lon="9.432773">
<ele>185.0</ele>
<speed>1.0</speed>
<course>270.0</course>
<desc>Speed 1.0 km/h Distance 85.69 km</desc>
<time>2010-09-11T15:53:47.12</time>
<name>2498</name>
</trkpt>
<trkpt lat="49.791928" lon="9.432773">
<ele>185.0</ele>
<speed>0.6</speed>
<course>77.6</course>
<desc>Speed 0.6 km/h Distance 85.69 km</desc>
<time>2010-09-11T15:53:48.12</time>
<name>2499</name>
</trkpt>
<trkpt lat="49.791930" lon="9.432785">
<ele>185.5</ele>
<speed>2.2</speed>
<course>316.5</course>
<desc>Speed 2.2 km/h Distance 85.69 km</desc>
<time>2010-09-11T15:53:49.12</time>
<name>2500</name>
</trkpt>
<trkpt lat="49.791933" lon="9.432780">
<ele>185.5</ele>
<speed>2.8</speed>
<course>90.0</course>
<desc>Speed 2.8 km/h Distance 85.69 km</desc>
<time>2010-09-11T15:53:50.12</time>
<name>2501</name>
</trkpt>
<trkpt lat="49.791933" lon="9.432783">
<ele>185.5</ele>
<speed>1.2</speed>
<course>167.4</course>
<desc>Speed 1.2 km/h Distance 85.69 km</desc>
<time>2010-09-11T15:53:51.12</time>
<name>2502</name>
</trkpt>
<trkpt lat="49.791932" lon="9.432783">
<ele>186.0</ele>
<speed>1.4</speed>
<course>270.0</course>
<desc>Speed 1.4 km/h Distance 85.69 km</desc>
<time>2010-09-11T15:53:52.13</time>
<name>2503</name>
</trkpt>
<trkpt lat="49.791932" lon="9.432772">
<ele>186.0</ele>
<speed>1.0</speed>
<course>233.0</course>
<desc>Speed 1.0 km/h Distance 85.69 km</desc>
<time>2010-09-11T15:53:53.12</time>
<name>2504</name>
</trkpt>
<trkpt lat="49.791928" lon="9.432765">
<ele>186.0</ele>
<speed>1.0</speed>
<course>203.0</course>
<desc>Speed 1.0 km/h Distance 85.69 km</desc>
<time>2010-09-11T15:53:54.12</time>
<name>2505</name>
</trkpt>
<trkpt lat="49.791925" lon="9.432763">
<ele>186.0</ele>
<speed>1.0</speed>
<course>223.5</course>
<desc>Speed 1.0 km/h Distance 85.69 km</desc>
<time>2010-09-11T15:53:55.12</time>
<name>2506</name>
</trkpt>
<trkpt lat="49.791922" lon="9.432758">
<ele>186.0</ele>
<speed>1.0</speed>
<course>231.9</course>
<desc>Speed 1.0 km/h Distance 85.69 km</desc>
<time>2010-09-11T15:53:56.10</time>
<name>2507</name>
</trkpt>
<trkpt lat="49.791918" lon="9.432752">
<ele>186.0</ele>
<speed>0.2</speed>
<course>192.6</course>
<desc>Speed 0.2 km/h Distance 85.69 km</desc>
<time>2010-09-11T15:53:57.12</time>
<name>2508</name>
</trkpt>
<trkpt lat="49.791915" lon="9.432750">
<ele>186.0</ele>
<speed>0.5</speed>
<course>150.8</course>
<desc>Speed 0.5 km/h Distance 85.69 km</desc>
<time>2010-09-11T15:53:58.12</time>
<name>2509</name>
</trkpt>
<trkpt lat="49.791913" lon="9.432752">
<ele>186.5</ele>
<speed>0.3</speed>
<course>150.8</course>
<desc>Speed 0.3 km/h Distance 85.69 km</desc>
<time>2010-09-11T15:53:59.12</time>
<name>2510</name>
</trkpt>
<trkpt lat="49.791913" lon="9.432752">
<ele>186.5</ele>
<speed>0.3</speed>
<course>150.8</course>
<desc>Speed 0.3 km/h Distance 85.69 km</desc>
<time>2010-09-11T15:54:00.11</time>
<name>2511</name>
</trkpt>
<trkpt lat="49.791913" lon="9.432752">
<ele>186.5</ele>
<speed>0.7</speed>
<course>128.1</course>
<desc>Speed 0.7 km/h Distance 85.69 km</desc>
<time>2010-09-11T15:54:01.11</time>
<name>2512</name>
</trkpt>
<trkpt lat="49.791912" lon="9.432755">
<ele>186.5</ele>
<speed>0.1</speed>
<course>90.0</course>
<desc>Speed 0.1 km/h Distance 85.69 km</desc>
<time>2010-09-11T15:54:02.11</time>
<name>2513</name>
</trkpt>
<trkpt lat="49.791912" lon="9.432757">
<ele>186.5</ele>
<speed>0.1</speed>
<course>90.0</course>
<desc>Speed 0.1 km/h Distance 85.69 km</desc>
<time>2010-09-11T15:54:03.11</time>
<name>2514</name>
</trkpt>
<trkpt lat="49.791912" lon="9.432757">
<ele>186.5</ele>
<speed>0.4</speed>
<course>90.0</course>
<desc>Speed 0.4 km/h Distance 85.69 km</desc>
<time>2010-09-11T15:54:04.11</time>
<name>2515</name>
</trkpt>
<trkpt lat="49.791912" lon="9.432757">
<ele>186.5</ele>
<speed>0.5</speed>
<course>217.2</course>
<desc>Speed 0.5 km/h Distance 85.69 km</desc>
<time>2010-09-11T15:54:05.11</time>
<name>2516</name>
</trkpt>
<trkpt lat="49.791910" lon="9.432755">
<ele>186.5</ele>
<speed>1.0</speed>
<course>72.9</course>
<desc>Speed 1.0 km/h Distance 85.69 km</desc>
<time>2010-09-11T15:54:06.11</time>
<name>2517</name>
</trkpt>
<trkpt lat="49.791912" lon="9.432763">
<ele>187.0</ele>
<speed>0.1</speed>
<course>27.0</course>
<desc>Speed 0.1 km/h Distance 85.69 km</desc>
<time>2010-09-11T15:54:07.11</time>
<name>2518</name>
</trkpt>
<trkpt lat="49.791920" lon="9.432770">
<ele>187.5</ele>
<speed>2.7</speed>
<course>24.4</course>
<desc>Speed 2.7 km/h Distance 85.69 km</desc>
<time>2010-09-11T15:54:08.11</time>
<name>2519</name>
</trkpt>
<trkpt lat="49.791965" lon="9.432802">
<ele>188.5</ele>
<speed>9.4</speed>
<course>34.6</course>
<desc>Speed 9.4 km/h Distance 85.70 km</desc>
<time>2010-09-11T15:54:10.11</time>
<name>2520</name>
</trkpt>
<trkpt lat="49.791990" lon="9.432828">
<ele>188.5</ele>
<speed>9.4</speed>
<course>19.3</course>
<desc>Speed 9.4 km/h Distance 85.70 km</desc>
<time>2010-09-11T15:54:11.11</time>
<name>2521</name>
</trkpt>
<trkpt lat="49.792402" lon="9.433052">
<ele>189.0</ele>
<speed>38.6</speed>
<course>34.8</course>
<desc>Speed 38.6 km/h Distance 85.75 km</desc>
<time>2010-09-11T15:54:16.11</time>
<name>2522</name>
</trkpt>
<trkpt lat="49.792535" lon="9.433195">
<ele>188.5</ele>
<speed>38.6</speed>
<course>44.6</course>
<desc>Speed 38.6 km/h Distance 85.77 km</desc>
<time>2010-09-11T15:54:18.11</time>
<name>2523</name>
</trkpt>
<trkpt lat="49.792712" lon="9.433465">
<ele>187.0</ele>
<speed>38.6</speed>
<course>33.1</course>
<desc>Speed 38.6 km/h Distance 85.80 km</desc>
<time>2010-09-11T15:54:20.11</time>
<name>2524</name>
</trkpt>
<trkpt lat="49.793567" lon="9.434328">
<ele>184.5</ele>
<speed>90.7</speed>
<course>23.2</course>
<desc>Speed 90.7 km/h Distance 85.91 km</desc>
<time>2010-09-11T15:54:26.10</time>
<name>2525</name>
</trkpt>
<trkpt lat="49.793950" lon="9.434583">
<ele>183.5</ele>
<speed>90.7</speed>
<course>46.3</course>
<desc>Speed 90.7 km/h Distance 85.96 km</desc>
<time>2010-09-11T15:54:28.11</time>
<name>2526</name>
</trkpt>
<trkpt lat="49.795230" lon="9.436658">
<ele>190.0</ele>
<speed>100</speed>
<course>30.5</course>
<desc>Speed 100 km/h Distance 86.16 km</desc>
<time>2010-09-11T15:54:34.10</time>
<name>2527</name>
</trkpt>
<trkpt lat="49.795883" lon="9.437255">
<ele>189.0</ele>
<speed>100</speed>
<course>48.4</course>
<desc>Speed 100 km/h Distance 86.25 km</desc>
<time>2010-09-11T15:54:40.10</time>
<name>2528</name>
</trkpt>
<trkpt lat="49.796325" lon="9.438027">
<ele>188.5</ele>
<speed>103</speed>
<course>43.0</course>
<desc>Speed 103 km/h Distance 86.32 km</desc>
<time>2010-09-11T15:54:43.09</time>
<name>2529</name>
</trkpt>
<trkpt lat="49.797210" lon="9.439307">
<ele>184.5</ele>
<speed>96.1</speed>
<course>47.8</course>
<desc>Speed 96.1 km/h Distance 86.46 km</desc>
<time>2010-09-11T15:54:47.09</time>
<name>2530</name>
</trkpt>
<trkpt lat="49.798663" lon="9.441793">
<ele>193.5</ele>
<speed>89.5</speed>
<course>65.6</course>
<desc>Speed 89.5 km/h Distance 86.70 km</desc>
<time>2010-09-11T15:54:53.08</time>
<name>2531</name>
</trkpt>
<trkpt lat="49.798868" lon="9.442493">
<ele>197.0</ele>
<speed>82.4</speed>
<course>41.7</course>
<desc>Speed 82.4 km/h Distance 86.75 km</desc>
<time>2010-09-11T15:54:55.08</time>
<name>2532</name>
</trkpt>
<trkpt lat="49.799190" lon="9.442937">
<ele>200.5</ele>
<speed>82.4</speed>
<course>60.1</course>
<desc>Speed 82.4 km/h Distance 86.80 km</desc>
<time>2010-09-11T15:54:57.08</time>
<name>2533</name>
</trkpt>
<trkpt lat="49.799487" lon="9.443735">
<ele>203.5</ele>
<speed>82.4</speed>
<course>39.0</course>
<desc>Speed 82.4 km/h Distance 86.87 km</desc>
<time>2010-09-11T15:55:03.08</time>
<name>2534</name>
</trkpt>
<trkpt lat="49.800048" lon="9.444440">
<ele>205.0</ele>
<speed>57.7</speed>
<course>35.9</course>
<desc>Speed 57.7 km/h Distance 86.95 km</desc>
<time>2010-09-11T15:55:09.08</time>
<name>2535</name>
</trkpt>
<trkpt lat="49.800445" lon="9.444885">
<ele>207.0</ele>
<speed>40.6</speed>
<course>27.4</course>
<desc>Speed 40.6 km/h Distance 87.00 km</desc>
<time>2010-09-11T15:55:12.08</time>
<name>2536</name>
</trkpt>
<trkpt lat="49.800648" lon="9.445048">
<ele>208.5</ele>
<speed>40.6</speed>
<course>24.5</course>
<desc>Speed 40.6 km/h Distance 87.03 km</desc>
<time>2010-09-11T15:55:14.07</time>
<name>2537</name>
</trkpt>
<trkpt lat="49.801005" lon="9.445300">
<ele>210.0</ele>
<speed>40.6</speed>
<course>40.3</course>
<desc>Speed 40.6 km/h Distance 87.07 km</desc>
<time>2010-09-11T15:55:17.07</time>
<name>2538</name>
</trkpt>
<trkpt lat="49.801153" lon="9.445495">
<ele>209.0</ele>
<speed>40.6</speed>
<course>360.0</course>
<desc>Speed 40.6 km/h Distance 87.09 km</desc>
<time>2010-09-11T15:55:20.06</time>
<name>2539</name>
</trkpt>
<trkpt lat="49.802383" lon="9.445493">
<ele>200.5</ele>
<speed>59.9</speed>
<course>355.5</course>
<desc>Speed 59.9 km/h Distance 87.23 km</desc>
<time>2010-09-11T15:55:26.07</time>
<name>2540</name>
</trkpt>
<trkpt lat="49.802535" lon="9.445475">
<ele>200.0</ele>
<speed>59.9</speed>
<course>355.7</course>
<desc>Speed 59.9 km/h Distance 87.25 km</desc>
<time>2010-09-11T15:55:27.07</time>
<name>2541</name>
</trkpt>
<trkpt lat="49.802863" lon="9.445437">
<ele>199.0</ele>
<speed>72.6</speed>
<course>355.3</course>
<desc>Speed 72.6 km/h Distance 87.28 km</desc>
<time>2010-09-11T15:55:29.07</time>
<name>2542</name>
</trkpt>
<trkpt lat="49.803033" lon="9.445415">
<ele>198.5</ele>
<speed>72.6</speed>
<course>1.6</course>
<desc>Speed 72.6 km/h Distance 87.30 km</desc>
<time>2010-09-11T15:55:30.06</time>
<name>2543</name>
</trkpt>
<trkpt lat="49.803727" lon="9.445445">
<ele>207.5</ele>
<speed>72.6</speed>
<course>350.8</course>
<desc>Speed 72.6 km/h Distance 87.38 km</desc>
<time>2010-09-11T15:55:33.06</time>
<name>2544</name>
</trkpt>
<trkpt lat="49.803913" lon="9.445398">
<ele>211.5</ele>
<speed>72.6</speed>
<course>353.7</course>
<desc>Speed 72.6 km/h Distance 87.40 km</desc>
<time>2010-09-11T15:55:34.06</time>
<name>2545</name>
</trkpt>
<trkpt lat="49.804487" lon="9.445300">
<ele>211.5</ele>
<speed>59.1</speed>
<course>353.6</course>
<desc>Speed 59.1 km/h Distance 87.46 km</desc>
<time>2010-09-11T15:55:37.05</time>
<name>2546</name>
</trkpt>
<trkpt lat="49.804813" lon="9.445243">
<ele>211.5</ele>
<speed>59.1</speed>
<course>356.0</course>
<desc>Speed 59.1 km/h Distance 87.50 km</desc>
<time>2010-09-11T15:55:41.05</time>
<name>2547</name>
</trkpt>
<trkpt lat="49.805047" lon="9.445218">
<ele>211.5</ele>
<speed>62.2</speed>
<course>341.8</course>
<desc>Speed 62.2 km/h Distance 87.53 km</desc>
<time>2010-09-11T15:55:43.06</time>
<name>2548</name>
</trkpt>
<trkpt lat="49.805892" lon="9.444788">
<ele>212.0</ele>
<speed>74.3</speed>
<course>327.2</course>
<desc>Speed 74.3 km/h Distance 87.63 km</desc>
<time>2010-09-11T15:55:47.06</time>
<name>2549</name>
</trkpt>
<trkpt lat="49.806208" lon="9.444472">
<ele>211.5</ele>
<speed>74.3</speed>
<course>339.3</course>
<desc>Speed 74.3 km/h Distance 87.67 km</desc>
<time>2010-09-11T15:55:49.06</time>
<name>2550</name>
</trkpt>
<trkpt lat="49.807467" lon="9.443733">
<ele>213.5</ele>
<speed>105</speed>
<course>344.1</course>
<desc>Speed 105 km/h Distance 87.82 km</desc>
<time>2010-09-11T15:55:54.05</time>
<name>2551</name>
</trkpt>
<trkpt lat="49.808353" lon="9.443342">
<ele>214.5</ele>
<speed>118</speed>
<course>332.6</course>
<desc>Speed 118 km/h Distance 87.92 km</desc>
<time>2010-09-11T15:55:57.05</time>
<name>2552</name>
</trkpt>
<trkpt lat="49.809257" lon="9.442617">
<ele>213.0</ele>
<speed>118</speed>
<course>314.0</course>
<desc>Speed 118 km/h Distance 88.03 km</desc>
<time>2010-09-11T15:56:02.05</time>
<name>2553</name>
</trkpt>
<trkpt lat="49.810062" lon="9.441323">
<ele>205.5</ele>
<speed>104</speed>
<course>316.2</course>
<desc>Speed 104 km/h Distance 88.16 km</desc>
<time>2010-09-11T15:56:08.05</time>
<name>2554</name>
</trkpt>
<trkpt lat="49.811130" lon="9.439733">
<ele>207.0</ele>
<speed>104</speed>
<course>324.0</course>
<desc>Speed 104 km/h Distance 88.33 km</desc>
<time>2010-09-11T15:56:10.04</time>
<name>2555</name>
</trkpt>
<trkpt lat="49.812253" lon="9.438470">
<ele>208.0</ele>
<speed>104</speed>
<course>316.6</course>
<desc>Speed 104 km/h Distance 88.48 km</desc>
<time>2010-09-11T15:56:13.05</time>
<name>2556</name>
</trkpt>
<trkpt lat="49.812450" lon="9.438182">
<ele>208.5</ele>
<speed>108</speed>
<course>327.7</course>
<desc>Speed 108 km/h Distance 88.51 km</desc>
<time>2010-09-11T15:56:14.04</time>
<name>2557</name>
</trkpt>
<trkpt lat="49.813242" lon="9.437407">
<ele>209.0</ele>
<speed>104</speed>
<course>327.2</course>
<desc>Speed 104 km/h Distance 88.62 km</desc>
<time>2010-09-11T15:56:17.04</time>
<name>2558</name>
</trkpt>
<trkpt lat="49.813465" lon="9.437183">
<ele>211.5</ele>
<speed>105</speed>
<course>319.6</course>
<desc>Speed 105 km/h Distance 88.65 km</desc>
<time>2010-09-11T15:56:18.04</time>
<name>2559</name>
</trkpt>
<trkpt lat="49.814088" lon="9.436360">
<ele>210.5</ele>
<speed>101</speed>
<course>312.8</course>
<desc>Speed 101 km/h Distance 88.74 km</desc>
<time>2010-09-11T15:56:22.04</time>
<name>2560</name>
</trkpt>
<trkpt lat="49.814665" lon="9.435395">
<ele>215.0</ele>
<speed>106</speed>
<course>313.9</course>
<desc>Speed 106 km/h Distance 88.83 km</desc>
<time>2010-09-11T15:56:26.03</time>
<name>2561</name>
</trkpt>
<trkpt lat="49.814842" lon="9.435110">
<ele>217.0</ele>
<speed>106</speed>
<course>300.0</course>
<desc>Speed 106 km/h Distance 88.86 km</desc>
<time>2010-09-11T15:56:27.02</time>
<name>2562</name>
</trkpt>
<trkpt lat="49.815398" lon="9.433613">
<ele>203.5</ele>
<speed>106</speed>
<course>302.9</course>
<desc>Speed 106 km/h Distance 88.98 km</desc>
<time>2010-09-11T15:56:32.03</time>
<name>2563</name>
</trkpt>
<trkpt lat="49.815833" lon="9.432570">
<ele>205.0</ele>
<speed>106</speed>
<course>313.2</course>
<desc>Speed 106 km/h Distance 89.07 km</desc>
<time>2010-09-11T15:56:34.03</time>
<name>2564</name>
</trkpt>
<trkpt lat="49.816853" lon="9.430885">
<ele>204.5</ele>
<speed>106</speed>
<course>313.3</course>
<desc>Speed 106 km/h Distance 89.24 km</desc>
<time>2010-09-11T15:56:39.03</time>
<name>2565</name>
</trkpt>
<trkpt lat="49.817293" lon="9.430162">
<ele>196.0</ele>
<speed>106</speed>
<course>319.9</course>
<desc>Speed 106 km/h Distance 89.31 km</desc>
<time>2010-09-11T15:56:45.01</time>
<name>2566</name>
</trkpt>
<trkpt lat="49.818167" lon="9.429022">
<ele>198.0</ele>
<speed>106</speed>
<course>300.6</course>
<desc>Speed 106 km/h Distance 89.44 km</desc>
<time>2010-09-11T15:56:47.02</time>
<name>2567</name>
</trkpt>
<trkpt lat="49.818595" lon="9.427900">
<ele>199.5</ele>
<speed>106</speed>
<course>314.2</course>
<desc>Speed 106 km/h Distance 89.53 km</desc>
<time>2010-09-11T15:56:49.02</time>
<name>2568</name>
</trkpt>
<trkpt lat="49.818767" lon="9.427627">
<ele>200.0</ele>
<speed>106</speed>
<course>300.8</course>
<desc>Speed 106 km/h Distance 89.56 km</desc>
<time>2010-09-11T15:56:51.02</time>
<name>2569</name>
</trkpt>
<trkpt lat="49.819338" lon="9.426140">
<ele>200.5</ele>
<speed>106</speed>
<course>290.7</course>
<desc>Speed 106 km/h Distance 89.68 km</desc>
<time>2010-09-11T15:56:53.01</time>
<name>2570</name>
</trkpt>
<trkpt lat="49.819503" lon="9.425462">
<ele>199.0</ele>
<speed>106</speed>
<course>308.5</course>
<desc>Speed 106 km/h Distance 89.74 km</desc>
<time>2010-09-11T15:56:55.01</time>
<name>2571</name>
</trkpt>
<trkpt lat="49.819967" lon="9.424558">
<ele>199.5</ele>
<speed>95.7</speed>
<course>303.4</course>
<desc>Speed 95.7 km/h Distance 89.82 km</desc>
<time>2010-09-11T15:56:58.01</time>
<name>2572</name>
</trkpt>
<trkpt lat="49.820382" lon="9.423582">
<ele>200.0</ele>
<speed>95.7</speed>
<course>298.8</course>
<desc>Speed 95.7 km/h Distance 89.90 km</desc>
<time>2010-09-11T15:57:03.00</time>
<name>2573</name>
</trkpt>
<trkpt lat="49.821137" lon="9.421457">
<ele>200.5</ele>
<speed>95.7</speed>
<course>304.7</course>
<desc>Speed 95.7 km/h Distance 90.08 km</desc>
<time>2010-09-11T15:57:08.99</time>
<name>2574</name>
</trkpt>
<trkpt lat="49.821525" lon="9.420588">
<ele>200.5</ele>
<speed>95.7</speed>
<course>256.1</course>
<desc>Speed 95.7 km/h Distance 90.15 km</desc>
<time>2010-09-11T15:57:11.00</time>
<name>2575</name>
</trkpt>
<trkpt lat="49.821290" lon="9.419112">
<ele>200.0</ele>
<speed>76.9</speed>
<course>273.6</course>
<desc>Speed 76.9 km/h Distance 90.26 km</desc>
<time>2010-09-11T15:57:15.99</time>
<name>2576</name>
</trkpt>
<trkpt lat="49.821342" lon="9.417833">
<ele>200.0</ele>
<speed>76.9</speed>
<course>293.3</course>
<desc>Speed 76.9 km/h Distance 90.35 km</desc>
<time>2010-09-11T15:57:19.98</time>
<name>2577</name>
</trkpt>
<trkpt lat="49.821560" lon="9.417047">
<ele>200.0</ele>
<speed>45.4</speed>
<course>357.7</course>
<desc>Speed 45.4 km/h Distance 90.42 km</desc>
<time>2010-09-11T15:57:25.98</time>
<name>2578</name>
</trkpt>
<trkpt lat="49.821722" lon="9.417037">
<ele>200.0</ele>
<speed>45.4</speed>
<course>341.2</course>
<desc>Speed 45.4 km/h Distance 90.43 km</desc>
<time>2010-09-11T15:57:27.98</time>
<name>2579</name>
</trkpt>
<trkpt lat="49.821923" lon="9.416930">
<ele>200.5</ele>
<speed>45.4</speed>
<course>340.2</course>
<desc>Speed 45.4 km/h Distance 90.46 km</desc>
<time>2010-09-11T15:57:30.97</time>
<name>2580</name>
</trkpt>
<trkpt lat="49.822168" lon="9.416793">
<ele>201.0</ele>
<speed>45.4</speed>
<course>301.8</course>
<desc>Speed 45.4 km/h Distance 90.49 km</desc>
<time>2010-09-11T15:57:34.97</time>
<name>2581</name>
</trkpt>
<trkpt lat="49.822228" lon="9.416643">
<ele>201.0</ele>
<speed>45.4</speed>
<course>309.5</course>
<desc>Speed 45.4 km/h Distance 90.50 km</desc>
<time>2010-09-11T15:57:35.97</time>
<name>2582</name>
</trkpt>
<trkpt lat="49.822862" lon="9.415452">
<ele>200.5</ele>
<speed>45.4</speed>
<course>310.8</course>
<desc>Speed 45.4 km/h Distance 90.61 km</desc>
<time>2010-09-11T15:57:38.96</time>
<name>2583</name>
</trkpt>
<trkpt lat="49.823082" lon="9.415057">
<ele>200.5</ele>
<speed>35.6</speed>
<course>307.4</course>
<desc>Speed 35.6 km/h Distance 90.65 km</desc>
<time>2010-09-11T15:57:41.97</time>
<name>2584</name>
</trkpt>
<trkpt lat="49.823137" lon="9.414945">
<ele>200.5</ele>
<speed>35.6</speed>
<course>305.8</course>
<desc>Speed 35.6 km/h Distance 90.66 km</desc>
<time>2010-09-11T15:57:42.96</time>
<name>2585</name>
</trkpt>
<trkpt lat="49.823203" lon="9.414802">
<ele>200.5</ele>
<speed>35.6</speed>
<course>284.2</course>
<desc>Speed 35.6 km/h Distance 90.67 km</desc>
<time>2010-09-11T15:57:44.97</time>
<name>2586</name>
</trkpt>
<trkpt lat="49.823402" lon="9.413587">
<ele>201.0</ele>
<speed>35.6</speed>
<course>272.8</course>
<desc>Speed 35.6 km/h Distance 90.76 km</desc>
<time>2010-09-11T15:57:49.98</time>
<name>2587</name>
</trkpt>
<trkpt lat="49.823435" lon="9.412530">
<ele>202.0</ele>
<speed>57.1</speed>
<course>277.2</course>
<desc>Speed 57.1 km/h Distance 90.84 km</desc>
<time>2010-09-11T15:57:53.96</time>
<name>2588</name>
</trkpt>
<trkpt lat="49.823455" lon="9.412285">
<ele>203.5</ele>
<speed>55.4</speed>
<course>272.4</course>
<desc>Speed 55.4 km/h Distance 90.85 km</desc>
<time>2010-09-11T15:57:54.96</time>
<name>2589</name>
</trkpt>
<trkpt lat="49.823462" lon="9.412043">
<ele>204.0</ele>
<speed>59.5</speed>
<course>271.2</course>
<desc>Speed 59.5 km/h Distance 90.87 km</desc>
<time>2010-09-11T15:57:55.95</time>
<name>2590</name>
</trkpt>
<trkpt lat="49.823465" lon="9.411793">
<ele>204.0</ele>
<speed>57.8</speed>
<course>274.5</course>
<desc>Speed 57.8 km/h Distance 90.89 km</desc>
<time>2010-09-11T15:57:56.96</time>
<name>2591</name>
</trkpt>
<trkpt lat="49.823475" lon="9.411595">
<ele>204.5</ele>
<speed>57.6</speed>
<course>278.1</course>
<desc>Speed 57.6 km/h Distance 90.90 km</desc>
<time>2010-09-11T15:57:57.95</time>
<name>2592</name>
</trkpt>
<trkpt lat="49.823515" lon="9.411157">
<ele>204.0</ele>
<speed>57.6</speed>
<course>267.5</course>
<desc>Speed 57.6 km/h Distance 90.93 km</desc>
<time>2010-09-11T15:58:00.95</time>
<name>2593</name>
</trkpt>
<trkpt lat="49.823503" lon="9.410747">
<ele>204.5</ele>
<speed>44.7</speed>
<course>280.1</course>
<desc>Speed 44.7 km/h Distance 90.96 km</desc>
<time>2010-09-11T15:58:02.95</time>
<name>2594</name>
</trkpt>
<trkpt lat="49.823522" lon="9.410587">
<ele>204.5</ele>
<speed>44.7</speed>
<course>277.0</course>
<desc>Speed 44.7 km/h Distance 90.98 km</desc>
<time>2010-09-11T15:58:03.95</time>
<name>2595</name>
</trkpt>
<trkpt lat="49.823547" lon="9.410270">
<ele>204.5</ele>
<speed>44.7</speed>
<course>270.0</course>
<desc>Speed 44.7 km/h Distance 91.00 km</desc>
<time>2010-09-11T15:58:06.94</time>
<name>2596</name>
</trkpt>
<trkpt lat="49.823547" lon="9.410007">
<ele>204.5</ele>
<speed>44.7</speed>
<course>309.7</course>
<desc>Speed 44.7 km/h Distance 91.02 km</desc>
<time>2010-09-11T15:58:10.94</time>
<name>2597</name>
</trkpt>
<trkpt lat="49.823760" lon="9.409608">
<ele>205.5</ele>
<speed>44.7</speed>
<course>272.2</course>
<desc>Speed 44.7 km/h Distance 91.06 km</desc>
<time>2010-09-11T15:58:13.94</time>
<name>2598</name>
</trkpt>
<trkpt lat="49.823775" lon="9.409000">
<ele>206.5</ele>
<speed>44.7</speed>
<course>278.3</course>
<desc>Speed 44.7 km/h Distance 91.10 km</desc>
<time>2010-09-11T15:58:16.94</time>
<name>2599</name>
</trkpt>
<trkpt lat="49.823800" lon="9.408735">
<ele>206.5</ele>
<speed>44.7</speed>
<course>321.9</course>
<desc>Speed 44.7 km/h Distance 91.12 km</desc>
<time>2010-09-11T15:58:19.94</time>
<name>2600</name>
</trkpt>
<trkpt lat="49.823932" lon="9.408575">
<ele>206.5</ele>
<speed>44.7</speed>
<course>275.7</course>
<desc>Speed 44.7 km/h Distance 91.14 km</desc>
<time>2010-09-11T15:58:23.93</time>
<name>2601</name>
</trkpt>
<trkpt lat="49.823948" lon="9.408317">
<ele>206.0</ele>
<speed>44.7</speed>
<course>346.8</course>
<desc>Speed 44.7 km/h Distance 91.16 km</desc>
<time>2010-09-11T15:58:27.93</time>
<name>2602</name>
</trkpt>
<trkpt lat="49.824118" lon="9.408255">
<ele>206.0</ele>
<speed>44.7</speed>
<course>294.4</course>
<desc>Speed 44.7 km/h Distance 91.17 km</desc>
<time>2010-09-11T15:58:31.93</time>
<name>2603</name>
</trkpt>
<trkpt lat="49.824732" lon="9.406155">
<ele>206.5</ele>
<speed>44.7</speed>
<course>299.8</course>
<desc>Speed 44.7 km/h Distance 91.34 km</desc>
<time>2010-09-11T15:58:36.92</time>
<name>2604</name>
</trkpt>
<trkpt lat="49.824833" lon="9.405880">
<ele>206.0</ele>
<speed>44.7</speed>
<course>312.8</course>
<desc>Speed 44.7 km/h Distance 91.36 km</desc>
<time>2010-09-11T15:58:39.93</time>
<name>2605</name>
</trkpt>
<trkpt lat="49.825532" lon="9.404712">
<ele>206.0</ele>
<speed>62.5</speed>
<course>321.2</course>
<desc>Speed 62.5 km/h Distance 91.48 km</desc>
<time>2010-09-11T15:58:45.92</time>
<name>2606</name>
</trkpt>
<trkpt lat="49.825790" lon="9.404390">
<ele>206.5</ele>
<speed>62.5</speed>
<course>314.7</course>
<desc>Speed 62.5 km/h Distance 91.51 km</desc>
<time>2010-09-11T15:58:48.91</time>
<name>2607</name>
</trkpt>
<trkpt lat="49.826473" lon="9.403320">
<ele>206.0</ele>
<speed>62.5</speed>
<course>315.9</course>
<desc>Speed 62.5 km/h Distance 91.62 km</desc>
<time>2010-09-11T15:58:53.92</time>
<name>2608</name>
</trkpt>
<trkpt lat="49.826855" lon="9.402747">
<ele>206.5</ele>
<speed>51.9</speed>
<course>316.5</course>
<desc>Speed 51.9 km/h Distance 91.68 km</desc>
<time>2010-09-11T15:58:56.91</time>
<name>2609</name>
</trkpt>
<trkpt lat="49.827015" lon="9.402512">
<ele>206.5</ele>
<speed>51.9</speed>
<course>326.2</course>
<desc>Speed 51.9 km/h Distance 91.71 km</desc>
<time>2010-09-11T15:58:58.90</time>
<name>2610</name>
</trkpt>
<trkpt lat="49.827232" lon="9.402287">
<ele>206.5</ele>
<speed>51.9</speed>
<course>330.2</course>
<desc>Speed 51.9 km/h Distance 91.74 km</desc>
<time>2010-09-11T15:59:00.90</time>
<name>2611</name>
</trkpt>
<trkpt lat="49.827603" lon="9.401957">
<ele>206.5</ele>
<speed>51.9</speed>
<course>325.8</course>
<desc>Speed 51.9 km/h Distance 91.78 km</desc>
<time>2010-09-11T15:59:03.90</time>
<name>2612</name>
</trkpt>
<trkpt lat="49.827788" lon="9.401762">
<ele>206.5</ele>
<speed>51.9</speed>
<course>306.4</course>
<desc>Speed 51.9 km/h Distance 91.81 km</desc>
<time>2010-09-11T15:59:05.91</time>
<name>2613</name>
</trkpt>
<trkpt lat="49.828007" lon="9.401303">
<ele>206.0</ele>
<speed>55.9</speed>
<course>325.0</course>
<desc>Speed 55.9 km/h Distance 91.85 km</desc>
<time>2010-09-11T15:59:09.90</time>
<name>2614</name>
</trkpt>
<trkpt lat="49.828218" lon="9.401073">
<ele>208.5</ele>
<speed>55.9</speed>
<course>313.7</course>
<desc>Speed 55.9 km/h Distance 91.88 km</desc>
<time>2010-09-11T15:59:11.90</time>
<name>2615</name>
</trkpt>
<trkpt lat="49.828422" lon="9.400743">
<ele>209.5</ele>
<speed>55.9</speed>
<course>312.8</course>
<desc>Speed 55.9 km/h Distance 91.91 km</desc>
<time>2010-09-11T15:59:14.89</time>
<name>2616</name>
</trkpt>
<trkpt lat="49.828635" lon="9.400387">
<ele>210.0</ele>
<speed>55.9</speed>
<course>329.7</course>
<desc>Speed 55.9 km/h Distance 91.95 km</desc>
<time>2010-09-11T15:59:19.89</time>
<name>2617</name>
</trkpt>
<trkpt lat="49.828990" lon="9.400065">
<ele>211.0</ele>
<speed>56.6</speed>
<course>324.2</course>
<desc>Speed 56.6 km/h Distance 91.99 km</desc>
<time>2010-09-11T15:59:22.89</time>
<name>2618</name>
</trkpt>
<trkpt lat="49.829188" lon="9.399843">
<ele>211.0</ele>
<speed>56.6</speed>
<course>345.2</course>
<desc>Speed 56.6 km/h Distance 92.02 km</desc>
<time>2010-09-11T15:59:24.88</time>
<name>2619</name>
</trkpt>
<trkpt lat="49.829672" lon="9.399645">
<ele>211.0</ele>
<speed>56.6</speed>
<course>342.1</course>
<desc>Speed 56.6 km/h Distance 92.07 km</desc>
<time>2010-09-11T15:59:27.88</time>
<name>2620</name>
</trkpt>
<trkpt lat="49.829972" lon="9.399495">
<ele>210.5</ele>
<speed>56.6</speed>
<course>347.1</course>
<desc>Speed 56.6 km/h Distance 92.11 km</desc>
<time>2010-09-11T15:59:32.88</time>
<name>2621</name>
</trkpt>
<trkpt lat="49.830348" lon="9.399362">
<ele>210.5</ele>
<speed>56.6</speed>
<course>356.5</course>
<desc>Speed 56.6 km/h Distance 92.15 km</desc>
<time>2010-09-11T15:59:35.88</time>
<name>2622</name>
</trkpt>
<trkpt lat="49.830668" lon="9.399332">
<ele>210.5</ele>
<speed>56.6</speed>
<course>359.6</course>
<desc>Speed 56.6 km/h Distance 92.19 km</desc>
<time>2010-09-11T15:59:38.88</time>
<name>2623</name>
</trkpt>
<trkpt lat="49.830997" lon="9.399328">
<ele>210.5</ele>
<speed>56.6</speed>
<course>319.3</course>
<desc>Speed 56.6 km/h Distance 92.22 km</desc>
<time>2010-09-11T15:59:43.87</time>
<name>2624</name>
</trkpt>
<trkpt lat="49.832615" lon="9.397168">
<ele>210.0</ele>
<speed>56.6</speed>
<course>331.9</course>
<desc>Speed 56.6 km/h Distance 92.46 km</desc>
<time>2010-09-11T15:59:48.88</time>
<name>2625</name>
</trkpt>
<trkpt lat="49.832865" lon="9.396962">
<ele>210.0</ele>
<speed>56.6</speed>
<course>320.8</course>
<desc>Speed 56.6 km/h Distance 92.49 km</desc>
<time>2010-09-11T15:59:50.87</time>
<name>2626</name>
</trkpt>
<trkpt lat="49.837890" lon="9.390608">
<ele>210.0</ele>
<speed>56.6</speed>
<course>285.8</course>
<desc>Speed 56.6 km/h Distance 93.22 km</desc>
<time>2010-09-11T16:00:20.85</time>
<name>2627</name>
</trkpt>
<trkpt lat="49.838017" lon="9.389913">
<ele>210.0</ele>
<speed>56.6</speed>
<course>304.0</course>
<desc>Speed 56.6 km/h Distance 93.27 km</desc>
<time>2010-09-11T16:00:24.83</time>
<name>2628</name>
</trkpt>
<trkpt lat="49.840013" lon="9.385322">
<ele>209.5</ele>
<speed>56.6</speed>
<course>335.5</course>
<desc>Speed 56.6 km/h Distance 93.66 km</desc>
<time>2010-09-11T16:00:34.84</time>
<name>2629</name>
</trkpt>
<trkpt lat="49.840285" lon="9.385130">
<ele>209.5</ele>
<speed>56.6</speed>
<course>323.1</course>
<desc>Speed 56.6 km/h Distance 93.70 km</desc>
<time>2010-09-11T16:00:36.84</time>
<name>2630</name>
</trkpt>
<trkpt lat="49.840633" lon="9.384725">
<ele>211.5</ele>
<speed>56.6</speed>
<course>317.5</course>
<desc>Speed 56.6 km/h Distance 93.75 km</desc>
<time>2010-09-11T16:00:39.84</time>
<name>2631</name>
</trkpt>
<trkpt lat="49.841977" lon="9.382815">
<ele>211.5</ele>
<speed>56.6</speed>
<course>285.0</course>
<desc>Speed 56.6 km/h Distance 93.95 km</desc>
<time>2010-09-11T16:00:46.84</time>
<name>2632</name>
</trkpt>
<trkpt lat="49.842215" lon="9.381433">
<ele>211.5</ele>
<speed>56.6</speed>
<course>325.4</course>
<desc>Speed 56.6 km/h Distance 94.05 km</desc>
<time>2010-09-11T16:00:50.86</time>
<name>2633</name>
</trkpt>
<trkpt lat="49.844760" lon="9.378715">
<ele>211.5</ele>
<speed>56.6</speed>
<course>332.6</course>
<desc>Speed 56.6 km/h Distance 94.40 km</desc>
<time>2010-09-11T16:01:10.82</time>
<name>2634</name>
</trkpt>
<trkpt lat="49.849245" lon="9.375112">
<ele>216.5</ele>
<speed>56.6</speed>
<course>316.7</course>
<desc>Speed 56.6 km/h Distance 94.96 km</desc>
<time>2010-09-11T16:02:02.80</time>
<name>2635</name>
</trkpt>
<trkpt lat="49.851223" lon="9.372220">
<ele>215.0</ele>
<speed>56.6</speed>
<course>320.2</course>
<desc>Speed 56.6 km/h Distance 95.26 km</desc>
<time>2010-09-11T16:02:14.78</time>
<name>2636</name>
</trkpt>
<trkpt lat="49.855418" lon="9.366800">
<ele>216.5</ele>
<speed>56.6</speed>
<course>322.7</course>
<desc>Speed 56.6 km/h Distance 95.87 km</desc>
<time>2010-09-11T16:02:38.78</time>
<name>2637</name>
</trkpt>
<trkpt lat="49.855807" lon="9.366342">
<ele>216.5</ele>
<speed>56.6</speed>
<course>323.7</course>
<desc>Speed 56.6 km/h Distance 95.92 km</desc>
<time>2010-09-11T16:02:41.77</time>
<name>2638</name>
</trkpt>
<trkpt lat="49.856058" lon="9.366055">
<ele>216.5</ele>
<speed>56.6</speed>
<course>334.6</course>
<desc>Speed 56.6 km/h Distance 95.96 km</desc>
<time>2010-09-11T16:02:47.74</time>
<name>2639</name>
</trkpt>
<trkpt lat="49.863163" lon="9.360812">
<ele>215.0</ele>
<speed>56.6</speed>
<course>282.3</course>
<desc>Speed 56.6 km/h Distance 96.83 km</desc>
<time>2010-09-11T16:03:45.72</time>
<name>2640</name>
</trkpt>
<trkpt lat="49.864112" lon="9.354038">
<ele>215.0</ele>
<speed>56.6</speed>
<course>317.3</course>
<desc>Speed 56.6 km/h Distance 97.33 km</desc>
<time>2010-09-11T16:03:50.73</time>
<name>2641</name>
</trkpt>
<trkpt lat="49.864297" lon="9.353773">
<ele>215.0</ele>
<speed>56.6</speed>
<course>335.8</course>
<desc>Speed 56.6 km/h Distance 97.36 km</desc>
<time>2010-09-11T16:03:52.71</time>
<name>2642</name>
</trkpt>
<trkpt lat="49.864457" lon="9.353662">
<ele>215.0</ele>
<speed>56.6</speed>
<course>307.0</course>
<desc>Speed 56.6 km/h Distance 97.38 km</desc>
<time>2010-09-11T16:03:55.71</time>
<name>2643</name>
</trkpt>
<trkpt lat="49.864857" lon="9.352838">
<ele>215.0</ele>
<speed>56.6</speed>
<course>329.8</course>
<desc>Speed 56.6 km/h Distance 97.45 km</desc>
<time>2010-09-11T16:03:59.71</time>
<name>2644</name>
</trkpt>
<trkpt lat="49.864992" lon="9.352717">
<ele>215.0</ele>
<speed>56.6</speed>
<course>324.3</course>
<desc>Speed 56.6 km/h Distance 97.47 km</desc>
<time>2010-09-11T16:04:01.71</time>
<name>2645</name>
</trkpt>
<trkpt lat="49.865165" lon="9.352523">
<ele>214.5</ele>
<speed>56.6</speed>
<course>254.0</course>
<desc>Speed 56.6 km/h Distance 97.49 km</desc>
<time>2010-09-11T16:04:03.73</time>
<name>2646</name>
</trkpt>
<trkpt lat="49.865125" lon="9.352307">
<ele>214.5</ele>
<speed>56.6</speed>
<course>341.5</course>
<desc>Speed 56.6 km/h Distance 97.51 km</desc>
<time>2010-09-11T16:04:04.73</time>
<name>2647</name>
</trkpt>
<trkpt lat="49.870650" lon="9.349438">
<ele>214.0</ele>
<speed>56.6</speed>
<course>25.9</course>
<desc>Speed 56.6 km/h Distance 98.16 km</desc>
<time>2010-09-11T16:05:00.68</time>
<name>2648</name>
</trkpt>
<trkpt lat="49.872692" lon="9.350973">
<ele>214.0</ele>
<speed>56.6</speed>
<course>35.8</course>
<desc>Speed 56.6 km/h Distance 98.41 km</desc>
<time>2010-09-11T16:05:04.68</time>
<name>2649</name>
</trkpt>
<trkpt lat="49.873133" lon="9.351468">
<ele>214.0</ele>
<speed>56.6</speed>
<course>27.9</course>
<desc>Speed 56.6 km/h Distance 98.47 km</desc>
<time>2010-09-11T16:05:06.68</time>
<name>2650</name>
</trkpt>
<trkpt lat="49.874130" lon="9.352287">
<ele>214.0</ele>
<speed>56.6</speed>
<course>32.7</course>
<desc>Speed 56.6 km/h Distance 98.60 km</desc>
<time>2010-09-11T16:05:08.68</time>
<name>2651</name>
</trkpt>
<trkpt lat="49.874480" lon="9.352635">
<ele>214.0</ele>
<speed>56.6</speed>
<course>11.9</course>
<desc>Speed 56.6 km/h Distance 98.64 km</desc>
<time>2010-09-11T16:05:10.67</time>
<name>2652</name>
</trkpt>
<trkpt lat="49.875762" lon="9.353055">
<ele>214.0</ele>
<speed>56.6</speed>
<course>29.5</course>
<desc>Speed 56.6 km/h Distance 98.79 km</desc>
<time>2010-09-11T16:05:12.66</time>
<name>2653</name>
</trkpt>
<trkpt lat="49.877340" lon="9.354440">
<ele>215.5</ele>
<speed>56.6</speed>
<course>47.2</course>
<desc>Speed 56.6 km/h Distance 98.99 km</desc>
<time>2010-09-11T16:05:17.69</time>
<name>2654</name>
</trkpt>
<trkpt lat="49.877887" lon="9.355355">
<ele>215.5</ele>
<speed>56.6</speed>
<course>37.9</course>
<desc>Speed 56.6 km/h Distance 99.08 km</desc>
<time>2010-09-11T16:05:21.68</time>
<name>2655</name>
</trkpt>
<trkpt lat="49.878392" lon="9.355965">
<ele>215.5</ele>
<speed>56.6</speed>
<course>34.3</course>
<desc>Speed 56.6 km/h Distance 99.15 km</desc>
<time>2010-09-11T16:05:25.66</time>
<name>2656</name>
</trkpt>
<trkpt lat="49.881680" lon="9.359448">
<ele>216.0</ele>
<speed>56.6</speed>
<course>336.7</course>
<desc>Speed 56.6 km/h Distance 99.59 km</desc>
<time>2010-09-11T16:05:54.65</time>
<name>2657</name>
</trkpt>
<trkpt lat="49.883598" lon="9.358167">
<ele>215.5</ele>
<speed>56.6</speed>
<course>13.3</course>
<desc>Speed 56.6 km/h Distance 99.83 km</desc>
<time>2010-09-11T16:05:57.64</time>
<name>2658</name>
</trkpt>
<trkpt lat="49.886278" lon="9.359153">
<ele>215.5</ele>
<speed>56.6</speed>
<course>33.9</course>
<desc>Speed 56.6 km/h Distance 100 km</desc>
<time>2010-09-11T16:06:02.66</time>
<name>2659</name>
</trkpt>
<trkpt lat="49.886598" lon="9.359487">
<ele>216.0</ele>
<speed>56.6</speed>
<course>69.5</course>
<desc>Speed 56.6 km/h Distance 100 km</desc>
<time>2010-09-11T16:06:05.66</time>
<name>2660</name>
</trkpt>
<trkpt lat="49.886912" lon="9.360790">
<ele>216.0</ele>
<speed>56.6</speed>
<course>102.1</course>
<desc>Speed 56.6 km/h Distance 100 km</desc>
<time>2010-09-11T16:06:09.65</time>
<name>2661</name>
</trkpt>
<trkpt lat="49.886880" lon="9.361018">
<ele>216.0</ele>
<speed>56.6</speed>
<course>96.9</course>
<desc>Speed 56.6 km/h Distance 100 km</desc>
<time>2010-09-11T16:06:10.66</time>
<name>2662</name>
</trkpt>
<trkpt lat="49.886783" lon="9.362267">
<ele>216.0</ele>
<speed>56.6</speed>
<course>96.4</course>
<desc>Speed 56.6 km/h Distance 100 km</desc>
<time>2010-09-11T16:06:12.65</time>
<name>2663</name>
</trkpt>
<trkpt lat="49.886550" lon="9.365510">
<ele>216.0</ele>
<speed>56.6</speed>
<course>128.6</course>
<desc>Speed 56.6 km/h Distance 100 km</desc>
<time>2010-09-11T16:06:23.64</time>
<name>2664</name>
</trkpt>
<trkpt lat="49.885817" lon="9.366937">
<ele>217.0</ele>
<speed>56.6</speed>
<course>117.5</course>
<desc>Speed 56.6 km/h Distance 100 km</desc>
<time>2010-09-11T16:06:28.63</time>
<name>2665</name>
</trkpt>
<trkpt lat="49.885660" lon="9.367403">
<ele>217.5</ele>
<speed>56.6</speed>
<course>62.1</course>
<desc>Speed 56.6 km/h Distance 100 km</desc>
<time>2010-09-11T16:06:30.63</time>
<name>2666</name>
</trkpt>
<trkpt lat="49.885848" lon="9.367955">
<ele>217.0</ele>
<speed>56.6</speed>
<course>106.0</course>
<desc>Speed 56.6 km/h Distance 100 km</desc>
<time>2010-09-11T16:06:32.64</time>
<name>2667</name>
</trkpt>
<trkpt lat="49.885808" lon="9.368172">
<ele>217.0</ele>
<speed>56.6</speed>
<course>83.0</course>
<desc>Speed 56.6 km/h Distance 100 km</desc>
<time>2010-09-11T16:06:34.63</time>
<name>2668</name>
</trkpt>
<trkpt lat="49.885880" lon="9.369075">
<ele>217.0</ele>
<speed>56.6</speed>
<course>87.5</course>
<desc>Speed 56.6 km/h Distance 100 km</desc>
<time>2010-09-11T16:06:40.63</time>
<name>2669</name>
</trkpt>
<trkpt lat="49.885890" lon="9.369437">
<ele>217.0</ele>
<speed>56.6</speed>
<course>64.6</course>
<desc>Speed 56.6 km/h Distance 100 km</desc>
<time>2010-09-11T16:06:42.63</time>
<name>2670</name>
</trkpt>
<trkpt lat="49.886907" lon="9.372755">
<ele>217.5</ele>
<speed>112</speed>
<course>59.6</course>
<desc>Speed 112 km/h Distance 101 km</desc>
<time>2010-09-11T16:06:46.65</time>
<name>2671</name>
</trkpt>
<trkpt lat="49.888933" lon="9.378125">
<ele>218.0</ele>
<speed>117</speed>
<course>60.8</course>
<desc>Speed 117 km/h Distance 101 km</desc>
<time>2010-09-11T16:06:59.64</time>
<name>2672</name>
</trkpt>
<trkpt lat="49.889372" lon="9.379342">
<ele>219.5</ele>
<speed>117</speed>
<course>56.4</course>
<desc>Speed 117 km/h Distance 101 km</desc>
<time>2010-09-11T16:07:06.64</time>
<name>2673</name>
</trkpt>
<trkpt lat="49.890110" lon="9.381065">
<ele>219.5</ele>
<speed>117</speed>
<course>71.7</course>
<desc>Speed 117 km/h Distance 101 km</desc>
<time>2010-09-11T16:07:11.64</time>
<name>2674</name>
</trkpt>
<trkpt lat="49.890177" lon="9.381378">
<ele>219.5</ele>
<speed>117</speed>
<course>45.5</course>
<desc>Speed 117 km/h Distance 101 km</desc>
<time>2010-09-11T16:07:14.63</time>
<name>2675</name>
</trkpt>
<trkpt lat="49.890822" lon="9.382398">
<ele>219.5</ele>
<speed>117</speed>
<course>17.7</course>
<desc>Speed 117 km/h Distance 102 km</desc>
<time>2010-09-11T16:07:20.63</time>
<name>2676</name>
</trkpt>
<trkpt lat="49.891707" lon="9.382837">
<ele>219.5</ele>
<speed>117</speed>
<course>19.3</course>
<desc>Speed 117 km/h Distance 102 km</desc>
<time>2010-09-11T16:07:22.63</time>
<name>2677</name>
</trkpt>
<trkpt lat="49.891998" lon="9.382995">
<ele>219.5</ele>
<speed>117</speed>
<course>58.9</course>
<desc>Speed 117 km/h Distance 102 km</desc>
<time>2010-09-11T16:07:23.63</time>
<name>2678</name>
</trkpt>
<trkpt lat="49.892702" lon="9.384802">
<ele>219.5</ele>
<speed>117</speed>
<course>49.9</course>
<desc>Speed 117 km/h Distance 102 km</desc>
<time>2010-09-11T16:07:35.62</time>
<name>2679</name>
</trkpt>
<trkpt lat="49.894618" lon="9.388332">
<ele>221.0</ele>
<speed>117</speed>
<course>90.7</course>
<desc>Speed 117 km/h Distance 102 km</desc>
<time>2010-09-11T16:07:41.63</time>
<name>2680</name>
</trkpt>
<trkpt lat="49.894605" lon="9.390053">
<ele>222.0</ele>
<speed>117</speed>
<course>232.6</course>
<desc>Speed 117 km/h Distance 102 km</desc>
<time>2010-09-11T16:07:45.61</time>
<name>2681</name>
</trkpt>
<trkpt lat="49.894480" lon="9.389800">
<ele>223.0</ele>
<speed>117</speed>
<course>339.7</course>
<desc>Speed 117 km/h Distance 102 km</desc>
<time>2010-09-11T16:07:47.61</time>
<name>2682</name>
</trkpt>
<trkpt lat="49.895373" lon="9.389288">
<ele>224.5</ele>
<speed>117</speed>
<course>8.2</course>
<desc>Speed 117 km/h Distance 102 km</desc>
<time>2010-09-11T16:07:49.61</time>
<name>2683</name>
</trkpt>
<trkpt lat="49.897665" lon="9.389798">
<ele>226.5</ele>
<speed>117</speed>
<course>308.5</course>
<desc>Speed 117 km/h Distance 103 km</desc>
<time>2010-09-11T16:08:03.61</time>
<name>2684</name>
</trkpt>
<trkpt lat="49.898200" lon="9.388753">
<ele>227.0</ele>
<speed>117</speed>
<course>348.5</course>
<desc>Speed 117 km/h Distance 103 km</desc>
<time>2010-09-11T16:08:13.62</time>
<name>2685</name>
</trkpt>
<trkpt lat="49.898905" lon="9.388530">
<ele>227.5</ele>
<speed>117</speed>
<course>274.4</course>
<desc>Speed 117 km/h Distance 103 km</desc>
<time>2010-09-11T16:08:19.60</time>
<name>2686</name>
</trkpt>
<trkpt lat="49.898978" lon="9.387047">
<ele>227.0</ele>
<speed>117</speed>
<course>319.4</course>
<desc>Speed 117 km/h Distance 103 km</desc>
<time>2010-09-11T16:08:40.57</time>
<name>2687</name>
</trkpt>
<trkpt lat="49.899200" lon="9.386752">
<ele>227.0</ele>
<speed>117</speed>
<course>308.9</course>
<desc>Speed 117 km/h Distance 103 km</desc>
<time>2010-09-11T16:08:42.56</time>
<name>2688</name>
</trkpt>
<trkpt lat="49.900858" lon="9.383565">
<ele>226.5</ele>
<speed>117</speed>
<course>333.6</course>
<desc>Speed 117 km/h Distance 103 km</desc>
<time>2010-09-11T16:08:44.57</time>
<name>2689</name>
</trkpt>
<trkpt lat="49.901338" lon="9.383195">
<ele>226.5</ele>
<speed>117</speed>
<course>280.8</course>
<desc>Speed 117 km/h Distance 103 km</desc>
<time>2010-09-11T16:08:46.57</time>
<name>2690</name>
</trkpt>
<trkpt lat="49.901575" lon="9.381275">
<ele>226.5</ele>
<speed>117</speed>
<course>4.3</course>
<desc>Speed 117 km/h Distance 103 km</desc>
<time>2010-09-11T16:08:57.58</time>
<name>2691</name>
</trkpt>
<trkpt lat="49.915212" lon="9.382882">
<ele>239.0</ele>
<speed>117</speed>
<course>5.1</course>
<desc>Speed 117 km/h Distance 105 km</desc>
<time>2010-09-11T16:09:49.56</time>
<name>2692</name>
</trkpt>
<trkpt lat="49.916093" lon="9.383005">
<ele>239.0</ele>
<speed>117</speed>
<course>46.1</course>
<desc>Speed 117 km/h Distance 105 km</desc>
<time>2010-09-11T16:09:54.54</time>
<name>2693</name>
</trkpt>
<trkpt lat="49.917723" lon="9.385640">
<ele>240.0</ele>
<speed>117</speed>
<course>72.9</course>
<desc>Speed 117 km/h Distance 105 km</desc>
<time>2010-09-11T16:10:26.51</time>
<name>2694</name>
</trkpt>
<trkpt lat="49.918292" lon="9.388505">
<ele>241.0</ele>
<speed>117</speed>
<course>5.5</course>
<desc>Speed 117 km/h Distance 106 km</desc>
<time>2010-09-11T16:10:28.51</time>
<name>2695</name>
</trkpt>
<trkpt lat="49.922072" lon="9.389073">
<ele>246.5</ele>
<speed>60.0</speed>
<course>71.0</course>
<desc>Speed 60.0 km/h Distance 106 km</desc>
<time>2010-09-11T16:10:42.53</time>
<name>2696</name>
</trkpt>
<trkpt lat="49.922248" lon="9.389868">
<ele>253.0</ele>
<speed>60.0</speed>
<course>64.6</course>
<desc>Speed 60.0 km/h Distance 106 km</desc>
<time>2010-09-11T16:10:45.52</time>
<name>2697</name>
</trkpt>
<trkpt lat="49.922308" lon="9.390065">
<ele>257.5</ele>
<speed>60.0</speed>
<course>1.3</course>
<desc>Speed 60.0 km/h Distance 106 km</desc>
<time>2010-09-11T16:10:46.53</time>
<name>2698</name>
</trkpt>
<trkpt lat="49.922442" lon="9.390070">
<ele>259.5</ele>
<speed>60.0</speed>
<course>70.0</course>
<desc>Speed 60.0 km/h Distance 106 km</desc>
<time>2010-09-11T16:10:47.52</time>
<name>2699</name>
</trkpt>
<trkpt lat="49.922558" lon="9.390567">
<ele>263.0</ele>
<speed>60.0</speed>
<course>70.2</course>
<desc>Speed 60.0 km/h Distance 106 km</desc>
<time>2010-09-11T16:10:49.53</time>
<name>2700</name>
</trkpt>
<trkpt lat="49.922605" lon="9.390768">
<ele>264.5</ele>
<speed>60.0</speed>
<course>53.4</course>
<desc>Speed 60.0 km/h Distance 106 km</desc>
<time>2010-09-11T16:10:50.52</time>
<name>2701</name>
</trkpt>
<trkpt lat="49.922918" lon="9.391423">
<ele>267.0</ele>
<speed>60.0</speed>
<course>58.1</course>
<desc>Speed 60.0 km/h Distance 106 km</desc>
<time>2010-09-11T16:10:53.52</time>
<name>2702</name>
</trkpt>
<trkpt lat="49.923005" lon="9.391640">
<ele>268.0</ele>
<speed>60.0</speed>
<course>35.7</course>
<desc>Speed 60.0 km/h Distance 106 km</desc>
<time>2010-09-11T16:10:54.51</time>
<name>2703</name>
</trkpt>
<trkpt lat="49.923575" lon="9.392277">
<ele>268.5</ele>
<speed>60.0</speed>
<course>33.8</course>
<desc>Speed 60.0 km/h Distance 106 km</desc>
<time>2010-09-11T16:10:57.52</time>
<name>2704</name>
</trkpt>
<trkpt lat="49.923795" lon="9.392505">
<ele>268.5</ele>
<speed>60.0</speed>
<course>328.1</course>
<desc>Speed 60.0 km/h Distance 106 km</desc>
<time>2010-09-11T16:11:03.52</time>
<name>2705</name>
</trkpt>
<trkpt lat="49.926255" lon="9.390128">
<ele>268.5</ele>
<speed>60.0</speed>
<course>40.9</course>
<desc>Speed 60.0 km/h Distance 107 km</desc>
<time>2010-09-11T16:11:28.51</time>
<name>2706</name>
</trkpt>
<trkpt lat="49.926655" lon="9.390667">
<ele>270.5</ele>
<speed>60.0</speed>
<course>97.7</course>
<desc>Speed 60.0 km/h Distance 107 km</desc>
<time>2010-09-11T16:11:34.51</time>
<name>2707</name>
</trkpt>
<trkpt lat="49.926577" lon="9.391567">
<ele>270.0</ele>
<speed>67.5</speed>
<course>114.2</course>
<desc>Speed 67.5 km/h Distance 107 km</desc>
<time>2010-09-11T16:11:37.51</time>
<name>2708</name>
</trkpt>
<trkpt lat="49.926412" lon="9.392137">
<ele>270.5</ele>
<speed>67.5</speed>
<course>79.2</course>
<desc>Speed 67.5 km/h Distance 107 km</desc>
<time>2010-09-11T16:11:41.50</time>
<name>2709</name>
</trkpt>
<trkpt lat="49.926485" lon="9.392737">
<ele>271.5</ele>
<speed>67.5</speed>
<course>89.2</course>
<desc>Speed 67.5 km/h Distance 107 km</desc>
<time>2010-09-11T16:11:46.50</time>
<name>2710</name>
</trkpt>
<trkpt lat="49.926492" lon="9.393445">
<ele>272.0</ele>
<speed>67.5</speed>
<course>95.9</course>
<desc>Speed 67.5 km/h Distance 107 km</desc>
<time>2010-09-11T16:11:49.49</time>
<name>2711</name>
</trkpt>
<trkpt lat="49.926455" lon="9.393995">
<ele>272.0</ele>
<speed>67.5</speed>
<course>82.3</course>
<desc>Speed 67.5 km/h Distance 107 km</desc>
<time>2010-09-11T16:11:51.48</time>
<name>2712</name>
</trkpt>
<trkpt lat="49.926507" lon="9.394587">
<ele>272.0</ele>
<speed>67.5</speed>
<course>52.5</course>
<desc>Speed 67.5 km/h Distance 107 km</desc>
<time>2010-09-11T16:11:54.50</time>
<name>2713</name>
</trkpt>
<trkpt lat="49.926938" lon="9.395462">
<ele>272.0</ele>
<speed>67.5</speed>
<course>116.8</course>
<desc>Speed 67.5 km/h Distance 107 km</desc>
<time>2010-09-11T16:11:56.49</time>
<name>2714</name>
</trkpt>
<trkpt lat="49.926397" lon="9.397127">
<ele>273.5</ele>
<speed>67.5</speed>
<course>45.3</course>
<desc>Speed 67.5 km/h Distance 107 km</desc>
<time>2010-09-11T16:12:00.50</time>
<name>2715</name>
</trkpt>
<trkpt lat="49.926903" lon="9.397923">
<ele>273.5</ele>
<speed>67.5</speed>
<course>325.7</course>
<desc>Speed 67.5 km/h Distance 107 km</desc>
<time>2010-09-11T16:12:03.49</time>
<name>2716</name>
</trkpt>
<trkpt lat="49.927552" lon="9.397237">
<ele>274.0</ele>
<speed>67.5</speed>
<course>85.8</course>
<desc>Speed 67.5 km/h Distance 107 km</desc>
<time>2010-09-11T16:12:11.49</time>
<name>2717</name>
</trkpt>
<trkpt lat="49.927563" lon="9.397485">
<ele>275.5</ele>
<speed>3.0</speed>
<course>330.2</course>
<desc>Speed 3.0 km/h Distance 107 km</desc>
<time>2010-09-11T16:12:17.48</time>
<name>2718</name>
</trkpt>
<trkpt lat="49.927623" lon="9.397432">
<ele>276.5</ele>
<speed>3.0</speed>
<course>305.1</course>
<desc>Speed 3.0 km/h Distance 107 km</desc>
<time>2010-09-11T16:12:19.49</time>
<name>2719</name>
</trkpt>
<trkpt lat="49.927647" lon="9.397380">
<ele>276.5</ele>
<speed>3.1</speed>
<course>284.5</course>
<desc>Speed 3.1 km/h Distance 107 km</desc>
<time>2010-09-11T16:12:21.48</time>
<name>2720</name>
</trkpt>
<trkpt lat="49.927650" lon="9.397360">
<ele>276.5</ele>
<speed>1.4</speed>
<course>158.5</course>
<desc>Speed 1.4 km/h Distance 107 km</desc>
<time>2010-09-11T16:12:22.48</time>
<name>2721</name>
</trkpt>
<trkpt lat="49.927642" lon="9.397365">
<ele>276.5</ele>
<speed>1.4</speed>
<course>339.8</course>
<desc>Speed 1.4 km/h Distance 107 km</desc>
<time>2010-09-11T16:12:23.48</time>
<name>2722</name>
</trkpt>
<trkpt lat="49.927653" lon="9.397358">
<ele>277.0</ele>
<speed>1.4</speed>
<course>90.0</course>
<desc>Speed 1.4 km/h Distance 107 km</desc>
<time>2010-09-11T16:12:24.48</time>
<name>2723</name>
</trkpt>
<trkpt lat="49.927653" lon="9.397360">
<ele>277.5</ele>
<speed>1.4</speed>
<course>319.7</course>
<desc>Speed 1.4 km/h Distance 107 km</desc>
<time>2010-09-11T16:12:25.48</time>
<name>2724</name>
</trkpt>
<trkpt lat="49.927685" lon="9.397318">
<ele>278.5</ele>
<speed>1.4</speed>
<course>217.2</course>
<desc>Speed 1.4 km/h Distance 107 km</desc>
<time>2010-09-11T16:12:27.48</time>
<name>2725</name>
</trkpt>
<trkpt lat="49.927683" lon="9.397317">
<ele>278.5</ele>
<speed>1.4</speed>
<course>248.7</course>
<desc>Speed 1.4 km/h Distance 107 km</desc>
<time>2010-09-11T16:12:28.47</time>
<name>2726</name>
</trkpt>
<trkpt lat="49.927680" lon="9.397303">
<ele>278.5</ele>
<speed>1.4</speed>
<course>259.0</course>
<desc>Speed 1.4 km/h Distance 107 km</desc>
<time>2010-09-11T16:12:29.48</time>
<name>2727</name>
</trkpt>
<trkpt lat="49.927678" lon="9.397290">
<ele>278.5</ele>
<speed>1.4</speed>
<course>259.0</course>
<desc>Speed 1.4 km/h Distance 107 km</desc>
<time>2010-09-11T16:12:30.48</time>
<name>2728</name>
</trkpt>
<trkpt lat="49.927677" lon="9.397277">
<ele>278.5</ele>
<speed>1.4</speed>
<course>40.9</course>
<desc>Speed 1.4 km/h Distance 107 km</desc>
<time>2010-09-11T16:12:31.47</time>
<name>2729</name>
</trkpt>
<trkpt lat="49.927682" lon="9.397283">
<ele>279.0</ele>
<speed>1.4</speed>
<course>10.4</course>
<desc>Speed 1.4 km/h Distance 107 km</desc>
<time>2010-09-11T16:12:32.47</time>
<name>2730</name>
</trkpt>
<trkpt lat="49.927693" lon="9.397287">
<ele>279.0</ele>
<speed>1.4</speed>
<course>338.9</course>
<desc>Speed 1.4 km/h Distance 107 km</desc>
<time>2010-09-11T16:12:33.47</time>
<name>2731</name>
</trkpt>
<trkpt lat="49.927710" lon="9.397277">
<ele>280.0</ele>
<speed>1.4</speed>
<course>353.9</course>
<desc>Speed 1.4 km/h Distance 107 km</desc>
<time>2010-09-11T16:12:34.47</time>
<name>2732</name>
</trkpt>
<trkpt lat="49.927760" lon="9.397268">
<ele>281.0</ele>
<speed>1.4</speed>
<course>98.8</course>
<desc>Speed 1.4 km/h Distance 107 km</desc>
<time>2010-09-11T16:12:36.47</time>
<name>2733</name>
</trkpt>
<trkpt lat="49.927752" lon="9.397352">
<ele>282.5</ele>
<speed>0.1</speed>
<course>238.2</course>
<desc>Speed 0.1 km/h Distance 107 km</desc>
<time>2010-09-11T16:12:38.47</time>
<name>2734</name>
</trkpt>
<trkpt lat="49.927745" lon="9.397335">
<ele>283.0</ele>
<speed>0.9</speed>
<course>316.0</course>
<desc>Speed 0.9 km/h Distance 107 km</desc>
<time>2010-09-11T16:12:40.46</time>
<name>2735</name>
</trkpt>
<trkpt lat="49.927752" lon="9.397325">
<ele>283.0</ele>
<speed>3.4</speed>
<course>270.0</course>
<desc>Speed 3.4 km/h Distance 107 km</desc>
<time>2010-09-11T16:12:41.46</time>
<name>2736</name>
</trkpt>
<trkpt lat="49.927752" lon="9.397318">
<ele>283.0</ele>
<speed>2.8</speed>
<course>16.3</course>
<desc>Speed 2.8 km/h Distance 107 km</desc>
<time>2010-09-11T16:12:42.46</time>
<name>2737</name>
</trkpt>
<trkpt lat="49.927767" lon="9.397325">
<ele>283.5</ele>
<speed>2.5</speed>
<course>354.7</course>
<desc>Speed 2.5 km/h Distance 107 km</desc>
<time>2010-09-11T16:12:43.46</time>
<name>2738</name>
</trkpt>
<trkpt lat="49.927780" lon="9.397323">
<ele>283.5</ele>
<speed>1.1</speed>
<course>308.1</course>
<desc>Speed 1.1 km/h Distance 107 km</desc>
<time>2010-09-11T16:12:44.46</time>
<name>2739</name>
</trkpt>
<trkpt lat="49.927782" lon="9.397320">
<ele>285.0</ele>
<speed>1.1</speed>
<course>146.3</course>
<desc>Speed 1.1 km/h Distance 107 km</desc>
<time>2010-09-11T16:12:45.46</time>
<name>2740</name>
</trkpt>
<trkpt lat="49.927778" lon="9.397323">
<ele>289.5</ele>
<speed>1.1</speed>
<course>229.7</course>
<desc>Speed 1.1 km/h Distance 107 km</desc>
<time>2010-09-11T16:12:46.46</time>
<name>2741</name>
</trkpt>
<trkpt lat="49.927768" lon="9.397305">
<ele>291.0</ele>
<speed>1.7</speed>
<course>139.4</course>
<desc>Speed 1.7 km/h Distance 107 km</desc>
<time>2010-09-11T16:12:47.46</time>
<name>2742</name>
</trkpt>
<trkpt lat="49.927758" lon="9.397318">
<ele>293.5</ele>
<speed>1.9</speed>
<course>167.4</course>
<desc>Speed 1.9 km/h Distance 107 km</desc>
<time>2010-09-11T16:12:48.46</time>
<name>2743</name>
</trkpt>
<trkpt lat="49.927755" lon="9.397320">
<ele>294.0</ele>
<speed>1.9</speed>
<course>101.0</course>
<desc>Speed 1.9 km/h Distance 107 km</desc>
<time>2010-09-11T16:12:49.46</time>
<name>2744</name>
</trkpt>
<trkpt lat="49.927753" lon="9.397333">
<ele>296.0</ele>
<speed>1.9</speed>
<course>185.5</course>
<desc>Speed 1.9 km/h Distance 107 km</desc>
<time>2010-09-11T16:12:50.46</time>
<name>2745</name>
</trkpt>
<trkpt lat="49.927732" lon="9.397330">
<ele>297.5</ele>
<speed>5.1</speed>
<course>177.8</course>
<desc>Speed 5.1 km/h Distance 107 km</desc>
<time>2010-09-11T16:12:51.46</time>
<name>2746</name>
</trkpt>
<trkpt lat="49.927720" lon="9.397330">
<ele>299.5</ele>
<speed>5.1</speed>
<course>58.2</course>
<desc>Speed 5.1 km/h Distance 107 km</desc>
<time>2010-09-11T16:12:52.47</time>
<name>2747</name>
</trkpt>
<trkpt lat="49.927733" lon="9.397363">
<ele>303.0</ele>
<speed>1.2</speed>
<course>8.3</course>
<desc>Speed 1.2 km/h Distance 107 km</desc>
<time>2010-09-11T16:12:53.46</time>
<name>2748</name>
</trkpt>
<trkpt lat="49.927785" lon="9.397375">
<ele>315.0</ele>
<speed>2.2</speed>
<course>342.5</course>
<desc>Speed 2.2 km/h Distance 107 km</desc>
<time>2010-09-11T16:12:55.45</time>
<name>2749</name>
</trkpt>
<trkpt lat="49.927792" lon="9.397372">
<ele>321.5</ele>
<speed>4.1</speed>
<course>181.8</course>
<desc>Speed 4.1 km/h Distance 107 km</desc>
<time>2010-09-11T16:12:56.45</time>
<name>2750</name>
</trkpt>
<trkpt lat="49.927727" lon="9.397368">
<ele>328.0</ele>
<speed>3.5</speed>
<course>172.7</course>
<desc>Speed 3.5 km/h Distance 107 km</desc>
<time>2010-09-11T16:12:58.45</time>
<name>2751</name>
</trkpt>
<trkpt lat="49.927677" lon="9.397378">
<ele>329.5</ele>
<speed>4.8</speed>
<course>164.5</course>
<desc>Speed 4.8 km/h Distance 107 km</desc>
<time>2010-09-11T16:13:00.45</time>
<name>2752</name>
</trkpt>
<trkpt lat="49.927665" lon="9.397383">
<ele>330.0</ele>
<speed>5.1</speed>
<course>159.8</course>
<desc>Speed 5.1 km/h Distance 107 km</desc>
<time>2010-09-11T16:13:01.45</time>
<name>2753</name>
</trkpt>
<trkpt lat="49.927653" lon="9.397390">
<ele>330.0</ele>
<speed>5.1</speed>
<course>150.7</course>
<desc>Speed 5.1 km/h Distance 107 km</desc>
<time>2010-09-11T16:13:02.45</time>
<name>2754</name>
</trkpt>
<trkpt lat="49.927640" lon="9.397402">
<ele>330.5</ele>
<speed>5.0</speed>
<course>165.1</course>
<desc>Speed 5.0 km/h Distance 107 km</desc>
<time>2010-09-11T16:13:03.45</time>
<name>2755</name>
</trkpt>
<trkpt lat="49.927628" lon="9.397407">
<ele>331.0</ele>
<speed>5.0</speed>
<course>159.2</course>
<desc>Speed 5.0 km/h Distance 107 km</desc>
<time>2010-09-11T16:13:04.45</time>
<name>2756</name>
</trkpt>
<trkpt lat="49.927620" lon="9.397412">
<ele>331.0</ele>
<speed>5.0</speed>
<course>152.1</course>
<desc>Speed 5.0 km/h Distance 107 km</desc>
<time>2010-09-11T16:13:05.45</time>
<name>2757</name>
</trkpt>
<trkpt lat="49.927612" lon="9.397418">
<ele>331.5</ele>
<speed>5.0</speed>
<course>112.9</course>
<desc>Speed 5.0 km/h Distance 107 km</desc>
<time>2010-09-11T16:13:06.44</time>
<name>2758</name>
</trkpt>
<trkpt lat="49.927607" lon="9.397437">
<ele>333.0</ele>
<speed>1.0</speed>
<course>109.0</course>
<desc>Speed 1.0 km/h Distance 107 km</desc>
<time>2010-09-11T16:13:07.44</time>
<name>2759</name>
</trkpt>
<trkpt lat="49.927603" lon="9.397452">
<ele>333.5</ele>
<speed>1.0</speed>
<course>130.3</course>
<desc>Speed 1.0 km/h Distance 107 km</desc>
<time>2010-09-11T16:13:08.44</time>
<name>2760</name>
</trkpt>
<trkpt lat="49.927593" lon="9.397470">
<ele>335.0</ele>
<speed>1.0</speed>
<course>165.7</course>
<desc>Speed 1.0 km/h Distance 107 km</desc>
<time>2010-09-11T16:13:09.44</time>
<name>2761</name>
</trkpt>
<trkpt lat="49.927522" lon="9.397498">
<ele>338.5</ele>
<speed>1.5</speed>
<course>167.4</course>
<desc>Speed 1.5 km/h Distance 107 km</desc>
<time>2010-09-11T16:13:11.44</time>
<name>2762</name>
</trkpt>
<trkpt lat="49.927513" lon="9.397502">
<ele>339.5</ele>
<speed>0.3</speed>
<course>168.3</course>
<desc>Speed 0.3 km/h Distance 107 km</desc>
<time>2010-09-11T16:13:12.44</time>
<name>2763</name>
</trkpt>
<trkpt lat="49.927498" lon="9.397507">
<ele>340.5</ele>
<speed>2.7</speed>
<course>102.4</course>
<desc>Speed 2.7 km/h Distance 107 km</desc>
<time>2010-09-11T16:13:13.44</time>
<name>2764</name>
</trkpt>
<trkpt lat="49.927497" lon="9.397518">
<ele>341.5</ele>
<speed>0.2</speed>
<course>72.9</course>
<desc>Speed 0.2 km/h Distance 107 km</desc>
<time>2010-09-11T16:13:14.43</time>
<name>2765</name>
</trkpt>
<trkpt lat="49.927498" lon="9.397527">
<ele>342.5</ele>
<speed>0.5</speed>
<course>147.4</course>
<desc>Speed 0.5 km/h Distance 107 km</desc>
<time>2010-09-11T16:13:15.43</time>
<name>2766</name>
</trkpt>
<trkpt lat="49.927492" lon="9.397533">
<ele>342.5</ele>
<speed>1.5</speed>
<course>167.4</course>
<desc>Speed 1.5 km/h Distance 107 km</desc>
<time>2010-09-11T16:13:16.44</time>
<name>2767</name>
</trkpt>
<trkpt lat="49.927487" lon="9.397535">
<ele>342.5</ele>
<speed>1.9</speed>
<course>37.2</course>
<desc>Speed 1.9 km/h Distance 107 km</desc>
<time>2010-09-11T16:13:17.44</time>
<name>2768</name>
</trkpt>
<trkpt lat="49.927488" lon="9.397537">
<ele>342.5</ele>
<speed>2.0</speed>
<course>104.4</course>
<desc>Speed 2.0 km/h Distance 107 km</desc>
<time>2010-09-11T16:13:18.43</time>
<name>2769</name>
</trkpt>
<trkpt lat="49.927487" lon="9.397547">
<ele>342.5</ele>
<speed>1.3</speed>
<course>127.6</course>
<desc>Speed 1.3 km/h Distance 107 km</desc>
<time>2010-09-11T16:13:19.43</time>
<name>2770</name>
</trkpt>
<trkpt lat="49.927482" lon="9.397557">
<ele>342.5</ele>
<speed>2.1</speed>
<course>354.7</course>
<desc>Speed 2.1 km/h Distance 107 km</desc>
<time>2010-09-11T16:13:20.43</time>
<name>2771</name>
</trkpt>
<trkpt lat="49.927495" lon="9.397555">
<ele>342.0</ele>
<speed>3.6</speed>
<course>21.5</course>
<desc>Speed 3.6 km/h Distance 107 km</desc>
<time>2010-09-11T16:13:21.43</time>
<name>2772</name>
</trkpt>
<trkpt lat="49.927503" lon="9.397560">
<ele>342.0</ele>
<speed>2.1</speed>
<course>163.0</course>
<desc>Speed 2.1 km/h Distance 107 km</desc>
<time>2010-09-11T16:13:22.43</time>
<name>2773</name>
</trkpt>
<trkpt lat="49.927493" lon="9.397565">
<ele>341.5</ele>
<speed>1.2</speed>
<course>127.6</course>
<desc>Speed 1.2 km/h Distance 107 km</desc>
<time>2010-09-11T16:13:23.43</time>
<name>2774</name>
</trkpt>
<trkpt lat="49.927490" lon="9.397572">
<ele>341.5</ele>
<speed>1.8</speed>
<course>161.8</course>
<desc>Speed 1.8 km/h Distance 107 km</desc>
<time>2010-09-11T16:13:24.43</time>
<name>2775</name>
</trkpt>
<trkpt lat="49.927480" lon="9.397577">
<ele>342.0</ele>
<speed>1.0</speed>
<course>167.4</course>
<desc>Speed 1.0 km/h Distance 107 km</desc>
<time>2010-09-11T16:13:25.43</time>
<name>2776</name>
</trkpt>
<trkpt lat="49.927475" lon="9.397578">
<ele>341.5</ele>
<speed>1.7</speed>
<course>308.1</course>
<desc>Speed 1.7 km/h Distance 107 km</desc>
<time>2010-09-11T16:13:26.43</time>
<name>2777</name>
</trkpt>
<trkpt lat="49.927477" lon="9.397575">
<ele>342.0</ele>
<speed>0.2</speed>
<course>0.0</course>
<desc>Speed 0.2 km/h Distance 107 km</desc>
<time>2010-09-11T16:13:27.43</time>
<name>2778</name>
</trkpt>
<trkpt lat="49.927482" lon="9.397575">
<ele>342.5</ele>
<speed>1.3</speed>
<course>270.0</course>
<desc>Speed 1.3 km/h Distance 107 km</desc>
<time>2010-09-11T16:13:28.43</time>
<name>2779</name>
</trkpt>
<trkpt lat="49.927482" lon="9.397573">
<ele>343.5</ele>
<speed>1.0</speed>
<course>322.8</course>
<desc>Speed 1.0 km/h Distance 107 km</desc>
<time>2010-09-11T16:13:29.43</time>
<name>2780</name>
</trkpt>
<trkpt lat="49.927483" lon="9.397572">
<ele>344.0</ele>
<speed>1.0</speed>
<course>270.0</course>
<desc>Speed 1.0 km/h Distance 107 km</desc>
<time>2010-09-11T16:13:30.42</time>
<name>2781</name>
</trkpt>
<trkpt lat="49.927483" lon="9.397570">
<ele>344.0</ele>
<speed>1.0</speed>
<course>142.8</course>
<desc>Speed 1.0 km/h Distance 107 km</desc>
<time>2010-09-11T16:13:31.43</time>
<name>2782</name>
</trkpt>
<trkpt lat="49.927482" lon="9.397572">
<ele>344.5</ele>
<speed>1.0</speed>
<course>146.3</course>
<desc>Speed 1.0 km/h Distance 107 km</desc>
<time>2010-09-11T16:13:32.43</time>
<name>2783</name>
</trkpt>
<trkpt lat="49.927478" lon="9.397575">
<ele>345.5</ele>
<speed>1.0</speed>
<course>127.6</course>
<desc>Speed 1.0 km/h Distance 107 km</desc>
<time>2010-09-11T16:13:33.42</time>
<name>2784</name>
</trkpt>
<trkpt lat="49.927473" lon="9.397585">
<ele>348.0</ele>
<speed>0.2</speed>
<course>147.2</course>
<desc>Speed 0.2 km/h Distance 107 km</desc>
<time>2010-09-11T16:13:34.42</time>
<name>2785</name>
</trkpt>
<trkpt lat="49.927455" lon="9.397603">
<ele>347.0</ele>
<speed>1.2</speed>
<course>167.4</course>
<desc>Speed 1.2 km/h Distance 107 km</desc>
<time>2010-09-11T16:13:36.43</time>
<name>2786</name>
</trkpt>
<trkpt lat="49.927452" lon="9.397603">
<ele>348.0</ele>
<speed>0.9</speed>
<course>213.2</course>
<desc>Speed 0.9 km/h Distance 107 km</desc>
<time>2010-09-11T16:13:37.43</time>
<name>2787</name>
</trkpt>
<trkpt lat="49.927447" lon="9.397598">
<ele>349.5</ele>
<speed>0.7</speed>
<course>224.5</course>
<desc>Speed 0.7 km/h Distance 107 km</desc>
<time>2010-09-11T16:13:38.42</time>
<name>2788</name>
</trkpt>
<trkpt lat="49.927443" lon="9.397593">
<ele>350.5</ele>
<speed>0.3</speed>
<course>213.7</course>
<desc>Speed 0.3 km/h Distance 107 km</desc>
<time>2010-09-11T16:13:39.42</time>
<name>2789</name>
</trkpt>
<trkpt lat="49.927440" lon="9.397590">
<ele>351.0</ele>
<speed>0.6</speed>
<course>223.5</course>
<desc>Speed 0.6 km/h Distance 107 km</desc>
<time>2010-09-11T16:13:40.42</time>
<name>2790</name>
</trkpt>
<trkpt lat="49.927437" lon="9.397585">
<ele>351.5</ele>
<speed>0.3</speed>
<course>249.1</course>
<desc>Speed 0.3 km/h Distance 107 km</desc>
<time>2010-09-11T16:13:41.42</time>
<name>2791</name>
</trkpt>
<trkpt lat="49.927435" lon="9.397578">
<ele>352.0</ele>
<speed>0.1</speed>
<course>257.6</course>
<desc>Speed 0.1 km/h Distance 107 km</desc>
<time>2010-09-11T16:13:42.42</time>
<name>2792</name>
</trkpt>
<trkpt lat="49.927433" lon="9.397567">
<ele>353.5</ele>
<speed>0.8</speed>
<course>257.6</course>
<desc>Speed 0.8 km/h Distance 107 km</desc>
<time>2010-09-11T16:13:43.42</time>
<name>2793</name>
</trkpt>
<trkpt lat="49.927432" lon="9.397555">
<ele>354.5</ele>
<speed>0.6</speed>
<course>270.0</course>
<desc>Speed 0.6 km/h Distance 107 km</desc>
<time>2010-09-11T16:13:44.42</time>
<name>2794</name>
</trkpt>
<trkpt lat="49.927432" lon="9.397553">
<ele>354.0</ele>
<speed>0.7</speed>
<course>270.0</course>
<desc>Speed 0.7 km/h Distance 107 km</desc>
<time>2010-09-11T16:13:45.42</time>
<name>2795</name>
</trkpt>
<trkpt lat="49.927432" lon="9.397552">
<ele>354.0</ele>
<speed>0.7</speed>
<course>332.5</course>
<desc>Speed 0.7 km/h Distance 107 km</desc>
<time>2010-09-11T16:13:46.42</time>
<name>2796</name>
</trkpt>
<trkpt lat="49.927440" lon="9.397545">
<ele>354.0</ele>
<speed>3.4</speed>
<course>338.5</course>
<desc>Speed 3.4 km/h Distance 107 km</desc>
<time>2010-09-11T16:13:47.42</time>
<name>2797</name>
</trkpt>
<trkpt lat="49.927448" lon="9.397540">
<ele>354.5</ele>
<speed>3.4</speed>
<course>270.0</course>
<desc>Speed 3.4 km/h Distance 108 km</desc>
<time>2010-09-11T16:13:48.42</time>
<name>2798</name>
</trkpt>
<trkpt lat="49.927448" lon="9.397537">
<ele>354.5</ele>
<speed>0.6</speed>
<course>12.6</course>
<desc>Speed 0.6 km/h Distance 108 km</desc>
<time>2010-09-11T16:13:49.42</time>
<name>2799</name>
</trkpt>
<trkpt lat="49.927450" lon="9.397537">
<ele>354.5</ele>
<speed>0.2</speed>
<course>51.9</course>
<desc>Speed 0.2 km/h Distance 108 km</desc>
<time>2010-09-11T16:13:50.42</time>
<name>2800</name>
</trkpt>
<trkpt lat="49.927452" lon="9.397540">
<ele>354.5</ele>
<speed>2.6</speed>
<course>7.4</course>
<desc>Speed 2.6 km/h Distance 108 km</desc>
<time>2010-09-11T16:13:51.41</time>
<name>2801</name>
</trkpt>
<trkpt lat="49.927458" lon="9.397540">
<ele>355.5</ele>
<speed>1.3</speed>
<course>231.9</course>
<desc>Speed 1.3 km/h Distance 108 km</desc>
<time>2010-09-11T16:13:52.42</time>
<name>2802</name>
</trkpt>
<trkpt lat="49.927457" lon="9.397537">
<ele>355.5</ele>
<speed>0.4</speed>
<course>128.1</course>
<desc>Speed 0.4 km/h Distance 108 km</desc>
<time>2010-09-11T16:13:53.42</time>
<name>2803</name>
</trkpt>
<trkpt lat="49.927455" lon="9.397540">
<ele>355.5</ele>
<speed>1.3</speed>
<course>165.1</course>
<desc>Speed 1.3 km/h Distance 108 km</desc>
<time>2010-09-11T16:13:54.41</time>
<name>2804</name>
</trkpt>
<trkpt lat="49.927447" lon="9.397543">
<ele>355.0</ele>
<speed>3.0</speed>
<course>212.3</course>
<desc>Speed 3.0 km/h Distance 108 km</desc>
<time>2010-09-11T16:13:55.41</time>
<name>2805</name>
</trkpt>
<trkpt lat="49.927442" lon="9.397538">
<ele>355.0</ele>
<speed>0.3</speed>
<course>202.2</course>
<desc>Speed 0.3 km/h Distance 108 km</desc>
<time>2010-09-11T16:13:56.41</time>
<name>2806</name>
</trkpt>
<trkpt lat="49.927437" lon="9.397535">
<ele>355.0</ele>
<speed>0.3</speed>
<course>146.3</course>
<desc>Speed 0.3 km/h Distance 108 km</desc>
<time>2010-09-11T16:13:57.41</time>
<name>2807</name>
</trkpt>
<trkpt lat="49.927433" lon="9.397538">
<ele>355.0</ele>
<speed>1.1</speed>
<course>142.8</course>
<desc>Speed 1.1 km/h Distance 108 km</desc>
<time>2010-09-11T16:13:58.41</time>
<name>2808</name>
</trkpt>
<trkpt lat="49.927432" lon="9.397540">
<ele>355.0</ele>
<speed>0.6</speed>
<course>90.0</course>
<desc>Speed 0.6 km/h Distance 108 km</desc>
<time>2010-09-11T16:13:59.41</time>
<name>2809</name>
</trkpt>
<trkpt lat="49.927432" lon="9.397555">
<ele>354.5</ele>
<speed>1.6</speed>
<course>121.8</course>
<desc>Speed 1.6 km/h Distance 108 km</desc>
<time>2010-09-11T16:14:00.41</time>
<name>2810</name>
</trkpt>
<trkpt lat="49.927425" lon="9.397572">
<ele>353.0</ele>
<speed>1.8</speed>
<course>147.4</course>
<desc>Speed 1.8 km/h Distance 108 km</desc>
<time>2010-09-11T16:14:01.41</time>
<name>2811</name>
</trkpt>
<trkpt lat="49.927418" lon="9.397578">
<ele>353.0</ele>
<speed>2.8</speed>
<course>224.0</course>
<desc>Speed 2.8 km/h Distance 108 km</desc>
<time>2010-09-11T16:14:02.41</time>
<name>2812</name>
</trkpt>
<trkpt lat="49.927412" lon="9.397568">
<ele>354.5</ele>
<speed>3.2</speed>
<course>252.7</course>
<desc>Speed 3.2 km/h Distance 108 km</desc>
<time>2010-09-11T16:14:03.41</time>
<name>2813</name>
</trkpt>
<trkpt lat="49.927407" lon="9.397543">
<ele>356.0</ele>
<speed>5.5</speed>
<course>184.4</course>
<desc>Speed 5.5 km/h Distance 108 km</desc>
<time>2010-09-11T16:14:04.41</time>
<name>2814</name>
</trkpt>
<trkpt lat="49.927397" lon="9.397542">
<ele>356.5</ele>
<speed>4.4</speed>
<course>62.6</course>
<desc>Speed 4.4 km/h Distance 108 km</desc>
<time>2010-09-11T16:14:05.41</time>
<name>2815</name>
</trkpt>
<trkpt lat="49.927398" lon="9.397547">
<ele>356.5</ele>
<speed>3.3</speed>
<course>169.7</course>
<desc>Speed 3.3 km/h Distance 108 km</desc>
<time>2010-09-11T16:14:06.41</time>
<name>2816</name>
</trkpt>
<trkpt lat="49.927392" lon="9.397548">
<ele>356.5</ele>
<speed>3.7</speed>
<course>344.5</course>
<desc>Speed 3.7 km/h Distance 108 km</desc>
<time>2010-09-11T16:14:07.40</time>
<name>2817</name>
</trkpt>
<trkpt lat="49.927403" lon="9.397543">
<ele>357.5</ele>
<speed>3.6</speed>
<course>180.0</course>
<desc>Speed 3.6 km/h Distance 108 km</desc>
<time>2010-09-11T16:14:08.40</time>
<name>2818</name>
</trkpt>
<trkpt lat="49.927393" lon="9.397543">
<ele>358.0</ele>
<speed>3.9</speed>
<course>231.9</course>
<desc>Speed 3.9 km/h Distance 108 km</desc>
<time>2010-09-11T16:14:09.40</time>
<name>2819</name>
</trkpt>
<trkpt lat="49.927390" lon="9.397537">
<ele>358.0</ele>
<speed>3.9</speed>
<course>270.0</course>
<desc>Speed 3.9 km/h Distance 108 km</desc>
<time>2010-09-11T16:14:10.40</time>
<name>2820</name>
</trkpt>
<trkpt lat="49.927390" lon="9.397532">
<ele>358.0</ele>
<speed>1.6</speed>
<course>287.1</course>
<desc>Speed 1.6 km/h Distance 108 km</desc>
<time>2010-09-11T16:14:11.40</time>
<name>2821</name>
</trkpt>
<trkpt lat="49.927392" lon="9.397523">
<ele>358.0</ele>
<speed>3.3</speed>
<course>200.2</course>
<desc>Speed 3.3 km/h Distance 108 km</desc>
<time>2010-09-11T16:14:12.40</time>
<name>2822</name>
</trkpt>
<trkpt lat="49.927380" lon="9.397517">
<ele>358.0</ele>
<speed>5.7</speed>
<course>147.7</course>
<desc>Speed 5.7 km/h Distance 108 km</desc>
<time>2010-09-11T16:14:13.40</time>
<name>2823</name>
</trkpt>
<trkpt lat="49.927375" lon="9.397522">
<ele>358.0</ele>
<speed>6.7</speed>
<course>65.0</course>
<desc>Speed 6.7 km/h Distance 108 km</desc>
<time>2010-09-11T16:14:14.40</time>
<name>2824</name>
</trkpt>
<trkpt lat="49.927380" lon="9.397538">
<ele>358.5</ele>
<speed>3.1</speed>
<course>58.2</course>
<desc>Speed 3.1 km/h Distance 108 km</desc>
<time>2010-09-11T16:14:15.40</time>
<name>2825</name>
</trkpt>
<trkpt lat="49.927387" lon="9.397555">
<ele>358.5</ele>
<speed>5.2</speed>
<course>90.0</course>
<desc>Speed 5.2 km/h Distance 108 km</desc>
<time>2010-09-11T16:14:16.39</time>
<name>2826</name>
</trkpt>
<trkpt lat="49.927387" lon="9.397567">
<ele>358.5</ele>
<speed>4.4</speed>
<course>159.8</course>
<desc>Speed 4.4 km/h Distance 108 km</desc>
<time>2010-09-11T16:14:17.40</time>
<name>2827</name>
</trkpt>
<trkpt lat="49.927375" lon="9.397573">
<ele>358.5</ele>
<speed>4.7</speed>
<course>153.0</course>
<desc>Speed 4.7 km/h Distance 108 km</desc>
<time>2010-09-11T16:14:18.40</time>
<name>2828</name>
</trkpt>
<trkpt lat="49.927367" lon="9.397580">
<ele>358.5</ele>
<speed>2.6</speed>
<course>169.8</course>
<desc>Speed 2.6 km/h Distance 108 km</desc>
<time>2010-09-11T16:14:19.39</time>
<name>2829</name>
</trkpt>
<trkpt lat="49.927348" lon="9.397585">
<ele>358.0</ele>
<speed>3.1</speed>
<course>165.0</course>
<desc>Speed 3.1 km/h Distance 108 km</desc>
<time>2010-09-11T16:14:20.40</time>
<name>2830</name>
</trkpt>
<trkpt lat="49.927328" lon="9.397593">
<ele>357.5</ele>
<speed>3.5</speed>
<course>180.0</course>
<desc>Speed 3.5 km/h Distance 108 km</desc>
<time>2010-09-11T16:14:21.39</time>
<name>2831</name>
</trkpt>
<trkpt lat="49.927285" lon="9.397592">
<ele>357.0</ele>
<speed>3.2</speed>
<course>151.0</course>
<desc>Speed 3.2 km/h Distance 108 km</desc>
<time>2010-09-11T16:14:23.39</time>
<name>2832</name>
</trkpt>
<trkpt lat="49.927273" lon="9.397602">
<ele>356.5</ele>
<speed>1.8</speed>
<course>167.4</course>
<desc>Speed 1.8 km/h Distance 108 km</desc>
<time>2010-09-11T16:14:24.39</time>
<name>2833</name>
</trkpt>
<trkpt lat="49.927265" lon="9.397605">
<ele>356.5</ele>
<speed>0.8</speed>
<course>117.4</course>
<desc>Speed 0.8 km/h Distance 108 km</desc>
<time>2010-09-11T16:14:25.39</time>
<name>2834</name>
</trkpt>
<trkpt lat="49.927258" lon="9.397625">
<ele>356.5</ele>
<speed>4.6</speed>
<course>161.2</course>
<desc>Speed 4.6 km/h Distance 108 km</desc>
<time>2010-09-11T16:14:26.39</time>
<name>2835</name>
</trkpt>
<trkpt lat="49.927255" lon="9.397627">
<ele>356.0</ele>
<speed>1.1</speed>
<course>231.9</course>
<desc>Speed 1.1 km/h Distance 108 km</desc>
<time>2010-09-11T16:14:27.39</time>
<name>2836</name>
</trkpt>
<trkpt lat="49.927253" lon="9.397623">
<ele>356.0</ele>
<speed>1.1</speed>
<course>90.0</course>
<desc>Speed 1.1 km/h Distance 108 km</desc>
<time>2010-09-11T16:14:28.39</time>
<name>2837</name>
</trkpt>
<trkpt lat="49.927253" lon="9.397625">
<ele>356.5</ele>
<speed>3.4</speed>
<course>242.6</course>
<desc>Speed 3.4 km/h Distance 108 km</desc>
<time>2010-09-11T16:14:29.38</time>
<name>2838</name>
</trkpt>
<trkpt lat="49.927252" lon="9.397620">
<ele>356.5</ele>
<speed>0.5</speed>
<course>90.0</course>
<desc>Speed 0.5 km/h Distance 108 km</desc>
<time>2010-09-11T16:14:30.38</time>
<name>2839</name>
</trkpt>
<trkpt lat="49.927252" lon="9.397625">
<ele>357.0</ele>
<speed>0.8</speed>
<course>249.1</course>
<desc>Speed 0.8 km/h Distance 108 km</desc>
<time>2010-09-11T16:14:31.38</time>
<name>2840</name>
</trkpt>
<trkpt lat="49.927250" lon="9.397618">
<ele>357.5</ele>
<speed>0.9</speed>
<course>209.2</course>
<desc>Speed 0.9 km/h Distance 108 km</desc>
<time>2010-09-11T16:14:32.38</time>
<name>2841</name>
</trkpt>
<trkpt lat="49.927247" lon="9.397615">
<ele>358.0</ele>
<speed>0.9</speed>
<course>209.2</course>
<desc>Speed 0.9 km/h Distance 108 km</desc>
<time>2010-09-11T16:14:33.39</time>
<name>2842</name>
</trkpt>
<trkpt lat="49.927243" lon="9.397612">
<ele>358.0</ele>
<speed>0.9</speed>
<course>209.2</course>
<desc>Speed 0.9 km/h Distance 108 km</desc>
<time>2010-09-11T16:14:34.38</time>
<name>2843</name>
</trkpt>
<trkpt lat="49.927243" lon="9.397612">
<ele>358.5</ele>
<speed>0.9</speed>
<course>167.4</course>
<desc>Speed 0.9 km/h Distance 108 km</desc>
<time>2010-09-11T16:14:35.38</time>
<name>2844</name>
</trkpt>
<trkpt lat="49.927242" lon="9.397613">
<ele>358.5</ele>
<speed>0.9</speed>
<course>32.8</course>
<desc>Speed 0.9 km/h Distance 108 km</desc>
<time>2010-09-11T16:14:36.38</time>
<name>2845</name>
</trkpt>
<trkpt lat="49.927258" lon="9.397630">
<ele>359.5</ele>
<speed>2.8</speed>
<course>347.4</course>
<desc>Speed 2.8 km/h Distance 108 km</desc>
<time>2010-09-11T16:14:37.38</time>
<name>2846</name>
</trkpt>
<trkpt lat="49.927263" lon="9.397628">
<ele>359.5</ele>
<speed>2.8</speed>
<course>316.5</course>
<desc>Speed 2.8 km/h Distance 108 km</desc>
<time>2010-09-11T16:14:38.38</time>
<name>2847</name>
</trkpt>
<trkpt lat="49.927267" lon="9.397623">
<ele>360.5</ele>
<speed>2.8</speed>
<course>290.9</course>
<desc>Speed 2.8 km/h Distance 108 km</desc>
<time>2010-09-11T16:14:39.38</time>
<name>2848</name>
</trkpt>
<trkpt lat="49.927268" lon="9.397617">
<ele>361.0</ele>
<speed>2.8</speed>
<course>327.7</course>
<desc>Speed 2.8 km/h Distance 108 km</desc>
<time>2010-09-11T16:14:40.38</time>
<name>2849</name>
</trkpt>
<trkpt lat="49.927273" lon="9.397612">
<ele>361.5</ele>
<speed>2.8</speed>
<course>0.0</course>
<desc>Speed 2.8 km/h Distance 108 km</desc>
<time>2010-09-11T16:14:41.39</time>
<name>2850</name>
</trkpt>
<trkpt lat="49.927278" lon="9.397612">
<ele>362.0</ele>
<speed>1.2</speed>
<course>29.2</course>
<desc>Speed 1.2 km/h Distance 108 km</desc>
<time>2010-09-11T16:14:42.38</time>
<name>2851</name>
</trkpt>
<trkpt lat="49.927282" lon="9.397615">
<ele>362.0</ele>
<speed>1.2</speed>
<course>4.6</course>
<desc>Speed 1.2 km/h Distance 108 km</desc>
<time>2010-09-11T16:14:43.38</time>
<name>2852</name>
</trkpt>
<trkpt lat="49.927335" lon="9.397622">
<ele>362.0</ele>
<speed>9.4</speed>
<course>347.9</course>
<desc>Speed 9.4 km/h Distance 108 km</desc>
<time>2010-09-11T16:14:45.37</time>
<name>2853</name>
</trkpt>
<trkpt lat="49.927355" lon="9.397615">
<ele>362.0</ele>
<speed>9.4</speed>
<course>347.9</course>
<desc>Speed 9.4 km/h Distance 108 km</desc>
<time>2010-09-11T16:14:46.38</time>
<name>2854</name>
</trkpt>
<trkpt lat="49.927375" lon="9.397608">
<ele>362.0</ele>
<speed>9.4</speed>
<course>20.8</course>
<desc>Speed 9.4 km/h Distance 108 km</desc>
<time>2010-09-11T16:14:47.38</time>
<name>2855</name>
</trkpt>
<trkpt lat="49.927412" lon="9.397630">
<ele>359.5</ele>
<speed>6.6</speed>
<course>355.3</course>
<desc>Speed 6.6 km/h Distance 108 km</desc>
<time>2010-09-11T16:14:48.38</time>
<name>2856</name>
</trkpt>
<trkpt lat="49.927595" lon="9.397607">
<ele>361.5</ele>
<speed>1.5</speed>
<course>297.4</course>
<desc>Speed 1.5 km/h Distance 108 km</desc>
<time>2010-09-11T16:14:51.38</time>
<name>2857</name>
</trkpt>
<trkpt lat="49.927597" lon="9.397602">
<ele>361.5</ele>
<speed>1.5</speed>
<course>322.8</course>
<desc>Speed 1.5 km/h Distance 108 km</desc>
<time>2010-09-11T16:14:52.38</time>
<name>2858</name>
</trkpt>
<trkpt lat="49.927598" lon="9.397600">
<ele>361.5</ele>
<speed>1.5</speed>
<course>334.2</course>
<desc>Speed 1.5 km/h Distance 108 km</desc>
<time>2010-09-11T16:14:53.37</time>
<name>2859</name>
</trkpt>
<trkpt lat="49.927612" lon="9.397590">
<ele>362.0</ele>
<speed>4.8</speed>
<course>286.2</course>
<desc>Speed 4.8 km/h Distance 108 km</desc>
<time>2010-09-11T16:14:54.38</time>
<name>2860</name>
</trkpt>
<trkpt lat="49.927617" lon="9.397563">
<ele>362.5</ele>
<speed>3.5</speed>
<course>310.6</course>
<desc>Speed 3.5 km/h Distance 108 km</desc>
<time>2010-09-11T16:14:55.37</time>
<name>2861</name>
</trkpt>
<trkpt lat="49.927618" lon="9.397560">
<ele>362.0</ele>
<speed>0.5</speed>
<course>10.3</course>
<desc>Speed 0.5 km/h Distance 108 km</desc>
<time>2010-09-11T16:14:56.37</time>
<name>2862</name>
</trkpt>
<trkpt lat="49.927625" lon="9.397562">
<ele>362.5</ele>
<speed>0.5</speed>
<course>328.4</course>
<desc>Speed 0.5 km/h Distance 108 km</desc>
<time>2010-09-11T16:14:57.37</time>
<name>2863</name>
</trkpt>
<trkpt lat="49.927628" lon="9.397558">
<ele>362.5</ele>
<speed>1.3</speed>
<course>338.7</course>
<desc>Speed 1.3 km/h Distance 108 km</desc>
<time>2010-09-11T16:14:58.37</time>
<name>2864</name>
</trkpt>
<trkpt lat="49.927683" lon="9.397525">
<ele>364.0</ele>
<speed>4.0</speed>
<course>340.9</course>
<desc>Speed 4.0 km/h Distance 108 km</desc>
<time>2010-09-11T16:15:00.37</time>
<name>2865</name>
</trkpt>
<trkpt lat="49.927708" lon="9.397512">
<ele>364.5</ele>
<speed>4.0</speed>
<course>346.0</course>
<desc>Speed 4.0 km/h Distance 108 km</desc>
<time>2010-09-11T16:15:01.37</time>
<name>2866</name>
</trkpt>
<trkpt lat="49.927722" lon="9.397507">
<ele>364.5</ele>
<speed>4.0</speed>
<course>217.2</course>
<desc>Speed 4.0 km/h Distance 108 km</desc>
<time>2010-09-11T16:15:02.37</time>
<name>2867</name>
</trkpt>
<trkpt lat="49.927720" lon="9.397505">
<ele>364.5</ele>
<speed>4.0</speed>
<course>270.0</course>
<desc>Speed 4.0 km/h Distance 108 km</desc>
<time>2010-09-11T16:15:03.36</time>
<name>2868</name>
</trkpt>
<trkpt lat="49.927720" lon="9.397503">
<ele>364.5</ele>
<speed>4.0</speed>
<course>353.6</course>
<desc>Speed 4.0 km/h Distance 108 km</desc>
<time>2010-09-11T16:15:04.37</time>
<name>2869</name>
</trkpt>
<trkpt lat="49.927758" lon="9.397497">
<ele>364.5</ele>
<speed>4.0</speed>
<course>308.1</course>
<desc>Speed 4.0 km/h Distance 108 km</desc>
<time>2010-09-11T16:15:06.36</time>
<name>2870</name>
</trkpt>
<trkpt lat="49.927762" lon="9.397490">
<ele>364.5</ele>
<speed>4.0</speed>
<course>0.0</course>
<desc>Speed 4.0 km/h Distance 108 km</desc>
<time>2010-09-11T16:15:07.36</time>
<name>2871</name>
</trkpt>
<trkpt lat="49.927783" lon="9.397490">
<ele>365.0</ele>
<speed>4.0</speed>
<course>352.5</course>
<desc>Speed 4.0 km/h Distance 108 km</desc>
<time>2010-09-11T16:15:08.36</time>
<name>2872</name>
</trkpt>
<trkpt lat="49.927807" lon="9.397485">
<ele>366.5</ele>
<speed>4.0</speed>
<course>270.0</course>
<desc>Speed 4.0 km/h Distance 108 km</desc>
<time>2010-09-11T16:15:09.37</time>
<name>2873</name>
</trkpt>
<trkpt lat="49.927807" lon="9.397482">
<ele>367.0</ele>
<speed>4.0</speed>
<course>336.9</course>
<desc>Speed 4.0 km/h Distance 108 km</desc>
<time>2010-09-11T16:15:10.36</time>
<name>2874</name>
</trkpt>
<trkpt lat="49.927822" lon="9.397472">
<ele>368.0</ele>
<speed>0.6</speed>
<course>13.8</course>
<desc>Speed 0.6 km/h Distance 108 km</desc>
<time>2010-09-11T16:15:11.36</time>
<name>2875</name>
</trkpt>
<trkpt lat="49.927830" lon="9.397475">
<ele>369.0</ele>
<speed>0.6</speed>
<course>117.4</course>
<desc>Speed 0.6 km/h Distance 108 km</desc>
<time>2010-09-11T16:15:12.36</time>
<name>2876</name>
</trkpt>
<trkpt lat="49.927828" lon="9.397480">
<ele>369.0</ele>
<speed>3.3</speed>
<course>90.0</course>
<desc>Speed 3.3 km/h Distance 108 km</desc>
<time>2010-09-11T16:15:13.36</time>
<name>2877</name>
</trkpt>
<trkpt lat="49.927828" lon="9.397487">
<ele>369.0</ele>
<speed>3.3</speed>
<course>270.0</course>
<desc>Speed 3.3 km/h Distance 108 km</desc>
<time>2010-09-11T16:15:14.36</time>
<name>2878</name>
</trkpt>
<trkpt lat="49.927828" lon="9.397478">
<ele>369.0</ele>
<speed>1.4</speed>
<course>327.1</course>
<desc>Speed 1.4 km/h Distance 108 km</desc>
<time>2010-09-11T16:15:15.36</time>
<name>2879</name>
</trkpt>
<trkpt lat="49.927837" lon="9.397470">
<ele>367.0</ele>
<speed>0.4</speed>
<course>314.2</course>
<desc>Speed 0.4 km/h Distance 108 km</desc>
<time>2010-09-11T16:15:16.35</time>
<name>2880</name>
</trkpt>
<trkpt lat="49.927845" lon="9.397457">
<ele>366.5</ele>
<speed>1.4</speed>
<course>270.0</course>
<desc>Speed 1.4 km/h Distance 108 km</desc>
<time>2010-09-11T16:15:17.36</time>
<name>2881</name>
</trkpt>
<trkpt lat="49.927845" lon="9.397453">
<ele>366.0</ele>
<speed>1.4</speed>
<course>308.1</course>
<desc>Speed 1.4 km/h Distance 108 km</desc>
<time>2010-09-11T16:15:18.35</time>
<name>2882</name>
</trkpt>
<trkpt lat="49.927847" lon="9.397450">
<ele>364.5</ele>
<speed>1.4</speed>
<course>203.8</course>
<desc>Speed 1.4 km/h Distance 108 km</desc>
<time>2010-09-11T16:15:19.36</time>
<name>2883</name>
</trkpt>
<trkpt lat="49.927842" lon="9.397447">
<ele>363.5</ele>
<speed>1.4</speed>
<course>260.2</course>
<desc>Speed 1.4 km/h Distance 108 km</desc>
<time>2010-09-11T16:15:20.35</time>
<name>2884</name>
</trkpt>
<trkpt lat="49.927840" lon="9.397432">
<ele>363.5</ele>
<speed>1.7</speed>
<course>236.2</course>
<desc>Speed 1.7 km/h Distance 108 km</desc>
<time>2010-09-11T16:15:21.35</time>
<name>2885</name>
</trkpt>
<trkpt lat="49.927835" lon="9.397420">
<ele>363.0</ele>
<speed>1.1</speed>
<course>193.1</course>
<desc>Speed 1.1 km/h Distance 108 km</desc>
<time>2010-09-11T16:15:22.35</time>
<name>2886</name>
</trkpt>
<trkpt lat="49.927817" lon="9.397413">
<ele>362.0</ele>
<speed>4.5</speed>
<course>195.5</course>
<desc>Speed 4.5 km/h Distance 108 km</desc>
<time>2010-09-11T16:15:23.35</time>
<name>2887</name>
</trkpt>
<trkpt lat="49.927805" lon="9.397408">
<ele>362.0</ele>
<speed>0.6</speed>
<course>232.4</course>
<desc>Speed 0.6 km/h Distance 108 km</desc>
<time>2010-09-11T16:15:24.35</time>
<name>2888</name>
</trkpt>
<trkpt lat="49.927800" lon="9.397398">
<ele>361.5</ele>
<speed>1.2</speed>
<course>339.2</course>
<desc>Speed 1.2 km/h Distance 108 km</desc>
<time>2010-09-11T16:15:25.35</time>
<name>2889</name>
</trkpt>
<trkpt lat="49.927808" lon="9.397393">
<ele>361.0</ele>
<speed>0.5</speed>
<course>90.0</course>
<desc>Speed 0.5 km/h Distance 108 km</desc>
<time>2010-09-11T16:15:26.35</time>
<name>2890</name>
</trkpt>
<trkpt lat="49.927808" lon="9.397407">
<ele>359.5</ele>
<speed>2.8</speed>
<course>12.6</course>
<desc>Speed 2.8 km/h Distance 108 km</desc>
<time>2010-09-11T16:15:27.35</time>
<name>2891</name>
</trkpt>
<trkpt lat="49.927812" lon="9.397408">
<ele>360.0</ele>
<speed>0.9</speed>
<course>187.4</course>
<desc>Speed 0.9 km/h Distance 108 km</desc>
<time>2010-09-11T16:15:28.35</time>
<name>2892</name>
</trkpt>
<trkpt lat="49.927805" lon="9.397407">
<ele>358.5</ele>
<speed>0.5</speed>
<course>172.6</course>
<desc>Speed 0.5 km/h Distance 108 km</desc>
<time>2010-09-11T16:15:29.35</time>
<name>2893</name>
</trkpt>
<trkpt lat="49.927798" lon="9.397408">
<ele>359.0</ele>
<speed>0.3</speed>
<course>128.1</course>
<desc>Speed 0.3 km/h Distance 108 km</desc>
<time>2010-09-11T16:15:30.35</time>
<name>2894</name>
</trkpt>
<trkpt lat="49.927795" lon="9.397415">
<ele>359.0</ele>
<speed>0.6</speed>
<course>104.6</course>
<desc>Speed 0.6 km/h Distance 108 km</desc>
<time>2010-09-11T16:15:31.34</time>
<name>2895</name>
</trkpt>
<trkpt lat="49.927793" lon="9.397425">
<ele>358.5</ele>
<speed>0.6</speed>
<course>213.7</course>
<desc>Speed 0.6 km/h Distance 108 km</desc>
<time>2010-09-11T16:15:32.34</time>
<name>2896</name>
</trkpt>
<trkpt lat="49.927790" lon="9.397422">
<ele>358.5</ele>
<speed>0.9</speed>
<course>167.4</course>
<desc>Speed 0.9 km/h Distance 108 km</desc>
<time>2010-09-11T16:15:33.34</time>
<name>2897</name>
</trkpt>
<trkpt lat="49.927788" lon="9.397422">
<ele>358.5</ele>
<speed>0.7</speed>
<course>180.0</course>
<desc>Speed 0.7 km/h Distance 108 km</desc>
<time>2010-09-11T16:15:34.34</time>
<name>2898</name>
</trkpt>
<trkpt lat="49.927785" lon="9.397422">
<ele>358.0</ele>
<speed>0.4</speed>
<course>180.0</course>
<desc>Speed 0.4 km/h Distance 108 km</desc>
<time>2010-09-11T16:15:35.35</time>
<name>2899</name>
</trkpt>
<trkpt lat="49.927785" lon="9.397422">
<ele>358.0</ele>
<speed>0.6</speed>
<course>180.0</course>
<desc>Speed 0.6 km/h Distance 108 km</desc>
<time>2010-09-11T16:15:36.34</time>
<name>2900</name>
</trkpt>
<trkpt lat="49.927785" lon="9.397423">
<ele>358.5</ele>
<speed>0.6</speed>
<course>180.0</course>
<desc>Speed 0.6 km/h Distance 108 km</desc>
<time>2010-09-11T16:15:37.34</time>
<name>2901</name>
</trkpt>
<trkpt lat="49.927785" lon="9.397423">
<ele>358.5</ele>
<speed>0.6</speed>
<course>180.0</course>
<desc>Speed 0.6 km/h Distance 108 km</desc>
<time>2010-09-11T16:15:38.34</time>
<name>2902</name>
</trkpt>
<trkpt lat="49.927785" lon="9.397423">
<ele>359.0</ele>
<speed>0.6</speed>
<course>37.2</course>
<desc>Speed 0.6 km/h Distance 108 km</desc>
<time>2010-09-11T16:15:39.34</time>
<name>2903</name>
</trkpt>
<trkpt lat="49.927787" lon="9.397425">
<ele>359.0</ele>
<speed>0.6</speed>
<course>58.2</course>
<desc>Speed 0.6 km/h Distance 108 km</desc>
<time>2010-09-11T16:15:40.35</time>
<name>2904</name>
</trkpt>
<trkpt lat="49.927790" lon="9.397433">
<ele>358.5</ele>
<speed>0.9</speed>
<course>270.0</course>
<desc>Speed 0.9 km/h Distance 108 km</desc>
<time>2010-09-11T16:15:41.34</time>
<name>2905</name>
</trkpt>
<trkpt lat="49.927790" lon="9.397418">
<ele>359.0</ele>
<speed>3.0</speed>
<course>270.0</course>
<desc>Speed 3.0 km/h Distance 108 km</desc>
<time>2010-09-11T16:15:42.34</time>
<name>2906</name>
</trkpt>
<trkpt lat="49.927790" lon="9.397408">
<ele>359.5</ele>
<speed>3.0</speed>
<course>255.5</course>
<desc>Speed 3.0 km/h Distance 108 km</desc>
<time>2010-09-11T16:15:43.34</time>
<name>2907</name>
</trkpt>
<trkpt lat="49.927788" lon="9.397398">
<ele>360.5</ele>
<speed>3.0</speed>
<course>156.6</course>
<desc>Speed 3.0 km/h Distance 108 km</desc>
<time>2010-09-11T16:15:44.34</time>
<name>2908</name>
</trkpt>
<trkpt lat="49.927778" lon="9.397405">
<ele>360.5</ele>
<speed>3.2</speed>
<course>156.6</course>
<desc>Speed 3.2 km/h Distance 108 km</desc>
<time>2010-09-11T16:15:45.35</time>
<name>2909</name>
</trkpt>
<trkpt lat="49.927778" lon="9.397405">
<ele>360.0</ele>
<speed>3.2</speed>
<course>147.1</course>
<desc>Speed 3.2 km/h Distance 108 km</desc>
<time>2010-09-11T16:15:46.34</time>
<name>2910</name>
</trkpt>
<trkpt lat="49.927770" lon="9.397413">
<ele>360.0</ele>
<speed>3.2</speed>
<course>135.5</course>
<desc>Speed 3.2 km/h Distance 108 km</desc>
<time>2010-09-11T16:15:47.34</time>
<name>2911</name>
</trkpt>
<trkpt lat="49.927767" lon="9.397418">
<ele>360.5</ele>
<speed>3.2</speed>
<course>148.4</course>
<desc>Speed 3.2 km/h Distance 108 km</desc>
<time>2010-09-11T16:15:48.34</time>
<name>2912</name>
</trkpt>
<trkpt lat="49.927763" lon="9.397422">
<ele>360.5</ele>
<speed>3.2</speed>
<course>122.1</course>
<desc>Speed 3.2 km/h Distance 108 km</desc>
<time>2010-09-11T16:15:49.34</time>
<name>2913</name>
</trkpt>
<trkpt lat="49.927760" lon="9.397430">
<ele>360.0</ele>
<speed>3.2</speed>
<course>241.7</course>
<desc>Speed 3.2 km/h Distance 108 km</desc>
<time>2010-09-11T16:15:50.34</time>
<name>2914</name>
</trkpt>
<trkpt lat="49.927758" lon="9.397425">
<ele>359.5</ele>
<speed>3.2</speed>
<course>270.0</course>
<desc>Speed 3.2 km/h Distance 108 km</desc>
<time>2010-09-11T16:15:51.33</time>
<name>2915</name>
</trkpt>
<trkpt lat="49.927758" lon="9.397420">
<ele>359.5</ele>
<speed>3.2</speed>
<course>270.0</course>
<desc>Speed 3.2 km/h Distance 108 km</desc>
<time>2010-09-11T16:15:52.34</time>
<name>2916</name>
</trkpt>
<trkpt lat="49.927758" lon="9.397417">
<ele>359.5</ele>
<speed>3.2</speed>
<course>270.0</course>
<desc>Speed 3.2 km/h Distance 108 km</desc>
<time>2010-09-11T16:15:53.34</time>
<name>2917</name>
</trkpt>
<trkpt lat="49.927758" lon="9.397400">
<ele>359.5</ele>
<speed>3.2</speed>
<course>239.8</course>
<desc>Speed 3.2 km/h Distance 108 km</desc>
<time>2010-09-11T16:15:54.33</time>
<name>2918</name>
</trkpt>
<trkpt lat="49.927748" lon="9.397373">
<ele>358.5</ele>
<speed>5.7</speed>
<course>218.7</course>
<desc>Speed 5.7 km/h Distance 108 km</desc>
<time>2010-09-11T16:15:55.33</time>
<name>2919</name>
</trkpt>
<trkpt lat="49.927742" lon="9.397365">
<ele>358.0</ele>
<speed>2.4</speed>
<course>190.8</course>
<desc>Speed 2.4 km/h Distance 108 km</desc>
<time>2010-09-11T16:15:56.33</time>
<name>2920</name>
</trkpt>
<trkpt lat="49.927725" lon="9.397360">
<ele>357.5</ele>
<speed>3.3</speed>
<course>31.1</course>
<desc>Speed 3.3 km/h Distance 108 km</desc>
<time>2010-09-11T16:15:57.33</time>
<name>2921</name>
</trkpt>
<trkpt lat="49.927833" lon="9.397462">
<ele>356.5</ele>
<speed>19.9</speed>
<course>8.3</course>
<desc>Speed 19.9 km/h Distance 108 km</desc>
<time>2010-09-11T16:16:00.33</time>
<name>2922</name>
</trkpt>
<trkpt lat="49.927870" lon="9.397470">
<ele>356.0</ele>
<speed>19.9</speed>
<course>29.8</course>
<desc>Speed 19.9 km/h Distance 108 km</desc>
<time>2010-09-11T16:16:01.32</time>
<name>2923</name>
</trkpt>
<trkpt lat="49.927900" lon="9.397497">
<ele>356.0</ele>
<speed>19.9</speed>
<course>32.8</course>
<desc>Speed 19.9 km/h Distance 108 km</desc>
<time>2010-09-11T16:16:02.33</time>
<name>2924</name>
</trkpt>
<trkpt lat="49.927943" lon="9.397540">
<ele>356.0</ele>
<speed>19.9</speed>
<course>14.7</course>
<desc>Speed 19.9 km/h Distance 108 km</desc>
<time>2010-09-11T16:16:03.32</time>
<name>2925</name>
</trkpt>
<trkpt lat="49.927988" lon="9.397558">
<ele>355.0</ele>
<speed>19.9</speed>
<course>29.3</course>
<desc>Speed 19.9 km/h Distance 108 km</desc>
<time>2010-09-11T16:16:04.33</time>
<name>2926</name>
</trkpt>
<trkpt lat="49.928238" lon="9.397777">
<ele>354.0</ele>
<speed>35.6</speed>
<course>28.5</course>
<desc>Speed 35.6 km/h Distance 108 km</desc>
<time>2010-09-11T16:16:07.32</time>
<name>2927</name>
</trkpt>
<trkpt lat="49.928323" lon="9.397848">
<ele>354.0</ele>
<speed>36.7</speed>
<course>28.1</course>
<desc>Speed 36.7 km/h Distance 108 km</desc>
<time>2010-09-11T16:16:08.33</time>
<name>2928</name>
</trkpt>
<trkpt lat="49.928392" lon="9.397905">
<ele>354.0</ele>
<speed>36.7</speed>
<course>35.4</course>
<desc>Speed 36.7 km/h Distance 108 km</desc>
<time>2010-09-11T16:16:09.32</time>
<name>2929</name>
</trkpt>
<trkpt lat="49.928472" lon="9.397993">
<ele>354.0</ele>
<speed>38.4</speed>
<course>35.4</course>
<desc>Speed 38.4 km/h Distance 108 km</desc>
<time>2010-09-11T16:16:10.32</time>
<name>2930</name>
</trkpt>
<trkpt lat="49.928537" lon="9.398065">
<ele>354.0</ele>
<speed>38.4</speed>
<course>22.0</course>
<desc>Speed 38.4 km/h Distance 108 km</desc>
<time>2010-09-11T16:16:11.32</time>
<name>2931</name>
</trkpt>
<trkpt lat="49.928662" lon="9.398143">
<ele>353.5</ele>
<speed>38.4</speed>
<course>48.7</course>
<desc>Speed 38.4 km/h Distance 108 km</desc>
<time>2010-09-11T16:16:13.31</time>
<name>2932</name>
</trkpt>
<trkpt lat="49.928755" lon="9.398308">
<ele>354.0</ele>
<speed>38.4</speed>
<course>349.0</course>
<desc>Speed 38.4 km/h Distance 108 km</desc>
<time>2010-09-11T16:16:15.31</time>
<name>2933</name>
</trkpt>
<trkpt lat="49.928860" lon="9.398277">
<ele>354.5</ele>
<speed>38.4</speed>
<course>339.3</course>
<desc>Speed 38.4 km/h Distance 108 km</desc>
<time>2010-09-11T16:16:16.31</time>
<name>2934</name>
</trkpt>
<trkpt lat="49.929058" lon="9.398160">
<ele>355.5</ele>
<speed>38.4</speed>
<course>15.4</course>
<desc>Speed 38.4 km/h Distance 108 km</desc>
<time>2010-09-11T16:16:18.31</time>
<name>2935</name>
</trkpt>
<trkpt lat="49.929140" lon="9.398195">
<ele>355.5</ele>
<speed>38.4</speed>
<course>336.2</course>
<desc>Speed 38.4 km/h Distance 108 km</desc>
<time>2010-09-11T16:16:19.32</time>
<name>2936</name>
</trkpt>
<trkpt lat="49.929480" lon="9.397962">
<ele>356.5</ele>
<speed>38.4</speed>
<course>1.6</course>
<desc>Speed 38.4 km/h Distance 108 km</desc>
<time>2010-09-11T16:16:22.31</time>
<name>2937</name>
</trkpt>
<trkpt lat="49.930057" lon="9.397987">
<ele>356.5</ele>
<speed>38.4</speed>
<course>356.6</course>
<desc>Speed 38.4 km/h Distance 108 km</desc>
<time>2010-09-11T16:16:24.31</time>
<name>2938</name>
</trkpt>
<trkpt lat="49.931428" lon="9.397860">
<ele>356.5</ele>
<speed>38.4</speed>
<course>21.1</course>
<desc>Speed 38.4 km/h Distance 108 km</desc>
<time>2010-09-11T16:16:30.29</time>
<name>2939</name>
</trkpt>
<trkpt lat="49.932538" lon="9.398525">
<ele>356.0</ele>
<speed>38.4</speed>
<course>22.6</course>
<desc>Speed 38.4 km/h Distance 108 km</desc>
<time>2010-09-11T16:16:33.30</time>
<name>2940</name>
</trkpt>
<trkpt lat="49.933263" lon="9.398995">
<ele>356.0</ele>
<speed>38.4</speed>
<course>23.4</course>
<desc>Speed 38.4 km/h Distance 108 km</desc>
<time>2010-09-11T16:16:38.85</time>
<name>2941</name>
</trkpt>
<trkpt lat="49.934593" lon="9.399890">
<ele>356.0</ele>
<speed>38.4</speed>
<course>36.4</course>
<desc>Speed 38.4 km/h Distance 108 km</desc>
<time>2010-09-11T16:16:44.30</time>
<name>2942</name>
</trkpt>
<trkpt lat="49.934857" lon="9.400192">
<ele>355.5</ele>
<speed>38.4</speed>
<course>44.5</course>
<desc>Speed 38.4 km/h Distance 109 km</desc>
<time>2010-09-11T16:16:47.30</time>
<name>2943</name>
</trkpt>
<trkpt lat="49.934952" lon="9.400337">
<ele>355.5</ele>
<speed>38.4</speed>
<course>12.1</course>
<desc>Speed 38.4 km/h Distance 109 km</desc>
<time>2010-09-11T16:16:50.29</time>
<name>2944</name>
</trkpt>
<trkpt lat="49.936078" lon="9.400713">
<ele>355.5</ele>
<speed>38.4</speed>
<course>72.8</course>
<desc>Speed 38.4 km/h Distance 109 km</desc>
<time>2010-09-11T16:16:56.34</time>
<name>2945</name>
</trkpt>
<trkpt lat="49.936550" lon="9.403085">
<ele>356.0</ele>
<speed>38.4</speed>
<course>44.1</course>
<desc>Speed 38.4 km/h Distance 109 km</desc>
<time>2010-09-11T16:17:10.30</time>
<name>2946</name>
</trkpt>
<trkpt lat="49.937332" lon="9.404262">
<ele>356.0</ele>
<speed>38.4</speed>
<course>66.9</course>
<desc>Speed 38.4 km/h Distance 109 km</desc>
<time>2010-09-11T16:17:14.30</time>
<name>2947</name>
</trkpt>
<trkpt lat="49.937453" lon="9.404705">
<ele>356.0</ele>
<speed>38.4</speed>
<course>357.2</course>
<desc>Speed 38.4 km/h Distance 109 km</desc>
<time>2010-09-11T16:17:16.29</time>
<name>2948</name>
</trkpt>
<trkpt lat="49.938897" lon="9.404597">
<ele>356.0</ele>
<speed>38.4</speed>
<course>5.4</course>
<desc>Speed 38.4 km/h Distance 109 km</desc>
<time>2010-09-11T16:17:22.28</time>
<name>2949</name>
</trkpt>
<trkpt lat="49.940260" lon="9.404797">
<ele>355.5</ele>
<speed>38.4</speed>
<course>21.7</course>
<desc>Speed 38.4 km/h Distance 109 km</desc>
<time>2010-09-11T16:17:24.28</time>
<name>2950</name>
</trkpt>
<trkpt lat="49.940470" lon="9.404927">
<ele>355.5</ele>
<speed>38.4</speed>
<course>270.7</course>
<desc>Speed 38.4 km/h Distance 109 km</desc>
<time>2010-09-11T16:17:26.28</time>
<name>2951</name>
</trkpt>
<trkpt lat="49.940492" lon="9.402277">
<ele>355.5</ele>
<speed>38.4</speed>
<course>286.7</course>
<desc>Speed 38.4 km/h Distance 110 km</desc>
<time>2010-09-11T16:17:30.27</time>
<name>2952</name>
</trkpt>
<trkpt lat="49.940597" lon="9.401732">
<ele>355.5</ele>
<speed>38.4</speed>
<course>334.7</course>
<desc>Speed 38.4 km/h Distance 110 km</desc>
<time>2010-09-11T16:17:33.25</time>
<name>2953</name>
</trkpt>
<trkpt lat="49.940760" lon="9.401612">
<ele>355.5</ele>
<speed>38.4</speed>
<course>311.1</course>
<desc>Speed 38.4 km/h Distance 110 km</desc>
<time>2010-09-11T16:17:35.25</time>
<name>2954</name>
</trkpt>
<trkpt lat="49.944652" lon="9.394683">
<ele>356.5</ele>
<speed>38.4</speed>
<course>330.1</course>
<desc>Speed 38.4 km/h Distance 110 km</desc>
<time>2010-09-11T16:18:08.23</time>
<name>2955</name>
</trkpt>
<trkpt lat="49.944920" lon="9.394443">
<ele>356.5</ele>
<speed>38.4</speed>
<course>280.2</course>
<desc>Speed 38.4 km/h Distance 110 km</desc>
<time>2010-09-11T16:18:10.22</time>
<name>2956</name>
</trkpt>
<trkpt lat="49.944958" lon="9.394112">
<ele>356.5</ele>
<speed>38.4</speed>
<course>354.7</course>
<desc>Speed 38.4 km/h Distance 110 km</desc>
<time>2010-09-11T16:18:12.23</time>
<name>2957</name>
</trkpt>
<trkpt lat="49.946355" lon="9.393910">
<ele>356.5</ele>
<speed>38.4</speed>
<course>3.6</course>
<desc>Speed 38.4 km/h Distance 110 km</desc>
<time>2010-09-11T16:18:14.22</time>
<name>2958</name>
</trkpt>
<trkpt lat="49.947052" lon="9.393978">
<ele>356.5</ele>
<speed>38.4</speed>
<course>343.4</course>
<desc>Speed 38.4 km/h Distance 111 km</desc>
<time>2010-09-11T16:18:16.23</time>
<name>2959</name>
</trkpt>
<trkpt lat="49.947142" lon="9.393937">
<ele>356.5</ele>
<speed>38.4</speed>
<course>286.5</course>
<desc>Speed 38.4 km/h Distance 111 km</desc>
<time>2010-09-11T16:18:18.22</time>
<name>2960</name>
</trkpt>
<trkpt lat="49.947360" lon="9.392788">
<ele>356.5</ele>
<speed>38.4</speed>
<course>320.8</course>
<desc>Speed 38.4 km/h Distance 111 km</desc>
<time>2010-09-11T16:18:20.24</time>
<name>2961</name>
</trkpt>
<trkpt lat="49.948157" lon="9.391780">
<ele>356.0</ele>
<speed>38.4</speed>
<course>20.7</course>
<desc>Speed 38.4 km/h Distance 111 km</desc>
<time>2010-09-11T16:18:23.22</time>
<name>2962</name>
</trkpt>
<trkpt lat="49.948630" lon="9.392058">
<ele>356.0</ele>
<speed>38.4</speed>
<course>356.5</course>
<desc>Speed 38.4 km/h Distance 111 km</desc>
<time>2010-09-11T16:18:27.24</time>
<name>2963</name>
</trkpt>
<trkpt lat="49.948825" lon="9.392040">
<ele>356.0</ele>
<speed>38.4</speed>
<course>5.1</course>
<desc>Speed 38.4 km/h Distance 111 km</desc>
<time>2010-09-11T16:18:32.23</time>
<name>2964</name>
</trkpt>
<trkpt lat="49.950845" lon="9.392320">
<ele>356.0</ele>
<speed>38.4</speed>
<course>342.0</course>
<desc>Speed 38.4 km/h Distance 111 km</desc>
<time>2010-09-11T16:18:54.23</time>
<name>2965</name>
</trkpt>
<trkpt lat="49.953467" lon="9.390997">
<ele>356.0</ele>
<speed>38.4</speed>
<course>354.4</course>
<desc>Speed 38.4 km/h Distance 111 km</desc>
<time>2010-09-11T16:18:56.22</time>
<name>2966</name>
</trkpt>
<trkpt lat="49.954050" lon="9.390908">
<ele>356.0</ele>
<speed>38.4</speed>
<course>18.2</course>
<desc>Speed 38.4 km/h Distance 111 km</desc>
<time>2010-09-11T16:18:58.23</time>
<name>2967</name>
</trkpt>
<trkpt lat="49.955037" lon="9.391413">
<ele>355.5</ele>
<speed>38.4</speed>
<course>341.1</course>
<desc>Speed 38.4 km/h Distance 112 km</desc>
<time>2010-09-11T16:19:00.22</time>
<name>2968</name>
</trkpt>
<trkpt lat="49.955533" lon="9.391148">
<ele>355.5</ele>
<speed>38.4</speed>
<course>17.4</course>
<desc>Speed 38.4 km/h Distance 112 km</desc>
<time>2010-09-11T16:19:02.22</time>
<name>2969</name>
</trkpt>
<trkpt lat="49.956005" lon="9.391378">
<ele>355.5</ele>
<speed>38.4</speed>
<course>341.4</course>
<desc>Speed 38.4 km/h Distance 112 km</desc>
<time>2010-09-11T16:19:04.21</time>
<name>2970</name>
</trkpt>
<trkpt lat="49.956385" lon="9.391180">
<ele>356.0</ele>
<speed>38.4</speed>
<course>15.8</course>
<desc>Speed 38.4 km/h Distance 112 km</desc>
<time>2010-09-11T16:19:06.21</time>
<name>2971</name>
</trkpt>
<trkpt lat="49.956978" lon="9.391442">
<ele>356.0</ele>
<speed>38.4</speed>
<course>3.4</course>
<desc>Speed 38.4 km/h Distance 112 km</desc>
<time>2010-09-11T16:19:08.21</time>
<name>2972</name>
</trkpt>
<trkpt lat="49.958088" lon="9.391543">
<ele>356.0</ele>
<speed>38.4</speed>
<course>3.0</course>
<desc>Speed 38.4 km/h Distance 112 km</desc>
<time>2010-09-11T16:19:12.20</time>
<name>2973</name>
</trkpt>
<trkpt lat="49.958887" lon="9.391608">
<ele>356.0</ele>
<speed>38.4</speed>
<course>346.7</course>
<desc>Speed 38.4 km/h Distance 112 km</desc>
<time>2010-09-11T16:19:17.20</time>
<name>2974</name>
</trkpt>
<trkpt lat="49.959113" lon="9.391525">
<ele>356.0</ele>
<speed>38.4</speed>
<course>352.2</course>
<desc>Speed 38.4 km/h Distance 112 km</desc>
<time>2010-09-11T16:19:19.23</time>
<name>2975</name>
</trkpt>
<trkpt lat="49.959507" lon="9.391442">
<ele>356.0</ele>
<speed>38.4</speed>
<course>357.7</course>
<desc>Speed 38.4 km/h Distance 112 km</desc>
<time>2010-09-11T16:19:22.23</time>
<name>2976</name>
</trkpt>
<trkpt lat="49.959610" lon="9.391435">
<ele>356.0</ele>
<speed>38.4</speed>
<course>330.7</course>
<desc>Speed 38.4 km/h Distance 112 km</desc>
<time>2010-09-11T16:19:23.23</time>
<name>2977</name>
</trkpt>
<trkpt lat="49.960798" lon="9.390400">
<ele>355.5</ele>
<speed>38.4</speed>
<course>336.7</course>
<desc>Speed 38.4 km/h Distance 112 km</desc>
<time>2010-09-11T16:19:28.22</time>
<name>2978</name>
</trkpt>
<trkpt lat="49.961210" lon="9.390125">
<ele>355.5</ele>
<speed>38.4</speed>
<course>1.5</course>
<desc>Speed 38.4 km/h Distance 112 km</desc>
<time>2010-09-11T16:19:34.21</time>
<name>2979</name>
</trkpt>
<trkpt lat="49.962647" lon="9.390185">
<ele>356.0</ele>
<speed>38.4</speed>
<course>19.1</course>
<desc>Speed 38.4 km/h Distance 112 km</desc>
<time>2010-09-11T16:19:37.22</time>
<name>2980</name>
</trkpt>
<trkpt lat="49.963960" lon="9.390893">
<ele>356.5</ele>
<speed>52.2</speed>
<course>16.9</course>
<desc>Speed 52.2 km/h Distance 113 km</desc>
<time>2010-09-11T16:19:44.21</time>
<name>2981</name>
</trkpt>
<trkpt lat="49.964242" lon="9.391027">
<ele>356.5</ele>
<speed>52.2</speed>
<course>35.6</course>
<desc>Speed 52.2 km/h Distance 113 km</desc>
<time>2010-09-11T16:19:46.21</time>
<name>2982</name>
</trkpt>
<trkpt lat="49.965027" lon="9.391900">
<ele>359.0</ele>
<speed>52.2</speed>
<course>36.1</course>
<desc>Speed 52.2 km/h Distance 113 km</desc>
<time>2010-09-11T16:19:53.21</time>
<name>2983</name>
</trkpt>
<trkpt lat="49.965217" lon="9.392115">
<ele>359.5</ele>
<speed>52.2</speed>
<course>73.6</course>
<desc>Speed 52.2 km/h Distance 113 km</desc>
<time>2010-09-11T16:19:57.19</time>
<name>2984</name>
</trkpt>
<trkpt lat="49.965427" lon="9.393223">
<ele>360.5</ele>
<speed>52.5</speed>
<course>54.6</course>
<desc>Speed 52.5 km/h Distance 113 km</desc>
<time>2010-09-11T16:20:01.21</time>
<name>2985</name>
</trkpt>
<trkpt lat="49.965497" lon="9.393377">
<ele>361.0</ele>
<speed>52.5</speed>
<course>44.5</course>
<desc>Speed 52.5 km/h Distance 113 km</desc>
<time>2010-09-11T16:20:02.21</time>
<name>2986</name>
</trkpt>
<trkpt lat="49.965588" lon="9.393517">
<ele>362.0</ele>
<speed>52.5</speed>
<course>42.9</course>
<desc>Speed 52.5 km/h Distance 113 km</desc>
<time>2010-09-11T16:20:03.21</time>
<name>2987</name>
</trkpt>
<trkpt lat="49.965682" lon="9.393652">
<ele>364.0</ele>
<speed>52.5</speed>
<course>78.7</course>
<desc>Speed 52.5 km/h Distance 113 km</desc>
<time>2010-09-11T16:20:04.21</time>
<name>2988</name>
</trkpt>
<trkpt lat="49.965735" lon="9.394067">
<ele>365.0</ele>
<speed>52.5</speed>
<course>51.5</course>
<desc>Speed 52.5 km/h Distance 113 km</desc>
<time>2010-09-11T16:20:07.21</time>
<name>2989</name>
</trkpt>
<trkpt lat="49.966205" lon="9.394985">
<ele>369.0</ele>
<speed>53.5</speed>
<course>66.0</course>
<desc>Speed 53.5 km/h Distance 113 km</desc>
<time>2010-09-11T16:20:11.21</time>
<name>2990</name>
</trkpt>
<trkpt lat="49.966340" lon="9.395457">
<ele>374.5</ele>
<speed>53.5</speed>
<course>73.0</course>
<desc>Speed 53.5 km/h Distance 113 km</desc>
<time>2010-09-11T16:20:13.20</time>
<name>2991</name>
</trkpt>
<trkpt lat="49.966445" lon="9.395992">
<ele>371.0</ele>
<speed>52.1</speed>
<course>62.7</course>
<desc>Speed 52.1 km/h Distance 113 km</desc>
<time>2010-09-11T16:20:16.19</time>
<name>2992</name>
</trkpt>
<trkpt lat="49.966565" lon="9.396353">
<ele>372.0</ele>
<speed>43.6</speed>
<course>67.7</course>
<desc>Speed 43.6 km/h Distance 113 km</desc>
<time>2010-09-11T16:20:18.19</time>
<name>2993</name>
</trkpt>
<trkpt lat="49.966647" lon="9.396663">
<ele>371.0</ele>
<speed>38.7</speed>
<course>66.0</course>
<desc>Speed 38.7 km/h Distance 113 km</desc>
<time>2010-09-11T16:20:20.20</time>
<name>2994</name>
</trkpt>
<trkpt lat="49.966740" lon="9.396990">
<ele>372.5</ele>
<speed>39.9</speed>
<course>65.7</course>
<desc>Speed 39.9 km/h Distance 113 km</desc>
<time>2010-09-11T16:20:22.19</time>
<name>2995</name>
</trkpt>
<trkpt lat="49.966805" lon="9.397213">
<ele>373.5</ele>
<speed>39.9</speed>
<course>66.5</course>
<desc>Speed 39.9 km/h Distance 113 km</desc>
<time>2010-09-11T16:20:24.19</time>
<name>2996</name>
</trkpt>
<trkpt lat="49.966865" lon="9.397428">
<ele>375.0</ele>
<speed>39.9</speed>
<course>30.0</course>
<desc>Speed 39.9 km/h Distance 113 km</desc>
<time>2010-09-11T16:20:27.19</time>
<name>2997</name>
</trkpt>
<trkpt lat="49.966980" lon="9.397532">
<ele>382.0</ele>
<speed>39.9</speed>
<course>57.2</course>
<desc>Speed 39.9 km/h Distance 113 km</desc>
<time>2010-09-11T16:20:29.19</time>
<name>2998</name>
</trkpt>
<trkpt lat="49.967077" lon="9.397765">
<ele>383.5</ele>
<speed>39.9</speed>
<course>23.3</course>
<desc>Speed 39.9 km/h Distance 113 km</desc>
<time>2010-09-11T16:20:32.19</time>
<name>2999</name>
</trkpt>
<trkpt lat="49.967213" lon="9.397857">
<ele>385.5</ele>
<speed>39.9</speed>
<course>33.1</course>
<desc>Speed 39.9 km/h Distance 113 km</desc>
<time>2010-09-11T16:20:34.19</time>
<name>3000</name>
</trkpt>
<trkpt lat="49.967328" lon="9.397973">
<ele>388.5</ele>
<speed>39.9</speed>
<course>58.5</course>
<desc>Speed 39.9 km/h Distance 113 km</desc>
<time>2010-09-11T16:20:36.19</time>
<name>3001</name>
</trkpt>
<trkpt lat="49.967412" lon="9.398185">
<ele>393.0</ele>
<speed>39.9</speed>
<course>94.1</course>
<desc>Speed 39.9 km/h Distance 113 km</desc>
<time>2010-09-11T16:20:38.19</time>
<name>3002</name>
</trkpt>
<trkpt lat="49.967393" lon="9.398578">
<ele>391.0</ele>
<speed>39.9</speed>
<course>14.9</course>
<desc>Speed 39.9 km/h Distance 113 km</desc>
<time>2010-09-11T16:20:43.19</time>
<name>3003</name>
</trkpt>
<trkpt lat="49.967598" lon="9.398663">
<ele>390.5</ele>
<speed>39.9</speed>
<course>67.8</course>
<desc>Speed 39.9 km/h Distance 113 km</desc>
<time>2010-09-11T16:20:45.19</time>
<name>3004</name>
</trkpt>
<trkpt lat="49.967718" lon="9.399120">
<ele>389.0</ele>
<speed>39.9</speed>
<course>3.6</course>
<desc>Speed 39.9 km/h Distance 113 km</desc>
<time>2010-09-11T16:20:48.19</time>
<name>3005</name>
</trkpt>
<trkpt lat="49.967905" lon="9.399138">
<ele>390.5</ele>
<speed>39.9</speed>
<course>355.1</course>
<desc>Speed 39.9 km/h Distance 113 km</desc>
<time>2010-09-11T16:20:51.19</time>
<name>3006</name>
</trkpt>
<trkpt lat="49.968215" lon="9.399097">
<ele>389.5</ele>
<speed>39.9</speed>
<course>49.6</course>
<desc>Speed 39.9 km/h Distance 113 km</desc>
<time>2010-09-11T16:20:54.18</time>
<name>3007</name>
</trkpt>
<trkpt lat="49.968478" lon="9.399578">
<ele>390.0</ele>
<speed>39.9</speed>
<course>349.8</course>
<desc>Speed 39.9 km/h Distance 113 km</desc>
<time>2010-09-11T16:20:57.18</time>
<name>3008</name>
</trkpt>
<trkpt lat="49.969728" lon="9.399228">
<ele>390.5</ele>
<speed>39.9</speed>
<course>355.2</course>
<desc>Speed 39.9 km/h Distance 114 km</desc>
<time>2010-09-11T16:20:59.19</time>
<name>3009</name>
</trkpt>
<trkpt lat="49.970320" lon="9.399152">
<ele>390.0</ele>
<speed>39.9</speed>
<course>13.2</course>
<desc>Speed 39.9 km/h Distance 114 km</desc>
<time>2010-09-11T16:21:03.18</time>
<name>3010</name>
</trkpt>
<trkpt lat="49.970475" lon="9.399208">
<ele>391.0</ele>
<speed>39.9</speed>
<course>354.9</course>
<desc>Speed 39.9 km/h Distance 114 km</desc>
<time>2010-09-11T16:21:07.18</time>
<name>3011</name>
</trkpt>
<trkpt lat="49.970655" lon="9.399183">
<ele>392.0</ele>
<speed>39.9</speed>
<course>58.6</course>
<desc>Speed 39.9 km/h Distance 114 km</desc>
<time>2010-09-11T16:21:09.17</time>
<name>3012</name>
</trkpt>
<trkpt lat="49.970740" lon="9.399400">
<ele>391.5</ele>
<speed>39.9</speed>
<course>66.3</course>
<desc>Speed 39.9 km/h Distance 114 km</desc>
<time>2010-09-11T16:21:13.17</time>
<name>3013</name>
</trkpt>
<trkpt lat="49.971007" lon="9.400345">
<ele>390.0</ele>
<speed>39.9</speed>
<course>25.1</course>
<desc>Speed 39.9 km/h Distance 114 km</desc>
<time>2010-09-11T16:21:17.17</time>
<name>3014</name>
</trkpt>
<trkpt lat="49.972612" lon="9.401512">
<ele>389.5</ele>
<speed>39.9</speed>
<course>57.0</course>
<desc>Speed 39.9 km/h Distance 114 km</desc>
<time>2010-09-11T16:21:19.18</time>
<name>3015</name>
</trkpt>
<trkpt lat="49.973853" lon="9.404487">
<ele>392.0</ele>
<speed>109</speed>
<course>62.8</course>
<desc>Speed 109 km/h Distance 114 km</desc>
<time>2010-09-11T16:21:25.17</time>
<name>3016</name>
</trkpt>
<trkpt lat="49.974310" lon="9.405867">
<ele>398.0</ele>
<speed>88.5</speed>
<course>54.5</course>
<desc>Speed 88.5 km/h Distance 114 km</desc>
<time>2010-09-11T16:21:30.17</time>
<name>3017</name>
</trkpt>
<trkpt lat="49.974562" lon="9.406415">
<ele>407.0</ele>
<speed>90.2</speed>
<course>57.4</course>
<desc>Speed 90.2 km/h Distance 114 km</desc>
<time>2010-09-11T16:21:32.17</time>
<name>3018</name>
</trkpt>
<trkpt lat="49.974772" lon="9.406925">
<ele>411.5</ele>
<speed>90.2</speed>
<course>61.3</course>
<desc>Speed 90.2 km/h Distance 114 km</desc>
<time>2010-09-11T16:21:34.16</time>
<name>3019</name>
</trkpt>
<trkpt lat="49.975022" lon="9.407635">
<ele>424.5</ele>
<speed>90.2</speed>
<course>62.0</course>
<desc>Speed 90.2 km/h Distance 114 km</desc>
<time>2010-09-11T16:21:37.15</time>
<name>3020</name>
</trkpt>
<trkpt lat="49.975333" lon="9.408548">
<ele>434.0</ele>
<speed>90.2</speed>
<course>51.6</course>
<desc>Speed 90.2 km/h Distance 115 km</desc>
<time>2010-09-11T16:21:41.12</time>
<name>3021</name>
</trkpt>
<trkpt lat="49.976510" lon="9.410855">
<ele>434.5</ele>
<speed>90.2</speed>
<course>20.8</course>
<desc>Speed 90.2 km/h Distance 115 km</desc>
<time>2010-09-11T16:21:49.13</time>
<name>3022</name>
</trkpt>
<trkpt lat="49.977133" lon="9.411223">
<ele>434.0</ele>
<speed>90.2</speed>
<course>326.4</course>
<desc>Speed 90.2 km/h Distance 115 km</desc>
<time>2010-09-11T16:21:52.14</time>
<name>3023</name>
</trkpt>
<trkpt lat="49.978220" lon="9.410102">
<ele>435.0</ele>
<speed>90.2</speed>
<course>344.3</course>
<desc>Speed 90.2 km/h Distance 115 km</desc>
<time>2010-09-11T16:21:57.13</time>
<name>3024</name>
</trkpt>
<trkpt lat="49.979710" lon="9.409450">
<ele>436.0</ele>
<speed>90.2</speed>
<course>31.0</course>
<desc>Speed 90.2 km/h Distance 115 km</desc>
<time>2010-09-11T16:22:06.13</time>
<name>3025</name>
</trkpt>
<trkpt lat="49.980112" lon="9.409825">
<ele>436.0</ele>
<speed>90.2</speed>
<course>19.1</course>
<desc>Speed 90.2 km/h Distance 115 km</desc>
<time>2010-09-11T16:22:08.12</time>
<name>3026</name>
</trkpt>
<trkpt lat="49.980888" lon="9.410243">
<ele>435.5</ele>
<speed>90.2</speed>
<course>334.3</course>
<desc>Speed 90.2 km/h Distance 115 km</desc>
<time>2010-09-11T16:22:12.12</time>
<name>3027</name>
</trkpt>
<trkpt lat="49.981923" lon="9.409470">
<ele>435.5</ele>
<speed>90.2</speed>
<course>319.2</course>
<desc>Speed 90.2 km/h Distance 115 km</desc>
<time>2010-09-11T16:22:15.13</time>
<name>3028</name>
</trkpt>
<trkpt lat="49.982500" lon="9.408697">
<ele>435.0</ele>
<speed>90.2</speed>
<course>356.7</course>
<desc>Speed 90.2 km/h Distance 116 km</desc>
<time>2010-09-11T16:22:18.12</time>
<name>3029</name>
</trkpt>
<trkpt lat="49.983652" lon="9.408593">
<ele>435.5</ele>
<speed>90.2</speed>
<course>340.7</course>
<desc>Speed 90.2 km/h Distance 116 km</desc>
<time>2010-09-11T16:22:20.12</time>
<name>3030</name>
</trkpt>
<trkpt lat="49.983922" lon="9.408447">
<ele>435.5</ele>
<speed>90.2</speed>
<course>337.4</course>
<desc>Speed 90.2 km/h Distance 116 km</desc>
<time>2010-09-11T16:22:22.12</time>
<name>3031</name>
</trkpt>
<trkpt lat="49.984548" lon="9.408040">
<ele>435.5</ele>
<speed>90.2</speed>
<course>284.3</course>
<desc>Speed 90.2 km/h Distance 116 km</desc>
<time>2010-09-11T16:22:24.11</time>
<name>3032</name>
</trkpt>
<trkpt lat="49.985845" lon="9.400127">
<ele>434.5</ele>
<speed>90.2</speed>
<course>274.5</course>
<desc>Speed 90.2 km/h Distance 116 km</desc>
<time>2010-09-11T16:22:43.10</time>
<name>3033</name>
</trkpt>
<trkpt lat="49.985995" lon="9.397155">
<ele>434.0</ele>
<speed>90.2</speed>
<course>242.5</course>
<desc>Speed 90.2 km/h Distance 117 km</desc>
<time>2010-09-11T16:22:49.10</time>
<name>3034</name>
</trkpt>
<trkpt lat="49.985737" lon="9.396383">
<ele>433.5</ele>
<speed>90.2</speed>
<course>203.2</course>
<desc>Speed 90.2 km/h Distance 117 km</desc>
<time>2010-09-11T16:22:54.09</time>
<name>3035</name>
</trkpt>
<trkpt lat="49.985522" lon="9.396240">
<ele>433.5</ele>
<speed>90.2</speed>
<course>275.0</course>
<desc>Speed 90.2 km/h Distance 117 km</desc>
<time>2010-09-11T16:22:55.10</time>
<name>3036</name>
</trkpt>
<trkpt lat="49.985613" lon="9.394625">
<ele>433.5</ele>
<speed>90.2</speed>
<course>303.2</course>
<desc>Speed 90.2 km/h Distance 117 km</desc>
<time>2010-09-11T16:22:57.09</time>
<name>3037</name>
</trkpt>
<trkpt lat="49.985860" lon="9.394038">
<ele>433.0</ele>
<speed>90.2</speed>
<course>294.3</course>
<desc>Speed 90.2 km/h Distance 117 km</desc>
<time>2010-09-11T16:23:01.07</time>
<name>3038</name>
</trkpt>
<trkpt lat="49.987793" lon="9.387392">
<ele>431.5</ele>
<speed>90.2</speed>
<course>352.4</course>
<desc>Speed 90.2 km/h Distance 117 km</desc>
<time>2010-09-11T16:23:24.07</time>
<name>3039</name>
</trkpt>
<trkpt lat="49.990038" lon="9.386923">
<ele>431.0</ele>
<speed>90.2</speed>
<course>349.2</course>
<desc>Speed 90.2 km/h Distance 118 km</desc>
<time>2010-09-11T16:23:28.09</time>
<name>3040</name>
</trkpt>
<trkpt lat="49.991363" lon="9.386532">
<ele>431.0</ele>
<speed>90.2</speed>
<course>294.7</course>
<desc>Speed 90.2 km/h Distance 118 km</desc>
<time>2010-09-11T16:23:30.08</time>
<name>3041</name>
</trkpt>
<trkpt lat="49.995792" lon="9.371570">
<ele>429.0</ele>
<speed>90.2</speed>
<course>301.9</course>
<desc>Speed 90.2 km/h Distance 119 km</desc>
<time>2010-09-11T16:24:08.07</time>
<name>3042</name>
</trkpt>
<trkpt lat="49.996852" lon="9.368920">
<ele>429.5</ele>
<speed>90.2</speed>
<course>284.2</course>
<desc>Speed 90.2 km/h Distance 119 km</desc>
<time>2010-09-11T16:24:14.04</time>
<name>3043</name>
</trkpt>
<trkpt lat="49.996952" lon="9.368303">
<ele>430.0</ele>
<speed>90.2</speed>
<course>263.2</course>
<desc>Speed 90.2 km/h Distance 119 km</desc>
<time>2010-09-11T16:24:19.06</time>
<name>3044</name>
</trkpt>
<trkpt lat="49.996932" lon="9.368043">
<ele>430.0</ele>
<speed>90.2</speed>
<course>61.0</course>
<desc>Speed 90.2 km/h Distance 119 km</desc>
<time>2010-09-11T16:24:25.07</time>
<name>3045</name>
</trkpt>
<trkpt lat="49.997042" lon="9.368352">
<ele>430.0</ele>
<speed>90.2</speed>
<course>67.3</course>
<desc>Speed 90.2 km/h Distance 119 km</desc>
<time>2010-09-11T16:24:31.06</time>
<name>3046</name>
</trkpt>
<trkpt lat="49.997053" lon="9.368395">
<ele>430.0</ele>
<speed>90.2</speed>
<course>108.0</course>
<desc>Speed 90.2 km/h Distance 119 km</desc>
<time>2010-09-11T16:24:37.06</time>
<name>3047</name>
</trkpt>
<trkpt lat="49.997038" lon="9.368467">
<ele>430.0</ele>
<speed>90.2</speed>
<course>100.6</course>
<desc>Speed 90.2 km/h Distance 119 km</desc>
<time>2010-09-11T16:24:43.05</time>
<name>3048</name>
</trkpt>
<trkpt lat="49.996125" lon="9.376043">
<ele>430.0</ele>
<speed>56.4</speed>
<course>147.1</course>
<desc>Speed 56.4 km/h Distance 120 km</desc>
<time>2010-09-11T16:25:02.04</time>
<name>3049</name>
</trkpt>
<trkpt lat="49.995707" lon="9.376465">
<ele>430.5</ele>
<speed>56.4</speed>
<course>317.9</course>
<desc>Speed 56.4 km/h Distance 120 km</desc>
<time>2010-09-11T16:25:05.04</time>
<name>3050</name>
</trkpt>
<trkpt lat="49.996702" lon="9.375068">
<ele>430.5</ele>
<speed>56.4</speed>
<course>339.3</course>
<desc>Speed 56.4 km/h Distance 120 km</desc>
<time>2010-09-11T16:25:21.01</time>
<name>3051</name>
</trkpt>
<trkpt lat="49.998875" lon="9.373792">
<ele>429.0</ele>
<speed>56.4</speed>
<course>287.0</course>
<desc>Speed 56.4 km/h Distance 120 km</desc>
<time>2010-09-11T16:25:27.01</time>
<name>3052</name>
</trkpt>
<trkpt lat="49.999877" lon="9.368707">
<ele>428.5</ele>
<speed>56.4</speed>
<course>297.1</course>
<desc>Speed 56.4 km/h Distance 121 km</desc>
<time>2010-09-11T16:25:42.99</time>
<name>3053</name>
</trkpt>
<trkpt lat="49.999992" lon="9.368357">
<ele>428.5</ele>
<speed>56.4</speed>
<course>328.7</course>
<desc>Speed 56.4 km/h Distance 121 km</desc>
<time>2010-09-11T16:25:45.01</time>
<name>3054</name>
</trkpt>
<trkpt lat="50.000707" lon="9.367680">
<ele>428.5</ele>
<speed>56.4</speed>
<course>336.3</course>
<desc>Speed 56.4 km/h Distance 121 km</desc>
<time>2010-09-11T16:25:49.00</time>
<name>3055</name>
</trkpt>
<trkpt lat="50.000932" lon="9.367527">
<ele>428.0</ele>
<speed>56.4</speed>
<course>41.2</course>
<desc>Speed 56.4 km/h Distance 121 km</desc>
<time>2010-09-11T16:25:51.00</time>
<name>3056</name>
</trkpt>
<trkpt lat="50.001143" lon="9.367815">
<ele>428.0</ele>
<speed>56.4</speed>
<course>11.5</course>
<desc>Speed 56.4 km/h Distance 121 km</desc>
<time>2010-09-11T16:25:53.00</time>
<name>3057</name>
</trkpt>
<trkpt lat="50.001297" lon="9.367863">
<ele>428.0</ele>
<speed>56.4</speed>
<course>41.6</course>
<desc>Speed 56.4 km/h Distance 121 km</desc>
<time>2010-09-11T16:25:58.00</time>
<name>3058</name>
</trkpt>
<trkpt lat="50.001868" lon="9.368653">
<ele>428.0</ele>
<speed>56.4</speed>
<course>355.9</course>
<desc>Speed 56.4 km/h Distance 121 km</desc>
<time>2010-09-11T16:26:01.00</time>
<name>3059</name>
</trkpt>
<trkpt lat="50.002638" lon="9.368567">
<ele>428.0</ele>
<speed>56.4</speed>
<course>337.8</course>
<desc>Speed 56.4 km/h Distance 121 km</desc>
<time>2010-09-11T16:26:03.01</time>
<name>3060</name>
</trkpt>
<trkpt lat="50.002998" lon="9.368338">
<ele>427.5</ele>
<speed>56.4</speed>
<course>0.3</course>
<desc>Speed 56.4 km/h Distance 121 km</desc>
<time>2010-09-11T16:26:08.99</time>
<name>3061</name>
</trkpt>
<trkpt lat="50.004128" lon="9.368348">
<ele>427.5</ele>
<speed>56.4</speed>
<course>75.8</course>
<desc>Speed 56.4 km/h Distance 121 km</desc>
<time>2010-09-11T16:26:13.00</time>
<name>3062</name>
</trkpt>
<trkpt lat="50.004317" lon="9.369508">
<ele>427.5</ele>
<speed>56.4</speed>
<course>352.3</course>
<desc>Speed 56.4 km/h Distance 121 km</desc>
<time>2010-09-11T16:26:15.00</time>
<name>3063</name>
</trkpt>
<trkpt lat="50.010170" lon="9.368277">
<ele>427.5</ele>
<speed>56.4</speed>
<course>336.3</course>
<desc>Speed 56.4 km/h Distance 122 km</desc>
<time>2010-09-11T16:26:35.99</time>
<name>3064</name>
</trkpt>
<trkpt lat="50.020377" lon="9.361307">
<ele>163.5</ele>
<speed>56.4</speed>
<course>10.2</course>
<desc>Speed 56.4 km/h Distance 123 km</desc>
<time>2010-09-11T16:27:34.96</time>
<name>3065</name>
</trkpt>
<trkpt lat="50.020608" lon="9.361372">
<ele>165.0</ele>
<speed>46.3</speed>
<course>270.0</course>
<desc>Speed 46.3 km/h Distance 123 km</desc>
<time>2010-09-11T16:27:36.96</time>
<name>3066</name>
</trkpt>
<trkpt lat="50.020608" lon="9.361215">
<ele>165.0</ele>
<speed>46.3</speed>
<course>289.0</course>
<desc>Speed 46.3 km/h Distance 123 km</desc>
<time>2010-09-11T16:27:37.97</time>
<name>3067</name>
</trkpt>
<trkpt lat="50.020737" lon="9.360635">
<ele>164.5</ele>
<speed>46.3</speed>
<course>275.2</course>
<desc>Speed 46.3 km/h Distance 123 km</desc>
<time>2010-09-11T16:27:40.97</time>
<name>3068</name>
</trkpt>
<trkpt lat="50.020760" lon="9.360235">
<ele>165.5</ele>
<speed>46.3</speed>
<course>282.8</course>
<desc>Speed 46.3 km/h Distance 123 km</desc>
<time>2010-09-11T16:27:42.96</time>
<name>3069</name>
</trkpt>
<trkpt lat="50.020785" lon="9.360063">
<ele>166.0</ele>
<speed>46.3</speed>
<course>286.0</course>
<desc>Speed 46.3 km/h Distance 123 km</desc>
<time>2010-09-11T16:27:43.96</time>
<name>3070</name>
</trkpt>
<trkpt lat="50.020853" lon="9.359692">
<ele>167.0</ele>
<speed>46.3</speed>
<course>306.8</course>
<desc>Speed 46.3 km/h Distance 123 km</desc>
<time>2010-09-11T16:27:46.96</time>
<name>3071</name>
</trkpt>
<trkpt lat="50.020975" lon="9.359438">
<ele>167.5</ele>
<speed>46.3</speed>
<course>274.3</course>
<desc>Speed 46.3 km/h Distance 123 km</desc>
<time>2010-09-11T16:27:48.96</time>
<name>3072</name>
</trkpt>
<trkpt lat="50.020985" lon="9.359233">
<ele>167.0</ele>
<speed>46.3</speed>
<course>316.4</course>
<desc>Speed 46.3 km/h Distance 123 km</desc>
<time>2010-09-11T16:27:49.96</time>
<name>3073</name>
</trkpt>
<trkpt lat="50.025158" lon="9.353048">
<ele>168.0</ele>
<speed>46.3</speed>
<course>236.2</course>
<desc>Speed 46.3 km/h Distance 124 km</desc>
<time>2010-09-11T16:28:19.95</time>
<name>3074</name>
</trkpt>
<trkpt lat="50.025023" lon="9.352735">
<ele>168.5</ele>
<speed>46.3</speed>
<course>220.1</course>
<desc>Speed 46.3 km/h Distance 124 km</desc>
<time>2010-09-11T16:28:21.95</time>
<name>3075</name>
</trkpt>
<trkpt lat="50.024863" lon="9.352525">
<ele>168.5</ele>
<speed>46.3</speed>
<course>263.3</course>
<desc>Speed 46.3 km/h Distance 124 km</desc>
<time>2010-09-11T16:28:23.94</time>
<name>3076</name>
</trkpt>
<trkpt lat="50.024835" lon="9.352150">
<ele>168.5</ele>
<speed>46.3</speed>
<course>312.5</course>
<desc>Speed 46.3 km/h Distance 124 km</desc>
<time>2010-09-11T16:28:25.94</time>
<name>3077</name>
</trkpt>
<trkpt lat="50.025107" lon="9.351688">
<ele>168.5</ele>
<speed>46.3</speed>
<course>13.3</course>
<desc>Speed 46.3 km/h Distance 124 km</desc>
<time>2010-09-11T16:28:27.93</time>
<name>3078</name>
</trkpt>
<trkpt lat="50.025607" lon="9.351872">
<ele>169.5</ele>
<speed>46.3</speed>
<course>328.3</course>
<desc>Speed 46.3 km/h Distance 124 km</desc>
<time>2010-09-11T16:28:30.93</time>
<name>3079</name>
</trkpt>
<trkpt lat="50.026928" lon="9.350600">
<ele>171.0</ele>
<speed>46.3</speed>
<course>302.5</course>
<desc>Speed 46.3 km/h Distance 124 km</desc>
<time>2010-09-11T16:28:33.93</time>
<name>3080</name>
</trkpt>
<trkpt lat="50.027792" lon="9.348490">
<ele>171.5</ele>
<speed>46.3</speed>
<course>310.1</course>
<desc>Speed 46.3 km/h Distance 124 km</desc>
<time>2010-09-11T16:28:35.93</time>
<name>3081</name>
</trkpt>
<trkpt lat="50.027980" lon="9.348142">
<ele>171.5</ele>
<speed>46.3</speed>
<course>276.8</course>
<desc>Speed 46.3 km/h Distance 125 km</desc>
<time>2010-09-11T16:28:38.03</time>
<name>3082</name>
</trkpt>
<trkpt lat="50.028042" lon="9.347337">
<ele>171.5</ele>
<speed>46.3</speed>
<course>202.8</course>
<desc>Speed 46.3 km/h Distance 125 km</desc>
<time>2010-09-11T16:28:40.93</time>
<name>3083</name>
</trkpt>
<trkpt lat="50.027195" lon="9.346783">
<ele>172.0</ele>
<speed>46.3</speed>
<course>88.5</course>
<desc>Speed 46.3 km/h Distance 125 km</desc>
<time>2010-09-11T16:28:42.92</time>
<name>3084</name>
</trkpt>
<trkpt lat="50.027215" lon="9.347988">
<ele>172.0</ele>
<speed>46.3</speed>
<course>345.8</course>
<desc>Speed 46.3 km/h Distance 125 km</desc>
<time>2010-09-11T16:29:23.89</time>
<name>3085</name>
</trkpt>
<trkpt lat="50.029475" lon="9.347100">
<ele>171.5</ele>
<speed>46.3</speed>
<course>279.1</course>
<desc>Speed 46.3 km/h Distance 125 km</desc>
<time>2010-09-11T16:29:28.91</time>
<name>3086</name>
</trkpt>
<trkpt lat="50.029508" lon="9.346777">
<ele>171.5</ele>
<speed>46.3</speed>
<course>328.9</course>
<desc>Speed 46.3 km/h Distance 125 km</desc>
<time>2010-09-11T16:29:30.91</time>
<name>3087</name>
</trkpt>
<trkpt lat="50.029588" lon="9.346702">
<ele>171.0</ele>
<speed>46.3</speed>
<course>290.7</course>
<desc>Speed 46.3 km/h Distance 125 km</desc>
<time>2010-09-11T16:29:35.89</time>
<name>3088</name>
</trkpt>
<trkpt lat="50.029972" lon="9.345120">
<ele>171.0</ele>
<speed>46.3</speed>
<course>340.4</course>
<desc>Speed 46.3 km/h Distance 125 km</desc>
<time>2010-09-11T16:29:39.89</time>
<name>3089</name>
</trkpt>
<trkpt lat="50.030155" lon="9.345018">
<ele>170.5</ele>
<speed>46.3</speed>
<course>292.9</course>
<desc>Speed 46.3 km/h Distance 125 km</desc>
<time>2010-09-11T16:29:41.91</time>
<name>3090</name>
</trkpt>
<trkpt lat="50.030913" lon="9.342230">
<ele>170.5</ele>
<speed>46.3</speed>
<course>314.1</course>
<desc>Speed 46.3 km/h Distance 125 km</desc>
<time>2010-09-11T16:29:49.89</time>
<name>3091</name>
</trkpt>
<trkpt lat="50.033602" lon="9.337912">
<ele>170.0</ele>
<speed>46.3</speed>
<course>351.5</course>
<desc>Speed 46.3 km/h Distance 126 km</desc>
<time>2010-09-11T16:30:12.87</time>
<name>3092</name>
</trkpt>
<trkpt lat="50.038070" lon="9.336873">
<ele>172.5</ele>
<speed>46.3</speed>
<course>60.1</course>
<desc>Speed 46.3 km/h Distance 126 km</desc>
<time>2010-09-11T16:30:18.87</time>
<name>3093</name>
</trkpt>
<trkpt lat="50.038388" lon="9.337735">
<ele>173.0</ele>
<speed>46.3</speed>
<course>60.0</course>
<desc>Speed 46.3 km/h Distance 126 km</desc>
<time>2010-09-11T16:30:22.87</time>
<name>3094</name>
</trkpt>
<trkpt lat="50.038922" lon="9.339173">
<ele>173.5</ele>
<speed>46.3</speed>
<course>43.8</course>
<desc>Speed 46.3 km/h Distance 127 km</desc>
<time>2010-09-11T16:30:24.87</time>
<name>3095</name>
</trkpt>
<trkpt lat="50.039097" lon="9.339435">
<ele>173.5</ele>
<speed>46.3</speed>
<course>39.3</course>
<desc>Speed 46.3 km/h Distance 127 km</desc>
<time>2010-09-11T16:30:26.86</time>
<name>3096</name>
</trkpt>
<trkpt lat="50.042183" lon="9.343370">
<ele>173.0</ele>
<speed>114</speed>
<course>58.6</course>
<desc>Speed 114 km/h Distance 127 km</desc>
<time>2010-09-11T16:30:44.87</time>
<name>3097</name>
</trkpt>
<trkpt lat="50.043150" lon="9.345838">
<ele>176.0</ele>
<speed>98.1</speed>
<course>62.7</course>
<desc>Speed 98.1 km/h Distance 127 km</desc>
<time>2010-09-11T16:30:49.87</time>
<name>3098</name>
</trkpt>
<trkpt lat="50.043633" lon="9.347295">
<ele>176.5</ele>
<speed>98.1</speed>
<course>20.2</course>
<desc>Speed 98.1 km/h Distance 127 km</desc>
<time>2010-09-11T16:30:55.85</time>
<name>3099</name>
</trkpt>
<trkpt lat="50.047450" lon="9.349480">
<ele>177.0</ele>
<speed>98.1</speed>
<course>346.8</course>
<desc>Speed 98.1 km/h Distance 128 km</desc>
<time>2010-09-11T16:31:09.86</time>
<name>3100</name>
</trkpt>
<trkpt lat="50.051177" lon="9.348120">
<ele>178.5</ele>
<speed>98.1</speed>
<course>331.6</course>
<desc>Speed 98.1 km/h Distance 128 km</desc>
<time>2010-09-11T16:31:22.84</time>
<name>3101</name>
</trkpt>
<trkpt lat="50.052427" lon="9.347067">
<ele>179.0</ele>
<speed>98.1</speed>
<course>54.4</course>
<desc>Speed 98.1 km/h Distance 128 km</desc>
<time>2010-09-11T16:31:29.84</time>
<name>3102</name>
</trkpt>
<trkpt lat="50.052863" lon="9.348017">
<ele>179.0</ele>
<speed>98.1</speed>
<course>318.6</course>
<desc>Speed 98.1 km/h Distance 128 km</desc>
<time>2010-09-11T16:31:32.84</time>
<name>3103</name>
</trkpt>
<trkpt lat="50.053352" lon="9.347347">
<ele>179.5</ele>
<speed>98.1</speed>
<course>338.3</course>
<desc>Speed 98.1 km/h Distance 129 km</desc>
<time>2010-09-11T16:31:35.85</time>
<name>3104</name>
</trkpt>
<trkpt lat="50.054135" lon="9.346862">
<ele>179.5</ele>
<speed>98.1</speed>
<course>1.4</course>
<desc>Speed 98.1 km/h Distance 129 km</desc>
<time>2010-09-11T16:31:38.83</time>
<name>3105</name>
</trkpt>
<trkpt lat="50.055422" lon="9.346910">
<ele>179.5</ele>
<speed>98.1</speed>
<course>11.1</course>
<desc>Speed 98.1 km/h Distance 129 km</desc>
<time>2010-09-11T16:31:41.84</time>
<name>3106</name>
</trkpt>
<trkpt lat="50.055810" lon="9.347028">
<ele>180.0</ele>
<speed>98.1</speed>
<course>345.4</course>
<desc>Speed 98.1 km/h Distance 129 km</desc>
<time>2010-09-11T16:31:46.84</time>
<name>3107</name>
</trkpt>
<trkpt lat="50.060257" lon="9.345220">
<ele>180.0</ele>
<speed>98.1</speed>
<course>330.1</course>
<desc>Speed 98.1 km/h Distance 129 km</desc>
<time>2010-09-11T16:32:13.82</time>
<name>3108</name>
</trkpt>
<trkpt lat="50.061485" lon="9.344118">
<ele>180.0</ele>
<speed>98.1</speed>
<course>346.2</course>
<desc>Speed 98.1 km/h Distance 129 km</desc>
<time>2010-09-11T16:32:15.80</time>
<name>3109</name>
</trkpt>
<trkpt lat="50.062293" lon="9.343808">
<ele>180.5</ele>
<speed>98.1</speed>
<course>88.8</course>
<desc>Speed 98.1 km/h Distance 130 km</desc>
<time>2010-09-11T16:32:17.81</time>
<name>3110</name>
</trkpt>
<trkpt lat="50.062807" lon="9.383628">
<ele>187.0</ele>
<speed>96.2</speed>
<course>90.9</course>
<desc>Speed 96.2 km/h Distance 132 km</desc>
<time>2010-09-11T16:35:38.72</time>
<name>3111</name>
</trkpt>
<trkpt lat="50.062793" lon="9.384897">
<ele>215.0</ele>
<speed>96.2</speed>
<course>67.5</course>
<desc>Speed 96.2 km/h Distance 133 km</desc>
<time>2010-09-11T16:35:41.69</time>
<name>3112</name>
</trkpt>
<trkpt lat="50.063107" lon="9.386075">
<ele>242.5</ele>
<speed>96.2</speed>
<course>83.3</course>
<desc>Speed 96.2 km/h Distance 133 km</desc>
<time>2010-09-11T16:35:44.72</time>
<name>3113</name>
</trkpt>
<trkpt lat="50.063178" lon="9.387025">
<ele>247.5</ele>
<speed>96.2</speed>
<course>37.8</course>
<desc>Speed 96.2 km/h Distance 133 km</desc>
<time>2010-09-11T16:35:50.71</time>
<name>3114</name>
</trkpt>
<trkpt lat="50.063853" lon="9.387842">
<ele>251.5</ele>
<speed>96.2</speed>
<course>81.0</course>
<desc>Speed 96.2 km/h Distance 133 km</desc>
<time>2010-09-11T16:35:57.71</time>
<name>3115</name>
</trkpt>
<trkpt lat="50.063932" lon="9.388610">
<ele>254.0</ele>
<speed>96.2</speed>
<course>122.2</course>
<desc>Speed 96.2 km/h Distance 133 km</desc>
<time>2010-09-11T16:36:00.71</time>
<name>3116</name>
</trkpt>
<trkpt lat="50.063448" lon="9.389805">
<ele>254.0</ele>
<speed>96.2</speed>
<course>67.3</course>
<desc>Speed 96.2 km/h Distance 133 km</desc>
<time>2010-09-11T16:36:06.71</time>
<name>3117</name>
</trkpt>
<trkpt lat="50.063613" lon="9.390420">
<ele>254.5</ele>
<speed>96.2</speed>
<course>71.7</course>
<desc>Speed 96.2 km/h Distance 133 km</desc>
<time>2010-09-11T16:36:08.70</time>
<name>3118</name>
</trkpt>
<trkpt lat="50.063892" lon="9.391730">
<ele>254.0</ele>
<speed>96.2</speed>
<course>125.8</course>
<desc>Speed 96.2 km/h Distance 133 km</desc>
<time>2010-09-11T16:36:13.70</time>
<name>3119</name>
</trkpt>
<trkpt lat="50.062730" lon="9.394240">
<ele>255.5</ele>
<speed>96.2</speed>
<course>131.7</course>
<desc>Speed 96.2 km/h Distance 133 km</desc>
<time>2010-09-11T16:36:19.70</time>
<name>3120</name>
</trkpt>
<trkpt lat="50.062350" lon="9.394903">
<ele>258.0</ele>
<speed>96.2</speed>
<course>123.0</course>
<desc>Speed 96.2 km/h Distance 133 km</desc>
<time>2010-09-11T16:36:23.70</time>
<name>3121</name>
</trkpt>
<trkpt lat="50.062037" lon="9.395655">
<ele>260.0</ele>
<speed>50.5</speed>
<course>118.4</course>
<desc>Speed 50.5 km/h Distance 133 km</desc>
<time>2010-09-11T16:36:27.70</time>
<name>3122</name>
</trkpt>
<trkpt lat="50.061970" lon="9.395847">
<ele>261.0</ele>
<speed>50.5</speed>
<course>145.0</course>
<desc>Speed 50.5 km/h Distance 133 km</desc>
<time>2010-09-11T16:36:28.70</time>
<name>3123</name>
</trkpt>
<trkpt lat="50.061878" lon="9.395947">
<ele>261.5</ele>
<speed>50.5</speed>
<course>157.8</course>
<desc>Speed 50.5 km/h Distance 133 km</desc>
<time>2010-09-11T16:36:29.69</time>
<name>3124</name>
</trkpt>
<trkpt lat="50.061713" lon="9.396052">
<ele>263.0</ele>
<speed>46.1</speed>
<course>97.3</course>
<desc>Speed 46.1 km/h Distance 133 km</desc>
<time>2010-09-11T16:36:32.69</time>
<name>3125</name>
</trkpt>
<trkpt lat="50.061635" lon="9.397007">
<ele>263.5</ele>
<speed>46.1</speed>
<course>155.2</course>
<desc>Speed 46.1 km/h Distance 134 km</desc>
<time>2010-09-11T16:36:41.69</time>
<name>3126</name>
</trkpt>
<trkpt lat="50.061422" lon="9.397160">
<ele>265.0</ele>
<speed>46.1</speed>
<course>102.7</course>
<desc>Speed 46.1 km/h Distance 134 km</desc>
<time>2010-09-11T16:36:43.68</time>
<name>3127</name>
</trkpt>
<trkpt lat="50.061315" lon="9.397900">
<ele>268.5</ele>
<speed>45.6</speed>
<course>104.2</course>
<desc>Speed 45.6 km/h Distance 134 km</desc>
<time>2010-09-11T16:36:46.68</time>
<name>3128</name>
</trkpt>
<trkpt lat="50.061257" lon="9.398260">
<ele>270.5</ele>
<speed>45.6</speed>
<course>124.0</course>
<desc>Speed 45.6 km/h Distance 134 km</desc>
<time>2010-09-11T16:36:48.68</time>
<name>3129</name>
</trkpt>
<trkpt lat="50.061012" lon="9.398825">
<ele>274.5</ele>
<speed>45.6</speed>
<course>115.3</course>
<desc>Speed 45.6 km/h Distance 134 km</desc>
<time>2010-09-11T16:36:51.69</time>
<name>3130</name>
</trkpt>
<trkpt lat="50.060828" lon="9.399428">
<ele>275.5</ele>
<speed>45.6</speed>
<course>123.2</course>
<desc>Speed 45.6 km/h Distance 134 km</desc>
<time>2010-09-11T16:36:53.68</time>
<name>3131</name>
</trkpt>
<trkpt lat="50.060685" lon="9.399770">
<ele>277.0</ele>
<speed>45.6</speed>
<course>140.1</course>
<desc>Speed 45.6 km/h Distance 134 km</desc>
<time>2010-09-11T16:36:57.67</time>
<name>3132</name>
</trkpt>
<trkpt lat="50.059582" lon="9.401205">
<ele>276.5</ele>
<speed>45.8</speed>
<course>127.7</course>
<desc>Speed 45.8 km/h Distance 134 km</desc>
<time>2010-09-11T16:37:06.67</time>
<name>3133</name>
</trkpt>
<trkpt lat="50.059402" lon="9.401568">
<ele>278.0</ele>
<speed>58.0</speed>
<course>153.9</course>
<desc>Speed 58.0 km/h Distance 134 km</desc>
<time>2010-09-11T16:37:09.67</time>
<name>3134</name>
</trkpt>
<trkpt lat="50.059115" lon="9.401787">
<ele>280.0</ele>
<speed>45.0</speed>
<course>88.2</course>
<desc>Speed 45.0 km/h Distance 134 km</desc>
<time>2010-09-11T16:37:13.67</time>
<name>3135</name>
</trkpt>
<trkpt lat="50.059122" lon="9.402123">
<ele>281.5</ele>
<speed>45.0</speed>
<course>124.4</course>
<desc>Speed 45.0 km/h Distance 134 km</desc>
<time>2010-09-11T16:37:15.66</time>
<name>3136</name>
</trkpt>
<trkpt lat="50.059023" lon="9.402347">
<ele>284.0</ele>
<speed>45.0</speed>
<course>81.0</course>
<desc>Speed 45.0 km/h Distance 134 km</desc>
<time>2010-09-11T16:37:17.66</time>
<name>3137</name>
</trkpt>
<trkpt lat="50.059052" lon="9.402627">
<ele>285.5</ele>
<speed>45.0</speed>
<course>60.4</course>
<desc>Speed 45.0 km/h Distance 134 km</desc>
<time>2010-09-11T16:37:19.65</time>
<name>3138</name>
</trkpt>
<trkpt lat="50.059225" lon="9.403102">
<ele>286.0</ele>
<speed>45.0</speed>
<course>74.0</course>
<desc>Speed 45.0 km/h Distance 134 km</desc>
<time>2010-09-11T16:37:29.63</time>
<name>3139</name>
</trkpt>
<trkpt lat="50.059407" lon="9.404087">
<ele>286.0</ele>
<speed>32.7</speed>
<course>70.6</course>
<desc>Speed 32.7 km/h Distance 134 km</desc>
<time>2010-09-11T16:37:33.65</time>
<name>3140</name>
</trkpt>
<trkpt lat="50.059467" lon="9.404352">
<ele>286.0</ele>
<speed>38.9</speed>
<course>84.8</course>
<desc>Speed 38.9 km/h Distance 134 km</desc>
<time>2010-09-11T16:37:35.65</time>
<name>3141</name>
</trkpt>
<trkpt lat="50.059488" lon="9.404723">
<ele>286.0</ele>
<speed>40.5</speed>
<course>83.7</course>
<desc>Speed 40.5 km/h Distance 134 km</desc>
<time>2010-09-11T16:37:37.65</time>
<name>3142</name>
</trkpt>
<trkpt lat="50.059498" lon="9.404863">
<ele>286.0</ele>
<speed>40.5</speed>
<course>80.0</course>
<desc>Speed 40.5 km/h Distance 134 km</desc>
<time>2010-09-11T16:37:38.64</time>
<name>3143</name>
</trkpt>
<trkpt lat="50.059525" lon="9.405098">
<ele>286.5</ele>
<speed>40.5</speed>
<course>98.4</course>
<desc>Speed 40.5 km/h Distance 134 km</desc>
<time>2010-09-11T16:37:40.64</time>
<name>3144</name>
</trkpt>
<trkpt lat="50.059487" lon="9.405502">
<ele>287.0</ele>
<speed>40.5</speed>
<course>29.0</course>
<desc>Speed 40.5 km/h Distance 134 km</desc>
<time>2010-09-11T16:37:42.65</time>
<name>3145</name>
</trkpt>
<trkpt lat="50.059807" lon="9.405778">
<ele>289.5</ele>
<speed>29.5</speed>
<course>9.8</course>
<desc>Speed 29.5 km/h Distance 134 km</desc>
<time>2010-09-11T16:37:47.63</time>
<name>3146</name>
</trkpt>
<trkpt lat="50.059955" lon="9.405818">
<ele>290.0</ele>
<speed>29.5</speed>
<course>31.9</course>
<desc>Speed 29.5 km/h Distance 134 km</desc>
<time>2010-09-11T16:37:49.64</time>
<name>3147</name>
</trkpt>
<trkpt lat="50.060163" lon="9.406020">
<ele>289.5</ele>
<speed>44.0</speed>
<course>39.3</course>
<desc>Speed 44.0 km/h Distance 134 km</desc>
<time>2010-09-11T16:37:52.64</time>
<name>3148</name>
</trkpt>
<trkpt lat="50.060255" lon="9.406137">
<ele>289.5</ele>
<speed>46.9</speed>
<course>45.8</course>
<desc>Speed 46.9 km/h Distance 134 km</desc>
<time>2010-09-11T16:37:53.64</time>
<name>3149</name>
</trkpt>
<trkpt lat="50.060335" lon="9.406265">
<ele>290.0</ele>
<speed>44.5</speed>
<course>51.4</course>
<desc>Speed 44.5 km/h Distance 134 km</desc>
<time>2010-09-11T16:37:54.63</time>
<name>3150</name>
</trkpt>
<trkpt lat="50.060407" lon="9.406405">
<ele>290.0</ele>
<speed>45.2</speed>
<course>51.4</course>
<desc>Speed 45.2 km/h Distance 134 km</desc>
<time>2010-09-11T16:37:55.64</time>
<name>3151</name>
</trkpt>
<trkpt lat="50.060515" lon="9.406617">
<ele>290.0</ele>
<speed>45.2</speed>
<course>39.0</course>
<desc>Speed 45.2 km/h Distance 134 km</desc>
<time>2010-09-11T16:37:57.63</time>
<name>3152</name>
</trkpt>
<trkpt lat="50.060637" lon="9.406770">
<ele>292.0</ele>
<speed>45.2</speed>
<course>39.1</course>
<desc>Speed 45.2 km/h Distance 134 km</desc>
<time>2010-09-11T16:37:59.64</time>
<name>3153</name>
</trkpt>
<trkpt lat="50.060768" lon="9.406937">
<ele>294.0</ele>
<speed>45.2</speed>
<course>90.8</course>
<desc>Speed 45.2 km/h Distance 134 km</desc>
<time>2010-09-11T16:38:03.63</time>
<name>3154</name>
</trkpt>
<trkpt lat="50.060767" lon="9.407133">
<ele>293.5</ele>
<speed>45.2</speed>
<course>56.6</course>
<desc>Speed 45.2 km/h Distance 134 km</desc>
<time>2010-09-11T16:38:08.63</time>
<name>3155</name>
</trkpt>
<trkpt lat="50.060855" lon="9.407342">
<ele>294.0</ele>
<speed>45.2</speed>
<course>127.7</course>
<desc>Speed 45.2 km/h Distance 134 km</desc>
<time>2010-09-11T16:38:10.63</time>
<name>3156</name>
</trkpt>
<trkpt lat="50.060733" lon="9.407587">
<ele>293.0</ele>
<speed>45.2</speed>
<course>65.3</course>
<desc>Speed 45.2 km/h Distance 135 km</desc>
<time>2010-09-11T16:38:12.63</time>
<name>3157</name>
</trkpt>
<trkpt lat="50.060865" lon="9.408033">
<ele>292.5</ele>
<speed>45.2</speed>
<course>76.5</course>
<desc>Speed 45.2 km/h Distance 135 km</desc>
<time>2010-09-11T16:38:16.62</time>
<name>3158</name>
</trkpt>
<trkpt lat="50.061083" lon="9.409452">
<ele>292.0</ele>
<speed>45.2</speed>
<course>16.2</course>
<desc>Speed 45.2 km/h Distance 135 km</desc>
<time>2010-09-11T16:38:21.62</time>
<name>3159</name>
</trkpt>
<trkpt lat="50.061205" lon="9.409507">
<ele>292.5</ele>
<speed>45.2</speed>
<course>76.4</course>
<desc>Speed 45.2 km/h Distance 135 km</desc>
<time>2010-09-11T16:38:26.62</time>
<name>3160</name>
</trkpt>
<trkpt lat="50.061340" lon="9.410375">
<ele>292.5</ele>
<speed>45.2</speed>
<course>64.4</course>
<desc>Speed 45.2 km/h Distance 135 km</desc>
<time>2010-09-11T16:38:28.61</time>
<name>3161</name>
</trkpt>
<trkpt lat="50.061583" lon="9.411165">
<ele>292.5</ele>
<speed>45.2</speed>
<course>72.6</course>
<desc>Speed 45.2 km/h Distance 135 km</desc>
<time>2010-09-11T16:38:30.61</time>
<name>3162</name>
</trkpt>
<trkpt lat="50.062062" lon="9.413543">
<ele>292.0</ele>
<speed>45.2</speed>
<course>90.7</course>
<desc>Speed 45.2 km/h Distance 135 km</desc>
<time>2010-09-11T16:38:40.60</time>
<name>3163</name>
</trkpt>
<trkpt lat="50.062053" lon="9.414557">
<ele>293.0</ele>
<speed>45.2</speed>
<course>133.0</course>
<desc>Speed 45.2 km/h Distance 135 km</desc>
<time>2010-09-11T16:38:44.60</time>
<name>3164</name>
</trkpt>
<trkpt lat="50.061343" lon="9.415743">
<ele>294.5</ele>
<speed>45.2</speed>
<course>143.1</course>
<desc>Speed 45.2 km/h Distance 135 km</desc>
<time>2010-09-11T16:38:48.59</time>
<name>3165</name>
</trkpt>
<trkpt lat="50.059175" lon="9.418275">
<ele>294.5</ele>
<speed>78.3</speed>
<course>161.2</course>
<desc>Speed 78.3 km/h Distance 135 km</desc>
<time>2010-09-11T16:39:00.59</time>
<name>3166</name>
</trkpt>
<trkpt lat="50.058987" lon="9.418375">
<ele>294.5</ele>
<speed>78.3</speed>
<course>170.5</course>
<desc>Speed 78.3 km/h Distance 135 km</desc>
<time>2010-09-11T16:39:01.59</time>
<name>3167</name>
</trkpt>
<trkpt lat="50.058498" lon="9.418502">
<ele>294.5</ele>
<speed>78.3</speed>
<course>105.5</course>
<desc>Speed 78.3 km/h Distance 136 km</desc>
<time>2010-09-11T16:39:04.58</time>
<name>3168</name>
</trkpt>
<trkpt lat="50.058375" lon="9.419197">
<ele>295.5</ele>
<speed>78.3</speed>
<course>98.2</course>
<desc>Speed 78.3 km/h Distance 136 km</desc>
<time>2010-09-11T16:39:08.58</time>
<name>3169</name>
</trkpt>
<trkpt lat="50.058343" lon="9.419538">
<ele>295.5</ele>
<speed>78.3</speed>
<course>56.8</course>
<desc>Speed 78.3 km/h Distance 136 km</desc>
<time>2010-09-11T16:39:10.58</time>
<name>3170</name>
</trkpt>
<trkpt lat="50.065778" lon="9.437235">
<ele>293.5</ele>
<speed>78.3</speed>
<course>43.0</course>
<desc>Speed 78.3 km/h Distance 137 km</desc>
<time>2010-09-11T16:40:24.55</time>
<name>3171</name>
</trkpt>
<trkpt lat="50.066640" lon="9.438488">
<ele>292.5</ele>
<speed>78.3</speed>
<course>97.4</course>
<desc>Speed 78.3 km/h Distance 137 km</desc>
<time>2010-09-11T16:40:29.55</time>
<name>3172</name>
</trkpt>
<trkpt lat="50.066583" lon="9.439167">
<ele>293.0</ele>
<speed>78.3</speed>
<course>323.0</course>
<desc>Speed 78.3 km/h Distance 137 km</desc>
<time>2010-09-11T16:40:33.53</time>
<name>3173</name>
</trkpt>
<trkpt lat="50.067308" lon="9.438317">
<ele>292.0</ele>
<speed>78.3</speed>
<course>336.8</course>
<desc>Speed 78.3 km/h Distance 137 km</desc>
<time>2010-09-11T16:40:46.54</time>
<name>3174</name>
</trkpt>
<trkpt lat="50.068310" lon="9.437648">
<ele>293.5</ele>
<speed>78.3</speed>
<course>320.0</course>
<desc>Speed 78.3 km/h Distance 138 km</desc>
<time>2010-09-11T16:40:51.55</time>
<name>3175</name>
</trkpt>
<trkpt lat="50.070318" lon="9.435020">
<ele>292.5</ele>
<speed>78.3</speed>
<course>31.3</course>
<desc>Speed 78.3 km/h Distance 138 km</desc>
<time>2010-09-11T16:41:14.50</time>
<name>3176</name>
</trkpt>
<trkpt lat="50.071158" lon="9.435817">
<ele>292.5</ele>
<speed>78.3</speed>
<course>214.4</course>
<desc>Speed 78.3 km/h Distance 138 km</desc>
<time>2010-09-11T16:41:17.51</time>
<name>3177</name>
</trkpt>
<trkpt lat="50.070370" lon="9.434977">
<ele>293.0</ele>
<speed>78.3</speed>
<course>328.9</course>
<desc>Speed 78.3 km/h Distance 138 km</desc>
<time>2010-09-11T16:41:19.51</time>
<name>3178</name>
</trkpt>
<trkpt lat="50.072630" lon="9.432848">
<ele>293.0</ele>
<speed>78.3</speed>
<course>19.2</course>
<desc>Speed 78.3 km/h Distance 138 km</desc>
<time>2010-09-11T16:41:26.49</time>
<name>3179</name>
</trkpt>
<trkpt lat="50.073335" lon="9.433232">
<ele>293.0</ele>
<speed>78.3</speed>
<course>339.6</course>
<desc>Speed 78.3 km/h Distance 138 km</desc>
<time>2010-09-11T16:41:29.51</time>
<name>3180</name>
</trkpt>
<trkpt lat="50.073835" lon="9.432942">
<ele>292.5</ele>
<speed>78.3</speed>
<course>3.8</course>
<desc>Speed 78.3 km/h Distance 138 km</desc>
<time>2010-09-11T16:41:32.51</time>
<name>3181</name>
</trkpt>
<trkpt lat="50.074357" lon="9.432995">
<ele>292.0</ele>
<speed>78.3</speed>
<course>317.4</course>
<desc>Speed 78.3 km/h Distance 139 km</desc>
<time>2010-09-11T16:41:50.49</time>
<name>3182</name>
</trkpt>
<trkpt lat="50.075433" lon="9.431453">
<ele>99.5</ele>
<speed>78.3</speed>
<course>244.1</course>
<desc>Speed 78.3 km/h Distance 139 km</desc>
<time>2010-09-11T16:41:58.46</time>
<name>3183</name>
</trkpt>
<trkpt lat="50.074888" lon="9.429703">
<ele>100.5</ele>
<speed>78.3</speed>
<course>333.2</course>
<desc>Speed 78.3 km/h Distance 139 km</desc>
<time>2010-09-11T16:42:03.48</time>
<name>3184</name>
</trkpt>
<trkpt lat="50.075443" lon="9.429267">
<ele>100.5</ele>
<speed>78.3</speed>
<course>313.3</course>
<desc>Speed 78.3 km/h Distance 139 km</desc>
<time>2010-09-11T16:42:06.48</time>
<name>3185</name>
</trkpt>
<trkpt lat="50.076617" lon="9.427328">
<ele>99.5</ele>
<speed>78.3</speed>
<course>319.8</course>
<desc>Speed 78.3 km/h Distance 139 km</desc>
<time>2010-09-11T16:42:30.47</time>
<name>3186</name>
</trkpt>
<trkpt lat="50.078105" lon="9.425367">
<ele>99.5</ele>
<speed>78.3</speed>
<course>312.0</course>
<desc>Speed 78.3 km/h Distance 139 km</desc>
<time>2010-09-11T16:42:32.46</time>
<name>3187</name>
</trkpt>
<trkpt lat="50.078445" lon="9.424778">
<ele>100.0</ele>
<speed>78.3</speed>
<course>271.6</course>
<desc>Speed 78.3 km/h Distance 139 km</desc>
<time>2010-09-11T16:42:35.47</time>
<name>3188</name>
</trkpt>
<trkpt lat="50.078477" lon="9.423017">
<ele>103.0</ele>
<speed>78.3</speed>
<course>273.4</course>
<desc>Speed 78.3 km/h Distance 139 km</desc>
<time>2010-09-11T16:42:44.46</time>
<name>3189</name>
</trkpt>
<trkpt lat="50.078497" lon="9.422492">
<ele>103.0</ele>
<speed>78.3</speed>
<course>328.8</course>
<desc>Speed 78.3 km/h Distance 140 km</desc>
<time>2010-09-11T16:42:49.45</time>
<name>3190</name>
</trkpt>
<trkpt lat="50.078885" lon="9.422125">
<ele>102.5</ele>
<speed>78.3</speed>
<course>2.6</course>
<desc>Speed 78.3 km/h Distance 140 km</desc>
<time>2010-09-11T16:42:55.43</time>
<name>3191</name>
</trkpt>
<trkpt lat="50.079220" lon="9.422148">
<ele>102.5</ele>
<speed>78.3</speed>
<course>340.8</course>
<desc>Speed 78.3 km/h Distance 140 km</desc>
<time>2010-09-11T16:43:05.42</time>
<name>3192</name>
</trkpt>
<trkpt lat="50.079747" lon="9.421863">
<ele>102.5</ele>
<speed>78.3</speed>
<course>317.0</course>
<desc>Speed 78.3 km/h Distance 140 km</desc>
<time>2010-09-11T16:43:08.43</time>
<name>3193</name>
</trkpt>
<trkpt lat="50.080018" lon="9.421468">
<ele>102.5</ele>
<speed>78.3</speed>
<course>309.9</course>
<desc>Speed 78.3 km/h Distance 140 km</desc>
<time>2010-09-11T16:43:10.42</time>
<name>3194</name>
</trkpt>
<trkpt lat="50.086803" lon="9.408825">
<ele>100.5</ele>
<speed>78.3</speed>
<course>310.2</course>
<desc>Speed 78.3 km/h Distance 141 km</desc>
<time>2010-09-11T16:44:25.39</time>
<name>3195</name>
</trkpt>
<trkpt lat="50.088803" lon="9.405142">
<ele>101.0</ele>
<speed>84.6</speed>
<course>336.8</course>
<desc>Speed 84.6 km/h Distance 141 km</desc>
<time>2010-09-11T16:44:36.39</time>
<name>3196</name>
</trkpt>
<trkpt lat="50.089232" lon="9.404855">
<ele>101.0</ele>
<speed>84.6</speed>
<course>304.7</course>
<desc>Speed 84.6 km/h Distance 141 km</desc>
<time>2010-09-11T16:44:38.39</time>
<name>3197</name>
</trkpt>
<trkpt lat="50.089452" lon="9.404360">
<ele>101.0</ele>
<speed>84.6</speed>
<course>302.3</course>
<desc>Speed 84.6 km/h Distance 141 km</desc>
<time>2010-09-11T16:44:40.40</time>
<name>3198</name>
</trkpt>
<trkpt lat="50.089727" lon="9.403682">
<ele>101.0</ele>
<speed>84.6</speed>
<course>293.8</course>
<desc>Speed 84.6 km/h Distance 141 km</desc>
<time>2010-09-11T16:44:46.39</time>
<name>3199</name>
</trkpt>
<trkpt lat="50.089878" lon="9.403147">
<ele>101.0</ele>
<speed>84.6</speed>
<course>343.1</course>
<desc>Speed 84.6 km/h Distance 141 km</desc>
<time>2010-09-11T16:44:48.39</time>
<name>3200</name>
</trkpt>
<trkpt lat="50.090302" lon="9.402947">
<ele>101.0</ele>
<speed>84.6</speed>
<course>344.0</course>
<desc>Speed 84.6 km/h Distance 141 km</desc>
<time>2010-09-11T16:44:54.38</time>
<name>3201</name>
</trkpt>
<trkpt lat="50.091205" lon="9.402543">
<ele>100.5</ele>
<speed>84.6</speed>
<course>335.8</course>
<desc>Speed 84.6 km/h Distance 142 km</desc>
<time>2010-09-11T16:44:58.38</time>
<name>3202</name>
</trkpt>
<trkpt lat="50.091893" lon="9.402062">
<ele>100.5</ele>
<speed>84.6</speed>
<course>330.3</course>
<desc>Speed 84.6 km/h Distance 142 km</desc>
<time>2010-09-11T16:45:03.38</time>
<name>3203</name>
</trkpt>
<trkpt lat="50.092228" lon="9.401763">
<ele>100.5</ele>
<speed>84.6</speed>
<course>342.4</course>
<desc>Speed 84.6 km/h Distance 142 km</desc>
<time>2010-09-11T16:45:05.38</time>
<name>3204</name>
</trkpt>
<trkpt lat="50.093183" lon="9.401292">
<ele>100.5</ele>
<speed>84.6</speed>
<course>273.1</course>
<desc>Speed 84.6 km/h Distance 142 km</desc>
<time>2010-09-11T16:45:11.38</time>
<name>3205</name>
</trkpt>
<trkpt lat="50.093218" lon="9.400290">
<ele>100.5</ele>
<speed>84.6</speed>
<course>316.2</course>
<desc>Speed 84.6 km/h Distance 142 km</desc>
<time>2010-09-11T16:45:17.37</time>
<name>3206</name>
</trkpt>
<trkpt lat="50.094215" lon="9.398800">
<ele>100.5</ele>
<speed>84.6</speed>
<course>300.4</course>
<desc>Speed 84.6 km/h Distance 142 km</desc>
<time>2010-09-11T16:45:22.37</time>
<name>3207</name>
</trkpt>
<trkpt lat="50.098593" lon="9.387148">
<ele>101.0</ele>
<speed>84.6</speed>
<course>347.7</course>
<desc>Speed 84.6 km/h Distance 143 km</desc>
<time>2010-09-11T16:46:02.35</time>
<name>3208</name>
</trkpt>
<trkpt lat="50.102953" lon="9.385663">
<ele>103.5</ele>
<speed>84.6</speed>
<course>321.1</course>
<desc>Speed 84.6 km/h Distance 144 km</desc>
<time>2010-09-11T16:46:18.31</time>
<name>3209</name>
</trkpt>
<trkpt lat="50.104610" lon="9.383577">
<ele>105.0</ele>
<speed>84.6</speed>
<course>301.7</course>
<desc>Speed 84.6 km/h Distance 144 km</desc>
<time>2010-09-11T16:46:33.33</time>
<name>3210</name>
</trkpt>
<trkpt lat="50.104770" lon="9.383173">
<ele>105.5</ele>
<speed>84.6</speed>
<course>314.7</course>
<desc>Speed 84.6 km/h Distance 144 km</desc>
<time>2010-09-11T16:46:39.83</time>
<name>3211</name>
</trkpt>
<trkpt lat="50.107542" lon="9.378812">
<ele>105.5</ele>
<speed>38.4</speed>
<course>307.4</course>
<desc>Speed 38.4 km/h Distance 144 km</desc>
<time>2010-09-11T16:47:06.31</time>
<name>3212</name>
</trkpt>
<trkpt lat="50.107752" lon="9.378383">
<ele>106.0</ele>
<speed>38.4</speed>
<course>331.6</course>
<desc>Speed 38.4 km/h Distance 144 km</desc>
<time>2010-09-11T16:47:09.31</time>
<name>3213</name>
</trkpt>
<trkpt lat="50.107933" lon="9.378230">
<ele>106.0</ele>
<speed>38.4</speed>
<course>317.0</course>
<desc>Speed 38.4 km/h Distance 144 km</desc>
<time>2010-09-11T16:47:11.30</time>
<name>3214</name>
</trkpt>
<trkpt lat="50.108120" lon="9.377958">
<ele>107.0</ele>
<speed>38.4</speed>
<course>288.3</course>
<desc>Speed 38.4 km/h Distance 144 km</desc>
<time>2010-09-11T16:47:14.31</time>
<name>3215</name>
</trkpt>
<trkpt lat="50.108245" lon="9.377368">
<ele>107.0</ele>
<speed>41.4</speed>
<course>272.5</course>
<desc>Speed 41.4 km/h Distance 144 km</desc>
<time>2010-09-11T16:47:17.31</time>
<name>3216</name>
</trkpt>
<trkpt lat="50.108257" lon="9.376943">
<ele>107.0</ele>
<speed>39.0</speed>
<course>266.1</course>
<desc>Speed 39.0 km/h Distance 144 km</desc>
<time>2010-09-11T16:47:19.31</time>
<name>3217</name>
</trkpt>
<trkpt lat="50.108243" lon="9.376637">
<ele>107.0</ele>
<speed>39.0</speed>
<course>284.4</course>
<desc>Speed 39.0 km/h Distance 144 km</desc>
<time>2010-09-11T16:47:21.31</time>
<name>3218</name>
</trkpt>
<trkpt lat="50.108297" lon="9.376312">
<ele>107.0</ele>
<speed>27.6</speed>
<course>277.7</course>
<desc>Speed 27.6 km/h Distance 144 km</desc>
<time>2010-09-11T16:47:23.30</time>
<name>3219</name>
</trkpt>
<trkpt lat="50.108313" lon="9.376120">
<ele>107.0</ele>
<speed>27.6</speed>
<course>299.0</course>
<desc>Speed 27.6 km/h Distance 144 km</desc>
<time>2010-09-11T16:47:25.31</time>
<name>3220</name>
</trkpt>
<trkpt lat="50.108395" lon="9.375890">
<ele>107.0</ele>
<speed>27.6</speed>
<course>270.3</course>
<desc>Speed 27.6 km/h Distance 144 km</desc>
<time>2010-09-11T16:47:27.31</time>
<name>3221</name>
</trkpt>
<trkpt lat="50.108467" lon="9.355718">
<ele>99.5</ele>
<speed>93.5</speed>
<course>208.0</course>
<desc>Speed 93.5 km/h Distance 146 km</desc>
<time>2010-09-11T16:53:14.15</time>
<name>3222</name>
</trkpt>
<trkpt lat="50.107988" lon="9.355322">
<ele>99.5</ele>
<speed>93.5</speed>
<course>284.5</course>
<desc>Speed 93.5 km/h Distance 146 km</desc>
<time>2010-09-11T16:53:20.14</time>
<name>3223</name>
</trkpt>
<trkpt lat="50.111313" lon="9.335325">
<ele>99.0</ele>
<speed>93.5</speed>
<course>331.2</course>
<desc>Speed 93.5 km/h Distance 147 km</desc>
<time>2010-09-11T16:55:12.07</time>
<name>3224</name>
</trkpt>
<trkpt lat="50.117833" lon="9.329727">
<ele>98.5</ele>
<speed>93.5</speed>
<course>309.5</course>
<desc>Speed 93.5 km/h Distance 148 km</desc>
<time>2010-09-11T16:55:39.07</time>
<name>3225</name>
</trkpt>
<trkpt lat="50.119500" lon="9.326572">
<ele>97.5</ele>
<speed>93.5</speed>
<course>320.6</course>
<desc>Speed 93.5 km/h Distance 149 km</desc>
<time>2010-09-11T16:55:43.07</time>
<name>3226</name>
</trkpt>
<trkpt lat="50.119825" lon="9.326155">
<ele>97.5</ele>
<speed>93.5</speed>
<course>324.2</course>
<desc>Speed 93.5 km/h Distance 149 km</desc>
<time>2010-09-11T16:55:45.05</time>
<name>3227</name>
</trkpt>
<trkpt lat="50.120672" lon="9.325202">
<ele>97.5</ele>
<speed>93.5</speed>
<course>241.4</course>
<desc>Speed 93.5 km/h Distance 149 km</desc>
<time>2010-09-11T16:55:47.05</time>
<name>3228</name>
</trkpt>
<trkpt lat="50.120298" lon="9.324133">
<ele>97.0</ele>
<speed>93.5</speed>
<course>309.4</course>
<desc>Speed 93.5 km/h Distance 149 km</desc>
<time>2010-09-11T16:55:50.06</time>
<name>3229</name>
</trkpt>
<trkpt lat="50.120863" lon="9.323060">
<ele>96.5</ele>
<speed>93.5</speed>
<course>298.0</course>
<desc>Speed 93.5 km/h Distance 149 km</desc>
<time>2010-09-11T16:55:52.06</time>
<name>3230</name>
</trkpt>
<trkpt lat="50.120968" lon="9.322752">
<ele>96.5</ele>
<speed>93.5</speed>
<course>316.6</course>
<desc>Speed 93.5 km/h Distance 149 km</desc>
<time>2010-09-11T16:55:54.04</time>
<name>3231</name>
</trkpt>
<trkpt lat="50.121700" lon="9.321673">
<ele>96.5</ele>
<speed>93.5</speed>
<course>270.0</course>
<desc>Speed 93.5 km/h Distance 149 km</desc>
<time>2010-09-11T16:55:56.04</time>
<name>3232</name>
</trkpt>
<trkpt lat="50.121700" lon="9.321247">
<ele>96.5</ele>
<speed>93.5</speed>
<course>300.6</course>
<desc>Speed 93.5 km/h Distance 149 km</desc>
<time>2010-09-11T16:55:58.04</time>
<name>3233</name>
</trkpt>
<trkpt lat="50.122223" lon="9.319868">
<ele>96.5</ele>
<speed>93.5</speed>
<course>245.7</course>
<desc>Speed 93.5 km/h Distance 149 km</desc>
<time>2010-09-11T16:56:00.04</time>
<name>3234</name>
</trkpt>
<trkpt lat="50.122017" lon="9.319155">
<ele>96.0</ele>
<speed>93.5</speed>
<course>273.7</course>
<desc>Speed 93.5 km/h Distance 149 km</desc>
<time>2010-09-11T16:56:02.04</time>
<name>3235</name>
</trkpt>
<trkpt lat="50.122257" lon="9.313365">
<ele>106.5</ele>
<speed>45.1</speed>
<course>312.8</course>
<desc>Speed 45.1 km/h Distance 150 km</desc>
<time>2010-09-11T16:56:20.05</time>
<name>3236</name>
</trkpt>
<trkpt lat="50.122738" lon="9.312555">
<ele>115.0</ele>
<speed>45.1</speed>
<course>331.6</course>
<desc>Speed 45.1 km/h Distance 150 km</desc>
<time>2010-09-11T16:56:25.04</time>
<name>3237</name>
</trkpt>
<trkpt lat="50.123017" lon="9.312320">
<ele>117.0</ele>
<speed>45.1</speed>
<course>276.0</course>
<desc>Speed 45.1 km/h Distance 150 km</desc>
<time>2010-09-11T16:56:28.04</time>
<name>3238</name>
</trkpt>
<trkpt lat="50.123040" lon="9.311973">
<ele>118.5</ele>
<speed>45.1</speed>
<course>300.0</course>
<desc>Speed 45.1 km/h Distance 150 km</desc>
<time>2010-09-11T16:56:30.04</time>
<name>3239</name>
</trkpt>
<trkpt lat="50.124372" lon="9.308382">
<ele>136.0</ele>
<speed>0.6</speed>
<course>251.1</course>
<desc>Speed 0.6 km/h Distance 150 km</desc>
<time>2010-09-11T16:59:52.97</time>
<name>3240</name>
</trkpt>
<trkpt lat="50.124230" lon="9.307735">
<ele>213.5</ele>
<speed>3.1</speed>
<course>258.5</course>
<desc>Speed 3.1 km/h Distance 150 km</desc>
<time>2010-09-11T16:59:57.97</time>
<name>3241</name>
</trkpt>
<trkpt lat="50.124225" lon="9.307697">
<ele>223.5</ele>
<speed>3.1</speed>
<course>269.5</course>
<desc>Speed 3.1 km/h Distance 150 km</desc>
<time>2010-09-11T16:59:58.97</time>
<name>3242</name>
</trkpt>
<trkpt lat="50.124220" lon="9.306863">
<ele>236.5</ele>
<speed>42.0</speed>
<course>263.6</course>
<desc>Speed 42.0 km/h Distance 150 km</desc>
<time>2010-09-11T17:00:03.97</time>
<name>3243</name>
</trkpt>
<trkpt lat="50.124210" lon="9.306725">
<ele>237.0</ele>
<speed>42.0</speed>
<course>269.4</course>
<desc>Speed 42.0 km/h Distance 150 km</desc>
<time>2010-09-11T17:00:04.96</time>
<name>3244</name>
</trkpt>
<trkpt lat="50.124208" lon="9.306492">
<ele>238.0</ele>
<speed>37.8</speed>
<course>259.2</course>
<desc>Speed 37.8 km/h Distance 150 km</desc>
<time>2010-09-11T17:00:06.96</time>
<name>3245</name>
</trkpt>
<trkpt lat="50.124052" lon="9.305213">
<ele>243.0</ele>
<speed>59.1</speed>
<course>261.4</course>
<desc>Speed 59.1 km/h Distance 150 km</desc>
<time>2010-09-11T17:00:11.97</time>
<name>3246</name>
</trkpt>
<trkpt lat="50.124028" lon="9.304973">
<ele>243.5</ele>
<speed>62.2</speed>
<course>261.5</course>
<desc>Speed 62.2 km/h Distance 150 km</desc>
<time>2010-09-11T17:00:12.95</time>
<name>3247</name>
</trkpt>
<trkpt lat="50.124005" lon="9.304730">
<ele>243.5</ele>
<speed>62.2</speed>
<course>262.2</course>
<desc>Speed 62.2 km/h Distance 150 km</desc>
<time>2010-09-11T17:00:13.96</time>
<name>3248</name>
</trkpt>
<trkpt lat="50.123983" lon="9.304483">
<ele>243.5</ele>
<speed>62.4</speed>
<course>261.1</course>
<desc>Speed 62.4 km/h Distance 150 km</desc>
<time>2010-09-11T17:00:14.96</time>
<name>3249</name>
</trkpt>
<trkpt lat="50.123958" lon="9.304233">
<ele>243.5</ele>
<speed>62.2</speed>
<course>261.7</course>
<desc>Speed 62.2 km/h Distance 150 km</desc>
<time>2010-09-11T17:00:15.96</time>
<name>3250</name>
</trkpt>
<trkpt lat="50.123935" lon="9.303983">
<ele>244.5</ele>
<speed>65.8</speed>
<course>263.2</course>
<desc>Speed 65.8 km/h Distance 150 km</desc>
<time>2010-09-11T17:00:16.96</time>
<name>3251</name>
</trkpt>
<trkpt lat="50.123917" lon="9.303743">
<ele>245.0</ele>
<speed>64.0</speed>
<course>261.3</course>
<desc>Speed 64.0 km/h Distance 150 km</desc>
<time>2010-09-11T17:00:17.96</time>
<name>3252</name>
</trkpt>
<trkpt lat="50.123895" lon="9.303522">
<ele>246.0</ele>
<speed>64.0</speed>
<course>262.2</course>
<desc>Speed 64.0 km/h Distance 150 km</desc>
<time>2010-09-11T17:00:18.96</time>
<name>3253</name>
</trkpt>
<trkpt lat="50.123840" lon="9.302892">
<ele>249.0</ele>
<speed>53.4</speed>
<course>253.0</course>
<desc>Speed 53.4 km/h Distance 150 km</desc>
<time>2010-09-11T17:00:22.96</time>
<name>3254</name>
</trkpt>
<trkpt lat="50.123797" lon="9.302670">
<ele>250.0</ele>
<speed>56.8</speed>
<course>247.4</course>
<desc>Speed 56.8 km/h Distance 151 km</desc>
<time>2010-09-11T17:00:23.96</time>
<name>3255</name>
</trkpt>
<trkpt lat="50.123688" lon="9.302263">
<ele>250.5</ele>
<speed>56.8</speed>
<course>218.0</course>
<desc>Speed 56.8 km/h Distance 151 km</desc>
<time>2010-09-11T17:00:26.96</time>
<name>3256</name>
</trkpt>
<trkpt lat="50.123492" lon="9.302023">
<ele>251.0</ele>
<speed>56.8</speed>
<course>205.5</course>
<desc>Speed 56.8 km/h Distance 151 km</desc>
<time>2010-09-11T17:00:31.96</time>
<name>3257</name>
</trkpt>
<trkpt lat="50.122843" lon="9.301542">
<ele>251.5</ele>
<speed>56.8</speed>
<course>235.3</course>
<desc>Speed 56.8 km/h Distance 151 km</desc>
<time>2010-09-11T17:00:35.95</time>
<name>3258</name>
</trkpt>
<trkpt lat="50.122447" lon="9.300648">
<ele>251.0</ele>
<speed>56.8</speed>
<course>216.8</course>
<desc>Speed 56.8 km/h Distance 151 km</desc>
<time>2010-09-11T17:00:39.95</time>
<name>3259</name>
</trkpt>
<trkpt lat="50.121790" lon="9.299883">
<ele>252.5</ele>
<speed>56.8</speed>
<course>234.4</course>
<desc>Speed 56.8 km/h Distance 151 km</desc>
<time>2010-09-11T17:00:43.94</time>
<name>3260</name>
</trkpt>
<trkpt lat="50.121622" lon="9.299517">
<ele>251.5</ele>
<speed>56.8</speed>
<course>259.3</course>
<desc>Speed 56.8 km/h Distance 151 km</desc>
<time>2010-09-11T17:00:45.94</time>
<name>3261</name>
</trkpt>
<trkpt lat="50.121563" lon="9.299033">
<ele>254.5</ele>
<speed>67.0</speed>
<course>278.4</course>
<desc>Speed 67.0 km/h Distance 151 km</desc>
<time>2010-09-11T17:00:47.95</time>
<name>3262</name>
</trkpt>
<trkpt lat="50.121697" lon="9.297617">
<ele>262.5</ele>
<speed>74.9</speed>
<course>272.0</course>
<desc>Speed 74.9 km/h Distance 151 km</desc>
<time>2010-09-11T17:00:51.95</time>
<name>3263</name>
</trkpt>
<trkpt lat="50.121703" lon="9.297315">
<ele>263.0</ele>
<speed>72.4</speed>
<course>259.5</course>
<desc>Speed 72.4 km/h Distance 151 km</desc>
<time>2010-09-11T17:00:52.94</time>
<name>3264</name>
</trkpt>
<trkpt lat="50.121533" lon="9.295888">
<ele>267.0</ele>
<speed>79.0</speed>
<course>260.7</course>
<desc>Speed 79.0 km/h Distance 151 km</desc>
<time>2010-09-11T17:00:56.94</time>
<name>3265</name>
</trkpt>
<trkpt lat="50.121458" lon="9.295173">
<ele>269.5</ele>
<speed>79.5</speed>
<course>266.9</course>
<desc>Speed 79.5 km/h Distance 151 km</desc>
<time>2010-09-11T17:00:58.93</time>
<name>3266</name>
</trkpt>
<trkpt lat="50.121435" lon="9.294493">
<ele>272.0</ele>
<speed>78.4</speed>
<course>262.3</course>
<desc>Speed 78.4 km/h Distance 151 km</desc>
<time>2010-09-11T17:01:00.94</time>
<name>3267</name>
</trkpt>
<trkpt lat="50.121407" lon="9.294168">
<ele>272.5</ele>
<speed>80.0</speed>
<course>262.2</course>
<desc>Speed 80.0 km/h Distance 151 km</desc>
<time>2010-09-11T17:01:01.93</time>
<name>3268</name>
</trkpt>
<trkpt lat="50.121357" lon="9.293602">
<ele>274.0</ele>
<speed>66.2</speed>
<course>256.7</course>
<desc>Speed 66.2 km/h Distance 151 km</desc>
<time>2010-09-11T17:01:03.93</time>
<name>3269</name>
</trkpt>
<trkpt lat="50.121297" lon="9.293205">
<ele>275.0</ele>
<speed>66.2</speed>
<course>211.8</course>
<desc>Speed 66.2 km/h Distance 151 km</desc>
<time>2010-09-11T17:01:05.93</time>
<name>3270</name>
</trkpt>
<trkpt lat="50.120510" lon="9.292443">
<ele>282.0</ele>
<speed>66.2</speed>
<course>227.8</course>
<desc>Speed 66.2 km/h Distance 151 km</desc>
<time>2010-09-11T17:01:11.93</time>
<name>3271</name>
</trkpt>
<trkpt lat="50.120403" lon="9.292260">
<ele>282.0</ele>
<speed>66.2</speed>
<course>215.3</course>
<desc>Speed 66.2 km/h Distance 151 km</desc>
<time>2010-09-11T17:01:12.93</time>
<name>3272</name>
</trkpt>
<trkpt lat="50.120165" lon="9.291997">
<ele>281.5</ele>
<speed>66.2</speed>
<course>228.2</course>
<desc>Speed 66.2 km/h Distance 151 km</desc>
<time>2010-09-11T17:01:14.93</time>
<name>3273</name>
</trkpt>
<trkpt lat="50.119187" lon="9.290292">
<ele>282.5</ele>
<speed>77.1</speed>
<course>224.9</course>
<desc>Speed 77.1 km/h Distance 152 km</desc>
<time>2010-09-11T17:01:19.93</time>
<name>3274</name>
</trkpt>
<trkpt lat="50.118730" lon="9.289582">
<ele>284.0</ele>
<speed>74.4</speed>
<course>216.3</course>
<desc>Speed 74.4 km/h Distance 152 km</desc>
<time>2010-09-11T17:01:22.92</time>
<name>3275</name>
</trkpt>
<trkpt lat="50.118297" lon="9.289085">
<ele>283.5</ele>
<speed>74.4</speed>
<course>241.2</course>
<desc>Speed 74.4 km/h Distance 152 km</desc>
<time>2010-09-11T17:01:28.91</time>
<name>3276</name>
</trkpt>
<trkpt lat="50.118087" lon="9.288490">
<ele>284.0</ele>
<speed>74.4</speed>
<course>223.0</course>
<desc>Speed 74.4 km/h Distance 152 km</desc>
<time>2010-09-11T17:01:31.91</time>
<name>3277</name>
</trkpt>
<trkpt lat="50.117843" lon="9.288137">
<ele>284.0</ele>
<speed>73.0</speed>
<course>221.5</course>
<desc>Speed 73.0 km/h Distance 152 km</desc>
<time>2010-09-11T17:01:33.91</time>
<name>3278</name>
</trkpt>
<trkpt lat="50.117342" lon="9.287443">
<ele>283.5</ele>
<speed>75.5</speed>
<course>227.5</course>
<desc>Speed 75.5 km/h Distance 152 km</desc>
<time>2010-09-11T17:01:36.91</time>
<name>3279</name>
</trkpt>
<trkpt lat="50.117012" lon="9.286882">
<ele>284.0</ele>
<speed>75.5</speed>
<course>217.1</course>
<desc>Speed 75.5 km/h Distance 152 km</desc>
<time>2010-09-11T17:01:39.93</time>
<name>3280</name>
</trkpt>
<trkpt lat="50.116657" lon="9.286463">
<ele>283.0</ele>
<speed>75.5</speed>
<course>216.4</course>
<desc>Speed 75.5 km/h Distance 152 km</desc>
<time>2010-09-11T17:01:42.91</time>
<name>3281</name>
</trkpt>
<trkpt lat="50.115835" lon="9.285520">
<ele>282.5</ele>
<speed>86.4</speed>
<course>229.6</course>
<desc>Speed 86.4 km/h Distance 152 km</desc>
<time>2010-09-11T17:01:46.91</time>
<name>3282</name>
</trkpt>
<trkpt lat="50.115703" lon="9.285278">
<ele>282.5</ele>
<speed>86.4</speed>
<course>233.3</course>
<desc>Speed 86.4 km/h Distance 152 km</desc>
<time>2010-09-11T17:01:47.90</time>
<name>3283</name>
</trkpt>
<trkpt lat="50.115577" lon="9.285013">
<ele>283.0</ele>
<speed>86.4</speed>
<course>207.9</course>
<desc>Speed 86.4 km/h Distance 152 km</desc>
<time>2010-09-11T17:01:48.91</time>
<name>3284</name>
</trkpt>
<trkpt lat="50.115258" lon="9.284750">
<ele>283.0</ele>
<speed>86.4</speed>
<course>225.7</course>
<desc>Speed 86.4 km/h Distance 152 km</desc>
<time>2010-09-11T17:01:54.90</time>
<name>3285</name>
</trkpt>
<trkpt lat="50.114602" lon="9.283702">
<ele>282.5</ele>
<speed>86.4</speed>
<course>234.7</course>
<desc>Speed 86.4 km/h Distance 152 km</desc>
<time>2010-09-11T17:01:58.90</time>
<name>3286</name>
</trkpt>
<trkpt lat="50.113973" lon="9.282318">
<ele>282.5</ele>
<speed>86.4</speed>
<course>214.5</course>
<desc>Speed 86.4 km/h Distance 152 km</desc>
<time>2010-09-11T17:02:00.90</time>
<name>3287</name>
</trkpt>
<trkpt lat="50.113397" lon="9.281700">
<ele>282.5</ele>
<speed>72.4</speed>
<course>211.3</course>
<desc>Speed 72.4 km/h Distance 153 km</desc>
<time>2010-09-11T17:02:03.89</time>
<name>3288</name>
</trkpt>
<trkpt lat="50.113040" lon="9.281362">
<ele>281.5</ele>
<speed>72.9</speed>
<course>214.3</course>
<desc>Speed 72.9 km/h Distance 153 km</desc>
<time>2010-09-11T17:02:05.89</time>
<name>3289</name>
</trkpt>
<trkpt lat="50.112883" lon="9.281195">
<ele>281.5</ele>
<speed>72.9</speed>
<course>215.0</course>
<desc>Speed 72.9 km/h Distance 153 km</desc>
<time>2010-09-11T17:02:06.90</time>
<name>3290</name>
</trkpt>
<trkpt lat="50.112722" lon="9.281018">
<ele>281.0</ele>
<speed>70.5</speed>
<course>213.5</course>
<desc>Speed 70.5 km/h Distance 153 km</desc>
<time>2010-09-11T17:02:07.89</time>
<name>3291</name>
</trkpt>
<trkpt lat="50.112573" lon="9.280865">
<ele>281.0</ele>
<speed>66.7</speed>
<course>207.9</course>
<desc>Speed 66.7 km/h Distance 153 km</desc>
<time>2010-09-11T17:02:08.90</time>
<name>3292</name>
</trkpt>
<trkpt lat="50.112297" lon="9.280637">
<ele>281.0</ele>
<speed>68.8</speed>
<course>201.7</course>
<desc>Speed 68.8 km/h Distance 153 km</desc>
<time>2010-09-11T17:02:10.90</time>
<name>3293</name>
</trkpt>
<trkpt lat="50.111962" lon="9.280428">
<ele>282.5</ele>
<speed>68.8</speed>
<course>213.1</course>
<desc>Speed 68.8 km/h Distance 153 km</desc>
<time>2010-09-11T17:02:13.89</time>
<name>3294</name>
</trkpt>
<trkpt lat="50.111632" lon="9.280093">
<ele>283.5</ele>
<speed>68.8</speed>
<course>219.2</course>
<desc>Speed 68.8 km/h Distance 153 km</desc>
<time>2010-09-11T17:02:18.90</time>
<name>3295</name>
</trkpt>
<trkpt lat="50.111405" lon="9.279805">
<ele>285.0</ele>
<speed>68.8</speed>
<course>213.8</course>
<desc>Speed 68.8 km/h Distance 153 km</desc>
<time>2010-09-11T17:02:20.89</time>
<name>3296</name>
</trkpt>
<trkpt lat="50.110168" lon="9.278515">
<ele>282.0</ele>
<speed>68.8</speed>
<course>209.3</course>
<desc>Speed 68.8 km/h Distance 153 km</desc>
<time>2010-09-11T17:02:28.89</time>
<name>3297</name>
</trkpt>
<trkpt lat="50.109835" lon="9.278223">
<ele>277.5</ele>
<speed>58.6</speed>
<course>213.0</course>
<desc>Speed 58.6 km/h Distance 153 km</desc>
<time>2010-09-11T17:02:31.88</time>
<name>3298</name>
</trkpt>
<trkpt lat="50.109715" lon="9.278102">
<ele>277.5</ele>
<speed>58.6</speed>
<course>224.8</course>
<desc>Speed 58.6 km/h Distance 153 km</desc>
<time>2010-09-11T17:02:32.88</time>
<name>3299</name>
</trkpt>
<trkpt lat="50.109518" lon="9.277797">
<ele>275.0</ele>
<speed>58.6</speed>
<course>232.6</course>
<desc>Speed 58.6 km/h Distance 153 km</desc>
<time>2010-09-11T17:02:35.88</time>
<name>3300</name>
</trkpt>
<trkpt lat="50.109257" lon="9.277263">
<ele>276.5</ele>
<speed>58.6</speed>
<course>212.5</course>
<desc>Speed 58.6 km/h Distance 153 km</desc>
<time>2010-09-11T17:02:40.88</time>
<name>3301</name>
</trkpt>
<trkpt lat="50.108998" lon="9.277007">
<ele>271.5</ele>
<speed>58.6</speed>
<course>254.5</course>
<desc>Speed 58.6 km/h Distance 153 km</desc>
<time>2010-09-11T17:02:46.87</time>
<name>3302</name>
</trkpt>
<trkpt lat="50.108925" lon="9.276595">
<ele>271.5</ele>
<speed>58.6</speed>
<course>196.6</course>
<desc>Speed 58.6 km/h Distance 153 km</desc>
<time>2010-09-11T17:02:51.89</time>
<name>3303</name>
</trkpt>
<trkpt lat="50.108607" lon="9.276447">
<ele>271.0</ele>
<speed>58.6</speed>
<course>213.4</course>
<desc>Speed 58.6 km/h Distance 153 km</desc>
<time>2010-09-11T17:02:57.87</time>
<name>3304</name>
</trkpt>
<trkpt lat="50.108375" lon="9.276208">
<ele>271.0</ele>
<speed>58.6</speed>
<course>241.1</course>
<desc>Speed 58.6 km/h Distance 153 km</desc>
<time>2010-09-11T17:02:59.86</time>
<name>3305</name>
</trkpt>
<trkpt lat="50.107923" lon="9.274932">
<ele>271.0</ele>
<speed>58.6</speed>
<course>200.1</course>
<desc>Speed 58.6 km/h Distance 153 km</desc>
<time>2010-09-11T17:03:02.87</time>
<name>3306</name>
</trkpt>
<trkpt lat="50.107382" lon="9.274623">
<ele>270.5</ele>
<speed>46.8</speed>
<course>246.4</course>
<desc>Speed 46.8 km/h Distance 153 km</desc>
<time>2010-09-11T17:03:05.87</time>
<name>3307</name>
</trkpt>
<trkpt lat="50.106848" lon="9.272722">
<ele>270.5</ele>
<speed>52.0</speed>
<course>237.9</course>
<desc>Speed 52.0 km/h Distance 154 km</desc>
<time>2010-09-11T17:03:11.86</time>
<name>3308</name>
</trkpt>
<trkpt lat="50.106647" lon="9.272220">
<ele>270.5</ele>
<speed>52.0</speed>
<course>204.6</course>
<desc>Speed 52.0 km/h Distance 154 km</desc>
<time>2010-09-11T17:03:14.86</time>
<name>3309</name>
</trkpt>
<trkpt lat="50.106148" lon="9.271865">
<ele>267.5</ele>
<speed>67.5</speed>
<course>199.4</course>
<desc>Speed 67.5 km/h Distance 154 km</desc>
<time>2010-09-11T17:03:17.86</time>
<name>3310</name>
</trkpt>
<trkpt lat="50.105982" lon="9.271773">
<ele>265.0</ele>
<speed>62.7</speed>
<course>203.4</course>
<desc>Speed 62.7 km/h Distance 154 km</desc>
<time>2010-09-11T17:03:18.86</time>
<name>3311</name>
</trkpt>
<trkpt lat="50.105853" lon="9.271687">
<ele>262.5</ele>
<speed>62.7</speed>
<course>200.0</course>
<desc>Speed 62.7 km/h Distance 154 km</desc>
<time>2010-09-11T17:03:19.85</time>
<name>3312</name>
</trkpt>
<trkpt lat="50.105477" lon="9.271473">
<ele>263.0</ele>
<speed>62.7</speed>
<course>192.6</course>
<desc>Speed 62.7 km/h Distance 154 km</desc>
<time>2010-09-11T17:03:24.86</time>
<name>3313</name>
</trkpt>
<trkpt lat="50.104972" lon="9.271297">
<ele>262.5</ele>
<speed>62.7</speed>
<course>215.8</course>
<desc>Speed 62.7 km/h Distance 154 km</desc>
<time>2010-09-11T17:03:30.85</time>
<name>3314</name>
</trkpt>
<trkpt lat="50.104728" lon="9.271023">
<ele>260.5</ele>
<speed>62.7</speed>
<course>176.5</course>
<desc>Speed 62.7 km/h Distance 154 km</desc>
<time>2010-09-11T17:03:35.85</time>
<name>3315</name>
</trkpt>
<trkpt lat="50.104363" lon="9.271058">
<ele>260.5</ele>
<speed>62.7</speed>
<course>235.8</course>
<desc>Speed 62.7 km/h Distance 154 km</desc>
<time>2010-09-11T17:03:38.85</time>
<name>3316</name>
</trkpt>
<trkpt lat="50.104267" lon="9.270837">
<ele>260.0</ele>
<speed>62.7</speed>
<course>211.0</course>
<desc>Speed 62.7 km/h Distance 154 km</desc>
<time>2010-09-11T17:03:39.85</time>
<name>3317</name>
</trkpt>
<trkpt lat="50.103353" lon="9.269982">
<ele>259.5</ele>
<speed>36.5</speed>
<course>220.5</course>
<desc>Speed 36.5 km/h Distance 154 km</desc>
<time>2010-09-11T17:03:46.85</time>
<name>3318</name>
</trkpt>
<trkpt lat="50.102613" lon="9.268997">
<ele>259.5</ele>
<speed>46.0</speed>
<course>243.8</course>
<desc>Speed 46.0 km/h Distance 154 km</desc>
<time>2010-09-11T17:03:51.85</time>
<name>3319</name>
</trkpt>
<trkpt lat="50.102498" lon="9.268632">
<ele>259.5</ele>
<speed>46.0</speed>
<course>255.8</course>
<desc>Speed 46.0 km/h Distance 154 km</desc>
<time>2010-09-11T17:03:53.84</time>
<name>3320</name>
</trkpt>
<trkpt lat="50.102433" lon="9.268232">
<ele>259.5</ele>
<speed>46.0</speed>
<course>255.6</course>
<desc>Speed 46.0 km/h Distance 154 km</desc>
<time>2010-09-11T17:03:55.84</time>
<name>3321</name>
</trkpt>
<trkpt lat="50.102392" lon="9.267978">
<ele>259.5</ele>
<speed>46.0</speed>
<course>261.7</course>
<desc>Speed 46.0 km/h Distance 154 km</desc>
<time>2010-09-11T17:03:57.83</time>
<name>3322</name>
</trkpt>
<trkpt lat="50.102320" lon="9.267217">
<ele>259.0</ele>
<speed>55.9</speed>
<course>261.4</course>
<desc>Speed 55.9 km/h Distance 154 km</desc>
<time>2010-09-11T17:04:00.84</time>
<name>3323</name>
</trkpt>
<trkpt lat="50.102300" lon="9.267012">
<ele>259.0</ele>
<speed>55.9</speed>
<course>258.9</course>
<desc>Speed 55.9 km/h Distance 154 km</desc>
<time>2010-09-11T17:04:01.84</time>
<name>3324</name>
</trkpt>
<trkpt lat="50.102190" lon="9.266140">
<ele>259.0</ele>
<speed>56.9</speed>
<course>235.9</course>
<desc>Speed 56.9 km/h Distance 154 km</desc>
<time>2010-09-11T17:04:04.83</time>
<name>3325</name>
</trkpt>
<trkpt lat="50.101888" lon="9.265447">
<ele>259.0</ele>
<speed>56.6</speed>
<course>235.4</course>
<desc>Speed 56.6 km/h Distance 154 km</desc>
<time>2010-09-11T17:04:07.83</time>
<name>3326</name>
</trkpt>
<trkpt lat="50.101817" lon="9.265285">
<ele>259.0</ele>
<speed>56.6</speed>
<course>236.7</course>
<desc>Speed 56.6 km/h Distance 154 km</desc>
<time>2010-09-11T17:04:08.83</time>
<name>3327</name>
</trkpt>
<trkpt lat="50.101612" lon="9.264798">
<ele>259.0</ele>
<speed>58.9</speed>
<course>248.1</course>
<desc>Speed 58.9 km/h Distance 154 km</desc>
<time>2010-09-11T17:04:11.83</time>
<name>3328</name>
</trkpt>
<trkpt lat="50.101487" lon="9.264313">
<ele>259.0</ele>
<speed>60.1</speed>
<course>242.6</course>
<desc>Speed 60.1 km/h Distance 154 km</desc>
<time>2010-09-11T17:04:13.82</time>
<name>3329</name>
</trkpt>
<trkpt lat="50.101347" lon="9.263892">
<ele>256.5</ele>
<speed>48.0</speed>
<course>221.0</course>
<desc>Speed 48.0 km/h Distance 154 km</desc>
<time>2010-09-11T17:04:15.83</time>
<name>3330</name>
</trkpt>
<trkpt lat="50.101248" lon="9.263758">
<ele>257.0</ele>
<speed>44.9</speed>
<course>231.7</course>
<desc>Speed 44.9 km/h Distance 155 km</desc>
<time>2010-09-11T17:04:16.83</time>
<name>3331</name>
</trkpt>
<trkpt lat="50.101123" lon="9.263512">
<ele>257.0</ele>
<speed>42.9</speed>
<course>246.1</course>
<desc>Speed 42.9 km/h Distance 155 km</desc>
<time>2010-09-11T17:04:18.83</time>
<name>3332</name>
</trkpt>
<trkpt lat="50.101082" lon="9.263365">
<ele>257.0</ele>
<speed>39.1</speed>
<course>243.2</course>
<desc>Speed 39.1 km/h Distance 155 km</desc>
<time>2010-09-11T17:04:19.82</time>
<name>3333</name>
</trkpt>
<trkpt lat="50.101042" lon="9.263242">
<ele>257.0</ele>
<speed>39.1</speed>
<course>232.8</course>
<desc>Speed 39.1 km/h Distance 155 km</desc>
<time>2010-09-11T17:04:20.82</time>
<name>3334</name>
</trkpt>
<trkpt lat="50.100912" lon="9.262975">
<ele>258.0</ele>
<speed>40.7</speed>
<course>244.8</course>
<desc>Speed 40.7 km/h Distance 155 km</desc>
<time>2010-09-11T17:04:22.82</time>
<name>3335</name>
</trkpt>
<trkpt lat="50.100825" lon="9.262688">
<ele>259.5</ele>
<speed>40.7</speed>
<course>208.7</course>
<desc>Speed 40.7 km/h Distance 155 km</desc>
<time>2010-09-11T17:04:24.83</time>
<name>3336</name>
</trkpt>
<trkpt lat="50.100688" lon="9.262572">
<ele>262.0</ele>
<speed>40.7</speed>
<course>190.5</course>
<desc>Speed 40.7 km/h Distance 155 km</desc>
<time>2010-09-11T17:04:28.82</time>
<name>3337</name>
</trkpt>
<trkpt lat="50.099848" lon="9.262330">
<ele>265.0</ele>
<speed>66.6</speed>
<course>194.0</course>
<desc>Speed 66.6 km/h Distance 155 km</desc>
<time>2010-09-11T17:04:33.82</time>
<name>3338</name>
</trkpt>
<trkpt lat="50.099488" lon="9.262190">
<ele>264.0</ele>
<speed>65.3</speed>
<course>196.8</course>
<desc>Speed 65.3 km/h Distance 155 km</desc>
<time>2010-09-11T17:04:35.82</time>
<name>3339</name>
</trkpt>
<trkpt lat="50.098403" lon="9.261680">
<ele>272.5</ele>
<speed>72.0</speed>
<course>196.1</course>
<desc>Speed 72.0 km/h Distance 155 km</desc>
<time>2010-09-11T17:04:40.82</time>
<name>3340</name>
</trkpt>
<trkpt lat="50.098237" lon="9.261605">
<ele>275.0</ele>
<speed>72.0</speed>
<course>193.1</course>
<desc>Speed 72.0 km/h Distance 155 km</desc>
<time>2010-09-11T17:04:41.81</time>
<name>3341</name>
</trkpt>
<trkpt lat="50.097875" lon="9.261473">
<ele>271.0</ele>
<speed>72.0</speed>
<course>206.7</course>
<desc>Speed 72.0 km/h Distance 155 km</desc>
<time>2010-09-11T17:04:46.82</time>
<name>3342</name>
</trkpt>
<trkpt lat="50.097588" lon="9.261248">
<ele>238.5</ele>
<speed>72.0</speed>
<course>204.2</course>
<desc>Speed 72.0 km/h Distance 155 km</desc>
<time>2010-09-11T17:04:51.83</time>
<name>3343</name>
</trkpt>
<trkpt lat="50.097350" lon="9.261082">
<ele>227.0</ele>
<speed>72.0</speed>
<course>228.6</course>
<desc>Speed 72.0 km/h Distance 155 km</desc>
<time>2010-09-11T17:04:57.81</time>
<name>3344</name>
</trkpt>
<trkpt lat="50.096973" lon="9.260415">
<ele>224.0</ele>
<speed>85.1</speed>
<course>219.5</course>
<desc>Speed 85.1 km/h Distance 155 km</desc>
<time>2010-09-11T17:05:01.81</time>
<name>3345</name>
</trkpt>
<trkpt lat="50.095960" lon="9.259112">
<ele>221.5</ele>
<speed>91.1</speed>
<course>248.8</course>
<desc>Speed 91.1 km/h Distance 155 km</desc>
<time>2010-09-11T17:05:06.80</time>
<name>3346</name>
</trkpt>
<trkpt lat="50.095633" lon="9.257797">
<ele>223.0</ele>
<speed>91.1</speed>
<course>251.8</course>
<desc>Speed 91.1 km/h Distance 155 km</desc>
<time>2010-09-11T17:05:11.80</time>
<name>3347</name>
</trkpt>
<trkpt lat="50.095108" lon="9.255312">
<ele>224.5</ele>
<speed>91.1</speed>
<course>275.5</course>
<desc>Speed 91.1 km/h Distance 156 km</desc>
<time>2010-09-11T17:05:17.79</time>
<name>3348</name>
</trkpt>
<trkpt lat="50.095135" lon="9.254878">
<ele>224.5</ele>
<speed>91.1</speed>
<course>223.0</course>
<desc>Speed 91.1 km/h Distance 156 km</desc>
<time>2010-09-11T17:05:23.79</time>
<name>3349</name>
</trkpt>
<trkpt lat="50.094065" lon="9.253323">
<ele>223.5</ele>
<speed>60.4</speed>
<course>220.1</course>
<desc>Speed 60.4 km/h Distance 156 km</desc>
<time>2010-09-11T17:05:27.79</time>
<name>3350</name>
</trkpt>
<trkpt lat="50.093823" lon="9.253007">
<ele>223.5</ele>
<speed>60.4</speed>
<course>226.5</course>
<desc>Speed 60.4 km/h Distance 156 km</desc>
<time>2010-09-11T17:05:29.79</time>
<name>3351</name>
</trkpt>
<trkpt lat="50.093608" lon="9.252653">
<ele>223.5</ele>
<speed>60.4</speed>
<course>221.9</course>
<desc>Speed 60.4 km/h Distance 156 km</desc>
<time>2010-09-11T17:05:31.78</time>
<name>3352</name>
</trkpt>
<trkpt lat="50.091512" lon="9.249718">
<ele>223.0</ele>
<speed>67.5</speed>
<course>217.1</course>
<desc>Speed 67.5 km/h Distance 156 km</desc>
<time>2010-09-11T17:05:36.78</time>
<name>3353</name>
</trkpt>
<trkpt lat="50.090820" lon="9.248903">
<ele>223.0</ele>
<speed>67.6</speed>
<course>215.6</course>
<desc>Speed 67.6 km/h Distance 156 km</desc>
<time>2010-09-11T17:05:40.78</time>
<name>3354</name>
</trkpt>
<trkpt lat="50.090492" lon="9.248537">
<ele>223.0</ele>
<speed>62.5</speed>
<course>206.9</course>
<desc>Speed 62.5 km/h Distance 156 km</desc>
<time>2010-09-11T17:05:43.79</time>
<name>3355</name>
</trkpt>
<trkpt lat="50.090198" lon="9.248305">
<ele>223.0</ele>
<speed>61.1</speed>
<course>217.2</course>
<desc>Speed 61.1 km/h Distance 156 km</desc>
<time>2010-09-11T17:05:45.78</time>
<name>3356</name>
</trkpt>
<trkpt lat="50.089928" lon="9.247985">
<ele>223.0</ele>
<speed>52.8</speed>
<course>217.6</course>
<desc>Speed 52.8 km/h Distance 156 km</desc>
<time>2010-09-11T17:05:47.77</time>
<name>3357</name>
</trkpt>
<trkpt lat="50.089837" lon="9.247875">
<ele>223.5</ele>
<speed>52.8</speed>
<course>225.8</course>
<desc>Speed 52.8 km/h Distance 156 km</desc>
<time>2010-09-11T17:05:48.78</time>
<name>3358</name>
</trkpt>
<trkpt lat="50.089685" lon="9.247632">
<ele>225.0</ele>
<speed>52.8</speed>
<course>227.6</course>
<desc>Speed 52.8 km/h Distance 156 km</desc>
<time>2010-09-11T17:05:50.78</time>
<name>3359</name>
</trkpt>
<trkpt lat="50.089388" lon="9.247125">
<ele>231.0</ele>
<speed>55.5</speed>
<course>222.3</course>
<desc>Speed 55.5 km/h Distance 156 km</desc>
<time>2010-09-11T17:05:53.77</time>
<name>3360</name>
</trkpt>
<trkpt lat="50.089193" lon="9.246848">
<ele>233.0</ele>
<speed>55.5</speed>
<course>228.0</course>
<desc>Speed 55.5 km/h Distance 156 km</desc>
<time>2010-09-11T17:05:56.77</time>
<name>3361</name>
</trkpt>
<trkpt lat="50.089032" lon="9.246568">
<ele>232.5</ele>
<speed>50.4</speed>
<course>228.9</course>
<desc>Speed 50.4 km/h Distance 156 km</desc>
<time>2010-09-11T17:05:58.77</time>
<name>3362</name>
</trkpt>
<trkpt lat="50.088737" lon="9.246042">
<ele>233.5</ele>
<speed>51.0</speed>
<course>216.5</course>
<desc>Speed 51.0 km/h Distance 156 km</desc>
<time>2010-09-11T17:06:01.77</time>
<name>3363</name>
</trkpt>
<trkpt lat="50.088368" lon="9.245617">
<ele>231.5</ele>
<speed>29.2</speed>
<course>239.8</course>
<desc>Speed 29.2 km/h Distance 157 km</desc>
<time>2010-09-11T17:06:05.77</time>
<name>3364</name>
</trkpt>
<trkpt lat="50.088332" lon="9.245518">
<ele>230.0</ele>
<speed>29.2</speed>
<course>241.1</course>
<desc>Speed 29.2 km/h Distance 157 km</desc>
<time>2010-09-11T17:06:06.76</time>
<name>3365</name>
</trkpt>
<trkpt lat="50.088303" lon="9.245438">
<ele>229.5</ele>
<speed>29.2</speed>
<course>212.7</course>
<desc>Speed 29.2 km/h Distance 157 km</desc>
<time>2010-09-11T17:06:07.76</time>
<name>3366</name>
</trkpt>
<trkpt lat="50.088222" lon="9.245357">
<ele>228.5</ele>
<speed>29.2</speed>
<course>212.7</course>
<desc>Speed 29.2 km/h Distance 157 km</desc>
<time>2010-09-11T17:06:09.76</time>
<name>3367</name>
</trkpt>
<trkpt lat="50.088145" lon="9.245280">
<ele>229.0</ele>
<speed>29.2</speed>
<course>218.7</course>
<desc>Speed 29.2 km/h Distance 157 km</desc>
<time>2010-09-11T17:06:12.76</time>
<name>3368</name>
</trkpt>
<trkpt lat="50.088092" lon="9.245213">
<ele>229.0</ele>
<speed>29.2</speed>
<course>139.8</course>
<desc>Speed 29.2 km/h Distance 157 km</desc>
<time>2010-09-11T17:06:16.76</time>
<name>3369</name>
</trkpt>
<trkpt lat="50.087992" lon="9.245345">
<ele>229.0</ele>
<speed>29.2</speed>
<course>196.6</course>
<desc>Speed 29.2 km/h Distance 157 km</desc>
<time>2010-09-11T17:06:19.76</time>
<name>3370</name>
</trkpt>
<trkpt lat="50.087923" lon="9.245313">
<ele>229.5</ele>
<speed>29.2</speed>
<course>192.9</course>
<desc>Speed 29.2 km/h Distance 157 km</desc>
<time>2010-09-11T17:06:20.76</time>
<name>3371</name>
</trkpt>
<trkpt lat="50.087825" lon="9.245278">
<ele>229.5</ele>
<speed>29.2</speed>
<course>185.8</course>
<desc>Speed 29.2 km/h Distance 157 km</desc>
<time>2010-09-11T17:06:23.76</time>
<name>3372</name>
</trkpt>
<trkpt lat="50.087083" lon="9.245162">
<ele>235.0</ele>
<speed>16.3</speed>
<course>178.6</course>
<desc>Speed 16.3 km/h Distance 157 km</desc>
<time>2010-09-11T17:06:28.75</time>
<name>3373</name>
</trkpt>
<trkpt lat="50.086358" lon="9.245190">
<ele>231.5</ele>
<speed>31.3</speed>
<course>138.4</course>
<desc>Speed 31.3 km/h Distance 157 km</desc>
<time>2010-09-11T17:06:34.75</time>
<name>3374</name>
</trkpt>
<trkpt lat="50.086272" lon="9.245310">
<ele>230.5</ele>
<speed>31.3</speed>
<course>149.0</course>
<desc>Speed 31.3 km/h Distance 157 km</desc>
<time>2010-09-11T17:06:36.75</time>
<name>3375</name>
</trkpt>
<trkpt lat="50.086168" lon="9.245407">
<ele>230.5</ele>
<speed>31.3</speed>
<course>175.1</course>
<desc>Speed 31.3 km/h Distance 157 km</desc>
<time>2010-09-11T17:06:39.84</time>
<name>3376</name>
</trkpt>
<trkpt lat="50.086030" lon="9.245425">
<ele>229.0</ele>
<speed>31.3</speed>
<course>143.9</course>
<desc>Speed 31.3 km/h Distance 157 km</desc>
<time>2010-09-11T17:06:41.73</time>
<name>3377</name>
</trkpt>
<trkpt lat="50.085922" lon="9.245548">
<ele>229.0</ele>
<speed>31.3</speed>
<course>204.3</course>
<desc>Speed 31.3 km/h Distance 157 km</desc>
<time>2010-09-11T17:06:44.73</time>
<name>3378</name>
</trkpt>
<trkpt lat="50.085702" lon="9.245393">
<ele>230.5</ele>
<speed>31.3</speed>
<course>182.8</course>
<desc>Speed 31.3 km/h Distance 157 km</desc>
<time>2010-09-11T17:06:47.73</time>
<name>3379</name>
</trkpt>
<trkpt lat="50.085592" lon="9.245385">
<ele>230.5</ele>
<speed>31.3</speed>
<course>158.2</course>
<desc>Speed 31.3 km/h Distance 157 km</desc>
<time>2010-09-11T17:06:49.73</time>
<name>3380</name>
</trkpt>
<trkpt lat="50.085455" lon="9.245470">
<ele>229.0</ele>
<speed>31.3</speed>
<course>153.6</course>
<desc>Speed 31.3 km/h Distance 157 km</desc>
<time>2010-09-11T17:06:52.73</time>
<name>3381</name>
</trkpt>
<trkpt lat="50.085367" lon="9.245538">
<ele>228.0</ele>
<speed>31.3</speed>
<course>208.5</course>
<desc>Speed 31.3 km/h Distance 157 km</desc>
<time>2010-09-11T17:06:54.73</time>
<name>3382</name>
</trkpt>
<trkpt lat="50.085345" lon="9.245520">
<ele>228.0</ele>
<speed>31.3</speed>
<course>156.1</course>
<desc>Speed 31.3 km/h Distance 157 km</desc>
<time>2010-09-11T17:06:59.72</time>
<name>3383</name>
</trkpt>
<trkpt lat="50.083452" lon="9.246825">
<ele>228.0</ele>
<speed>31.3</speed>
<course>187.8</course>
<desc>Speed 31.3 km/h Distance 157 km</desc>
<time>2010-09-11T17:07:11.72</time>
<name>3384</name>
</trkpt>
<trkpt lat="50.082123" lon="9.246540">
<ele>228.5</ele>
<speed>31.3</speed>
<course>183.1</course>
<desc>Speed 31.3 km/h Distance 157 km</desc>
<time>2010-09-11T17:07:17.72</time>
<name>3385</name>
</trkpt>
<trkpt lat="50.081963" lon="9.246527">
<ele>228.0</ele>
<speed>31.3</speed>
<course>186.9</course>
<desc>Speed 31.3 km/h Distance 157 km</desc>
<time>2010-09-11T17:07:19.71</time>
<name>3386</name>
</trkpt>
<trkpt lat="50.081138" lon="9.246372">
<ele>229.0</ele>
<speed>35.4</speed>
<course>191.0</course>
<desc>Speed 35.4 km/h Distance 157 km</desc>
<time>2010-09-11T17:07:24.71</time>
<name>3387</name>
</trkpt>
<trkpt lat="50.080945" lon="9.246313">
<ele>229.5</ele>
<speed>36.8</speed>
<course>184.3</course>
<desc>Speed 36.8 km/h Distance 157 km</desc>
<time>2010-09-11T17:07:26.71</time>
<name>3388</name>
</trkpt>
<trkpt lat="50.080762" lon="9.246292">
<ele>229.5</ele>
<speed>25.7</speed>
<course>190.6</course>
<desc>Speed 25.7 km/h Distance 157 km</desc>
<time>2010-09-11T17:07:28.70</time>
<name>3389</name>
</trkpt>
<trkpt lat="50.080710" lon="9.246277">
<ele>229.5</ele>
<speed>25.7</speed>
<course>191.7</course>
<desc>Speed 25.7 km/h Distance 157 km</desc>
<time>2010-09-11T17:07:29.71</time>
<name>3390</name>
</trkpt>
<trkpt lat="50.080663" lon="9.246262">
<ele>229.5</ele>
<speed>25.7</speed>
<course>177.7</course>
<desc>Speed 25.7 km/h Distance 157 km</desc>
<time>2010-09-11T17:07:30.71</time>
<name>3391</name>
</trkpt>
<trkpt lat="50.080585" lon="9.246267">
<ele>229.0</ele>
<speed>25.7</speed>
<course>194.5</course>
<desc>Speed 25.7 km/h Distance 157 km</desc>
<time>2010-09-11T17:07:32.71</time>
<name>3392</name>
</trkpt>
<trkpt lat="50.080208" lon="9.246115">
<ele>228.5</ele>
<speed>48.3</speed>
<course>193.9</course>
<desc>Speed 48.3 km/h Distance 158 km</desc>
<time>2010-09-11T17:07:36.70</time>
<name>3393</name>
</trkpt>
<trkpt lat="50.080092" lon="9.246070">
<ele>228.5</ele>
<speed>48.3</speed>
<course>187.7</course>
<desc>Speed 48.3 km/h Distance 158 km</desc>
<time>2010-09-11T17:07:37.71</time>
<name>3394</name>
</trkpt>
<trkpt lat="50.079910" lon="9.246032">
<ele>229.5</ele>
<speed>48.3</speed>
<course>200.6</course>
<desc>Speed 48.3 km/h Distance 158 km</desc>
<time>2010-09-11T17:07:39.71</time>
<name>3395</name>
</trkpt>
<trkpt lat="50.079668" lon="9.245890">
<ele>230.5</ele>
<speed>45.8</speed>
<course>185.9</course>
<desc>Speed 45.8 km/h Distance 158 km</desc>
<time>2010-09-11T17:07:41.70</time>
<name>3396</name>
</trkpt>
<trkpt lat="50.079388" lon="9.245845">
<ele>231.0</ele>
<speed>21.1</speed>
<course>168.9</course>
<desc>Speed 21.1 km/h Distance 158 km</desc>
<time>2010-09-11T17:07:45.70</time>
<name>3397</name>
</trkpt>
<trkpt lat="50.079285" lon="9.245877">
<ele>233.0</ele>
<speed>10.1</speed>
<course>125.9</course>
<desc>Speed 10.1 km/h Distance 158 km</desc>
<time>2010-09-11T17:07:47.70</time>
<name>3398</name>
</trkpt>
<trkpt lat="50.079242" lon="9.245970">
<ele>233.5</ele>
<speed>14.6</speed>
<course>127.9</course>
<desc>Speed 14.6 km/h Distance 158 km</desc>
<time>2010-09-11T17:07:49.70</time>
<name>3399</name>
</trkpt>
<trkpt lat="50.079228" lon="9.245997">
<ele>233.5</ele>
<speed>14.6</speed>
<course>93.1</course>
<desc>Speed 14.6 km/h Distance 158 km</desc>
<time>2010-09-11T17:07:50.70</time>
<name>3400</name>
</trkpt>
<trkpt lat="50.079223" lon="9.246138">
<ele>232.0</ele>
<speed>14.6</speed>
<course>102.0</course>
<desc>Speed 14.6 km/h Distance 158 km</desc>
<time>2010-09-11T17:07:52.70</time>
<name>3401</name>
</trkpt>
<trkpt lat="50.079218" lon="9.246175">
<ele>231.5</ele>
<speed>14.6</speed>
<course>133.5</course>
<desc>Speed 14.6 km/h Distance 158 km</desc>
<time>2010-09-11T17:07:53.69</time>
<name>3402</name>
</trkpt>
<trkpt lat="50.079195" lon="9.246213">
<ele>231.5</ele>
<speed>14.6</speed>
<course>183.2</course>
<desc>Speed 14.6 km/h Distance 158 km</desc>
<time>2010-09-11T17:07:54.70</time>
<name>3403</name>
</trkpt>
<trkpt lat="50.079157" lon="9.246210">
<ele>230.5</ele>
<speed>14.6</speed>
<course>163.9</course>
<desc>Speed 14.6 km/h Distance 158 km</desc>
<time>2010-09-11T17:07:55.70</time>
<name>3404</name>
</trkpt>
<trkpt lat="50.079123" lon="9.246225">
<ele>230.0</ele>
<speed>14.6</speed>
<course>152.8</course>
<desc>Speed 14.6 km/h Distance 158 km</desc>
<time>2010-09-11T17:07:56.70</time>
<name>3405</name>
</trkpt>
<trkpt lat="50.079107" lon="9.246238">
<ele>230.0</ele>
<speed>14.6</speed>
<course>188.1</course>
<desc>Speed 14.6 km/h Distance 158 km</desc>
<time>2010-09-11T17:07:57.69</time>
<name>3406</name>
</trkpt>
<trkpt lat="50.079070" lon="9.246230">
<ele>229.5</ele>
<speed>14.6</speed>
<course>103.3</course>
<desc>Speed 14.6 km/h Distance 158 km</desc>
<time>2010-09-11T17:07:59.69</time>
<name>3407</name>
</trkpt>
<trkpt lat="50.079058" lon="9.246307">
<ele>229.5</ele>
<speed>14.6</speed>
<course>145.1</course>
<desc>Speed 14.6 km/h Distance 158 km</desc>
<time>2010-09-11T17:08:00.69</time>
<name>3408</name>
</trkpt>
<trkpt lat="50.078980" lon="9.246392">
<ele>229.0</ele>
<speed>14.6</speed>
<course>93.1</course>
<desc>Speed 14.6 km/h Distance 158 km</desc>
<time>2010-09-11T17:08:02.70</time>
<name>3409</name>
</trkpt>
<trkpt lat="50.078968" lon="9.246727">
<ele>230.5</ele>
<speed>14.6</speed>
<course>74.2</course>
<desc>Speed 14.6 km/h Distance 158 km</desc>
<time>2010-09-11T17:08:05.70</time>
<name>3410</name>
</trkpt>
<trkpt lat="50.078975" lon="9.246763">
<ele>230.0</ele>
<speed>10.3</speed>
<course>81.9</course>
<desc>Speed 10.3 km/h Distance 158 km</desc>
<time>2010-09-11T17:08:06.69</time>
<name>3411</name>
</trkpt>
<trkpt lat="50.078978" lon="9.246800">
<ele>231.0</ele>
<speed>10.3</speed>
<course>107.3</course>
<desc>Speed 10.3 km/h Distance 158 km</desc>
<time>2010-09-11T17:08:07.70</time>
<name>3412</name>
</trkpt>
<trkpt lat="50.078975" lon="9.246817">
<ele>231.0</ele>
<speed>5.5</speed>
<course>176.3</course>
<desc>Speed 5.5 km/h Distance 158 km</desc>
<time>2010-09-11T17:08:08.69</time>
<name>3413</name>
</trkpt>
<trkpt lat="50.078957" lon="9.246818">
<ele>231.0</ele>
<speed>3.6</speed>
<course>174.7</course>
<desc>Speed 3.6 km/h Distance 158 km</desc>
<time>2010-09-11T17:08:09.69</time>
<name>3414</name>
</trkpt>
<trkpt lat="50.078943" lon="9.246820">
<ele>231.0</ele>
<speed>3.6</speed>
<course>174.7</course>
<desc>Speed 3.6 km/h Distance 158 km</desc>
<time>2010-09-11T17:08:10.69</time>
<name>3415</name>
</trkpt>
<trkpt lat="50.078930" lon="9.246822">
<ele>231.0</ele>
<speed>3.6</speed>
<course>62.6</course>
<desc>Speed 3.6 km/h Distance 158 km</desc>
<time>2010-09-11T17:08:11.69</time>
<name>3416</name>
</trkpt>
<trkpt lat="50.078935" lon="9.246837">
<ele>231.0</ele>
<speed>5.4</speed>
<course>126.0</course>
<desc>Speed 5.4 km/h Distance 158 km</desc>
<time>2010-09-11T17:08:12.68</time>
<name>3417</name>
</trkpt>
<trkpt lat="50.078923" lon="9.246862">
<ele>231.5</ele>
<speed>1.8</speed>
<course>152.0</course>
<desc>Speed 1.8 km/h Distance 158 km</desc>
<time>2010-09-11T17:08:13.69</time>
<name>3418</name>
</trkpt>
<trkpt lat="50.078913" lon="9.246870">
<ele>232.5</ele>
<speed>1.8</speed>
<course>165.1</course>
<desc>Speed 1.8 km/h Distance 158 km</desc>
<time>2010-09-11T17:08:14.69</time>
<name>3419</name>
</trkpt>
<trkpt lat="50.078902" lon="9.246875">
<ele>232.5</ele>
<speed>0.9</speed>
<course>132.9</course>
<desc>Speed 0.9 km/h Distance 158 km</desc>
<time>2010-09-11T17:08:15.69</time>
<name>3420</name>
</trkpt>
<trkpt lat="50.078897" lon="9.246883">
<ele>233.0</ele>
<speed>0.9</speed>
<course>136.0</course>
<desc>Speed 0.9 km/h Distance 158 km</desc>
<time>2010-09-11T17:08:16.69</time>
<name>3421</name>
</trkpt>
<trkpt lat="50.078890" lon="9.246893">
<ele>233.5</ele>
<speed>0.9</speed>
<course>133.6</course>
<desc>Speed 0.9 km/h Distance 158 km</desc>
<time>2010-09-11T17:08:17.68</time>
<name>3422</name>
</trkpt>
<trkpt lat="50.078830" lon="9.246992">
<ele>239.5</ele>
<speed>4.1</speed>
<course>157.8</course>
<desc>Speed 4.1 km/h Distance 158 km</desc>
<time>2010-09-11T17:08:20.69</time>
<name>3423</name>
</trkpt>
<trkpt lat="50.078812" lon="9.247003">
<ele>239.0</ele>
<speed>6.1</speed>
<course>180.0</course>
<desc>Speed 6.1 km/h Distance 158 km</desc>
<time>2010-09-11T17:08:21.69</time>
<name>3424</name>
</trkpt>
<trkpt lat="50.078795" lon="9.247003">
<ele>240.5</ele>
<speed>2.2</speed>
<course>131.7</course>
<desc>Speed 2.2 km/h Distance 158 km</desc>
<time>2010-09-11T17:08:22.68</time>
<name>3425</name>
</trkpt>
<trkpt lat="50.078788" lon="9.247015">
<ele>241.5</ele>
<speed>1.0</speed>
<course>117.4</course>
<desc>Speed 1.0 km/h Distance 158 km</desc>
<time>2010-09-11T17:08:23.68</time>
<name>3426</name>
</trkpt>
<trkpt lat="50.078782" lon="9.247035">
<ele>242.5</ele>
<speed>2.3</speed>
<course>166.9</course>
<desc>Speed 2.3 km/h Distance 158 km</desc>
<time>2010-09-11T17:08:24.68</time>
<name>3427</name>
</trkpt>
<trkpt lat="50.078763" lon="9.247042">
<ele>244.5</ele>
<speed>1.7</speed>
<course>147.4</course>
<desc>Speed 1.7 km/h Distance 158 km</desc>
<time>2010-09-11T17:08:25.69</time>
<name>3428</name>
</trkpt>
<trkpt lat="50.078745" lon="9.247060">
<ele>247.5</ele>
<speed>0.4</speed>
<course>191.6</course>
<desc>Speed 0.4 km/h Distance 158 km</desc>
<time>2010-09-11T17:08:27.69</time>
<name>3429</name>
</trkpt>
<trkpt lat="50.078735" lon="9.247057">
<ele>247.5</ele>
<speed>2.0</speed>
<course>223.9</course>
<desc>Speed 2.0 km/h Distance 158 km</desc>
<time>2010-09-11T17:08:28.69</time>
<name>3430</name>
</trkpt>
<trkpt lat="50.078725" lon="9.247042">
<ele>247.5</ele>
<speed>4.5</speed>
<course>203.0</course>
<desc>Speed 4.5 km/h Distance 158 km</desc>
<time>2010-09-11T17:08:29.68</time>
<name>3431</name>
</trkpt>
<trkpt lat="50.078705" lon="9.247028">
<ele>248.0</ele>
<speed>1.9</speed>
<course>136.1</course>
<desc>Speed 1.9 km/h Distance 158 km</desc>
<time>2010-09-11T17:08:30.68</time>
<name>3432</name>
</trkpt>
<trkpt lat="50.078692" lon="9.247048">
<ele>248.0</ele>
<speed>7.8</speed>
<course>150.8</course>
<desc>Speed 7.8 km/h Distance 158 km</desc>
<time>2010-09-11T17:08:31.68</time>
<name>3433</name>
</trkpt>
<trkpt lat="50.078678" lon="9.247060">
<ele>248.5</ele>
<speed>7.8</speed>
<course>139.4</course>
<desc>Speed 7.8 km/h Distance 158 km</desc>
<time>2010-09-11T17:08:32.67</time>
<name>3434</name>
</trkpt>
<trkpt lat="50.078663" lon="9.247080">
<ele>248.0</ele>
<speed>7.8</speed>
<course>142.3</course>
<desc>Speed 7.8 km/h Distance 158 km</desc>
<time>2010-09-11T17:08:33.68</time>
<name>3435</name>
</trkpt>
<trkpt lat="50.078655" lon="9.247090">
<ele>248.0</ele>
<speed>7.8</speed>
<course>32.8</course>
<desc>Speed 7.8 km/h Distance 158 km</desc>
<time>2010-09-11T17:08:34.68</time>
<name>3436</name>
</trkpt>
<trkpt lat="50.078667" lon="9.247102">
<ele>247.0</ele>
<speed>2.3</speed>
<course>242.6</course>
<desc>Speed 2.3 km/h Distance 158 km</desc>
<time>2010-09-11T17:08:35.68</time>
<name>3437</name>
</trkpt>
<trkpt lat="50.078663" lon="9.247092">
<ele>247.5</ele>
<speed>0.8</speed>
<course>281.0</course>
<desc>Speed 0.8 km/h Distance 158 km</desc>
<time>2010-09-11T17:08:36.68</time>
<name>3438</name>
</trkpt>
<trkpt lat="50.078665" lon="9.247078">
<ele>247.0</ele>
<speed>2.0</speed>
<course>281.0</course>
<desc>Speed 2.0 km/h Distance 158 km</desc>
<time>2010-09-11T17:08:37.68</time>
<name>3439</name>
</trkpt>
<trkpt lat="50.078665" lon="9.247078">
<ele>247.0</ele>
<speed>0.8</speed>
<course>255.4</course>
<desc>Speed 0.8 km/h Distance 158 km</desc>
<time>2010-09-11T17:08:38.68</time>
<name>3440</name>
</trkpt>
<trkpt lat="50.078663" lon="9.247068">
<ele>247.0</ele>
<speed>0.8</speed>
<course>242.6</course>
<desc>Speed 0.8 km/h Distance 158 km</desc>
<time>2010-09-11T17:08:39.68</time>
<name>3441</name>
</trkpt>
<trkpt lat="50.078658" lon="9.247053">
<ele>248.0</ele>
<speed>0.8</speed>
<course>245.0</course>
<desc>Speed 0.8 km/h Distance 158 km</desc>
<time>2010-09-11T17:08:40.67</time>
<name>3442</name>
</trkpt>
<trkpt lat="50.078653" lon="9.247037">
<ele>248.5</ele>
<speed>0.8</speed>
<course>302.1</course>
<desc>Speed 0.8 km/h Distance 158 km</desc>
<time>2010-09-11T17:08:41.67</time>
<name>3443</name>
</trkpt>
<trkpt lat="50.078657" lon="9.247028">
<ele>249.0</ele>
<speed>0.8</speed>
<course>10.3</course>
<desc>Speed 0.8 km/h Distance 158 km</desc>
<time>2010-09-11T17:08:42.67</time>
<name>3444</name>
</trkpt>
<trkpt lat="50.078663" lon="9.247030">
<ele>249.0</ele>
<speed>0.8</speed>
<course>321.3</course>
<desc>Speed 0.8 km/h Distance 158 km</desc>
<time>2010-09-11T17:08:43.67</time>
<name>3445</name>
</trkpt>
<trkpt lat="50.078670" lon="9.247022">
<ele>249.5</ele>
<speed>0.8</speed>
<course>1.2</course>
<desc>Speed 0.8 km/h Distance 158 km</desc>
<time>2010-09-11T17:08:44.67</time>
<name>3446</name>
</trkpt>
<trkpt lat="50.078683" lon="9.247022">
<ele>250.5</ele>
<speed>1.5</speed>
<course>18.4</course>
<desc>Speed 1.5 km/h Distance 158 km</desc>
<time>2010-09-11T17:08:45.67</time>
<name>3447</name>
</trkpt>
<trkpt lat="50.078725" lon="9.247043">
<ele>250.5</ele>
<speed>2.9</speed>
<course>7.4</course>
<desc>Speed 2.9 km/h Distance 158 km</desc>
<time>2010-09-11T17:08:47.67</time>
<name>3448</name>
</trkpt>
<trkpt lat="50.078732" lon="9.247045">
<ele>250.5</ele>
<speed>2.9</speed>
<course>337.0</course>
<desc>Speed 2.9 km/h Distance 158 km</desc>
<time>2010-09-11T17:08:48.67</time>
<name>3449</name>
</trkpt>
<trkpt lat="50.078735" lon="9.247043">
<ele>251.0</ele>
<speed>2.9</speed>
<course>175.0</course>
<desc>Speed 2.9 km/h Distance 158 km</desc>
<time>2010-09-11T17:08:49.67</time>
<name>3450</name>
</trkpt>
<trkpt lat="50.078727" lon="9.247045">
<ele>251.5</ele>
<speed>1.8</speed>
<course>132.6</course>
<desc>Speed 1.8 km/h Distance 158 km</desc>
<time>2010-09-11T17:08:50.67</time>
<name>3451</name>
</trkpt>
<trkpt lat="50.078688" lon="9.247110">
<ele>251.0</ele>
<speed>10.5</speed>
<course>176.2</course>
<desc>Speed 10.5 km/h Distance 158 km</desc>
<time>2010-09-11T17:08:52.67</time>
<name>3452</name>
</trkpt>
<trkpt lat="50.078673" lon="9.247112">
<ele>248.5</ele>
<speed>0.5</speed>
<course>260.2</course>
<desc>Speed 0.5 km/h Distance 158 km</desc>
<time>2010-09-11T17:08:54.67</time>
<name>3453</name>
</trkpt>
<trkpt lat="50.078672" lon="9.247097">
<ele>249.5</ele>
<speed>3.2</speed>
<course>257.6</course>
<desc>Speed 3.2 km/h Distance 158 km</desc>
<time>2010-09-11T17:08:55.67</time>
<name>3454</name>
</trkpt>
<trkpt lat="50.078670" lon="9.247085">
<ele>250.0</ele>
<speed>1.8</speed>
<course>245.0</course>
<desc>Speed 1.8 km/h Distance 158 km</desc>
<time>2010-09-11T17:08:56.67</time>
<name>3455</name>
</trkpt>
<trkpt lat="50.078665" lon="9.247068">
<ele>250.0</ele>
<speed>1.8</speed>
<course>167.4</course>
<desc>Speed 1.8 km/h Distance 158 km</desc>
<time>2010-09-11T17:08:57.67</time>
<name>3456</name>
</trkpt>
<trkpt lat="50.078662" lon="9.247070">
<ele>250.0</ele>
<speed>1.9</speed>
<course>180.0</course>
<desc>Speed 1.9 km/h Distance 158 km</desc>
<time>2010-09-11T17:08:58.67</time>
<name>3457</name>
</trkpt>
<trkpt lat="50.078658" lon="9.247070">
<ele>250.0</ele>
<speed>1.9</speed>
<course>128.1</course>
<desc>Speed 1.9 km/h Distance 158 km</desc>
<time>2010-09-11T17:08:59.67</time>
<name>3458</name>
</trkpt>
<trkpt lat="50.078657" lon="9.247073">
<ele>250.0</ele>
<speed>1.9</speed>
<course>270.0</course>
<desc>Speed 1.9 km/h Distance 158 km</desc>
<time>2010-09-11T17:09:00.67</time>
<name>3459</name>
</trkpt>
<trkpt lat="50.078657" lon="9.247072">
<ele>250.5</ele>
<speed>1.9</speed>
<course>270.0</course>
<desc>Speed 1.9 km/h Distance 158 km</desc>
<time>2010-09-11T17:09:01.67</time>
<name>3460</name>
</trkpt>
<trkpt lat="50.078657" lon="9.247068">
<ele>250.5</ele>
<speed>1.9</speed>
<course>23.0</course>
<desc>Speed 1.9 km/h Distance 158 km</desc>
<time>2010-09-11T17:09:02.66</time>
<name>3461</name>
</trkpt>
<trkpt lat="50.078660" lon="9.247070">
<ele>251.5</ele>
<speed>1.1</speed>
<course>281.0</course>
<desc>Speed 1.1 km/h Distance 158 km</desc>
<time>2010-09-11T17:09:03.66</time>
<name>3462</name>
</trkpt>
<trkpt lat="50.078662" lon="9.247057">
<ele>251.0</ele>
<speed>1.1</speed>
<course>291.6</course>
<desc>Speed 1.1 km/h Distance 158 km</desc>
<time>2010-09-11T17:09:04.66</time>
<name>3463</name>
</trkpt>
<trkpt lat="50.078663" lon="9.247050">
<ele>251.0</ele>
<speed>1.1</speed>
<course>270.0</course>
<desc>Speed 1.1 km/h Distance 158 km</desc>
<time>2010-09-11T17:09:05.66</time>
<name>3464</name>
</trkpt>
<trkpt lat="50.078663" lon="9.247043">
<ele>251.0</ele>
<speed>1.1</speed>
<course>308.1</course>
<desc>Speed 1.1 km/h Distance 158 km</desc>
<time>2010-09-11T17:09:06.66</time>
<name>3465</name>
</trkpt>
<trkpt lat="50.078665" lon="9.247040">
<ele>251.0</ele>
<speed>1.1</speed>
<course>37.2</course>
<desc>Speed 1.1 km/h Distance 158 km</desc>
<time>2010-09-11T17:09:07.66</time>
<name>3466</name>
</trkpt>
<trkpt lat="50.078667" lon="9.247042">
<ele>251.0</ele>
<speed>1.1</speed>
<course>302.1</course>
<desc>Speed 1.1 km/h Distance 158 km</desc>
<time>2010-09-11T17:09:08.67</time>
<name>3467</name>
</trkpt>
<trkpt lat="50.078670" lon="9.247033">
<ele>251.0</ele>
<speed>1.1</speed>
<course>287.1</course>
<desc>Speed 1.1 km/h Distance 158 km</desc>
<time>2010-09-11T17:09:09.66</time>
<name>3468</name>
</trkpt>
<trkpt lat="50.078672" lon="9.247025">
<ele>251.0</ele>
<speed>1.1</speed>
<course>287.1</course>
<desc>Speed 1.1 km/h Distance 158 km</desc>
<time>2010-09-11T17:09:10.66</time>
<name>3469</name>
</trkpt>
<trkpt lat="50.078672" lon="9.247025">
<ele>251.0</ele>
<speed>1.1</speed>
<course>184.4</course>
<desc>Speed 1.1 km/h Distance 158 km</desc>
<time>2010-09-11T17:09:11.66</time>
<name>3470</name>
</trkpt>
<trkpt lat="50.078630" lon="9.247020">
<ele>251.5</ele>
<speed>9.8</speed>
<course>187.0</course>
<desc>Speed 9.8 km/h Distance 158 km</desc>
<time>2010-09-11T17:09:13.66</time>
<name>3471</name>
</trkpt>
<trkpt lat="50.078612" lon="9.247017">
<ele>252.0</ele>
<speed>9.8</speed>
<course>184.7</course>
<desc>Speed 9.8 km/h Distance 158 km</desc>
<time>2010-09-11T17:09:14.66</time>
<name>3472</name>
</trkpt>
<trkpt lat="50.078600" lon="9.247015">
<ele>252.0</ele>
<speed>9.8</speed>
<course>321.3</course>
<desc>Speed 9.8 km/h Distance 158 km</desc>
<time>2010-09-11T17:09:15.66</time>
<name>3473</name>
</trkpt>
<trkpt lat="50.078607" lon="9.247007">
<ele>252.5</ele>
<speed>2.7</speed>
<course>347.4</course>
<desc>Speed 2.7 km/h Distance 158 km</desc>
<time>2010-09-11T17:09:17.66</time>
<name>3474</name>
</trkpt>
<trkpt lat="50.078615" lon="9.247003">
<ele>253.0</ele>
<speed>2.7</speed>
<course>334.8</course>
<desc>Speed 2.7 km/h Distance 158 km</desc>
<time>2010-09-11T17:09:18.66</time>
<name>3475</name>
</trkpt>
<trkpt lat="50.078665" lon="9.246967">
<ele>253.5</ele>
<speed>1.8</speed>
<course>252.7</course>
<desc>Speed 1.8 km/h Distance 158 km</desc>
<time>2010-09-11T17:09:20.66</time>
<name>3476</name>
</trkpt>
<trkpt lat="50.078663" lon="9.246958">
<ele>253.0</ele>
<speed>1.8</speed>
<course>337.0</course>
<desc>Speed 1.8 km/h Distance 158 km</desc>
<time>2010-09-11T17:09:21.66</time>
<name>3477</name>
</trkpt>
<trkpt lat="50.078667" lon="9.246957">
<ele>253.5</ele>
<speed>1.8</speed>
<course>12.6</course>
<desc>Speed 1.8 km/h Distance 158 km</desc>
<time>2010-09-11T17:09:22.66</time>
<name>3478</name>
</trkpt>
<trkpt lat="50.078668" lon="9.246957">
<ele>253.5</ele>
<speed>1.8</speed>
<course>299.5</course>
<desc>Speed 1.8 km/h Distance 158 km</desc>
<time>2010-09-11T17:09:23.65</time>
<name>3479</name>
</trkpt>
<trkpt lat="50.078675" lon="9.246938">
<ele>253.5</ele>
<speed>2.5</speed>
<course>37.2</course>
<desc>Speed 2.5 km/h Distance 158 km</desc>
<time>2010-09-11T17:09:24.65</time>
<name>3480</name>
</trkpt>
<trkpt lat="50.078677" lon="9.246940">
<ele>254.0</ele>
<speed>2.5</speed>
<course>165.4</course>
<desc>Speed 2.5 km/h Distance 158 km</desc>
<time>2010-09-11T17:09:25.65</time>
<name>3481</name>
</trkpt>
<trkpt lat="50.078660" lon="9.246947">
<ele>255.0</ele>
<speed>6.5</speed>
<course>295.0</course>
<desc>Speed 6.5 km/h Distance 158 km</desc>
<time>2010-09-11T17:09:26.65</time>
<name>3482</name>
</trkpt>
<trkpt lat="50.078665" lon="9.246930">
<ele>254.5</ele>
<speed>2.7</speed>
<course>11.2</course>
<desc>Speed 2.7 km/h Distance 158 km</desc>
<time>2010-09-11T17:09:27.65</time>
<name>3483</name>
</trkpt>
<trkpt lat="50.078682" lon="9.246935">
<ele>254.5</ele>
<speed>5.6</speed>
<course>18.2</course>
<desc>Speed 5.6 km/h Distance 158 km</desc>
<time>2010-09-11T17:09:28.65</time>
<name>3484</name>
</trkpt>
<trkpt lat="50.078692" lon="9.246940">
<ele>254.5</ele>
<speed>0.8</speed>
<course>23.6</course>
<desc>Speed 0.8 km/h Distance 158 km</desc>
<time>2010-09-11T17:09:29.65</time>
<name>3485</name>
</trkpt>
<trkpt lat="50.078733" lon="9.246968">
<ele>254.5</ele>
<speed>6.1</speed>
<course>45.8</course>
<desc>Speed 6.1 km/h Distance 158 km</desc>
<time>2010-09-11T17:09:31.65</time>
<name>3486</name>
</trkpt>
<trkpt lat="50.078742" lon="9.246982">
<ele>254.5</ele>
<speed>6.1</speed>
<course>26.4</course>
<desc>Speed 6.1 km/h Distance 158 km</desc>
<time>2010-09-11T17:09:32.64</time>
<name>3487</name>
</trkpt>
<trkpt lat="50.078748" lon="9.246987">
<ele>254.5</ele>
<speed>6.1</speed>
<course>270.0</course>
<desc>Speed 6.1 km/h Distance 158 km</desc>
<time>2010-09-11T17:09:33.65</time>
<name>3488</name>
</trkpt>
<trkpt lat="50.078748" lon="9.246973">
<ele>254.5</ele>
<speed>3.1</speed>
<course>221.9</course>
<desc>Speed 3.1 km/h Distance 158 km</desc>
<time>2010-09-11T17:09:34.65</time>
<name>3489</name>
</trkpt>
<trkpt lat="50.078740" lon="9.246962">
<ele>254.5</ele>
<speed>3.1</speed>
<course>187.5</course>
<desc>Speed 3.1 km/h Distance 158 km</desc>
<time>2010-09-11T17:09:35.65</time>
<name>3490</name>
</trkpt>
<trkpt lat="50.078725" lon="9.246958">
<ele>254.5</ele>
<speed>3.1</speed>
<course>184.7</course>
<desc>Speed 3.1 km/h Distance 158 km</desc>
<time>2010-09-11T17:09:36.65</time>
<name>3491</name>
</trkpt>
<trkpt lat="50.078702" lon="9.246955">
<ele>254.5</ele>
<speed>3.1</speed>
<course>190.4</course>
<desc>Speed 3.1 km/h Distance 158 km</desc>
<time>2010-09-11T17:09:37.65</time>
<name>3492</name>
</trkpt>
<trkpt lat="50.078690" lon="9.246952">
<ele>254.5</ele>
<speed>3.1</speed>
<course>278.9</course>
<desc>Speed 3.1 km/h Distance 158 km</desc>
<time>2010-09-11T17:09:38.65</time>
<name>3493</name>
</trkpt>
<trkpt lat="50.078692" lon="9.246935">
<ele>255.0</ele>
<speed>7.0</speed>
<course>327.2</course>
<desc>Speed 7.0 km/h Distance 158 km</desc>
<time>2010-09-11T17:09:39.65</time>
<name>3494</name>
</trkpt>
<trkpt lat="50.078702" lon="9.246925">
<ele>255.0</ele>
<speed>7.0</speed>
<course>180.0</course>
<desc>Speed 7.0 km/h Distance 158 km</desc>
<time>2010-09-11T17:09:40.65</time>
<name>3495</name>
</trkpt>
<trkpt lat="50.078698" lon="9.246925">
<ele>255.0</ele>
<speed>0.3</speed>
<course>347.4</course>
<desc>Speed 0.3 km/h Distance 158 km</desc>
<time>2010-09-11T17:09:41.65</time>
<name>3496</name>
</trkpt>
<trkpt lat="50.078703" lon="9.246923">
<ele>255.5</ele>
<speed>0.3</speed>
<course>22.2</course>
<desc>Speed 0.3 km/h Distance 158 km</desc>
<time>2010-09-11T17:09:42.65</time>
<name>3497</name>
</trkpt>
<trkpt lat="50.078708" lon="9.246927">
<ele>255.5</ele>
<speed>2.1</speed>
<course>283.2</course>
<desc>Speed 2.1 km/h Distance 158 km</desc>
<time>2010-09-11T17:09:43.64</time>
<name>3498</name>
</trkpt>
<trkpt lat="50.078718" lon="9.246860">
<ele>256.0</ele>
<speed>1.0</speed>
<course>45.8</course>
<desc>Speed 1.0 km/h Distance 158 km</desc>
<time>2010-09-11T17:09:45.65</time>
<name>3499</name>
</trkpt>
<trkpt lat="50.078727" lon="9.246873">
<ele>256.0</ele>
<speed>7.1</speed>
<course>36.8</course>
<desc>Speed 7.1 km/h Distance 158 km</desc>
<time>2010-09-11T17:09:46.65</time>
<name>3500</name>
</trkpt>
<trkpt lat="50.078737" lon="9.246885">
<ele>255.5</ele>
<speed>3.0</speed>
<course>111.6</course>
<desc>Speed 3.0 km/h Distance 158 km</desc>
<time>2010-09-11T17:09:47.64</time>
<name>3501</name>
</trkpt>
<trkpt lat="50.078735" lon="9.246892">
<ele>255.5</ele>
<speed>0.6</speed>
<course>146.3</course>
<desc>Speed 0.6 km/h Distance 158 km</desc>
<time>2010-09-11T17:09:48.64</time>
<name>3502</name>
</trkpt>
<trkpt lat="50.078732" lon="9.246895">
<ele>255.5</ele>
<speed>0.3</speed>
<course>172.6</course>
<desc>Speed 0.3 km/h Distance 158 km</desc>
<time>2010-09-11T17:09:49.64</time>
<name>3503</name>
</trkpt>
<trkpt lat="50.078725" lon="9.246897">
<ele>255.5</ele>
<speed>1.0</speed>
<course>180.0</course>
<desc>Speed 1.0 km/h Distance 158 km</desc>
<time>2010-09-11T17:09:50.64</time>
<name>3504</name>
</trkpt>
<trkpt lat="50.078715" lon="9.246897">
<ele>256.0</ele>
<speed>2.6</speed>
<course>175.0</course>
<desc>Speed 2.6 km/h Distance 158 km</desc>
<time>2010-09-11T17:09:51.65</time>
<name>3505</name>
</trkpt>
<trkpt lat="50.078707" lon="9.246898">
<ele>256.0</ele>
<speed>1.7</speed>
<course>180.0</course>
<desc>Speed 1.7 km/h Distance 158 km</desc>
<time>2010-09-11T17:09:52.63</time>
<name>3506</name>
</trkpt>
<trkpt lat="50.078695" lon="9.246898">
<ele>256.0</ele>
<speed>2.5</speed>
<course>67.0</course>
<desc>Speed 2.5 km/h Distance 158 km</desc>
<time>2010-09-11T17:09:53.64</time>
<name>3507</name>
</trkpt>
<trkpt lat="50.078700" lon="9.246917">
<ele>257.0</ele>
<speed>0.5</speed>
<course>90.0</course>
<desc>Speed 0.5 km/h Distance 158 km</desc>
<time>2010-09-11T17:09:54.63</time>
<name>3508</name>
</trkpt>
<trkpt lat="50.078700" lon="9.246932">
<ele>257.5</ele>
<speed>0.6</speed>
<course>60.5</course>
<desc>Speed 0.6 km/h Distance 158 km</desc>
<time>2010-09-11T17:09:55.64</time>
<name>3509</name>
</trkpt>
<trkpt lat="50.078707" lon="9.246950">
<ele>258.0</ele>
<speed>2.0</speed>
<course>77.4</course>
<desc>Speed 2.0 km/h Distance 158 km</desc>
<time>2010-09-11T17:09:56.64</time>
<name>3510</name>
</trkpt>
<trkpt lat="50.078708" lon="9.246962">
<ele>258.0</ele>
<speed>1.7</speed>
<course>150.8</course>
<desc>Speed 1.7 km/h Distance 158 km</desc>
<time>2010-09-11T17:09:57.64</time>
<name>3511</name>
</trkpt>
<trkpt lat="50.078707" lon="9.246963">
<ele>258.5</ele>
<speed>1.7</speed>
<course>90.0</course>
<desc>Speed 1.7 km/h Distance 158 km</desc>
<time>2010-09-11T17:09:58.64</time>
<name>3512</name>
</trkpt>
<trkpt lat="50.078707" lon="9.246967">
<ele>258.5</ele>
<speed>1.7</speed>
<course>327.7</course>
<desc>Speed 1.7 km/h Distance 158 km</desc>
<time>2010-09-11T17:09:59.63</time>
<name>3513</name>
</trkpt>
<trkpt lat="50.078712" lon="9.246962">
<ele>258.5</ele>
<speed>0.3</speed>
<course>102.6</course>
<desc>Speed 0.3 km/h Distance 158 km</desc>
<time>2010-09-11T17:10:00.64</time>
<name>3514</name>
</trkpt>
<trkpt lat="50.078710" lon="9.246973">
<ele>259.0</ele>
<speed>2.4</speed>
<course>66.0</course>
<desc>Speed 2.4 km/h Distance 158 km</desc>
<time>2010-09-11T17:10:01.64</time>
<name>3515</name>
</trkpt>
<trkpt lat="50.078713" lon="9.246985">
<ele>260.0</ele>
<speed>1.3</speed>
<course>109.1</course>
<desc>Speed 1.3 km/h Distance 158 km</desc>
<time>2010-09-11T17:10:02.64</time>
<name>3516</name>
</trkpt>
<trkpt lat="50.078710" lon="9.247000">
<ele>260.0</ele>
<speed>2.9</speed>
<course>128.1</course>
<desc>Speed 2.9 km/h Distance 158 km</desc>
<time>2010-09-11T17:10:03.64</time>
<name>3517</name>
</trkpt>
<trkpt lat="50.078707" lon="9.247007">
<ele>260.5</ele>
<speed>3.1</speed>
<course>297.5</course>
<desc>Speed 3.1 km/h Distance 158 km</desc>
<time>2010-09-11T17:10:04.63</time>
<name>3518</name>
</trkpt>
<trkpt lat="50.078712" lon="9.246992">
<ele>260.5</ele>
<speed>2.4</speed>
<course>327.5</course>
<desc>Speed 2.4 km/h Distance 158 km</desc>
<time>2010-09-11T17:10:05.63</time>
<name>3519</name>
</trkpt>
<trkpt lat="50.078720" lon="9.246983">
<ele>260.0</ele>
<speed>3.5</speed>
<course>321.3</course>
<desc>Speed 3.5 km/h Distance 158 km</desc>
<time>2010-09-11T17:10:06.64</time>
<name>3520</name>
</trkpt>
<trkpt lat="50.078727" lon="9.246975">
<ele>260.0</ele>
<speed>3.5</speed>
<course>336.2</course>
<desc>Speed 3.5 km/h Distance 158 km</desc>
<time>2010-09-11T17:10:07.63</time>
<name>3521</name>
</trkpt>
<trkpt lat="50.078732" lon="9.246972">
<ele>260.5</ele>
<speed>3.5</speed>
<course>347.4</course>
<desc>Speed 3.5 km/h Distance 158 km</desc>
<time>2010-09-11T17:10:08.63</time>
<name>3522</name>
</trkpt>
<trkpt lat="50.078737" lon="9.246970">
<ele>261.5</ele>
<speed>3.5</speed>
<course>0.0</course>
<desc>Speed 3.5 km/h Distance 158 km</desc>
<time>2010-09-11T17:10:09.63</time>
<name>3523</name>
</trkpt>
<trkpt lat="50.078745" lon="9.246970">
<ele>262.0</ele>
<speed>2.5</speed>
<course>352.6</course>
<desc>Speed 2.5 km/h Distance 158 km</desc>
<time>2010-09-11T17:10:10.63</time>
<name>3524</name>
</trkpt>
<trkpt lat="50.078752" lon="9.246968">
<ele>262.0</ele>
<speed>2.5</speed>
<course>230.1</course>
<desc>Speed 2.5 km/h Distance 158 km</desc>
<time>2010-09-11T17:10:11.63</time>
<name>3525</name>
</trkpt>
<trkpt lat="50.078727" lon="9.246922">
<ele>264.5</ele>
<speed>2.5</speed>
<course>0.0</course>
<desc>Speed 2.5 km/h Distance 158 km</desc>
<time>2010-09-11T17:10:13.62</time>
<name>3526</name>
</trkpt>
<trkpt lat="50.078735" lon="9.246922">
<ele>263.5</ele>
<speed>1.4</speed>
<course>142.8</course>
<desc>Speed 1.4 km/h Distance 158 km</desc>
<time>2010-09-11T17:10:14.63</time>
<name>3527</name>
</trkpt>
<trkpt lat="50.078733" lon="9.246923">
<ele>263.5</ele>
<speed>0.9</speed>
<course>79.0</course>
<desc>Speed 0.9 km/h Distance 158 km</desc>
<time>2010-09-11T17:10:15.63</time>
<name>3528</name>
</trkpt>
<trkpt lat="50.078735" lon="9.246937">
<ele>262.0</ele>
<speed>4.3</speed>
<course>270.0</course>
<desc>Speed 4.3 km/h Distance 158 km</desc>
<time>2010-09-11T17:10:16.63</time>
<name>3529</name>
</trkpt>
<trkpt lat="50.078735" lon="9.246933">
<ele>261.5</ele>
<speed>1.9</speed>
<course>167.4</course>
<desc>Speed 1.9 km/h Distance 158 km</desc>
<time>2010-09-11T17:10:17.63</time>
<name>3530</name>
</trkpt>
<trkpt lat="50.078733" lon="9.246933">
<ele>261.5</ele>
<speed>1.5</speed>
<course>12.6</course>
<desc>Speed 1.5 km/h Distance 158 km</desc>
<time>2010-09-11T17:10:18.62</time>
<name>3531</name>
</trkpt>
<trkpt lat="50.078735" lon="9.246933">
<ele>262.0</ele>
<speed>1.5</speed>
<course>327.7</course>
<desc>Speed 1.5 km/h Distance 158 km</desc>
<time>2010-09-11T17:10:19.62</time>
<name>3532</name>
</trkpt>
<trkpt lat="50.078740" lon="9.246928">
<ele>262.0</ele>
<speed>4.1</speed>
<course>344.0</course>
<desc>Speed 4.1 km/h Distance 158 km</desc>
<time>2010-09-11T17:10:20.63</time>
<name>3533</name>
</trkpt>
<trkpt lat="50.078747" lon="9.246925">
<ele>262.5</ele>
<speed>4.1</speed>
<course>8.4</course>
<desc>Speed 4.1 km/h Distance 158 km</desc>
<time>2010-09-11T17:10:21.62</time>
<name>3534</name>
</trkpt>
<trkpt lat="50.078768" lon="9.246930">
<ele>262.5</ele>
<speed>8.9</speed>
<course>331.5</course>
<desc>Speed 8.9 km/h Distance 158 km</desc>
<time>2010-09-11T17:10:22.63</time>
<name>3535</name>
</trkpt>
<trkpt lat="50.078780" lon="9.246920">
<ele>263.5</ele>
<speed>5.1</speed>
<course>315.5</course>
<desc>Speed 5.1 km/h Distance 158 km</desc>
<time>2010-09-11T17:10:24.63</time>
<name>3536</name>
</trkpt>
<trkpt lat="50.078783" lon="9.246915">
<ele>263.5</ele>
<speed>5.1</speed>
<course>337.8</course>
<desc>Speed 5.1 km/h Distance 158 km</desc>
<time>2010-09-11T17:10:25.63</time>
<name>3537</name>
</trkpt>
<trkpt lat="50.078788" lon="9.246912">
<ele>263.0</ele>
<speed>5.1</speed>
<course>150.8</course>
<desc>Speed 5.1 km/h Distance 158 km</desc>
<time>2010-09-11T17:10:26.63</time>
<name>3538</name>
</trkpt>
<trkpt lat="50.078787" lon="9.246913">
<ele>263.0</ele>
<speed>5.1</speed>
<course>212.6</course>
<desc>Speed 5.1 km/h Distance 158 km</desc>
<time>2010-09-11T17:10:27.62</time>
<name>3539</name>
</trkpt>
<trkpt lat="50.078768" lon="9.246895">
<ele>263.0</ele>
<speed>1.8</speed>
<course>226.1</course>
<desc>Speed 1.8 km/h Distance 158 km</desc>
<time>2010-09-11T17:10:28.62</time>
<name>3540</name>
</trkpt>
<trkpt lat="50.078755" lon="9.246873">
<ele>263.5</ele>
<speed>1.8</speed>
<course>175.6</course>
<desc>Speed 1.8 km/h Distance 158 km</desc>
<time>2010-09-11T17:10:30.62</time>
<name>3541</name>
</trkpt>
<trkpt lat="50.078745" lon="9.246875">
<ele>263.5</ele>
<speed>1.8</speed>
<course>356.3</course>
<desc>Speed 1.8 km/h Distance 158 km</desc>
<time>2010-09-11T17:10:31.95</time>
<name>3542</name>
</trkpt>
<trkpt lat="50.078893" lon="9.246860">
<ele>263.5</ele>
<speed>6.5</speed>
<course>347.4</course>
<desc>Speed 6.5 km/h Distance 158 km</desc>
<time>2010-09-11T17:10:34.81</time>
<name>3543</name>
</trkpt>
<trkpt lat="50.078897" lon="9.246858">
<ele>263.0</ele>
<speed>1.1</speed>
<course>347.4</course>
<desc>Speed 1.1 km/h Distance 158 km</desc>
<time>2010-09-11T17:10:36.01</time>
<name>3544</name>
</trkpt>
</trkseg>
</trk>
</gpx>
